<?xml version='1.0' encoding='UTF-8'?><gpx version="1.1" creator="JPX - https://github.com/jenetics/jpx" xmlns="http://www.topografix.com/GPX/1/1"><trk><trkseg><trkpt lat="44.7228648" lon="7.8019556"><ele>266.0</ele><time>2026-04-11T06:12:12.282Z</time></trkpt><trkpt lat="44.7229254" lon="7.8018787"><ele>266.0</ele><time>2026-04-11T06:12:13.28Z</time></trkpt><trkpt lat="44.7229808" lon="7.8018149"><ele>266.0</ele><time>2026-04-11T06:12:14.279Z</time></trkpt><trkpt lat="44.7230687" lon="7.8017261"><ele>266.0</ele><time>2026-04-11T06:12:16.279Z</time></trkpt><trkpt lat="44.723121" lon="7.8016645"><ele>266.0</ele><time>2026-04-11T06:12:17.279Z</time></trkpt><trkpt lat="44.7231636" lon="7.8015915"><ele>266.0</ele><time>2026-04-11T06:12:18.279Z</time></trkpt><trkpt lat="44.7232142" lon="7.801527"><ele>266.0</ele><time>2026-04-11T06:12:19.279Z</time></trkpt><trkpt lat="44.7233097" lon="7.8014125"><ele>266.0</ele><time>2026-04-11T06:12:21.279Z</time></trkpt><trkpt lat="44.7234166" lon="7.8013725"><ele>266.0</ele><time>2026-04-11T06:12:23.279Z</time></trkpt><trkpt lat="44.723478" lon="7.8013192"><ele>266.0</ele><time>2026-04-11T06:12:24.279Z</time></trkpt><trkpt lat="44.7235383" lon="7.8012703"><ele>266.0</ele><time>2026-04-11T06:12:25.279Z</time></trkpt><trkpt lat="44.7236031" lon="7.8012114"><ele>266.0</ele><time>2026-04-11T06:12:26.279Z</time></trkpt><trkpt lat="44.7236649" lon="7.8011679"><ele>266.0</ele><time>2026-04-11T06:12:27.279Z</time></trkpt><trkpt lat="44.723773" lon="7.8010709"><ele>266.0</ele><time>2026-04-11T06:12:29.279Z</time></trkpt><trkpt lat="44.7238313" lon="7.8010164"><ele>266.0</ele><time>2026-04-11T06:12:30.279Z</time></trkpt><trkpt lat="44.7238899" lon="7.8009681"><ele>266.0</ele><time>2026-04-11T06:12:31.279Z</time></trkpt><trkpt lat="44.7239477" lon="7.800923"><ele>266.0</ele><time>2026-04-11T06:12:32.279Z</time></trkpt><trkpt lat="44.7240105" lon="7.8008727"><ele>265.85714285714283</ele><time>2026-04-11T06:12:33.279Z</time></trkpt><trkpt lat="44.72407" lon="7.8008282"><ele>265.7142857142857</ele><time>2026-04-11T06:12:34.279Z</time></trkpt><trkpt lat="44.7241309" lon="7.8007836"><ele>265.57142857142856</ele><time>2026-04-11T06:12:35.279Z</time></trkpt><trkpt lat="44.7241876" lon="7.8007346"><ele>265.42857142857144</ele><time>2026-04-11T06:12:36.279Z</time></trkpt><trkpt lat="44.7242418" lon="7.8006623"><ele>265.2857142857143</ele><time>2026-04-11T06:12:37.279Z</time></trkpt><trkpt lat="44.7243009" lon="7.8005767"><ele>265.1428571428571</ele><time>2026-04-11T06:12:38.279Z</time></trkpt><trkpt lat="44.724358" lon="7.8005153"><ele>265.0</ele><time>2026-04-11T06:12:39.279Z</time></trkpt><trkpt lat="44.7244157" lon="7.8004631"><ele>264.8333333333333</ele><time>2026-04-11T06:12:40.279Z</time></trkpt><trkpt lat="44.7244759" lon="7.8004152"><ele>264.66666666666663</ele><time>2026-04-11T06:12:41.279Z</time></trkpt><trkpt lat="44.7245339" lon="7.8003666"><ele>264.5</ele><time>2026-04-11T06:12:42.279Z</time></trkpt><trkpt lat="44.7245923" lon="7.8003155"><ele>264.3333333333333</ele><time>2026-04-11T06:12:43.279Z</time></trkpt><trkpt lat="44.7246518" lon="7.8002581"><ele>264.1666666666667</ele><time>2026-04-11T06:12:44.279Z</time></trkpt><trkpt lat="44.7247128" lon="7.8002154"><ele>264.0</ele><time>2026-04-11T06:12:45.279Z</time></trkpt><trkpt lat="44.7248311" lon="7.8001383"><ele>264.2857142857143</ele><time>2026-04-11T06:12:47.279Z</time></trkpt><trkpt lat="44.724896" lon="7.8000906"><ele>264.57142857142856</ele><time>2026-04-11T06:12:48.279Z</time></trkpt><trkpt lat="44.7249593" lon="7.8000419"><ele>264.8571428571429</ele><time>2026-04-11T06:12:49.279Z</time></trkpt><trkpt lat="44.7250217" lon="7.7999876"><ele>265.1428571428571</ele><time>2026-04-11T06:12:50.279Z</time></trkpt><trkpt lat="44.7250831" lon="7.7999358"><ele>265.42857142857144</ele><time>2026-04-11T06:12:51.279Z</time></trkpt><trkpt lat="44.7251459" lon="7.7998905"><ele>265.7142857142857</ele><time>2026-04-11T06:12:52.279Z</time></trkpt><trkpt lat="44.7252073" lon="7.7998429"><ele>266.0</ele><time>2026-04-11T06:12:53.279Z</time></trkpt><trkpt lat="44.7252641" lon="7.7997994"><ele>266.1666666666667</ele><time>2026-04-11T06:12:54.279Z</time></trkpt><trkpt lat="44.7253387" lon="7.7997543"><ele>266.33333333333337</ele><time>2026-04-11T06:12:55.279Z</time></trkpt><trkpt lat="44.7254102" lon="7.7997037"><ele>266.5</ele><time>2026-04-11T06:12:56.279Z</time></trkpt><trkpt lat="44.7255258" lon="7.7996325"><ele>266.6666666666667</ele><time>2026-04-11T06:12:58.279Z</time></trkpt><trkpt lat="44.7255899" lon="7.7995896"><ele>266.8333333333333</ele><time>2026-04-11T06:12:59.279Z</time></trkpt><trkpt lat="44.7256566" lon="7.7995536"><ele>267.0</ele><time>2026-04-11T06:13:00.279Z</time></trkpt><trkpt lat="44.72572" lon="7.7995134"><ele>267.0</ele><time>2026-04-11T06:13:01.279Z</time></trkpt><trkpt lat="44.7257829" lon="7.799471"><ele>267.0</ele><time>2026-04-11T06:13:02.279Z</time></trkpt><trkpt lat="44.7258474" lon="7.7994311"><ele>267.0</ele><time>2026-04-11T06:13:03.279Z</time></trkpt><trkpt lat="44.7259086" lon="7.7994034"><ele>267.0</ele><time>2026-04-11T06:13:04.279Z</time></trkpt><trkpt lat="44.7259704" lon="7.7993828"><ele>267.0</ele><time>2026-04-11T06:13:05.279Z</time></trkpt><trkpt lat="44.7260926" lon="7.7994447"><ele>267.0</ele><time>2026-04-11T06:13:07.28Z</time></trkpt><trkpt lat="44.7261777" lon="7.7995455"><ele>266.6666666666667</ele><time>2026-04-11T06:13:09.28Z</time></trkpt><trkpt lat="44.7262854" lon="7.7996044"><ele>266.3333333333333</ele><time>2026-04-11T06:13:11.28Z</time></trkpt><trkpt lat="44.7263491" lon="7.7995962"><ele>266.0</ele><time>2026-04-11T06:13:12.28Z</time></trkpt><trkpt lat="44.7264578" lon="7.7995096"><ele>265.66666666666663</ele><time>2026-04-11T06:13:14.28Z</time></trkpt><trkpt lat="44.7265128" lon="7.799462"><ele>265.3333333333333</ele><time>2026-04-11T06:13:15.28Z</time></trkpt><trkpt lat="44.7265659" lon="7.7994138"><ele>265.0</ele><time>2026-04-11T06:13:16.28Z</time></trkpt><trkpt lat="44.7266186" lon="7.7993542"><ele>265.0</ele><time>2026-04-11T06:13:17.28Z</time></trkpt><trkpt lat="44.7267209" lon="7.7992593"><ele>265.0</ele><time>2026-04-11T06:13:19.28Z</time></trkpt><trkpt lat="44.7267782" lon="7.7992105"><ele>265.0</ele><time>2026-04-11T06:13:20.28Z</time></trkpt><trkpt lat="44.726848" lon="7.7991897"><ele>265.0</ele><time>2026-04-11T06:13:21.28Z</time></trkpt><trkpt lat="44.7269135" lon="7.799182"><ele>265.0</ele><time>2026-04-11T06:13:22.28Z</time></trkpt><trkpt lat="44.7270215" lon="7.7992368"><ele>265.0</ele><time>2026-04-11T06:13:24.28Z</time></trkpt><trkpt lat="44.7271005" lon="7.7992752"><ele>264.8333333333333</ele><time>2026-04-11T06:13:25.28Z</time></trkpt><trkpt lat="44.7271735" lon="7.7993079"><ele>264.66666666666663</ele><time>2026-04-11T06:13:26.28Z</time></trkpt><trkpt lat="44.7272346" lon="7.7993432"><ele>264.5</ele><time>2026-04-11T06:13:27.28Z</time></trkpt><trkpt lat="44.7273103" lon="7.7993676"><ele>264.3333333333333</ele><time>2026-04-11T06:13:28.28Z</time></trkpt><trkpt lat="44.7274231" lon="7.7993889"><ele>264.1666666666667</ele><time>2026-04-11T06:13:30.28Z</time></trkpt><trkpt lat="44.7274973" lon="7.7993814"><ele>264.0</ele><time>2026-04-11T06:13:31.28Z</time></trkpt><trkpt lat="44.727559" lon="7.7993617"><ele>263.59999999999997</ele><time>2026-04-11T06:13:32.28Z</time></trkpt><trkpt lat="44.7276821" lon="7.7993314"><ele>263.2</ele><time>2026-04-11T06:13:34.281Z</time></trkpt><trkpt lat="44.7277563" lon="7.7993294"><ele>262.79999999999995</ele><time>2026-04-11T06:13:35.28Z</time></trkpt><trkpt lat="44.7278236" lon="7.7993132"><ele>262.4</ele><time>2026-04-11T06:13:36.28Z</time></trkpt><trkpt lat="44.7279412" lon="7.7992834"><ele>262.0</ele><time>2026-04-11T06:13:38.28Z</time></trkpt><trkpt lat="44.7280054" lon="7.7992676"><ele>262.66666666666663</ele><time>2026-04-11T06:13:39.28Z</time></trkpt><trkpt lat="44.7280704" lon="7.7992539"><ele>263.3333333333333</ele><time>2026-04-11T06:13:40.28Z</time></trkpt><trkpt lat="44.7281372" lon="7.7992487"><ele>264.0</ele><time>2026-04-11T06:13:41.28Z</time></trkpt><trkpt lat="44.7282576" lon="7.7992234"><ele>264.6666666666667</ele><time>2026-04-11T06:13:43.28Z</time></trkpt><trkpt lat="44.7283234" lon="7.7992283"><ele>265.33333333333337</ele><time>2026-04-11T06:13:44.28Z</time></trkpt><trkpt lat="44.7283893" lon="7.7992104"><ele>266.0</ele><time>2026-04-11T06:13:45.28Z</time></trkpt><trkpt lat="44.7284531" lon="7.7991964"><ele>266.0</ele><time>2026-04-11T06:13:46.281Z</time></trkpt><trkpt lat="44.7285226" lon="7.7991856"><ele>266.0</ele><time>2026-04-11T06:13:47.28Z</time></trkpt><trkpt lat="44.7286472" lon="7.7991748"><ele>266.0</ele><time>2026-04-11T06:13:49.28Z</time></trkpt><trkpt lat="44.7287656" lon="7.799134"><ele>266.0</ele><time>2026-04-11T06:13:51.28Z</time></trkpt><trkpt lat="44.7288255" lon="7.7990872"><ele>266.0</ele><time>2026-04-11T06:13:52.28Z</time></trkpt><trkpt lat="44.72888" lon="7.7990276"><ele>265.5</ele><time>2026-04-11T06:13:53.28Z</time></trkpt><trkpt lat="44.7289265" lon="7.7989541"><ele>265.0</ele><time>2026-04-11T06:13:54.28Z</time></trkpt><trkpt lat="44.7289671" lon="7.7988846"><ele>264.5</ele><time>2026-04-11T06:13:55.28Z</time></trkpt><trkpt lat="44.7290176" lon="7.7988261"><ele>264.0</ele><time>2026-04-11T06:13:56.28Z</time></trkpt><trkpt lat="44.729122" lon="7.7987608"><ele>263.5</ele><time>2026-04-11T06:13:58.28Z</time></trkpt><trkpt lat="44.7291996" lon="7.7987292"><ele>263.0</ele><time>2026-04-11T06:14:00.28Z</time></trkpt><trkpt lat="44.7292893" lon="7.7987307"><ele>263.0</ele><time>2026-04-11T06:14:01.28Z</time></trkpt><trkpt lat="44.7293662" lon="7.7987207"><ele>263.0</ele><time>2026-04-11T06:14:02.28Z</time></trkpt><trkpt lat="44.7294392" lon="7.798708"><ele>263.0</ele><time>2026-04-11T06:14:03.28Z</time></trkpt><trkpt lat="44.7295079" lon="7.7987048"><ele>263.0</ele><time>2026-04-11T06:14:04.28Z</time></trkpt><trkpt lat="44.7295752" lon="7.7986962"><ele>263.0</ele><time>2026-04-11T06:14:05.28Z</time></trkpt><trkpt lat="44.7296394" lon="7.7986742"><ele>263.0</ele><time>2026-04-11T06:14:06.28Z</time></trkpt><trkpt lat="44.7297625" lon="7.7986449"><ele>263.4</ele><time>2026-04-11T06:14:08.28Z</time></trkpt><trkpt lat="44.7298247" lon="7.7986271"><ele>263.8</ele><time>2026-04-11T06:14:09.28Z</time></trkpt><trkpt lat="44.7299453" lon="7.7985953"><ele>264.2</ele><time>2026-04-11T06:14:11.28Z</time></trkpt><trkpt lat="44.7300678" lon="7.7986147"><ele>264.6</ele><time>2026-04-11T06:14:13.28Z</time></trkpt><trkpt lat="44.7301862" lon="7.7986458"><ele>265.0</ele><time>2026-04-11T06:14:15.281Z</time></trkpt><trkpt lat="44.7302526" lon="7.7986268"><ele>265.6</ele><time>2026-04-11T06:14:16.28Z</time></trkpt><trkpt lat="44.7303237" lon="7.7986022"><ele>266.2</ele><time>2026-04-11T06:14:17.28Z</time></trkpt><trkpt lat="44.7304072" lon="7.7985755"><ele>266.8</ele><time>2026-04-11T06:14:18.28Z</time></trkpt><trkpt lat="44.7304741" lon="7.7985536"><ele>267.4</ele><time>2026-04-11T06:14:19.28Z</time></trkpt><trkpt lat="44.7305895" lon="7.7985231"><ele>268.0</ele><time>2026-04-11T06:14:21.28Z</time></trkpt><trkpt lat="44.730711" lon="7.7985106"><ele>268.2</ele><time>2026-04-11T06:14:23.281Z</time></trkpt><trkpt lat="44.7308392" lon="7.7984984"><ele>268.4</ele><time>2026-04-11T06:14:25.28Z</time></trkpt><trkpt lat="44.7309039" lon="7.7984938"><ele>268.59999999999997</ele><time>2026-04-11T06:14:26.28Z</time></trkpt><trkpt lat="44.7310199" lon="7.7984775"><ele>268.8</ele><time>2026-04-11T06:14:28.28Z</time></trkpt><trkpt lat="44.7310836" lon="7.7984676"><ele>269.0</ele><time>2026-04-11T06:14:29.28Z</time></trkpt><trkpt lat="44.7312057" lon="7.7984474"><ele>269.0</ele><time>2026-04-11T06:14:31.28Z</time></trkpt><trkpt lat="44.7313273" lon="7.798428"><ele>269.0</ele><time>2026-04-11T06:14:33.28Z</time></trkpt><trkpt lat="44.73139" lon="7.7984193"><ele>269.0</ele><time>2026-04-11T06:14:34.281Z</time></trkpt><trkpt lat="44.7314851" lon="7.7984175"><ele>269.0</ele><time>2026-04-11T06:14:36.28Z</time></trkpt><trkpt lat="44.7315543" lon="7.7984025"><ele>269.0</ele><time>2026-04-11T06:14:37.28Z</time></trkpt><trkpt lat="44.7316221" lon="7.7983858"><ele>269.0</ele><time>2026-04-11T06:14:38.28Z</time></trkpt><trkpt lat="44.7316892" lon="7.7983681"><ele>269.0</ele><time>2026-04-11T06:14:39.28Z</time></trkpt><trkpt lat="44.7317528" lon="7.7983461"><ele>269.0</ele><time>2026-04-11T06:14:40.28Z</time></trkpt><trkpt lat="44.7318765" lon="7.7983185"><ele>269.0</ele><time>2026-04-11T06:14:42.28Z</time></trkpt><trkpt lat="44.7319431" lon="7.7983034"><ele>269.0</ele><time>2026-04-11T06:14:43.28Z</time></trkpt><trkpt lat="44.7320089" lon="7.7982979"><ele>269.0</ele><time>2026-04-11T06:14:44.28Z</time></trkpt><trkpt lat="44.7321289" lon="7.7982726"><ele>269.0</ele><time>2026-04-11T06:14:46.28Z</time></trkpt><trkpt lat="44.7322448" lon="7.7982293"><ele>268.8</ele><time>2026-04-11T06:14:48.28Z</time></trkpt><trkpt lat="44.7323625" lon="7.7982027"><ele>268.59999999999997</ele><time>2026-04-11T06:14:50.28Z</time></trkpt><trkpt lat="44.7324841" lon="7.7981801"><ele>268.4</ele><time>2026-04-11T06:14:52.28Z</time></trkpt><trkpt lat="44.7326056" lon="7.7981707"><ele>268.2</ele><time>2026-04-11T06:14:54.28Z</time></trkpt><trkpt lat="44.7326706" lon="7.7981609"><ele>268.0</ele><time>2026-04-11T06:14:55.28Z</time></trkpt><trkpt lat="44.7327399" lon="7.798135"><ele>267.4</ele><time>2026-04-11T06:14:56.28Z</time></trkpt><trkpt lat="44.7328219" lon="7.7981023"><ele>266.8</ele><time>2026-04-11T06:14:57.28Z</time></trkpt><trkpt lat="44.7329256" lon="7.7981055"><ele>266.2</ele><time>2026-04-11T06:14:59.28Z</time></trkpt><trkpt lat="44.7330166" lon="7.7981062"><ele>265.6</ele><time>2026-04-11T06:15:01.28Z</time></trkpt><trkpt lat="44.7331318" lon="7.7981024"><ele>265.0</ele><time>2026-04-11T06:15:03.28Z</time></trkpt><trkpt lat="44.733196" lon="7.7981024"><ele>265.0</ele><time>2026-04-11T06:15:04.28Z</time></trkpt><trkpt lat="44.7332681" lon="7.7980949"><ele>265.0</ele><time>2026-04-11T06:15:05.28Z</time></trkpt><trkpt lat="44.7333465" lon="7.7980789"><ele>265.0</ele><time>2026-04-11T06:15:06.28Z</time></trkpt><trkpt lat="44.7334217" lon="7.7980682"><ele>265.0</ele><time>2026-04-11T06:15:07.28Z</time></trkpt><trkpt lat="44.7334926" lon="7.7980579"><ele>265.0</ele><time>2026-04-11T06:15:08.28Z</time></trkpt><trkpt lat="44.7335555" lon="7.7980649"><ele>265.0</ele><time>2026-04-11T06:15:09.28Z</time></trkpt><trkpt lat="44.7336747" lon="7.7980517"><ele>264.8333333333333</ele><time>2026-04-11T06:15:11.28Z</time></trkpt><trkpt lat="44.7337383" lon="7.7980336"><ele>264.66666666666663</ele><time>2026-04-11T06:15:12.28Z</time></trkpt><trkpt lat="44.7338013" lon="7.7980128"><ele>264.5</ele><time>2026-04-11T06:15:13.28Z</time></trkpt><trkpt lat="44.7338633" lon="7.7979812"><ele>264.3333333333333</ele><time>2026-04-11T06:15:14.28Z</time></trkpt><trkpt lat="44.7339813" lon="7.7979245"><ele>264.1666666666667</ele><time>2026-04-11T06:15:16.28Z</time></trkpt><trkpt lat="44.7340386" lon="7.7978832"><ele>264.0</ele><time>2026-04-11T06:15:17.28Z</time></trkpt><trkpt lat="44.7341011" lon="7.7978535"><ele>264.0</ele><time>2026-04-11T06:15:18.28Z</time></trkpt><trkpt lat="44.7341852" lon="7.7978254"><ele>264.0</ele><time>2026-04-11T06:15:19.28Z</time></trkpt><trkpt lat="44.734272" lon="7.7978125"><ele>264.0</ele><time>2026-04-11T06:15:20.28Z</time></trkpt><trkpt lat="44.7343388" lon="7.7978108"><ele>264.0</ele><time>2026-04-11T06:15:21.28Z</time></trkpt><trkpt lat="44.7344397" lon="7.7978529"><ele>264.0</ele><time>2026-04-11T06:15:23.28Z</time></trkpt><trkpt lat="44.7345629" lon="7.7978545"><ele>264.25</ele><time>2026-04-11T06:15:25.28Z</time></trkpt><trkpt lat="44.734694" lon="7.7978324"><ele>264.5</ele><time>2026-04-11T06:15:27.281Z</time></trkpt><trkpt lat="44.734812" lon="7.79782"><ele>264.75</ele><time>2026-04-11T06:15:29.28Z</time></trkpt><trkpt lat="44.7349238" lon="7.7977961"><ele>265.0</ele><time>2026-04-11T06:15:31.28Z</time></trkpt><trkpt lat="44.7350526" lon="7.7977734"><ele>265.0</ele><time>2026-04-11T06:15:33.28Z</time></trkpt><trkpt lat="44.7351194" lon="7.7977653"><ele>265.0</ele><time>2026-04-11T06:15:34.28Z</time></trkpt><trkpt lat="44.7351839" lon="7.7977564"><ele>265.0</ele><time>2026-04-11T06:15:35.28Z</time></trkpt><trkpt lat="44.7353023" lon="7.7977431"><ele>265.0</ele><time>2026-04-11T06:15:37.28Z</time></trkpt><trkpt lat="44.7353652" lon="7.7977358"><ele>265.0</ele><time>2026-04-11T06:15:38.28Z</time></trkpt><trkpt lat="44.7354934" lon="7.797726"><ele>265.0</ele><time>2026-04-11T06:15:40.28Z</time></trkpt><trkpt lat="44.7356179" lon="7.7976888"><ele>264.85714285714283</ele><time>2026-04-11T06:15:42.28Z</time></trkpt><trkpt lat="44.7356813" lon="7.7976833"><ele>264.7142857142857</ele><time>2026-04-11T06:15:43.28Z</time></trkpt><trkpt lat="44.7357458" lon="7.7976744"><ele>264.57142857142856</ele><time>2026-04-11T06:15:44.28Z</time></trkpt><trkpt lat="44.7358119" lon="7.7976641"><ele>264.42857142857144</ele><time>2026-04-11T06:15:45.28Z</time></trkpt><trkpt lat="44.7358784" lon="7.7976535"><ele>264.2857142857143</ele><time>2026-04-11T06:15:46.28Z</time></trkpt><trkpt lat="44.7359468" lon="7.7976473"><ele>264.1428571428571</ele><time>2026-04-11T06:15:47.28Z</time></trkpt><trkpt lat="44.7360154" lon="7.797644"><ele>264.0</ele><time>2026-04-11T06:15:48.28Z</time></trkpt><trkpt lat="44.7360814" lon="7.7976351"><ele>264.0</ele><time>2026-04-11T06:15:49.28Z</time></trkpt><trkpt lat="44.736146" lon="7.7976226"><ele>264.0</ele><time>2026-04-11T06:15:50.28Z</time></trkpt><trkpt lat="44.7362135" lon="7.7976165"><ele>264.0</ele><time>2026-04-11T06:15:51.28Z</time></trkpt><trkpt lat="44.7362801" lon="7.7976115"><ele>264.0</ele><time>2026-04-11T06:15:52.28Z</time></trkpt><trkpt lat="44.7363446" lon="7.7976116"><ele>264.0</ele><time>2026-04-11T06:15:53.281Z</time></trkpt><trkpt lat="44.7364561" lon="7.7976383"><ele>264.0</ele><time>2026-04-11T06:15:55.28Z</time></trkpt><trkpt lat="44.7365214" lon="7.7976585"><ele>264.0</ele><time>2026-04-11T06:15:56.28Z</time></trkpt><trkpt lat="44.7365927" lon="7.7976775"><ele>264.0</ele><time>2026-04-11T06:15:57.28Z</time></trkpt><trkpt lat="44.7366662" lon="7.7976748"><ele>264.0</ele><time>2026-04-11T06:15:58.28Z</time></trkpt><trkpt lat="44.7367338" lon="7.7976614"><ele>264.0</ele><time>2026-04-11T06:15:59.28Z</time></trkpt><trkpt lat="44.7368017" lon="7.7976527"><ele>264.0</ele><time>2026-04-11T06:16:00.28Z</time></trkpt><trkpt lat="44.7368684" lon="7.7976324"><ele>264.0</ele><time>2026-04-11T06:16:01.28Z</time></trkpt><trkpt lat="44.7369343" lon="7.7976169"><ele>264.0</ele><time>2026-04-11T06:16:02.28Z</time></trkpt><trkpt lat="44.7370036" lon="7.7975911"><ele>264.0</ele><time>2026-04-11T06:16:03.281Z</time></trkpt><trkpt lat="44.7370722" lon="7.7975604"><ele>264.6666666666667</ele><time>2026-04-11T06:16:04.28Z</time></trkpt><trkpt lat="44.7371349" lon="7.7975506"><ele>265.3333333333333</ele><time>2026-04-11T06:16:05.28Z</time></trkpt><trkpt lat="44.7372622" lon="7.7975264"><ele>266.0</ele><time>2026-04-11T06:16:07.28Z</time></trkpt><trkpt lat="44.7373271" lon="7.797518"><ele>266.66666666666663</ele><time>2026-04-11T06:16:08.28Z</time></trkpt><trkpt lat="44.7374459" lon="7.7974712"><ele>267.3333333333333</ele><time>2026-04-11T06:16:10.28Z</time></trkpt><trkpt lat="44.7375087" lon="7.7974638"><ele>268.0</ele><time>2026-04-11T06:16:11.28Z</time></trkpt><trkpt lat="44.7375764" lon="7.7974518"><ele>268.0</ele><time>2026-04-11T06:16:12.28Z</time></trkpt><trkpt lat="44.7376428" lon="7.797425"><ele>268.0</ele><time>2026-04-11T06:16:13.28Z</time></trkpt><trkpt lat="44.7377057" lon="7.7974008"><ele>268.0</ele><time>2026-04-11T06:16:14.28Z</time></trkpt><trkpt lat="44.7377689" lon="7.79738"><ele>268.0</ele><time>2026-04-11T06:16:15.28Z</time></trkpt><trkpt lat="44.7378929" lon="7.7973371"><ele>268.0</ele><time>2026-04-11T06:16:17.28Z</time></trkpt><trkpt lat="44.7379566" lon="7.7973094"><ele>268.0</ele><time>2026-04-11T06:16:18.28Z</time></trkpt><trkpt lat="44.7380224" lon="7.7973093"><ele>267.66666666666663</ele><time>2026-04-11T06:16:19.28Z</time></trkpt><trkpt lat="44.7380843" lon="7.797342"><ele>267.3333333333333</ele><time>2026-04-11T06:16:20.28Z</time></trkpt><trkpt lat="44.738142" lon="7.7973923"><ele>267.0</ele><time>2026-04-11T06:16:21.28Z</time></trkpt><trkpt lat="44.7382013" lon="7.7974342"><ele>266.6666666666667</ele><time>2026-04-11T06:16:22.28Z</time></trkpt><trkpt lat="44.7383229" lon="7.7975068"><ele>266.33333333333337</ele><time>2026-04-11T06:16:24.28Z</time></trkpt><trkpt lat="44.7383886" lon="7.7975243"><ele>266.0</ele><time>2026-04-11T06:16:25.28Z</time></trkpt><trkpt lat="44.7385102" lon="7.7974855"><ele>265.8</ele><time>2026-04-11T06:16:27.28Z</time></trkpt><trkpt lat="44.7386295" lon="7.7974468"><ele>265.6</ele><time>2026-04-11T06:16:29.28Z</time></trkpt><trkpt lat="44.7387507" lon="7.7974036"><ele>265.4</ele><time>2026-04-11T06:16:31.28Z</time></trkpt><trkpt lat="44.7388132" lon="7.7973819"><ele>265.2</ele><time>2026-04-11T06:16:32.28Z</time></trkpt><trkpt lat="44.7389337" lon="7.7973383"><ele>265.0</ele><time>2026-04-11T06:16:34.28Z</time></trkpt><trkpt lat="44.7390584" lon="7.7973158"><ele>265.0</ele><time>2026-04-11T06:16:36.28Z</time></trkpt><trkpt lat="44.7391783" lon="7.7972963"><ele>265.0</ele><time>2026-04-11T06:16:38.28Z</time></trkpt><trkpt lat="44.7392411" lon="7.7972855"><ele>265.0</ele><time>2026-04-11T06:16:39.28Z</time></trkpt><trkpt lat="44.7393045" lon="7.7972738"><ele>265.0</ele><time>2026-04-11T06:16:40.28Z</time></trkpt><trkpt lat="44.7394269" lon="7.7972552"><ele>265.0</ele><time>2026-04-11T06:16:42.281Z</time></trkpt><trkpt lat="44.7395173" lon="7.7973657"><ele>265.0</ele><time>2026-04-11T06:16:44.28Z</time></trkpt><trkpt lat="44.7395593" lon="7.7974377"><ele>265.0</ele><time>2026-04-11T06:16:45.281Z</time></trkpt><trkpt lat="44.7396048" lon="7.7975142"><ele>265.0</ele><time>2026-04-11T06:16:46.28Z</time></trkpt><trkpt lat="44.7396047" lon="7.7976738"><ele>265.0</ele><time>2026-04-11T06:16:48.28Z</time></trkpt><trkpt lat="44.7396039" lon="7.7978347"><ele>265.0</ele><time>2026-04-11T06:16:50.28Z</time></trkpt><trkpt lat="44.739638" lon="7.7979949"><ele>264.75</ele><time>2026-04-11T06:16:52.28Z</time></trkpt><trkpt lat="44.739641" lon="7.7981438"><ele>264.5</ele><time>2026-04-11T06:16:54.28Z</time></trkpt><trkpt lat="44.7396597" lon="7.7983068"><ele>264.25</ele><time>2026-04-11T06:16:56.28Z</time></trkpt><trkpt lat="44.7396689" lon="7.7984699"><ele>264.0</ele><time>2026-04-11T06:16:58.28Z</time></trkpt><trkpt lat="44.7396821" lon="7.7986314"><ele>264.5</ele><time>2026-04-11T06:17:00.28Z</time></trkpt><trkpt lat="44.7396925" lon="7.7987953"><ele>265.0</ele><time>2026-04-11T06:17:02.28Z</time></trkpt><trkpt lat="44.7397062" lon="7.7989543"><ele>265.5</ele><time>2026-04-11T06:17:04.28Z</time></trkpt><trkpt lat="44.739736" lon="7.7991036"><ele>266.0</ele><time>2026-04-11T06:17:06.28Z</time></trkpt><trkpt lat="44.739798" lon="7.7992362"><ele>266.0</ele><time>2026-04-11T06:17:08.28Z</time></trkpt><trkpt lat="44.7399006" lon="7.7993025"><ele>266.0</ele><time>2026-04-11T06:17:10.28Z</time></trkpt><trkpt lat="44.7400073" lon="7.7993372"><ele>266.0</ele><time>2026-04-11T06:17:12.28Z</time></trkpt><trkpt lat="44.7401112" lon="7.799373"><ele>266.0</ele><time>2026-04-11T06:17:14.28Z</time></trkpt><trkpt lat="44.7401987" lon="7.7994271"><ele>266.0</ele><time>2026-04-11T06:17:16.28Z</time></trkpt><trkpt lat="44.7402802" lon="7.7994947"><ele>266.0</ele><time>2026-04-11T06:17:18.28Z</time></trkpt><trkpt lat="44.7403586" lon="7.7995803"><ele>266.0</ele><time>2026-04-11T06:17:20.28Z</time></trkpt><trkpt lat="44.740444" lon="7.7996505"><ele>266.0</ele><time>2026-04-11T06:17:22.28Z</time></trkpt><trkpt lat="44.7405268" lon="7.7997168"><ele>266.0</ele><time>2026-04-11T06:17:24.28Z</time></trkpt><trkpt lat="44.7406048" lon="7.7997906"><ele>266.0</ele><time>2026-04-11T06:17:26.28Z</time></trkpt><trkpt lat="44.7406807" lon="7.7998673"><ele>266.0</ele><time>2026-04-11T06:17:28.28Z</time></trkpt><trkpt lat="44.7407624" lon="7.7999482"><ele>266.0</ele><time>2026-04-11T06:17:30.28Z</time></trkpt><trkpt lat="44.7408475" lon="7.8000275"><ele>266.0</ele><time>2026-04-11T06:17:32.287Z</time></trkpt><trkpt lat="44.7409317" lon="7.8000916"><ele>266.0</ele><time>2026-04-11T06:17:34.288Z</time></trkpt><trkpt lat="44.7410002" lon="7.8001797"><ele>266.0</ele><time>2026-04-11T06:17:36.287Z</time></trkpt><trkpt lat="44.7410629" lon="7.8002705"><ele>266.6666666666667</ele><time>2026-04-11T06:17:38.287Z</time></trkpt><trkpt lat="44.7411097" lon="7.8003759"><ele>267.33333333333337</ele><time>2026-04-11T06:17:40.287Z</time></trkpt><trkpt lat="44.7411554" lon="7.800484"><ele>268.0</ele><time>2026-04-11T06:17:42.288Z</time></trkpt><trkpt lat="44.7411929" lon="7.8005996"><ele>268.6666666666667</ele><time>2026-04-11T06:17:44.287Z</time></trkpt><trkpt lat="44.7412262" lon="7.8007128"><ele>269.3333333333333</ele><time>2026-04-11T06:17:46.287Z</time></trkpt><trkpt lat="44.7412567" lon="7.8008361"><ele>270.0</ele><time>2026-04-11T06:17:48.287Z</time></trkpt><trkpt lat="44.7412771" lon="7.8009591"><ele>269.5</ele><time>2026-04-11T06:17:50.287Z</time></trkpt><trkpt lat="44.7412961" lon="7.801078"><ele>269.0</ele><time>2026-04-11T06:17:52.287Z</time></trkpt><trkpt lat="44.7413165" lon="7.8011954"><ele>268.5</ele><time>2026-04-11T06:17:54.287Z</time></trkpt><trkpt lat="44.7413616" lon="7.8013146"><ele>268.0</ele><time>2026-04-11T06:17:56.287Z</time></trkpt><trkpt lat="44.7413732" lon="7.8014215"><ele>267.5</ele><time>2026-04-11T06:17:58.287Z</time></trkpt><trkpt lat="44.7413902" lon="7.8015153"><ele>267.0</ele><time>2026-04-11T06:18:00.287Z</time></trkpt><trkpt lat="44.7414156" lon="7.8016064"><ele>267.0</ele><time>2026-04-11T06:18:02.287Z</time></trkpt><trkpt lat="44.741447" lon="7.8016843"><ele>267.0</ele><time>2026-04-11T06:18:04.287Z</time></trkpt><trkpt lat="44.7414746" lon="7.8017664"><ele>267.0</ele><time>2026-04-11T06:18:06.287Z</time></trkpt><trkpt lat="44.7415323" lon="7.8018642"><ele>267.0</ele><time>2026-04-11T06:18:09.287Z</time></trkpt><trkpt lat="44.7415873" lon="7.8019678"><ele>267.0</ele><time>2026-04-11T06:18:12.287Z</time></trkpt><trkpt lat="44.7416496" lon="7.8020545"><ele>267.0</ele><time>2026-04-11T06:18:15.287Z</time></trkpt><trkpt lat="44.7416903" lon="7.8021394"><ele>267.0</ele><time>2026-04-11T06:18:18.287Z</time></trkpt><trkpt lat="44.7417518" lon="7.8022113"><ele>267.0</ele><time>2026-04-11T06:18:22.287Z</time></trkpt><trkpt lat="44.7417787" lon="7.8022925"><ele>267.0</ele><time>2026-04-11T06:18:25.288Z</time></trkpt><trkpt lat="44.7417989" lon="7.8023803"><ele>267.0</ele><time>2026-04-11T06:18:28.287Z</time></trkpt><trkpt lat="44.741868" lon="7.8024303"><ele>267.0</ele><time>2026-04-11T06:18:47.288Z</time></trkpt><trkpt lat="44.7419444" lon="7.802531"><ele>267.0</ele><time>2026-04-11T06:18:50.287Z</time></trkpt><trkpt lat="44.7420076" lon="7.8026199"><ele>267.5</ele><time>2026-04-11T06:18:52.287Z</time></trkpt><trkpt lat="44.7420986" lon="7.8027064"><ele>268.0</ele><time>2026-04-11T06:18:54.287Z</time></trkpt><trkpt lat="44.7421935" lon="7.8028082"><ele>268.5</ele><time>2026-04-11T06:18:56.287Z</time></trkpt><trkpt lat="44.7422897" lon="7.8028887"><ele>269.0</ele><time>2026-04-11T06:18:58.287Z</time></trkpt><trkpt lat="44.7423842" lon="7.8029782"><ele>269.0</ele><time>2026-04-11T06:19:00.287Z</time></trkpt><trkpt lat="44.7424634" lon="7.8030796"><ele>269.0</ele><time>2026-04-11T06:19:02.287Z</time></trkpt><trkpt lat="44.7425721" lon="7.8031659"><ele>269.0</ele><time>2026-04-11T06:19:04.287Z</time></trkpt><trkpt lat="44.7426892" lon="7.8032341"><ele>269.0</ele><time>2026-04-11T06:19:06.288Z</time></trkpt><trkpt lat="44.7427659" lon="7.8032721"><ele>269.0</ele><time>2026-04-11T06:19:07.287Z</time></trkpt><trkpt lat="44.7428331" lon="7.8033065"><ele>270.0</ele><time>2026-04-11T06:19:08.287Z</time></trkpt><trkpt lat="44.7429263" lon="7.8034196"><ele>271.0</ele><time>2026-04-11T06:19:10.287Z</time></trkpt><trkpt lat="44.7430247" lon="7.8035154"><ele>272.0</ele><time>2026-04-11T06:19:12.287Z</time></trkpt><trkpt lat="44.7431059" lon="7.8036287"><ele>273.0</ele><time>2026-04-11T06:19:14.287Z</time></trkpt><trkpt lat="44.7431982" lon="7.8037283"><ele>273.0</ele><time>2026-04-11T06:19:16.287Z</time></trkpt><trkpt lat="44.7432887" lon="7.8038303"><ele>273.0</ele><time>2026-04-11T06:19:18.287Z</time></trkpt><trkpt lat="44.7433789" lon="7.8039332"><ele>273.0</ele><time>2026-04-11T06:19:20.287Z</time></trkpt><trkpt lat="44.7434748" lon="7.804025"><ele>273.0</ele><time>2026-04-11T06:19:22.287Z</time></trkpt><trkpt lat="44.7435742" lon="7.8041039"><ele>273.25</ele><time>2026-04-11T06:19:24.287Z</time></trkpt><trkpt lat="44.7436753" lon="7.8041735"><ele>273.5</ele><time>2026-04-11T06:19:26.288Z</time></trkpt><trkpt lat="44.7437814" lon="7.8042387"><ele>273.75</ele><time>2026-04-11T06:19:28.287Z</time></trkpt><trkpt lat="44.7438873" lon="7.8043092"><ele>274.0</ele><time>2026-04-11T06:19:30.287Z</time></trkpt><trkpt lat="44.743997" lon="7.8043801"><ele>274.0</ele><time>2026-04-11T06:19:32.287Z</time></trkpt><trkpt lat="44.7441106" lon="7.804435"><ele>274.0</ele><time>2026-04-11T06:19:34.287Z</time></trkpt><trkpt lat="44.7442264" lon="7.8044985"><ele>274.0</ele><time>2026-04-11T06:19:36.287Z</time></trkpt><trkpt lat="44.7442949" lon="7.8045325"><ele>274.0</ele><time>2026-04-11T06:19:37.288Z</time></trkpt><trkpt lat="44.7443564" lon="7.8045697"><ele>274.0</ele><time>2026-04-11T06:19:38.288Z</time></trkpt><trkpt lat="44.7444501" lon="7.8046634"><ele>274.25</ele><time>2026-04-11T06:19:40.288Z</time></trkpt><trkpt lat="44.7445442" lon="7.8047718"><ele>274.5</ele><time>2026-04-11T06:19:42.288Z</time></trkpt><trkpt lat="44.7446289" lon="7.8048753"><ele>274.75</ele><time>2026-04-11T06:19:44.288Z</time></trkpt><trkpt lat="44.7447115" lon="7.8049889"><ele>275.0</ele><time>2026-04-11T06:19:46.288Z</time></trkpt><trkpt lat="44.7447903" lon="7.8051145"><ele>274.83333333333337</ele><time>2026-04-11T06:19:48.288Z</time></trkpt><trkpt lat="44.7448734" lon="7.8052488"><ele>274.6666666666667</ele><time>2026-04-11T06:19:50.288Z</time></trkpt><trkpt lat="44.744915" lon="7.8053228"><ele>274.5</ele><time>2026-04-11T06:19:51.288Z</time></trkpt><trkpt lat="44.7449568" lon="7.8053962"><ele>274.3333333333333</ele><time>2026-04-11T06:19:52.288Z</time></trkpt><trkpt lat="44.7450002" lon="7.8054705"><ele>274.16666666666663</ele><time>2026-04-11T06:19:53.288Z</time></trkpt><trkpt lat="44.7450505" lon="7.8055327"><ele>274.0</ele><time>2026-04-11T06:19:54.288Z</time></trkpt><trkpt lat="44.7450993" lon="7.8055912"><ele>274.00000000000006</ele><time>2026-04-11T06:19:55.288Z</time></trkpt><trkpt lat="44.7451477" lon="7.8056524"><ele>274.0</ele><time>2026-04-11T06:19:56.288Z</time></trkpt><trkpt lat="44.7451963" lon="7.8057149"><ele>274.0</ele><time>2026-04-11T06:19:57.288Z</time></trkpt><trkpt lat="44.7452448" lon="7.8057774"><ele>274.0</ele><time>2026-04-11T06:19:58.288Z</time></trkpt><trkpt lat="44.7452951" lon="7.8058356"><ele>274.0</ele><time>2026-04-11T06:19:59.288Z</time></trkpt><trkpt lat="44.7453447" lon="7.8058975"><ele>274.00000000000006</ele><time>2026-04-11T06:20:00.288Z</time></trkpt><trkpt lat="44.7453921" lon="7.8059587"><ele>274.0</ele><time>2026-04-11T06:20:01.288Z</time></trkpt><trkpt lat="44.7454424" lon="7.8060179"><ele>274.0</ele><time>2026-04-11T06:20:02.288Z</time></trkpt><trkpt lat="44.745492" lon="7.8060807"><ele>274.0</ele><time>2026-04-11T06:20:03.288Z</time></trkpt><trkpt lat="44.7455408" lon="7.8061399"><ele>274.0</ele><time>2026-04-11T06:20:04.288Z</time></trkpt><trkpt lat="44.7455884" lon="7.8062016"><ele>274.0</ele><time>2026-04-11T06:20:05.289Z</time></trkpt><trkpt lat="44.7456857" lon="7.8063132"><ele>274.0</ele><time>2026-04-11T06:20:07.288Z</time></trkpt><trkpt lat="44.745785" lon="7.8064131"><ele>274.0</ele><time>2026-04-11T06:20:09.288Z</time></trkpt><trkpt lat="44.7458829" lon="7.8065133"><ele>274.0</ele><time>2026-04-11T06:20:11.288Z</time></trkpt><trkpt lat="44.7459674" lon="7.8066288"><ele>274.0</ele><time>2026-04-11T06:20:13.288Z</time></trkpt><trkpt lat="44.7460548" lon="7.8067335"><ele>274.0</ele><time>2026-04-11T06:20:15.288Z</time></trkpt><trkpt lat="44.7461341" lon="7.8068526"><ele>274.0</ele><time>2026-04-11T06:20:17.288Z</time></trkpt><trkpt lat="44.7462402" lon="7.8069198"><ele>274.16666666666663</ele><time>2026-04-11T06:20:19.288Z</time></trkpt><trkpt lat="44.7462933" lon="7.8069833"><ele>274.3333333333333</ele><time>2026-04-11T06:20:23.288Z</time></trkpt><trkpt lat="44.7463313" lon="7.8070546"><ele>274.5</ele><time>2026-04-11T06:20:26.288Z</time></trkpt><trkpt lat="44.7464061" lon="7.8071349"><ele>274.6666666666667</ele><time>2026-04-11T06:20:28.288Z</time></trkpt><trkpt lat="44.7464901" lon="7.8072128"><ele>274.83333333333337</ele><time>2026-04-11T06:20:30.288Z</time></trkpt><trkpt lat="44.7465677" lon="7.8072931"><ele>275.0</ele><time>2026-04-11T06:20:32.288Z</time></trkpt><trkpt lat="44.7466535" lon="7.8073292"><ele>275.0</ele><time>2026-04-11T06:20:34.288Z</time></trkpt><trkpt lat="44.7467296" lon="7.8073427"><ele>275.0</ele><time>2026-04-11T06:20:36.288Z</time></trkpt><trkpt lat="44.7468274" lon="7.807313"><ele>275.0</ele><time>2026-04-11T06:20:38.288Z</time></trkpt><trkpt lat="44.7468909" lon="7.8072884"><ele>275.0</ele><time>2026-04-11T06:20:39.288Z</time></trkpt><trkpt lat="44.7470019" lon="7.8072305"><ele>275.0</ele><time>2026-04-11T06:20:41.288Z</time></trkpt><trkpt lat="44.7470676" lon="7.807228"><ele>275.0</ele><time>2026-04-11T06:20:42.288Z</time></trkpt><trkpt lat="44.7471373" lon="7.8072331"><ele>275.1666666666667</ele><time>2026-04-11T06:20:43.288Z</time></trkpt><trkpt lat="44.7471991" lon="7.8072131"><ele>275.33333333333337</ele><time>2026-04-11T06:20:44.288Z</time></trkpt><trkpt lat="44.7473204" lon="7.8071772"><ele>275.5</ele><time>2026-04-11T06:20:46.288Z</time></trkpt><trkpt lat="44.7473834" lon="7.8071559"><ele>275.6666666666667</ele><time>2026-04-11T06:20:47.288Z</time></trkpt><trkpt lat="44.7474459" lon="7.8071395"><ele>275.8333333333333</ele><time>2026-04-11T06:20:48.288Z</time></trkpt><trkpt lat="44.747515" lon="7.8071211"><ele>276.0</ele><time>2026-04-11T06:20:49.288Z</time></trkpt><trkpt lat="44.7475804" lon="7.8070991"><ele>276.0</ele><time>2026-04-11T06:20:50.288Z</time></trkpt><trkpt lat="44.7476444" lon="7.807073"><ele>276.0</ele><time>2026-04-11T06:20:51.288Z</time></trkpt><trkpt lat="44.7477069" lon="7.8070545"><ele>276.0</ele><time>2026-04-11T06:20:52.289Z</time></trkpt><trkpt lat="44.7477725" lon="7.8070374"><ele>276.0</ele><time>2026-04-11T06:20:53.288Z</time></trkpt><trkpt lat="44.7478373" lon="7.8070177"><ele>276.0</ele><time>2026-04-11T06:20:54.288Z</time></trkpt><trkpt lat="44.7479029" lon="7.8070023"><ele>276.0</ele><time>2026-04-11T06:20:55.288Z</time></trkpt><trkpt lat="44.747968" lon="7.8069792"><ele>276.0</ele><time>2026-04-11T06:20:56.288Z</time></trkpt><trkpt lat="44.7480332" lon="7.806955"><ele>276.0</ele><time>2026-04-11T06:20:57.288Z</time></trkpt><trkpt lat="44.7480997" lon="7.8069144"><ele>276.0</ele><time>2026-04-11T06:20:58.288Z</time></trkpt><trkpt lat="44.7481606" lon="7.8068749"><ele>276.0</ele><time>2026-04-11T06:20:59.288Z</time></trkpt><trkpt lat="44.7482856" lon="7.8068369"><ele>276.0</ele><time>2026-04-11T06:21:01.288Z</time></trkpt><trkpt lat="44.748351" lon="7.8068215"><ele>276.0</ele><time>2026-04-11T06:21:02.288Z</time></trkpt><trkpt lat="44.7484715" lon="7.8067682"><ele>276.0</ele><time>2026-04-11T06:21:04.288Z</time></trkpt><trkpt lat="44.7485354" lon="7.8067548"><ele>276.0</ele><time>2026-04-11T06:21:05.288Z</time></trkpt><trkpt lat="44.7486005" lon="7.8067466"><ele>276.0</ele><time>2026-04-11T06:21:06.288Z</time></trkpt><trkpt lat="44.7487253" lon="7.8067947"><ele>276.0</ele><time>2026-04-11T06:21:08.288Z</time></trkpt><trkpt lat="44.7487771" lon="7.8068554"><ele>276.0</ele><time>2026-04-11T06:21:09.288Z</time></trkpt><trkpt lat="44.7488317" lon="7.806926"><ele>276.0</ele><time>2026-04-11T06:21:10.288Z</time></trkpt><trkpt lat="44.7488864" lon="7.8069814"><ele>276.5</ele><time>2026-04-11T06:21:11.288Z</time></trkpt><trkpt lat="44.7489918" lon="7.8070695"><ele>277.0</ele><time>2026-04-11T06:21:13.288Z</time></trkpt><trkpt lat="44.749078" lon="7.8071638"><ele>277.5</ele><time>2026-04-11T06:21:15.288Z</time></trkpt><trkpt lat="44.7491599" lon="7.8072608"><ele>278.0</ele><time>2026-04-11T06:21:17.289Z</time></trkpt><trkpt lat="44.749259" lon="7.8073318"><ele>278.0</ele><time>2026-04-11T06:21:19.288Z</time></trkpt><trkpt lat="44.7493496" lon="7.8074095"><ele>278.0</ele><time>2026-04-11T06:21:21.288Z</time></trkpt><trkpt lat="44.7494252" lon="7.807496"><ele>278.0</ele><time>2026-04-11T06:21:23.288Z</time></trkpt><trkpt lat="44.7495073" lon="7.8075814"><ele>278.0</ele><time>2026-04-11T06:21:25.288Z</time></trkpt><trkpt lat="44.7495632" lon="7.8076909"><ele>278.0</ele><time>2026-04-11T06:21:27.288Z</time></trkpt><trkpt lat="44.7495171" lon="7.8078055"><ele>278.5</ele><time>2026-04-11T06:21:29.288Z</time></trkpt><trkpt lat="44.7494596" lon="7.8078957"><ele>279.0</ele><time>2026-04-11T06:21:31.288Z</time></trkpt><trkpt lat="44.7494078" lon="7.8079718"><ele>279.5</ele><time>2026-04-11T06:21:33.288Z</time></trkpt><trkpt lat="44.7493776" lon="7.8080733"><ele>280.0</ele><time>2026-04-11T06:21:35.289Z</time></trkpt><trkpt lat="44.7493467" lon="7.8081657"><ele>280.5</ele><time>2026-04-11T06:21:37.288Z</time></trkpt><trkpt lat="44.7493245" lon="7.8082697"><ele>281.0</ele><time>2026-04-11T06:21:39.288Z</time></trkpt><trkpt lat="44.7493157" lon="7.8083729"><ele>281.0</ele><time>2026-04-11T06:21:41.289Z</time></trkpt><trkpt lat="44.7493021" lon="7.8084715"><ele>281.0</ele><time>2026-04-11T06:21:43.288Z</time></trkpt><trkpt lat="44.7492742" lon="7.808564"><ele>281.0</ele><time>2026-04-11T06:21:45.288Z</time></trkpt><trkpt lat="44.7492373" lon="7.8086559"><ele>281.0</ele><time>2026-04-11T06:21:47.288Z</time></trkpt><trkpt lat="44.7492033" lon="7.8087581"><ele>281.0</ele><time>2026-04-11T06:21:49.288Z</time></trkpt><trkpt lat="44.7491741" lon="7.8088806"><ele>281.0</ele><time>2026-04-11T06:21:51.288Z</time></trkpt><trkpt lat="44.749145" lon="7.8089963"><ele>281.0</ele><time>2026-04-11T06:21:53.288Z</time></trkpt><trkpt lat="44.7491026" lon="7.8091141"><ele>281.0</ele><time>2026-04-11T06:21:55.288Z</time></trkpt><trkpt lat="44.7490625" lon="7.8092436"><ele>281.0</ele><time>2026-04-11T06:21:57.288Z</time></trkpt><trkpt lat="44.7490357" lon="7.8094002"><ele>281.0</ele><time>2026-04-11T06:21:59.288Z</time></trkpt><trkpt lat="44.749033" lon="7.8095761"><ele>281.0</ele><time>2026-04-11T06:22:01.289Z</time></trkpt><trkpt lat="44.7490293" lon="7.8096674"><ele>281.0</ele><time>2026-04-11T06:22:02.288Z</time></trkpt><trkpt lat="44.749011" lon="7.8098461"><ele>281.0</ele><time>2026-04-11T06:22:04.288Z</time></trkpt><trkpt lat="44.7489957" lon="7.8099388"><ele>281.0</ele><time>2026-04-11T06:22:05.288Z</time></trkpt><trkpt lat="44.7489777" lon="7.8100865"><ele>281.0</ele><time>2026-04-11T06:22:07.288Z</time></trkpt><trkpt lat="44.7489623" lon="7.8101829"><ele>281.0</ele><time>2026-04-11T06:22:08.288Z</time></trkpt><trkpt lat="44.7489545" lon="7.8103286"><ele>281.5</ele><time>2026-04-11T06:22:10.288Z</time></trkpt><trkpt lat="44.7489239" lon="7.8105013"><ele>282.0</ele><time>2026-04-11T06:22:12.288Z</time></trkpt><trkpt lat="44.7488984" lon="7.8105968"><ele>282.5</ele><time>2026-04-11T06:22:13.288Z</time></trkpt><trkpt lat="44.7488496" lon="7.8107017"><ele>283.0</ele><time>2026-04-11T06:22:14.288Z</time></trkpt><trkpt lat="44.7488022" lon="7.810785"><ele>283.5</ele><time>2026-04-11T06:22:15.288Z</time></trkpt><trkpt lat="44.7487867" lon="7.8108719"><ele>284.0</ele><time>2026-04-11T06:22:16.288Z</time></trkpt><trkpt lat="44.7487557" lon="7.8109665"><ele>285.0</ele><time>2026-04-11T06:22:17.288Z</time></trkpt><trkpt lat="44.7487359" lon="7.8110551"><ele>286.0</ele><time>2026-04-11T06:22:18.288Z</time></trkpt><trkpt lat="44.7487243" lon="7.8111554"><ele>287.0</ele><time>2026-04-11T06:22:19.288Z</time></trkpt><trkpt lat="44.7487118" lon="7.8112492"><ele>288.0</ele><time>2026-04-11T06:22:20.288Z</time></trkpt><trkpt lat="44.7486834" lon="7.8113306"><ele>289.0</ele><time>2026-04-11T06:22:21.288Z</time></trkpt><trkpt lat="44.7486479" lon="7.8114117"><ele>290.0</ele><time>2026-04-11T06:22:22.288Z</time></trkpt><trkpt lat="44.7486178" lon="7.8114972"><ele>291.0</ele><time>2026-04-11T06:22:23.288Z</time></trkpt><trkpt lat="44.7485919" lon="7.8115909"><ele>291.0</ele><time>2026-04-11T06:22:24.288Z</time></trkpt><trkpt lat="44.7485689" lon="7.8116786"><ele>291.0</ele><time>2026-04-11T06:22:25.288Z</time></trkpt><trkpt lat="44.748551" lon="7.8117686"><ele>291.0</ele><time>2026-04-11T06:22:26.288Z</time></trkpt><trkpt lat="44.7485294" lon="7.8118519"><ele>291.0</ele><time>2026-04-11T06:22:27.288Z</time></trkpt><trkpt lat="44.7485118" lon="7.8119372"><ele>291.0</ele><time>2026-04-11T06:22:28.288Z</time></trkpt><trkpt lat="44.7484862" lon="7.8121067"><ele>291.0</ele><time>2026-04-11T06:22:30.288Z</time></trkpt><trkpt lat="44.7484738" lon="7.8121976"><ele>291.0</ele><time>2026-04-11T06:22:31.288Z</time></trkpt><trkpt lat="44.7484419" lon="7.8123508"><ele>290.6</ele><time>2026-04-11T06:22:33.288Z</time></trkpt><trkpt lat="44.7484036" lon="7.8124807"><ele>290.20000000000005</ele><time>2026-04-11T06:22:35.288Z</time></trkpt><trkpt lat="44.7483686" lon="7.8125825"><ele>289.79999999999995</ele><time>2026-04-11T06:22:37.288Z</time></trkpt><trkpt lat="44.7483457" lon="7.812732"><ele>289.4</ele><time>2026-04-11T06:22:39.288Z</time></trkpt><trkpt lat="44.7483095" lon="7.8128503"><ele>289.0</ele><time>2026-04-11T06:22:41.288Z</time></trkpt><trkpt lat="44.748262" lon="7.8129572"><ele>289.0</ele><time>2026-04-11T06:22:43.289Z</time></trkpt><trkpt lat="44.7482329" lon="7.8130868"><ele>289.0</ele><time>2026-04-11T06:22:45.288Z</time></trkpt><trkpt lat="44.7481997" lon="7.8131825"><ele>289.0</ele><time>2026-04-11T06:22:47.289Z</time></trkpt><trkpt lat="44.7481657" lon="7.8132719"><ele>289.0</ele><time>2026-04-11T06:22:49.288Z</time></trkpt><trkpt lat="44.748153" lon="7.813392"><ele>289.0</ele><time>2026-04-11T06:22:51.288Z</time></trkpt><trkpt lat="44.7481142" lon="7.8134749"><ele>289.0</ele><time>2026-04-11T06:22:53.288Z</time></trkpt><trkpt lat="44.7480932" lon="7.8135843"><ele>288.8333333333333</ele><time>2026-04-11T06:22:55.288Z</time></trkpt><trkpt lat="44.7480867" lon="7.8136964"><ele>288.66666666666663</ele><time>2026-04-11T06:22:57.288Z</time></trkpt><trkpt lat="44.7480734" lon="7.8138049"><ele>288.5</ele><time>2026-04-11T06:22:59.288Z</time></trkpt><trkpt lat="44.7480687" lon="7.8139217"><ele>288.3333333333333</ele><time>2026-04-11T06:23:01.288Z</time></trkpt><trkpt lat="44.7480366" lon="7.8140428"><ele>288.1666666666667</ele><time>2026-04-11T06:23:03.288Z</time></trkpt><trkpt lat="44.747992" lon="7.8141746"><ele>288.0</ele><time>2026-04-11T06:23:05.288Z</time></trkpt><trkpt lat="44.7479521" lon="7.8143187"><ele>288.5</ele><time>2026-04-11T06:23:07.288Z</time></trkpt><trkpt lat="44.7479156" lon="7.814489"><ele>289.0</ele><time>2026-04-11T06:23:09.289Z</time></trkpt><trkpt lat="44.7479074" lon="7.8145845"><ele>289.5</ele><time>2026-04-11T06:23:10.288Z</time></trkpt><trkpt lat="44.7479089" lon="7.8146814"><ele>290.0</ele><time>2026-04-11T06:23:11.288Z</time></trkpt><trkpt lat="44.7479135" lon="7.8147854"><ele>290.5</ele><time>2026-04-11T06:23:12.288Z</time></trkpt><trkpt lat="44.7479223" lon="7.8148955"><ele>291.0</ele><time>2026-04-11T06:23:13.288Z</time></trkpt><trkpt lat="44.7479193" lon="7.8149843"><ele>291.0</ele><time>2026-04-11T06:23:14.288Z</time></trkpt><trkpt lat="44.7479249" lon="7.8150909"><ele>291.0</ele><time>2026-04-11T06:23:15.288Z</time></trkpt><trkpt lat="44.7479335" lon="7.8151941"><ele>291.0</ele><time>2026-04-11T06:23:16.288Z</time></trkpt><trkpt lat="44.7479464" lon="7.8153007"><ele>291.0</ele><time>2026-04-11T06:23:17.288Z</time></trkpt><trkpt lat="44.747954" lon="7.8154039"><ele>291.0</ele><time>2026-04-11T06:23:18.288Z</time></trkpt><trkpt lat="44.7479602" lon="7.8155108"><ele>291.0</ele><time>2026-04-11T06:23:19.288Z</time></trkpt><trkpt lat="44.7479663" lon="7.8156118"><ele>291.0</ele><time>2026-04-11T06:23:20.288Z</time></trkpt><trkpt lat="44.7479755" lon="7.8157204"><ele>291.1666666666667</ele><time>2026-04-11T06:23:21.288Z</time></trkpt><trkpt lat="44.7479746" lon="7.815832"><ele>291.3333333333333</ele><time>2026-04-11T06:23:22.288Z</time></trkpt><trkpt lat="44.7479295" lon="7.8159972"><ele>291.5</ele><time>2026-04-11T06:23:24.288Z</time></trkpt><trkpt lat="44.7479198" lon="7.8161015"><ele>291.66666666666663</ele><time>2026-04-11T06:23:25.288Z</time></trkpt><trkpt lat="44.7479024" lon="7.8161978"><ele>291.8333333333333</ele><time>2026-04-11T06:23:26.288Z</time></trkpt><trkpt lat="44.7478863" lon="7.8162923"><ele>292.0</ele><time>2026-04-11T06:23:27.288Z</time></trkpt><trkpt lat="44.7478637" lon="7.8163843"><ele>292.0</ele><time>2026-04-11T06:23:28.288Z</time></trkpt><trkpt lat="44.7478443" lon="7.8164718"><ele>292.0</ele><time>2026-04-11T06:23:29.288Z</time></trkpt><trkpt lat="44.7478136" lon="7.8166387"><ele>292.0</ele><time>2026-04-11T06:23:31.289Z</time></trkpt><trkpt lat="44.7477833" lon="7.8167989"><ele>292.0</ele><time>2026-04-11T06:23:33.288Z</time></trkpt><trkpt lat="44.7477531" lon="7.8169614"><ele>292.0</ele><time>2026-04-11T06:23:35.288Z</time></trkpt><trkpt lat="44.7477446" lon="7.8170565"><ele>292.2857142857143</ele><time>2026-04-11T06:23:36.288Z</time></trkpt><trkpt lat="44.7477258" lon="7.8171522"><ele>292.57142857142856</ele><time>2026-04-11T06:23:37.288Z</time></trkpt><trkpt lat="44.7477058" lon="7.8172405"><ele>292.8571428571429</ele><time>2026-04-11T06:23:38.288Z</time></trkpt><trkpt lat="44.7476854" lon="7.8173273"><ele>293.1428571428571</ele><time>2026-04-11T06:23:39.288Z</time></trkpt><trkpt lat="44.747664" lon="7.8174237"><ele>293.42857142857144</ele><time>2026-04-11T06:23:40.288Z</time></trkpt><trkpt lat="44.7476522" lon="7.8175397"><ele>293.7142857142857</ele><time>2026-04-11T06:23:41.288Z</time></trkpt><trkpt lat="44.7476178" lon="7.8176417"><ele>294.0</ele><time>2026-04-11T06:23:42.288Z</time></trkpt><trkpt lat="44.7475755" lon="7.817722"><ele>292.85714285714283</ele><time>2026-04-11T06:23:43.288Z</time></trkpt><trkpt lat="44.7475324" lon="7.8178045"><ele>291.7142857142857</ele><time>2026-04-11T06:23:44.288Z</time></trkpt><trkpt lat="44.7474971" lon="7.8178909"><ele>290.57142857142856</ele><time>2026-04-11T06:23:45.288Z</time></trkpt><trkpt lat="44.7474586" lon="7.8179753"><ele>289.42857142857144</ele><time>2026-04-11T06:23:46.288Z</time></trkpt><trkpt lat="44.7474187" lon="7.8180562"><ele>288.2857142857143</ele><time>2026-04-11T06:23:47.288Z</time></trkpt><trkpt lat="44.7473692" lon="7.8181261"><ele>287.1428571428571</ele><time>2026-04-11T06:23:48.288Z</time></trkpt><trkpt lat="44.747325" lon="7.8181998"><ele>286.0</ele><time>2026-04-11T06:23:49.288Z</time></trkpt><trkpt lat="44.747279" lon="7.8182747"><ele>286.0</ele><time>2026-04-11T06:23:50.288Z</time></trkpt><trkpt lat="44.7472403" lon="7.8183548"><ele>286.0</ele><time>2026-04-11T06:23:51.288Z</time></trkpt><trkpt lat="44.7472006" lon="7.8184346"><ele>286.0</ele><time>2026-04-11T06:23:52.288Z</time></trkpt><trkpt lat="44.7471655" lon="7.8185194"><ele>286.0</ele><time>2026-04-11T06:23:53.288Z</time></trkpt><trkpt lat="44.7471311" lon="7.8186071"><ele>286.0</ele><time>2026-04-11T06:23:54.288Z</time></trkpt><trkpt lat="44.7470798" lon="7.8187654"><ele>286.0</ele><time>2026-04-11T06:23:56.288Z</time></trkpt><trkpt lat="44.747044" lon="7.8188403"><ele>286.66666666666663</ele><time>2026-04-11T06:23:57.288Z</time></trkpt><trkpt lat="44.747018" lon="7.8189232"><ele>287.3333333333333</ele><time>2026-04-11T06:23:58.288Z</time></trkpt><trkpt lat="44.7470006" lon="7.8190229"><ele>288.0</ele><time>2026-04-11T06:23:59.288Z</time></trkpt><trkpt lat="44.7469834" lon="7.8191248"><ele>288.6666666666667</ele><time>2026-04-11T06:24:00.289Z</time></trkpt><trkpt lat="44.746961" lon="7.8192109"><ele>289.33333333333337</ele><time>2026-04-11T06:24:01.288Z</time></trkpt><trkpt lat="44.7469218" lon="7.8193675"><ele>290.0</ele><time>2026-04-11T06:24:03.288Z</time></trkpt><trkpt lat="44.7469453" lon="7.8194967"><ele>290.6666666666667</ele><time>2026-04-11T06:24:05.288Z</time></trkpt><trkpt lat="44.7470097" lon="7.8195607"><ele>291.33333333333337</ele><time>2026-04-11T06:24:07.288Z</time></trkpt><trkpt lat="44.7470909" lon="7.8195658"><ele>292.0</ele><time>2026-04-11T06:24:09.288Z</time></trkpt><trkpt lat="44.7471846" lon="7.8195805"><ele>292.6666666666667</ele><time>2026-04-11T06:24:11.295Z</time></trkpt><trkpt lat="44.7472686" lon="7.819617"><ele>293.3333333333333</ele><time>2026-04-11T06:24:13.295Z</time></trkpt><trkpt lat="44.7473322" lon="7.8196555"><ele>294.0</ele><time>2026-04-11T06:24:15.295Z</time></trkpt><trkpt lat="44.7473984" lon="7.8197318"><ele>294.0</ele><time>2026-04-11T06:24:18.295Z</time></trkpt><trkpt lat="44.7474139" lon="7.8198493"><ele>294.0</ele><time>2026-04-11T06:24:21.295Z</time></trkpt><trkpt lat="44.7474349" lon="7.8199559"><ele>294.0</ele><time>2026-04-11T06:24:24.295Z</time></trkpt><trkpt lat="44.7474511" lon="7.8200532"><ele>294.0</ele><time>2026-04-11T06:24:27.295Z</time></trkpt><trkpt lat="44.7474922" lon="7.8201327"><ele>294.0</ele><time>2026-04-11T06:24:30.295Z</time></trkpt><trkpt lat="44.7475446" lon="7.8202162"><ele>294.0</ele><time>2026-04-11T06:24:33.295Z</time></trkpt><trkpt lat="44.7475941" lon="7.8202923"><ele>294.2857142857143</ele><time>2026-04-11T06:24:36.295Z</time></trkpt><trkpt lat="44.7476608" lon="7.8203492"><ele>294.57142857142856</ele><time>2026-04-11T06:24:39.295Z</time></trkpt><trkpt lat="44.7477165" lon="7.8204107"><ele>294.8571428571429</ele><time>2026-04-11T06:24:42.295Z</time></trkpt><trkpt lat="44.7477836" lon="7.8204732"><ele>295.1428571428571</ele><time>2026-04-11T06:24:45.295Z</time></trkpt><trkpt lat="44.7478483" lon="7.8205157"><ele>295.42857142857144</ele><time>2026-04-11T06:24:48.295Z</time></trkpt><trkpt lat="44.7479094" lon="7.8205573"><ele>295.7142857142857</ele><time>2026-04-11T06:24:51.295Z</time></trkpt><trkpt lat="44.7479832" lon="7.8205866"><ele>296.0</ele><time>2026-04-11T06:24:54.295Z</time></trkpt><trkpt lat="44.7480659" lon="7.8206122"><ele>297.0</ele><time>2026-04-11T06:24:58.295Z</time></trkpt><trkpt lat="44.7481495" lon="7.8206188"><ele>298.0</ele><time>2026-04-11T06:25:02.295Z</time></trkpt><trkpt lat="44.7482218" lon="7.8206208"><ele>299.0</ele><time>2026-04-11T06:25:05.295Z</time></trkpt><trkpt lat="44.7483" lon="7.8206303"><ele>300.0</ele><time>2026-04-11T06:25:09.295Z</time></trkpt><trkpt lat="44.7483728" lon="7.8206281"><ele>301.0</ele><time>2026-04-11T06:25:12.295Z</time></trkpt><trkpt lat="44.748447" lon="7.8206456"><ele>302.0</ele><time>2026-04-11T06:25:16.295Z</time></trkpt><trkpt lat="44.7485139" lon="7.8206652"><ele>303.5714285714286</ele><time>2026-04-11T06:25:20.296Z</time></trkpt><trkpt lat="44.7485965" lon="7.8207131"><ele>305.14285714285717</ele><time>2026-04-11T06:25:24.295Z</time></trkpt><trkpt lat="44.7486674" lon="7.8207223"><ele>306.7142857142857</ele><time>2026-04-11T06:25:27.296Z</time></trkpt><trkpt lat="44.7487259" lon="7.8207808"><ele>308.28571428571433</ele><time>2026-04-11T06:25:31.295Z</time></trkpt><trkpt lat="44.7487943" lon="7.8208063"><ele>309.8571428571429</ele><time>2026-04-11T06:25:35.296Z</time></trkpt><trkpt lat="44.748855" lon="7.8208438"><ele>311.42857142857144</ele><time>2026-04-11T06:25:40.295Z</time></trkpt><trkpt lat="44.7489068" lon="7.820913"><ele>313.0</ele><time>2026-04-11T06:25:46.295Z</time></trkpt><trkpt lat="44.7489687" lon="7.8208804"><ele>313.0</ele><time>2026-04-11T06:25:49.295Z</time></trkpt><trkpt lat="44.7490322" lon="7.8209477"><ele>313.0</ele><time>2026-04-11T06:25:53.295Z</time></trkpt><trkpt lat="44.7490838" lon="7.8210294"><ele>313.0</ele><time>2026-04-11T06:25:57.295Z</time></trkpt><trkpt lat="44.7491445" lon="7.8210834"><ele>313.0</ele><time>2026-04-11T06:26:00.295Z</time></trkpt><trkpt lat="44.7492117" lon="7.8211005"><ele>313.0</ele><time>2026-04-11T06:26:04.295Z</time></trkpt><trkpt lat="44.7492761" lon="7.8211264"><ele>313.0</ele><time>2026-04-11T06:26:07.295Z</time></trkpt><trkpt lat="44.7493413" lon="7.8211751"><ele>313.0</ele><time>2026-04-11T06:26:11.295Z</time></trkpt><trkpt lat="44.7494005" lon="7.8212224"><ele>314.85714285714283</ele><time>2026-04-11T06:26:16.295Z</time></trkpt><trkpt lat="44.7494712" lon="7.8212538"><ele>316.7142857142857</ele><time>2026-04-11T06:26:20.295Z</time></trkpt><trkpt lat="44.7495264" lon="7.8213148"><ele>318.57142857142856</ele><time>2026-04-11T06:26:24.295Z</time></trkpt><trkpt lat="44.7495902" lon="7.8213549"><ele>320.42857142857144</ele><time>2026-04-11T06:26:28.295Z</time></trkpt><trkpt lat="44.7496667" lon="7.8213698"><ele>322.2857142857143</ele><time>2026-04-11T06:26:32.295Z</time></trkpt><trkpt lat="44.7497354" lon="7.8213798"><ele>324.14285714285717</ele><time>2026-04-11T06:26:36.296Z</time></trkpt><trkpt lat="44.7498012" lon="7.821427"><ele>326.0</ele><time>2026-04-11T06:26:39.296Z</time></trkpt><trkpt lat="44.7498865" lon="7.8214367"><ele>326.0</ele><time>2026-04-11T06:26:43.296Z</time></trkpt><trkpt lat="44.7499453" lon="7.8214849"><ele>326.0</ele><time>2026-04-11T06:26:49.296Z</time></trkpt><trkpt lat="44.750011" lon="7.8215398"><ele>326.0</ele><time>2026-04-11T06:26:54.296Z</time></trkpt><trkpt lat="44.7500853" lon="7.8215825"><ele>326.0</ele><time>2026-04-11T06:26:57.296Z</time></trkpt><trkpt lat="44.7501449" lon="7.8216311"><ele>326.0</ele><time>2026-04-11T06:27:01.296Z</time></trkpt><trkpt lat="44.7502045" lon="7.821702"><ele>326.0</ele><time>2026-04-11T06:27:07.296Z</time></trkpt><trkpt lat="44.7502311" lon="7.8217957"><ele>326.0</ele><time>2026-04-11T06:27:13.296Z</time></trkpt><trkpt lat="44.7502823" lon="7.8218711"><ele>326.8571428571429</ele><time>2026-04-11T06:27:17.296Z</time></trkpt><trkpt lat="44.7503654" lon="7.8219036"><ele>327.71428571428567</ele><time>2026-04-11T06:27:19.296Z</time></trkpt><trkpt lat="44.7504416" lon="7.8219376"><ele>328.57142857142856</ele><time>2026-04-11T06:27:21.296Z</time></trkpt><trkpt lat="44.7504402" lon="7.8220327"><ele>329.42857142857144</ele><time>2026-04-11T06:27:25.296Z</time></trkpt><trkpt lat="44.7504638" lon="7.822121"><ele>330.28571428571433</ele><time>2026-04-11T06:27:29.296Z</time></trkpt><trkpt lat="44.7503967" lon="7.8221666"><ele>331.1428571428571</ele><time>2026-04-11T06:27:33.296Z</time></trkpt><trkpt lat="44.7503345" lon="7.8221963"><ele>332.0</ele><time>2026-04-11T06:27:35.296Z</time></trkpt><trkpt lat="44.7502688" lon="7.8222744"><ele>332.0</ele><time>2026-04-11T06:27:37.296Z</time></trkpt><trkpt lat="44.7502277" lon="7.8223848"><ele>332.0</ele><time>2026-04-11T06:27:39.296Z</time></trkpt><trkpt lat="44.7501802" lon="7.8224766"><ele>332.0</ele><time>2026-04-11T06:27:41.296Z</time></trkpt><trkpt lat="44.750165" lon="7.8225839"><ele>332.0</ele><time>2026-04-11T06:27:44.296Z</time></trkpt><trkpt lat="44.7502071" lon="7.822653"><ele>332.0</ele><time>2026-04-11T06:27:47.297Z</time></trkpt><trkpt lat="44.7502496" lon="7.8227254"><ele>332.0</ele><time>2026-04-11T06:27:50.296Z</time></trkpt><trkpt lat="44.7502463" lon="7.8228272"><ele>332.1428571428571</ele><time>2026-04-11T06:27:54.296Z</time></trkpt><trkpt lat="44.7501824" lon="7.8229078"><ele>332.28571428571433</ele><time>2026-04-11T06:27:58.296Z</time></trkpt><trkpt lat="44.7501539" lon="7.8229933"><ele>332.42857142857144</ele><time>2026-04-11T06:28:03.296Z</time></trkpt><trkpt lat="44.7501172" lon="7.8230728"><ele>332.57142857142856</ele><time>2026-04-11T06:28:09.296Z</time></trkpt><trkpt lat="44.7500669" lon="7.8231511"><ele>332.71428571428567</ele><time>2026-04-11T06:28:13.296Z</time></trkpt><trkpt lat="44.7500353" lon="7.8232468"><ele>332.8571428571429</ele><time>2026-04-11T06:28:18.296Z</time></trkpt><trkpt lat="44.7500413" lon="7.8233516"><ele>333.0</ele><time>2026-04-11T06:28:24.296Z</time></trkpt><trkpt lat="44.7501028" lon="7.8234333"><ele>333.7142857142857</ele><time>2026-04-11T06:28:28.296Z</time></trkpt><trkpt lat="44.7501542" lon="7.8234854"><ele>334.4285714285714</ele><time>2026-04-11T06:28:32.296Z</time></trkpt><trkpt lat="44.7502301" lon="7.8235165"><ele>335.1428571428571</ele><time>2026-04-11T06:28:37.296Z</time></trkpt><trkpt lat="44.7503085" lon="7.8235218"><ele>335.8571428571429</ele><time>2026-04-11T06:28:42.296Z</time></trkpt><trkpt lat="44.7503715" lon="7.823534"><ele>336.57142857142856</ele><time>2026-04-11T06:28:45.296Z</time></trkpt><trkpt lat="44.7504544" lon="7.8235579"><ele>337.2857142857143</ele><time>2026-04-11T06:28:49.296Z</time></trkpt><trkpt lat="44.7505189" lon="7.8235444"><ele>338.0</ele><time>2026-04-11T06:28:53.296Z</time></trkpt><trkpt lat="44.750588" lon="7.8235272"><ele>338.0</ele><time>2026-04-11T06:28:59.296Z</time></trkpt><trkpt lat="44.7506592" lon="7.8235138"><ele>338.0</ele><time>2026-04-11T06:29:04.297Z</time></trkpt><trkpt lat="44.750723" lon="7.8235174"><ele>338.0</ele><time>2026-04-11T06:29:08.296Z</time></trkpt><trkpt lat="44.7507893" lon="7.8235413"><ele>338.0</ele><time>2026-04-11T06:29:12.296Z</time></trkpt><trkpt lat="44.7508521" lon="7.8235047"><ele>338.0</ele><time>2026-04-11T06:29:15.297Z</time></trkpt><trkpt lat="44.75091" lon="7.8234492"><ele>338.0</ele><time>2026-04-11T06:29:19.296Z</time></trkpt><trkpt lat="44.7509798" lon="7.8233992"><ele>338.0</ele><time>2026-04-11T06:29:22.296Z</time></trkpt><trkpt lat="44.7510409" lon="7.8233614"><ele>338.5</ele><time>2026-04-11T06:29:25.296Z</time></trkpt><trkpt lat="44.7511087" lon="7.8233003"><ele>339.0</ele><time>2026-04-11T06:29:27.296Z</time></trkpt><trkpt lat="44.7511898" lon="7.8232832"><ele>339.5</ele><time>2026-04-11T06:29:30.296Z</time></trkpt><trkpt lat="44.7512485" lon="7.8233257"><ele>340.0</ele><time>2026-04-11T06:29:33.296Z</time></trkpt><trkpt lat="44.7512156" lon="7.8234424"><ele>340.5</ele><time>2026-04-11T06:29:36.296Z</time></trkpt><trkpt lat="44.7511637" lon="7.823525"><ele>341.0</ele><time>2026-04-11T06:29:38.296Z</time></trkpt><trkpt lat="44.7511182" lon="7.8236121"><ele>341.0</ele><time>2026-04-11T06:29:40.296Z</time></trkpt><trkpt lat="44.7510618" lon="7.8237085"><ele>341.0</ele><time>2026-04-11T06:29:42.297Z</time></trkpt><trkpt lat="44.7510143" lon="7.8238157"><ele>341.0</ele><time>2026-04-11T06:29:44.296Z</time></trkpt><trkpt lat="44.7509613" lon="7.8239288"><ele>341.0</ele><time>2026-04-11T06:29:46.296Z</time></trkpt><trkpt lat="44.7508981" lon="7.8240408"><ele>341.0</ele><time>2026-04-11T06:29:48.296Z</time></trkpt><trkpt lat="44.7508446" lon="7.8241727"><ele>341.0</ele><time>2026-04-11T06:29:50.296Z</time></trkpt><trkpt lat="44.7507811" lon="7.824308"><ele>341.0</ele><time>2026-04-11T06:29:52.296Z</time></trkpt><trkpt lat="44.7507153" lon="7.8244537"><ele>341.0</ele><time>2026-04-11T06:29:54.296Z</time></trkpt><trkpt lat="44.7506376" lon="7.8245846"><ele>341.0</ele><time>2026-04-11T06:29:56.296Z</time></trkpt><trkpt lat="44.7505696" lon="7.8247354"><ele>340.8</ele><time>2026-04-11T06:29:58.296Z</time></trkpt><trkpt lat="44.7504995" lon="7.8248829"><ele>340.6</ele><time>2026-04-11T06:30:00.296Z</time></trkpt><trkpt lat="44.7504602" lon="7.8249575"><ele>340.4</ele><time>2026-04-11T06:30:01.297Z</time></trkpt><trkpt lat="44.7503842" lon="7.8250963"><ele>340.2</ele><time>2026-04-11T06:30:03.296Z</time></trkpt><trkpt lat="44.7503472" lon="7.8251691"><ele>340.0</ele><time>2026-04-11T06:30:04.296Z</time></trkpt><trkpt lat="44.7502708" lon="7.8253098"><ele>340.0</ele><time>2026-04-11T06:30:06.296Z</time></trkpt><trkpt lat="44.7502326" lon="7.8253844"><ele>340.0</ele><time>2026-04-11T06:30:07.296Z</time></trkpt><trkpt lat="44.7501924" lon="7.8254559"><ele>340.0</ele><time>2026-04-11T06:30:08.296Z</time></trkpt><trkpt lat="44.7501509" lon="7.8255254"><ele>340.0</ele><time>2026-04-11T06:30:09.296Z</time></trkpt><trkpt lat="44.7501146" lon="7.8256019"><ele>340.0</ele><time>2026-04-11T06:30:10.296Z</time></trkpt><trkpt lat="44.7500769" lon="7.8256805"><ele>340.0</ele><time>2026-04-11T06:30:11.296Z</time></trkpt><trkpt lat="44.7499995" lon="7.825819"><ele>340.0</ele><time>2026-04-11T06:30:13.296Z</time></trkpt><trkpt lat="44.7499254" lon="7.8259611"><ele>340.0</ele><time>2026-04-11T06:30:15.296Z</time></trkpt><trkpt lat="44.7498874" lon="7.8260333"><ele>340.0</ele><time>2026-04-11T06:30:16.296Z</time></trkpt><trkpt lat="44.7498469" lon="7.8261033"><ele>340.0</ele><time>2026-04-11T06:30:17.296Z</time></trkpt><trkpt lat="44.7498081" lon="7.8261751"><ele>340.0</ele><time>2026-04-11T06:30:18.296Z</time></trkpt><trkpt lat="44.7497415" lon="7.8263166"><ele>340.0</ele><time>2026-04-11T06:30:20.296Z</time></trkpt><trkpt lat="44.7496704" lon="7.8264527"><ele>340.0</ele><time>2026-04-11T06:30:22.296Z</time></trkpt><trkpt lat="44.7496025" lon="7.8265871"><ele>340.0</ele><time>2026-04-11T06:30:24.296Z</time></trkpt><trkpt lat="44.7495302" lon="7.8267126"><ele>340.0</ele><time>2026-04-11T06:30:26.296Z</time></trkpt><trkpt lat="44.7494582" lon="7.8268388"><ele>340.0</ele><time>2026-04-11T06:30:28.296Z</time></trkpt><trkpt lat="44.7493856" lon="7.8269501"><ele>341.6</ele><time>2026-04-11T06:30:30.296Z</time></trkpt><trkpt lat="44.7493214" lon="7.8270597"><ele>343.2</ele><time>2026-04-11T06:30:32.296Z</time></trkpt><trkpt lat="44.749255" lon="7.8271583"><ele>344.79999999999995</ele><time>2026-04-11T06:30:34.296Z</time></trkpt><trkpt lat="44.7491957" lon="7.8272665"><ele>346.4</ele><time>2026-04-11T06:30:36.296Z</time></trkpt><trkpt lat="44.7491282" lon="7.8273524"><ele>348.0</ele><time>2026-04-11T06:30:38.296Z</time></trkpt><trkpt lat="44.7490817" lon="7.8274504"><ele>348.0</ele><time>2026-04-11T06:30:40.297Z</time></trkpt><trkpt lat="44.7490305" lon="7.8275364"><ele>348.0</ele><time>2026-04-11T06:30:42.296Z</time></trkpt><trkpt lat="44.7489654" lon="7.8276087"><ele>348.0</ele><time>2026-04-11T06:30:44.297Z</time></trkpt><trkpt lat="44.748907" lon="7.827686"><ele>348.0</ele><time>2026-04-11T06:30:46.296Z</time></trkpt><trkpt lat="44.7488436" lon="7.8277693"><ele>348.0</ele><time>2026-04-11T06:30:48.296Z</time></trkpt><trkpt lat="44.7487681" lon="7.8278419"><ele>348.0</ele><time>2026-04-11T06:30:50.296Z</time></trkpt><trkpt lat="44.7486898" lon="7.8279062"><ele>347.5</ele><time>2026-04-11T06:30:52.303Z</time></trkpt><trkpt lat="44.74861" lon="7.8279993"><ele>347.0</ele><time>2026-04-11T06:30:54.303Z</time></trkpt><trkpt lat="44.7485174" lon="7.8281167"><ele>346.5</ele><time>2026-04-11T06:30:56.303Z</time></trkpt><trkpt lat="44.7484437" lon="7.8282376"><ele>346.0</ele><time>2026-04-11T06:30:58.303Z</time></trkpt><trkpt lat="44.7483617" lon="7.8283803"><ele>345.8</ele><time>2026-04-11T06:31:00.303Z</time></trkpt><trkpt lat="44.748321" lon="7.8284564"><ele>345.6</ele><time>2026-04-11T06:31:01.303Z</time></trkpt><trkpt lat="44.7482785" lon="7.8286051"><ele>345.4</ele><time>2026-04-11T06:31:03.304Z</time></trkpt><trkpt lat="44.7482231" lon="7.8287497"><ele>345.2</ele><time>2026-04-11T06:31:05.303Z</time></trkpt><trkpt lat="44.7481896" lon="7.8288249"><ele>345.0</ele><time>2026-04-11T06:31:06.304Z</time></trkpt><trkpt lat="44.748125" lon="7.8289645"><ele>345.4</ele><time>2026-04-11T06:31:08.303Z</time></trkpt><trkpt lat="44.7480712" lon="7.8291069"><ele>345.8</ele><time>2026-04-11T06:31:10.303Z</time></trkpt><trkpt lat="44.7480205" lon="7.8292546"><ele>346.20000000000005</ele><time>2026-04-11T06:31:12.303Z</time></trkpt><trkpt lat="44.7479842" lon="7.8293889"><ele>346.6</ele><time>2026-04-11T06:31:14.303Z</time></trkpt><trkpt lat="44.7479575" lon="7.8295226"><ele>347.0</ele><time>2026-04-11T06:31:16.303Z</time></trkpt><trkpt lat="44.7479426" lon="7.8296775"><ele>347.6</ele><time>2026-04-11T06:31:18.303Z</time></trkpt><trkpt lat="44.7479339" lon="7.8298394"><ele>348.20000000000005</ele><time>2026-04-11T06:31:20.303Z</time></trkpt><trkpt lat="44.7479613" lon="7.8299864"><ele>348.8</ele><time>2026-04-11T06:31:22.303Z</time></trkpt><trkpt lat="44.7480191" lon="7.8301122"><ele>349.4</ele><time>2026-04-11T06:31:24.303Z</time></trkpt><trkpt lat="44.7480897" lon="7.8302398"><ele>350.0</ele><time>2026-04-11T06:31:26.303Z</time></trkpt><trkpt lat="44.7481073" lon="7.8303742"><ele>350.0</ele><time>2026-04-11T06:31:28.303Z</time></trkpt><trkpt lat="44.7481012" lon="7.8305148"><ele>350.0</ele><time>2026-04-11T06:31:30.303Z</time></trkpt><trkpt lat="44.7480915" lon="7.8306475"><ele>350.0</ele><time>2026-04-11T06:31:32.303Z</time></trkpt><trkpt lat="44.748079" lon="7.8307852"><ele>350.0</ele><time>2026-04-11T06:31:34.303Z</time></trkpt><trkpt lat="44.7480909" lon="7.8309141"><ele>350.0</ele><time>2026-04-11T06:31:36.303Z</time></trkpt><trkpt lat="44.7481208" lon="7.8310328"><ele>350.1666666666667</ele><time>2026-04-11T06:31:38.303Z</time></trkpt><trkpt lat="44.7481613" lon="7.8311364"><ele>350.33333333333337</ele><time>2026-04-11T06:31:40.303Z</time></trkpt><trkpt lat="44.748192" lon="7.8312429"><ele>350.5</ele><time>2026-04-11T06:31:42.303Z</time></trkpt><trkpt lat="44.7482124" lon="7.8313598"><ele>350.6666666666667</ele><time>2026-04-11T06:31:44.303Z</time></trkpt><trkpt lat="44.7481989" lon="7.831461"><ele>350.8333333333333</ele><time>2026-04-11T06:31:46.303Z</time></trkpt><trkpt lat="44.7481876" lon="7.8315609"><ele>351.0</ele><time>2026-04-11T06:31:48.303Z</time></trkpt><trkpt lat="44.7481906" lon="7.8316601"><ele>351.00000000000006</ele><time>2026-04-11T06:31:50.303Z</time></trkpt><trkpt lat="44.7481672" lon="7.8317512"><ele>351.0</ele><time>2026-04-11T06:31:52.304Z</time></trkpt><trkpt lat="44.7481454" lon="7.8318472"><ele>351.0</ele><time>2026-04-11T06:31:54.303Z</time></trkpt><trkpt lat="44.7481268" lon="7.8319414"><ele>351.0</ele><time>2026-04-11T06:31:56.303Z</time></trkpt><trkpt lat="44.7480956" lon="7.8320299"><ele>351.0</ele><time>2026-04-11T06:31:58.303Z</time></trkpt><trkpt lat="44.7480705" lon="7.8321112"><ele>351.00000000000006</ele><time>2026-04-11T06:32:00.303Z</time></trkpt><trkpt lat="44.74805" lon="7.832201"><ele>351.0</ele><time>2026-04-11T06:32:02.303Z</time></trkpt><trkpt lat="44.7480337" lon="7.8322867"><ele>351.5</ele><time>2026-04-11T06:32:04.303Z</time></trkpt><trkpt lat="44.748025" lon="7.8324079"><ele>352.0</ele><time>2026-04-11T06:32:07.303Z</time></trkpt><trkpt lat="44.748019" lon="7.8325339"><ele>352.5</ele><time>2026-04-11T06:32:10.303Z</time></trkpt><trkpt lat="44.7480337" lon="7.8326258"><ele>353.0</ele><time>2026-04-11T06:32:12.303Z</time></trkpt><trkpt lat="44.748052" lon="7.8327213"><ele>353.5</ele><time>2026-04-11T06:32:14.303Z</time></trkpt><trkpt lat="44.7480697" lon="7.8328366"><ele>354.0</ele><time>2026-04-11T06:32:16.303Z</time></trkpt><trkpt lat="44.7480766" lon="7.8329549"><ele>354.0</ele><time>2026-04-11T06:32:18.303Z</time></trkpt><trkpt lat="44.7480791" lon="7.8330819"><ele>354.0</ele><time>2026-04-11T06:32:20.303Z</time></trkpt><trkpt lat="44.7480678" lon="7.8332268"><ele>354.0</ele><time>2026-04-11T06:32:22.303Z</time></trkpt><trkpt lat="44.7480465" lon="7.8333758"><ele>354.0</ele><time>2026-04-11T06:32:24.303Z</time></trkpt><trkpt lat="44.7480137" lon="7.8335262"><ele>354.0</ele><time>2026-04-11T06:32:26.303Z</time></trkpt><trkpt lat="44.7479796" lon="7.8336852"><ele>353.75</ele><time>2026-04-11T06:32:28.303Z</time></trkpt><trkpt lat="44.7479489" lon="7.8338465"><ele>353.5</ele><time>2026-04-11T06:32:30.304Z</time></trkpt><trkpt lat="44.7479281" lon="7.8340062"><ele>353.25</ele><time>2026-04-11T06:32:32.303Z</time></trkpt><trkpt lat="44.7479103" lon="7.8341679"><ele>353.0</ele><time>2026-04-11T06:32:34.303Z</time></trkpt><trkpt lat="44.7478879" lon="7.8343221"><ele>353.79999999999995</ele><time>2026-04-11T06:32:36.303Z</time></trkpt><trkpt lat="44.7478568" lon="7.8344688"><ele>354.6</ele><time>2026-04-11T06:32:38.303Z</time></trkpt><trkpt lat="44.7477926" lon="7.8345962"><ele>355.4</ele><time>2026-04-11T06:32:40.303Z</time></trkpt><trkpt lat="44.7477322" lon="7.8347132"><ele>356.20000000000005</ele><time>2026-04-11T06:32:42.303Z</time></trkpt><trkpt lat="44.7476794" lon="7.8348303"><ele>357.0</ele><time>2026-04-11T06:32:44.303Z</time></trkpt><trkpt lat="44.7476365" lon="7.8349443"><ele>357.3333333333333</ele><time>2026-04-11T06:32:46.303Z</time></trkpt><trkpt lat="44.7476047" lon="7.8350546"><ele>357.6666666666667</ele><time>2026-04-11T06:32:48.303Z</time></trkpt><trkpt lat="44.7475722" lon="7.8351448"><ele>358.0</ele><time>2026-04-11T06:32:50.303Z</time></trkpt><trkpt lat="44.7475349" lon="7.8352536"><ele>358.33333333333337</ele><time>2026-04-11T06:32:52.303Z</time></trkpt><trkpt lat="44.7475086" lon="7.8353531"><ele>358.6666666666667</ele><time>2026-04-11T06:32:54.303Z</time></trkpt><trkpt lat="44.7474481" lon="7.8354519"><ele>359.0</ele><time>2026-04-11T06:32:57.303Z</time></trkpt><trkpt lat="44.7473883" lon="7.8355049"><ele>359.33333333333337</ele><time>2026-04-11T06:32:59.303Z</time></trkpt><trkpt lat="44.7473219" lon="7.8355496"><ele>359.6666666666667</ele><time>2026-04-11T06:33:01.303Z</time></trkpt><trkpt lat="44.7472516" lon="7.83559"><ele>360.0</ele><time>2026-04-11T06:33:03.303Z</time></trkpt><trkpt lat="44.7471722" lon="7.8356072"><ele>360.3333333333333</ele><time>2026-04-11T06:33:05.303Z</time></trkpt><trkpt lat="44.7470986" lon="7.8356371"><ele>360.66666666666663</ele><time>2026-04-11T06:33:07.303Z</time></trkpt><trkpt lat="44.7470236" lon="7.835703"><ele>361.0</ele><time>2026-04-11T06:33:09.303Z</time></trkpt><trkpt lat="44.7469438" lon="7.8357451"><ele>361.16666666666663</ele><time>2026-04-11T06:33:11.303Z</time></trkpt><trkpt lat="44.7468679" lon="7.8357867"><ele>361.3333333333333</ele><time>2026-04-11T06:33:13.303Z</time></trkpt><trkpt lat="44.7467872" lon="7.8358305"><ele>361.5</ele><time>2026-04-11T06:33:15.303Z</time></trkpt><trkpt lat="44.7467095" lon="7.8358861"><ele>361.6666666666667</ele><time>2026-04-11T06:33:17.303Z</time></trkpt><trkpt lat="44.7466331" lon="7.8359185"><ele>361.83333333333337</ele><time>2026-04-11T06:33:19.303Z</time></trkpt><trkpt lat="44.7465574" lon="7.8359563"><ele>362.0</ele><time>2026-04-11T06:33:21.303Z</time></trkpt><trkpt lat="44.7464851" lon="7.836036"><ele>362.40000000000003</ele><time>2026-04-11T06:33:23.303Z</time></trkpt><trkpt lat="44.746408" lon="7.8361002"><ele>362.8</ele><time>2026-04-11T06:33:25.303Z</time></trkpt><trkpt lat="44.7463336" lon="7.8361656"><ele>363.2</ele><time>2026-04-11T06:33:27.304Z</time></trkpt><trkpt lat="44.7462547" lon="7.8362381"><ele>363.6</ele><time>2026-04-11T06:33:29.303Z</time></trkpt><trkpt lat="44.7461943" lon="7.8363423"><ele>364.0</ele><time>2026-04-11T06:33:31.303Z</time></trkpt><trkpt lat="44.7461517" lon="7.8364652"><ele>364.0</ele><time>2026-04-11T06:33:33.303Z</time></trkpt><trkpt lat="44.7461167" lon="7.8365864"><ele>364.0</ele><time>2026-04-11T06:33:35.303Z</time></trkpt><trkpt lat="44.7460801" lon="7.8366913"><ele>364.0</ele><time>2026-04-11T06:33:37.303Z</time></trkpt><trkpt lat="44.7460294" lon="7.8367979"><ele>364.0</ele><time>2026-04-11T06:33:39.303Z</time></trkpt><trkpt lat="44.7459726" lon="7.8368898"><ele>364.0</ele><time>2026-04-11T06:33:41.303Z</time></trkpt><trkpt lat="44.7459368" lon="7.8369997"><ele>364.0</ele><time>2026-04-11T06:33:43.303Z</time></trkpt><trkpt lat="44.7459077" lon="7.8371034"><ele>364.14285714285717</ele><time>2026-04-11T06:33:45.304Z</time></trkpt><trkpt lat="44.7458906" lon="7.83721"><ele>364.2857142857143</ele><time>2026-04-11T06:33:47.303Z</time></trkpt><trkpt lat="44.7458724" lon="7.8373137"><ele>364.42857142857144</ele><time>2026-04-11T06:33:49.303Z</time></trkpt><trkpt lat="44.745862" lon="7.8374116"><ele>364.57142857142856</ele><time>2026-04-11T06:33:51.303Z</time></trkpt><trkpt lat="44.7458399" lon="7.8375047"><ele>364.7142857142857</ele><time>2026-04-11T06:33:53.303Z</time></trkpt><trkpt lat="44.7458101" lon="7.8375893"><ele>364.8571428571429</ele><time>2026-04-11T06:33:55.303Z</time></trkpt><trkpt lat="44.7457542" lon="7.8376509"><ele>365.0</ele><time>2026-04-11T06:33:57.304Z</time></trkpt><trkpt lat="44.7456906" lon="7.8376916"><ele>364.5</ele><time>2026-04-11T06:33:59.304Z</time></trkpt><trkpt lat="44.7456233" lon="7.8377353"><ele>364.0</ele><time>2026-04-11T06:34:01.304Z</time></trkpt><trkpt lat="44.7455418" lon="7.8377846"><ele>363.5</ele><time>2026-04-11T06:34:03.304Z</time></trkpt><trkpt lat="44.7454571" lon="7.8378298"><ele>363.0</ele><time>2026-04-11T06:34:05.304Z</time></trkpt><trkpt lat="44.7453742" lon="7.8378888"><ele>362.5</ele><time>2026-04-11T06:34:07.304Z</time></trkpt><trkpt lat="44.7452862" lon="7.8379544"><ele>362.0</ele><time>2026-04-11T06:34:09.304Z</time></trkpt><trkpt lat="44.7452012" lon="7.8380113"><ele>363.20000000000005</ele><time>2026-04-11T06:34:11.304Z</time></trkpt><trkpt lat="44.7451163" lon="7.8380726"><ele>364.4</ele><time>2026-04-11T06:34:13.304Z</time></trkpt><trkpt lat="44.7450296" lon="7.8381193"><ele>365.6</ele><time>2026-04-11T06:34:15.304Z</time></trkpt><trkpt lat="44.7449426" lon="7.8381807"><ele>366.79999999999995</ele><time>2026-04-11T06:34:17.304Z</time></trkpt><trkpt lat="44.7448586" lon="7.838238"><ele>368.0</ele><time>2026-04-11T06:34:19.304Z</time></trkpt><trkpt lat="44.7447723" lon="7.8382891"><ele>368.0</ele><time>2026-04-11T06:34:21.305Z</time></trkpt><trkpt lat="44.7446847" lon="7.8383515"><ele>368.0</ele><time>2026-04-11T06:34:23.304Z</time></trkpt><trkpt lat="44.7445945" lon="7.8384052"><ele>368.0</ele><time>2026-04-11T06:34:25.304Z</time></trkpt><trkpt lat="44.7445012" lon="7.8384596"><ele>368.0</ele><time>2026-04-11T06:34:27.304Z</time></trkpt><trkpt lat="44.7444146" lon="7.838518"><ele>368.0</ele><time>2026-04-11T06:34:29.305Z</time></trkpt><trkpt lat="44.7443295" lon="7.838573"><ele>367.83333333333337</ele><time>2026-04-11T06:34:31.304Z</time></trkpt><trkpt lat="44.7442546" lon="7.8386265"><ele>367.6666666666667</ele><time>2026-04-11T06:34:33.304Z</time></trkpt><trkpt lat="44.7441823" lon="7.8386738"><ele>367.5</ele><time>2026-04-11T06:34:35.304Z</time></trkpt><trkpt lat="44.7441026" lon="7.8386875"><ele>367.3333333333333</ele><time>2026-04-11T06:34:37.304Z</time></trkpt><trkpt lat="44.7440206" lon="7.8386954"><ele>367.16666666666663</ele><time>2026-04-11T06:34:39.304Z</time></trkpt><trkpt lat="44.7439392" lon="7.8387385"><ele>367.0</ele><time>2026-04-11T06:34:41.304Z</time></trkpt><trkpt lat="44.7438626" lon="7.8388031"><ele>367.0</ele><time>2026-04-11T06:34:43.304Z</time></trkpt><trkpt lat="44.7437791" lon="7.8388611"><ele>367.0</ele><time>2026-04-11T06:34:45.304Z</time></trkpt><trkpt lat="44.743695" lon="7.8389136"><ele>367.0</ele><time>2026-04-11T06:34:47.304Z</time></trkpt><trkpt lat="44.7436134" lon="7.8389609"><ele>367.0</ele><time>2026-04-11T06:34:49.304Z</time></trkpt><trkpt lat="44.7435296" lon="7.8389898"><ele>367.0</ele><time>2026-04-11T06:34:51.304Z</time></trkpt><trkpt lat="44.7434427" lon="7.8390029"><ele>367.0</ele><time>2026-04-11T06:34:53.304Z</time></trkpt><trkpt lat="44.7433561" lon="7.83901"><ele>367.66666666666663</ele><time>2026-04-11T06:34:55.304Z</time></trkpt><trkpt lat="44.7432739" lon="7.8390005"><ele>368.3333333333333</ele><time>2026-04-11T06:34:57.304Z</time></trkpt><trkpt lat="44.7431922" lon="7.8390071"><ele>369.0</ele><time>2026-04-11T06:34:59.304Z</time></trkpt><trkpt lat="44.7431069" lon="7.8390379"><ele>369.6666666666667</ele><time>2026-04-11T06:35:01.304Z</time></trkpt><trkpt lat="44.7430241" lon="7.8390949"><ele>370.33333333333337</ele><time>2026-04-11T06:35:03.304Z</time></trkpt><trkpt lat="44.7429501" lon="7.8391513"><ele>371.0</ele><time>2026-04-11T06:35:05.304Z</time></trkpt><trkpt lat="44.7428796" lon="7.8392231"><ele>370.83333333333337</ele><time>2026-04-11T06:35:07.304Z</time></trkpt><trkpt lat="44.7428132" lon="7.8393054"><ele>370.6666666666667</ele><time>2026-04-11T06:35:09.304Z</time></trkpt><trkpt lat="44.7427454" lon="7.8394002"><ele>370.5</ele><time>2026-04-11T06:35:11.304Z</time></trkpt><trkpt lat="44.7426803" lon="7.8395006"><ele>370.3333333333333</ele><time>2026-04-11T06:35:13.304Z</time></trkpt><trkpt lat="44.742625" lon="7.8395685"><ele>370.16666666666663</ele><time>2026-04-11T06:35:15.304Z</time></trkpt><trkpt lat="44.7425586" lon="7.8395916"><ele>370.0</ele><time>2026-04-11T06:35:17.304Z</time></trkpt><trkpt lat="44.7424913" lon="7.8396489"><ele>370.3333333333333</ele><time>2026-04-11T06:35:19.305Z</time></trkpt><trkpt lat="44.7424181" lon="7.8397129"><ele>370.66666666666663</ele><time>2026-04-11T06:35:21.304Z</time></trkpt><trkpt lat="44.7423237" lon="7.8397584"><ele>371.0</ele><time>2026-04-11T06:35:23.304Z</time></trkpt><trkpt lat="44.7422356" lon="7.8397592"><ele>371.3333333333333</ele><time>2026-04-11T06:35:25.304Z</time></trkpt><trkpt lat="44.742166" lon="7.8397485"><ele>371.6666666666667</ele><time>2026-04-11T06:35:27.304Z</time></trkpt><trkpt lat="44.7420867" lon="7.8397453"><ele>372.0</ele><time>2026-04-11T06:35:29.304Z</time></trkpt><trkpt lat="44.7420148" lon="7.8398001"><ele>372.0</ele><time>2026-04-11T06:35:31.304Z</time></trkpt><trkpt lat="44.7419467" lon="7.8398758"><ele>372.0</ele><time>2026-04-11T06:35:33.304Z</time></trkpt><trkpt lat="44.7418881" lon="7.8399562"><ele>372.0</ele><time>2026-04-11T06:35:35.304Z</time></trkpt><trkpt lat="44.7418314" lon="7.8400645"><ele>372.0</ele><time>2026-04-11T06:35:37.304Z</time></trkpt><trkpt lat="44.7417744" lon="7.8401607"><ele>372.0</ele><time>2026-04-11T06:35:39.304Z</time></trkpt><trkpt lat="44.7417036" lon="7.8402417"><ele>372.0</ele><time>2026-04-11T06:35:41.304Z</time></trkpt><trkpt lat="44.7416087" lon="7.8403169"><ele>372.5</ele><time>2026-04-11T06:35:43.304Z</time></trkpt><trkpt lat="44.7415385" lon="7.8403807"><ele>373.0</ele><time>2026-04-11T06:35:45.304Z</time></trkpt><trkpt lat="44.7414957" lon="7.8404858"><ele>373.5</ele><time>2026-04-11T06:35:47.304Z</time></trkpt><trkpt lat="44.741474" lon="7.8406055"><ele>374.0</ele><time>2026-04-11T06:35:49.304Z</time></trkpt><trkpt lat="44.7414786" lon="7.8407099"><ele>374.5</ele><time>2026-04-11T06:35:51.304Z</time></trkpt><trkpt lat="44.741473" lon="7.8408352"><ele>375.0</ele><time>2026-04-11T06:35:53.304Z</time></trkpt><trkpt lat="44.7414967" lon="7.840945"><ele>375.0</ele><time>2026-04-11T06:35:55.304Z</time></trkpt><trkpt lat="44.7415164" lon="7.8410722"><ele>375.0</ele><time>2026-04-11T06:35:57.304Z</time></trkpt><trkpt lat="44.7415415" lon="7.8411867"><ele>375.0</ele><time>2026-04-11T06:35:59.304Z</time></trkpt><trkpt lat="44.7415648" lon="7.8412921"><ele>375.0</ele><time>2026-04-11T06:36:01.304Z</time></trkpt><trkpt lat="44.741546" lon="7.8414133"><ele>375.0</ele><time>2026-04-11T06:36:03.304Z</time></trkpt><trkpt lat="44.741519" lon="7.8415297"><ele>375.0</ele><time>2026-04-11T06:36:05.304Z</time></trkpt><trkpt lat="44.7414831" lon="7.8416448"><ele>375.0</ele><time>2026-04-11T06:36:07.304Z</time></trkpt><trkpt lat="44.7414396" lon="7.8417624"><ele>375.0</ele><time>2026-04-11T06:36:09.304Z</time></trkpt><trkpt lat="44.7413748" lon="7.8418582"><ele>375.0</ele><time>2026-04-11T06:36:11.304Z</time></trkpt><trkpt lat="44.741284" lon="7.841909"><ele>375.0</ele><time>2026-04-11T06:36:13.304Z</time></trkpt><trkpt lat="44.74118" lon="7.8419535"><ele>375.0</ele><time>2026-04-11T06:36:15.304Z</time></trkpt><trkpt lat="44.7410905" lon="7.8420287"><ele>375.0</ele><time>2026-04-11T06:36:17.304Z</time></trkpt><trkpt lat="44.741045" lon="7.8421635"><ele>375.0</ele><time>2026-04-11T06:36:19.304Z</time></trkpt><trkpt lat="44.7410754" lon="7.8423006"><ele>375.0</ele><time>2026-04-11T06:36:21.304Z</time></trkpt><trkpt lat="44.7411218" lon="7.8424229"><ele>375.0</ele><time>2026-04-11T06:36:23.304Z</time></trkpt><trkpt lat="44.7411641" lon="7.842541"><ele>375.0</ele><time>2026-04-11T06:36:25.304Z</time></trkpt><trkpt lat="44.7412014" lon="7.8426551"><ele>375.3333333333333</ele><time>2026-04-11T06:36:27.304Z</time></trkpt><trkpt lat="44.7412357" lon="7.8427656"><ele>375.6666666666667</ele><time>2026-04-11T06:36:29.304Z</time></trkpt><trkpt lat="44.7412764" lon="7.8428684"><ele>376.0</ele><time>2026-04-11T06:36:31.304Z</time></trkpt><trkpt lat="44.7412953" lon="7.8429828"><ele>376.33333333333337</ele><time>2026-04-11T06:36:33.304Z</time></trkpt><trkpt lat="44.7412927" lon="7.8430822"><ele>376.6666666666667</ele><time>2026-04-11T06:36:35.304Z</time></trkpt><trkpt lat="44.7412394" lon="7.8431512"><ele>377.0</ele><time>2026-04-11T06:36:37.304Z</time></trkpt><trkpt lat="44.7411534" lon="7.8431822"><ele>377.0</ele><time>2026-04-11T06:36:39.304Z</time></trkpt><trkpt lat="44.7410629" lon="7.8432235"><ele>377.0</ele><time>2026-04-11T06:36:41.305Z</time></trkpt><trkpt lat="44.7409714" lon="7.8432913"><ele>377.0</ele><time>2026-04-11T06:36:43.304Z</time></trkpt><trkpt lat="44.7408966" lon="7.8433561"><ele>377.0</ele><time>2026-04-11T06:36:45.304Z</time></trkpt><trkpt lat="44.7408414" lon="7.8434284"><ele>377.0</ele><time>2026-04-11T06:36:47.304Z</time></trkpt><trkpt lat="44.7407832" lon="7.8434947"><ele>377.0</ele><time>2026-04-11T06:36:49.305Z</time></trkpt><trkpt lat="44.7407193" lon="7.8435547"><ele>377.83333333333337</ele><time>2026-04-11T06:36:51.304Z</time></trkpt><trkpt lat="44.7406587" lon="7.8436074"><ele>378.6666666666667</ele><time>2026-04-11T06:36:53.304Z</time></trkpt><trkpt lat="44.740597" lon="7.8436527"><ele>379.5</ele><time>2026-04-11T06:36:55.304Z</time></trkpt><trkpt lat="44.7405257" lon="7.8436978"><ele>380.3333333333333</ele><time>2026-04-11T06:36:57.304Z</time></trkpt><trkpt lat="44.7404431" lon="7.8437667"><ele>381.16666666666663</ele><time>2026-04-11T06:36:59.304Z</time></trkpt><trkpt lat="44.7403686" lon="7.8438483"><ele>382.0</ele><time>2026-04-11T06:37:01.304Z</time></trkpt><trkpt lat="44.740289" lon="7.8439467"><ele>381.40000000000003</ele><time>2026-04-11T06:37:03.304Z</time></trkpt><trkpt lat="44.7402149" lon="7.8440509"><ele>380.8</ele><time>2026-04-11T06:37:05.304Z</time></trkpt><trkpt lat="44.7401623" lon="7.8441768"><ele>380.2</ele><time>2026-04-11T06:37:07.304Z</time></trkpt><trkpt lat="44.7401078" lon="7.8443172"><ele>379.6</ele><time>2026-04-11T06:37:09.304Z</time></trkpt><trkpt lat="44.740061" lon="7.8444345"><ele>379.0</ele><time>2026-04-11T06:37:11.304Z</time></trkpt><trkpt lat="44.7400134" lon="7.8445526"><ele>379.4</ele><time>2026-04-11T06:37:13.304Z</time></trkpt><trkpt lat="44.739987" lon="7.844699"><ele>379.79999999999995</ele><time>2026-04-11T06:37:15.304Z</time></trkpt><trkpt lat="44.7399752" lon="7.8448495"><ele>380.20000000000005</ele><time>2026-04-11T06:37:17.304Z</time></trkpt><trkpt lat="44.7399762" lon="7.8449692"><ele>380.6</ele><time>2026-04-11T06:37:19.304Z</time></trkpt><trkpt lat="44.7399642" lon="7.8450986"><ele>381.0</ele><time>2026-04-11T06:37:21.304Z</time></trkpt><trkpt lat="44.7399346" lon="7.8452155"><ele>381.0</ele><time>2026-04-11T06:37:23.304Z</time></trkpt><trkpt lat="44.7398654" lon="7.8452941"><ele>381.0</ele><time>2026-04-11T06:37:25.305Z</time></trkpt><trkpt lat="44.7397729" lon="7.8453764"><ele>381.0</ele><time>2026-04-11T06:37:27.304Z</time></trkpt><trkpt lat="44.7396938" lon="7.8454841"><ele>381.0</ele><time>2026-04-11T06:37:29.304Z</time></trkpt><trkpt lat="44.7396893" lon="7.8456274"><ele>381.0</ele><time>2026-04-11T06:37:31.304Z</time></trkpt><trkpt lat="44.7397312" lon="7.8456976"><ele>381.0</ele><time>2026-04-11T06:37:32.311Z</time></trkpt><trkpt lat="44.7397619" lon="7.8457813"><ele>381.0</ele><time>2026-04-11T06:37:33.311Z</time></trkpt><trkpt lat="44.7397966" lon="7.8459478"><ele>381.0</ele><time>2026-04-11T06:37:35.311Z</time></trkpt><trkpt lat="44.7398026" lon="7.8460397"><ele>381.0</ele><time>2026-04-11T06:37:36.311Z</time></trkpt><trkpt lat="44.7398148" lon="7.8461408"><ele>381.0</ele><time>2026-04-11T06:37:37.311Z</time></trkpt><trkpt lat="44.7398305" lon="7.8462267"><ele>381.0</ele><time>2026-04-11T06:37:38.311Z</time></trkpt><trkpt lat="44.7398742" lon="7.846384"><ele>379.6666666666667</ele><time>2026-04-11T06:37:40.311Z</time></trkpt><trkpt lat="44.7399023" lon="7.8464651"><ele>378.3333333333333</ele><time>2026-04-11T06:37:41.311Z</time></trkpt><trkpt lat="44.7399404" lon="7.8465461"><ele>377.0</ele><time>2026-04-11T06:37:42.311Z</time></trkpt><trkpt lat="44.739987" lon="7.8466197"><ele>375.66666666666663</ele><time>2026-04-11T06:37:43.311Z</time></trkpt><trkpt lat="44.7400296" lon="7.8466869"><ele>374.3333333333333</ele><time>2026-04-11T06:37:44.311Z</time></trkpt><trkpt lat="44.7401065" lon="7.8468108"><ele>373.0</ele><time>2026-04-11T06:37:46.311Z</time></trkpt><trkpt lat="44.7401737" lon="7.8469506"><ele>372.16666666666663</ele><time>2026-04-11T06:37:48.311Z</time></trkpt><trkpt lat="44.7401938" lon="7.8470478"><ele>371.3333333333333</ele><time>2026-04-11T06:37:49.311Z</time></trkpt><trkpt lat="44.7402027" lon="7.8471469"><ele>370.5</ele><time>2026-04-11T06:37:50.311Z</time></trkpt><trkpt lat="44.7401991" lon="7.8472497"><ele>369.6666666666667</ele><time>2026-04-11T06:37:51.311Z</time></trkpt><trkpt lat="44.7401868" lon="7.8473505"><ele>368.83333333333337</ele><time>2026-04-11T06:37:52.311Z</time></trkpt><trkpt lat="44.7401681" lon="7.8474621"><ele>368.0</ele><time>2026-04-11T06:37:53.311Z</time></trkpt><trkpt lat="44.740136" lon="7.8475648"><ele>368.4</ele><time>2026-04-11T06:37:54.311Z</time></trkpt><trkpt lat="44.740089" lon="7.8476643"><ele>368.79999999999995</ele><time>2026-04-11T06:37:55.311Z</time></trkpt><trkpt lat="44.7400327" lon="7.8477677"><ele>369.2</ele><time>2026-04-11T06:37:56.311Z</time></trkpt><trkpt lat="44.7399687" lon="7.8478675"><ele>369.6</ele><time>2026-04-11T06:37:57.311Z</time></trkpt><trkpt lat="44.7399129" lon="7.8479698"><ele>370.0</ele><time>2026-04-11T06:37:58.311Z</time></trkpt><trkpt lat="44.7398563" lon="7.8480744"><ele>370.0</ele><time>2026-04-11T06:37:59.311Z</time></trkpt><trkpt lat="44.7398026" lon="7.848172"><ele>370.0</ele><time>2026-04-11T06:38:00.312Z</time></trkpt><trkpt lat="44.7397603" lon="7.848268"><ele>370.0</ele><time>2026-04-11T06:38:01.311Z</time></trkpt><trkpt lat="44.739757" lon="7.8483741"><ele>370.0</ele><time>2026-04-11T06:38:02.311Z</time></trkpt><trkpt lat="44.7397916" lon="7.8484815"><ele>370.0</ele><time>2026-04-11T06:38:03.311Z</time></trkpt><trkpt lat="44.7398437" lon="7.8485796"><ele>370.0</ele><time>2026-04-11T06:38:04.311Z</time></trkpt><trkpt lat="44.7399041" lon="7.8486752"><ele>369.8</ele><time>2026-04-11T06:38:05.311Z</time></trkpt><trkpt lat="44.7399663" lon="7.8487747"><ele>369.6</ele><time>2026-04-11T06:38:06.311Z</time></trkpt><trkpt lat="44.7400296" lon="7.848892"><ele>369.4</ele><time>2026-04-11T06:38:07.311Z</time></trkpt><trkpt lat="44.7400821" lon="7.8490238"><ele>369.2</ele><time>2026-04-11T06:38:08.311Z</time></trkpt><trkpt lat="44.7401335" lon="7.8491578"><ele>369.0</ele><time>2026-04-11T06:38:09.311Z</time></trkpt><trkpt lat="44.7401593" lon="7.849294"><ele>369.6666666666667</ele><time>2026-04-11T06:38:10.311Z</time></trkpt><trkpt lat="44.7401921" lon="7.8494069"><ele>370.3333333333333</ele><time>2026-04-11T06:38:11.311Z</time></trkpt><trkpt lat="44.7402348" lon="7.8494973"><ele>371.0</ele><time>2026-04-11T06:38:12.311Z</time></trkpt><trkpt lat="44.7402773" lon="7.8495858"><ele>371.66666666666663</ele><time>2026-04-11T06:38:13.311Z</time></trkpt><trkpt lat="44.7403162" lon="7.8496693"><ele>372.3333333333333</ele><time>2026-04-11T06:38:14.311Z</time></trkpt><trkpt lat="44.7403945" lon="7.8497993"><ele>373.0</ele><time>2026-04-11T06:38:16.311Z</time></trkpt><trkpt lat="44.7404676" lon="7.8498579"><ele>374.0</ele><time>2026-04-11T06:38:18.311Z</time></trkpt><trkpt lat="44.7405752" lon="7.8498318"><ele>375.0</ele><time>2026-04-11T06:38:20.311Z</time></trkpt><trkpt lat="44.7406831" lon="7.8498371"><ele>376.0</ele><time>2026-04-11T06:38:22.311Z</time></trkpt><trkpt lat="44.7407318" lon="7.8498992"><ele>377.0</ele><time>2026-04-11T06:38:24.311Z</time></trkpt><trkpt lat="44.7407051" lon="7.8500172"><ele>378.0</ele><time>2026-04-11T06:38:27.311Z</time></trkpt><trkpt lat="44.740661" lon="7.8501108"><ele>378.5</ele><time>2026-04-11T06:38:30.311Z</time></trkpt><trkpt lat="44.7406198" lon="7.8501893"><ele>379.0</ele><time>2026-04-11T06:38:33.311Z</time></trkpt><trkpt lat="44.7405673" lon="7.8502681"><ele>379.5</ele><time>2026-04-11T06:38:36.311Z</time></trkpt><trkpt lat="44.7405423" lon="7.8503532"><ele>380.0</ele><time>2026-04-11T06:38:39.312Z</time></trkpt><trkpt lat="44.7405571" lon="7.8504575"><ele>380.5</ele><time>2026-04-11T06:38:43.311Z</time></trkpt><trkpt lat="44.7405866" lon="7.8505565"><ele>381.0</ele><time>2026-04-11T06:38:46.311Z</time></trkpt><trkpt lat="44.7406377" lon="7.8506612"><ele>381.0</ele><time>2026-04-11T06:38:49.311Z</time></trkpt><trkpt lat="44.7406267" lon="7.8507581"><ele>381.0</ele><time>2026-04-11T06:38:51.311Z</time></trkpt><trkpt lat="44.740579" lon="7.8508207"><ele>381.0</ele><time>2026-04-11T06:38:53.311Z</time></trkpt><trkpt lat="44.7405254" lon="7.8509088"><ele>381.0</ele><time>2026-04-11T06:38:55.311Z</time></trkpt><trkpt lat="44.7404802" lon="7.850999"><ele>381.0</ele><time>2026-04-11T06:38:57.311Z</time></trkpt><trkpt lat="44.7404326" lon="7.8510688"><ele>381.0</ele><time>2026-04-11T06:38:59.311Z</time></trkpt><trkpt lat="44.7403866" lon="7.8511451"><ele>381.0</ele><time>2026-04-11T06:39:01.311Z</time></trkpt><trkpt lat="44.7403477" lon="7.8512308"><ele>381.6666666666667</ele><time>2026-04-11T06:39:03.311Z</time></trkpt><trkpt lat="44.7403234" lon="7.8513244"><ele>382.33333333333337</ele><time>2026-04-11T06:39:05.311Z</time></trkpt><trkpt lat="44.7403213" lon="7.8514242"><ele>383.0</ele><time>2026-04-11T06:39:07.311Z</time></trkpt><trkpt lat="44.7403116" lon="7.8515375"><ele>383.6666666666667</ele><time>2026-04-11T06:39:09.312Z</time></trkpt><trkpt lat="44.7403009" lon="7.8516626"><ele>384.33333333333337</ele><time>2026-04-11T06:39:11.311Z</time></trkpt><trkpt lat="44.7402595" lon="7.8517717"><ele>385.0</ele><time>2026-04-11T06:39:13.311Z</time></trkpt><trkpt lat="44.7402418" lon="7.8518718"><ele>385.0</ele><time>2026-04-11T06:39:15.311Z</time></trkpt><trkpt lat="44.7402489" lon="7.8519791"><ele>385.0</ele><time>2026-04-11T06:39:17.311Z</time></trkpt><trkpt lat="44.7402621" lon="7.852089"><ele>385.0</ele><time>2026-04-11T06:39:19.311Z</time></trkpt><trkpt lat="44.740255" lon="7.8521797"><ele>385.0</ele><time>2026-04-11T06:39:21.311Z</time></trkpt><trkpt lat="44.7402337" lon="7.8522765"><ele>385.0</ele><time>2026-04-11T06:39:23.311Z</time></trkpt><trkpt lat="44.7402217" lon="7.8523779"><ele>385.0</ele><time>2026-04-11T06:39:25.311Z</time></trkpt><trkpt lat="44.7402228" lon="7.8524892"><ele>385.0</ele><time>2026-04-11T06:39:27.311Z</time></trkpt><trkpt lat="44.7402493" lon="7.8525809"><ele>384.2</ele><time>2026-04-11T06:39:29.311Z</time></trkpt><trkpt lat="44.7403145" lon="7.8526921"><ele>383.4</ele><time>2026-04-11T06:39:31.311Z</time></trkpt><trkpt lat="44.7403114" lon="7.852796"><ele>382.6</ele><time>2026-04-11T06:39:33.311Z</time></trkpt><trkpt lat="44.7402675" lon="7.8529146"><ele>381.8</ele><time>2026-04-11T06:39:35.311Z</time></trkpt><trkpt lat="44.7402234" lon="7.8530247"><ele>381.0</ele><time>2026-04-11T06:39:37.311Z</time></trkpt><trkpt lat="44.7401552" lon="7.8531341"><ele>380.8</ele><time>2026-04-11T06:39:39.311Z</time></trkpt><trkpt lat="44.7400906" lon="7.8532487"><ele>380.6</ele><time>2026-04-11T06:39:41.311Z</time></trkpt><trkpt lat="44.740033" lon="7.8533748"><ele>380.4</ele><time>2026-04-11T06:39:43.311Z</time></trkpt><trkpt lat="44.7399812" lon="7.853505"><ele>380.2</ele><time>2026-04-11T06:39:45.311Z</time></trkpt><trkpt lat="44.7399422" lon="7.8536475"><ele>380.0</ele><time>2026-04-11T06:39:47.311Z</time></trkpt><trkpt lat="44.7399127" lon="7.8537849"><ele>381.6</ele><time>2026-04-11T06:39:49.311Z</time></trkpt><trkpt lat="44.7398782" lon="7.8539155"><ele>383.2</ele><time>2026-04-11T06:39:51.311Z</time></trkpt><trkpt lat="44.7398373" lon="7.8540522"><ele>384.79999999999995</ele><time>2026-04-11T06:39:53.311Z</time></trkpt><trkpt lat="44.7398089" lon="7.8541718"><ele>386.4</ele><time>2026-04-11T06:39:55.311Z</time></trkpt><trkpt lat="44.7398" lon="7.8543044"><ele>388.0</ele><time>2026-04-11T06:39:57.311Z</time></trkpt><trkpt lat="44.7397755" lon="7.8544018"><ele>388.1428571428571</ele><time>2026-04-11T06:39:59.311Z</time></trkpt><trkpt lat="44.7397663" lon="7.8544968"><ele>388.28571428571433</ele><time>2026-04-11T06:40:01.311Z</time></trkpt><trkpt lat="44.7397544" lon="7.8545915"><ele>388.42857142857144</ele><time>2026-04-11T06:40:04.311Z</time></trkpt><trkpt lat="44.7397145" lon="7.8546624"><ele>388.57142857142856</ele><time>2026-04-11T06:40:07.311Z</time></trkpt><trkpt lat="44.7396544" lon="7.8547278"><ele>388.71428571428567</ele><time>2026-04-11T06:40:10.311Z</time></trkpt><trkpt lat="44.7395862" lon="7.8547551"><ele>388.8571428571429</ele><time>2026-04-11T06:40:12.311Z</time></trkpt><trkpt lat="44.7394938" lon="7.8547614"><ele>389.0</ele><time>2026-04-11T06:40:14.311Z</time></trkpt><trkpt lat="44.7394291" lon="7.8547854"><ele>389.4</ele><time>2026-04-11T06:40:16.311Z</time></trkpt><trkpt lat="44.7393598" lon="7.8548369"><ele>389.79999999999995</ele><time>2026-04-11T06:40:19.311Z</time></trkpt><trkpt lat="44.7392825" lon="7.8549233"><ele>390.20000000000005</ele><time>2026-04-11T06:40:22.311Z</time></trkpt><trkpt lat="44.7392137" lon="7.8550285"><ele>390.6</ele><time>2026-04-11T06:40:24.311Z</time></trkpt><trkpt lat="44.739111" lon="7.8551479"><ele>391.0</ele><time>2026-04-11T06:40:26.311Z</time></trkpt><trkpt lat="44.7390538" lon="7.8552176"><ele>390.33333333333337</ele><time>2026-04-11T06:40:27.311Z</time></trkpt><trkpt lat="44.7389816" lon="7.8552842"><ele>389.6666666666667</ele><time>2026-04-11T06:40:28.311Z</time></trkpt><trkpt lat="44.7389082" lon="7.8553431"><ele>389.0</ele><time>2026-04-11T06:40:29.311Z</time></trkpt><trkpt lat="44.7388356" lon="7.8554005"><ele>388.33333333333337</ele><time>2026-04-11T06:40:30.311Z</time></trkpt><trkpt lat="44.7387725" lon="7.8554565"><ele>387.6666666666667</ele><time>2026-04-11T06:40:31.311Z</time></trkpt><trkpt lat="44.7387197" lon="7.855508"><ele>387.0</ele><time>2026-04-11T06:40:32.311Z</time></trkpt><trkpt lat="44.7386474" lon="7.8556164"><ele>387.0</ele><time>2026-04-11T06:40:34.311Z</time></trkpt><trkpt lat="44.7386361" lon="7.8557244"><ele>387.0</ele><time>2026-04-11T06:40:36.311Z</time></trkpt><trkpt lat="44.7386199" lon="7.8558308"><ele>387.0</ele><time>2026-04-11T06:40:38.311Z</time></trkpt><trkpt lat="44.7386109" lon="7.855936"><ele>387.0</ele><time>2026-04-11T06:40:40.311Z</time></trkpt><trkpt lat="44.7386643" lon="7.8560242"><ele>387.0</ele><time>2026-04-11T06:40:42.311Z</time></trkpt><trkpt lat="44.7387296" lon="7.8560374"><ele>387.0</ele><time>2026-04-11T06:40:43.311Z</time></trkpt><trkpt lat="44.7388069" lon="7.8560722"><ele>387.0</ele><time>2026-04-11T06:40:44.311Z</time></trkpt><trkpt lat="44.7388979" lon="7.8561108"><ele>387.0</ele><time>2026-04-11T06:40:45.311Z</time></trkpt><trkpt lat="44.7389938" lon="7.85614"><ele>387.0</ele><time>2026-04-11T06:40:46.311Z</time></trkpt><trkpt lat="44.7390936" lon="7.8561831"><ele>387.0</ele><time>2026-04-11T06:40:47.311Z</time></trkpt><trkpt lat="44.7391799" lon="7.8562096"><ele>387.0</ele><time>2026-04-11T06:40:48.311Z</time></trkpt><trkpt lat="44.7392439" lon="7.856233"><ele>387.0</ele><time>2026-04-11T06:40:49.311Z</time></trkpt><trkpt lat="44.7393437" lon="7.8563271"><ele>387.0</ele><time>2026-04-11T06:40:51.311Z</time></trkpt><trkpt lat="44.7394609" lon="7.8564054"><ele>387.0</ele><time>2026-04-11T06:40:53.311Z</time></trkpt><trkpt lat="44.7395239" lon="7.8564479"><ele>387.0</ele><time>2026-04-11T06:40:54.311Z</time></trkpt><trkpt lat="44.7396155" lon="7.8565477"><ele>387.0</ele><time>2026-04-11T06:40:56.311Z</time></trkpt><trkpt lat="44.7397028" lon="7.8566429"><ele>386.5</ele><time>2026-04-11T06:40:58.311Z</time></trkpt><trkpt lat="44.7397572" lon="7.8566955"><ele>386.0</ele><time>2026-04-11T06:40:59.311Z</time></trkpt><trkpt lat="44.7397946" lon="7.8567691"><ele>385.5</ele><time>2026-04-11T06:41:00.311Z</time></trkpt><trkpt lat="44.7398609" lon="7.8568512"><ele>385.0</ele><time>2026-04-11T06:41:02.311Z</time></trkpt><trkpt lat="44.7399901" lon="7.8567685"><ele>384.5</ele><time>2026-04-11T06:41:04.311Z</time></trkpt><trkpt lat="44.7400573" lon="7.8567498"><ele>384.0</ele><time>2026-04-11T06:41:05.311Z</time></trkpt><trkpt lat="44.74019" lon="7.8567482"><ele>383.2</ele><time>2026-04-11T06:41:07.311Z</time></trkpt><trkpt lat="44.7402636" lon="7.8567917"><ele>382.4</ele><time>2026-04-11T06:41:08.311Z</time></trkpt><trkpt lat="44.7404467" lon="7.856866"><ele>381.6</ele><time>2026-04-11T06:41:10.311Z</time></trkpt><trkpt lat="44.7405148" lon="7.8568454"><ele>380.8</ele><time>2026-04-11T06:41:12.311Z</time></trkpt><trkpt lat="44.7405987" lon="7.8568124"><ele>380.0</ele><time>2026-04-11T06:41:13.311Z</time></trkpt><trkpt lat="44.7406651" lon="7.8567541"><ele>378.25</ele><time>2026-04-11T06:41:15.311Z</time></trkpt><trkpt lat="44.7407781" lon="7.8566992"><ele>376.5</ele><time>2026-04-11T06:41:19.311Z</time></trkpt><trkpt lat="44.740995" lon="7.8567338"><ele>374.75</ele><time>2026-04-11T06:41:24.311Z</time></trkpt><trkpt lat="44.7411042" lon="7.8567546"><ele>373.0</ele><time>2026-04-11T06:41:26.311Z</time></trkpt><trkpt lat="44.7412086" lon="7.8567617"><ele>372.59999999999997</ele><time>2026-04-11T06:41:28.311Z</time></trkpt><trkpt lat="44.7413205" lon="7.8567612"><ele>372.2</ele><time>2026-04-11T06:41:30.311Z</time></trkpt><trkpt lat="44.7414332" lon="7.8567416"><ele>371.8</ele><time>2026-04-11T06:41:32.311Z</time></trkpt><trkpt lat="44.7415438" lon="7.8567448"><ele>371.4</ele><time>2026-04-11T06:41:34.311Z</time></trkpt><trkpt lat="44.7416229" lon="7.8567398"><ele>371.0</ele><time>2026-04-11T06:41:35.311Z</time></trkpt><trkpt lat="44.7416962" lon="7.8567452"><ele>371.0</ele><time>2026-04-11T06:41:36.311Z</time></trkpt><trkpt lat="44.7417671" lon="7.8567661"><ele>371.0</ele><time>2026-04-11T06:41:37.311Z</time></trkpt><trkpt lat="44.7418399" lon="7.8568069"><ele>371.0</ele><time>2026-04-11T06:41:38.311Z</time></trkpt><trkpt lat="44.7419109" lon="7.8568577"><ele>371.0</ele><time>2026-04-11T06:41:39.311Z</time></trkpt><trkpt lat="44.7419769" lon="7.8569265"><ele>371.0</ele><time>2026-04-11T06:41:40.311Z</time></trkpt><trkpt lat="44.7420315" lon="7.85701"><ele>371.0</ele><time>2026-04-11T06:41:41.311Z</time></trkpt><trkpt lat="44.7420902" lon="7.8570903"><ele>370.33333333333337</ele><time>2026-04-11T06:41:42.311Z</time></trkpt><trkpt lat="44.7421525" lon="7.8571694"><ele>369.6666666666667</ele><time>2026-04-11T06:41:43.311Z</time></trkpt><trkpt lat="44.7422131" lon="7.8572436"><ele>369.0</ele><time>2026-04-11T06:41:44.311Z</time></trkpt><trkpt lat="44.742267" lon="7.8573137"><ele>368.3333333333333</ele><time>2026-04-11T06:41:45.311Z</time></trkpt><trkpt lat="44.7423076" lon="7.8573861"><ele>367.66666666666663</ele><time>2026-04-11T06:41:46.311Z</time></trkpt><trkpt lat="44.7423752" lon="7.8575249"><ele>367.0</ele><time>2026-04-11T06:41:48.311Z</time></trkpt><trkpt lat="44.7424274" lon="7.857589"><ele>366.66666666666663</ele><time>2026-04-11T06:41:49.311Z</time></trkpt><trkpt lat="44.742487" lon="7.8576549"><ele>366.3333333333333</ele><time>2026-04-11T06:41:50.311Z</time></trkpt><trkpt lat="44.7425328" lon="7.8577316"><ele>366.0</ele><time>2026-04-11T06:41:51.311Z</time></trkpt><trkpt lat="44.7425884" lon="7.8578186"><ele>365.6666666666667</ele><time>2026-04-11T06:41:52.311Z</time></trkpt><trkpt lat="44.7426529" lon="7.8578924"><ele>365.33333333333337</ele><time>2026-04-11T06:41:53.311Z</time></trkpt><trkpt lat="44.7427124" lon="7.8579764"><ele>365.0</ele><time>2026-04-11T06:41:54.311Z</time></trkpt><trkpt lat="44.7427668" lon="7.8580657"><ele>364.5</ele><time>2026-04-11T06:41:55.311Z</time></trkpt><trkpt lat="44.7428021" lon="7.8581595"><ele>364.0</ele><time>2026-04-11T06:41:56.311Z</time></trkpt><trkpt lat="44.7428304" lon="7.8582578"><ele>363.5</ele><time>2026-04-11T06:41:57.311Z</time></trkpt><trkpt lat="44.7428621" lon="7.8583547"><ele>363.0</ele><time>2026-04-11T06:41:58.311Z</time></trkpt><trkpt lat="44.7429253" lon="7.8584334"><ele>362.5</ele><time>2026-04-11T06:41:59.311Z</time></trkpt><trkpt lat="44.7429895" lon="7.8585013"><ele>362.0</ele><time>2026-04-11T06:42:00.311Z</time></trkpt><trkpt lat="44.7430593" lon="7.8585543"><ele>361.6666666666667</ele><time>2026-04-11T06:42:01.311Z</time></trkpt><trkpt lat="44.7431293" lon="7.8586037"><ele>361.33333333333337</ele><time>2026-04-11T06:42:02.311Z</time></trkpt><trkpt lat="44.7431891" lon="7.8586536"><ele>361.0</ele><time>2026-04-11T06:42:03.311Z</time></trkpt><trkpt lat="44.743303" lon="7.8587286"><ele>360.6666666666667</ele><time>2026-04-11T06:42:05.312Z</time></trkpt><trkpt lat="44.7433717" lon="7.8587509"><ele>360.3333333333333</ele><time>2026-04-11T06:42:06.311Z</time></trkpt><trkpt lat="44.7434458" lon="7.8587636"><ele>360.0</ele><time>2026-04-11T06:42:07.311Z</time></trkpt><trkpt lat="44.7435182" lon="7.8587783"><ele>359.85714285714283</ele><time>2026-04-11T06:42:08.311Z</time></trkpt><trkpt lat="44.7435887" lon="7.8587909"><ele>359.7142857142857</ele><time>2026-04-11T06:42:09.311Z</time></trkpt><trkpt lat="44.74366" lon="7.8588023"><ele>359.57142857142856</ele><time>2026-04-11T06:42:10.311Z</time></trkpt><trkpt lat="44.7437271" lon="7.8588201"><ele>359.42857142857144</ele><time>2026-04-11T06:42:11.311Z</time></trkpt><trkpt lat="44.7437954" lon="7.858845"><ele>359.28571428571433</ele><time>2026-04-11T06:42:12.311Z</time></trkpt><trkpt lat="44.7438631" lon="7.8588711"><ele>359.14285714285717</ele><time>2026-04-11T06:42:13.311Z</time></trkpt><trkpt lat="44.7439237" lon="7.8589144"><ele>359.0</ele><time>2026-04-11T06:42:14.311Z</time></trkpt><trkpt lat="44.7439784" lon="7.8589681"><ele>359.0</ele><time>2026-04-11T06:42:15.311Z</time></trkpt><trkpt lat="44.7440609" lon="7.859097"><ele>359.0</ele><time>2026-04-11T06:42:17.311Z</time></trkpt><trkpt lat="44.7441051" lon="7.8591619"><ele>359.0</ele><time>2026-04-11T06:42:18.311Z</time></trkpt><trkpt lat="44.7441577" lon="7.8592245"><ele>359.0</ele><time>2026-04-11T06:42:19.311Z</time></trkpt><trkpt lat="44.7442108" lon="7.8592881"><ele>359.0</ele><time>2026-04-11T06:42:20.311Z</time></trkpt><trkpt lat="44.7442653" lon="7.8593409"><ele>359.0</ele><time>2026-04-11T06:42:21.311Z</time></trkpt><trkpt lat="44.7443173" lon="7.8594007"><ele>358.6666666666667</ele><time>2026-04-11T06:42:22.311Z</time></trkpt><trkpt lat="44.744374" lon="7.8594576"><ele>358.33333333333337</ele><time>2026-04-11T06:42:23.311Z</time></trkpt><trkpt lat="44.7444285" lon="7.8595177"><ele>358.0</ele><time>2026-04-11T06:42:24.311Z</time></trkpt><trkpt lat="44.7444796" lon="7.8595783"><ele>357.6666666666667</ele><time>2026-04-11T06:42:25.311Z</time></trkpt><trkpt lat="44.7445333" lon="7.8596402"><ele>357.3333333333333</ele><time>2026-04-11T06:42:26.311Z</time></trkpt><trkpt lat="44.7445853" lon="7.8597008"><ele>357.0</ele><time>2026-04-11T06:42:27.311Z</time></trkpt><trkpt lat="44.7446498" lon="7.8598345"><ele>356.3333333333333</ele><time>2026-04-11T06:42:29.311Z</time></trkpt><trkpt lat="44.7446828" lon="7.8599223"><ele>355.6666666666667</ele><time>2026-04-11T06:42:30.311Z</time></trkpt><trkpt lat="44.7447138" lon="7.8600064"><ele>355.0</ele><time>2026-04-11T06:42:31.311Z</time></trkpt><trkpt lat="44.7447463" lon="7.8600857"><ele>354.33333333333337</ele><time>2026-04-11T06:42:32.311Z</time></trkpt><trkpt lat="44.7447761" lon="7.8601683"><ele>353.6666666666667</ele><time>2026-04-11T06:42:33.311Z</time></trkpt><trkpt lat="44.7448605" lon="7.8602891"><ele>353.0</ele><time>2026-04-11T06:42:35.311Z</time></trkpt><trkpt lat="44.7449359" lon="7.860372"><ele>353.0</ele><time>2026-04-11T06:42:37.311Z</time></trkpt><trkpt lat="44.7449848" lon="7.8604682"><ele>353.0</ele><time>2026-04-11T06:42:40.311Z</time></trkpt><trkpt lat="44.7450626" lon="7.8604145"><ele>353.0</ele><time>2026-04-11T06:42:44.312Z</time></trkpt><trkpt lat="44.7450916" lon="7.8603317"><ele>353.0</ele><time>2026-04-11T06:42:46.312Z</time></trkpt><trkpt lat="44.7451235" lon="7.8602264"><ele>353.0</ele><time>2026-04-11T06:42:48.312Z</time></trkpt><trkpt lat="44.7451412" lon="7.8601356"><ele>353.0</ele><time>2026-04-11T06:42:49.312Z</time></trkpt><trkpt lat="44.7451899" lon="7.8600095"><ele>353.2</ele><time>2026-04-11T06:42:51.312Z</time></trkpt><trkpt lat="44.7452286" lon="7.8599031"><ele>353.4</ele><time>2026-04-11T06:42:53.312Z</time></trkpt><trkpt lat="44.7452866" lon="7.8598021"><ele>353.59999999999997</ele><time>2026-04-11T06:42:55.312Z</time></trkpt><trkpt lat="44.7453604" lon="7.8596993"><ele>353.79999999999995</ele><time>2026-04-11T06:42:57.312Z</time></trkpt><trkpt lat="44.7454427" lon="7.8596048"><ele>354.0</ele><time>2026-04-11T06:42:59.312Z</time></trkpt><trkpt lat="44.7454978" lon="7.8595394"><ele>354.0</ele><time>2026-04-11T06:43:01.312Z</time></trkpt><trkpt lat="44.7455569" lon="7.8595052"><ele>354.0</ele><time>2026-04-11T06:43:03.312Z</time></trkpt><trkpt lat="44.745611" lon="7.8594299"><ele>354.0</ele><time>2026-04-11T06:43:04.312Z</time></trkpt><trkpt lat="44.7456521" lon="7.8593595"><ele>354.0</ele><time>2026-04-11T06:43:05.312Z</time></trkpt><trkpt lat="44.745689" lon="7.8592804"><ele>354.0</ele><time>2026-04-11T06:43:06.312Z</time></trkpt><trkpt lat="44.7457605" lon="7.8591234"><ele>354.0</ele><time>2026-04-11T06:43:08.312Z</time></trkpt><trkpt lat="44.7458259" lon="7.8589881"><ele>354.1666666666667</ele><time>2026-04-11T06:43:10.312Z</time></trkpt><trkpt lat="44.745858" lon="7.85891"><ele>354.3333333333333</ele><time>2026-04-11T06:43:11.312Z</time></trkpt><trkpt lat="44.7458811" lon="7.8588266"><ele>354.5</ele><time>2026-04-11T06:43:12.312Z</time></trkpt><trkpt lat="44.745919" lon="7.8586821"><ele>354.66666666666663</ele><time>2026-04-11T06:43:14.312Z</time></trkpt><trkpt lat="44.7459402" lon="7.8585933"><ele>354.8333333333333</ele><time>2026-04-11T06:43:15.312Z</time></trkpt><trkpt lat="44.7459746" lon="7.8585134"><ele>355.0</ele><time>2026-04-11T06:43:16.312Z</time></trkpt><trkpt lat="44.7460626" lon="7.8584107"><ele>354.2</ele><time>2026-04-11T06:43:18.312Z</time></trkpt><trkpt lat="44.7461213" lon="7.8583689"><ele>353.4</ele><time>2026-04-11T06:43:19.312Z</time></trkpt><trkpt lat="44.7462198" lon="7.8582954"><ele>352.6</ele><time>2026-04-11T06:43:21.312Z</time></trkpt><trkpt lat="44.7463124" lon="7.8581936"><ele>351.8</ele><time>2026-04-11T06:43:23.312Z</time></trkpt><trkpt lat="44.7463856" lon="7.8580667"><ele>351.0</ele><time>2026-04-11T06:43:25.312Z</time></trkpt><trkpt lat="44.7464209" lon="7.8579144"><ele>351.0</ele><time>2026-04-11T06:43:27.312Z</time></trkpt><trkpt lat="44.7464626" lon="7.8577647"><ele>351.0</ele><time>2026-04-11T06:43:29.312Z</time></trkpt><trkpt lat="44.7464997" lon="7.8576026"><ele>351.0</ele><time>2026-04-11T06:43:31.312Z</time></trkpt><trkpt lat="44.7465586" lon="7.8574529"><ele>351.0</ele><time>2026-04-11T06:43:33.312Z</time></trkpt><trkpt lat="44.7466216" lon="7.8573172"><ele>351.0</ele><time>2026-04-11T06:43:35.312Z</time></trkpt><trkpt lat="44.7466851" lon="7.8571933"><ele>351.0</ele><time>2026-04-11T06:43:37.312Z</time></trkpt><trkpt lat="44.746764" lon="7.8570724"><ele>351.0</ele><time>2026-04-11T06:43:39.312Z</time></trkpt><trkpt lat="44.7468108" lon="7.8570085"><ele>351.0</ele><time>2026-04-11T06:43:40.312Z</time></trkpt><trkpt lat="44.7468597" lon="7.8569445"><ele>351.0</ele><time>2026-04-11T06:43:41.312Z</time></trkpt><trkpt lat="44.7469582" lon="7.8568343"><ele>350.7142857142857</ele><time>2026-04-11T06:43:43.312Z</time></trkpt><trkpt lat="44.747012" lon="7.856781"><ele>350.42857142857144</ele><time>2026-04-11T06:43:44.312Z</time></trkpt><trkpt lat="44.7470629" lon="7.8567219"><ele>350.1428571428571</ele><time>2026-04-11T06:43:45.312Z</time></trkpt><trkpt lat="44.7471188" lon="7.8566614"><ele>349.8571428571429</ele><time>2026-04-11T06:43:46.312Z</time></trkpt><trkpt lat="44.7471744" lon="7.8565973"><ele>349.57142857142856</ele><time>2026-04-11T06:43:47.312Z</time></trkpt><trkpt lat="44.7472295" lon="7.8565439"><ele>349.2857142857143</ele><time>2026-04-11T06:43:48.312Z</time></trkpt><trkpt lat="44.7472849" lon="7.8564926"><ele>349.0</ele><time>2026-04-11T06:43:49.312Z</time></trkpt><trkpt lat="44.7473407" lon="7.8564313"><ele>349.0</ele><time>2026-04-11T06:43:50.312Z</time></trkpt><trkpt lat="44.7473929" lon="7.8563638"><ele>349.0</ele><time>2026-04-11T06:43:51.312Z</time></trkpt><trkpt lat="44.74744" lon="7.8562885"><ele>349.0</ele><time>2026-04-11T06:43:52.312Z</time></trkpt><trkpt lat="44.7474845" lon="7.8561865"><ele>349.0</ele><time>2026-04-11T06:43:53.312Z</time></trkpt><trkpt lat="44.7475302" lon="7.8560897"><ele>349.0</ele><time>2026-04-11T06:43:54.312Z</time></trkpt><trkpt lat="44.7475947" lon="7.8560201"><ele>349.0</ele><time>2026-04-11T06:43:55.312Z</time></trkpt><trkpt lat="44.7476662" lon="7.8559515"><ele>348.5</ele><time>2026-04-11T06:43:56.312Z</time></trkpt><trkpt lat="44.7477434" lon="7.8559119"><ele>348.0</ele><time>2026-04-11T06:43:57.313Z</time></trkpt><trkpt lat="44.7478159" lon="7.8558663"><ele>347.5</ele><time>2026-04-11T06:43:58.312Z</time></trkpt><trkpt lat="44.7478863" lon="7.8558207"><ele>347.0</ele><time>2026-04-11T06:43:59.312Z</time></trkpt><trkpt lat="44.7479592" lon="7.8557745"><ele>346.5</ele><time>2026-04-11T06:44:00.312Z</time></trkpt><trkpt lat="44.7480392" lon="7.8557247"><ele>346.0</ele><time>2026-04-11T06:44:01.313Z</time></trkpt><trkpt lat="44.7481218" lon="7.8556448"><ele>346.0</ele><time>2026-04-11T06:44:02.312Z</time></trkpt><trkpt lat="44.7482119" lon="7.8555779"><ele>346.0</ele><time>2026-04-11T06:44:03.312Z</time></trkpt><trkpt lat="44.7482855" lon="7.8555167"><ele>346.0</ele><time>2026-04-11T06:44:04.312Z</time></trkpt><trkpt lat="44.7483436" lon="7.8554539"><ele>346.0</ele><time>2026-04-11T06:44:05.312Z</time></trkpt><trkpt lat="44.7484113" lon="7.8553897"><ele>346.0</ele><time>2026-04-11T06:44:06.312Z</time></trkpt><trkpt lat="44.7484692" lon="7.8553238"><ele>346.0</ele><time>2026-04-11T06:44:07.312Z</time></trkpt><trkpt lat="44.7485236" lon="7.8552551"><ele>345.66666666666663</ele><time>2026-04-11T06:44:08.312Z</time></trkpt><trkpt lat="44.7485753" lon="7.8551675"><ele>345.3333333333333</ele><time>2026-04-11T06:44:09.312Z</time></trkpt><trkpt lat="44.7486218" lon="7.8550798"><ele>345.0</ele><time>2026-04-11T06:44:10.312Z</time></trkpt><trkpt lat="44.7486651" lon="7.8549882"><ele>344.6666666666667</ele><time>2026-04-11T06:44:11.312Z</time></trkpt><trkpt lat="44.7487102" lon="7.8548956"><ele>344.33333333333337</ele><time>2026-04-11T06:44:12.319Z</time></trkpt><trkpt lat="44.7487511" lon="7.8548065"><ele>344.0</ele><time>2026-04-11T06:44:13.319Z</time></trkpt><trkpt lat="44.7487953" lon="7.854715"><ele>344.0</ele><time>2026-04-11T06:44:14.319Z</time></trkpt><trkpt lat="44.7488454" lon="7.854646"><ele>344.0</ele><time>2026-04-11T06:44:15.319Z</time></trkpt><trkpt lat="44.7488929" lon="7.8545868"><ele>344.0</ele><time>2026-04-11T06:44:16.319Z</time></trkpt><trkpt lat="44.748937" lon="7.8545181"><ele>344.0</ele><time>2026-04-11T06:44:17.319Z</time></trkpt><trkpt lat="44.7490099" lon="7.8544396"><ele>344.0</ele><time>2026-04-11T06:44:19.319Z</time></trkpt><trkpt lat="44.7490961" lon="7.8543654"><ele>344.0</ele><time>2026-04-11T06:44:21.319Z</time></trkpt><trkpt lat="44.749155" lon="7.8543275"><ele>344.0</ele><time>2026-04-11T06:44:22.319Z</time></trkpt><trkpt lat="44.7492772" lon="7.8542695"><ele>344.0</ele><time>2026-04-11T06:44:24.319Z</time></trkpt><trkpt lat="44.749344" lon="7.8542366"><ele>344.0</ele><time>2026-04-11T06:44:25.319Z</time></trkpt><trkpt lat="44.7494157" lon="7.8541924"><ele>344.0</ele><time>2026-04-11T06:44:26.319Z</time></trkpt><trkpt lat="44.7494878" lon="7.8541353"><ele>344.0</ele><time>2026-04-11T06:44:27.319Z</time></trkpt><trkpt lat="44.7495553" lon="7.8540707"><ele>344.0</ele><time>2026-04-11T06:44:28.319Z</time></trkpt><trkpt lat="44.7496158" lon="7.853998"><ele>343.6666666666667</ele><time>2026-04-11T06:44:29.319Z</time></trkpt><trkpt lat="44.7496735" lon="7.8539267"><ele>343.33333333333337</ele><time>2026-04-11T06:44:30.319Z</time></trkpt><trkpt lat="44.7497295" lon="7.8538509"><ele>343.0</ele><time>2026-04-11T06:44:31.319Z</time></trkpt><trkpt lat="44.7497904" lon="7.8537838"><ele>342.6666666666667</ele><time>2026-04-11T06:44:32.319Z</time></trkpt><trkpt lat="44.7498542" lon="7.8537268"><ele>342.3333333333333</ele><time>2026-04-11T06:44:33.319Z</time></trkpt><trkpt lat="44.749924" lon="7.853668"><ele>342.0</ele><time>2026-04-11T06:44:34.319Z</time></trkpt><trkpt lat="44.7499868" lon="7.8536016"><ele>342.0</ele><time>2026-04-11T06:44:35.319Z</time></trkpt><trkpt lat="44.7500447" lon="7.8535228"><ele>342.0</ele><time>2026-04-11T06:44:36.319Z</time></trkpt><trkpt lat="44.7501056" lon="7.8534465"><ele>342.0</ele><time>2026-04-11T06:44:37.319Z</time></trkpt><trkpt lat="44.7501674" lon="7.8533529"><ele>342.0</ele><time>2026-04-11T06:44:38.319Z</time></trkpt><trkpt lat="44.7502272" lon="7.8532744"><ele>342.0</ele><time>2026-04-11T06:44:39.319Z</time></trkpt><trkpt lat="44.7502787" lon="7.8531995"><ele>342.0</ele><time>2026-04-11T06:44:40.319Z</time></trkpt><trkpt lat="44.7503427" lon="7.8531256"><ele>342.3333333333333</ele><time>2026-04-11T06:44:41.319Z</time></trkpt><trkpt lat="44.7504002" lon="7.8530535"><ele>342.6666666666667</ele><time>2026-04-11T06:44:42.319Z</time></trkpt><trkpt lat="44.7504539" lon="7.8529763"><ele>343.0</ele><time>2026-04-11T06:44:43.32Z</time></trkpt><trkpt lat="44.7504977" lon="7.8528933"><ele>343.33333333333337</ele><time>2026-04-11T06:44:44.319Z</time></trkpt><trkpt lat="44.7505406" lon="7.8528136"><ele>343.6666666666667</ele><time>2026-04-11T06:44:45.319Z</time></trkpt><trkpt lat="44.750573" lon="7.8527221"><ele>344.0</ele><time>2026-04-11T06:44:46.319Z</time></trkpt><trkpt lat="44.7506117" lon="7.8526241"><ele>343.5</ele><time>2026-04-11T06:44:47.319Z</time></trkpt><trkpt lat="44.7506529" lon="7.8525475"><ele>343.0</ele><time>2026-04-11T06:44:48.319Z</time></trkpt><trkpt lat="44.7507227" lon="7.852394"><ele>342.5</ele><time>2026-04-11T06:44:50.319Z</time></trkpt><trkpt lat="44.7507607" lon="7.8523052"><ele>342.0</ele><time>2026-04-11T06:44:51.319Z</time></trkpt><trkpt lat="44.7507942" lon="7.8522161"><ele>341.5</ele><time>2026-04-11T06:44:52.319Z</time></trkpt><trkpt lat="44.7508287" lon="7.852125"><ele>341.0</ele><time>2026-04-11T06:44:53.319Z</time></trkpt><trkpt lat="44.7508675" lon="7.8520272"><ele>341.0</ele><time>2026-04-11T06:44:54.319Z</time></trkpt><trkpt lat="44.7509022" lon="7.8519329"><ele>341.0</ele><time>2026-04-11T06:44:55.319Z</time></trkpt><trkpt lat="44.7509323" lon="7.8518253"><ele>341.0</ele><time>2026-04-11T06:44:56.319Z</time></trkpt><trkpt lat="44.7509604" lon="7.8517225"><ele>341.0</ele><time>2026-04-11T06:44:57.319Z</time></trkpt><trkpt lat="44.7509933" lon="7.8516338"><ele>341.0</ele><time>2026-04-11T06:44:58.319Z</time></trkpt><trkpt lat="44.751026" lon="7.8515398"><ele>341.0</ele><time>2026-04-11T06:44:59.319Z</time></trkpt><trkpt lat="44.7510651" lon="7.8514493"><ele>340.7142857142857</ele><time>2026-04-11T06:45:00.319Z</time></trkpt><trkpt lat="44.7511011" lon="7.8513621"><ele>340.42857142857144</ele><time>2026-04-11T06:45:01.319Z</time></trkpt><trkpt lat="44.7511404" lon="7.8512746"><ele>340.1428571428571</ele><time>2026-04-11T06:45:02.319Z</time></trkpt><trkpt lat="44.7511793" lon="7.8511812"><ele>339.8571428571429</ele><time>2026-04-11T06:45:03.319Z</time></trkpt><trkpt lat="44.7512165" lon="7.8510919"><ele>339.5714285714286</ele><time>2026-04-11T06:45:04.319Z</time></trkpt><trkpt lat="44.7512538" lon="7.8510049"><ele>339.2857142857143</ele><time>2026-04-11T06:45:05.319Z</time></trkpt><trkpt lat="44.7512972" lon="7.8509239"><ele>339.0</ele><time>2026-04-11T06:45:06.319Z</time></trkpt><trkpt lat="44.7513393" lon="7.8508456"><ele>338.6666666666667</ele><time>2026-04-11T06:45:07.319Z</time></trkpt><trkpt lat="44.7513761" lon="7.8507607"><ele>338.3333333333333</ele><time>2026-04-11T06:45:08.319Z</time></trkpt><trkpt lat="44.7514215" lon="7.850667"><ele>338.0</ele><time>2026-04-11T06:45:09.319Z</time></trkpt><trkpt lat="44.7514842" lon="7.8505794"><ele>337.66666666666663</ele><time>2026-04-11T06:45:10.319Z</time></trkpt><trkpt lat="44.7515351" lon="7.8505005"><ele>337.3333333333333</ele><time>2026-04-11T06:45:11.319Z</time></trkpt><trkpt lat="44.7515875" lon="7.8504287"><ele>337.0</ele><time>2026-04-11T06:45:12.319Z</time></trkpt><trkpt lat="44.751631" lon="7.8503477"><ele>337.00000000000006</ele><time>2026-04-11T06:45:13.319Z</time></trkpt><trkpt lat="44.7516762" lon="7.8502639"><ele>337.0</ele><time>2026-04-11T06:45:14.319Z</time></trkpt><trkpt lat="44.7517173" lon="7.8501791"><ele>337.0</ele><time>2026-04-11T06:45:15.319Z</time></trkpt><trkpt lat="44.7517598" lon="7.8501015"><ele>337.0</ele><time>2026-04-11T06:45:16.319Z</time></trkpt><trkpt lat="44.7518007" lon="7.8500309"><ele>337.0</ele><time>2026-04-11T06:45:17.319Z</time></trkpt><trkpt lat="44.7518354" lon="7.8499554"><ele>337.00000000000006</ele><time>2026-04-11T06:45:18.319Z</time></trkpt><trkpt lat="44.7518919" lon="7.8498759"><ele>337.0</ele><time>2026-04-11T06:45:19.319Z</time></trkpt><trkpt lat="44.7519396" lon="7.8497945"><ele>337.00000000000006</ele><time>2026-04-11T06:45:20.319Z</time></trkpt><trkpt lat="44.7519887" lon="7.8497164"><ele>337.0</ele><time>2026-04-11T06:45:21.319Z</time></trkpt><trkpt lat="44.7520324" lon="7.8496491"><ele>337.0</ele><time>2026-04-11T06:45:22.319Z</time></trkpt><trkpt lat="44.752075" lon="7.8495746"><ele>337.0</ele><time>2026-04-11T06:45:23.319Z</time></trkpt><trkpt lat="44.7521172" lon="7.849492"><ele>337.0</ele><time>2026-04-11T06:45:24.319Z</time></trkpt><trkpt lat="44.7521461" lon="7.8494076"><ele>337.00000000000006</ele><time>2026-04-11T06:45:25.319Z</time></trkpt><trkpt lat="44.752177" lon="7.8493273"><ele>337.0</ele><time>2026-04-11T06:45:26.319Z</time></trkpt><trkpt lat="44.7522116" lon="7.8492459"><ele>336.7142857142857</ele><time>2026-04-11T06:45:27.319Z</time></trkpt><trkpt lat="44.7522429" lon="7.8491531"><ele>336.42857142857144</ele><time>2026-04-11T06:45:28.319Z</time></trkpt><trkpt lat="44.7522698" lon="7.8490664"><ele>336.1428571428571</ele><time>2026-04-11T06:45:29.319Z</time></trkpt><trkpt lat="44.7523021" lon="7.8489834"><ele>335.8571428571429</ele><time>2026-04-11T06:45:30.319Z</time></trkpt><trkpt lat="44.7523279" lon="7.8489021"><ele>335.57142857142856</ele><time>2026-04-11T06:45:31.32Z</time></trkpt><trkpt lat="44.7523413" lon="7.8488088"><ele>335.2857142857143</ele><time>2026-04-11T06:45:32.319Z</time></trkpt><trkpt lat="44.7523599" lon="7.8487159"><ele>335.0</ele><time>2026-04-11T06:45:33.319Z</time></trkpt><trkpt lat="44.7523954" lon="7.8486369"><ele>335.0</ele><time>2026-04-11T06:45:34.319Z</time></trkpt><trkpt lat="44.7524301" lon="7.8485493"><ele>335.0</ele><time>2026-04-11T06:45:35.319Z</time></trkpt><trkpt lat="44.7524721" lon="7.8484627"><ele>335.0</ele><time>2026-04-11T06:45:36.32Z</time></trkpt><trkpt lat="44.7525179" lon="7.8483685"><ele>335.0</ele><time>2026-04-11T06:45:37.319Z</time></trkpt><trkpt lat="44.7525564" lon="7.8482727"><ele>335.0</ele><time>2026-04-11T06:45:38.32Z</time></trkpt><trkpt lat="44.752594" lon="7.8481862"><ele>335.0</ele><time>2026-04-11T06:45:39.319Z</time></trkpt><trkpt lat="44.7526276" lon="7.8480828"><ele>334.83333333333337</ele><time>2026-04-11T06:45:40.319Z</time></trkpt><trkpt lat="44.7526703" lon="7.8479811"><ele>334.6666666666667</ele><time>2026-04-11T06:45:41.319Z</time></trkpt><trkpt lat="44.75271" lon="7.847881"><ele>334.5</ele><time>2026-04-11T06:45:42.319Z</time></trkpt><trkpt lat="44.7527508" lon="7.8477799"><ele>334.3333333333333</ele><time>2026-04-11T06:45:43.319Z</time></trkpt><trkpt lat="44.7527919" lon="7.8476762"><ele>334.16666666666663</ele><time>2026-04-11T06:45:44.319Z</time></trkpt><trkpt lat="44.7528346" lon="7.8475716"><ele>334.0</ele><time>2026-04-11T06:45:45.32Z</time></trkpt><trkpt lat="44.7528763" lon="7.8474546"><ele>333.79999999999995</ele><time>2026-04-11T06:45:46.319Z</time></trkpt><trkpt lat="44.7529276" lon="7.8473393"><ele>333.59999999999997</ele><time>2026-04-11T06:45:47.319Z</time></trkpt><trkpt lat="44.7529766" lon="7.8472256"><ele>333.4</ele><time>2026-04-11T06:45:48.319Z</time></trkpt><trkpt lat="44.7530442" lon="7.8471331"><ele>333.2</ele><time>2026-04-11T06:45:49.319Z</time></trkpt><trkpt lat="44.7531098" lon="7.8470347"><ele>333.0</ele><time>2026-04-11T06:45:50.319Z</time></trkpt><trkpt lat="44.7531437" lon="7.8469408"><ele>333.0</ele><time>2026-04-11T06:45:51.319Z</time></trkpt><trkpt lat="44.7531795" lon="7.8468583"><ele>333.0</ele><time>2026-04-11T06:45:52.319Z</time></trkpt><trkpt lat="44.7532138" lon="7.8467687"><ele>333.0</ele><time>2026-04-11T06:45:53.319Z</time></trkpt><trkpt lat="44.7532631" lon="7.8467018"><ele>333.0</ele><time>2026-04-11T06:45:54.32Z</time></trkpt><trkpt lat="44.7532863" lon="7.8466031"><ele>333.0</ele><time>2026-04-11T06:45:55.319Z</time></trkpt><trkpt lat="44.7532863" lon="7.8465135"><ele>333.0</ele><time>2026-04-11T06:45:56.319Z</time></trkpt><trkpt lat="44.7532785" lon="7.8463975"><ele>333.0</ele><time>2026-04-11T06:45:57.319Z</time></trkpt><trkpt lat="44.7532681" lon="7.8462913"><ele>333.1666666666667</ele><time>2026-04-11T06:45:58.319Z</time></trkpt><trkpt lat="44.7532595" lon="7.8461811"><ele>333.3333333333333</ele><time>2026-04-11T06:45:59.319Z</time></trkpt><trkpt lat="44.7532474" lon="7.8460717"><ele>333.5</ele><time>2026-04-11T06:46:00.319Z</time></trkpt><trkpt lat="44.7532389" lon="7.8459613"><ele>333.66666666666663</ele><time>2026-04-11T06:46:01.319Z</time></trkpt><trkpt lat="44.7532331" lon="7.8458606"><ele>333.8333333333333</ele><time>2026-04-11T06:46:02.319Z</time></trkpt><trkpt lat="44.7532259" lon="7.8457563"><ele>334.0</ele><time>2026-04-11T06:46:03.319Z</time></trkpt><trkpt lat="44.7532141" lon="7.8456552"><ele>334.0</ele><time>2026-04-11T06:46:04.319Z</time></trkpt><trkpt lat="44.7532019" lon="7.8455447"><ele>334.0</ele><time>2026-04-11T06:46:05.319Z</time></trkpt><trkpt lat="44.75319" lon="7.8454334"><ele>334.0</ele><time>2026-04-11T06:46:06.319Z</time></trkpt><trkpt lat="44.7531796" lon="7.8453293"><ele>334.0</ele><time>2026-04-11T06:46:07.319Z</time></trkpt><trkpt lat="44.7531787" lon="7.845215"><ele>334.0</ele><time>2026-04-11T06:46:08.319Z</time></trkpt><trkpt lat="44.7531742" lon="7.8451073"><ele>334.0</ele><time>2026-04-11T06:46:09.319Z</time></trkpt><trkpt lat="44.7531707" lon="7.8450001"><ele>333.8333333333333</ele><time>2026-04-11T06:46:10.319Z</time></trkpt><trkpt lat="44.7531744" lon="7.8448864"><ele>333.66666666666663</ele><time>2026-04-11T06:46:11.319Z</time></trkpt><trkpt lat="44.7531738" lon="7.844773"><ele>333.5</ele><time>2026-04-11T06:46:12.319Z</time></trkpt><trkpt lat="44.7531733" lon="7.8446637"><ele>333.3333333333333</ele><time>2026-04-11T06:46:13.319Z</time></trkpt><trkpt lat="44.7531786" lon="7.8445525"><ele>333.1666666666667</ele><time>2026-04-11T06:46:14.319Z</time></trkpt><trkpt lat="44.753197" lon="7.844448"><ele>333.0</ele><time>2026-04-11T06:46:15.319Z</time></trkpt><trkpt lat="44.7532254" lon="7.8443458"><ele>333.3333333333333</ele><time>2026-04-11T06:46:16.319Z</time></trkpt><trkpt lat="44.7532586" lon="7.8442395"><ele>333.6666666666667</ele><time>2026-04-11T06:46:17.319Z</time></trkpt><trkpt lat="44.7532874" lon="7.8441389"><ele>334.0</ele><time>2026-04-11T06:46:18.319Z</time></trkpt><trkpt lat="44.7533123" lon="7.8440385"><ele>334.33333333333337</ele><time>2026-04-11T06:46:19.319Z</time></trkpt><trkpt lat="44.7533415" lon="7.8439354"><ele>334.6666666666667</ele><time>2026-04-11T06:46:20.319Z</time></trkpt><trkpt lat="44.7533802" lon="7.8438385"><ele>335.0</ele><time>2026-04-11T06:46:21.319Z</time></trkpt><trkpt lat="44.7534164" lon="7.8437343"><ele>335.0</ele><time>2026-04-11T06:46:22.319Z</time></trkpt><trkpt lat="44.7534568" lon="7.8436307"><ele>335.0</ele><time>2026-04-11T06:46:23.32Z</time></trkpt><trkpt lat="44.7534876" lon="7.8435271"><ele>335.0</ele><time>2026-04-11T06:46:24.319Z</time></trkpt><trkpt lat="44.753496" lon="7.8434184"><ele>335.0</ele><time>2026-04-11T06:46:25.319Z</time></trkpt><trkpt lat="44.7534961" lon="7.8433068"><ele>335.0</ele><time>2026-04-11T06:46:26.319Z</time></trkpt><trkpt lat="44.7534968" lon="7.8431923"><ele>335.0</ele><time>2026-04-11T06:46:27.319Z</time></trkpt><trkpt lat="44.753498" lon="7.8430797"><ele>334.6666666666667</ele><time>2026-04-11T06:46:28.319Z</time></trkpt><trkpt lat="44.7535074" lon="7.8429742"><ele>334.33333333333337</ele><time>2026-04-11T06:46:29.319Z</time></trkpt><trkpt lat="44.7535166" lon="7.8428639"><ele>334.0</ele><time>2026-04-11T06:46:30.319Z</time></trkpt><trkpt lat="44.7535399" lon="7.8427626"><ele>333.6666666666667</ele><time>2026-04-11T06:46:31.319Z</time></trkpt><trkpt lat="44.753568" lon="7.8426611"><ele>333.3333333333333</ele><time>2026-04-11T06:46:32.319Z</time></trkpt><trkpt lat="44.7535926" lon="7.8425584"><ele>333.0</ele><time>2026-04-11T06:46:33.32Z</time></trkpt><trkpt lat="44.7536292" lon="7.8424527"><ele>332.59999999999997</ele><time>2026-04-11T06:46:34.32Z</time></trkpt><trkpt lat="44.7536712" lon="7.8423279"><ele>332.2</ele><time>2026-04-11T06:46:35.32Z</time></trkpt><trkpt lat="44.753717" lon="7.8421937"><ele>331.8</ele><time>2026-04-11T06:46:36.32Z</time></trkpt><trkpt lat="44.7537498" lon="7.8420947"><ele>331.4</ele><time>2026-04-11T06:46:37.319Z</time></trkpt><trkpt lat="44.7537941" lon="7.8419296"><ele>331.0</ele><time>2026-04-11T06:46:39.319Z</time></trkpt><trkpt lat="44.7538399" lon="7.8418569"><ele>330.8571428571429</ele><time>2026-04-11T06:46:40.319Z</time></trkpt><trkpt lat="44.7538931" lon="7.841778"><ele>330.7142857142857</ele><time>2026-04-11T06:46:41.319Z</time></trkpt><trkpt lat="44.7539346" lon="7.8416981"><ele>330.57142857142856</ele><time>2026-04-11T06:46:42.319Z</time></trkpt><trkpt lat="44.7539841" lon="7.8416233"><ele>330.42857142857144</ele><time>2026-04-11T06:46:43.319Z</time></trkpt><trkpt lat="44.7540463" lon="7.8415583"><ele>330.2857142857143</ele><time>2026-04-11T06:46:44.319Z</time></trkpt><trkpt lat="44.7541051" lon="7.8415002"><ele>330.14285714285717</ele><time>2026-04-11T06:46:45.319Z</time></trkpt><trkpt lat="44.7541654" lon="7.8414446"><ele>330.0</ele><time>2026-04-11T06:46:46.319Z</time></trkpt><trkpt lat="44.7542272" lon="7.8413783"><ele>330.00000000000006</ele><time>2026-04-11T06:46:47.319Z</time></trkpt><trkpt lat="44.7542809" lon="7.8412977"><ele>330.0</ele><time>2026-04-11T06:46:48.319Z</time></trkpt><trkpt lat="44.7543306" lon="7.8412226"><ele>330.0</ele><time>2026-04-11T06:46:49.319Z</time></trkpt><trkpt lat="44.7543767" lon="7.8411428"><ele>330.0</ele><time>2026-04-11T06:46:50.319Z</time></trkpt><trkpt lat="44.7544196" lon="7.84106"><ele>330.0</ele><time>2026-04-11T06:46:51.319Z</time></trkpt><trkpt lat="44.7544625" lon="7.840976"><ele>330.00000000000006</ele><time>2026-04-11T06:46:52.319Z</time></trkpt><trkpt lat="44.7545013" lon="7.8409043"><ele>330.0</ele><time>2026-04-11T06:46:53.319Z</time></trkpt><trkpt lat="44.7545337" lon="7.8408187"><ele>329.5714285714286</ele><time>2026-04-11T06:46:54.319Z</time></trkpt><trkpt lat="44.7545755" lon="7.8407461"><ele>329.14285714285717</ele><time>2026-04-11T06:46:55.319Z</time></trkpt><trkpt lat="44.7546314" lon="7.8406984"><ele>328.7142857142857</ele><time>2026-04-11T06:46:56.319Z</time></trkpt><trkpt lat="44.7546943" lon="7.8406561"><ele>328.28571428571433</ele><time>2026-04-11T06:46:57.319Z</time></trkpt><trkpt lat="44.7547471" lon="7.8405946"><ele>327.8571428571429</ele><time>2026-04-11T06:46:58.319Z</time></trkpt><trkpt lat="44.7548023" lon="7.8405357"><ele>327.42857142857144</ele><time>2026-04-11T06:46:59.319Z</time></trkpt><trkpt lat="44.7548558" lon="7.8404724"><ele>327.0</ele><time>2026-04-11T06:47:00.319Z</time></trkpt><trkpt lat="44.7549023" lon="7.8403944"><ele>327.0</ele><time>2026-04-11T06:47:01.319Z</time></trkpt><trkpt lat="44.7549359" lon="7.840311"><ele>327.0</ele><time>2026-04-11T06:47:02.319Z</time></trkpt><trkpt lat="44.7549684" lon="7.8401948"><ele>327.0</ele><time>2026-04-11T06:47:03.319Z</time></trkpt><trkpt lat="44.7549953" lon="7.8401073"><ele>327.0</ele><time>2026-04-11T06:47:04.319Z</time></trkpt><trkpt lat="44.7550204" lon="7.8400107"><ele>327.0</ele><time>2026-04-11T06:47:05.319Z</time></trkpt><trkpt lat="44.7550481" lon="7.8399133"><ele>327.0</ele><time>2026-04-11T06:47:06.319Z</time></trkpt><trkpt lat="44.7550748" lon="7.8398205"><ele>327.0</ele><time>2026-04-11T06:47:07.319Z</time></trkpt><trkpt lat="44.7551222" lon="7.8396722"><ele>327.0</ele><time>2026-04-11T06:47:09.319Z</time></trkpt><trkpt lat="44.7551557" lon="7.8394825"><ele>327.0</ele><time>2026-04-11T06:47:11.319Z</time></trkpt><trkpt lat="44.7551689" lon="7.8393678"><ele>327.0</ele><time>2026-04-11T06:47:12.319Z</time></trkpt><trkpt lat="44.7551736" lon="7.8392594"><ele>327.0</ele><time>2026-04-11T06:47:13.319Z</time></trkpt><trkpt lat="44.7551789" lon="7.8391532"><ele>327.0</ele><time>2026-04-11T06:47:14.319Z</time></trkpt><trkpt lat="44.7551732" lon="7.839006"><ele>327.20000000000005</ele><time>2026-04-11T06:47:16.319Z</time></trkpt><trkpt lat="44.7552014" lon="7.8388715"><ele>327.4</ele><time>2026-04-11T06:47:18.319Z</time></trkpt><trkpt lat="44.7552352" lon="7.8387443"><ele>327.6</ele><time>2026-04-11T06:47:20.319Z</time></trkpt><trkpt lat="44.7552977" lon="7.8385906"><ele>327.79999999999995</ele><time>2026-04-11T06:47:22.319Z</time></trkpt><trkpt lat="44.7553481" lon="7.8384968"><ele>328.0</ele><time>2026-04-11T06:47:24.319Z</time></trkpt><trkpt lat="44.7553874" lon="7.8384009"><ele>327.59999999999997</ele><time>2026-04-11T06:47:26.32Z</time></trkpt><trkpt lat="44.7554546" lon="7.8383232"><ele>327.2</ele><time>2026-04-11T06:47:28.319Z</time></trkpt><trkpt lat="44.7555539" lon="7.8382499"><ele>326.8</ele><time>2026-04-11T06:47:30.319Z</time></trkpt><trkpt lat="44.7556701" lon="7.8382005"><ele>326.4</ele><time>2026-04-11T06:47:32.319Z</time></trkpt><trkpt lat="44.7557747" lon="7.8381527"><ele>326.0</ele><time>2026-04-11T06:47:34.319Z</time></trkpt><trkpt lat="44.7558446" lon="7.8381179"><ele>326.0</ele><time>2026-04-11T06:47:35.319Z</time></trkpt><trkpt lat="44.755917" lon="7.838086"><ele>326.0</ele><time>2026-04-11T06:47:36.319Z</time></trkpt><trkpt lat="44.7560175" lon="7.8380296"><ele>326.0</ele><time>2026-04-11T06:47:38.319Z</time></trkpt><trkpt lat="44.7561172" lon="7.8380038"><ele>326.0</ele><time>2026-04-11T06:47:40.319Z</time></trkpt><trkpt lat="44.7561744" lon="7.8379634"><ele>326.0</ele><time>2026-04-11T06:47:41.319Z</time></trkpt><trkpt lat="44.7562834" lon="7.8378659"><ele>326.33333333333337</ele><time>2026-04-11T06:47:43.319Z</time></trkpt><trkpt lat="44.7563452" lon="7.8378152"><ele>326.6666666666667</ele><time>2026-04-11T06:47:44.319Z</time></trkpt><trkpt lat="44.7564015" lon="7.8377654"><ele>327.0</ele><time>2026-04-11T06:47:45.319Z</time></trkpt><trkpt lat="44.7564531" lon="7.8377018"><ele>327.3333333333333</ele><time>2026-04-11T06:47:46.319Z</time></trkpt><trkpt lat="44.7565036" lon="7.8376439"><ele>327.66666666666663</ele><time>2026-04-11T06:47:47.319Z</time></trkpt><trkpt lat="44.7565902" lon="7.8375418"><ele>328.0</ele><time>2026-04-11T06:47:49.319Z</time></trkpt><trkpt lat="44.7566728" lon="7.8374462"><ele>326.75</ele><time>2026-04-11T06:47:51.319Z</time></trkpt><trkpt lat="44.7567686" lon="7.8373566"><ele>325.5</ele><time>2026-04-11T06:47:53.319Z</time></trkpt><trkpt lat="44.7568713" lon="7.8372672"><ele>324.25</ele><time>2026-04-11T06:47:55.319Z</time></trkpt><trkpt lat="44.7569619" lon="7.8371703"><ele>323.0</ele><time>2026-04-11T06:47:57.319Z</time></trkpt><trkpt lat="44.7570624" lon="7.8371054"><ele>322.6666666666667</ele><time>2026-04-11T06:47:59.319Z</time></trkpt><trkpt lat="44.7571217" lon="7.8370707"><ele>322.33333333333337</ele><time>2026-04-11T06:48:00.319Z</time></trkpt><trkpt lat="44.757177" lon="7.8370239"><ele>322.0</ele><time>2026-04-11T06:48:01.319Z</time></trkpt><trkpt lat="44.7572308" lon="7.8369563"><ele>321.6666666666667</ele><time>2026-04-11T06:48:02.319Z</time></trkpt><trkpt lat="44.7573215" lon="7.8368788"><ele>321.3333333333333</ele><time>2026-04-11T06:48:04.319Z</time></trkpt><trkpt lat="44.7573908" lon="7.8367443"><ele>321.0</ele><time>2026-04-11T06:48:06.319Z</time></trkpt><trkpt lat="44.7574747" lon="7.8366525"><ele>321.0</ele><time>2026-04-11T06:48:08.319Z</time></trkpt><trkpt lat="44.7575334" lon="7.836619"><ele>321.0</ele><time>2026-04-11T06:48:09.319Z</time></trkpt><trkpt lat="44.7576418" lon="7.8365511"><ele>321.0</ele><time>2026-04-11T06:48:11.319Z</time></trkpt><trkpt lat="44.7577414" lon="7.8365082"><ele>321.0</ele><time>2026-04-11T06:48:13.319Z</time></trkpt><trkpt lat="44.7578407" lon="7.8364717"><ele>321.0</ele><time>2026-04-11T06:48:15.319Z</time></trkpt><trkpt lat="44.7579313" lon="7.8364476"><ele>321.0</ele><time>2026-04-11T06:48:17.319Z</time></trkpt><trkpt lat="44.7580323" lon="7.8364446"><ele>321.0</ele><time>2026-04-11T06:48:19.319Z</time></trkpt><trkpt lat="44.7581433" lon="7.8363829"><ele>321.0</ele><time>2026-04-11T06:48:21.319Z</time></trkpt><trkpt lat="44.7582038" lon="7.8363575"><ele>321.0</ele><time>2026-04-11T06:48:22.319Z</time></trkpt><trkpt lat="44.7582694" lon="7.8363212"><ele>321.0</ele><time>2026-04-11T06:48:23.319Z</time></trkpt><trkpt lat="44.7583302" lon="7.8362916"><ele>321.0</ele><time>2026-04-11T06:48:24.319Z</time></trkpt><trkpt lat="44.7584449" lon="7.8362556"><ele>321.5</ele><time>2026-04-11T06:48:26.319Z</time></trkpt><trkpt lat="44.7585592" lon="7.8362256"><ele>322.0</ele><time>2026-04-11T06:48:28.319Z</time></trkpt><trkpt lat="44.7586749" lon="7.836189"><ele>322.5</ele><time>2026-04-11T06:48:30.319Z</time></trkpt><trkpt lat="44.7587886" lon="7.8361468"><ele>323.0</ele><time>2026-04-11T06:48:32.319Z</time></trkpt><trkpt lat="44.7588996" lon="7.8361022"><ele>323.0</ele><time>2026-04-11T06:48:34.319Z</time></trkpt><trkpt lat="44.7590013" lon="7.8360583"><ele>323.0</ele><time>2026-04-11T06:48:36.319Z</time></trkpt><trkpt lat="44.7590949" lon="7.8359999"><ele>323.0</ele><time>2026-04-11T06:48:38.319Z</time></trkpt><trkpt lat="44.759173" lon="7.8359263"><ele>323.0</ele><time>2026-04-11T06:48:40.319Z</time></trkpt><trkpt lat="44.759239" lon="7.8357985"><ele>323.0</ele><time>2026-04-11T06:48:42.319Z</time></trkpt><trkpt lat="44.7593072" lon="7.8356571"><ele>322.59999999999997</ele><time>2026-04-11T06:48:44.319Z</time></trkpt><trkpt lat="44.7593723" lon="7.8355216"><ele>322.2</ele><time>2026-04-11T06:48:46.319Z</time></trkpt><trkpt lat="44.7594531" lon="7.8354051"><ele>321.8</ele><time>2026-04-11T06:48:48.319Z</time></trkpt><trkpt lat="44.7594897" lon="7.8353296"><ele>321.4</ele><time>2026-04-11T06:48:49.319Z</time></trkpt><trkpt lat="44.7595327" lon="7.8352598"><ele>321.0</ele><time>2026-04-11T06:48:50.319Z</time></trkpt><trkpt lat="44.759619" lon="7.8351345"><ele>321.0</ele><time>2026-04-11T06:48:52.319Z</time></trkpt><trkpt lat="44.7596635" lon="7.835064"><ele>321.0</ele><time>2026-04-11T06:48:53.319Z</time></trkpt><trkpt lat="44.7597567" lon="7.834951"><ele>321.0</ele><time>2026-04-11T06:48:55.319Z</time></trkpt><trkpt lat="44.7598053" lon="7.8348879"><ele>321.0</ele><time>2026-04-11T06:48:56.319Z</time></trkpt><trkpt lat="44.7598605" lon="7.834836"><ele>321.0</ele><time>2026-04-11T06:48:57.319Z</time></trkpt><trkpt lat="44.7599178" lon="7.834777"><ele>321.0</ele><time>2026-04-11T06:48:58.319Z</time></trkpt><trkpt lat="44.7599604" lon="7.834701"><ele>320.99999999999994</ele><time>2026-04-11T06:48:59.319Z</time></trkpt><trkpt lat="44.7600025" lon="7.8346336"><ele>321.0</ele><time>2026-04-11T06:49:00.319Z</time></trkpt><trkpt lat="44.7600461" lon="7.8345677"><ele>321.0</ele><time>2026-04-11T06:49:01.32Z</time></trkpt><trkpt lat="44.7600909" lon="7.8345014"><ele>321.0</ele><time>2026-04-11T06:49:02.32Z</time></trkpt><trkpt lat="44.7601396" lon="7.8344408"><ele>321.0</ele><time>2026-04-11T06:49:03.32Z</time></trkpt><trkpt lat="44.7601935" lon="7.8343799"><ele>320.99999999999994</ele><time>2026-04-11T06:49:04.32Z</time></trkpt><trkpt lat="44.7602455" lon="7.8343242"><ele>321.0</ele><time>2026-04-11T06:49:05.321Z</time></trkpt><trkpt lat="44.7602924" lon="7.8342593"><ele>320.6666666666667</ele><time>2026-04-11T06:49:06.32Z</time></trkpt><trkpt lat="44.7603319" lon="7.8341879"><ele>320.3333333333333</ele><time>2026-04-11T06:49:07.32Z</time></trkpt><trkpt lat="44.76037" lon="7.8341127"><ele>320.0</ele><time>2026-04-11T06:49:08.32Z</time></trkpt><trkpt lat="44.7604433" lon="7.8339725"><ele>319.66666666666663</ele><time>2026-04-11T06:49:10.32Z</time></trkpt><trkpt lat="44.7604846" lon="7.8339041"><ele>319.3333333333333</ele><time>2026-04-11T06:49:11.32Z</time></trkpt><trkpt lat="44.7605272" lon="7.8338385"><ele>319.0</ele><time>2026-04-11T06:49:12.32Z</time></trkpt><trkpt lat="44.7606121" lon="7.8337082"><ele>319.0</ele><time>2026-04-11T06:49:14.32Z</time></trkpt><trkpt lat="44.7606536" lon="7.8336407"><ele>319.0</ele><time>2026-04-11T06:49:15.32Z</time></trkpt><trkpt lat="44.760728" lon="7.8334975"><ele>319.0</ele><time>2026-04-11T06:49:17.32Z</time></trkpt><trkpt lat="44.7607727" lon="7.8333398"><ele>319.0</ele><time>2026-04-11T06:49:19.32Z</time></trkpt><trkpt lat="44.7608227" lon="7.8331898"><ele>319.0</ele><time>2026-04-11T06:49:21.32Z</time></trkpt><trkpt lat="44.7608636" lon="7.8331165"><ele>319.0</ele><time>2026-04-11T06:49:22.32Z</time></trkpt><trkpt lat="44.7609111" lon="7.8330568"><ele>319.0</ele><time>2026-04-11T06:49:23.32Z</time></trkpt><trkpt lat="44.761004" lon="7.8329583"><ele>319.0</ele><time>2026-04-11T06:49:25.32Z</time></trkpt><trkpt lat="44.7611015" lon="7.8328414"><ele>319.0</ele><time>2026-04-11T06:49:27.32Z</time></trkpt><trkpt lat="44.7611884" lon="7.832708"><ele>319.0</ele><time>2026-04-11T06:49:29.32Z</time></trkpt><trkpt lat="44.7612326" lon="7.8326348"><ele>319.0</ele><time>2026-04-11T06:49:30.32Z</time></trkpt><trkpt lat="44.761281" lon="7.8325634"><ele>319.0</ele><time>2026-04-11T06:49:31.321Z</time></trkpt><trkpt lat="44.7613707" lon="7.8324391"><ele>319.0</ele><time>2026-04-11T06:49:33.32Z</time></trkpt><trkpt lat="44.7614173" lon="7.8323726"><ele>319.0</ele><time>2026-04-11T06:49:34.32Z</time></trkpt><trkpt lat="44.7614643" lon="7.8323028"><ele>319.0</ele><time>2026-04-11T06:49:35.32Z</time></trkpt><trkpt lat="44.7615061" lon="7.8322311"><ele>319.0</ele><time>2026-04-11T06:49:36.32Z</time></trkpt><trkpt lat="44.7615802" lon="7.8320931"><ele>319.0</ele><time>2026-04-11T06:49:38.32Z</time></trkpt><trkpt lat="44.761618" lon="7.8320103"><ele>319.0</ele><time>2026-04-11T06:49:39.32Z</time></trkpt><trkpt lat="44.761655" lon="7.8319308"><ele>319.0</ele><time>2026-04-11T06:49:40.32Z</time></trkpt><trkpt lat="44.7616948" lon="7.8318513"><ele>319.0</ele><time>2026-04-11T06:49:41.32Z</time></trkpt><trkpt lat="44.7617301" lon="7.8317607"><ele>319.0</ele><time>2026-04-11T06:49:42.32Z</time></trkpt><trkpt lat="44.7617655" lon="7.8316705"><ele>319.0</ele><time>2026-04-11T06:49:43.32Z</time></trkpt><trkpt lat="44.7618" lon="7.8315795"><ele>319.0</ele><time>2026-04-11T06:49:44.32Z</time></trkpt><trkpt lat="44.7618374" lon="7.8314897"><ele>318.66666666666663</ele><time>2026-04-11T06:49:45.32Z</time></trkpt><trkpt lat="44.7618929" lon="7.8314148"><ele>318.3333333333333</ele><time>2026-04-11T06:49:46.32Z</time></trkpt><trkpt lat="44.7619408" lon="7.8313419"><ele>318.0</ele><time>2026-04-11T06:49:47.32Z</time></trkpt><trkpt lat="44.7619625" lon="7.83125"><ele>317.6666666666667</ele><time>2026-04-11T06:49:48.32Z</time></trkpt><trkpt lat="44.7619763" lon="7.8311411"><ele>317.33333333333337</ele><time>2026-04-11T06:49:49.32Z</time></trkpt><trkpt lat="44.7619987" lon="7.8310363"><ele>317.0</ele><time>2026-04-11T06:49:50.32Z</time></trkpt><trkpt lat="44.7620187" lon="7.8309308"><ele>317.0</ele><time>2026-04-11T06:49:51.32Z</time></trkpt><trkpt lat="44.7620411" lon="7.8308337"><ele>317.0</ele><time>2026-04-11T06:49:52.32Z</time></trkpt><trkpt lat="44.7620668" lon="7.8307409"><ele>317.0</ele><time>2026-04-11T06:49:53.32Z</time></trkpt><trkpt lat="44.7620885" lon="7.8306358"><ele>317.0</ele><time>2026-04-11T06:49:54.32Z</time></trkpt><trkpt lat="44.7621157" lon="7.8305354"><ele>317.0</ele><time>2026-04-11T06:49:55.32Z</time></trkpt><trkpt lat="44.7621459" lon="7.830437"><ele>317.0</ele><time>2026-04-11T06:49:56.32Z</time></trkpt><trkpt lat="44.7621805" lon="7.830349"><ele>317.0</ele><time>2026-04-11T06:49:57.32Z</time></trkpt><trkpt lat="44.7622112" lon="7.8302575"><ele>317.0</ele><time>2026-04-11T06:49:58.32Z</time></trkpt><trkpt lat="44.762234" lon="7.8301672"><ele>317.0</ele><time>2026-04-11T06:49:59.32Z</time></trkpt><trkpt lat="44.7622545" lon="7.8300716"><ele>317.0</ele><time>2026-04-11T06:50:00.32Z</time></trkpt><trkpt lat="44.7622603" lon="7.8299748"><ele>317.0</ele><time>2026-04-11T06:50:01.32Z</time></trkpt><trkpt lat="44.7622645" lon="7.8297875"><ele>317.0</ele><time>2026-04-11T06:50:03.32Z</time></trkpt><trkpt lat="44.7622622" lon="7.8296833"><ele>317.0</ele><time>2026-04-11T06:50:04.32Z</time></trkpt><trkpt lat="44.7622557" lon="7.8295855"><ele>316.83333333333337</ele><time>2026-04-11T06:50:05.32Z</time></trkpt><trkpt lat="44.7622437" lon="7.8294892"><ele>316.6666666666667</ele><time>2026-04-11T06:50:06.32Z</time></trkpt><trkpt lat="44.7622402" lon="7.829388"><ele>316.5</ele><time>2026-04-11T06:50:07.32Z</time></trkpt><trkpt lat="44.7622433" lon="7.8292795"><ele>316.3333333333333</ele><time>2026-04-11T06:50:08.32Z</time></trkpt><trkpt lat="44.7622238" lon="7.8291533"><ele>316.16666666666663</ele><time>2026-04-11T06:50:09.32Z</time></trkpt><trkpt lat="44.7622205" lon="7.8290302"><ele>316.0</ele><time>2026-04-11T06:50:10.32Z</time></trkpt><trkpt lat="44.7622225" lon="7.8289142"><ele>315.8333333333333</ele><time>2026-04-11T06:50:11.32Z</time></trkpt><trkpt lat="44.7622289" lon="7.828791"><ele>315.66666666666663</ele><time>2026-04-11T06:50:12.32Z</time></trkpt><trkpt lat="44.7622289" lon="7.8286687"><ele>315.5</ele><time>2026-04-11T06:50:13.32Z</time></trkpt><trkpt lat="44.7622275" lon="7.8285666"><ele>315.3333333333333</ele><time>2026-04-11T06:50:14.32Z</time></trkpt><trkpt lat="44.76223" lon="7.828457"><ele>315.1666666666667</ele><time>2026-04-11T06:50:15.32Z</time></trkpt><trkpt lat="44.7622272" lon="7.8283443"><ele>315.0</ele><time>2026-04-11T06:50:16.32Z</time></trkpt><trkpt lat="44.7622306" lon="7.8282414"><ele>315.0</ele><time>2026-04-11T06:50:17.32Z</time></trkpt><trkpt lat="44.7622478" lon="7.8281273"><ele>315.0</ele><time>2026-04-11T06:50:18.32Z</time></trkpt><trkpt lat="44.7622533" lon="7.8280191"><ele>315.0</ele><time>2026-04-11T06:50:19.32Z</time></trkpt><trkpt lat="44.762271" lon="7.8279061"><ele>315.0</ele><time>2026-04-11T06:50:20.321Z</time></trkpt><trkpt lat="44.7622974" lon="7.8277989"><ele>315.0</ele><time>2026-04-11T06:50:21.32Z</time></trkpt><trkpt lat="44.7623222" lon="7.8276946"><ele>315.0</ele><time>2026-04-11T06:50:22.32Z</time></trkpt><trkpt lat="44.762352" lon="7.8275924"><ele>314.8333333333333</ele><time>2026-04-11T06:50:23.321Z</time></trkpt><trkpt lat="44.7623766" lon="7.8274849"><ele>314.6666666666667</ele><time>2026-04-11T06:50:24.32Z</time></trkpt><trkpt lat="44.7623943" lon="7.8273698"><ele>314.5</ele><time>2026-04-11T06:50:25.32Z</time></trkpt><trkpt lat="44.7624354" lon="7.8272747"><ele>314.33333333333337</ele><time>2026-04-11T06:50:26.32Z</time></trkpt><trkpt lat="44.7624639" lon="7.8271702"><ele>314.1666666666667</ele><time>2026-04-11T06:50:27.32Z</time></trkpt><trkpt lat="44.76249" lon="7.827065"><ele>314.0</ele><time>2026-04-11T06:50:28.32Z</time></trkpt><trkpt lat="44.7625091" lon="7.8269628"><ele>314.0</ele><time>2026-04-11T06:50:29.32Z</time></trkpt><trkpt lat="44.7625208" lon="7.8268426"><ele>314.0</ele><time>2026-04-11T06:50:30.32Z</time></trkpt><trkpt lat="44.7625296" lon="7.8267296"><ele>314.0</ele><time>2026-04-11T06:50:31.32Z</time></trkpt><trkpt lat="44.7625309" lon="7.8266227"><ele>314.0</ele><time>2026-04-11T06:50:32.321Z</time></trkpt><trkpt lat="44.762535" lon="7.8265104"><ele>314.0</ele><time>2026-04-11T06:50:33.32Z</time></trkpt><trkpt lat="44.7625446" lon="7.8263949"><ele>314.0</ele><time>2026-04-11T06:50:34.32Z</time></trkpt><trkpt lat="44.7625574" lon="7.8262822"><ele>314.1666666666667</ele><time>2026-04-11T06:50:35.32Z</time></trkpt><trkpt lat="44.7625776" lon="7.8261819"><ele>314.33333333333337</ele><time>2026-04-11T06:50:36.32Z</time></trkpt><trkpt lat="44.7625938" lon="7.8260649"><ele>314.5</ele><time>2026-04-11T06:50:37.32Z</time></trkpt><trkpt lat="44.7626149" lon="7.8259576"><ele>314.6666666666667</ele><time>2026-04-11T06:50:38.32Z</time></trkpt><trkpt lat="44.7626281" lon="7.825849"><ele>314.8333333333333</ele><time>2026-04-11T06:50:39.32Z</time></trkpt><trkpt lat="44.7626242" lon="7.8257501"><ele>315.0</ele><time>2026-04-11T06:50:40.32Z</time></trkpt><trkpt lat="44.7626017" lon="7.8256517"><ele>315.14285714285717</ele><time>2026-04-11T06:50:41.32Z</time></trkpt><trkpt lat="44.7625893" lon="7.8255448"><ele>315.2857142857143</ele><time>2026-04-11T06:50:42.321Z</time></trkpt><trkpt lat="44.7625531" lon="7.8254438"><ele>315.42857142857144</ele><time>2026-04-11T06:50:43.32Z</time></trkpt><trkpt lat="44.7625049" lon="7.8253496"><ele>315.57142857142856</ele><time>2026-04-11T06:50:44.32Z</time></trkpt><trkpt lat="44.7624696" lon="7.8252663"><ele>315.7142857142857</ele><time>2026-04-11T06:50:45.32Z</time></trkpt><trkpt lat="44.7624362" lon="7.8251793"><ele>315.8571428571429</ele><time>2026-04-11T06:50:46.32Z</time></trkpt><trkpt lat="44.7624272" lon="7.8250823"><ele>316.0</ele><time>2026-04-11T06:50:47.32Z</time></trkpt><trkpt lat="44.7624348" lon="7.8249677"><ele>315.66666666666663</ele><time>2026-04-11T06:50:48.32Z</time></trkpt><trkpt lat="44.7624631" lon="7.8248559"><ele>315.3333333333333</ele><time>2026-04-11T06:50:49.32Z</time></trkpt><trkpt lat="44.7624746" lon="7.8247439"><ele>315.0</ele><time>2026-04-11T06:50:50.32Z</time></trkpt><trkpt lat="44.7624816" lon="7.8246498"><ele>314.6666666666667</ele><time>2026-04-11T06:50:51.32Z</time></trkpt><trkpt lat="44.7624985" lon="7.8245603"><ele>314.33333333333337</ele><time>2026-04-11T06:50:52.32Z</time></trkpt><trkpt lat="44.7624761" lon="7.824397"><ele>314.0</ele><time>2026-04-11T06:50:54.327Z</time></trkpt><trkpt lat="44.7624698" lon="7.8242512"><ele>314.0</ele><time>2026-04-11T06:50:56.327Z</time></trkpt><trkpt lat="44.7625935" lon="7.824"><ele>314.0</ele><time>2026-04-11T06:51:04.327Z</time></trkpt><trkpt lat="44.7626195" lon="7.8239123"><ele>314.0</ele><time>2026-04-11T06:51:05.327Z</time></trkpt><trkpt lat="44.7626519" lon="7.8237576"><ele>314.0</ele><time>2026-04-11T06:51:07.327Z</time></trkpt><trkpt lat="44.7626474" lon="7.8236134"><ele>314.0</ele><time>2026-04-11T06:51:09.327Z</time></trkpt><trkpt lat="44.7626515" lon="7.8235094"><ele>314.0</ele><time>2026-04-11T06:51:11.327Z</time></trkpt><trkpt lat="44.7626283" lon="7.8234126"><ele>314.0</ele><time>2026-04-11T06:51:14.327Z</time></trkpt><trkpt lat="44.7626401" lon="7.8233014"><ele>314.0</ele><time>2026-04-11T06:51:16.327Z</time></trkpt><trkpt lat="44.7626366" lon="7.8231747"><ele>314.0</ele><time>2026-04-11T06:51:18.327Z</time></trkpt><trkpt lat="44.7626356" lon="7.8230503"><ele>314.0</ele><time>2026-04-11T06:51:20.327Z</time></trkpt><trkpt lat="44.762661" lon="7.8229227"><ele>313.83333333333337</ele><time>2026-04-11T06:51:22.327Z</time></trkpt><trkpt lat="44.762694" lon="7.8227989"><ele>313.6666666666667</ele><time>2026-04-11T06:51:24.327Z</time></trkpt><trkpt lat="44.7626914" lon="7.8226747"><ele>313.5</ele><time>2026-04-11T06:51:26.327Z</time></trkpt><trkpt lat="44.7627097" lon="7.8225582"><ele>313.3333333333333</ele><time>2026-04-11T06:51:28.327Z</time></trkpt><trkpt lat="44.7626759" lon="7.822413"><ele>313.16666666666663</ele><time>2026-04-11T06:51:30.327Z</time></trkpt><trkpt lat="44.7626703" lon="7.8223228"><ele>313.0</ele><time>2026-04-11T06:51:32.327Z</time></trkpt><trkpt lat="44.7626602" lon="7.8222253"><ele>312.66666666666663</ele><time>2026-04-11T06:51:35.327Z</time></trkpt><trkpt lat="44.762657" lon="7.8221331"><ele>312.3333333333333</ele><time>2026-04-11T06:51:37.327Z</time></trkpt><trkpt lat="44.7626658" lon="7.822031"><ele>312.0</ele><time>2026-04-11T06:51:39.327Z</time></trkpt><trkpt lat="44.7626735" lon="7.8219062"><ele>311.6666666666667</ele><time>2026-04-11T06:51:41.327Z</time></trkpt><trkpt lat="44.7626704" lon="7.8217799"><ele>311.33333333333337</ele><time>2026-04-11T06:51:43.327Z</time></trkpt><trkpt lat="44.7626731" lon="7.8216424"><ele>311.0</ele><time>2026-04-11T06:51:45.327Z</time></trkpt><trkpt lat="44.7626651" lon="7.8214968"><ele>310.5</ele><time>2026-04-11T06:51:47.327Z</time></trkpt><trkpt lat="44.7626336" lon="7.821405"><ele>310.0</ele><time>2026-04-11T06:51:49.327Z</time></trkpt><trkpt lat="44.7625489" lon="7.8213758"><ele>309.5</ele><time>2026-04-11T06:51:53.327Z</time></trkpt><trkpt lat="44.7624763" lon="7.8213712"><ele>309.0</ele><time>2026-04-11T06:51:55.328Z</time></trkpt><trkpt lat="44.7624435" lon="7.8212898"><ele>308.5</ele><time>2026-04-11T06:51:59.327Z</time></trkpt><trkpt lat="44.7624185" lon="7.8211828"><ele>308.0</ele><time>2026-04-11T06:52:02.327Z</time></trkpt><trkpt lat="44.7623526" lon="7.8210862"><ele>308.0</ele><time>2026-04-11T06:52:05.327Z</time></trkpt><trkpt lat="44.7623019" lon="7.820999"><ele>308.0</ele><time>2026-04-11T06:52:07.327Z</time></trkpt><trkpt lat="44.7622909" lon="7.8209052"><ele>308.0</ele><time>2026-04-11T06:52:09.327Z</time></trkpt><trkpt lat="44.7622892" lon="7.8207718"><ele>308.0</ele><time>2026-04-11T06:52:12.327Z</time></trkpt><trkpt lat="44.7622502" lon="7.8206567"><ele>308.0</ele><time>2026-04-11T06:52:15.327Z</time></trkpt><trkpt lat="44.762201" lon="7.8205504"><ele>308.0</ele><time>2026-04-11T06:52:18.327Z</time></trkpt><trkpt lat="44.7621641" lon="7.8204585"><ele>307.33333333333337</ele><time>2026-04-11T06:52:20.327Z</time></trkpt><trkpt lat="44.7621401" lon="7.8203652"><ele>306.6666666666667</ele><time>2026-04-11T06:52:22.327Z</time></trkpt><trkpt lat="44.7621426" lon="7.8202312"><ele>306.0</ele><time>2026-04-11T06:52:25.327Z</time></trkpt><trkpt lat="44.7621539" lon="7.8201416"><ele>305.3333333333333</ele><time>2026-04-11T06:52:27.327Z</time></trkpt><trkpt lat="44.762181" lon="7.8200608"><ele>304.66666666666663</ele><time>2026-04-11T06:52:31.327Z</time></trkpt><trkpt lat="44.7622123" lon="7.8199743"><ele>304.0</ele><time>2026-04-11T06:52:33.327Z</time></trkpt><trkpt lat="44.7622387" lon="7.8198396"><ele>304.0</ele><time>2026-04-11T06:52:35.328Z</time></trkpt><trkpt lat="44.7622781" lon="7.8196998"><ele>304.0</ele><time>2026-04-11T06:52:37.327Z</time></trkpt><trkpt lat="44.7623153" lon="7.8195488"><ele>304.0</ele><time>2026-04-11T06:52:39.327Z</time></trkpt><trkpt lat="44.7623692" lon="7.8193986"><ele>304.0</ele><time>2026-04-11T06:52:41.327Z</time></trkpt><trkpt lat="44.7623992" lon="7.8192263"><ele>304.5</ele><time>2026-04-11T06:52:43.327Z</time></trkpt><trkpt lat="44.7624036" lon="7.8191209"><ele>305.0</ele><time>2026-04-11T06:52:44.327Z</time></trkpt><trkpt lat="44.762419" lon="7.819025"><ele>305.5</ele><time>2026-04-11T06:52:45.327Z</time></trkpt><trkpt lat="44.7624388" lon="7.8189143"><ele>306.0</ele><time>2026-04-11T06:52:46.327Z</time></trkpt><trkpt lat="44.7624571" lon="7.818798"><ele>306.5</ele><time>2026-04-11T06:52:47.327Z</time></trkpt><trkpt lat="44.7624828" lon="7.8186922"><ele>307.0</ele><time>2026-04-11T06:52:48.327Z</time></trkpt><trkpt lat="44.7625034" lon="7.8185795"><ele>307.0</ele><time>2026-04-11T06:52:49.327Z</time></trkpt><trkpt lat="44.7625318" lon="7.8184674"><ele>307.0</ele><time>2026-04-11T06:52:50.327Z</time></trkpt><trkpt lat="44.7625538" lon="7.8183572"><ele>307.0</ele><time>2026-04-11T06:52:51.327Z</time></trkpt><trkpt lat="44.7625792" lon="7.8182478"><ele>307.0</ele><time>2026-04-11T06:52:52.327Z</time></trkpt><trkpt lat="44.7626047" lon="7.8181369"><ele>307.0</ele><time>2026-04-11T06:52:53.327Z</time></trkpt><trkpt lat="44.7626301" lon="7.8180252"><ele>307.0</ele><time>2026-04-11T06:52:54.327Z</time></trkpt><trkpt lat="44.7626433" lon="7.8179189"><ele>307.0</ele><time>2026-04-11T06:52:55.327Z</time></trkpt><trkpt lat="44.7626615" lon="7.8178064"><ele>307.0</ele><time>2026-04-11T06:52:56.327Z</time></trkpt><trkpt lat="44.7626797" lon="7.8177034"><ele>307.0</ele><time>2026-04-11T06:52:57.327Z</time></trkpt><trkpt lat="44.7626906" lon="7.8176011"><ele>307.0</ele><time>2026-04-11T06:52:58.327Z</time></trkpt><trkpt lat="44.7626961" lon="7.8175011"><ele>307.0</ele><time>2026-04-11T06:52:59.327Z</time></trkpt><trkpt lat="44.7626749" lon="7.8174025"><ele>307.0</ele><time>2026-04-11T06:53:00.327Z</time></trkpt><trkpt lat="44.7626224" lon="7.8173224"><ele>307.2</ele><time>2026-04-11T06:53:01.327Z</time></trkpt><trkpt lat="44.76259" lon="7.8172247"><ele>307.4</ele><time>2026-04-11T06:53:02.327Z</time></trkpt><trkpt lat="44.7625526" lon="7.8171292"><ele>307.6</ele><time>2026-04-11T06:53:03.327Z</time></trkpt><trkpt lat="44.7625267" lon="7.8169579"><ele>307.8</ele><time>2026-04-11T06:53:05.327Z</time></trkpt><trkpt lat="44.7625182" lon="7.8167912"><ele>308.0</ele><time>2026-04-11T06:53:07.327Z</time></trkpt><trkpt lat="44.7625247" lon="7.8166431"><ele>308.1666666666667</ele><time>2026-04-11T06:53:09.327Z</time></trkpt><trkpt lat="44.7625333" lon="7.816498"><ele>308.33333333333337</ele><time>2026-04-11T06:53:11.327Z</time></trkpt><trkpt lat="44.7625241" lon="7.8163446"><ele>308.5</ele><time>2026-04-11T06:53:13.327Z</time></trkpt><trkpt lat="44.7625028" lon="7.8162316"><ele>308.6666666666667</ele><time>2026-04-11T06:53:14.327Z</time></trkpt><trkpt lat="44.762486" lon="7.8161404"><ele>308.8333333333333</ele><time>2026-04-11T06:53:15.327Z</time></trkpt><trkpt lat="44.7624839" lon="7.8160437"><ele>309.0</ele><time>2026-04-11T06:53:16.327Z</time></trkpt><trkpt lat="44.7624854" lon="7.8159487"><ele>309.0</ele><time>2026-04-11T06:53:17.327Z</time></trkpt><trkpt lat="44.7624942" lon="7.8158581"><ele>309.0</ele><time>2026-04-11T06:53:18.327Z</time></trkpt><trkpt lat="44.7624887" lon="7.8157621"><ele>309.0</ele><time>2026-04-11T06:53:19.327Z</time></trkpt><trkpt lat="44.7624831" lon="7.8156677"><ele>309.0</ele><time>2026-04-11T06:53:20.327Z</time></trkpt><trkpt lat="44.7624681" lon="7.8155768"><ele>309.0</ele><time>2026-04-11T06:53:21.327Z</time></trkpt><trkpt lat="44.7624049" lon="7.81545"><ele>309.0</ele><time>2026-04-11T06:53:23.327Z</time></trkpt><trkpt lat="44.7623131" lon="7.8154025"><ele>309.0</ele><time>2026-04-11T06:53:25.327Z</time></trkpt><trkpt lat="44.7622173" lon="7.8153459"><ele>309.0</ele><time>2026-04-11T06:53:27.328Z</time></trkpt><trkpt lat="44.7621396" lon="7.81526"><ele>309.0</ele><time>2026-04-11T06:53:29.327Z</time></trkpt><trkpt lat="44.7620644" lon="7.8151974"><ele>309.0</ele><time>2026-04-11T06:53:31.327Z</time></trkpt><trkpt lat="44.7619958" lon="7.8151432"><ele>309.0</ele><time>2026-04-11T06:53:32.327Z</time></trkpt><trkpt lat="44.7618965" lon="7.8150729"><ele>309.8</ele><time>2026-04-11T06:53:34.327Z</time></trkpt><trkpt lat="44.7618077" lon="7.8149895"><ele>310.59999999999997</ele><time>2026-04-11T06:53:36.328Z</time></trkpt><trkpt lat="44.7617417" lon="7.8149134"><ele>311.4</ele><time>2026-04-11T06:53:38.327Z</time></trkpt><trkpt lat="44.7616776" lon="7.8148315"><ele>312.2</ele><time>2026-04-11T06:53:40.327Z</time></trkpt><trkpt lat="44.7616509" lon="7.8147126"><ele>313.0</ele><time>2026-04-11T06:53:42.327Z</time></trkpt><trkpt lat="44.761642" lon="7.814596"><ele>313.0</ele><time>2026-04-11T06:53:44.327Z</time></trkpt><trkpt lat="44.7616774" lon="7.8144876"><ele>313.0</ele><time>2026-04-11T06:53:46.327Z</time></trkpt><trkpt lat="44.7617278" lon="7.814414"><ele>313.0</ele><time>2026-04-11T06:53:48.327Z</time></trkpt><trkpt lat="44.7617892" lon="7.8143819"><ele>313.0</ele><time>2026-04-11T06:53:51.327Z</time></trkpt><trkpt lat="44.7618758" lon="7.8143456"><ele>313.0</ele><time>2026-04-11T06:53:54.327Z</time></trkpt><trkpt lat="44.7619108" lon="7.8142429"><ele>313.0</ele><time>2026-04-11T06:53:56.327Z</time></trkpt><trkpt lat="44.7619675" lon="7.8141263"><ele>312.2</ele><time>2026-04-11T06:53:58.327Z</time></trkpt><trkpt lat="44.7620205" lon="7.8140224"><ele>311.4</ele><time>2026-04-11T06:54:00.327Z</time></trkpt><trkpt lat="44.7620715" lon="7.8139061"><ele>310.59999999999997</ele><time>2026-04-11T06:54:02.327Z</time></trkpt><trkpt lat="44.762129" lon="7.813805"><ele>309.8</ele><time>2026-04-11T06:54:04.327Z</time></trkpt><trkpt lat="44.7621998" lon="7.8137204"><ele>309.0</ele><time>2026-04-11T06:54:06.327Z</time></trkpt><trkpt lat="44.7622659" lon="7.8136134"><ele>309.0</ele><time>2026-04-11T06:54:08.327Z</time></trkpt><trkpt lat="44.7623176" lon="7.8135166"><ele>309.0</ele><time>2026-04-11T06:54:10.327Z</time></trkpt><trkpt lat="44.7623814" lon="7.8134021"><ele>309.0</ele><time>2026-04-11T06:54:12.327Z</time></trkpt><trkpt lat="44.7624499" lon="7.8133056"><ele>309.0</ele><time>2026-04-11T06:54:14.327Z</time></trkpt><trkpt lat="44.7625064" lon="7.8131882"><ele>309.0</ele><time>2026-04-11T06:54:16.327Z</time></trkpt><trkpt lat="44.7625556" lon="7.8130599"><ele>310.75</ele><time>2026-04-11T06:54:18.327Z</time></trkpt><trkpt lat="44.7625977" lon="7.8129103"><ele>312.5</ele><time>2026-04-11T06:54:20.327Z</time></trkpt><trkpt lat="44.762621" lon="7.8127494"><ele>314.25</ele><time>2026-04-11T06:54:22.327Z</time></trkpt><trkpt lat="44.7626424" lon="7.8125806"><ele>316.0</ele><time>2026-04-11T06:54:24.327Z</time></trkpt><trkpt lat="44.7626652" lon="7.8124249"><ele>316.2</ele><time>2026-04-11T06:54:26.327Z</time></trkpt><trkpt lat="44.7626936" lon="7.8122778"><ele>316.40000000000003</ele><time>2026-04-11T06:54:28.327Z</time></trkpt><trkpt lat="44.7627653" lon="7.8121894"><ele>316.6</ele><time>2026-04-11T06:54:30.327Z</time></trkpt><trkpt lat="44.7628814" lon="7.8121414"><ele>316.8</ele><time>2026-04-11T06:54:32.327Z</time></trkpt><trkpt lat="44.7629859" lon="7.8121094"><ele>317.0</ele><time>2026-04-11T06:54:34.327Z</time></trkpt><trkpt lat="44.7630875" lon="7.8120296"><ele>315.8571428571429</ele><time>2026-04-11T06:54:36.327Z</time></trkpt><trkpt lat="44.7631395" lon="7.8119775"><ele>314.7142857142857</ele><time>2026-04-11T06:54:37.328Z</time></trkpt><trkpt lat="44.7631852" lon="7.8119074"><ele>313.57142857142856</ele><time>2026-04-11T06:54:38.328Z</time></trkpt><trkpt lat="44.7632295" lon="7.8118235"><ele>312.42857142857144</ele><time>2026-04-11T06:54:39.328Z</time></trkpt><trkpt lat="44.7632651" lon="7.8117356"><ele>311.2857142857143</ele><time>2026-04-11T06:54:40.329Z</time></trkpt><trkpt lat="44.7632965" lon="7.8116422"><ele>310.14285714285717</ele><time>2026-04-11T06:54:41.328Z</time></trkpt><trkpt lat="44.7633323" lon="7.811562"><ele>309.0</ele><time>2026-04-11T06:54:42.328Z</time></trkpt><trkpt lat="44.7633735" lon="7.8114734"><ele>308.8333333333333</ele><time>2026-04-11T06:54:43.328Z</time></trkpt><trkpt lat="44.7634145" lon="7.8113906"><ele>308.6666666666667</ele><time>2026-04-11T06:54:44.328Z</time></trkpt><trkpt lat="44.763455" lon="7.8113051"><ele>308.5</ele><time>2026-04-11T06:54:45.328Z</time></trkpt><trkpt lat="44.7634963" lon="7.8112184"><ele>308.33333333333337</ele><time>2026-04-11T06:54:46.328Z</time></trkpt><trkpt lat="44.7635341" lon="7.8111233"><ele>308.1666666666667</ele><time>2026-04-11T06:54:47.328Z</time></trkpt><trkpt lat="44.7635743" lon="7.8110261"><ele>308.0</ele><time>2026-04-11T06:54:48.328Z</time></trkpt><trkpt lat="44.7636148" lon="7.8109351"><ele>307.7142857142857</ele><time>2026-04-11T06:54:49.328Z</time></trkpt><trkpt lat="44.7636543" lon="7.8108486"><ele>307.42857142857144</ele><time>2026-04-11T06:54:50.328Z</time></trkpt><trkpt lat="44.763699" lon="7.8107636"><ele>307.1428571428571</ele><time>2026-04-11T06:54:51.328Z</time></trkpt><trkpt lat="44.7637466" lon="7.8106818"><ele>306.8571428571429</ele><time>2026-04-11T06:54:52.328Z</time></trkpt><trkpt lat="44.7637963" lon="7.810603"><ele>306.57142857142856</ele><time>2026-04-11T06:54:53.328Z</time></trkpt><trkpt lat="44.7638481" lon="7.8105231"><ele>306.2857142857143</ele><time>2026-04-11T06:54:54.328Z</time></trkpt><trkpt lat="44.7638927" lon="7.8104404"><ele>306.0</ele><time>2026-04-11T06:54:55.328Z</time></trkpt><trkpt lat="44.7639322" lon="7.810359"><ele>306.0</ele><time>2026-04-11T06:54:56.328Z</time></trkpt><trkpt lat="44.764003" lon="7.8102285"><ele>306.0</ele><time>2026-04-11T06:54:58.328Z</time></trkpt><trkpt lat="44.7640355" lon="7.8101512"><ele>306.0</ele><time>2026-04-11T06:54:59.328Z</time></trkpt><trkpt lat="44.7641174" lon="7.8100371"><ele>306.0</ele><time>2026-04-11T06:55:01.328Z</time></trkpt><trkpt lat="44.7642027" lon="7.8099018"><ele>306.0</ele><time>2026-04-11T06:55:03.328Z</time></trkpt><trkpt lat="44.7642399" lon="7.8098239"><ele>305.85714285714283</ele><time>2026-04-11T06:55:04.328Z</time></trkpt><trkpt lat="44.7642832" lon="7.8097541"><ele>305.7142857142857</ele><time>2026-04-11T06:55:05.328Z</time></trkpt><trkpt lat="44.7643258" lon="7.8096836"><ele>305.57142857142856</ele><time>2026-04-11T06:55:06.328Z</time></trkpt><trkpt lat="44.764363" lon="7.8096081"><ele>305.42857142857144</ele><time>2026-04-11T06:55:07.329Z</time></trkpt><trkpt lat="44.7644057" lon="7.8095305"><ele>305.2857142857143</ele><time>2026-04-11T06:55:08.328Z</time></trkpt><trkpt lat="44.7644488" lon="7.809453"><ele>305.14285714285717</ele><time>2026-04-11T06:55:09.328Z</time></trkpt><trkpt lat="44.7644929" lon="7.8093732"><ele>305.0</ele><time>2026-04-11T06:55:10.328Z</time></trkpt><trkpt lat="44.7645375" lon="7.809292"><ele>305.0</ele><time>2026-04-11T06:55:11.328Z</time></trkpt><trkpt lat="44.7645854" lon="7.809218"><ele>305.0</ele><time>2026-04-11T06:55:12.328Z</time></trkpt><trkpt lat="44.7646309" lon="7.8091381"><ele>305.0</ele><time>2026-04-11T06:55:13.328Z</time></trkpt><trkpt lat="44.7646771" lon="7.8090588"><ele>305.0</ele><time>2026-04-11T06:55:14.328Z</time></trkpt><trkpt lat="44.7647225" lon="7.808984"><ele>305.0</ele><time>2026-04-11T06:55:15.328Z</time></trkpt><trkpt lat="44.7647693" lon="7.8089081"><ele>305.0</ele><time>2026-04-11T06:55:16.328Z</time></trkpt><trkpt lat="44.7648175" lon="7.8088303"><ele>305.0</ele><time>2026-04-11T06:55:17.328Z</time></trkpt><trkpt lat="44.7648645" lon="7.8087554"><ele>305.0</ele><time>2026-04-11T06:55:18.328Z</time></trkpt><trkpt lat="44.7649128" lon="7.8086785"><ele>305.0</ele><time>2026-04-11T06:55:19.328Z</time></trkpt><trkpt lat="44.7649607" lon="7.8085983"><ele>305.0</ele><time>2026-04-11T06:55:20.328Z</time></trkpt><trkpt lat="44.765009" lon="7.8085165"><ele>305.0</ele><time>2026-04-11T06:55:21.328Z</time></trkpt><trkpt lat="44.7650611" lon="7.8084392"><ele>305.0</ele><time>2026-04-11T06:55:22.328Z</time></trkpt><trkpt lat="44.7651101" lon="7.8083607"><ele>305.0</ele><time>2026-04-11T06:55:23.328Z</time></trkpt><trkpt lat="44.7651613" lon="7.8082844"><ele>305.0</ele><time>2026-04-11T06:55:24.328Z</time></trkpt><trkpt lat="44.7652102" lon="7.8082106"><ele>304.7142857142857</ele><time>2026-04-11T06:55:25.328Z</time></trkpt><trkpt lat="44.7652551" lon="7.8081385"><ele>304.4285714285714</ele><time>2026-04-11T06:55:26.328Z</time></trkpt><trkpt lat="44.7653011" lon="7.8080659"><ele>304.1428571428571</ele><time>2026-04-11T06:55:27.328Z</time></trkpt><trkpt lat="44.7653365" lon="7.8079848"><ele>303.8571428571429</ele><time>2026-04-11T06:55:28.328Z</time></trkpt><trkpt lat="44.7653678" lon="7.8078959"><ele>303.57142857142856</ele><time>2026-04-11T06:55:29.328Z</time></trkpt><trkpt lat="44.7654049" lon="7.8078117"><ele>303.2857142857143</ele><time>2026-04-11T06:55:30.328Z</time></trkpt><trkpt lat="44.7654437" lon="7.8077322"><ele>303.0</ele><time>2026-04-11T06:55:31.329Z</time></trkpt><trkpt lat="44.765478" lon="7.8076531"><ele>303.0</ele><time>2026-04-11T06:55:32.328Z</time></trkpt><trkpt lat="44.7655136" lon="7.8075676"><ele>303.0</ele><time>2026-04-11T06:55:33.328Z</time></trkpt><trkpt lat="44.7655475" lon="7.8074821"><ele>303.0</ele><time>2026-04-11T06:55:34.328Z</time></trkpt><trkpt lat="44.7655915" lon="7.8074053"><ele>303.0</ele><time>2026-04-11T06:55:35.328Z</time></trkpt><trkpt lat="44.7656365" lon="7.807337"><ele>303.0</ele><time>2026-04-11T06:55:36.328Z</time></trkpt><trkpt lat="44.7656807" lon="7.8072715"><ele>303.0</ele><time>2026-04-11T06:55:37.328Z</time></trkpt><trkpt lat="44.7657242" lon="7.8072007"><ele>303.0</ele><time>2026-04-11T06:55:38.328Z</time></trkpt><trkpt lat="44.7657671" lon="7.8071326"><ele>303.0</ele><time>2026-04-11T06:55:39.328Z</time></trkpt><trkpt lat="44.7658092" lon="7.8070598"><ele>303.0</ele><time>2026-04-11T06:55:40.328Z</time></trkpt><trkpt lat="44.7658497" lon="7.8069801"><ele>303.0</ele><time>2026-04-11T06:55:41.328Z</time></trkpt><trkpt lat="44.7658857" lon="7.8069007"><ele>303.0</ele><time>2026-04-11T06:55:42.328Z</time></trkpt><trkpt lat="44.7659181" lon="7.8068191"><ele>303.0</ele><time>2026-04-11T06:55:43.328Z</time></trkpt><trkpt lat="44.7659165" lon="7.8066441"><ele>303.0</ele><time>2026-04-11T06:55:45.328Z</time></trkpt><trkpt lat="44.7659058" lon="7.8065549"><ele>303.2</ele><time>2026-04-11T06:55:46.328Z</time></trkpt><trkpt lat="44.7659003" lon="7.8064616"><ele>303.4</ele><time>2026-04-11T06:55:47.328Z</time></trkpt><trkpt lat="44.7659495" lon="7.8063046"><ele>303.59999999999997</ele><time>2026-04-11T06:55:49.328Z</time></trkpt><trkpt lat="44.7660372" lon="7.8061823"><ele>303.8</ele><time>2026-04-11T06:55:51.328Z</time></trkpt><trkpt lat="44.7661227" lon="7.8060566"><ele>304.0</ele><time>2026-04-11T06:55:53.328Z</time></trkpt><trkpt lat="44.7662061" lon="7.8059124"><ele>303.7142857142857</ele><time>2026-04-11T06:55:55.328Z</time></trkpt><trkpt lat="44.7662593" lon="7.8058409"><ele>303.42857142857144</ele><time>2026-04-11T06:55:56.328Z</time></trkpt><trkpt lat="44.7663069" lon="7.8057752"><ele>303.14285714285717</ele><time>2026-04-11T06:55:57.328Z</time></trkpt><trkpt lat="44.7663534" lon="7.8057087"><ele>302.8571428571429</ele><time>2026-04-11T06:55:58.328Z</time></trkpt><trkpt lat="44.7663997" lon="7.8056483"><ele>302.57142857142856</ele><time>2026-04-11T06:55:59.328Z</time></trkpt><trkpt lat="44.7664477" lon="7.8055878"><ele>302.28571428571433</ele><time>2026-04-11T06:56:00.328Z</time></trkpt><trkpt lat="44.7664928" lon="7.8055208"><ele>302.0</ele><time>2026-04-11T06:56:01.328Z</time></trkpt><trkpt lat="44.7665381" lon="7.8054543"><ele>302.0</ele><time>2026-04-11T06:56:02.328Z</time></trkpt><trkpt lat="44.7666472" lon="7.8054259"><ele>302.0</ele><time>2026-04-11T06:56:04.328Z</time></trkpt><trkpt lat="44.7667575" lon="7.8055112"><ele>302.0</ele><time>2026-04-11T06:56:06.328Z</time></trkpt><trkpt lat="44.7668531" lon="7.805597"><ele>302.0</ele><time>2026-04-11T06:56:08.328Z</time></trkpt><trkpt lat="44.7669701" lon="7.8055941"><ele>301.4</ele><time>2026-04-11T06:56:10.328Z</time></trkpt><trkpt lat="44.7670228" lon="7.8055301"><ele>300.79999999999995</ele><time>2026-04-11T06:56:11.328Z</time></trkpt><trkpt lat="44.767075" lon="7.8054746"><ele>300.2</ele><time>2026-04-11T06:56:12.328Z</time></trkpt><trkpt lat="44.7671673" lon="7.8053697"><ele>299.59999999999997</ele><time>2026-04-11T06:56:14.328Z</time></trkpt><trkpt lat="44.7672672" lon="7.8052692"><ele>299.0</ele><time>2026-04-11T06:56:16.329Z</time></trkpt><trkpt lat="44.7673737" lon="7.8051648"><ele>299.0</ele><time>2026-04-11T06:56:18.328Z</time></trkpt><trkpt lat="44.7674238" lon="7.8051039"><ele>299.0</ele><time>2026-04-11T06:56:19.328Z</time></trkpt><trkpt lat="44.7674784" lon="7.8050525"><ele>299.0</ele><time>2026-04-11T06:56:20.328Z</time></trkpt><trkpt lat="44.7675332" lon="7.8049976"><ele>299.0</ele><time>2026-04-11T06:56:21.328Z</time></trkpt><trkpt lat="44.7675847" lon="7.8049432"><ele>299.0</ele><time>2026-04-11T06:56:22.328Z</time></trkpt><trkpt lat="44.767686" lon="7.8048403"><ele>299.0</ele><time>2026-04-11T06:56:24.328Z</time></trkpt><trkpt lat="44.7677807" lon="7.8047392"><ele>299.0</ele><time>2026-04-11T06:56:26.328Z</time></trkpt><trkpt lat="44.7678636" lon="7.8046073"><ele>299.0</ele><time>2026-04-11T06:56:28.328Z</time></trkpt><trkpt lat="44.7679049" lon="7.8045365"><ele>299.0</ele><time>2026-04-11T06:56:29.328Z</time></trkpt><trkpt lat="44.7679539" lon="7.8043992"><ele>299.0</ele><time>2026-04-11T06:56:31.328Z</time></trkpt><trkpt lat="44.7679781" lon="7.8043151"><ele>299.0</ele><time>2026-04-11T06:56:32.328Z</time></trkpt><trkpt lat="44.7680009" lon="7.8042171"><ele>299.0</ele><time>2026-04-11T06:56:33.328Z</time></trkpt><trkpt lat="44.7680302" lon="7.8041228"><ele>299.0</ele><time>2026-04-11T06:56:34.328Z</time></trkpt><trkpt lat="44.7680579" lon="7.8040324"><ele>299.0</ele><time>2026-04-11T06:56:35.328Z</time></trkpt><trkpt lat="44.7680841" lon="7.8039336"><ele>299.0</ele><time>2026-04-11T06:56:36.328Z</time></trkpt><trkpt lat="44.7680999" lon="7.803837"><ele>299.0</ele><time>2026-04-11T06:56:37.329Z</time></trkpt><trkpt lat="44.7681222" lon="7.8037535"><ele>299.0</ele><time>2026-04-11T06:56:38.328Z</time></trkpt><trkpt lat="44.7681384" lon="7.803656"><ele>299.0</ele><time>2026-04-11T06:56:39.328Z</time></trkpt><trkpt lat="44.7681495" lon="7.8035603"><ele>299.0</ele><time>2026-04-11T06:56:40.328Z</time></trkpt><trkpt lat="44.7681606" lon="7.8034678"><ele>298.83333333333337</ele><time>2026-04-11T06:56:41.328Z</time></trkpt><trkpt lat="44.7681711" lon="7.8033731"><ele>298.6666666666667</ele><time>2026-04-11T06:56:42.328Z</time></trkpt><trkpt lat="44.7681757" lon="7.8032722"><ele>298.5</ele><time>2026-04-11T06:56:43.328Z</time></trkpt><trkpt lat="44.768187" lon="7.8031742"><ele>298.3333333333333</ele><time>2026-04-11T06:56:44.328Z</time></trkpt><trkpt lat="44.7682194" lon="7.8030023"><ele>298.16666666666663</ele><time>2026-04-11T06:56:46.328Z</time></trkpt><trkpt lat="44.7682488" lon="7.8029224"><ele>298.0</ele><time>2026-04-11T06:56:47.328Z</time></trkpt><trkpt lat="44.7682865" lon="7.8028484"><ele>298.0</ele><time>2026-04-11T06:56:48.328Z</time></trkpt><trkpt lat="44.7683441" lon="7.8027951"><ele>298.0</ele><time>2026-04-11T06:56:49.328Z</time></trkpt><trkpt lat="44.7684667" lon="7.8027636"><ele>298.0</ele><time>2026-04-11T06:56:51.328Z</time></trkpt><trkpt lat="44.7685713" lon="7.8027573"><ele>298.0</ele><time>2026-04-11T06:56:53.328Z</time></trkpt><trkpt lat="44.7686646" lon="7.8026854"><ele>298.0</ele><time>2026-04-11T06:56:55.328Z</time></trkpt><trkpt lat="44.7687246" lon="7.8025463"><ele>298.0</ele><time>2026-04-11T06:56:57.328Z</time></trkpt><trkpt lat="44.7687339" lon="7.8023568"><ele>298.0</ele><time>2026-04-11T06:56:59.328Z</time></trkpt><trkpt lat="44.7687382" lon="7.8022461"><ele>298.0</ele><time>2026-04-11T06:57:00.329Z</time></trkpt><trkpt lat="44.7687495" lon="7.8021418"><ele>298.0</ele><time>2026-04-11T06:57:01.328Z</time></trkpt><trkpt lat="44.7687617" lon="7.8020476"><ele>298.0</ele><time>2026-04-11T06:57:02.328Z</time></trkpt><trkpt lat="44.7687754" lon="7.8019521"><ele>298.0</ele><time>2026-04-11T06:57:03.328Z</time></trkpt><trkpt lat="44.7687858" lon="7.8018595"><ele>297.7142857142857</ele><time>2026-04-11T06:57:04.328Z</time></trkpt><trkpt lat="44.7688031" lon="7.8017699"><ele>297.4285714285714</ele><time>2026-04-11T06:57:05.328Z</time></trkpt><trkpt lat="44.7688109" lon="7.8016789"><ele>297.1428571428571</ele><time>2026-04-11T06:57:06.328Z</time></trkpt><trkpt lat="44.7688208" lon="7.8015842"><ele>296.85714285714283</ele><time>2026-04-11T06:57:07.328Z</time></trkpt><trkpt lat="44.7688355" lon="7.8014953"><ele>296.57142857142856</ele><time>2026-04-11T06:57:08.328Z</time></trkpt><trkpt lat="44.7688506" lon="7.801405"><ele>296.2857142857143</ele><time>2026-04-11T06:57:09.328Z</time></trkpt><trkpt lat="44.7688616" lon="7.8013121"><ele>296.0</ele><time>2026-04-11T06:57:10.329Z</time></trkpt><trkpt lat="44.7688676" lon="7.8012224"><ele>296.0</ele><time>2026-04-11T06:57:11.328Z</time></trkpt><trkpt lat="44.7688796" lon="7.8010574"><ele>296.0</ele><time>2026-04-11T06:57:13.328Z</time></trkpt><trkpt lat="44.7688993" lon="7.8008754"><ele>296.0</ele><time>2026-04-11T06:57:15.328Z</time></trkpt><trkpt lat="44.7689261" lon="7.800787"><ele>296.0</ele><time>2026-04-11T06:57:16.328Z</time></trkpt><trkpt lat="44.7689463" lon="7.8007015"><ele>296.0</ele><time>2026-04-11T06:57:17.328Z</time></trkpt><trkpt lat="44.7689965" lon="7.8005334"><ele>296.0</ele><time>2026-04-11T06:57:19.328Z</time></trkpt><trkpt lat="44.7690225" lon="7.8004414"><ele>296.0</ele><time>2026-04-11T06:57:20.328Z</time></trkpt><trkpt lat="44.7690431" lon="7.8003531"><ele>296.0</ele><time>2026-04-11T06:57:21.328Z</time></trkpt><trkpt lat="44.7690629" lon="7.8002668"><ele>296.0</ele><time>2026-04-11T06:57:22.328Z</time></trkpt><trkpt lat="44.7691012" lon="7.8000961"><ele>296.0</ele><time>2026-04-11T06:57:24.328Z</time></trkpt><trkpt lat="44.7691261" lon="7.8000067"><ele>296.0</ele><time>2026-04-11T06:57:25.328Z</time></trkpt><trkpt lat="44.7691504" lon="7.7999118"><ele>295.7142857142857</ele><time>2026-04-11T06:57:26.329Z</time></trkpt><trkpt lat="44.7691773" lon="7.7998222"><ele>295.42857142857144</ele><time>2026-04-11T06:57:27.328Z</time></trkpt><trkpt lat="44.7692047" lon="7.7997276"><ele>295.1428571428571</ele><time>2026-04-11T06:57:28.328Z</time></trkpt><trkpt lat="44.7692336" lon="7.7996334"><ele>294.8571428571429</ele><time>2026-04-11T06:57:29.328Z</time></trkpt><trkpt lat="44.7692625" lon="7.7995392"><ele>294.57142857142856</ele><time>2026-04-11T06:57:30.328Z</time></trkpt><trkpt lat="44.7692894" lon="7.7994477"><ele>294.2857142857143</ele><time>2026-04-11T06:57:31.328Z</time></trkpt><trkpt lat="44.7693205" lon="7.7993554"><ele>294.0</ele><time>2026-04-11T06:57:32.328Z</time></trkpt><trkpt lat="44.7693456" lon="7.799259"><ele>293.7142857142857</ele><time>2026-04-11T06:57:33.335Z</time></trkpt><trkpt lat="44.7693687" lon="7.7991598"><ele>293.42857142857144</ele><time>2026-04-11T06:57:34.335Z</time></trkpt><trkpt lat="44.7693978" lon="7.7990756"><ele>293.1428571428571</ele><time>2026-04-11T06:57:35.335Z</time></trkpt><trkpt lat="44.7694301" lon="7.7989898"><ele>292.8571428571429</ele><time>2026-04-11T06:57:36.335Z</time></trkpt><trkpt lat="44.7694612" lon="7.7988995"><ele>292.57142857142856</ele><time>2026-04-11T06:57:37.335Z</time></trkpt><trkpt lat="44.7694905" lon="7.7988061"><ele>292.2857142857143</ele><time>2026-04-11T06:57:38.335Z</time></trkpt><trkpt lat="44.769523" lon="7.7987196"><ele>292.0</ele><time>2026-04-11T06:57:39.335Z</time></trkpt><trkpt lat="44.7696072" lon="7.7985992"><ele>292.0</ele><time>2026-04-11T06:57:41.335Z</time></trkpt><trkpt lat="44.7697187" lon="7.7985417"><ele>292.0</ele><time>2026-04-11T06:57:43.335Z</time></trkpt><trkpt lat="44.769784" lon="7.798509"><ele>292.0</ele><time>2026-04-11T06:57:44.335Z</time></trkpt><trkpt lat="44.7698467" lon="7.7984763"><ele>292.0</ele><time>2026-04-11T06:57:45.335Z</time></trkpt><trkpt lat="44.7699079" lon="7.7984455"><ele>292.0</ele><time>2026-04-11T06:57:46.335Z</time></trkpt><trkpt lat="44.769967" lon="7.7984117"><ele>292.0</ele><time>2026-04-11T06:57:47.335Z</time></trkpt><trkpt lat="44.7700308" lon="7.798388"><ele>291.8333333333333</ele><time>2026-04-11T06:57:48.335Z</time></trkpt><trkpt lat="44.7700916" lon="7.7983578"><ele>291.66666666666663</ele><time>2026-04-11T06:57:49.335Z</time></trkpt><trkpt lat="44.7701537" lon="7.7983122"><ele>291.5</ele><time>2026-04-11T06:57:50.335Z</time></trkpt><trkpt lat="44.7702123" lon="7.7982698"><ele>291.3333333333333</ele><time>2026-04-11T06:57:51.335Z</time></trkpt><trkpt lat="44.7702632" lon="7.7982157"><ele>291.1666666666667</ele><time>2026-04-11T06:57:52.335Z</time></trkpt><trkpt lat="44.7703147" lon="7.7981524"><ele>291.0</ele><time>2026-04-11T06:57:53.335Z</time></trkpt><trkpt lat="44.7704123" lon="7.7980326"><ele>290.85714285714283</ele><time>2026-04-11T06:57:55.335Z</time></trkpt><trkpt lat="44.7704519" lon="7.7979599"><ele>290.71428571428567</ele><time>2026-04-11T06:57:56.335Z</time></trkpt><trkpt lat="44.7704855" lon="7.7978807"><ele>290.57142857142856</ele><time>2026-04-11T06:57:57.335Z</time></trkpt><trkpt lat="44.7705172" lon="7.7978014"><ele>290.42857142857144</ele><time>2026-04-11T06:57:58.335Z</time></trkpt><trkpt lat="44.7705517" lon="7.7977215"><ele>290.28571428571433</ele><time>2026-04-11T06:57:59.335Z</time></trkpt><trkpt lat="44.770583" lon="7.7976439"><ele>290.14285714285717</ele><time>2026-04-11T06:58:00.335Z</time></trkpt><trkpt lat="44.7706142" lon="7.7975629"><ele>290.0</ele><time>2026-04-11T06:58:01.335Z</time></trkpt><trkpt lat="44.770639" lon="7.7974748"><ele>290.0</ele><time>2026-04-11T06:58:02.335Z</time></trkpt><trkpt lat="44.7706652" lon="7.7973824"><ele>290.0</ele><time>2026-04-11T06:58:03.335Z</time></trkpt><trkpt lat="44.7706949" lon="7.7972883"><ele>290.0</ele><time>2026-04-11T06:58:04.335Z</time></trkpt><trkpt lat="44.7707256" lon="7.7971895"><ele>290.0</ele><time>2026-04-11T06:58:05.336Z</time></trkpt><trkpt lat="44.7707576" lon="7.7970866"><ele>290.0</ele><time>2026-04-11T06:58:06.335Z</time></trkpt><trkpt lat="44.7707936" lon="7.7969861"><ele>290.0</ele><time>2026-04-11T06:58:07.335Z</time></trkpt><trkpt lat="44.7708288" lon="7.796888"><ele>289.83333333333337</ele><time>2026-04-11T06:58:08.335Z</time></trkpt><trkpt lat="44.7708642" lon="7.7967882"><ele>289.6666666666667</ele><time>2026-04-11T06:58:09.335Z</time></trkpt><trkpt lat="44.7708997" lon="7.7966829"><ele>289.5</ele><time>2026-04-11T06:58:10.335Z</time></trkpt><trkpt lat="44.7709288" lon="7.7965748"><ele>289.3333333333333</ele><time>2026-04-11T06:58:11.335Z</time></trkpt><trkpt lat="44.7709609" lon="7.7964733"><ele>289.16666666666663</ele><time>2026-04-11T06:58:12.335Z</time></trkpt><trkpt lat="44.770996" lon="7.796369"><ele>289.0</ele><time>2026-04-11T06:58:13.335Z</time></trkpt><trkpt lat="44.7710344" lon="7.7962698"><ele>288.3333333333333</ele><time>2026-04-11T06:58:14.335Z</time></trkpt><trkpt lat="44.7710731" lon="7.7961711"><ele>287.66666666666663</ele><time>2026-04-11T06:58:15.335Z</time></trkpt><trkpt lat="44.7711135" lon="7.7960677"><ele>287.0</ele><time>2026-04-11T06:58:16.335Z</time></trkpt><trkpt lat="44.7711514" lon="7.7959585"><ele>286.3333333333333</ele><time>2026-04-11T06:58:17.335Z</time></trkpt><trkpt lat="44.7711897" lon="7.7958567"><ele>285.6666666666667</ele><time>2026-04-11T06:58:18.335Z</time></trkpt><trkpt lat="44.7712216" lon="7.7957524"><ele>285.0</ele><time>2026-04-11T06:58:19.335Z</time></trkpt><trkpt lat="44.7712432" lon="7.7956475"><ele>284.8333333333333</ele><time>2026-04-11T06:58:20.335Z</time></trkpt><trkpt lat="44.7712597" lon="7.7955383"><ele>284.6666666666667</ele><time>2026-04-11T06:58:21.335Z</time></trkpt><trkpt lat="44.7712691" lon="7.795421"><ele>284.5</ele><time>2026-04-11T06:58:22.335Z</time></trkpt><trkpt lat="44.7712739" lon="7.7952915"><ele>284.33333333333337</ele><time>2026-04-11T06:58:23.335Z</time></trkpt><trkpt lat="44.7712647" lon="7.7951673"><ele>284.1666666666667</ele><time>2026-04-11T06:58:24.335Z</time></trkpt><trkpt lat="44.7712393" lon="7.7950349"><ele>284.0</ele><time>2026-04-11T06:58:25.335Z</time></trkpt><trkpt lat="44.7712068" lon="7.7948991"><ele>283.8</ele><time>2026-04-11T06:58:26.335Z</time></trkpt><trkpt lat="44.7711519" lon="7.7947768"><ele>283.59999999999997</ele><time>2026-04-11T06:58:27.335Z</time></trkpt><trkpt lat="44.771084" lon="7.7946529"><ele>283.4</ele><time>2026-04-11T06:58:28.335Z</time></trkpt><trkpt lat="44.7710228" lon="7.7945369"><ele>283.2</ele><time>2026-04-11T06:58:29.335Z</time></trkpt><trkpt lat="44.7709581" lon="7.7944351"><ele>283.0</ele><time>2026-04-11T06:58:30.335Z</time></trkpt><trkpt lat="44.7709052" lon="7.794311"><ele>282.2</ele><time>2026-04-11T06:58:31.335Z</time></trkpt><trkpt lat="44.770872" lon="7.7941773"><ele>281.4</ele><time>2026-04-11T06:58:32.335Z</time></trkpt><trkpt lat="44.770878" lon="7.7940364"><ele>280.59999999999997</ele><time>2026-04-11T06:58:33.335Z</time></trkpt><trkpt lat="44.7709231" lon="7.7938889"><ele>279.8</ele><time>2026-04-11T06:58:34.335Z</time></trkpt><trkpt lat="44.770981" lon="7.7937603"><ele>279.0</ele><time>2026-04-11T06:58:35.335Z</time></trkpt><trkpt lat="44.7710484" lon="7.7936483"><ele>278.6666666666667</ele><time>2026-04-11T06:58:36.335Z</time></trkpt><trkpt lat="44.7711154" lon="7.7935509"><ele>278.3333333333333</ele><time>2026-04-11T06:58:37.335Z</time></trkpt><trkpt lat="44.7711873" lon="7.7934636"><ele>278.0</ele><time>2026-04-11T06:58:38.335Z</time></trkpt><trkpt lat="44.7712489" lon="7.7933734"><ele>277.66666666666663</ele><time>2026-04-11T06:58:39.335Z</time></trkpt><trkpt lat="44.7713054" lon="7.7932907"><ele>277.3333333333333</ele><time>2026-04-11T06:58:40.335Z</time></trkpt><trkpt lat="44.771353" lon="7.7932175"><ele>277.0</ele><time>2026-04-11T06:58:41.335Z</time></trkpt><trkpt lat="44.7714566" lon="7.7931518"><ele>277.0</ele><time>2026-04-11T06:58:43.335Z</time></trkpt><trkpt lat="44.7715449" lon="7.7932517"><ele>277.0</ele><time>2026-04-11T06:58:45.335Z</time></trkpt><trkpt lat="44.7715862" lon="7.7934153"><ele>277.0</ele><time>2026-04-11T06:58:47.335Z</time></trkpt><trkpt lat="44.7715968" lon="7.7935062"><ele>277.0</ele><time>2026-04-11T06:58:48.335Z</time></trkpt><trkpt lat="44.7716395" lon="7.7936591"><ele>277.0</ele><time>2026-04-11T06:58:50.335Z</time></trkpt><trkpt lat="44.7716978" lon="7.7937975"><ele>277.0</ele><time>2026-04-11T06:58:52.335Z</time></trkpt><trkpt lat="44.7717719" lon="7.7939399"><ele>277.0</ele><time>2026-04-11T06:58:54.335Z</time></trkpt><trkpt lat="44.7718129" lon="7.7940138"><ele>277.0</ele><time>2026-04-11T06:58:55.335Z</time></trkpt><trkpt lat="44.7718547" lon="7.7940901"><ele>277.0</ele><time>2026-04-11T06:58:56.335Z</time></trkpt><trkpt lat="44.7718985" lon="7.7941632"><ele>277.0</ele><time>2026-04-11T06:58:57.335Z</time></trkpt><trkpt lat="44.7720028" lon="7.7942731"><ele>277.3333333333333</ele><time>2026-04-11T06:58:59.335Z</time></trkpt><trkpt lat="44.7720551" lon="7.7943408"><ele>277.66666666666663</ele><time>2026-04-11T06:59:00.335Z</time></trkpt><trkpt lat="44.7721096" lon="7.7944063"><ele>278.0</ele><time>2026-04-11T06:59:01.335Z</time></trkpt><trkpt lat="44.7722002" lon="7.7945144"><ele>278.3333333333333</ele><time>2026-04-11T06:59:03.335Z</time></trkpt><trkpt lat="44.7722575" lon="7.7945801"><ele>278.6666666666667</ele><time>2026-04-11T06:59:04.335Z</time></trkpt><trkpt lat="44.7723051" lon="7.7946483"><ele>279.0</ele><time>2026-04-11T06:59:05.335Z</time></trkpt><trkpt lat="44.7723495" lon="7.7947252"><ele>279.0</ele><time>2026-04-11T06:59:06.335Z</time></trkpt><trkpt lat="44.7723991" lon="7.7947985"><ele>279.0</ele><time>2026-04-11T06:59:07.335Z</time></trkpt><trkpt lat="44.7724401" lon="7.7948771"><ele>279.0</ele><time>2026-04-11T06:59:08.335Z</time></trkpt><trkpt lat="44.772466" lon="7.7949594"><ele>279.0</ele><time>2026-04-11T06:59:09.335Z</time></trkpt><trkpt lat="44.7724897" lon="7.7950418"><ele>279.0</ele><time>2026-04-11T06:59:10.335Z</time></trkpt><trkpt lat="44.7725384" lon="7.7952007"><ele>279.0</ele><time>2026-04-11T06:59:12.335Z</time></trkpt><trkpt lat="44.772578" lon="7.795361"><ele>278.8333333333333</ele><time>2026-04-11T06:59:14.335Z</time></trkpt><trkpt lat="44.7726151" lon="7.7955319"><ele>278.6666666666667</ele><time>2026-04-11T06:59:16.335Z</time></trkpt><trkpt lat="44.7726374" lon="7.7956191"><ele>278.5</ele><time>2026-04-11T06:59:17.335Z</time></trkpt><trkpt lat="44.7726514" lon="7.7957068"><ele>278.33333333333337</ele><time>2026-04-11T06:59:18.335Z</time></trkpt><trkpt lat="44.772665" lon="7.7957963"><ele>278.1666666666667</ele><time>2026-04-11T06:59:19.335Z</time></trkpt><trkpt lat="44.7726856" lon="7.7958823"><ele>278.0</ele><time>2026-04-11T06:59:20.335Z</time></trkpt><trkpt lat="44.7727097" lon="7.7959681"><ele>278.0</ele><time>2026-04-11T06:59:21.335Z</time></trkpt><trkpt lat="44.7727278" lon="7.796056"><ele>278.0</ele><time>2026-04-11T06:59:22.335Z</time></trkpt><trkpt lat="44.7727489" lon="7.7961442"><ele>278.0</ele><time>2026-04-11T06:59:23.335Z</time></trkpt><trkpt lat="44.7727762" lon="7.7962313"><ele>278.0</ele><time>2026-04-11T06:59:24.335Z</time></trkpt><trkpt lat="44.7728005" lon="7.7963211"><ele>278.0</ele><time>2026-04-11T06:59:25.335Z</time></trkpt><trkpt lat="44.772837" lon="7.7964927"><ele>278.0</ele><time>2026-04-11T06:59:27.335Z</time></trkpt><trkpt lat="44.772857" lon="7.7965804"><ele>278.0</ele><time>2026-04-11T06:59:28.335Z</time></trkpt><trkpt lat="44.7728809" lon="7.7966747"><ele>278.0</ele><time>2026-04-11T06:59:29.335Z</time></trkpt><trkpt lat="44.7729026" lon="7.7967602"><ele>278.0</ele><time>2026-04-11T06:59:30.335Z</time></trkpt><trkpt lat="44.7729202" lon="7.7968473"><ele>278.0</ele><time>2026-04-11T06:59:31.335Z</time></trkpt><trkpt lat="44.7729363" lon="7.7969348"><ele>278.0</ele><time>2026-04-11T06:59:32.335Z</time></trkpt><trkpt lat="44.772957" lon="7.7970224"><ele>278.0</ele><time>2026-04-11T06:59:33.335Z</time></trkpt><trkpt lat="44.7729818" lon="7.7971111"><ele>278.0</ele><time>2026-04-11T06:59:34.336Z</time></trkpt><trkpt lat="44.7730156" lon="7.7972881"><ele>278.0</ele><time>2026-04-11T06:59:36.335Z</time></trkpt><trkpt lat="44.7730334" lon="7.797383"><ele>278.0</ele><time>2026-04-11T06:59:37.335Z</time></trkpt><trkpt lat="44.7730508" lon="7.7974741"><ele>278.0</ele><time>2026-04-11T06:59:38.335Z</time></trkpt><trkpt lat="44.7730627" lon="7.7975651"><ele>278.0</ele><time>2026-04-11T06:59:39.335Z</time></trkpt><trkpt lat="44.7730661" lon="7.7976555"><ele>278.0</ele><time>2026-04-11T06:59:40.335Z</time></trkpt><trkpt lat="44.7730662" lon="7.7977492"><ele>278.0</ele><time>2026-04-11T06:59:41.335Z</time></trkpt><trkpt lat="44.7730709" lon="7.7979284"><ele>278.0</ele><time>2026-04-11T06:59:43.336Z</time></trkpt><trkpt lat="44.7730847" lon="7.798094"><ele>278.0</ele><time>2026-04-11T06:59:45.335Z</time></trkpt><trkpt lat="44.7730912" lon="7.7981839"><ele>278.0</ele><time>2026-04-11T06:59:46.335Z</time></trkpt><trkpt lat="44.7730865" lon="7.7983525"><ele>278.0</ele><time>2026-04-11T06:59:48.336Z</time></trkpt><trkpt lat="44.7730816" lon="7.7985149"><ele>278.0</ele><time>2026-04-11T06:59:50.335Z</time></trkpt><trkpt lat="44.7730853" lon="7.7986058"><ele>278.4</ele><time>2026-04-11T06:59:51.335Z</time></trkpt><trkpt lat="44.7731009" lon="7.7986956"><ele>278.8</ele><time>2026-04-11T06:59:52.335Z</time></trkpt><trkpt lat="44.7731156" lon="7.7988554"><ele>279.2</ele><time>2026-04-11T06:59:54.335Z</time></trkpt><trkpt lat="44.7731246" lon="7.7990243"><ele>279.6</ele><time>2026-04-11T06:59:56.335Z</time></trkpt><trkpt lat="44.7731348" lon="7.799115"><ele>280.0</ele><time>2026-04-11T06:59:57.335Z</time></trkpt><trkpt lat="44.7731392" lon="7.7992819"><ele>280.0</ele><time>2026-04-11T06:59:59.335Z</time></trkpt><trkpt lat="44.7731433" lon="7.7994461"><ele>280.0</ele><time>2026-04-11T07:00:01.335Z</time></trkpt><trkpt lat="44.7731388" lon="7.7996158"><ele>280.0</ele><time>2026-04-11T07:00:03.335Z</time></trkpt><trkpt lat="44.7731352" lon="7.7997826"><ele>280.0</ele><time>2026-04-11T07:00:05.335Z</time></trkpt><trkpt lat="44.7731271" lon="7.7999484"><ele>280.0</ele><time>2026-04-11T07:00:07.336Z</time></trkpt><trkpt lat="44.7731262" lon="7.8001171"><ele>280.0</ele><time>2026-04-11T07:00:09.335Z</time></trkpt><trkpt lat="44.7731253" lon="7.800285"><ele>280.0</ele><time>2026-04-11T07:00:11.335Z</time></trkpt><trkpt lat="44.7731136" lon="7.8004485"><ele>280.0</ele><time>2026-04-11T07:00:13.335Z</time></trkpt><trkpt lat="44.7731243" lon="7.800603"><ele>280.4</ele><time>2026-04-11T07:00:15.335Z</time></trkpt><trkpt lat="44.773172" lon="7.8007427"><ele>280.8</ele><time>2026-04-11T07:00:17.335Z</time></trkpt><trkpt lat="44.7732064" lon="7.800885"><ele>281.2</ele><time>2026-04-11T07:00:19.335Z</time></trkpt><trkpt lat="44.7732391" lon="7.8010198"><ele>281.6</ele><time>2026-04-11T07:00:21.335Z</time></trkpt><trkpt lat="44.7732795" lon="7.8011473"><ele>282.0</ele><time>2026-04-11T07:00:23.335Z</time></trkpt><trkpt lat="44.7733238" lon="7.8012768"><ele>282.1666666666667</ele><time>2026-04-11T07:00:25.335Z</time></trkpt><trkpt lat="44.7733601" lon="7.8013949"><ele>282.3333333333333</ele><time>2026-04-11T07:00:27.335Z</time></trkpt><trkpt lat="44.773403" lon="7.8015154"><ele>282.5</ele><time>2026-04-11T07:00:29.335Z</time></trkpt><trkpt lat="44.7734614" lon="7.8016214"><ele>282.66666666666663</ele><time>2026-04-11T07:00:31.335Z</time></trkpt><trkpt lat="44.7735077" lon="7.8016832"><ele>282.8333333333333</ele><time>2026-04-11T07:00:33.335Z</time></trkpt><trkpt lat="44.7735845" lon="7.8017238"><ele>283.0</ele><time>2026-04-11T07:00:35.335Z</time></trkpt><trkpt lat="44.7736493" lon="7.8017509"><ele>284.0</ele><time>2026-04-11T07:00:37.335Z</time></trkpt><trkpt lat="44.7737089" lon="7.8017917"><ele>285.0</ele><time>2026-04-11T07:00:39.335Z</time></trkpt><trkpt lat="44.7737559" lon="7.8018867"><ele>286.0</ele><time>2026-04-11T07:00:42.335Z</time></trkpt><trkpt lat="44.7737469" lon="7.8020092"><ele>287.0</ele><time>2026-04-11T07:00:45.335Z</time></trkpt><trkpt lat="44.7737321" lon="7.8021191"><ele>288.0</ele><time>2026-04-11T07:00:48.335Z</time></trkpt><trkpt lat="44.7737321" lon="7.8022309"><ele>289.0</ele><time>2026-04-11T07:00:51.335Z</time></trkpt><trkpt lat="44.7737303" lon="7.8023365"><ele>290.0</ele><time>2026-04-11T07:00:54.335Z</time></trkpt><trkpt lat="44.7737256" lon="7.802434"><ele>291.0</ele><time>2026-04-11T07:00:57.335Z</time></trkpt><trkpt lat="44.7737211" lon="7.802536"><ele>292.0</ele><time>2026-04-11T07:01:00.335Z</time></trkpt><trkpt lat="44.7737458" lon="7.802633"><ele>293.0</ele><time>2026-04-11T07:01:03.335Z</time></trkpt><trkpt lat="44.773766" lon="7.8027355"><ele>294.0</ele><time>2026-04-11T07:01:07.335Z</time></trkpt><trkpt lat="44.7737994" lon="7.8028273"><ele>295.0</ele><time>2026-04-11T07:01:11.335Z</time></trkpt><trkpt lat="44.7738522" lon="7.8029165"><ele>296.0</ele><time>2026-04-11T07:01:15.335Z</time></trkpt><trkpt lat="44.7739132" lon="7.8029826"><ele>296.33333333333337</ele><time>2026-04-11T07:01:19.335Z</time></trkpt><trkpt lat="44.7739653" lon="7.8030664"><ele>296.6666666666667</ele><time>2026-04-11T07:01:24.335Z</time></trkpt><trkpt lat="44.7740205" lon="7.8031412"><ele>297.0</ele><time>2026-04-11T07:01:28.335Z</time></trkpt><trkpt lat="44.7740694" lon="7.8032073"><ele>297.3333333333333</ele><time>2026-04-11T07:01:32.335Z</time></trkpt><trkpt lat="44.7741231" lon="7.8032819"><ele>297.66666666666663</ele><time>2026-04-11T07:01:36.335Z</time></trkpt><trkpt lat="44.7741834" lon="7.8033579"><ele>298.0</ele><time>2026-04-11T07:01:40.335Z</time></trkpt><trkpt lat="44.7742387" lon="7.8034206"><ele>298.0</ele><time>2026-04-11T07:01:44.335Z</time></trkpt><trkpt lat="44.774294" lon="7.8034747"><ele>298.0</ele><time>2026-04-11T07:01:48.335Z</time></trkpt><trkpt lat="44.7743562" lon="7.8035441"><ele>298.0</ele><time>2026-04-11T07:01:52.335Z</time></trkpt><trkpt lat="44.7744144" lon="7.8035966"><ele>298.0</ele><time>2026-04-11T07:01:56.335Z</time></trkpt><trkpt lat="44.7744753" lon="7.8036261"><ele>298.0</ele><time>2026-04-11T07:02:00.335Z</time></trkpt><trkpt lat="44.7745495" lon="7.8036373"><ele>298.0</ele><time>2026-04-11T07:02:05.335Z</time></trkpt><trkpt lat="44.7746247" lon="7.8036612"><ele>298.0</ele><time>2026-04-11T07:02:10.335Z</time></trkpt><trkpt lat="44.7746937" lon="7.8037025"><ele>299.0</ele><time>2026-04-11T07:02:14.335Z</time></trkpt><trkpt lat="44.7747601" lon="7.8037417"><ele>300.0</ele><time>2026-04-11T07:02:17.335Z</time></trkpt><trkpt lat="44.7748322" lon="7.8037524"><ele>301.0</ele><time>2026-04-11T07:02:21.336Z</time></trkpt><trkpt lat="44.7748905" lon="7.8037964"><ele>302.0</ele><time>2026-04-11T07:02:25.335Z</time></trkpt><trkpt lat="44.7749602" lon="7.8038324"><ele>303.0</ele><time>2026-04-11T07:02:28.335Z</time></trkpt><trkpt lat="44.7750174" lon="7.8038708"><ele>304.0</ele><time>2026-04-11T07:02:30.335Z</time></trkpt><trkpt lat="44.7750804" lon="7.8039099"><ele>305.0</ele><time>2026-04-11T07:02:32.335Z</time></trkpt><trkpt lat="44.7751492" lon="7.803943"><ele>304.83333333333337</ele><time>2026-04-11T07:02:34.335Z</time></trkpt><trkpt lat="44.7752258" lon="7.8039637"><ele>304.6666666666667</ele><time>2026-04-11T07:02:36.335Z</time></trkpt><trkpt lat="44.7753002" lon="7.8039994"><ele>304.5</ele><time>2026-04-11T07:02:38.335Z</time></trkpt><trkpt lat="44.7753734" lon="7.8040307"><ele>304.3333333333333</ele><time>2026-04-11T07:02:40.335Z</time></trkpt><trkpt lat="44.7754495" lon="7.8040696"><ele>304.16666666666663</ele><time>2026-04-11T07:02:42.335Z</time></trkpt><trkpt lat="44.7754918" lon="7.804169"><ele>304.0</ele><time>2026-04-11T07:02:44.335Z</time></trkpt><trkpt lat="44.7754653" lon="7.8042804"><ele>304.2</ele><time>2026-04-11T07:02:46.335Z</time></trkpt><trkpt lat="44.7754191" lon="7.8043888"><ele>304.4</ele><time>2026-04-11T07:02:48.335Z</time></trkpt><trkpt lat="44.7753831" lon="7.8045151"><ele>304.6</ele><time>2026-04-11T07:02:50.335Z</time></trkpt><trkpt lat="44.7753448" lon="7.8046416"><ele>304.8</ele><time>2026-04-11T07:02:52.335Z</time></trkpt><trkpt lat="44.7753119" lon="7.8047699"><ele>305.0</ele><time>2026-04-11T07:02:54.335Z</time></trkpt><trkpt lat="44.7752884" lon="7.8049083"><ele>305.0</ele><time>2026-04-11T07:02:56.335Z</time></trkpt><trkpt lat="44.7752839" lon="7.8050324"><ele>305.0</ele><time>2026-04-11T07:02:58.335Z</time></trkpt><trkpt lat="44.7753093" lon="7.8051679"><ele>305.0</ele><time>2026-04-11T07:03:00.335Z</time></trkpt><trkpt lat="44.7753466" lon="7.8052986"><ele>305.0</ele><time>2026-04-11T07:03:02.335Z</time></trkpt><trkpt lat="44.7753919" lon="7.8054219"><ele>305.0</ele><time>2026-04-11T07:03:04.335Z</time></trkpt><trkpt lat="44.7754359" lon="7.8055525"><ele>304.8</ele><time>2026-04-11T07:03:06.335Z</time></trkpt><trkpt lat="44.7754624" lon="7.805678"><ele>304.6</ele><time>2026-04-11T07:03:08.335Z</time></trkpt><trkpt lat="44.7754618" lon="7.8057983"><ele>304.4</ele><time>2026-04-11T07:03:10.335Z</time></trkpt><trkpt lat="44.775427" lon="7.80593"><ele>304.2</ele><time>2026-04-11T07:03:12.335Z</time></trkpt><trkpt lat="44.7753639" lon="7.8060374"><ele>304.0</ele><time>2026-04-11T07:03:14.335Z</time></trkpt><trkpt lat="44.7753062" lon="7.8061488"><ele>304.4</ele><time>2026-04-11T07:03:16.335Z</time></trkpt><trkpt lat="44.7752457" lon="7.8062634"><ele>304.79999999999995</ele><time>2026-04-11T07:03:18.335Z</time></trkpt><trkpt lat="44.7751781" lon="7.806372"><ele>305.20000000000005</ele><time>2026-04-11T07:03:20.335Z</time></trkpt><trkpt lat="44.7751168" lon="7.8064838"><ele>305.6</ele><time>2026-04-11T07:03:22.335Z</time></trkpt><trkpt lat="44.7750545" lon="7.8065989"><ele>306.0</ele><time>2026-04-11T07:03:24.335Z</time></trkpt><trkpt lat="44.7749846" lon="7.8067095"><ele>306.0</ele><time>2026-04-11T07:03:26.335Z</time></trkpt><trkpt lat="44.7749077" lon="7.8068252"><ele>306.0</ele><time>2026-04-11T07:03:28.336Z</time></trkpt><trkpt lat="44.77485" lon="7.8069496"><ele>306.0</ele><time>2026-04-11T07:03:30.336Z</time></trkpt><trkpt lat="44.7747909" lon="7.8070701"><ele>306.0</ele><time>2026-04-11T07:03:32.336Z</time></trkpt><trkpt lat="44.7747247" lon="7.8071901"><ele>306.0</ele><time>2026-04-11T07:03:34.336Z</time></trkpt><trkpt lat="44.7746697" lon="7.8073023"><ele>306.0</ele><time>2026-04-11T07:03:36.336Z</time></trkpt><trkpt lat="44.7746144" lon="7.8074224"><ele>306.0</ele><time>2026-04-11T07:03:38.336Z</time></trkpt><trkpt lat="44.7745512" lon="7.8075413"><ele>306.0</ele><time>2026-04-11T07:03:40.336Z</time></trkpt><trkpt lat="44.7744949" lon="7.8076615"><ele>306.0</ele><time>2026-04-11T07:03:42.336Z</time></trkpt><trkpt lat="44.774448" lon="7.8077856"><ele>306.0</ele><time>2026-04-11T07:03:44.336Z</time></trkpt><trkpt lat="44.7744011" lon="7.8078991"><ele>306.8</ele><time>2026-04-11T07:03:46.336Z</time></trkpt><trkpt lat="44.7743464" lon="7.8080076"><ele>307.6</ele><time>2026-04-11T07:03:48.336Z</time></trkpt><trkpt lat="44.7742944" lon="7.8081219"><ele>308.4</ele><time>2026-04-11T07:03:50.336Z</time></trkpt><trkpt lat="44.7742401" lon="7.8082492"><ele>309.2</ele><time>2026-04-11T07:03:52.336Z</time></trkpt><trkpt lat="44.7741805" lon="7.8083691"><ele>310.0</ele><time>2026-04-11T07:03:54.336Z</time></trkpt><trkpt lat="44.7741186" lon="7.8084901"><ele>309.2</ele><time>2026-04-11T07:03:56.336Z</time></trkpt><trkpt lat="44.7740385" lon="7.8086217"><ele>308.4</ele><time>2026-04-11T07:03:58.336Z</time></trkpt><trkpt lat="44.7739565" lon="7.8087517"><ele>307.6</ele><time>2026-04-11T07:04:00.336Z</time></trkpt><trkpt lat="44.7739135" lon="7.808819"><ele>306.8</ele><time>2026-04-11T07:04:01.336Z</time></trkpt><trkpt lat="44.773869" lon="7.8088832"><ele>306.0</ele><time>2026-04-11T07:04:02.336Z</time></trkpt><trkpt lat="44.7737891" lon="7.8090132"><ele>306.0</ele><time>2026-04-11T07:04:04.336Z</time></trkpt><trkpt lat="44.773749" lon="7.8090823"><ele>306.0</ele><time>2026-04-11T07:04:05.336Z</time></trkpt><trkpt lat="44.7737117" lon="7.8091569"><ele>306.0</ele><time>2026-04-11T07:04:06.336Z</time></trkpt><trkpt lat="44.7736731" lon="7.8092299"><ele>306.0</ele><time>2026-04-11T07:04:07.336Z</time></trkpt><trkpt lat="44.7736354" lon="7.8093056"><ele>306.0</ele><time>2026-04-11T07:04:08.336Z</time></trkpt><trkpt lat="44.7735967" lon="7.8093795"><ele>306.0</ele><time>2026-04-11T07:04:09.336Z</time></trkpt><trkpt lat="44.7735629" lon="7.8094544"><ele>306.0</ele><time>2026-04-11T07:04:10.336Z</time></trkpt><trkpt lat="44.773533" lon="7.809533"><ele>306.42857142857144</ele><time>2026-04-11T07:04:11.336Z</time></trkpt><trkpt lat="44.7735031" lon="7.8096113"><ele>306.8571428571429</ele><time>2026-04-11T07:04:12.336Z</time></trkpt><trkpt lat="44.7734726" lon="7.809689"><ele>307.28571428571433</ele><time>2026-04-11T07:04:13.336Z</time></trkpt><trkpt lat="44.7734405" lon="7.8097674"><ele>307.7142857142857</ele><time>2026-04-11T07:04:14.342Z</time></trkpt><trkpt lat="44.773404" lon="7.8098457"><ele>308.14285714285717</ele><time>2026-04-11T07:04:15.342Z</time></trkpt><trkpt lat="44.7733716" lon="7.8099243"><ele>308.5714285714286</ele><time>2026-04-11T07:04:16.342Z</time></trkpt><trkpt lat="44.7733409" lon="7.8100078"><ele>309.0</ele><time>2026-04-11T07:04:17.342Z</time></trkpt><trkpt lat="44.7732873" lon="7.8101659"><ele>309.0</ele><time>2026-04-11T07:04:19.342Z</time></trkpt><trkpt lat="44.773223" lon="7.8103073"><ele>309.0</ele><time>2026-04-11T07:04:21.342Z</time></trkpt><trkpt lat="44.7731666" lon="7.8104528"><ele>309.0</ele><time>2026-04-11T07:04:23.342Z</time></trkpt><trkpt lat="44.7731059" lon="7.8106058"><ele>309.0</ele><time>2026-04-11T07:04:25.342Z</time></trkpt><trkpt lat="44.7730509" lon="7.8107403"><ele>309.0</ele><time>2026-04-11T07:04:27.342Z</time></trkpt><trkpt lat="44.7730068" lon="7.8108662"><ele>309.0</ele><time>2026-04-11T07:04:29.342Z</time></trkpt><trkpt lat="44.7729546" lon="7.8110338"><ele>309.0</ele><time>2026-04-11T07:04:31.342Z</time></trkpt><trkpt lat="44.7729047" lon="7.8111766"><ele>309.0</ele><time>2026-04-11T07:04:33.342Z</time></trkpt><trkpt lat="44.7728555" lon="7.8113055"><ele>309.0</ele><time>2026-04-11T07:04:35.342Z</time></trkpt><trkpt lat="44.772832" lon="7.8114259"><ele>308.8</ele><time>2026-04-11T07:04:37.342Z</time></trkpt><trkpt lat="44.7727802" lon="7.8115562"><ele>308.59999999999997</ele><time>2026-04-11T07:04:39.342Z</time></trkpt><trkpt lat="44.7727084" lon="7.8116804"><ele>308.4</ele><time>2026-04-11T07:04:41.342Z</time></trkpt><trkpt lat="44.7726416" lon="7.8118054"><ele>308.2</ele><time>2026-04-11T07:04:43.342Z</time></trkpt><trkpt lat="44.7725606" lon="7.8119166"><ele>308.0</ele><time>2026-04-11T07:04:45.342Z</time></trkpt><trkpt lat="44.7724854" lon="7.8120167"><ele>308.4</ele><time>2026-04-11T07:04:47.342Z</time></trkpt><trkpt lat="44.7723995" lon="7.8121098"><ele>308.8</ele><time>2026-04-11T07:04:49.342Z</time></trkpt><trkpt lat="44.7723163" lon="7.812199"><ele>309.2</ele><time>2026-04-11T07:04:51.342Z</time></trkpt><trkpt lat="44.7722305" lon="7.8123028"><ele>309.6</ele><time>2026-04-11T07:04:53.343Z</time></trkpt><trkpt lat="44.7721454" lon="7.8124001"><ele>310.0</ele><time>2026-04-11T07:04:55.342Z</time></trkpt><trkpt lat="44.772057" lon="7.8124944"><ele>310.0</ele><time>2026-04-11T07:04:57.342Z</time></trkpt><trkpt lat="44.7719711" lon="7.8126025"><ele>310.0</ele><time>2026-04-11T07:04:59.343Z</time></trkpt><trkpt lat="44.7718992" lon="7.8127283"><ele>310.0</ele><time>2026-04-11T07:05:01.343Z</time></trkpt><trkpt lat="44.7718531" lon="7.8127995"><ele>310.0</ele><time>2026-04-11T07:05:02.343Z</time></trkpt><trkpt lat="44.7718187" lon="7.8128843"><ele>310.0</ele><time>2026-04-11T07:05:03.343Z</time></trkpt><trkpt lat="44.7717959" lon="7.8129877"><ele>310.0</ele><time>2026-04-11T07:05:04.343Z</time></trkpt><trkpt lat="44.7717763" lon="7.8130822"><ele>310.42857142857144</ele><time>2026-04-11T07:05:05.343Z</time></trkpt><trkpt lat="44.7717561" lon="7.8131848"><ele>310.85714285714283</ele><time>2026-04-11T07:05:06.343Z</time></trkpt><trkpt lat="44.7717433" lon="7.8132827"><ele>311.2857142857143</ele><time>2026-04-11T07:05:07.343Z</time></trkpt><trkpt lat="44.7717296" lon="7.8133894"><ele>311.7142857142857</ele><time>2026-04-11T07:05:08.344Z</time></trkpt><trkpt lat="44.771712" lon="7.8134919"><ele>312.14285714285717</ele><time>2026-04-11T07:05:09.343Z</time></trkpt><trkpt lat="44.7716956" lon="7.813593"><ele>312.57142857142856</ele><time>2026-04-11T07:05:10.343Z</time></trkpt><trkpt lat="44.7716887" lon="7.8136985"><ele>313.0</ele><time>2026-04-11T07:05:11.343Z</time></trkpt><trkpt lat="44.7716813" lon="7.8138022"><ele>313.0</ele><time>2026-04-11T07:05:12.343Z</time></trkpt><trkpt lat="44.7716775" lon="7.8139038"><ele>313.0</ele><time>2026-04-11T07:05:13.343Z</time></trkpt><trkpt lat="44.7716819" lon="7.814007"><ele>313.0</ele><time>2026-04-11T07:05:14.343Z</time></trkpt><trkpt lat="44.7716953" lon="7.8141039"><ele>313.0</ele><time>2026-04-11T07:05:15.343Z</time></trkpt><trkpt lat="44.7717164" lon="7.8141967"><ele>313.0</ele><time>2026-04-11T07:05:16.343Z</time></trkpt><trkpt lat="44.7717417" lon="7.8142825"><ele>313.0</ele><time>2026-04-11T07:05:17.344Z</time></trkpt><trkpt lat="44.7717724" lon="7.8143629"><ele>313.0</ele><time>2026-04-11T07:05:18.343Z</time></trkpt><trkpt lat="44.7717972" lon="7.8144456"><ele>313.2</ele><time>2026-04-11T07:05:19.343Z</time></trkpt><trkpt lat="44.7718254" lon="7.8145304"><ele>313.4</ele><time>2026-04-11T07:05:20.343Z</time></trkpt><trkpt lat="44.7718427" lon="7.8146211"><ele>313.59999999999997</ele><time>2026-04-11T07:05:21.343Z</time></trkpt><trkpt lat="44.7718526" lon="7.8147905"><ele>313.8</ele><time>2026-04-11T07:05:23.343Z</time></trkpt><trkpt lat="44.7718439" lon="7.8149455"><ele>314.0</ele><time>2026-04-11T07:05:25.343Z</time></trkpt><trkpt lat="44.7717899" lon="7.8150741"><ele>314.1666666666667</ele><time>2026-04-11T07:05:27.343Z</time></trkpt><trkpt lat="44.7717243" lon="7.8151599"><ele>314.33333333333337</ele><time>2026-04-11T07:05:29.343Z</time></trkpt><trkpt lat="44.7716606" lon="7.8152175"><ele>314.5</ele><time>2026-04-11T07:05:31.343Z</time></trkpt><trkpt lat="44.7715927" lon="7.8152741"><ele>314.6666666666667</ele><time>2026-04-11T07:05:33.343Z</time></trkpt><trkpt lat="44.7715212" lon="7.8153411"><ele>314.8333333333333</ele><time>2026-04-11T07:05:35.343Z</time></trkpt><trkpt lat="44.7714553" lon="7.8154187"><ele>315.0</ele><time>2026-04-11T07:05:37.343Z</time></trkpt><trkpt lat="44.771372" lon="7.8154936"><ele>315.0</ele><time>2026-04-11T07:05:39.343Z</time></trkpt><trkpt lat="44.7712912" lon="7.8155596"><ele>315.0</ele><time>2026-04-11T07:05:41.343Z</time></trkpt><trkpt lat="44.77121" lon="7.8156347"><ele>315.0</ele><time>2026-04-11T07:05:43.343Z</time></trkpt><trkpt lat="44.7711227" lon="7.8157189"><ele>315.0</ele><time>2026-04-11T07:05:45.343Z</time></trkpt><trkpt lat="44.7710274" lon="7.8158054"><ele>315.0</ele><time>2026-04-11T07:05:47.343Z</time></trkpt><trkpt lat="44.7709619" lon="7.8159277"><ele>315.4</ele><time>2026-04-11T07:05:49.343Z</time></trkpt><trkpt lat="44.7709216" lon="7.8160846"><ele>315.8</ele><time>2026-04-11T07:05:51.343Z</time></trkpt><trkpt lat="44.7708993" lon="7.816254"><ele>316.2</ele><time>2026-04-11T07:05:53.343Z</time></trkpt><trkpt lat="44.7709034" lon="7.8163454"><ele>316.6</ele><time>2026-04-11T07:05:54.343Z</time></trkpt><trkpt lat="44.7709103" lon="7.81644"><ele>317.0</ele><time>2026-04-11T07:05:55.343Z</time></trkpt><trkpt lat="44.7709294" lon="7.8166057"><ele>317.0</ele><time>2026-04-11T07:05:57.343Z</time></trkpt><trkpt lat="44.770989" lon="7.8167678"><ele>317.0</ele><time>2026-04-11T07:05:59.343Z</time></trkpt><trkpt lat="44.7710186" lon="7.8168498"><ele>317.0</ele><time>2026-04-11T07:06:00.343Z</time></trkpt><trkpt lat="44.7710501" lon="7.8169386"><ele>317.0</ele><time>2026-04-11T07:06:01.343Z</time></trkpt><trkpt lat="44.7710909" lon="7.8170241"><ele>317.0</ele><time>2026-04-11T07:06:02.343Z</time></trkpt><trkpt lat="44.7711276" lon="7.817103"><ele>317.0</ele><time>2026-04-11T07:06:03.343Z</time></trkpt><trkpt lat="44.7711677" lon="7.8171841"><ele>316.83333333333337</ele><time>2026-04-11T07:06:04.343Z</time></trkpt><trkpt lat="44.7711979" lon="7.8172634"><ele>316.6666666666667</ele><time>2026-04-11T07:06:05.343Z</time></trkpt><trkpt lat="44.7712332" lon="7.8173387"><ele>316.5</ele><time>2026-04-11T07:06:06.343Z</time></trkpt><trkpt lat="44.7712992" lon="7.8174812"><ele>316.3333333333333</ele><time>2026-04-11T07:06:08.343Z</time></trkpt><trkpt lat="44.7713423" lon="7.8175625"><ele>316.16666666666663</ele><time>2026-04-11T07:06:09.343Z</time></trkpt><trkpt lat="44.7713776" lon="7.8176399"><ele>316.0</ele><time>2026-04-11T07:06:10.343Z</time></trkpt><trkpt lat="44.7714175" lon="7.8177283"><ele>316.0</ele><time>2026-04-11T07:06:11.343Z</time></trkpt><trkpt lat="44.7714561" lon="7.8178051"><ele>316.0</ele><time>2026-04-11T07:06:12.343Z</time></trkpt><trkpt lat="44.7714924" lon="7.8178798"><ele>316.0</ele><time>2026-04-11T07:06:13.343Z</time></trkpt><trkpt lat="44.7715556" lon="7.8180343"><ele>316.0</ele><time>2026-04-11T07:06:15.343Z</time></trkpt><trkpt lat="44.7715897" lon="7.818119"><ele>316.0</ele><time>2026-04-11T07:06:16.343Z</time></trkpt><trkpt lat="44.771635" lon="7.8182836"><ele>316.0</ele><time>2026-04-11T07:06:18.343Z</time></trkpt><trkpt lat="44.7716643" lon="7.8183682"><ele>316.0</ele><time>2026-04-11T07:06:19.343Z</time></trkpt><trkpt lat="44.7716949" lon="7.8184597"><ele>316.0</ele><time>2026-04-11T07:06:20.343Z</time></trkpt><trkpt lat="44.771707" lon="7.8186266"><ele>316.0</ele><time>2026-04-11T07:06:22.343Z</time></trkpt><trkpt lat="44.7717086" lon="7.8187695"><ele>316.0</ele><time>2026-04-11T07:06:24.343Z</time></trkpt><trkpt lat="44.7717345" lon="7.8189255"><ele>316.5</ele><time>2026-04-11T07:06:26.343Z</time></trkpt><trkpt lat="44.771773" lon="7.8190762"><ele>317.0</ele><time>2026-04-11T07:06:28.343Z</time></trkpt><trkpt lat="44.771807" lon="7.819233"><ele>317.5</ele><time>2026-04-11T07:06:30.343Z</time></trkpt><trkpt lat="44.7718402" lon="7.8193831"><ele>318.0</ele><time>2026-04-11T07:06:32.343Z</time></trkpt><trkpt lat="44.7718767" lon="7.8195369"><ele>318.8</ele><time>2026-04-11T07:06:34.343Z</time></trkpt><trkpt lat="44.7718973" lon="7.8196726"><ele>319.6</ele><time>2026-04-11T07:06:36.343Z</time></trkpt><trkpt lat="44.7719272" lon="7.8198133"><ele>320.40000000000003</ele><time>2026-04-11T07:06:38.343Z</time></trkpt><trkpt lat="44.7719707" lon="7.8199515"><ele>321.20000000000005</ele><time>2026-04-11T07:06:40.343Z</time></trkpt><trkpt lat="44.771996" lon="7.8200851"><ele>322.0</ele><time>2026-04-11T07:06:42.343Z</time></trkpt><trkpt lat="44.7720182" lon="7.8202138"><ele>322.0</ele><time>2026-04-11T07:06:44.343Z</time></trkpt><trkpt lat="44.7720347" lon="7.8203571"><ele>322.0</ele><time>2026-04-11T07:06:46.343Z</time></trkpt><trkpt lat="44.7720068" lon="7.8204958"><ele>322.0</ele><time>2026-04-11T07:06:48.343Z</time></trkpt><trkpt lat="44.7719417" lon="7.8205975"><ele>322.0</ele><time>2026-04-11T07:06:50.343Z</time></trkpt><trkpt lat="44.7718546" lon="7.8206291"><ele>322.0</ele><time>2026-04-11T07:06:52.343Z</time></trkpt><trkpt lat="44.7717738" lon="7.8206617"><ele>322.0</ele><time>2026-04-11T07:06:54.343Z</time></trkpt><trkpt lat="44.7716973" lon="7.820712"><ele>322.0</ele><time>2026-04-11T07:06:56.343Z</time></trkpt><trkpt lat="44.7716315" lon="7.8207758"><ele>322.0</ele><time>2026-04-11T07:06:58.343Z</time></trkpt><trkpt lat="44.7715772" lon="7.8208651"><ele>322.0</ele><time>2026-04-11T07:07:00.343Z</time></trkpt><trkpt lat="44.77154" lon="7.8209655"><ele>322.0</ele><time>2026-04-11T07:07:02.343Z</time></trkpt><trkpt lat="44.7715211" lon="7.8210681"><ele>322.0</ele><time>2026-04-11T07:07:04.343Z</time></trkpt><trkpt lat="44.7715179" lon="7.8211674"><ele>322.0</ele><time>2026-04-11T07:07:06.343Z</time></trkpt><trkpt lat="44.7715216" lon="7.8212814"><ele>322.0</ele><time>2026-04-11T07:07:08.344Z</time></trkpt><trkpt lat="44.7715403" lon="7.8213984"><ele>322.0</ele><time>2026-04-11T07:07:10.343Z</time></trkpt><trkpt lat="44.771569" lon="7.8215322"><ele>322.0</ele><time>2026-04-11T07:07:12.343Z</time></trkpt><trkpt lat="44.7716048" lon="7.8216769"><ele>322.0</ele><time>2026-04-11T07:07:14.343Z</time></trkpt><trkpt lat="44.7716234" lon="7.8218434"><ele>321.8333333333333</ele><time>2026-04-11T07:07:16.343Z</time></trkpt><trkpt lat="44.7716319" lon="7.821934"><ele>321.66666666666663</ele><time>2026-04-11T07:07:17.343Z</time></trkpt><trkpt lat="44.7716536" lon="7.8221084"><ele>321.5</ele><time>2026-04-11T07:07:19.343Z</time></trkpt><trkpt lat="44.7716629" lon="7.8222007"><ele>321.3333333333333</ele><time>2026-04-11T07:07:20.343Z</time></trkpt><trkpt lat="44.7716721" lon="7.8222936"><ele>321.1666666666667</ele><time>2026-04-11T07:07:21.343Z</time></trkpt><trkpt lat="44.7716854" lon="7.8223904"><ele>321.0</ele><time>2026-04-11T07:07:22.343Z</time></trkpt><trkpt lat="44.7716951" lon="7.8224817"><ele>320.99999999999994</ele><time>2026-04-11T07:07:23.343Z</time></trkpt><trkpt lat="44.7717034" lon="7.8225779"><ele>321.0</ele><time>2026-04-11T07:07:24.343Z</time></trkpt><trkpt lat="44.7717133" lon="7.8226752"><ele>321.0</ele><time>2026-04-11T07:07:25.343Z</time></trkpt><trkpt lat="44.7717234" lon="7.8227731"><ele>321.0</ele><time>2026-04-11T07:07:26.343Z</time></trkpt><trkpt lat="44.7717253" lon="7.8228705"><ele>321.0</ele><time>2026-04-11T07:07:27.343Z</time></trkpt><trkpt lat="44.7717283" lon="7.8229708"><ele>320.99999999999994</ele><time>2026-04-11T07:07:28.343Z</time></trkpt><trkpt lat="44.771727" lon="7.8230692"><ele>321.0</ele><time>2026-04-11T07:07:29.344Z</time></trkpt><trkpt lat="44.771721" lon="7.823169"><ele>321.2857142857143</ele><time>2026-04-11T07:07:30.343Z</time></trkpt><trkpt lat="44.771711" lon="7.8232627"><ele>321.57142857142856</ele><time>2026-04-11T07:07:31.343Z</time></trkpt><trkpt lat="44.7717018" lon="7.8233538"><ele>321.8571428571429</ele><time>2026-04-11T07:07:32.343Z</time></trkpt><trkpt lat="44.7716804" lon="7.8234526"><ele>322.1428571428571</ele><time>2026-04-11T07:07:33.343Z</time></trkpt><trkpt lat="44.7716597" lon="7.8235487"><ele>322.42857142857144</ele><time>2026-04-11T07:07:34.344Z</time></trkpt><trkpt lat="44.771641" lon="7.8236367"><ele>322.7142857142857</ele><time>2026-04-11T07:07:35.343Z</time></trkpt><trkpt lat="44.7716203" lon="7.8237224"><ele>323.0</ele><time>2026-04-11T07:07:36.343Z</time></trkpt><trkpt lat="44.7715818" lon="7.8238885"><ele>323.0</ele><time>2026-04-11T07:07:38.343Z</time></trkpt><trkpt lat="44.7715594" lon="7.8239719"><ele>323.0</ele><time>2026-04-11T07:07:39.344Z</time></trkpt><trkpt lat="44.771513" lon="7.8241317"><ele>323.0</ele><time>2026-04-11T07:07:41.343Z</time></trkpt><trkpt lat="44.7714609" lon="7.8242758"><ele>323.0</ele><time>2026-04-11T07:07:43.343Z</time></trkpt><trkpt lat="44.7714177" lon="7.8244241"><ele>323.0</ele><time>2026-04-11T07:07:45.343Z</time></trkpt><trkpt lat="44.7713585" lon="7.8245691"><ele>322.75</ele><time>2026-04-11T07:07:47.343Z</time></trkpt><trkpt lat="44.771296" lon="7.8247137"><ele>322.5</ele><time>2026-04-11T07:07:49.343Z</time></trkpt><trkpt lat="44.7712353" lon="7.8248568"><ele>322.25</ele><time>2026-04-11T07:07:51.343Z</time></trkpt><trkpt lat="44.7711722" lon="7.8249959"><ele>322.0</ele><time>2026-04-11T07:07:53.343Z</time></trkpt><trkpt lat="44.7710985" lon="7.8251238"><ele>322.20000000000005</ele><time>2026-04-11T07:07:55.343Z</time></trkpt><trkpt lat="44.7710347" lon="7.8252474"><ele>322.4</ele><time>2026-04-11T07:07:57.343Z</time></trkpt><trkpt lat="44.7709891" lon="7.8253877"><ele>322.6</ele><time>2026-04-11T07:07:59.343Z</time></trkpt><trkpt lat="44.7709513" lon="7.8255225"><ele>322.79999999999995</ele><time>2026-04-11T07:08:01.344Z</time></trkpt><trkpt lat="44.7709008" lon="7.8256445"><ele>323.0</ele><time>2026-04-11T07:08:03.343Z</time></trkpt><trkpt lat="44.7708353" lon="7.8257445"><ele>323.5</ele><time>2026-04-11T07:08:05.343Z</time></trkpt><trkpt lat="44.7707749" lon="7.8258256"><ele>324.0</ele><time>2026-04-11T07:08:07.343Z</time></trkpt><trkpt lat="44.7706914" lon="7.8258744"><ele>324.5</ele><time>2026-04-11T07:08:09.343Z</time></trkpt><trkpt lat="44.7706213" lon="7.8259135"><ele>325.0</ele><time>2026-04-11T07:08:11.343Z</time></trkpt><trkpt lat="44.7705334" lon="7.8259398"><ele>325.5</ele><time>2026-04-11T07:08:13.343Z</time></trkpt><trkpt lat="44.7704393" lon="7.8259464"><ele>326.0</ele><time>2026-04-11T07:08:15.343Z</time></trkpt><trkpt lat="44.7703529" lon="7.8259536"><ele>326.0</ele><time>2026-04-11T07:08:17.343Z</time></trkpt><trkpt lat="44.7702666" lon="7.8259675"><ele>326.0</ele><time>2026-04-11T07:08:19.343Z</time></trkpt><trkpt lat="44.7701764" lon="7.8259857"><ele>326.0</ele><time>2026-04-11T07:08:21.343Z</time></trkpt><trkpt lat="44.7700752" lon="7.8260107"><ele>326.0</ele><time>2026-04-11T07:08:23.343Z</time></trkpt><trkpt lat="44.7699784" lon="7.826047"><ele>326.0</ele><time>2026-04-11T07:08:25.343Z</time></trkpt><trkpt lat="44.7698776" lon="7.8260713"><ele>326.6</ele><time>2026-04-11T07:08:27.343Z</time></trkpt><trkpt lat="44.7697739" lon="7.8260915"><ele>327.20000000000005</ele><time>2026-04-11T07:08:29.343Z</time></trkpt><trkpt lat="44.7696732" lon="7.8260998"><ele>327.79999999999995</ele><time>2026-04-11T07:08:31.343Z</time></trkpt><trkpt lat="44.769573" lon="7.8261125"><ele>328.4</ele><time>2026-04-11T07:08:33.343Z</time></trkpt><trkpt lat="44.7694685" lon="7.8261358"><ele>329.0</ele><time>2026-04-11T07:08:35.343Z</time></trkpt><trkpt lat="44.7693656" lon="7.8261561"><ele>329.25</ele><time>2026-04-11T07:08:37.343Z</time></trkpt><trkpt lat="44.7692548" lon="7.8261671"><ele>329.5</ele><time>2026-04-11T07:08:39.343Z</time></trkpt><trkpt lat="44.7691441" lon="7.8261842"><ele>329.75</ele><time>2026-04-11T07:08:41.343Z</time></trkpt><trkpt lat="44.7690325" lon="7.826226"><ele>330.0</ele><time>2026-04-11T07:08:43.343Z</time></trkpt><trkpt lat="44.7689384" lon="7.8263143"><ele>330.0</ele><time>2026-04-11T07:08:45.343Z</time></trkpt><trkpt lat="44.7688948" lon="7.8264592"><ele>330.0</ele><time>2026-04-11T07:08:47.343Z</time></trkpt><trkpt lat="44.7688911" lon="7.8266022"><ele>330.0</ele><time>2026-04-11T07:08:49.343Z</time></trkpt><trkpt lat="44.7689416" lon="7.8267261"><ele>330.0</ele><time>2026-04-11T07:08:51.343Z</time></trkpt><trkpt lat="44.7689856" lon="7.8268396"><ele>330.0</ele><time>2026-04-11T07:08:53.343Z</time></trkpt><trkpt lat="44.7690855" lon="7.8269336"><ele>330.2</ele><time>2026-04-11T07:08:55.343Z</time></trkpt><trkpt lat="44.7691403" lon="7.827061"><ele>330.4</ele><time>2026-04-11T07:08:57.344Z</time></trkpt><trkpt lat="44.7691769" lon="7.827188"><ele>330.6</ele><time>2026-04-11T07:08:59.343Z</time></trkpt><trkpt lat="44.7692029" lon="7.8273142"><ele>330.8</ele><time>2026-04-11T07:09:01.343Z</time></trkpt><trkpt lat="44.7692203" lon="7.8274519"><ele>331.0</ele><time>2026-04-11T07:09:03.343Z</time></trkpt><trkpt lat="44.7692339" lon="7.8275878"><ele>330.8</ele><time>2026-04-11T07:09:05.343Z</time></trkpt><trkpt lat="44.769259" lon="7.8277167"><ele>330.6</ele><time>2026-04-11T07:09:07.343Z</time></trkpt><trkpt lat="44.7692775" lon="7.8278538"><ele>330.4</ele><time>2026-04-11T07:09:09.343Z</time></trkpt><trkpt lat="44.7693055" lon="7.8280179"><ele>330.2</ele><time>2026-04-11T07:09:11.343Z</time></trkpt><trkpt lat="44.7693235" lon="7.8281984"><ele>330.0</ele><time>2026-04-11T07:09:13.343Z</time></trkpt><trkpt lat="44.7693413" lon="7.8282908"><ele>330.00000000000006</ele><time>2026-04-11T07:09:14.343Z</time></trkpt><trkpt lat="44.7693625" lon="7.8283861"><ele>330.0</ele><time>2026-04-11T07:09:15.343Z</time></trkpt><trkpt lat="44.7693781" lon="7.8284826"><ele>330.0</ele><time>2026-04-11T07:09:16.343Z</time></trkpt><trkpt lat="44.7694002" lon="7.8285797"><ele>330.0</ele><time>2026-04-11T07:09:17.343Z</time></trkpt><trkpt lat="44.769421" lon="7.828682"><ele>330.0</ele><time>2026-04-11T07:09:18.343Z</time></trkpt><trkpt lat="44.769445" lon="7.8287844"><ele>330.00000000000006</ele><time>2026-04-11T07:09:19.343Z</time></trkpt><trkpt lat="44.7694633" lon="7.8288974"><ele>330.0</ele><time>2026-04-11T07:09:20.343Z</time></trkpt><trkpt lat="44.7694796" lon="7.8290039"><ele>329.6666666666667</ele><time>2026-04-11T07:09:21.343Z</time></trkpt><trkpt lat="44.7694999" lon="7.8291046"><ele>329.3333333333333</ele><time>2026-04-11T07:09:22.343Z</time></trkpt><trkpt lat="44.7695243" lon="7.829213"><ele>329.0</ele><time>2026-04-11T07:09:23.343Z</time></trkpt><trkpt lat="44.7695396" lon="7.8293104"><ele>328.66666666666663</ele><time>2026-04-11T07:09:24.343Z</time></trkpt><trkpt lat="44.7695583" lon="7.8294142"><ele>328.3333333333333</ele><time>2026-04-11T07:09:25.343Z</time></trkpt><trkpt lat="44.7695729" lon="7.8295147"><ele>328.0</ele><time>2026-04-11T07:09:26.343Z</time></trkpt><trkpt lat="44.7695892" lon="7.8296227"><ele>327.99999999999994</ele><time>2026-04-11T07:09:27.343Z</time></trkpt><trkpt lat="44.7696008" lon="7.8297238"><ele>328.0</ele><time>2026-04-11T07:09:28.343Z</time></trkpt><trkpt lat="44.7696131" lon="7.8298247"><ele>328.0</ele><time>2026-04-11T07:09:29.343Z</time></trkpt><trkpt lat="44.7696281" lon="7.8299278"><ele>328.0</ele><time>2026-04-11T07:09:30.343Z</time></trkpt><trkpt lat="44.7696415" lon="7.8300308"><ele>328.0</ele><time>2026-04-11T07:09:31.343Z</time></trkpt><trkpt lat="44.7696542" lon="7.830134"><ele>327.99999999999994</ele><time>2026-04-11T07:09:32.343Z</time></trkpt><trkpt lat="44.7696652" lon="7.8302345"><ele>328.0</ele><time>2026-04-11T07:09:33.343Z</time></trkpt><trkpt lat="44.7696694" lon="7.8303282"><ele>328.3333333333333</ele><time>2026-04-11T07:09:34.343Z</time></trkpt><trkpt lat="44.7696672" lon="7.8304245"><ele>328.66666666666663</ele><time>2026-04-11T07:09:35.343Z</time></trkpt><trkpt lat="44.7696489" lon="7.8305205"><ele>329.0</ele><time>2026-04-11T07:09:36.343Z</time></trkpt><trkpt lat="44.7696205" lon="7.8306092"><ele>329.3333333333333</ele><time>2026-04-11T07:09:37.343Z</time></trkpt><trkpt lat="44.7695775" lon="7.8306802"><ele>329.6666666666667</ele><time>2026-04-11T07:09:38.343Z</time></trkpt><trkpt lat="44.7694781" lon="7.8307663"><ele>330.0</ele><time>2026-04-11T07:09:40.343Z</time></trkpt><trkpt lat="44.7693691" lon="7.830822"><ele>329.75</ele><time>2026-04-11T07:09:42.343Z</time></trkpt><trkpt lat="44.7692606" lon="7.8308709"><ele>329.5</ele><time>2026-04-11T07:09:44.343Z</time></trkpt><trkpt lat="44.7691504" lon="7.8309333"><ele>329.25</ele><time>2026-04-11T07:09:46.343Z</time></trkpt><trkpt lat="44.7690397" lon="7.8310115"><ele>329.0</ele><time>2026-04-11T07:09:48.343Z</time></trkpt><trkpt lat="44.7689313" lon="7.8310788"><ele>329.0</ele><time>2026-04-11T07:09:50.343Z</time></trkpt><trkpt lat="44.7688195" lon="7.831147"><ele>329.0</ele><time>2026-04-11T07:09:52.343Z</time></trkpt><trkpt lat="44.7687172" lon="7.8312115"><ele>329.0</ele><time>2026-04-11T07:09:54.343Z</time></trkpt><trkpt lat="44.7686174" lon="7.8312768"><ele>329.0</ele><time>2026-04-11T07:09:56.343Z</time></trkpt><trkpt lat="44.7685117" lon="7.8313434"><ele>329.5</ele><time>2026-04-11T07:09:58.343Z</time></trkpt><trkpt lat="44.7684096" lon="7.8314076"><ele>330.0</ele><time>2026-04-11T07:10:00.343Z</time></trkpt><trkpt lat="44.7683032" lon="7.8314753"><ele>330.5</ele><time>2026-04-11T07:10:02.343Z</time></trkpt><trkpt lat="44.7682023" lon="7.8315544"><ele>331.0</ele><time>2026-04-11T07:10:04.343Z</time></trkpt><trkpt lat="44.7680978" lon="7.8316365"><ele>331.0</ele><time>2026-04-11T07:10:06.343Z</time></trkpt><trkpt lat="44.7680054" lon="7.8317193"><ele>331.0</ele><time>2026-04-11T07:10:08.343Z</time></trkpt><trkpt lat="44.7679147" lon="7.8318097"><ele>331.0</ele><time>2026-04-11T07:10:10.343Z</time></trkpt><trkpt lat="44.7678261" lon="7.8319269"><ele>331.0</ele><time>2026-04-11T07:10:12.343Z</time></trkpt><trkpt lat="44.7677404" lon="7.8320487"><ele>331.5</ele><time>2026-04-11T07:10:14.343Z</time></trkpt><trkpt lat="44.7676612" lon="7.8321629"><ele>332.0</ele><time>2026-04-11T07:10:16.343Z</time></trkpt><trkpt lat="44.7675802" lon="7.8322837"><ele>332.5</ele><time>2026-04-11T07:10:18.343Z</time></trkpt><trkpt lat="44.7675021" lon="7.8324057"><ele>333.0</ele><time>2026-04-11T07:10:20.343Z</time></trkpt><trkpt lat="44.7674262" lon="7.8325249"><ele>333.25</ele><time>2026-04-11T07:10:22.343Z</time></trkpt><trkpt lat="44.7673494" lon="7.8326399"><ele>333.5</ele><time>2026-04-11T07:10:24.343Z</time></trkpt><trkpt lat="44.7672778" lon="7.8327596"><ele>333.75</ele><time>2026-04-11T07:10:26.343Z</time></trkpt><trkpt lat="44.7672267" lon="7.8329073"><ele>334.0</ele><time>2026-04-11T07:10:28.343Z</time></trkpt><trkpt lat="44.7672165" lon="7.8330779"><ele>334.0</ele><time>2026-04-11T07:10:30.343Z</time></trkpt><trkpt lat="44.7672312" lon="7.83324"><ele>334.0</ele><time>2026-04-11T07:10:32.343Z</time></trkpt><trkpt lat="44.7672659" lon="7.8333991"><ele>334.0</ele><time>2026-04-11T07:10:34.343Z</time></trkpt><trkpt lat="44.7672722" lon="7.8334886"><ele>334.0</ele><time>2026-04-11T07:10:35.343Z</time></trkpt><trkpt lat="44.7672714" lon="7.8336451"><ele>334.0</ele><time>2026-04-11T07:10:37.343Z</time></trkpt><trkpt lat="44.7672766" lon="7.8338182"><ele>334.75</ele><time>2026-04-11T07:10:39.343Z</time></trkpt><trkpt lat="44.7672842" lon="7.8339867"><ele>335.5</ele><time>2026-04-11T07:10:41.343Z</time></trkpt><trkpt lat="44.7672896" lon="7.8341501"><ele>336.25</ele><time>2026-04-11T07:10:43.343Z</time></trkpt><trkpt lat="44.7672932" lon="7.8343173"><ele>337.0</ele><time>2026-04-11T07:10:45.343Z</time></trkpt><trkpt lat="44.7672781" lon="7.8344833"><ele>337.0</ele><time>2026-04-11T07:10:47.343Z</time></trkpt><trkpt lat="44.7672563" lon="7.8346407"><ele>337.0</ele><time>2026-04-11T07:10:49.343Z</time></trkpt><trkpt lat="44.7672391" lon="7.8347992"><ele>337.0</ele><time>2026-04-11T07:10:51.344Z</time></trkpt><trkpt lat="44.7672335" lon="7.8349524"><ele>337.0</ele><time>2026-04-11T07:10:53.344Z</time></trkpt><trkpt lat="44.7672311" lon="7.8351061"><ele>337.0</ele><time>2026-04-11T07:10:55.35Z</time></trkpt><trkpt lat="44.7672213" lon="7.835262"><ele>337.0</ele><time>2026-04-11T07:10:57.35Z</time></trkpt><trkpt lat="44.767196" lon="7.8354136"><ele>337.0</ele><time>2026-04-11T07:10:59.35Z</time></trkpt><trkpt lat="44.7671731" lon="7.8355681"><ele>337.0</ele><time>2026-04-11T07:11:01.35Z</time></trkpt><trkpt lat="44.7671772" lon="7.8356612"><ele>337.0</ele><time>2026-04-11T07:11:02.35Z</time></trkpt><trkpt lat="44.7671737" lon="7.8357502"><ele>337.0</ele><time>2026-04-11T07:11:03.35Z</time></trkpt><trkpt lat="44.7671637" lon="7.8359135"><ele>337.0</ele><time>2026-04-11T07:11:05.35Z</time></trkpt><trkpt lat="44.7671454" lon="7.8360731"><ele>337.0</ele><time>2026-04-11T07:11:07.35Z</time></trkpt><trkpt lat="44.7671212" lon="7.8362342"><ele>337.0</ele><time>2026-04-11T07:11:09.35Z</time></trkpt><trkpt lat="44.7671201" lon="7.8363309"><ele>337.0</ele><time>2026-04-11T07:11:10.35Z</time></trkpt><trkpt lat="44.7671214" lon="7.8364222"><ele>337.0</ele><time>2026-04-11T07:11:11.35Z</time></trkpt><trkpt lat="44.7671187" lon="7.8365942"><ele>337.0</ele><time>2026-04-11T07:11:13.35Z</time></trkpt><trkpt lat="44.7671048" lon="7.836755"><ele>337.0</ele><time>2026-04-11T07:11:15.35Z</time></trkpt><trkpt lat="44.7671146" lon="7.8369034"><ele>337.0</ele><time>2026-04-11T07:11:17.35Z</time></trkpt><trkpt lat="44.7671305" lon="7.8370396"><ele>337.0</ele><time>2026-04-11T07:11:19.35Z</time></trkpt><trkpt lat="44.7671641" lon="7.8371596"><ele>337.0</ele><time>2026-04-11T07:11:21.35Z</time></trkpt><trkpt lat="44.7672184" lon="7.8372712"><ele>336.66666666666663</ele><time>2026-04-11T07:11:23.35Z</time></trkpt><trkpt lat="44.7672934" lon="7.8373666"><ele>336.3333333333333</ele><time>2026-04-11T07:11:25.35Z</time></trkpt><trkpt lat="44.7673628" lon="7.8374995"><ele>336.0</ele><time>2026-04-11T07:11:27.35Z</time></trkpt><trkpt lat="44.7673908" lon="7.8375805"><ele>335.6666666666667</ele><time>2026-04-11T07:11:28.351Z</time></trkpt><trkpt lat="44.7674227" lon="7.8376705"><ele>335.33333333333337</ele><time>2026-04-11T07:11:29.35Z</time></trkpt><trkpt lat="44.7674625" lon="7.8377675"><ele>335.0</ele><time>2026-04-11T07:11:30.35Z</time></trkpt><trkpt lat="44.7675127" lon="7.8378647"><ele>334.6</ele><time>2026-04-11T07:11:31.35Z</time></trkpt><trkpt lat="44.7675667" lon="7.8379666"><ele>334.2</ele><time>2026-04-11T07:11:32.35Z</time></trkpt><trkpt lat="44.7676305" lon="7.8380654"><ele>333.79999999999995</ele><time>2026-04-11T07:11:33.35Z</time></trkpt><trkpt lat="44.767697" lon="7.8381675"><ele>333.4</ele><time>2026-04-11T07:11:34.35Z</time></trkpt><trkpt lat="44.7677699" lon="7.8382623"><ele>333.0</ele><time>2026-04-11T07:11:35.35Z</time></trkpt><trkpt lat="44.7678484" lon="7.8383559"><ele>332.0</ele><time>2026-04-11T07:11:36.35Z</time></trkpt><trkpt lat="44.7679312" lon="7.8384451"><ele>331.0</ele><time>2026-04-11T07:11:37.35Z</time></trkpt><trkpt lat="44.7680165" lon="7.8385301"><ele>330.0</ele><time>2026-04-11T07:11:38.35Z</time></trkpt><trkpt lat="44.7681008" lon="7.8386102"><ele>329.0</ele><time>2026-04-11T07:11:39.35Z</time></trkpt><trkpt lat="44.7681865" lon="7.8386905"><ele>328.0</ele><time>2026-04-11T07:11:40.35Z</time></trkpt><trkpt lat="44.7682742" lon="7.8387796"><ele>328.0</ele><time>2026-04-11T07:11:41.35Z</time></trkpt><trkpt lat="44.7683512" lon="7.8388698"><ele>328.0</ele><time>2026-04-11T07:11:42.35Z</time></trkpt><trkpt lat="44.7684159" lon="7.8389796"><ele>328.0</ele><time>2026-04-11T07:11:43.35Z</time></trkpt><trkpt lat="44.7684412" lon="7.8391076"><ele>328.0</ele><time>2026-04-11T07:11:44.351Z</time></trkpt><trkpt lat="44.7684414" lon="7.8392334"><ele>328.0</ele><time>2026-04-11T07:11:45.35Z</time></trkpt><trkpt lat="44.7684233" lon="7.8393515"><ele>328.66666666666663</ele><time>2026-04-11T07:11:46.351Z</time></trkpt><trkpt lat="44.7683991" lon="7.8394655"><ele>329.3333333333333</ele><time>2026-04-11T07:11:47.351Z</time></trkpt><trkpt lat="44.7683746" lon="7.8395704"><ele>330.0</ele><time>2026-04-11T07:11:48.351Z</time></trkpt><trkpt lat="44.7683678" lon="7.8396836"><ele>330.6666666666667</ele><time>2026-04-11T07:11:49.351Z</time></trkpt><trkpt lat="44.7683449" lon="7.8397972"><ele>331.33333333333337</ele><time>2026-04-11T07:11:50.351Z</time></trkpt><trkpt lat="44.7683274" lon="7.8398958"><ele>332.0</ele><time>2026-04-11T07:11:51.351Z</time></trkpt><trkpt lat="44.7683076" lon="7.8399876"><ele>332.6</ele><time>2026-04-11T07:11:52.351Z</time></trkpt><trkpt lat="44.7682566" lon="7.8401401"><ele>333.20000000000005</ele><time>2026-04-11T07:11:54.351Z</time></trkpt><trkpt lat="44.7682073" lon="7.8402642"><ele>333.8</ele><time>2026-04-11T07:11:56.351Z</time></trkpt><trkpt lat="44.7681403" lon="7.8403702"><ele>334.4</ele><time>2026-04-11T07:11:58.351Z</time></trkpt><trkpt lat="44.7680564" lon="7.8404764"><ele>335.0</ele><time>2026-04-11T07:12:00.351Z</time></trkpt><trkpt lat="44.7679815" lon="7.8405991"><ele>335.0</ele><time>2026-04-11T07:12:02.351Z</time></trkpt><trkpt lat="44.7679465" lon="7.8406763"><ele>335.0</ele><time>2026-04-11T07:12:03.351Z</time></trkpt><trkpt lat="44.7678788" lon="7.8407975"><ele>335.0</ele><time>2026-04-11T07:12:05.351Z</time></trkpt><trkpt lat="44.767806" lon="7.8408971"><ele>335.0</ele><time>2026-04-11T07:12:07.351Z</time></trkpt><trkpt lat="44.767737" lon="7.8409941"><ele>335.0</ele><time>2026-04-11T07:12:09.351Z</time></trkpt><trkpt lat="44.7676616" lon="7.8411074"><ele>335.6</ele><time>2026-04-11T07:12:11.351Z</time></trkpt><trkpt lat="44.7676231" lon="7.8412349"><ele>336.2</ele><time>2026-04-11T07:12:13.351Z</time></trkpt><trkpt lat="44.7676139" lon="7.8413934"><ele>336.79999999999995</ele><time>2026-04-11T07:12:15.351Z</time></trkpt><trkpt lat="44.7676311" lon="7.8415282"><ele>337.4</ele><time>2026-04-11T07:12:17.351Z</time></trkpt><trkpt lat="44.7676259" lon="7.8416588"><ele>338.0</ele><time>2026-04-11T07:12:19.351Z</time></trkpt><trkpt lat="44.7676451" lon="7.8417838"><ele>338.0</ele><time>2026-04-11T07:12:21.351Z</time></trkpt><trkpt lat="44.767668" lon="7.8418927"><ele>338.0</ele><time>2026-04-11T07:12:23.351Z</time></trkpt><trkpt lat="44.7677026" lon="7.8419943"><ele>338.0</ele><time>2026-04-11T07:12:25.351Z</time></trkpt><trkpt lat="44.7677485" lon="7.8420845"><ele>338.0</ele><time>2026-04-11T07:12:27.352Z</time></trkpt><trkpt lat="44.7677781" lon="7.8421719"><ele>338.0</ele><time>2026-04-11T07:12:29.351Z</time></trkpt><trkpt lat="44.7678053" lon="7.842255"><ele>338.0</ele><time>2026-04-11T07:12:31.352Z</time></trkpt><trkpt lat="44.7678312" lon="7.8423365"><ele>338.0</ele><time>2026-04-11T07:12:33.351Z</time></trkpt><trkpt lat="44.7678584" lon="7.8424545"><ele>338.0</ele><time>2026-04-11T07:12:36.351Z</time></trkpt><trkpt lat="44.7678897" lon="7.8425659"><ele>338.0</ele><time>2026-04-11T07:12:39.351Z</time></trkpt><trkpt lat="44.7679153" lon="7.8426532"><ele>338.0</ele><time>2026-04-11T07:12:41.351Z</time></trkpt><trkpt lat="44.7679432" lon="7.8427742"><ele>338.0</ele><time>2026-04-11T07:12:44.351Z</time></trkpt><trkpt lat="44.7679685" lon="7.8428569"><ele>338.0</ele><time>2026-04-11T07:12:46.351Z</time></trkpt><trkpt lat="44.7679733" lon="7.8429869"><ele>338.0</ele><time>2026-04-11T07:12:49.351Z</time></trkpt><trkpt lat="44.7679431" lon="7.8430677"><ele>338.1666666666667</ele><time>2026-04-11T07:12:51.351Z</time></trkpt><trkpt lat="44.7679004" lon="7.843146"><ele>338.33333333333337</ele><time>2026-04-11T07:12:53.351Z</time></trkpt><trkpt lat="44.7678574" lon="7.8432271"><ele>338.5</ele><time>2026-04-11T07:12:55.351Z</time></trkpt><trkpt lat="44.7678012" lon="7.8433083"><ele>338.6666666666667</ele><time>2026-04-11T07:12:57.351Z</time></trkpt><trkpt lat="44.7677335" lon="7.8433636"><ele>338.8333333333333</ele><time>2026-04-11T07:12:59.351Z</time></trkpt><trkpt lat="44.76766" lon="7.8434142"><ele>339.0</ele><time>2026-04-11T07:13:01.351Z</time></trkpt><trkpt lat="44.767587" lon="7.8434742"><ele>339.3333333333333</ele><time>2026-04-11T07:13:03.351Z</time></trkpt><trkpt lat="44.7675136" lon="7.8435445"><ele>339.6666666666667</ele><time>2026-04-11T07:13:05.351Z</time></trkpt><trkpt lat="44.7674468" lon="7.8436108"><ele>340.0</ele><time>2026-04-11T07:13:07.351Z</time></trkpt><trkpt lat="44.7673758" lon="7.8436712"><ele>340.33333333333337</ele><time>2026-04-11T07:13:09.351Z</time></trkpt><trkpt lat="44.767305" lon="7.8437436"><ele>340.6666666666667</ele><time>2026-04-11T07:13:11.351Z</time></trkpt><trkpt lat="44.7672417" lon="7.8438174"><ele>341.0</ele><time>2026-04-11T07:13:13.351Z</time></trkpt><trkpt lat="44.7671693" lon="7.8438886"><ele>341.0</ele><time>2026-04-11T07:13:15.351Z</time></trkpt><trkpt lat="44.7670957" lon="7.8439542"><ele>341.0</ele><time>2026-04-11T07:13:17.351Z</time></trkpt><trkpt lat="44.7670278" lon="7.8440229"><ele>341.0</ele><time>2026-04-11T07:13:19.351Z</time></trkpt></trkseg><trkseg><trkpt lat="44.6773204" lon="7.9186805"><ele>202.0</ele><time>2026-04-11T08:03:01.408Z</time></trkpt><trkpt lat="44.6772461" lon="7.9186858"><ele>202.0</ele><time>2026-04-11T08:03:05.408Z</time></trkpt><trkpt lat="44.6771757" lon="7.9186754"><ele>202.0</ele><time>2026-04-11T08:03:08.408Z</time></trkpt><trkpt lat="44.6771126" lon="7.9186562"><ele>202.0</ele><time>2026-04-11T08:03:11.408Z</time></trkpt><trkpt lat="44.6770373" lon="7.9186257"><ele>202.0</ele><time>2026-04-11T08:03:14.408Z</time></trkpt><trkpt lat="44.676978" lon="7.9185649"><ele>202.0</ele><time>2026-04-11T08:03:18.408Z</time></trkpt><trkpt lat="44.6769146" lon="7.9185235"><ele>202.0</ele><time>2026-04-11T08:03:21.408Z</time></trkpt><trkpt lat="44.6768695" lon="7.9184432"><ele>203.0</ele><time>2026-04-11T08:03:25.408Z</time></trkpt><trkpt lat="44.6768013" lon="7.918375"><ele>204.0</ele><time>2026-04-11T08:03:29.408Z</time></trkpt><trkpt lat="44.6767527" lon="7.918318"><ele>205.0</ele><time>2026-04-11T08:03:32.408Z</time></trkpt><trkpt lat="44.676696" lon="7.9182676"><ele>206.0</ele><time>2026-04-11T08:03:35.408Z</time></trkpt><trkpt lat="44.6766237" lon="7.9182102"><ele>207.0</ele><time>2026-04-11T08:03:39.408Z</time></trkpt><trkpt lat="44.6765639" lon="7.9181554"><ele>208.0</ele><time>2026-04-11T08:03:42.408Z</time></trkpt><trkpt lat="44.6765107" lon="7.9180829"><ele>209.0</ele><time>2026-04-11T08:03:45.408Z</time></trkpt><trkpt lat="44.6764666" lon="7.918016"><ele>209.00000000000003</ele><time>2026-04-11T08:03:48.408Z</time></trkpt><trkpt lat="44.6764186" lon="7.9179485"><ele>209.0</ele><time>2026-04-11T08:03:51.408Z</time></trkpt><trkpt lat="44.676345" lon="7.9178944"><ele>209.0</ele><time>2026-04-11T08:03:54.408Z</time></trkpt><trkpt lat="44.6762927" lon="7.9178311"><ele>209.0</ele><time>2026-04-11T08:03:57.408Z</time></trkpt><trkpt lat="44.6762147" lon="7.9177726"><ele>209.00000000000003</ele><time>2026-04-11T08:04:01.408Z</time></trkpt><trkpt lat="44.6761555" lon="7.9177165"><ele>209.0</ele><time>2026-04-11T08:04:04.408Z</time></trkpt><trkpt lat="44.6761067" lon="7.917642"><ele>210.33333333333334</ele><time>2026-04-11T08:04:07.408Z</time></trkpt><trkpt lat="44.6760577" lon="7.9175736"><ele>211.66666666666669</ele><time>2026-04-11T08:04:10.408Z</time></trkpt><trkpt lat="44.6760094" lon="7.9175115"><ele>213.0</ele><time>2026-04-11T08:04:13.408Z</time></trkpt><trkpt lat="44.6759397" lon="7.9174658"><ele>214.33333333333331</ele><time>2026-04-11T08:04:16.409Z</time></trkpt><trkpt lat="44.6758799" lon="7.9173901"><ele>215.66666666666666</ele><time>2026-04-11T08:04:19.408Z</time></trkpt><trkpt lat="44.6758169" lon="7.9173286"><ele>217.0</ele><time>2026-04-11T08:04:22.408Z</time></trkpt><trkpt lat="44.6757496" lon="7.9172608"><ele>216.99999999999997</ele><time>2026-04-11T08:04:25.408Z</time></trkpt><trkpt lat="44.6756835" lon="7.9171845"><ele>217.0</ele><time>2026-04-11T08:04:28.408Z</time></trkpt><trkpt lat="44.6756149" lon="7.9171152"><ele>217.0</ele><time>2026-04-11T08:04:32.408Z</time></trkpt><trkpt lat="44.6755587" lon="7.9170308"><ele>217.0</ele><time>2026-04-11T08:04:35.408Z</time></trkpt><trkpt lat="44.6754853" lon="7.9169561"><ele>216.99999999999997</ele><time>2026-04-11T08:04:39.408Z</time></trkpt><trkpt lat="44.6754196" lon="7.9168759"><ele>217.0</ele><time>2026-04-11T08:04:42.408Z</time></trkpt><trkpt lat="44.6753634" lon="7.9168274"><ele>216.99999999999997</ele><time>2026-04-11T08:04:44.408Z</time></trkpt><trkpt lat="44.6752995" lon="7.9167462"><ele>217.0</ele><time>2026-04-11T08:04:47.408Z</time></trkpt><trkpt lat="44.6752334" lon="7.9166715"><ele>217.0</ele><time>2026-04-11T08:04:50.409Z</time></trkpt><trkpt lat="44.6751662" lon="7.9165985"><ele>217.0</ele><time>2026-04-11T08:04:53.408Z</time></trkpt><trkpt lat="44.675095" lon="7.9165308"><ele>216.99999999999997</ele><time>2026-04-11T08:04:56.408Z</time></trkpt><trkpt lat="44.6750401" lon="7.9164604"><ele>217.0</ele><time>2026-04-11T08:04:59.408Z</time></trkpt><trkpt lat="44.6749721" lon="7.9163767"><ele>217.99999999999997</ele><time>2026-04-11T08:05:02.408Z</time></trkpt><trkpt lat="44.6748938" lon="7.9163031"><ele>219.0</ele><time>2026-04-11T08:05:05.408Z</time></trkpt><trkpt lat="44.6748256" lon="7.9162348"><ele>220.0</ele><time>2026-04-11T08:05:08.414Z</time></trkpt><trkpt lat="44.6747564" lon="7.9161636"><ele>221.0</ele><time>2026-04-11T08:05:11.414Z</time></trkpt><trkpt lat="44.6746803" lon="7.9160835"><ele>221.99999999999997</ele><time>2026-04-11T08:05:14.414Z</time></trkpt><trkpt lat="44.6746072" lon="7.9160493"><ele>223.0</ele><time>2026-04-11T08:05:16.414Z</time></trkpt><trkpt lat="44.6745354" lon="7.9159626"><ele>222.83333333333331</ele><time>2026-04-11T08:05:19.414Z</time></trkpt><trkpt lat="44.6744928" lon="7.9158859"><ele>222.66666666666666</ele><time>2026-04-11T08:05:21.414Z</time></trkpt><trkpt lat="44.6744524" lon="7.9158032"><ele>222.5</ele><time>2026-04-11T08:05:23.414Z</time></trkpt><trkpt lat="44.6744135" lon="7.9157186"><ele>222.33333333333331</ele><time>2026-04-11T08:05:25.414Z</time></trkpt><trkpt lat="44.6743736" lon="7.9156295"><ele>222.16666666666666</ele><time>2026-04-11T08:05:27.414Z</time></trkpt><trkpt lat="44.6743341" lon="7.915529"><ele>222.0</ele><time>2026-04-11T08:05:29.414Z</time></trkpt><trkpt lat="44.6742966" lon="7.9154282"><ele>223.39999999999998</ele><time>2026-04-11T08:05:31.414Z</time></trkpt><trkpt lat="44.6742585" lon="7.9153202"><ele>224.79999999999998</ele><time>2026-04-11T08:05:33.414Z</time></trkpt><trkpt lat="44.6742257" lon="7.9152131"><ele>226.2</ele><time>2026-04-11T08:05:35.414Z</time></trkpt><trkpt lat="44.6741884" lon="7.9150957"><ele>227.6</ele><time>2026-04-11T08:05:37.414Z</time></trkpt><trkpt lat="44.6741476" lon="7.9149726"><ele>229.0</ele><time>2026-04-11T08:05:39.414Z</time></trkpt><trkpt lat="44.6741075" lon="7.9148517"><ele>229.0</ele><time>2026-04-11T08:05:41.414Z</time></trkpt><trkpt lat="44.674065" lon="7.9147247"><ele>228.99999999999997</ele><time>2026-04-11T08:05:43.414Z</time></trkpt><trkpt lat="44.6740231" lon="7.9145995"><ele>228.99999999999997</ele><time>2026-04-11T08:05:45.414Z</time></trkpt><trkpt lat="44.6739912" lon="7.9144754"><ele>229.0</ele><time>2026-04-11T08:05:47.414Z</time></trkpt><trkpt lat="44.6739535" lon="7.9143612"><ele>229.0</ele><time>2026-04-11T08:05:49.414Z</time></trkpt><trkpt lat="44.6739161" lon="7.9142568"><ele>229.16666666666666</ele><time>2026-04-11T08:05:51.414Z</time></trkpt><trkpt lat="44.6738779" lon="7.9141609"><ele>229.33333333333331</ele><time>2026-04-11T08:05:53.414Z</time></trkpt><trkpt lat="44.6738419" lon="7.9140766"><ele>229.5</ele><time>2026-04-11T08:05:55.414Z</time></trkpt><trkpt lat="44.673799" lon="7.9139793"><ele>229.66666666666669</ele><time>2026-04-11T08:05:57.414Z</time></trkpt><trkpt lat="44.6737352" lon="7.9138782"><ele>229.83333333333334</ele><time>2026-04-11T08:06:00.414Z</time></trkpt><trkpt lat="44.6737042" lon="7.9137941"><ele>230.0</ele><time>2026-04-11T08:06:02.414Z</time></trkpt><trkpt lat="44.6736314" lon="7.9137408"><ele>230.66666666666669</ele><time>2026-04-11T08:06:04.414Z</time></trkpt><trkpt lat="44.6735779" lon="7.9136756"><ele>231.33333333333334</ele><time>2026-04-11T08:06:06.414Z</time></trkpt><trkpt lat="44.6735157" lon="7.9135765"><ele>232.0</ele><time>2026-04-11T08:06:09.414Z</time></trkpt><trkpt lat="44.6734682" lon="7.9135181"><ele>232.66666666666669</ele><time>2026-04-11T08:06:11.415Z</time></trkpt><trkpt lat="44.6734194" lon="7.9134415"><ele>233.33333333333334</ele><time>2026-04-11T08:06:13.414Z</time></trkpt><trkpt lat="44.6733611" lon="7.9133744"><ele>234.0</ele><time>2026-04-11T08:06:15.414Z</time></trkpt><trkpt lat="44.673313" lon="7.9132576"><ele>234.0</ele><time>2026-04-11T08:06:17.414Z</time></trkpt><trkpt lat="44.6732447" lon="7.9131429"><ele>234.0</ele><time>2026-04-11T08:06:19.414Z</time></trkpt><trkpt lat="44.6731779" lon="7.9130083"><ele>234.0</ele><time>2026-04-11T08:06:21.414Z</time></trkpt><trkpt lat="44.6731133" lon="7.9128662"><ele>234.0</ele><time>2026-04-11T08:06:23.414Z</time></trkpt><trkpt lat="44.673047" lon="7.9127306"><ele>234.0</ele><time>2026-04-11T08:06:25.414Z</time></trkpt><trkpt lat="44.6729847" lon="7.9125917"><ele>233.99999999999997</ele><time>2026-04-11T08:06:27.414Z</time></trkpt><trkpt lat="44.6729274" lon="7.9124433"><ele>233.99999999999997</ele><time>2026-04-11T08:06:29.415Z</time></trkpt><trkpt lat="44.6728781" lon="7.9123327"><ele>234.0</ele><time>2026-04-11T08:06:31.414Z</time></trkpt><trkpt lat="44.6728292" lon="7.9122291"><ele>234.0</ele><time>2026-04-11T08:06:33.414Z</time></trkpt><trkpt lat="44.6727815" lon="7.9121249"><ele>234.83333333333334</ele><time>2026-04-11T08:06:35.414Z</time></trkpt><trkpt lat="44.6727349" lon="7.9120245"><ele>235.66666666666669</ele><time>2026-04-11T08:06:37.414Z</time></trkpt><trkpt lat="44.6726971" lon="7.9119233"><ele>236.5</ele><time>2026-04-11T08:06:39.414Z</time></trkpt><trkpt lat="44.6726483" lon="7.9118392"><ele>237.33333333333334</ele><time>2026-04-11T08:06:41.414Z</time></trkpt><trkpt lat="44.6725875" lon="7.911759"><ele>238.16666666666669</ele><time>2026-04-11T08:06:43.414Z</time></trkpt><trkpt lat="44.6725295" lon="7.9116756"><ele>239.0</ele><time>2026-04-11T08:06:45.414Z</time></trkpt><trkpt lat="44.6724689" lon="7.9116036"><ele>239.00000000000003</ele><time>2026-04-11T08:06:47.414Z</time></trkpt><trkpt lat="44.6724089" lon="7.9115242"><ele>239.0</ele><time>2026-04-11T08:06:49.414Z</time></trkpt><trkpt lat="44.6723492" lon="7.91144"><ele>239.0</ele><time>2026-04-11T08:06:51.414Z</time></trkpt><trkpt lat="44.6722933" lon="7.911342"><ele>239.0</ele><time>2026-04-11T08:06:53.414Z</time></trkpt><trkpt lat="44.6722237" lon="7.9112505"><ele>239.00000000000003</ele><time>2026-04-11T08:06:55.414Z</time></trkpt><trkpt lat="44.6721628" lon="7.9111581"><ele>239.0</ele><time>2026-04-11T08:06:57.414Z</time></trkpt><trkpt lat="44.6721058" lon="7.9110617"><ele>239.0</ele><time>2026-04-11T08:06:59.414Z</time></trkpt><trkpt lat="44.6720422" lon="7.91096"><ele>238.99999999999997</ele><time>2026-04-11T08:07:01.414Z</time></trkpt><trkpt lat="44.6719663" lon="7.9108955"><ele>238.99999999999997</ele><time>2026-04-11T08:07:03.414Z</time></trkpt><trkpt lat="44.6718729" lon="7.9108523"><ele>239.0</ele><time>2026-04-11T08:07:05.414Z</time></trkpt><trkpt lat="44.6717814" lon="7.9108267"><ele>239.0</ele><time>2026-04-11T08:07:07.414Z</time></trkpt><trkpt lat="44.6716834" lon="7.9108183"><ele>239.39999999999998</ele><time>2026-04-11T08:07:09.414Z</time></trkpt><trkpt lat="44.6715793" lon="7.9108126"><ele>239.79999999999998</ele><time>2026-04-11T08:07:11.414Z</time></trkpt><trkpt lat="44.671471" lon="7.9108113"><ele>240.20000000000002</ele><time>2026-04-11T08:07:13.414Z</time></trkpt><trkpt lat="44.6713725" lon="7.9108079"><ele>240.60000000000002</ele><time>2026-04-11T08:07:15.414Z</time></trkpt><trkpt lat="44.6712672" lon="7.9108139"><ele>241.0</ele><time>2026-04-11T08:07:17.414Z</time></trkpt><trkpt lat="44.6711634" lon="7.9108065"><ele>241.4</ele><time>2026-04-11T08:07:19.415Z</time></trkpt><trkpt lat="44.671061" lon="7.9108006"><ele>241.8</ele><time>2026-04-11T08:07:21.414Z</time></trkpt><trkpt lat="44.6709532" lon="7.9108032"><ele>242.20000000000002</ele><time>2026-04-11T08:07:23.414Z</time></trkpt><trkpt lat="44.6708475" lon="7.9107961"><ele>242.60000000000002</ele><time>2026-04-11T08:07:25.414Z</time></trkpt><trkpt lat="44.6707459" lon="7.9108053"><ele>243.0</ele><time>2026-04-11T08:07:27.414Z</time></trkpt><trkpt lat="44.6706411" lon="7.9108029"><ele>243.0</ele><time>2026-04-11T08:07:29.414Z</time></trkpt><trkpt lat="44.6705415" lon="7.9107988"><ele>243.0</ele><time>2026-04-11T08:07:31.414Z</time></trkpt><trkpt lat="44.670447" lon="7.9107985"><ele>243.0</ele><time>2026-04-11T08:07:33.414Z</time></trkpt><trkpt lat="44.6703542" lon="7.9107953"><ele>243.0</ele><time>2026-04-11T08:07:35.414Z</time></trkpt><trkpt lat="44.6702645" lon="7.9107919"><ele>243.0</ele><time>2026-04-11T08:07:37.415Z</time></trkpt><trkpt lat="44.6701778" lon="7.9107872"><ele>244.0</ele><time>2026-04-11T08:07:39.414Z</time></trkpt><trkpt lat="44.6700942" lon="7.9107825"><ele>245.0</ele><time>2026-04-11T08:07:41.414Z</time></trkpt><trkpt lat="44.6700023" lon="7.9107737"><ele>246.0</ele><time>2026-04-11T08:07:43.414Z</time></trkpt><trkpt lat="44.6699142" lon="7.9107513"><ele>247.0</ele><time>2026-04-11T08:07:45.414Z</time></trkpt><trkpt lat="44.6698254" lon="7.9107385"><ele>248.0</ele><time>2026-04-11T08:07:47.414Z</time></trkpt><trkpt lat="44.669746" lon="7.910711"><ele>249.0</ele><time>2026-04-11T08:07:49.414Z</time></trkpt><trkpt lat="44.6696788" lon="7.9106855"><ele>249.0</ele><time>2026-04-11T08:07:51.414Z</time></trkpt><trkpt lat="44.6696166" lon="7.9106556"><ele>249.0</ele><time>2026-04-11T08:07:53.414Z</time></trkpt><trkpt lat="44.6695246" lon="7.910608"><ele>249.0</ele><time>2026-04-11T08:07:55.414Z</time></trkpt><trkpt lat="44.669458" lon="7.9105616"><ele>249.0</ele><time>2026-04-11T08:07:57.414Z</time></trkpt><trkpt lat="44.6693861" lon="7.9105189"><ele>249.0</ele><time>2026-04-11T08:07:59.414Z</time></trkpt><trkpt lat="44.6693165" lon="7.9104975"><ele>249.0</ele><time>2026-04-11T08:08:01.414Z</time></trkpt><trkpt lat="44.6692424" lon="7.9104608"><ele>249.5</ele><time>2026-04-11T08:08:03.414Z</time></trkpt><trkpt lat="44.6691729" lon="7.9104298"><ele>250.0</ele><time>2026-04-11T08:08:05.414Z</time></trkpt><trkpt lat="44.669112" lon="7.91038"><ele>250.5</ele><time>2026-04-11T08:08:07.414Z</time></trkpt><trkpt lat="44.669046" lon="7.9103458"><ele>251.0</ele><time>2026-04-11T08:08:09.414Z</time></trkpt><trkpt lat="44.6689675" lon="7.9103032"><ele>251.5</ele><time>2026-04-11T08:08:11.414Z</time></trkpt><trkpt lat="44.6688822" lon="7.9102604"><ele>252.0</ele><time>2026-04-11T08:08:14.414Z</time></trkpt><trkpt lat="44.6687936" lon="7.910219"><ele>252.0</ele><time>2026-04-11T08:08:17.414Z</time></trkpt><trkpt lat="44.6687031" lon="7.9101821"><ele>252.0</ele><time>2026-04-11T08:08:20.414Z</time></trkpt><trkpt lat="44.6686412" lon="7.9101564"><ele>252.0</ele><time>2026-04-11T08:08:22.414Z</time></trkpt><trkpt lat="44.6685775" lon="7.9101256"><ele>252.0</ele><time>2026-04-11T08:08:24.414Z</time></trkpt><trkpt lat="44.6685148" lon="7.9100737"><ele>252.0</ele><time>2026-04-11T08:08:26.414Z</time></trkpt><trkpt lat="44.6684511" lon="7.910042"><ele>252.0</ele><time>2026-04-11T08:08:28.414Z</time></trkpt><trkpt lat="44.6683649" lon="7.9100164"><ele>253.16666666666666</ele><time>2026-04-11T08:08:31.414Z</time></trkpt><trkpt lat="44.6682753" lon="7.9099812"><ele>254.33333333333331</ele><time>2026-04-11T08:08:34.414Z</time></trkpt><trkpt lat="44.6682141" lon="7.9099521"><ele>255.5</ele><time>2026-04-11T08:08:36.414Z</time></trkpt><trkpt lat="44.6681559" lon="7.9099141"><ele>256.66666666666663</ele><time>2026-04-11T08:08:38.414Z</time></trkpt><trkpt lat="44.6680732" lon="7.9098774"><ele>257.8333333333333</ele><time>2026-04-11T08:08:41.414Z</time></trkpt><trkpt lat="44.6679924" lon="7.9098345"><ele>259.0</ele><time>2026-04-11T08:08:44.414Z</time></trkpt><trkpt lat="44.6679089" lon="7.9097962"><ele>259.0</ele><time>2026-04-11T08:08:47.414Z</time></trkpt><trkpt lat="44.6678347" lon="7.9097369"><ele>259.0</ele><time>2026-04-11T08:08:50.414Z</time></trkpt><trkpt lat="44.6677632" lon="7.909705"><ele>259.0</ele><time>2026-04-11T08:08:53.415Z</time></trkpt><trkpt lat="44.6676859" lon="7.9096789"><ele>259.0</ele><time>2026-04-11T08:08:56.414Z</time></trkpt><trkpt lat="44.6676043" lon="7.9096492"><ele>259.0</ele><time>2026-04-11T08:08:59.414Z</time></trkpt><trkpt lat="44.6675347" lon="7.9096012"><ele>259.0</ele><time>2026-04-11T08:09:02.414Z</time></trkpt><trkpt lat="44.6674666" lon="7.9095547"><ele>259.42857142857144</ele><time>2026-04-11T08:09:05.415Z</time></trkpt><trkpt lat="44.6674" lon="7.9095283"><ele>259.8571428571429</ele><time>2026-04-11T08:09:08.415Z</time></trkpt><trkpt lat="44.6673354" lon="7.9094906"><ele>260.2857142857143</ele><time>2026-04-11T08:09:11.415Z</time></trkpt><trkpt lat="44.6672511" lon="7.9094752"><ele>260.7142857142857</ele><time>2026-04-11T08:09:14.415Z</time></trkpt><trkpt lat="44.6671743" lon="7.9094531"><ele>261.14285714285717</ele><time>2026-04-11T08:09:16.415Z</time></trkpt><trkpt lat="44.6670999" lon="7.9094756"><ele>261.57142857142856</ele><time>2026-04-11T08:09:19.415Z</time></trkpt><trkpt lat="44.6670385" lon="7.9095243"><ele>262.0</ele><time>2026-04-11T08:09:21.415Z</time></trkpt><trkpt lat="44.6669904" lon="7.9095921"><ele>262.66666666666663</ele><time>2026-04-11T08:09:23.415Z</time></trkpt><trkpt lat="44.6669366" lon="7.9096923"><ele>263.3333333333333</ele><time>2026-04-11T08:09:25.415Z</time></trkpt><trkpt lat="44.666874" lon="7.9097684"><ele>264.0</ele><time>2026-04-11T08:09:27.415Z</time></trkpt><trkpt lat="44.6668085" lon="7.9098221"><ele>264.6666666666667</ele><time>2026-04-11T08:09:29.415Z</time></trkpt><trkpt lat="44.6667544" lon="7.9098919"><ele>265.33333333333337</ele><time>2026-04-11T08:09:31.415Z</time></trkpt><trkpt lat="44.6667082" lon="7.9099729"><ele>266.0</ele><time>2026-04-11T08:09:33.415Z</time></trkpt><trkpt lat="44.66665" lon="7.9100557"><ele>266.0</ele><time>2026-04-11T08:09:36.415Z</time></trkpt><trkpt lat="44.6665861" lon="7.9101044"><ele>266.0</ele><time>2026-04-11T08:09:38.415Z</time></trkpt><trkpt lat="44.6665274" lon="7.910155"><ele>266.0</ele><time>2026-04-11T08:09:40.415Z</time></trkpt><trkpt lat="44.6664734" lon="7.9102108"><ele>266.0</ele><time>2026-04-11T08:09:42.415Z</time></trkpt><trkpt lat="44.6664225" lon="7.9102737"><ele>266.0</ele><time>2026-04-11T08:09:44.415Z</time></trkpt><trkpt lat="44.6663671" lon="7.9103342"><ele>266.0</ele><time>2026-04-11T08:09:46.415Z</time></trkpt><trkpt lat="44.666314" lon="7.910392"><ele>266.0</ele><time>2026-04-11T08:09:48.415Z</time></trkpt><trkpt lat="44.6662609" lon="7.9104484"><ele>266.0</ele><time>2026-04-11T08:09:50.415Z</time></trkpt><trkpt lat="44.6661975" lon="7.9105473"><ele>266.0</ele><time>2026-04-11T08:09:53.415Z</time></trkpt><trkpt lat="44.6661336" lon="7.9106351"><ele>266.0</ele><time>2026-04-11T08:09:56.415Z</time></trkpt><trkpt lat="44.6660749" lon="7.9107213"><ele>266.0</ele><time>2026-04-11T08:09:59.415Z</time></trkpt><trkpt lat="44.6660354" lon="7.9108117"><ele>266.0</ele><time>2026-04-11T08:10:02.415Z</time></trkpt><trkpt lat="44.6659916" lon="7.910906"><ele>266.0</ele><time>2026-04-11T08:10:05.415Z</time></trkpt><trkpt lat="44.6659379" lon="7.9110092"><ele>268.33333333333337</ele><time>2026-04-11T08:10:08.415Z</time></trkpt><trkpt lat="44.6659033" lon="7.9111182"><ele>270.6666666666667</ele><time>2026-04-11T08:10:11.415Z</time></trkpt><trkpt lat="44.6658667" lon="7.911199"><ele>273.0</ele><time>2026-04-11T08:10:14.415Z</time></trkpt><trkpt lat="44.6658327" lon="7.9113169"><ele>275.3333333333333</ele><time>2026-04-11T08:10:17.415Z</time></trkpt><trkpt lat="44.6658186" lon="7.9114244"><ele>277.66666666666663</ele><time>2026-04-11T08:10:20.415Z</time></trkpt><trkpt lat="44.6657749" lon="7.9115072"><ele>280.0</ele><time>2026-04-11T08:10:23.415Z</time></trkpt><trkpt lat="44.6657609" lon="7.9116049"><ele>280.0</ele><time>2026-04-11T08:10:26.415Z</time></trkpt><trkpt lat="44.6657251" lon="7.9117072"><ele>280.0</ele><time>2026-04-11T08:10:30.415Z</time></trkpt><trkpt lat="44.6656861" lon="7.9117861"><ele>280.0</ele><time>2026-04-11T08:10:33.415Z</time></trkpt><trkpt lat="44.6656726" lon="7.9118838"><ele>280.0</ele><time>2026-04-11T08:10:36.415Z</time></trkpt><trkpt lat="44.6656029" lon="7.9119232"><ele>280.0</ele><time>2026-04-11T08:10:39.416Z</time></trkpt><trkpt lat="44.6655762" lon="7.912004"><ele>280.0</ele><time>2026-04-11T08:10:42.415Z</time></trkpt><trkpt lat="44.6655636" lon="7.9120957"><ele>280.0</ele><time>2026-04-11T08:10:45.415Z</time></trkpt><trkpt lat="44.6655406" lon="7.9121931"><ele>280.7142857142857</ele><time>2026-04-11T08:10:49.415Z</time></trkpt><trkpt lat="44.6655081" lon="7.9122808"><ele>281.42857142857144</ele><time>2026-04-11T08:10:53.415Z</time></trkpt><trkpt lat="44.6654674" lon="7.912367"><ele>282.1428571428571</ele><time>2026-04-11T08:10:57.415Z</time></trkpt><trkpt lat="44.665439" lon="7.9124707"><ele>282.8571428571429</ele><time>2026-04-11T08:11:01.415Z</time></trkpt><trkpt lat="44.6654081" lon="7.9125766"><ele>283.57142857142856</ele><time>2026-04-11T08:11:05.415Z</time></trkpt><trkpt lat="44.6653745" lon="7.9126732"><ele>284.2857142857143</ele><time>2026-04-11T08:11:09.415Z</time></trkpt><trkpt lat="44.6653414" lon="7.9127538"><ele>285.0</ele><time>2026-04-11T08:11:12.415Z</time></trkpt><trkpt lat="44.6653023" lon="7.9128246"><ele>286.5</ele><time>2026-04-11T08:11:15.415Z</time></trkpt><trkpt lat="44.6652363" lon="7.9128994"><ele>288.0</ele><time>2026-04-11T08:11:19.415Z</time></trkpt><trkpt lat="44.6651851" lon="7.9129729"><ele>289.5</ele><time>2026-04-11T08:11:23.415Z</time></trkpt><trkpt lat="44.6651107" lon="7.9130049"><ele>291.0</ele><time>2026-04-11T08:11:27.415Z</time></trkpt><trkpt lat="44.6650682" lon="7.9130954"><ele>292.5</ele><time>2026-04-11T08:11:32.415Z</time></trkpt><trkpt lat="44.6649914" lon="7.9131435"><ele>294.0</ele><time>2026-04-11T08:11:35.416Z</time></trkpt><trkpt lat="44.6649413" lon="7.9131989"><ele>294.0</ele><time>2026-04-11T08:11:38.415Z</time></trkpt><trkpt lat="44.6648972" lon="7.9132682"><ele>294.0</ele><time>2026-04-11T08:11:41.415Z</time></trkpt><trkpt lat="44.6648169" lon="7.9132972"><ele>294.0</ele><time>2026-04-11T08:11:45.415Z</time></trkpt><trkpt lat="44.6647502" lon="7.9133458"><ele>294.0</ele><time>2026-04-11T08:11:48.422Z</time></trkpt><trkpt lat="44.6646849" lon="7.9133498"><ele>294.0</ele><time>2026-04-11T08:11:51.422Z</time></trkpt><trkpt lat="44.6646113" lon="7.9133612"><ele>294.0</ele><time>2026-04-11T08:11:54.422Z</time></trkpt><trkpt lat="44.6645369" lon="7.9133477"><ele>294.0</ele><time>2026-04-11T08:11:58.422Z</time></trkpt><trkpt lat="44.664464" lon="7.9133798"><ele>295.2857142857143</ele><time>2026-04-11T08:12:02.422Z</time></trkpt><trkpt lat="44.6643967" lon="7.9134435"><ele>296.57142857142856</ele><time>2026-04-11T08:12:05.422Z</time></trkpt><trkpt lat="44.6643518" lon="7.9135123"><ele>297.8571428571429</ele><time>2026-04-11T08:12:08.422Z</time></trkpt><trkpt lat="44.6643016" lon="7.9136035"><ele>299.1428571428571</ele><time>2026-04-11T08:12:11.422Z</time></trkpt><trkpt lat="44.6642461" lon="7.9136817"><ele>300.42857142857144</ele><time>2026-04-11T08:12:15.422Z</time></trkpt><trkpt lat="44.6642143" lon="7.9137627"><ele>301.7142857142857</ele><time>2026-04-11T08:12:18.422Z</time></trkpt><trkpt lat="44.6641939" lon="7.913849"><ele>303.0</ele><time>2026-04-11T08:12:21.422Z</time></trkpt><trkpt lat="44.6641672" lon="7.9139307"><ele>303.0</ele><time>2026-04-11T08:12:24.422Z</time></trkpt><trkpt lat="44.6641224" lon="7.9140034"><ele>303.0</ele><time>2026-04-11T08:12:27.422Z</time></trkpt><trkpt lat="44.6640756" lon="7.9140979"><ele>303.0</ele><time>2026-04-11T08:12:31.422Z</time></trkpt><trkpt lat="44.6640229" lon="7.9141822"><ele>303.0</ele><time>2026-04-11T08:12:35.422Z</time></trkpt><trkpt lat="44.6639898" lon="7.9142882"><ele>303.0</ele><time>2026-04-11T08:12:39.422Z</time></trkpt><trkpt lat="44.6639496" lon="7.9143591"><ele>303.0</ele><time>2026-04-11T08:12:42.422Z</time></trkpt><trkpt lat="44.6639031" lon="7.9144474"><ele>303.7142857142857</ele><time>2026-04-11T08:12:46.422Z</time></trkpt><trkpt lat="44.6638523" lon="7.9145329"><ele>304.42857142857144</ele><time>2026-04-11T08:12:50.422Z</time></trkpt><trkpt lat="44.6637838" lon="7.9146117"><ele>305.1428571428571</ele><time>2026-04-11T08:12:53.422Z</time></trkpt><trkpt lat="44.663726" lon="7.9146791"><ele>305.8571428571429</ele><time>2026-04-11T08:12:57.422Z</time></trkpt><trkpt lat="44.6636713" lon="7.9147326"><ele>306.57142857142856</ele><time>2026-04-11T08:13:00.422Z</time></trkpt><trkpt lat="44.66363" lon="7.9148002"><ele>307.2857142857143</ele><time>2026-04-11T08:13:03.422Z</time></trkpt><trkpt lat="44.6635817" lon="7.9148593"><ele>308.0</ele><time>2026-04-11T08:13:06.422Z</time></trkpt><trkpt lat="44.6635292" lon="7.9149432"><ele>308.0</ele><time>2026-04-11T08:13:09.422Z</time></trkpt><trkpt lat="44.6634903" lon="7.9150292"><ele>308.0</ele><time>2026-04-11T08:13:13.422Z</time></trkpt><trkpt lat="44.6634263" lon="7.9150815"><ele>308.0</ele><time>2026-04-11T08:13:16.422Z</time></trkpt><trkpt lat="44.6633619" lon="7.9151657"><ele>308.0</ele><time>2026-04-11T08:13:19.422Z</time></trkpt><trkpt lat="44.6632937" lon="7.9152199"><ele>308.0</ele><time>2026-04-11T08:13:22.422Z</time></trkpt><trkpt lat="44.6632352" lon="7.9152868"><ele>308.0</ele><time>2026-04-11T08:13:25.422Z</time></trkpt><trkpt lat="44.6631844" lon="7.9153566"><ele>309.6666666666667</ele><time>2026-04-11T08:13:28.422Z</time></trkpt><trkpt lat="44.6631319" lon="7.915426"><ele>311.33333333333337</ele><time>2026-04-11T08:13:31.422Z</time></trkpt><trkpt lat="44.6630729" lon="7.9154799"><ele>313.0</ele><time>2026-04-11T08:13:34.422Z</time></trkpt><trkpt lat="44.6630082" lon="7.9155545"><ele>314.6666666666667</ele><time>2026-04-11T08:13:37.422Z</time></trkpt><trkpt lat="44.6629506" lon="7.9156319"><ele>316.3333333333333</ele><time>2026-04-11T08:13:40.422Z</time></trkpt><trkpt lat="44.662882" lon="7.9157062"><ele>318.0</ele><time>2026-04-11T08:13:43.422Z</time></trkpt><trkpt lat="44.6628317" lon="7.9157923"><ele>318.57142857142856</ele><time>2026-04-11T08:13:46.422Z</time></trkpt><trkpt lat="44.6627718" lon="7.9158733"><ele>319.14285714285717</ele><time>2026-04-11T08:13:49.422Z</time></trkpt><trkpt lat="44.6627383" lon="7.91595"><ele>319.7142857142857</ele><time>2026-04-11T08:13:52.423Z</time></trkpt><trkpt lat="44.6627276" lon="7.9160408"><ele>320.2857142857143</ele><time>2026-04-11T08:13:55.422Z</time></trkpt><trkpt lat="44.6626813" lon="7.916131"><ele>320.8571428571429</ele><time>2026-04-11T08:13:58.422Z</time></trkpt><trkpt lat="44.6626317" lon="7.9162013"><ele>321.42857142857144</ele><time>2026-04-11T08:14:01.422Z</time></trkpt><trkpt lat="44.6626071" lon="7.9162922"><ele>322.0</ele><time>2026-04-11T08:14:04.422Z</time></trkpt><trkpt lat="44.662572" lon="7.9163788"><ele>322.0</ele><time>2026-04-11T08:14:07.422Z</time></trkpt><trkpt lat="44.66253" lon="7.9164579"><ele>322.0</ele><time>2026-04-11T08:14:10.422Z</time></trkpt><trkpt lat="44.6625051" lon="7.9165605"><ele>322.0</ele><time>2026-04-11T08:14:13.422Z</time></trkpt><trkpt lat="44.6624804" lon="7.9166552"><ele>322.0</ele><time>2026-04-11T08:14:16.422Z</time></trkpt><trkpt lat="44.6624614" lon="7.9167546"><ele>322.0</ele><time>2026-04-11T08:14:19.422Z</time></trkpt><trkpt lat="44.6624334" lon="7.9168487"><ele>322.0</ele><time>2026-04-11T08:14:22.422Z</time></trkpt><trkpt lat="44.6623808" lon="7.9169495"><ele>323.16666666666663</ele><time>2026-04-11T08:14:25.422Z</time></trkpt><trkpt lat="44.6624035" lon="7.9170736"><ele>324.3333333333333</ele><time>2026-04-11T08:14:28.422Z</time></trkpt><trkpt lat="44.6624076" lon="7.9171962"><ele>325.5</ele><time>2026-04-11T08:14:31.422Z</time></trkpt><trkpt lat="44.6623749" lon="7.9172917"><ele>326.6666666666667</ele><time>2026-04-11T08:14:34.422Z</time></trkpt><trkpt lat="44.6623506" lon="7.9173939"><ele>327.83333333333337</ele><time>2026-04-11T08:14:37.422Z</time></trkpt><trkpt lat="44.662339" lon="7.9175047"><ele>329.0</ele><time>2026-04-11T08:14:40.422Z</time></trkpt><trkpt lat="44.6623119" lon="7.9176041"><ele>329.7142857142857</ele><time>2026-04-11T08:14:43.422Z</time></trkpt><trkpt lat="44.6622892" lon="7.9176995"><ele>330.42857142857144</ele><time>2026-04-11T08:14:46.422Z</time></trkpt><trkpt lat="44.6623225" lon="7.9177911"><ele>331.1428571428571</ele><time>2026-04-11T08:14:49.422Z</time></trkpt><trkpt lat="44.6623322" lon="7.9178873"><ele>331.8571428571429</ele><time>2026-04-11T08:14:52.422Z</time></trkpt><trkpt lat="44.6623913" lon="7.9179692"><ele>332.57142857142856</ele><time>2026-04-11T08:14:55.422Z</time></trkpt><trkpt lat="44.662436" lon="7.9180612"><ele>333.2857142857143</ele><time>2026-04-11T08:14:58.422Z</time></trkpt><trkpt lat="44.6624742" lon="7.9181481"><ele>334.0</ele><time>2026-04-11T08:15:01.422Z</time></trkpt><trkpt lat="44.6625113" lon="7.918244"><ele>334.0</ele><time>2026-04-11T08:15:05.422Z</time></trkpt><trkpt lat="44.6625579" lon="7.9183295"><ele>334.0</ele><time>2026-04-11T08:15:08.422Z</time></trkpt><trkpt lat="44.6626078" lon="7.9184176"><ele>334.0</ele><time>2026-04-11T08:15:11.422Z</time></trkpt><trkpt lat="44.662653" lon="7.9185268"><ele>334.0</ele><time>2026-04-11T08:15:14.422Z</time></trkpt><trkpt lat="44.6627052" lon="7.9186153"><ele>334.0</ele><time>2026-04-11T08:15:17.422Z</time></trkpt><trkpt lat="44.6627565" lon="7.918703"><ele>334.0</ele><time>2026-04-11T08:15:20.422Z</time></trkpt><trkpt lat="44.6628034" lon="7.9188087"><ele>334.0</ele><time>2026-04-11T08:15:23.422Z</time></trkpt><trkpt lat="44.662842" lon="7.9188992"><ele>334.0</ele><time>2026-04-11T08:15:25.422Z</time></trkpt><trkpt lat="44.6629086" lon="7.918992"><ele>334.0</ele><time>2026-04-11T08:15:28.422Z</time></trkpt><trkpt lat="44.6629205" lon="7.9190953"><ele>334.0</ele><time>2026-04-11T08:15:30.422Z</time></trkpt><trkpt lat="44.6629276" lon="7.9191986"><ele>334.0</ele><time>2026-04-11T08:15:33.422Z</time></trkpt><trkpt lat="44.6629867" lon="7.9192805"><ele>334.0</ele><time>2026-04-11T08:15:35.422Z</time></trkpt><trkpt lat="44.6630484" lon="7.9193667"><ele>334.0</ele><time>2026-04-11T08:15:37.422Z</time></trkpt><trkpt lat="44.6630765" lon="7.9194558"><ele>334.0</ele><time>2026-04-11T08:15:39.422Z</time></trkpt><trkpt lat="44.6631024" lon="7.9195557"><ele>334.0</ele><time>2026-04-11T08:15:41.422Z</time></trkpt><trkpt lat="44.6631173" lon="7.9196467"><ele>334.0</ele><time>2026-04-11T08:15:43.422Z</time></trkpt><trkpt lat="44.6631206" lon="7.9197645"><ele>334.0</ele><time>2026-04-11T08:15:45.422Z</time></trkpt><trkpt lat="44.6631319" lon="7.9198797"><ele>334.0</ele><time>2026-04-11T08:15:47.422Z</time></trkpt><trkpt lat="44.6631322" lon="7.9199853"><ele>334.7142857142857</ele><time>2026-04-11T08:15:49.422Z</time></trkpt><trkpt lat="44.6631394" lon="7.9200855"><ele>335.42857142857144</ele><time>2026-04-11T08:15:51.422Z</time></trkpt><trkpt lat="44.6631424" lon="7.9201758"><ele>336.1428571428571</ele><time>2026-04-11T08:15:53.422Z</time></trkpt><trkpt lat="44.6631366" lon="7.9202661"><ele>336.8571428571429</ele><time>2026-04-11T08:15:55.423Z</time></trkpt><trkpt lat="44.6631403" lon="7.9203587"><ele>337.5714285714286</ele><time>2026-04-11T08:15:57.422Z</time></trkpt><trkpt lat="44.6631381" lon="7.920455"><ele>338.2857142857143</ele><time>2026-04-11T08:15:59.422Z</time></trkpt><trkpt lat="44.6631334" lon="7.9205545"><ele>339.0</ele><time>2026-04-11T08:16:01.422Z</time></trkpt><trkpt lat="44.6631438" lon="7.9206528"><ele>339.0</ele><time>2026-04-11T08:16:03.422Z</time></trkpt><trkpt lat="44.6631343" lon="7.9207495"><ele>339.0</ele><time>2026-04-11T08:16:05.422Z</time></trkpt><trkpt lat="44.6631155" lon="7.9208704"><ele>339.0</ele><time>2026-04-11T08:16:07.422Z</time></trkpt><trkpt lat="44.6631203" lon="7.9209631"><ele>339.0</ele><time>2026-04-11T08:16:09.422Z</time></trkpt><trkpt lat="44.6631388" lon="7.9210499"><ele>339.0</ele><time>2026-04-11T08:16:11.422Z</time></trkpt><trkpt lat="44.6631196" lon="7.9211588"><ele>339.0</ele><time>2026-04-11T08:16:14.422Z</time></trkpt><trkpt lat="44.6631338" lon="7.9212862"><ele>339.8333333333333</ele><time>2026-04-11T08:16:17.422Z</time></trkpt><trkpt lat="44.6631591" lon="7.9213955"><ele>340.6666666666667</ele><time>2026-04-11T08:16:19.422Z</time></trkpt><trkpt lat="44.6631793" lon="7.9214953"><ele>341.5</ele><time>2026-04-11T08:16:22.422Z</time></trkpt><trkpt lat="44.6631965" lon="7.9216032"><ele>342.33333333333337</ele><time>2026-04-11T08:16:25.422Z</time></trkpt><trkpt lat="44.6632093" lon="7.9217095"><ele>343.1666666666667</ele><time>2026-04-11T08:16:28.423Z</time></trkpt><trkpt lat="44.6632263" lon="7.9218142"><ele>344.0</ele><time>2026-04-11T08:16:31.422Z</time></trkpt><trkpt lat="44.6632305" lon="7.9219087"><ele>345.1666666666667</ele><time>2026-04-11T08:16:34.423Z</time></trkpt><trkpt lat="44.6632316" lon="7.9220321"><ele>346.33333333333337</ele><time>2026-04-11T08:16:38.422Z</time></trkpt><trkpt lat="44.6632581" lon="7.9221404"><ele>347.5</ele><time>2026-04-11T08:16:41.422Z</time></trkpt><trkpt lat="44.6632453" lon="7.9222417"><ele>348.6666666666667</ele><time>2026-04-11T08:16:44.422Z</time></trkpt><trkpt lat="44.6632325" lon="7.9223394"><ele>349.8333333333333</ele><time>2026-04-11T08:16:47.422Z</time></trkpt><trkpt lat="44.6632404" lon="7.9224508"><ele>351.0</ele><time>2026-04-11T08:16:50.422Z</time></trkpt><trkpt lat="44.6632762" lon="7.9225646"><ele>351.3333333333333</ele><time>2026-04-11T08:16:53.422Z</time></trkpt><trkpt lat="44.6632957" lon="7.922675"><ele>351.6666666666667</ele><time>2026-04-11T08:16:56.422Z</time></trkpt><trkpt lat="44.6633194" lon="7.922758"><ele>352.0</ele><time>2026-04-11T08:16:58.422Z</time></trkpt><trkpt lat="44.6633396" lon="7.9228594"><ele>352.33333333333337</ele><time>2026-04-11T08:17:00.422Z</time></trkpt><trkpt lat="44.6633736" lon="7.9229581"><ele>352.6666666666667</ele><time>2026-04-11T08:17:02.422Z</time></trkpt><trkpt lat="44.6634266" lon="7.9230772"><ele>353.0</ele><time>2026-04-11T08:17:04.422Z</time></trkpt><trkpt lat="44.663479" lon="7.9231946"><ele>353.0</ele><time>2026-04-11T08:17:06.422Z</time></trkpt><trkpt lat="44.6635268" lon="7.9233243"><ele>353.0</ele><time>2026-04-11T08:17:08.422Z</time></trkpt><trkpt lat="44.6635909" lon="7.9234688"><ele>353.0</ele><time>2026-04-11T08:17:10.422Z</time></trkpt><trkpt lat="44.663635" lon="7.9235366"><ele>353.0</ele><time>2026-04-11T08:17:11.422Z</time></trkpt><trkpt lat="44.6636763" lon="7.9236065"><ele>353.0</ele><time>2026-04-11T08:17:12.422Z</time></trkpt><trkpt lat="44.6637139" lon="7.9236862"><ele>353.0</ele><time>2026-04-11T08:17:13.422Z</time></trkpt><trkpt lat="44.6637611" lon="7.9237696"><ele>352.85714285714283</ele><time>2026-04-11T08:17:14.422Z</time></trkpt><trkpt lat="44.6638048" lon="7.923856"><ele>352.7142857142857</ele><time>2026-04-11T08:17:15.422Z</time></trkpt><trkpt lat="44.6638468" lon="7.9239388"><ele>352.57142857142856</ele><time>2026-04-11T08:17:16.422Z</time></trkpt><trkpt lat="44.6638798" lon="7.9240214"><ele>352.42857142857144</ele><time>2026-04-11T08:17:17.422Z</time></trkpt><trkpt lat="44.6639126" lon="7.9241095"><ele>352.2857142857143</ele><time>2026-04-11T08:17:18.422Z</time></trkpt><trkpt lat="44.6639598" lon="7.9242021"><ele>352.14285714285717</ele><time>2026-04-11T08:17:19.422Z</time></trkpt><trkpt lat="44.6640045" lon="7.9242944"><ele>352.0</ele><time>2026-04-11T08:17:20.422Z</time></trkpt><trkpt lat="44.6640524" lon="7.9243891"><ele>352.0</ele><time>2026-04-11T08:17:21.423Z</time></trkpt><trkpt lat="44.664099" lon="7.9244766"><ele>352.0</ele><time>2026-04-11T08:17:22.422Z</time></trkpt><trkpt lat="44.6641313" lon="7.9245619"><ele>352.0</ele><time>2026-04-11T08:17:23.422Z</time></trkpt><trkpt lat="44.6641661" lon="7.924656"><ele>352.0</ele><time>2026-04-11T08:17:24.422Z</time></trkpt><trkpt lat="44.6641971" lon="7.9247377"><ele>352.0</ele><time>2026-04-11T08:17:25.422Z</time></trkpt><trkpt lat="44.6642187" lon="7.9248248"><ele>352.0</ele><time>2026-04-11T08:17:26.422Z</time></trkpt><trkpt lat="44.664264" lon="7.9249782"><ele>351.5</ele><time>2026-04-11T08:17:28.422Z</time></trkpt><trkpt lat="44.6643057" lon="7.9251229"><ele>351.0</ele><time>2026-04-11T08:17:30.422Z</time></trkpt><trkpt lat="44.6643226" lon="7.9252393"><ele>350.5</ele><time>2026-04-11T08:17:32.422Z</time></trkpt><trkpt lat="44.6643494" lon="7.9253512"><ele>350.0</ele><time>2026-04-11T08:17:34.422Z</time></trkpt><trkpt lat="44.6643676" lon="7.9254657"><ele>349.5</ele><time>2026-04-11T08:17:36.422Z</time></trkpt><trkpt lat="44.6644176" lon="7.925555"><ele>349.0</ele><time>2026-04-11T08:17:38.422Z</time></trkpt><trkpt lat="44.6644476" lon="7.9256533"><ele>349.0</ele><time>2026-04-11T08:17:40.422Z</time></trkpt><trkpt lat="44.6644738" lon="7.9257444"><ele>349.0</ele><time>2026-04-11T08:17:42.422Z</time></trkpt><trkpt lat="44.6645104" lon="7.9258434"><ele>349.0</ele><time>2026-04-11T08:17:44.422Z</time></trkpt><trkpt lat="44.6645354" lon="7.92594"><ele>349.0</ele><time>2026-04-11T08:17:46.422Z</time></trkpt><trkpt lat="44.6645603" lon="7.9260238"><ele>349.0</ele><time>2026-04-11T08:17:48.422Z</time></trkpt><trkpt lat="44.664586" lon="7.9261167"><ele>349.0</ele><time>2026-04-11T08:17:50.422Z</time></trkpt><trkpt lat="44.6646116" lon="7.9262459"><ele>349.99999999999994</ele><time>2026-04-11T08:17:53.423Z</time></trkpt><trkpt lat="44.6646417" lon="7.9263284"><ele>351.0</ele><time>2026-04-11T08:17:55.423Z</time></trkpt><trkpt lat="44.664668" lon="7.9264233"><ele>352.0</ele><time>2026-04-11T08:17:57.423Z</time></trkpt><trkpt lat="44.6647134" lon="7.9265203"><ele>353.0</ele><time>2026-04-11T08:17:59.423Z</time></trkpt><trkpt lat="44.6647484" lon="7.9266057"><ele>354.0</ele><time>2026-04-11T08:18:01.423Z</time></trkpt><trkpt lat="44.6647788" lon="7.9266933"><ele>354.99999999999994</ele><time>2026-04-11T08:18:03.423Z</time></trkpt><trkpt lat="44.6647967" lon="7.9267911"><ele>356.0</ele><time>2026-04-11T08:18:05.423Z</time></trkpt><trkpt lat="44.6648268" lon="7.9268908"><ele>356.5</ele><time>2026-04-11T08:18:07.423Z</time></trkpt><trkpt lat="44.6648796" lon="7.9269902"><ele>357.0</ele><time>2026-04-11T08:18:09.423Z</time></trkpt><trkpt lat="44.6649183" lon="7.9270946"><ele>357.5</ele><time>2026-04-11T08:18:11.423Z</time></trkpt><trkpt lat="44.6649335" lon="7.9271876"><ele>358.0</ele><time>2026-04-11T08:18:13.423Z</time></trkpt><trkpt lat="44.6649538" lon="7.9272949"><ele>358.5</ele><time>2026-04-11T08:18:15.423Z</time></trkpt><trkpt lat="44.6649717" lon="7.9274167"><ele>359.0</ele><time>2026-04-11T08:18:17.423Z</time></trkpt><trkpt lat="44.6650132" lon="7.9275526"><ele>359.2</ele><time>2026-04-11T08:18:19.423Z</time></trkpt><trkpt lat="44.665054" lon="7.927687"><ele>359.4</ele><time>2026-04-11T08:18:21.423Z</time></trkpt><trkpt lat="44.6650881" lon="7.9278195"><ele>359.6</ele><time>2026-04-11T08:18:23.423Z</time></trkpt><trkpt lat="44.6651235" lon="7.9279483"><ele>359.8</ele><time>2026-04-11T08:18:25.423Z</time></trkpt><trkpt lat="44.6651697" lon="7.928103"><ele>360.0</ele><time>2026-04-11T08:18:27.43Z</time></trkpt><trkpt lat="44.6652249" lon="7.9282514"><ele>359.6666666666667</ele><time>2026-04-11T08:18:29.429Z</time></trkpt><trkpt lat="44.6652777" lon="7.9284106"><ele>359.3333333333333</ele><time>2026-04-11T08:18:31.429Z</time></trkpt><trkpt lat="44.6653215" lon="7.9285721"><ele>359.0</ele><time>2026-04-11T08:18:33.429Z</time></trkpt><trkpt lat="44.6653438" lon="7.9286555"><ele>358.66666666666663</ele><time>2026-04-11T08:18:34.429Z</time></trkpt><trkpt lat="44.6653739" lon="7.9287374"><ele>358.3333333333333</ele><time>2026-04-11T08:18:35.429Z</time></trkpt><trkpt lat="44.6654018" lon="7.9288251"><ele>358.0</ele><time>2026-04-11T08:18:36.429Z</time></trkpt><trkpt lat="44.6654467" lon="7.9289548"><ele>358.0</ele><time>2026-04-11T08:18:38.429Z</time></trkpt><trkpt lat="44.6653852" lon="7.9290031"><ele>358.0</ele><time>2026-04-11T08:18:40.429Z</time></trkpt><trkpt lat="44.6653238" lon="7.9289436"><ele>358.0</ele><time>2026-04-11T08:18:42.429Z</time></trkpt><trkpt lat="44.6652689" lon="7.9288792"><ele>358.0</ele><time>2026-04-11T08:18:44.429Z</time></trkpt><trkpt lat="44.6651938" lon="7.928781"><ele>358.0</ele><time>2026-04-11T08:18:46.429Z</time></trkpt><trkpt lat="44.6651219" lon="7.9286917"><ele>358.0</ele><time>2026-04-11T08:18:48.429Z</time></trkpt><trkpt lat="44.6650621" lon="7.928628"><ele>358.0</ele><time>2026-04-11T08:18:50.429Z</time></trkpt><trkpt lat="44.6650018" lon="7.928561"><ele>358.0</ele><time>2026-04-11T08:18:52.429Z</time></trkpt><trkpt lat="44.6649371" lon="7.9284625"><ele>358.0</ele><time>2026-04-11T08:18:54.429Z</time></trkpt><trkpt lat="44.6648629" lon="7.9283741"><ele>358.0</ele><time>2026-04-11T08:18:56.429Z</time></trkpt><trkpt lat="44.6647798" lon="7.9283721"><ele>358.0</ele><time>2026-04-11T08:18:58.429Z</time></trkpt><trkpt lat="44.6646963" lon="7.9283513"><ele>358.0</ele><time>2026-04-11T08:19:00.429Z</time></trkpt><trkpt lat="44.6646248" lon="7.9282755"><ele>358.3333333333333</ele><time>2026-04-11T08:19:02.429Z</time></trkpt><trkpt lat="44.6645554" lon="7.9282006"><ele>358.66666666666663</ele><time>2026-04-11T08:19:04.429Z</time></trkpt><trkpt lat="44.6644889" lon="7.9281244"><ele>359.0</ele><time>2026-04-11T08:19:06.429Z</time></trkpt><trkpt lat="44.6644273" lon="7.9280627"><ele>359.3333333333333</ele><time>2026-04-11T08:19:08.429Z</time></trkpt><trkpt lat="44.6643671" lon="7.9279857"><ele>359.6666666666667</ele><time>2026-04-11T08:19:10.429Z</time></trkpt><trkpt lat="44.6643076" lon="7.9278967"><ele>360.0</ele><time>2026-04-11T08:19:12.429Z</time></trkpt><trkpt lat="44.664256" lon="7.92783"><ele>360.6666666666667</ele><time>2026-04-11T08:19:14.429Z</time></trkpt><trkpt lat="44.664185" lon="7.927772"><ele>361.3333333333333</ele><time>2026-04-11T08:19:16.429Z</time></trkpt><trkpt lat="44.6640994" lon="7.9277297"><ele>362.0</ele><time>2026-04-11T08:19:18.429Z</time></trkpt><trkpt lat="44.6640246" lon="7.9276936"><ele>362.66666666666663</ele><time>2026-04-11T08:19:20.429Z</time></trkpt><trkpt lat="44.6639605" lon="7.9276519"><ele>363.3333333333333</ele><time>2026-04-11T08:19:22.429Z</time></trkpt><trkpt lat="44.6638863" lon="7.9276116"><ele>364.0</ele><time>2026-04-11T08:19:24.429Z</time></trkpt><trkpt lat="44.6638182" lon="7.9275729"><ele>364.5</ele><time>2026-04-11T08:19:26.429Z</time></trkpt><trkpt lat="44.6637334" lon="7.9275449"><ele>365.0</ele><time>2026-04-11T08:19:29.43Z</time></trkpt><trkpt lat="44.6636682" lon="7.9274532"><ele>365.5</ele><time>2026-04-11T08:19:32.43Z</time></trkpt><trkpt lat="44.6635914" lon="7.9274103"><ele>366.0</ele><time>2026-04-11T08:19:34.43Z</time></trkpt><trkpt lat="44.6635257" lon="7.9274213"><ele>366.5</ele><time>2026-04-11T08:19:36.43Z</time></trkpt><trkpt lat="44.6634537" lon="7.9274"><ele>367.0</ele><time>2026-04-11T08:19:39.43Z</time></trkpt><trkpt lat="44.663381" lon="7.9273644"><ele>367.2857142857143</ele><time>2026-04-11T08:19:42.43Z</time></trkpt><trkpt lat="44.6633" lon="7.9273516"><ele>367.5714285714286</ele><time>2026-04-11T08:19:45.43Z</time></trkpt><trkpt lat="44.6632362" lon="7.9273524"><ele>367.8571428571429</ele><time>2026-04-11T08:19:47.43Z</time></trkpt><trkpt lat="44.663173" lon="7.927362"><ele>368.1428571428571</ele><time>2026-04-11T08:19:50.43Z</time></trkpt><trkpt lat="44.6631202" lon="7.9274511"><ele>368.42857142857144</ele><time>2026-04-11T08:19:54.43Z</time></trkpt><trkpt lat="44.6630883" lon="7.9275376"><ele>368.7142857142857</ele><time>2026-04-11T08:19:56.43Z</time></trkpt><trkpt lat="44.6630486" lon="7.9276206"><ele>369.0</ele><time>2026-04-11T08:19:58.43Z</time></trkpt><trkpt lat="44.6630003" lon="7.9276844"><ele>369.0</ele><time>2026-04-11T08:20:00.43Z</time></trkpt><trkpt lat="44.6629556" lon="7.9277652"><ele>369.0</ele><time>2026-04-11T08:20:02.43Z</time></trkpt><trkpt lat="44.6628902" lon="7.9278376"><ele>369.0</ele><time>2026-04-11T08:20:04.43Z</time></trkpt><trkpt lat="44.6628073" lon="7.9279303"><ele>369.0</ele><time>2026-04-11T08:20:06.43Z</time></trkpt><trkpt lat="44.6627493" lon="7.9280473"><ele>369.0</ele><time>2026-04-11T08:20:08.43Z</time></trkpt><trkpt lat="44.6627063" lon="7.9281726"><ele>370.1666666666667</ele><time>2026-04-11T08:20:10.43Z</time></trkpt><trkpt lat="44.6626452" lon="7.9282728"><ele>371.3333333333333</ele><time>2026-04-11T08:20:12.43Z</time></trkpt><trkpt lat="44.6625941" lon="7.9283716"><ele>372.5</ele><time>2026-04-11T08:20:14.43Z</time></trkpt><trkpt lat="44.6625338" lon="7.9284555"><ele>373.66666666666663</ele><time>2026-04-11T08:20:16.43Z</time></trkpt><trkpt lat="44.6624867" lon="7.9285691"><ele>374.8333333333333</ele><time>2026-04-11T08:20:18.43Z</time></trkpt><trkpt lat="44.6624532" lon="7.9286466"><ele>376.0</ele><time>2026-04-11T08:20:20.43Z</time></trkpt><trkpt lat="44.6623757" lon="7.9286529"><ele>373.5</ele><time>2026-04-11T08:20:22.43Z</time></trkpt><trkpt lat="44.6622974" lon="7.9286125"><ele>371.0</ele><time>2026-04-11T08:20:24.43Z</time></trkpt><trkpt lat="44.6622201" lon="7.9285824"><ele>368.5</ele><time>2026-04-11T08:20:26.43Z</time></trkpt><trkpt lat="44.662141" lon="7.9285373"><ele>366.0</ele><time>2026-04-11T08:20:28.43Z</time></trkpt><trkpt lat="44.6620648" lon="7.9284905"><ele>363.5</ele><time>2026-04-11T08:20:30.43Z</time></trkpt><trkpt lat="44.6619877" lon="7.9284729"><ele>361.0</ele><time>2026-04-11T08:20:32.43Z</time></trkpt><trkpt lat="44.6619164" lon="7.9284505"><ele>361.0</ele><time>2026-04-11T08:20:34.43Z</time></trkpt><trkpt lat="44.6618373" lon="7.9284172"><ele>361.0</ele><time>2026-04-11T08:20:36.43Z</time></trkpt><trkpt lat="44.6617703" lon="7.9283798"><ele>361.0</ele><time>2026-04-11T08:20:38.43Z</time></trkpt><trkpt lat="44.6616986" lon="7.9283549"><ele>361.0</ele><time>2026-04-11T08:20:40.43Z</time></trkpt><trkpt lat="44.6616325" lon="7.9283244"><ele>361.0</ele><time>2026-04-11T08:20:42.43Z</time></trkpt><trkpt lat="44.6615374" lon="7.9282999"><ele>361.0</ele><time>2026-04-11T08:20:44.43Z</time></trkpt><trkpt lat="44.6614508" lon="7.928285"><ele>363.8333333333333</ele><time>2026-04-11T08:20:47.43Z</time></trkpt><trkpt lat="44.6613694" lon="7.9282882"><ele>366.66666666666663</ele><time>2026-04-11T08:20:49.43Z</time></trkpt><trkpt lat="44.6613041" lon="7.9282734"><ele>369.5</ele><time>2026-04-11T08:20:51.43Z</time></trkpt><trkpt lat="44.6612406" lon="7.9282608"><ele>372.3333333333333</ele><time>2026-04-11T08:20:53.43Z</time></trkpt><trkpt lat="44.6611754" lon="7.928225"><ele>375.1666666666667</ele><time>2026-04-11T08:20:55.43Z</time></trkpt><trkpt lat="44.6610814" lon="7.9281966"><ele>378.0</ele><time>2026-04-11T08:20:58.43Z</time></trkpt><trkpt lat="44.6610036" lon="7.9281922"><ele>378.2857142857143</ele><time>2026-04-11T08:21:00.43Z</time></trkpt><trkpt lat="44.6609373" lon="7.9281959"><ele>378.57142857142856</ele><time>2026-04-11T08:21:02.43Z</time></trkpt><trkpt lat="44.6608716" lon="7.928197"><ele>378.8571428571429</ele><time>2026-04-11T08:21:04.43Z</time></trkpt><trkpt lat="44.6608004" lon="7.9281816"><ele>379.1428571428571</ele><time>2026-04-11T08:21:06.43Z</time></trkpt><trkpt lat="44.6607374" lon="7.9281425"><ele>379.42857142857144</ele><time>2026-04-11T08:21:08.431Z</time></trkpt><trkpt lat="44.6606594" lon="7.9281599"><ele>379.7142857142857</ele><time>2026-04-11T08:21:10.43Z</time></trkpt><trkpt lat="44.6605849" lon="7.9281933"><ele>380.0</ele><time>2026-04-11T08:21:12.43Z</time></trkpt><trkpt lat="44.6604904" lon="7.9281979"><ele>380.0</ele><time>2026-04-11T08:21:15.43Z</time></trkpt><trkpt lat="44.6604064" lon="7.928197"><ele>380.0</ele><time>2026-04-11T08:21:18.43Z</time></trkpt><trkpt lat="44.660328" lon="7.9282072"><ele>380.0</ele><time>2026-04-11T08:21:21.43Z</time></trkpt><trkpt lat="44.6602455" lon="7.9282394"><ele>380.0</ele><time>2026-04-11T08:21:24.43Z</time></trkpt><trkpt lat="44.66018" lon="7.9282469"><ele>380.0</ele><time>2026-04-11T08:21:26.43Z</time></trkpt><trkpt lat="44.660113" lon="7.9282436"><ele>380.0</ele><time>2026-04-11T08:21:28.43Z</time></trkpt><trkpt lat="44.6600272" lon="7.9282664"><ele>381.33333333333337</ele><time>2026-04-11T08:21:31.43Z</time></trkpt><trkpt lat="44.6599638" lon="7.928284"><ele>382.6666666666667</ele><time>2026-04-11T08:21:33.43Z</time></trkpt><trkpt lat="44.6598726" lon="7.9282858"><ele>384.0</ele><time>2026-04-11T08:21:36.43Z</time></trkpt><trkpt lat="44.6598026" lon="7.928273"><ele>385.33333333333337</ele><time>2026-04-11T08:21:38.43Z</time></trkpt><trkpt lat="44.6597364" lon="7.9282592"><ele>386.6666666666667</ele><time>2026-04-11T08:21:40.43Z</time></trkpt><trkpt lat="44.6596457" lon="7.928223"><ele>388.0</ele><time>2026-04-11T08:21:43.43Z</time></trkpt><trkpt lat="44.6595687" lon="7.9281794"><ele>388.00000000000006</ele><time>2026-04-11T08:21:46.43Z</time></trkpt><trkpt lat="44.6594914" lon="7.9281157"><ele>388.0</ele><time>2026-04-11T08:21:49.43Z</time></trkpt><trkpt lat="44.6594162" lon="7.928055"><ele>388.0</ele><time>2026-04-11T08:21:52.43Z</time></trkpt><trkpt lat="44.6593627" lon="7.9280053"><ele>388.0</ele><time>2026-04-11T08:21:54.43Z</time></trkpt><trkpt lat="44.6592872" lon="7.927936"><ele>388.00000000000006</ele><time>2026-04-11T08:21:57.43Z</time></trkpt><trkpt lat="44.6592083" lon="7.9278794"><ele>388.0</ele><time>2026-04-11T08:22:00.43Z</time></trkpt><trkpt lat="44.6591297" lon="7.9278079"><ele>387.85714285714283</ele><time>2026-04-11T08:22:03.43Z</time></trkpt><trkpt lat="44.6590766" lon="7.9277599"><ele>387.7142857142857</ele><time>2026-04-11T08:22:05.43Z</time></trkpt><trkpt lat="44.6589991" lon="7.9276924"><ele>387.57142857142856</ele><time>2026-04-11T08:22:08.43Z</time></trkpt><trkpt lat="44.6589441" lon="7.9276487"><ele>387.42857142857144</ele><time>2026-04-11T08:22:10.43Z</time></trkpt><trkpt lat="44.6588863" lon="7.9276128"><ele>387.28571428571433</ele><time>2026-04-11T08:22:12.43Z</time></trkpt><trkpt lat="44.6588312" lon="7.9275524"><ele>387.14285714285717</ele><time>2026-04-11T08:22:14.43Z</time></trkpt><trkpt lat="44.6587741" lon="7.9275012"><ele>387.0</ele><time>2026-04-11T08:22:16.43Z</time></trkpt><trkpt lat="44.658712" lon="7.92745"><ele>388.8333333333333</ele><time>2026-04-11T08:22:18.43Z</time></trkpt><trkpt lat="44.6586519" lon="7.9274205"><ele>390.66666666666663</ele><time>2026-04-11T08:22:20.43Z</time></trkpt><trkpt lat="44.658573" lon="7.9273701"><ele>392.5</ele><time>2026-04-11T08:22:23.43Z</time></trkpt><trkpt lat="44.6584886" lon="7.9273149"><ele>394.3333333333333</ele><time>2026-04-11T08:22:26.43Z</time></trkpt><trkpt lat="44.6584065" lon="7.9272575"><ele>396.16666666666663</ele><time>2026-04-11T08:22:29.43Z</time></trkpt><trkpt lat="44.6583426" lon="7.9272423"><ele>398.0</ele><time>2026-04-11T08:22:31.43Z</time></trkpt><trkpt lat="44.6582673" lon="7.9272169"><ele>397.99999999999994</ele><time>2026-04-11T08:22:33.43Z</time></trkpt><trkpt lat="44.6581994" lon="7.9271902"><ele>398.0</ele><time>2026-04-11T08:22:35.43Z</time></trkpt><trkpt lat="44.6581434" lon="7.9271487"><ele>398.0</ele><time>2026-04-11T08:22:37.43Z</time></trkpt><trkpt lat="44.6580798" lon="7.9271396"><ele>398.0</ele><time>2026-04-11T08:22:39.43Z</time></trkpt><trkpt lat="44.6580152" lon="7.9271216"><ele>398.0</ele><time>2026-04-11T08:22:41.43Z</time></trkpt><trkpt lat="44.657928" lon="7.9270823"><ele>397.99999999999994</ele><time>2026-04-11T08:22:44.43Z</time></trkpt><trkpt lat="44.6578661" lon="7.9270605"><ele>398.0</ele><time>2026-04-11T08:22:46.43Z</time></trkpt><trkpt lat="44.6577958" lon="7.9270367"><ele>397.99999999999994</ele><time>2026-04-11T08:22:48.43Z</time></trkpt><trkpt lat="44.6577309" lon="7.9270217"><ele>398.0</ele><time>2026-04-11T08:22:50.43Z</time></trkpt><trkpt lat="44.6576644" lon="7.9270071"><ele>398.0</ele><time>2026-04-11T08:22:52.43Z</time></trkpt><trkpt lat="44.6575766" lon="7.9269938"><ele>398.0</ele><time>2026-04-11T08:22:55.43Z</time></trkpt><trkpt lat="44.6575046" lon="7.9269787"><ele>397.99999999999994</ele><time>2026-04-11T08:22:58.43Z</time></trkpt><trkpt lat="44.6574115" lon="7.9269402"><ele>398.0</ele><time>2026-04-11T08:23:01.43Z</time></trkpt><trkpt lat="44.6573289" lon="7.9269505"><ele>397.99999999999994</ele><time>2026-04-11T08:23:03.43Z</time></trkpt><trkpt lat="44.6572598" lon="7.9269512"><ele>398.0</ele><time>2026-04-11T08:23:05.43Z</time></trkpt><trkpt lat="44.657189" lon="7.9269413"><ele>398.0</ele><time>2026-04-11T08:23:07.43Z</time></trkpt><trkpt lat="44.6571195" lon="7.9269216"><ele>398.0</ele><time>2026-04-11T08:23:09.43Z</time></trkpt><trkpt lat="44.6570484" lon="7.9269212"><ele>398.0</ele><time>2026-04-11T08:23:11.43Z</time></trkpt><trkpt lat="44.6569699" lon="7.9269377"><ele>397.99999999999994</ele><time>2026-04-11T08:23:13.43Z</time></trkpt><trkpt lat="44.6568882" lon="7.9269797"><ele>398.0</ele><time>2026-04-11T08:23:15.431Z</time></trkpt><trkpt lat="44.6568151" lon="7.9269491"><ele>399.4</ele><time>2026-04-11T08:23:17.43Z</time></trkpt><trkpt lat="44.6567257" lon="7.9269905"><ele>400.79999999999995</ele><time>2026-04-11T08:23:19.43Z</time></trkpt><trkpt lat="44.6566305" lon="7.9270486"><ele>402.2</ele><time>2026-04-11T08:23:21.43Z</time></trkpt><trkpt lat="44.6565281" lon="7.927079"><ele>403.6</ele><time>2026-04-11T08:23:23.43Z</time></trkpt><trkpt lat="44.6564351" lon="7.9271214"><ele>405.0</ele><time>2026-04-11T08:23:25.43Z</time></trkpt><trkpt lat="44.6563497" lon="7.9271765"><ele>405.0</ele><time>2026-04-11T08:23:27.43Z</time></trkpt><trkpt lat="44.6562669" lon="7.9272155"><ele>405.0</ele><time>2026-04-11T08:23:29.43Z</time></trkpt><trkpt lat="44.656177" lon="7.9272403"><ele>405.0</ele><time>2026-04-11T08:23:31.43Z</time></trkpt><trkpt lat="44.6560815" lon="7.9272609"><ele>405.0</ele><time>2026-04-11T08:23:33.43Z</time></trkpt><trkpt lat="44.65599" lon="7.927272"><ele>405.0</ele><time>2026-04-11T08:23:35.43Z</time></trkpt><trkpt lat="44.6559039" lon="7.9272574"><ele>405.8333333333333</ele><time>2026-04-11T08:23:37.43Z</time></trkpt><trkpt lat="44.6558238" lon="7.9272929"><ele>406.66666666666663</ele><time>2026-04-11T08:23:39.43Z</time></trkpt><trkpt lat="44.6557492" lon="7.9273094"><ele>407.5</ele><time>2026-04-11T08:23:41.43Z</time></trkpt><trkpt lat="44.6556717" lon="7.9273224"><ele>408.3333333333333</ele><time>2026-04-11T08:23:43.43Z</time></trkpt><trkpt lat="44.6555954" lon="7.9273329"><ele>409.16666666666663</ele><time>2026-04-11T08:23:45.43Z</time></trkpt><trkpt lat="44.655511" lon="7.9273627"><ele>410.0</ele><time>2026-04-11T08:23:47.43Z</time></trkpt><trkpt lat="44.6554343" lon="7.9273824"><ele>410.0</ele><time>2026-04-11T08:23:49.43Z</time></trkpt><trkpt lat="44.655364" lon="7.9273843"><ele>410.0</ele><time>2026-04-11T08:23:51.43Z</time></trkpt><trkpt lat="44.6552949" lon="7.927386"><ele>410.0</ele><time>2026-04-11T08:23:53.43Z</time></trkpt><trkpt lat="44.6552179" lon="7.9274144"><ele>410.0</ele><time>2026-04-11T08:23:55.43Z</time></trkpt><trkpt lat="44.6551488" lon="7.9274171"><ele>410.0</ele><time>2026-04-11T08:23:57.43Z</time></trkpt><trkpt lat="44.655084" lon="7.9274193"><ele>410.0</ele><time>2026-04-11T08:23:59.43Z</time></trkpt><trkpt lat="44.6550208" lon="7.9274233"><ele>410.0</ele><time>2026-04-11T08:24:01.43Z</time></trkpt><trkpt lat="44.6549322" lon="7.927435"><ele>411.16666666666663</ele><time>2026-04-11T08:24:04.43Z</time></trkpt><trkpt lat="44.6548485" lon="7.927422"><ele>412.3333333333333</ele><time>2026-04-11T08:24:07.431Z</time></trkpt><trkpt lat="44.6547576" lon="7.927412"><ele>413.5</ele><time>2026-04-11T08:24:10.43Z</time></trkpt><trkpt lat="44.6546831" lon="7.9274029"><ele>414.66666666666663</ele><time>2026-04-11T08:24:13.43Z</time></trkpt><trkpt lat="44.6546115" lon="7.9273749"><ele>415.8333333333333</ele><time>2026-04-11T08:24:16.43Z</time></trkpt><trkpt lat="44.6545399" lon="7.9273897"><ele>417.0</ele><time>2026-04-11T08:24:19.43Z</time></trkpt><trkpt lat="44.6544739" lon="7.9274799"><ele>417.8333333333333</ele><time>2026-04-11T08:24:22.43Z</time></trkpt><trkpt lat="44.6544131" lon="7.9275691"><ele>418.66666666666663</ele><time>2026-04-11T08:24:25.43Z</time></trkpt><trkpt lat="44.6543538" lon="7.9276038"><ele>419.5</ele><time>2026-04-11T08:24:28.43Z</time></trkpt><trkpt lat="44.6543033" lon="7.9276738"><ele>420.3333333333333</ele><time>2026-04-11T08:24:31.43Z</time></trkpt><trkpt lat="44.6542348" lon="7.9277406"><ele>421.16666666666663</ele><time>2026-04-11T08:24:34.43Z</time></trkpt><trkpt lat="44.6541693" lon="7.9277634"><ele>422.0</ele><time>2026-04-11T08:24:36.43Z</time></trkpt><trkpt lat="44.6540967" lon="7.9278136"><ele>421.99999999999994</ele><time>2026-04-11T08:24:39.43Z</time></trkpt><trkpt lat="44.6540279" lon="7.9278826"><ele>422.0</ele><time>2026-04-11T08:24:42.43Z</time></trkpt><trkpt lat="44.6539656" lon="7.9279385"><ele>422.0</ele><time>2026-04-11T08:24:45.43Z</time></trkpt><trkpt lat="44.6539048" lon="7.9279994"><ele>422.0</ele><time>2026-04-11T08:24:48.43Z</time></trkpt><trkpt lat="44.6538254" lon="7.9280446"><ele>421.99999999999994</ele><time>2026-04-11T08:24:51.43Z</time></trkpt><trkpt lat="44.6537423" lon="7.9280766"><ele>422.0</ele><time>2026-04-11T08:24:54.43Z</time></trkpt><trkpt lat="44.6536629" lon="7.9280841"><ele>423.57142857142856</ele><time>2026-04-11T08:24:58.43Z</time></trkpt><trkpt lat="44.6536063" lon="7.9281329"><ele>425.14285714285717</ele><time>2026-04-11T08:25:01.43Z</time></trkpt><trkpt lat="44.6535438" lon="7.9281871"><ele>426.71428571428567</ele><time>2026-04-11T08:25:05.43Z</time></trkpt><trkpt lat="44.653466" lon="7.9282109"><ele>428.2857142857143</ele><time>2026-04-11T08:25:09.437Z</time></trkpt><trkpt lat="44.6533858" lon="7.9282301"><ele>429.85714285714283</ele><time>2026-04-11T08:25:13.437Z</time></trkpt><trkpt lat="44.6533156" lon="7.9282264"><ele>431.4285714285714</ele><time>2026-04-11T08:25:17.437Z</time></trkpt><trkpt lat="44.6532539" lon="7.9282032"><ele>433.0</ele><time>2026-04-11T08:25:20.437Z</time></trkpt><trkpt lat="44.6531828" lon="7.9281719"><ele>432.99999999999994</ele><time>2026-04-11T08:25:23.437Z</time></trkpt><trkpt lat="44.653112" lon="7.9281892"><ele>433.0</ele><time>2026-04-11T08:25:26.437Z</time></trkpt><trkpt lat="44.6530436" lon="7.928203"><ele>433.0</ele><time>2026-04-11T08:25:30.437Z</time></trkpt><trkpt lat="44.6529753" lon="7.9282226"><ele>433.0</ele><time>2026-04-11T08:25:34.437Z</time></trkpt><trkpt lat="44.6528969" lon="7.9282371"><ele>433.0</ele><time>2026-04-11T08:25:38.437Z</time></trkpt><trkpt lat="44.6528195" lon="7.9282165"><ele>432.99999999999994</ele><time>2026-04-11T08:25:42.437Z</time></trkpt><trkpt lat="44.6527501" lon="7.9282625"><ele>433.0</ele><time>2026-04-11T08:25:46.437Z</time></trkpt><trkpt lat="44.6526939" lon="7.9283252"><ele>433.83333333333337</ele><time>2026-04-11T08:25:50.437Z</time></trkpt><trkpt lat="44.6526585" lon="7.9284314"><ele>434.6666666666667</ele><time>2026-04-11T08:25:53.437Z</time></trkpt><trkpt lat="44.6526172" lon="7.9285073"><ele>435.5</ele><time>2026-04-11T08:25:55.437Z</time></trkpt><trkpt lat="44.6525845" lon="7.9286041"><ele>436.33333333333337</ele><time>2026-04-11T08:25:58.437Z</time></trkpt><trkpt lat="44.6525383" lon="7.9287054"><ele>437.1666666666667</ele><time>2026-04-11T08:26:01.437Z</time></trkpt><trkpt lat="44.6524891" lon="7.9287947"><ele>438.0</ele><time>2026-04-11T08:26:04.437Z</time></trkpt><trkpt lat="44.652438" lon="7.9288897"><ele>438.0</ele><time>2026-04-11T08:26:07.437Z</time></trkpt><trkpt lat="44.6523428" lon="7.9288984"><ele>438.0</ele><time>2026-04-11T08:26:10.437Z</time></trkpt><trkpt lat="44.6522648" lon="7.9288476"><ele>438.0</ele><time>2026-04-11T08:26:13.437Z</time></trkpt><trkpt lat="44.6522069" lon="7.928804"><ele>438.0</ele><time>2026-04-11T08:26:16.437Z</time></trkpt><trkpt lat="44.6521407" lon="7.9287621"><ele>438.0</ele><time>2026-04-11T08:26:19.437Z</time></trkpt><trkpt lat="44.6520748" lon="7.9287228"><ele>438.0</ele><time>2026-04-11T08:26:22.437Z</time></trkpt><trkpt lat="44.6520092" lon="7.9286913"><ele>437.6666666666667</ele><time>2026-04-11T08:26:25.437Z</time></trkpt><trkpt lat="44.6519533" lon="7.9286451"><ele>437.33333333333337</ele><time>2026-04-11T08:26:27.437Z</time></trkpt><trkpt lat="44.6518868" lon="7.9285787"><ele>437.0</ele><time>2026-04-11T08:26:30.437Z</time></trkpt><trkpt lat="44.6518186" lon="7.9285345"><ele>436.6666666666667</ele><time>2026-04-11T08:26:33.437Z</time></trkpt><trkpt lat="44.651747" lon="7.9284634"><ele>436.33333333333337</ele><time>2026-04-11T08:26:36.437Z</time></trkpt><trkpt lat="44.6516616" lon="7.9284155"><ele>436.0</ele><time>2026-04-11T08:26:39.437Z</time></trkpt><trkpt lat="44.651594" lon="7.9283692"><ele>437.50000000000006</ele><time>2026-04-11T08:26:41.437Z</time></trkpt><trkpt lat="44.6515109" lon="7.9283413"><ele>439.0</ele><time>2026-04-11T08:26:44.437Z</time></trkpt><trkpt lat="44.651411" lon="7.9283361"><ele>440.5</ele><time>2026-04-11T08:26:47.438Z</time></trkpt><trkpt lat="44.6513268" lon="7.9283121"><ele>442.0</ele><time>2026-04-11T08:26:49.437Z</time></trkpt><trkpt lat="44.6512642" lon="7.9282944"><ele>443.50000000000006</ele><time>2026-04-11T08:26:51.437Z</time></trkpt><trkpt lat="44.6511757" lon="7.9282528"><ele>445.0</ele><time>2026-04-11T08:26:54.437Z</time></trkpt><trkpt lat="44.6511124" lon="7.9282167"><ele>445.14285714285717</ele><time>2026-04-11T08:26:56.437Z</time></trkpt><trkpt lat="44.6510592" lon="7.9281688"><ele>445.2857142857143</ele><time>2026-04-11T08:26:58.437Z</time></trkpt><trkpt lat="44.6509778" lon="7.9281535"><ele>445.42857142857144</ele><time>2026-04-11T08:27:00.437Z</time></trkpt><trkpt lat="44.6509001" lon="7.9281587"><ele>445.57142857142856</ele><time>2026-04-11T08:27:03.437Z</time></trkpt><trkpt lat="44.6508319" lon="7.9281544"><ele>445.71428571428567</ele><time>2026-04-11T08:27:05.437Z</time></trkpt><trkpt lat="44.6507493" lon="7.9281847"><ele>445.85714285714283</ele><time>2026-04-11T08:27:07.437Z</time></trkpt><trkpt lat="44.6506806" lon="7.9281887"><ele>446.0</ele><time>2026-04-11T08:27:09.437Z</time></trkpt><trkpt lat="44.6505838" lon="7.9281754"><ele>445.99999999999994</ele><time>2026-04-11T08:27:12.437Z</time></trkpt><trkpt lat="44.6505183" lon="7.928152"><ele>446.0</ele><time>2026-04-11T08:27:14.437Z</time></trkpt><trkpt lat="44.6504131" lon="7.9281379"><ele>446.0</ele><time>2026-04-11T08:27:17.437Z</time></trkpt><trkpt lat="44.6503413" lon="7.928111"><ele>446.0</ele><time>2026-04-11T08:27:19.437Z</time></trkpt><trkpt lat="44.6502733" lon="7.9280872"><ele>445.99999999999994</ele><time>2026-04-11T08:27:21.437Z</time></trkpt><trkpt lat="44.6502065" lon="7.9280597"><ele>446.0</ele><time>2026-04-11T08:27:23.437Z</time></trkpt><trkpt lat="44.6501373" lon="7.9280203"><ele>446.57142857142856</ele><time>2026-04-11T08:27:25.438Z</time></trkpt><trkpt lat="44.650074" lon="7.9279834"><ele>447.1428571428571</ele><time>2026-04-11T08:27:27.437Z</time></trkpt><trkpt lat="44.6500167" lon="7.9279332"><ele>447.7142857142858</ele><time>2026-04-11T08:27:29.437Z</time></trkpt><trkpt lat="44.6499423" lon="7.9279433"><ele>448.28571428571433</ele><time>2026-04-11T08:27:31.437Z</time></trkpt><trkpt lat="44.6498652" lon="7.9279332"><ele>448.8571428571429</ele><time>2026-04-11T08:27:34.437Z</time></trkpt><trkpt lat="44.6497803" lon="7.9279349"><ele>449.4285714285715</ele><time>2026-04-11T08:27:37.437Z</time></trkpt><trkpt lat="44.6497179" lon="7.9279127"><ele>450.00000000000006</ele><time>2026-04-11T08:27:39.438Z</time></trkpt><trkpt lat="44.6496338" lon="7.9278803"><ele>450.00000000000006</ele><time>2026-04-11T08:27:42.437Z</time></trkpt><trkpt lat="44.6495651" lon="7.9278397"><ele>450.0</ele><time>2026-04-11T08:27:45.437Z</time></trkpt><trkpt lat="44.649501" lon="7.9277988"><ele>450.00000000000006</ele><time>2026-04-11T08:27:48.437Z</time></trkpt><trkpt lat="44.6494287" lon="7.9277784"><ele>450.00000000000006</ele><time>2026-04-11T08:27:51.437Z</time></trkpt><trkpt lat="44.6493598" lon="7.9277702"><ele>450.0</ele><time>2026-04-11T08:27:54.437Z</time></trkpt><trkpt lat="44.6492826" lon="7.9277646"><ele>450.00000000000006</ele><time>2026-04-11T08:27:58.437Z</time></trkpt><trkpt lat="44.6492152" lon="7.9277784"><ele>450.00000000000006</ele><time>2026-04-11T08:28:01.437Z</time></trkpt><trkpt lat="44.6491468" lon="7.9277846"><ele>451.1666666666667</ele><time>2026-04-11T08:28:04.437Z</time></trkpt><trkpt lat="44.6490728" lon="7.9277855"><ele>452.33333333333337</ele><time>2026-04-11T08:28:07.437Z</time></trkpt><trkpt lat="44.6490084" lon="7.9277916"><ele>453.5</ele><time>2026-04-11T08:28:10.437Z</time></trkpt><trkpt lat="44.648938" lon="7.9278323"><ele>454.6666666666667</ele><time>2026-04-11T08:28:13.437Z</time></trkpt><trkpt lat="44.6488408" lon="7.9278478"><ele>455.83333333333337</ele><time>2026-04-11T08:28:16.437Z</time></trkpt><trkpt lat="44.6487551" lon="7.9278775"><ele>457.0</ele><time>2026-04-11T08:28:18.437Z</time></trkpt><trkpt lat="44.6486635" lon="7.9278973"><ele>457.40000000000003</ele><time>2026-04-11T08:28:20.437Z</time></trkpt><trkpt lat="44.648567" lon="7.9279127"><ele>457.80000000000007</ele><time>2026-04-11T08:28:22.437Z</time></trkpt><trkpt lat="44.6484501" lon="7.9279238"><ele>458.2</ele><time>2026-04-11T08:28:24.437Z</time></trkpt><trkpt lat="44.6483502" lon="7.9279199"><ele>458.6</ele><time>2026-04-11T08:28:26.437Z</time></trkpt><trkpt lat="44.6482311" lon="7.9279318"><ele>459.0</ele><time>2026-04-11T08:28:28.437Z</time></trkpt><trkpt lat="44.6481143" lon="7.9279296"><ele>459.0</ele><time>2026-04-11T08:28:30.437Z</time></trkpt><trkpt lat="44.6479978" lon="7.9279256"><ele>459.0</ele><time>2026-04-11T08:28:32.437Z</time></trkpt><trkpt lat="44.6478992" lon="7.9278919"><ele>459.0</ele><time>2026-04-11T08:28:34.438Z</time></trkpt><trkpt lat="44.6477914" lon="7.9278901"><ele>459.0</ele><time>2026-04-11T08:28:36.438Z</time></trkpt><trkpt lat="44.6476725" lon="7.9279306"><ele>459.0</ele><time>2026-04-11T08:28:38.437Z</time></trkpt><trkpt lat="44.647563" lon="7.9279497"><ele>458.6</ele><time>2026-04-11T08:28:40.437Z</time></trkpt><trkpt lat="44.6474585" lon="7.9279527"><ele>458.2</ele><time>2026-04-11T08:28:42.437Z</time></trkpt><trkpt lat="44.6473489" lon="7.9279583"><ele>457.80000000000007</ele><time>2026-04-11T08:28:44.438Z</time></trkpt><trkpt lat="44.6472453" lon="7.9279676"><ele>457.40000000000003</ele><time>2026-04-11T08:28:46.438Z</time></trkpt><trkpt lat="44.6471334" lon="7.9279729"><ele>457.0</ele><time>2026-04-11T08:28:48.438Z</time></trkpt><trkpt lat="44.6470331" lon="7.9279701"><ele>458.25</ele><time>2026-04-11T08:28:50.438Z</time></trkpt><trkpt lat="44.6469164" lon="7.9279824"><ele>459.5</ele><time>2026-04-11T08:28:52.438Z</time></trkpt><trkpt lat="44.6468045" lon="7.928007"><ele>460.75</ele><time>2026-04-11T08:28:54.438Z</time></trkpt><trkpt lat="44.6466895" lon="7.9280205"><ele>462.0</ele><time>2026-04-11T08:28:56.438Z</time></trkpt><trkpt lat="44.6465684" lon="7.928053"><ele>462.0</ele><time>2026-04-11T08:28:58.438Z</time></trkpt><trkpt lat="44.6464464" lon="7.9280805"><ele>462.0</ele><time>2026-04-11T08:29:00.438Z</time></trkpt><trkpt lat="44.6463235" lon="7.9281038"><ele>462.0</ele><time>2026-04-11T08:29:02.438Z</time></trkpt><trkpt lat="44.6462027" lon="7.9281416"><ele>462.0</ele><time>2026-04-11T08:29:04.438Z</time></trkpt><trkpt lat="44.646084" lon="7.9281765"><ele>462.6</ele><time>2026-04-11T08:29:06.438Z</time></trkpt><trkpt lat="44.6460208" lon="7.92818"><ele>463.20000000000005</ele><time>2026-04-11T08:29:07.438Z</time></trkpt><trkpt lat="44.6459058" lon="7.9281918"><ele>463.8</ele><time>2026-04-11T08:29:09.438Z</time></trkpt><trkpt lat="44.6458023" lon="7.9282128"><ele>464.4</ele><time>2026-04-11T08:29:11.438Z</time></trkpt><trkpt lat="44.6457119" lon="7.9282472"><ele>465.0</ele><time>2026-04-11T08:29:13.438Z</time></trkpt><trkpt lat="44.6456237" lon="7.9283014"><ele>465.0</ele><time>2026-04-11T08:29:15.438Z</time></trkpt><trkpt lat="44.645531" lon="7.9283529"><ele>465.0</ele><time>2026-04-11T08:29:17.438Z</time></trkpt><trkpt lat="44.6454537" lon="7.9284564"><ele>465.0</ele><time>2026-04-11T08:29:19.438Z</time></trkpt><trkpt lat="44.6453854" lon="7.9285648"><ele>465.0</ele><time>2026-04-11T08:29:21.438Z</time></trkpt><trkpt lat="44.6453141" lon="7.9286538"><ele>465.0</ele><time>2026-04-11T08:29:23.438Z</time></trkpt><trkpt lat="44.645252" lon="7.9287469"><ele>465.6666666666667</ele><time>2026-04-11T08:29:25.438Z</time></trkpt><trkpt lat="44.6451936" lon="7.928829"><ele>466.33333333333337</ele><time>2026-04-11T08:29:27.438Z</time></trkpt><trkpt lat="44.645134" lon="7.928905"><ele>467.0</ele><time>2026-04-11T08:29:29.438Z</time></trkpt><trkpt lat="44.6450736" lon="7.928992"><ele>467.6666666666667</ele><time>2026-04-11T08:29:31.438Z</time></trkpt><trkpt lat="44.6450204" lon="7.9290576"><ele>468.33333333333337</ele><time>2026-04-11T08:29:33.438Z</time></trkpt><trkpt lat="44.6449792" lon="7.9291289"><ele>469.0</ele><time>2026-04-11T08:29:35.438Z</time></trkpt><trkpt lat="44.6449317" lon="7.929202"><ele>469.0</ele><time>2026-04-11T08:29:37.438Z</time></trkpt><trkpt lat="44.6448797" lon="7.9292781"><ele>469.0</ele><time>2026-04-11T08:29:39.438Z</time></trkpt><trkpt lat="44.6448227" lon="7.9293476"><ele>469.0</ele><time>2026-04-11T08:29:41.438Z</time></trkpt><trkpt lat="44.6447653" lon="7.9294215"><ele>469.0</ele><time>2026-04-11T08:29:43.438Z</time></trkpt><trkpt lat="44.6446969" lon="7.9294898"><ele>469.0</ele><time>2026-04-11T08:29:45.438Z</time></trkpt><trkpt lat="44.644646" lon="7.929559"><ele>469.0</ele><time>2026-04-11T08:29:47.438Z</time></trkpt><trkpt lat="44.6445961" lon="7.9296196"><ele>469.0</ele><time>2026-04-11T08:29:49.438Z</time></trkpt><trkpt lat="44.6445447" lon="7.9296754"><ele>469.00000000000006</ele><time>2026-04-11T08:29:51.438Z</time></trkpt><trkpt lat="44.6444783" lon="7.9297558"><ele>469.0</ele><time>2026-04-11T08:29:54.438Z</time></trkpt><trkpt lat="44.6444154" lon="7.9298371"><ele>469.0</ele><time>2026-04-11T08:29:57.438Z</time></trkpt><trkpt lat="44.64436" lon="7.9298977"><ele>469.0</ele><time>2026-04-11T08:29:59.438Z</time></trkpt><trkpt lat="44.6442847" lon="7.929959"><ele>469.00000000000006</ele><time>2026-04-11T08:30:02.438Z</time></trkpt><trkpt lat="44.6442317" lon="7.9300253"><ele>469.0</ele><time>2026-04-11T08:30:04.438Z</time></trkpt><trkpt lat="44.6441665" lon="7.9300468"><ele>471.1666666666667</ele><time>2026-04-11T08:30:06.438Z</time></trkpt><trkpt lat="44.6440772" lon="7.9301001"><ele>473.33333333333337</ele><time>2026-04-11T08:30:09.438Z</time></trkpt><trkpt lat="44.644034" lon="7.9302082"><ele>475.5</ele><time>2026-04-11T08:30:11.438Z</time></trkpt><trkpt lat="44.6440222" lon="7.9303001"><ele>477.66666666666663</ele><time>2026-04-11T08:30:13.438Z</time></trkpt><trkpt lat="44.6440013" lon="7.9304287"><ele>479.8333333333333</ele><time>2026-04-11T08:30:16.438Z</time></trkpt><trkpt lat="44.6439391" lon="7.9304959"><ele>482.0</ele><time>2026-04-11T08:30:19.438Z</time></trkpt><trkpt lat="44.6438801" lon="7.930584"><ele>481.99999999999994</ele><time>2026-04-11T08:30:22.438Z</time></trkpt><trkpt lat="44.6438352" lon="7.9306691"><ele>482.0</ele><time>2026-04-11T08:30:25.438Z</time></trkpt><trkpt lat="44.6437657" lon="7.9307285"><ele>482.0</ele><time>2026-04-11T08:30:28.438Z</time></trkpt><trkpt lat="44.6437042" lon="7.930822"><ele>482.0</ele><time>2026-04-11T08:30:31.438Z</time></trkpt><trkpt lat="44.6436374" lon="7.9308984"><ele>481.99999999999994</ele><time>2026-04-11T08:30:34.438Z</time></trkpt><trkpt lat="44.643595" lon="7.9309677"><ele>482.0</ele><time>2026-04-11T08:30:37.438Z</time></trkpt><trkpt lat="44.6435242" lon="7.931041"><ele>483.16666666666663</ele><time>2026-04-11T08:30:40.438Z</time></trkpt><trkpt lat="44.643466" lon="7.9311239"><ele>484.3333333333333</ele><time>2026-04-11T08:30:43.438Z</time></trkpt><trkpt lat="44.6434032" lon="7.931204"><ele>485.5</ele><time>2026-04-11T08:30:46.438Z</time></trkpt><trkpt lat="44.6433401" lon="7.9312776"><ele>486.66666666666663</ele><time>2026-04-11T08:30:49.438Z</time></trkpt><trkpt lat="44.6432908" lon="7.9313579"><ele>487.8333333333333</ele><time>2026-04-11T08:30:53.438Z</time></trkpt><trkpt lat="44.6432336" lon="7.9314325"><ele>489.0</ele><time>2026-04-11T08:30:55.438Z</time></trkpt><trkpt lat="44.6431824" lon="7.931508"><ele>489.0</ele><time>2026-04-11T08:30:58.438Z</time></trkpt><trkpt lat="44.6431212" lon="7.9315965"><ele>489.0</ele><time>2026-04-11T08:31:01.438Z</time></trkpt><trkpt lat="44.6430534" lon="7.9316568"><ele>489.0</ele><time>2026-04-11T08:31:04.438Z</time></trkpt><trkpt lat="44.6430131" lon="7.9317519"><ele>489.0</ele><time>2026-04-11T08:31:07.438Z</time></trkpt><trkpt lat="44.6429569" lon="7.9318446"><ele>489.0</ele><time>2026-04-11T08:31:10.438Z</time></trkpt><trkpt lat="44.6428907" lon="7.9319115"><ele>489.0</ele><time>2026-04-11T08:31:13.438Z</time></trkpt><trkpt lat="44.6428126" lon="7.9319857"><ele>490.3333333333333</ele><time>2026-04-11T08:31:16.438Z</time></trkpt><trkpt lat="44.6427614" lon="7.9320418"><ele>491.66666666666663</ele><time>2026-04-11T08:31:18.438Z</time></trkpt><trkpt lat="44.6427024" lon="7.9321201"><ele>493.0</ele><time>2026-04-11T08:31:21.438Z</time></trkpt><trkpt lat="44.6426398" lon="7.9322002"><ele>494.3333333333333</ele><time>2026-04-11T08:31:23.439Z</time></trkpt><trkpt lat="44.6425781" lon="7.932282"><ele>495.66666666666663</ele><time>2026-04-11T08:31:26.438Z</time></trkpt><trkpt lat="44.6425121" lon="7.9323644"><ele>497.0</ele><time>2026-04-11T08:31:29.438Z</time></trkpt><trkpt lat="44.642446" lon="7.9324364"><ele>496.99999999999994</ele><time>2026-04-11T08:31:32.438Z</time></trkpt><trkpt lat="44.6423732" lon="7.9324592"><ele>497.0</ele><time>2026-04-11T08:31:34.438Z</time></trkpt><trkpt lat="44.6422814" lon="7.9324655"><ele>497.0</ele><time>2026-04-11T08:31:37.438Z</time></trkpt><trkpt lat="44.6421945" lon="7.9324884"><ele>497.0</ele><time>2026-04-11T08:31:39.438Z</time></trkpt><trkpt lat="44.6421142" lon="7.9325208"><ele>496.99999999999994</ele><time>2026-04-11T08:31:41.438Z</time></trkpt><trkpt lat="44.6420413" lon="7.9325639"><ele>497.0</ele><time>2026-04-11T08:31:43.438Z</time></trkpt><trkpt lat="44.6419709" lon="7.9325879"><ele>496.8333333333333</ele><time>2026-04-11T08:31:45.438Z</time></trkpt><trkpt lat="44.6418834" lon="7.9326265"><ele>496.66666666666663</ele><time>2026-04-11T08:31:47.444Z</time></trkpt><trkpt lat="44.6418062" lon="7.9326835"><ele>496.5</ele><time>2026-04-11T08:31:49.444Z</time></trkpt><trkpt lat="44.641722" lon="7.9327316"><ele>496.33333333333337</ele><time>2026-04-11T08:31:51.444Z</time></trkpt><trkpt lat="44.641631" lon="7.9327561"><ele>496.1666666666667</ele><time>2026-04-11T08:31:53.444Z</time></trkpt><trkpt lat="44.6415499" lon="7.9327886"><ele>496.0</ele><time>2026-04-11T08:31:55.444Z</time></trkpt><trkpt lat="44.6414405" lon="7.9328415"><ele>496.00000000000006</ele><time>2026-04-11T08:31:57.444Z</time></trkpt><trkpt lat="44.6413234" lon="7.9328906"><ele>496.0</ele><time>2026-04-11T08:31:59.444Z</time></trkpt><trkpt lat="44.6412648" lon="7.9329363"><ele>496.0</ele><time>2026-04-11T08:32:00.444Z</time></trkpt><trkpt lat="44.6412031" lon="7.9329833"><ele>496.0</ele><time>2026-04-11T08:32:01.444Z</time></trkpt><trkpt lat="44.6411401" lon="7.9330204"><ele>496.00000000000006</ele><time>2026-04-11T08:32:02.444Z</time></trkpt><trkpt lat="44.6410717" lon="7.9330494"><ele>496.0</ele><time>2026-04-11T08:32:03.444Z</time></trkpt><trkpt lat="44.6410097" lon="7.9330783"><ele>496.50000000000006</ele><time>2026-04-11T08:32:04.445Z</time></trkpt><trkpt lat="44.6408963" lon="7.9331481"><ele>497.0</ele><time>2026-04-11T08:32:06.444Z</time></trkpt><trkpt lat="44.6408262" lon="7.9331773"><ele>497.5</ele><time>2026-04-11T08:32:07.444Z</time></trkpt><trkpt lat="44.6407559" lon="7.9332011"><ele>498.0</ele><time>2026-04-11T08:32:08.444Z</time></trkpt><trkpt lat="44.6406924" lon="7.933233"><ele>498.50000000000006</ele><time>2026-04-11T08:32:09.444Z</time></trkpt><trkpt lat="44.6406326" lon="7.9332645"><ele>499.0</ele><time>2026-04-11T08:32:10.444Z</time></trkpt><trkpt lat="44.6405705" lon="7.933309"><ele>499.00000000000006</ele><time>2026-04-11T08:32:11.444Z</time></trkpt><trkpt lat="44.6404986" lon="7.9333429"><ele>499.0</ele><time>2026-04-11T08:32:12.444Z</time></trkpt><trkpt lat="44.6404261" lon="7.9333758"><ele>499.0</ele><time>2026-04-11T08:32:13.444Z</time></trkpt><trkpt lat="44.6403547" lon="7.9333968"><ele>499.0</ele><time>2026-04-11T08:32:14.444Z</time></trkpt><trkpt lat="44.6402609" lon="7.9334512"><ele>499.00000000000006</ele><time>2026-04-11T08:32:15.444Z</time></trkpt><trkpt lat="44.6401759" lon="7.9335094"><ele>499.0</ele><time>2026-04-11T08:32:16.444Z</time></trkpt><trkpt lat="44.6401066" lon="7.9335535"><ele>498.33333333333337</ele><time>2026-04-11T08:32:17.444Z</time></trkpt><trkpt lat="44.6400421" lon="7.9336108"><ele>497.6666666666667</ele><time>2026-04-11T08:32:18.444Z</time></trkpt><trkpt lat="44.639974" lon="7.9336656"><ele>497.0</ele><time>2026-04-11T08:32:19.444Z</time></trkpt><trkpt lat="44.639904" lon="7.9337074"><ele>496.33333333333337</ele><time>2026-04-11T08:32:20.444Z</time></trkpt><trkpt lat="44.6398434" lon="7.9337461"><ele>495.6666666666667</ele><time>2026-04-11T08:32:21.444Z</time></trkpt><trkpt lat="44.6397667" lon="7.9337952"><ele>495.0</ele><time>2026-04-11T08:32:22.444Z</time></trkpt><trkpt lat="44.639698" lon="7.9338261"><ele>495.0</ele><time>2026-04-11T08:32:23.444Z</time></trkpt><trkpt lat="44.6396285" lon="7.933871"><ele>495.0</ele><time>2026-04-11T08:32:24.444Z</time></trkpt><trkpt lat="44.6395581" lon="7.9339083"><ele>495.0</ele><time>2026-04-11T08:32:25.444Z</time></trkpt><trkpt lat="44.6394853" lon="7.9339482"><ele>495.0</ele><time>2026-04-11T08:32:26.444Z</time></trkpt><trkpt lat="44.6394195" lon="7.9339957"><ele>495.0</ele><time>2026-04-11T08:32:27.444Z</time></trkpt><trkpt lat="44.6393528" lon="7.9340333"><ele>495.0</ele><time>2026-04-11T08:32:28.444Z</time></trkpt><trkpt lat="44.6392827" lon="7.9340738"><ele>495.8333333333333</ele><time>2026-04-11T08:32:29.444Z</time></trkpt><trkpt lat="44.6392189" lon="7.934117"><ele>496.66666666666663</ele><time>2026-04-11T08:32:30.444Z</time></trkpt><trkpt lat="44.6391506" lon="7.9342089"><ele>497.5</ele><time>2026-04-11T08:32:33.444Z</time></trkpt><trkpt lat="44.6390714" lon="7.9342007"><ele>498.3333333333333</ele><time>2026-04-11T08:32:37.444Z</time></trkpt><trkpt lat="44.6390007" lon="7.9342339"><ele>499.16666666666663</ele><time>2026-04-11T08:32:39.444Z</time></trkpt><trkpt lat="44.6389173" lon="7.9342709"><ele>500.0</ele><time>2026-04-11T08:32:42.444Z</time></trkpt><trkpt lat="44.6388469" lon="7.9342692"><ele>499.99999999999994</ele><time>2026-04-11T08:32:44.444Z</time></trkpt><trkpt lat="44.6387732" lon="7.9343175"><ele>500.0</ele><time>2026-04-11T08:32:46.444Z</time></trkpt><trkpt lat="44.6386795" lon="7.9343173"><ele>500.0</ele><time>2026-04-11T08:32:48.445Z</time></trkpt><trkpt lat="44.6386002" lon="7.9343688"><ele>500.0</ele><time>2026-04-11T08:32:50.445Z</time></trkpt><trkpt lat="44.6385191" lon="7.9344334"><ele>499.99999999999994</ele><time>2026-04-11T08:32:52.445Z</time></trkpt><trkpt lat="44.6384485" lon="7.9344319"><ele>500.0</ele><time>2026-04-11T08:32:55.445Z</time></trkpt><trkpt lat="44.6383817" lon="7.9344714"><ele>500.0</ele><time>2026-04-11T08:32:57.445Z</time></trkpt><trkpt lat="44.6383174" lon="7.9345047"><ele>500.0</ele><time>2026-04-11T08:33:00.445Z</time></trkpt><trkpt lat="44.6382403" lon="7.9345181"><ele>500.0</ele><time>2026-04-11T08:33:02.445Z</time></trkpt><trkpt lat="44.6381646" lon="7.934527"><ele>500.0</ele><time>2026-04-11T08:33:06.445Z</time></trkpt><trkpt lat="44.6380763" lon="7.9345637"><ele>500.0</ele><time>2026-04-11T08:33:09.445Z</time></trkpt><trkpt lat="44.6382574" lon="7.9345766"><ele>500.0</ele><time>2026-04-11T08:33:11.397Z</time></trkpt><trkpt lat="44.6381738" lon="7.934534"><ele>500.0</ele><time>2026-04-11T08:33:14.524Z</time></trkpt><trkpt lat="44.6381073" lon="7.9344919"><ele>500.0</ele><time>2026-04-11T08:33:17.499Z</time></trkpt><trkpt lat="44.6380414" lon="7.9345478"><ele>500.0</ele><time>2026-04-11T08:33:20.529Z</time></trkpt><trkpt lat="44.6379978" lon="7.9346169"><ele>500.0</ele><time>2026-04-11T08:33:23.52Z</time></trkpt><trkpt lat="44.6377456" lon="7.9345055"><ele>498.99999999999994</ele><time>2026-04-11T08:33:24.477Z</time></trkpt><trkpt lat="44.6376565" lon="7.9344915"><ele>498.0</ele><time>2026-04-11T08:33:25.445Z</time></trkpt><trkpt lat="44.6375897" lon="7.9345158"><ele>497.0</ele><time>2026-04-11T08:33:27.469Z</time></trkpt><trkpt lat="44.6375147" lon="7.9345087"><ele>496.0</ele><time>2026-04-11T08:33:29.503Z</time></trkpt><trkpt lat="44.6374522" lon="7.9345254"><ele>494.99999999999994</ele><time>2026-04-11T08:33:31.537Z</time></trkpt><trkpt lat="44.6373978" lon="7.9344615"><ele>494.0</ele><time>2026-04-11T08:33:34.528Z</time></trkpt><trkpt lat="44.6373394" lon="7.9345455"><ele>494.0</ele><time>2026-04-11T08:33:37.519Z</time></trkpt><trkpt lat="44.6372943" lon="7.9344756"><ele>494.0</ele><time>2026-04-11T08:33:54.445Z</time></trkpt><trkpt lat="44.6372905" lon="7.9343753"><ele>494.0</ele><time>2026-04-11T08:33:56.445Z</time></trkpt><trkpt lat="44.6373315" lon="7.9343057"><ele>494.0</ele><time>2026-04-11T08:34:05.445Z</time></trkpt><trkpt lat="44.6372482" lon="7.9343085"><ele>494.0</ele><time>2026-04-11T08:37:20.446Z</time></trkpt><trkpt lat="44.6373109" lon="7.9343461"><ele>494.0</ele><time>2026-04-11T08:38:20.445Z</time></trkpt><trkpt lat="44.6373635" lon="7.9342826"><ele>494.0</ele><time>2026-04-11T08:38:23.445Z</time></trkpt><trkpt lat="44.6373013" lon="7.934334"><ele>493.99999999999994</ele><time>2026-04-11T08:38:28.454Z</time></trkpt><trkpt lat="44.6372346" lon="7.9343646"><ele>494.0</ele><time>2026-04-11T08:38:32.454Z</time></trkpt><trkpt lat="44.6373149" lon="7.9343236"><ele>494.0</ele><time>2026-04-11T08:39:05.454Z</time></trkpt><trkpt lat="44.6372631" lon="7.9344666"><ele>494.0</ele><time>2026-04-11T08:39:23.454Z</time></trkpt><trkpt lat="44.6373132" lon="7.9343546"><ele>493.99999999999994</ele><time>2026-04-11T08:40:10.482Z</time></trkpt><trkpt lat="44.6373735" lon="7.9343"><ele>494.0</ele><time>2026-04-11T08:40:52.454Z</time></trkpt><trkpt lat="44.6375276" lon="7.9343791"><ele>497.0</ele><time>2026-04-11T08:42:57.454Z</time></trkpt><trkpt lat="44.6375947" lon="7.9341619"><ele>500.0</ele><time>2026-04-11T08:43:01.454Z</time></trkpt><trkpt lat="44.6376429" lon="7.9340927"><ele>503.0</ele><time>2026-04-11T08:43:04.455Z</time></trkpt><trkpt lat="44.6376108" lon="7.9340067"><ele>506.0</ele><time>2026-04-11T08:43:07.454Z</time></trkpt><trkpt lat="44.6375663" lon="7.9339376"><ele>509.0</ele><time>2026-04-11T08:43:09.454Z</time></trkpt><trkpt lat="44.6374745" lon="7.9338471"><ele>508.99999999999994</ele><time>2026-04-11T08:43:12.454Z</time></trkpt><trkpt lat="44.6373984" lon="7.9337824"><ele>509.0</ele><time>2026-04-11T08:43:14.454Z</time></trkpt><trkpt lat="44.637348" lon="7.9337067"><ele>509.0</ele><time>2026-04-11T08:43:16.454Z</time></trkpt><trkpt lat="44.6372961" lon="7.9336342"><ele>509.0</ele><time>2026-04-11T08:43:18.454Z</time></trkpt><trkpt lat="44.6372549" lon="7.933554"><ele>508.99999999999994</ele><time>2026-04-11T08:43:21.454Z</time></trkpt><trkpt lat="44.6372709" lon="7.9334569"><ele>509.0</ele><time>2026-04-11T08:43:26.454Z</time></trkpt><trkpt lat="44.6372322" lon="7.9333632"><ele>508.49999999999994</ele><time>2026-04-11T08:43:29.454Z</time></trkpt><trkpt lat="44.6372653" lon="7.93326"><ele>508.0</ele><time>2026-04-11T08:43:33.454Z</time></trkpt><trkpt lat="44.6372491" lon="7.9331591"><ele>507.5</ele><time>2026-04-11T08:43:37.455Z</time></trkpt><trkpt lat="44.6372922" lon="7.9330803"><ele>507.0</ele><time>2026-04-11T08:43:40.454Z</time></trkpt><trkpt lat="44.637343" lon="7.9330035"><ele>506.49999999999994</ele><time>2026-04-11T08:43:43.454Z</time></trkpt><trkpt lat="44.6374184" lon="7.9329273"><ele>506.0</ele><time>2026-04-11T08:43:45.454Z</time></trkpt><trkpt lat="44.6373981" lon="7.9328381"><ele>505.99999999999994</ele><time>2026-04-11T08:43:46.454Z</time></trkpt><trkpt lat="44.6373987" lon="7.9327394"><ele>506.0</ele><time>2026-04-11T08:43:48.454Z</time></trkpt><trkpt lat="44.6374496" lon="7.9326658"><ele>506.0</ele><time>2026-04-11T08:43:49.454Z</time></trkpt><trkpt lat="44.6374945" lon="7.9325331"><ele>506.0</ele><time>2026-04-11T08:43:51.454Z</time></trkpt><trkpt lat="44.6374799" lon="7.9323813"><ele>505.99999999999994</ele><time>2026-04-11T08:43:53.454Z</time></trkpt><trkpt lat="44.6375104" lon="7.9322953"><ele>506.0</ele><time>2026-04-11T08:43:54.454Z</time></trkpt><trkpt lat="44.637507" lon="7.9322059"><ele>504.8333333333333</ele><time>2026-04-11T08:43:55.454Z</time></trkpt><trkpt lat="44.6375899" lon="7.9321639"><ele>503.66666666666663</ele><time>2026-04-11T08:43:56.454Z</time></trkpt><trkpt lat="44.6376331" lon="7.9320651"><ele>502.5</ele><time>2026-04-11T08:43:59.454Z</time></trkpt><trkpt lat="44.6376969" lon="7.9320681"><ele>501.33333333333337</ele><time>2026-04-11T08:44:01.454Z</time></trkpt><trkpt lat="44.6377644" lon="7.9321025"><ele>500.1666666666667</ele><time>2026-04-11T08:44:02.454Z</time></trkpt><trkpt lat="44.637834" lon="7.9321504"><ele>499.0</ele><time>2026-04-11T08:44:03.454Z</time></trkpt><trkpt lat="44.6379154" lon="7.9322646"><ele>499.1666666666667</ele><time>2026-04-11T08:44:05.454Z</time></trkpt><trkpt lat="44.6379973" lon="7.9323683"><ele>499.33333333333337</ele><time>2026-04-11T08:44:07.454Z</time></trkpt><trkpt lat="44.6380441" lon="7.9324275"><ele>499.5</ele><time>2026-04-11T08:44:08.454Z</time></trkpt><trkpt lat="44.6380938" lon="7.932493"><ele>499.66666666666663</ele><time>2026-04-11T08:44:09.454Z</time></trkpt><trkpt lat="44.6381162" lon="7.9326073"><ele>499.8333333333333</ele><time>2026-04-11T08:44:10.454Z</time></trkpt><trkpt lat="44.6381573" lon="7.9326872"><ele>500.0</ele><time>2026-04-11T08:44:11.454Z</time></trkpt><trkpt lat="44.6382175" lon="7.9327306"><ele>500.0</ele><time>2026-04-11T08:44:12.454Z</time></trkpt><trkpt lat="44.6382957" lon="7.9328213"><ele>500.0</ele><time>2026-04-11T08:44:14.454Z</time></trkpt><trkpt lat="44.6383616" lon="7.9329325"><ele>500.0</ele><time>2026-04-11T08:44:16.455Z</time></trkpt><trkpt lat="44.6384365" lon="7.9330578"><ele>500.0</ele><time>2026-04-11T08:44:18.454Z</time></trkpt><trkpt lat="44.6384793" lon="7.9331253"><ele>500.0</ele><time>2026-04-11T08:44:19.454Z</time></trkpt><trkpt lat="44.6385351" lon="7.9331851"><ele>499.99999999999994</ele><time>2026-04-11T08:44:20.454Z</time></trkpt><trkpt lat="44.6386103" lon="7.9332501"><ele>500.0</ele><time>2026-04-11T08:44:22.454Z</time></trkpt><trkpt lat="44.6386494" lon="7.9333248"><ele>500.0</ele><time>2026-04-11T08:44:23.454Z</time></trkpt><trkpt lat="44.6387329" lon="7.9334646"><ele>500.0</ele><time>2026-04-11T08:44:25.454Z</time></trkpt><trkpt lat="44.6387668" lon="7.9335464"><ele>499.99999999999994</ele><time>2026-04-11T08:44:26.454Z</time></trkpt><trkpt lat="44.6388056" lon="7.9336349"><ele>500.0</ele><time>2026-04-11T08:44:27.454Z</time></trkpt><trkpt lat="44.6388447" lon="7.9337143"><ele>500.0</ele><time>2026-04-11T08:44:28.454Z</time></trkpt><trkpt lat="44.6389041" lon="7.9338039"><ele>500.0</ele><time>2026-04-11T08:44:30.454Z</time></trkpt><trkpt lat="44.6389637" lon="7.9339516"><ele>500.0</ele><time>2026-04-11T08:44:32.454Z</time></trkpt><trkpt lat="44.6390199" lon="7.9340796"><ele>500.0</ele><time>2026-04-11T08:44:34.454Z</time></trkpt><trkpt lat="44.6390715" lon="7.934137"><ele>500.0</ele><time>2026-04-11T08:44:35.455Z</time></trkpt><trkpt lat="44.6391125" lon="7.9342848"><ele>497.2</ele><time>2026-04-11T08:44:37.454Z</time></trkpt><trkpt lat="44.6391773" lon="7.9344178"><ele>494.4</ele><time>2026-04-11T08:44:39.454Z</time></trkpt><trkpt lat="44.6392688" lon="7.9345131"><ele>491.6</ele><time>2026-04-11T08:44:41.454Z</time></trkpt><trkpt lat="44.6393475" lon="7.9345182"><ele>488.8</ele><time>2026-04-11T08:44:42.454Z</time></trkpt><trkpt lat="44.6394411" lon="7.9344803"><ele>486.0</ele><time>2026-04-11T08:44:43.454Z</time></trkpt><trkpt lat="44.6395309" lon="7.9344485"><ele>482.8</ele><time>2026-04-11T08:44:44.454Z</time></trkpt><trkpt lat="44.6396191" lon="7.9344176"><ele>479.6</ele><time>2026-04-11T08:44:45.454Z</time></trkpt><trkpt lat="44.6397204" lon="7.9343646"><ele>476.4</ele><time>2026-04-11T08:44:46.454Z</time></trkpt><trkpt lat="44.639817" lon="7.9343059"><ele>473.2</ele><time>2026-04-11T08:44:47.454Z</time></trkpt><trkpt lat="44.6399259" lon="7.9342864"><ele>470.0</ele><time>2026-04-11T08:44:48.454Z</time></trkpt><trkpt lat="44.6400226" lon="7.9342738"><ele>470.0</ele><time>2026-04-11T08:44:49.454Z</time></trkpt><trkpt lat="44.640124" lon="7.934228"><ele>470.0</ele><time>2026-04-11T08:44:50.454Z</time></trkpt><trkpt lat="44.6402248" lon="7.9341901"><ele>470.0</ele><time>2026-04-11T08:44:51.454Z</time></trkpt><trkpt lat="44.6403302" lon="7.93416"><ele>470.0</ele><time>2026-04-11T08:44:52.454Z</time></trkpt><trkpt lat="44.6404468" lon="7.9341256"><ele>470.0</ele><time>2026-04-11T08:44:53.454Z</time></trkpt><trkpt lat="44.6405528" lon="7.9341234"><ele>473.5</ele><time>2026-04-11T08:44:54.454Z</time></trkpt><trkpt lat="44.6406593" lon="7.9341324"><ele>477.0</ele><time>2026-04-11T08:44:55.454Z</time></trkpt><trkpt lat="44.6407738" lon="7.9341251"><ele>480.5</ele><time>2026-04-11T08:44:56.454Z</time></trkpt><trkpt lat="44.6408885" lon="7.9341038"><ele>484.0</ele><time>2026-04-11T08:44:57.454Z</time></trkpt><trkpt lat="44.6410143" lon="7.9340863"><ele>482.0</ele><time>2026-04-11T08:44:58.454Z</time></trkpt><trkpt lat="44.6411354" lon="7.9340629"><ele>480.0</ele><time>2026-04-11T08:44:59.454Z</time></trkpt><trkpt lat="44.6412595" lon="7.9340397"><ele>478.0</ele><time>2026-04-11T08:45:00.454Z</time></trkpt><trkpt lat="44.6414075" lon="7.9340248"><ele>476.0</ele><time>2026-04-11T08:45:01.454Z</time></trkpt><trkpt lat="44.6415502" lon="7.9340189"><ele>476.0</ele><time>2026-04-11T08:45:02.454Z</time></trkpt><trkpt lat="44.6416803" lon="7.9340178"><ele>476.0</ele><time>2026-04-11T08:45:03.454Z</time></trkpt><trkpt lat="44.6418025" lon="7.9339911"><ele>476.0</ele><time>2026-04-11T08:45:04.454Z</time></trkpt><trkpt lat="44.6419006" lon="7.9339537"><ele>476.0</ele><time>2026-04-11T08:45:05.454Z</time></trkpt><trkpt lat="44.6419889" lon="7.9339223"><ele>476.0</ele><time>2026-04-11T08:45:06.454Z</time></trkpt><trkpt lat="44.6420639" lon="7.9339453"><ele>473.99999999999994</ele><time>2026-04-11T08:45:07.454Z</time></trkpt><trkpt lat="44.6420845" lon="7.9340331"><ele>472.0</ele><time>2026-04-11T08:45:08.458Z</time></trkpt><trkpt lat="44.6420803" lon="7.9341582"><ele>470.0</ele><time>2026-04-11T08:45:09.458Z</time></trkpt><trkpt lat="44.6420297" lon="7.9342364"><ele>468.0</ele><time>2026-04-11T08:45:10.458Z</time></trkpt><trkpt lat="44.6419241" lon="7.9342578"><ele>465.99999999999994</ele><time>2026-04-11T08:45:11.458Z</time></trkpt><trkpt lat="44.6418284" lon="7.9342786"><ele>464.0</ele><time>2026-04-11T08:45:12.458Z</time></trkpt><trkpt lat="44.6417391" lon="7.9342833"><ele>461.6</ele><time>2026-04-11T08:45:13.458Z</time></trkpt><trkpt lat="44.6416393" lon="7.9342907"><ele>459.2</ele><time>2026-04-11T08:45:14.458Z</time></trkpt><trkpt lat="44.6415449" lon="7.9343236"><ele>456.80000000000007</ele><time>2026-04-11T08:45:15.458Z</time></trkpt><trkpt lat="44.6414532" lon="7.9343694"><ele>454.40000000000003</ele><time>2026-04-11T08:45:16.458Z</time></trkpt><trkpt lat="44.6413569" lon="7.9343972"><ele>452.0</ele><time>2026-04-11T08:45:17.458Z</time></trkpt><trkpt lat="44.6412587" lon="7.9344478"><ele>452.0</ele><time>2026-04-11T08:45:18.458Z</time></trkpt><trkpt lat="44.6411507" lon="7.9345227"><ele>452.0</ele><time>2026-04-11T08:45:19.458Z</time></trkpt><trkpt lat="44.6410525" lon="7.9345491"><ele>452.0</ele><time>2026-04-11T08:45:20.458Z</time></trkpt><trkpt lat="44.6409554" lon="7.9346156"><ele>452.0</ele><time>2026-04-11T08:45:21.458Z</time></trkpt><trkpt lat="44.6408437" lon="7.9346985"><ele>454.25</ele><time>2026-04-11T08:45:22.459Z</time></trkpt><trkpt lat="44.6407202" lon="7.934788"><ele>456.5</ele><time>2026-04-11T08:45:23.458Z</time></trkpt><trkpt lat="44.6406044" lon="7.9348696"><ele>458.75</ele><time>2026-04-11T08:45:24.458Z</time></trkpt><trkpt lat="44.6404789" lon="7.9349487"><ele>461.0</ele><time>2026-04-11T08:45:25.458Z</time></trkpt><trkpt lat="44.64035" lon="7.9350374"><ele>457.75</ele><time>2026-04-11T08:45:26.458Z</time></trkpt><trkpt lat="44.6402255" lon="7.9351217"><ele>454.5</ele><time>2026-04-11T08:45:27.458Z</time></trkpt><trkpt lat="44.6401066" lon="7.935202"><ele>451.25</ele><time>2026-04-11T08:45:28.458Z</time></trkpt><trkpt lat="44.6399856" lon="7.9352618"><ele>448.0</ele><time>2026-04-11T08:45:29.458Z</time></trkpt><trkpt lat="44.6398673" lon="7.9353315"><ele>448.0</ele><time>2026-04-11T08:45:30.458Z</time></trkpt><trkpt lat="44.6397424" lon="7.935432"><ele>448.0</ele><time>2026-04-11T08:45:31.458Z</time></trkpt><trkpt lat="44.6396197" lon="7.9355558"><ele>448.0</ele><time>2026-04-11T08:45:32.458Z</time></trkpt><trkpt lat="44.6395058" lon="7.935668"><ele>448.0</ele><time>2026-04-11T08:45:33.458Z</time></trkpt><trkpt lat="44.6393881" lon="7.9357707"><ele>446.0</ele><time>2026-04-11T08:45:34.459Z</time></trkpt><trkpt lat="44.6392856" lon="7.9358868"><ele>444.0</ele><time>2026-04-11T08:45:35.458Z</time></trkpt><trkpt lat="44.639196" lon="7.9360206"><ele>442.0</ele><time>2026-04-11T08:45:36.458Z</time></trkpt><trkpt lat="44.6391115" lon="7.9361649"><ele>440.0</ele><time>2026-04-11T08:45:37.458Z</time></trkpt><trkpt lat="44.6390239" lon="7.9363211"><ele>440.0</ele><time>2026-04-11T08:45:38.458Z</time></trkpt><trkpt lat="44.6389326" lon="7.9364713"><ele>440.0</ele><time>2026-04-11T08:45:39.458Z</time></trkpt><trkpt lat="44.6388431" lon="7.9366239"><ele>440.0</ele><time>2026-04-11T08:45:40.459Z</time></trkpt><trkpt lat="44.6387477" lon="7.9367695"><ele>440.0</ele><time>2026-04-11T08:45:41.458Z</time></trkpt><trkpt lat="44.6386458" lon="7.9369109"><ele>436.66666666666663</ele><time>2026-04-11T08:45:42.458Z</time></trkpt><trkpt lat="44.638515" lon="7.9370468"><ele>433.33333333333337</ele><time>2026-04-11T08:45:43.458Z</time></trkpt><trkpt lat="44.6383658" lon="7.9370769"><ele>430.0</ele><time>2026-04-11T08:45:44.458Z</time></trkpt><trkpt lat="44.6382121" lon="7.9370679"><ele>430.0</ele><time>2026-04-11T08:45:45.458Z</time></trkpt><trkpt lat="44.6380583" lon="7.9370238"><ele>430.0</ele><time>2026-04-11T08:45:46.458Z</time></trkpt><trkpt lat="44.6379053" lon="7.9369471"><ele>430.0</ele><time>2026-04-11T08:45:47.458Z</time></trkpt><trkpt lat="44.6377616" lon="7.9368573"><ele>432.33333333333337</ele><time>2026-04-11T08:45:48.458Z</time></trkpt><trkpt lat="44.6376231" lon="7.936775"><ele>434.66666666666663</ele><time>2026-04-11T08:45:49.458Z</time></trkpt><trkpt lat="44.6374763" lon="7.936666"><ele>437.0</ele><time>2026-04-11T08:45:50.458Z</time></trkpt><trkpt lat="44.6373356" lon="7.936578"><ele>437.0</ele><time>2026-04-11T08:45:51.458Z</time></trkpt><trkpt lat="44.637214" lon="7.9365193"><ele>437.00000000000006</ele><time>2026-04-11T08:45:52.459Z</time></trkpt><trkpt lat="44.6371182" lon="7.9364867"><ele>437.00000000000006</ele><time>2026-04-11T08:45:53.458Z</time></trkpt><trkpt lat="44.6370145" lon="7.9364918"><ele>437.0</ele><time>2026-04-11T08:45:54.458Z</time></trkpt><trkpt lat="44.6369127" lon="7.9365389"><ele>437.0</ele><time>2026-04-11T08:45:55.458Z</time></trkpt><trkpt lat="44.6368389" lon="7.9366898"><ele>428.75</ele><time>2026-04-11T08:45:56.458Z</time></trkpt><trkpt lat="44.6368135" lon="7.936883"><ele>420.5</ele><time>2026-04-11T08:45:57.458Z</time></trkpt><trkpt lat="44.6368289" lon="7.9370463"><ele>412.25</ele><time>2026-04-11T08:45:58.458Z</time></trkpt><trkpt lat="44.6368893" lon="7.9371946"><ele>404.0</ele><time>2026-04-11T08:45:59.458Z</time></trkpt><trkpt lat="44.6369617" lon="7.9373544"><ele>404.25</ele><time>2026-04-11T08:46:00.458Z</time></trkpt><trkpt lat="44.6370536" lon="7.9374864"><ele>404.5</ele><time>2026-04-11T08:46:01.458Z</time></trkpt><trkpt lat="44.6371682" lon="7.9376035"><ele>404.75</ele><time>2026-04-11T08:46:02.458Z</time></trkpt><trkpt lat="44.6372604" lon="7.9377224"><ele>405.0</ele><time>2026-04-11T08:46:03.458Z</time></trkpt><trkpt lat="44.637348" lon="7.9378508"><ele>405.0</ele><time>2026-04-11T08:46:04.458Z</time></trkpt><trkpt lat="44.6374497" lon="7.9379584"><ele>405.0</ele><time>2026-04-11T08:46:05.458Z</time></trkpt><trkpt lat="44.6375556" lon="7.9380862"><ele>405.0</ele><time>2026-04-11T08:46:06.458Z</time></trkpt><trkpt lat="44.6376746" lon="7.9382215"><ele>405.0</ele><time>2026-04-11T08:46:07.458Z</time></trkpt><trkpt lat="44.6377797" lon="7.9383443"><ele>403.0</ele><time>2026-04-11T08:46:08.458Z</time></trkpt><trkpt lat="44.6378821" lon="7.9384637"><ele>401.0</ele><time>2026-04-11T08:46:09.458Z</time></trkpt><trkpt lat="44.637965" lon="7.9385873"><ele>399.0</ele><time>2026-04-11T08:46:10.458Z</time></trkpt><trkpt lat="44.6380457" lon="7.9387381"><ele>397.0</ele><time>2026-04-11T08:46:11.458Z</time></trkpt><trkpt lat="44.6380902" lon="7.9389169"><ele>397.0</ele><time>2026-04-11T08:46:12.458Z</time></trkpt><trkpt lat="44.6380879" lon="7.9391142"><ele>397.0</ele><time>2026-04-11T08:46:13.458Z</time></trkpt><trkpt lat="44.6380508" lon="7.9392904"><ele>397.0</ele><time>2026-04-11T08:46:14.458Z</time></trkpt><trkpt lat="44.6379887" lon="7.9394555"><ele>397.0</ele><time>2026-04-11T08:46:15.458Z</time></trkpt><trkpt lat="44.6379383" lon="7.9396432"><ele>394.75</ele><time>2026-04-11T08:46:16.458Z</time></trkpt><trkpt lat="44.6378711" lon="7.9398197"><ele>392.5</ele><time>2026-04-11T08:46:17.458Z</time></trkpt><trkpt lat="44.6377796" lon="7.9399693"><ele>390.25</ele><time>2026-04-11T08:46:18.458Z</time></trkpt><trkpt lat="44.6376994" lon="7.9401383"><ele>388.0</ele><time>2026-04-11T08:46:19.458Z</time></trkpt><trkpt lat="44.6376351" lon="7.9403216"><ele>387.5</ele><time>2026-04-11T08:46:20.458Z</time></trkpt><trkpt lat="44.6375738" lon="7.9405105"><ele>387.0</ele><time>2026-04-11T08:46:21.458Z</time></trkpt><trkpt lat="44.6375133" lon="7.9407031"><ele>386.5</ele><time>2026-04-11T08:46:22.458Z</time></trkpt><trkpt lat="44.6374453" lon="7.9408888"><ele>386.0</ele><time>2026-04-11T08:46:23.459Z</time></trkpt><trkpt lat="44.6373693" lon="7.94106"><ele>385.0</ele><time>2026-04-11T08:46:24.458Z</time></trkpt><trkpt lat="44.6372896" lon="7.9412348"><ele>384.0</ele><time>2026-04-11T08:46:25.458Z</time></trkpt><trkpt lat="44.6372172" lon="7.9414099"><ele>383.0</ele><time>2026-04-11T08:46:26.458Z</time></trkpt><trkpt lat="44.6371526" lon="7.9415693"><ele>382.0</ele><time>2026-04-11T08:46:27.458Z</time></trkpt><trkpt lat="44.6370981" lon="7.9417164"><ele>380.0</ele><time>2026-04-11T08:46:28.458Z</time></trkpt><trkpt lat="44.6370539" lon="7.9418508"><ele>378.0</ele><time>2026-04-11T08:46:29.458Z</time></trkpt><trkpt lat="44.6370606" lon="7.9420037"><ele>376.0</ele><time>2026-04-11T08:46:30.458Z</time></trkpt><trkpt lat="44.6370851" lon="7.9421565"><ele>374.0</ele><time>2026-04-11T08:46:31.458Z</time></trkpt><trkpt lat="44.6371643" lon="7.9422669"><ele>372.0</ele><time>2026-04-11T08:46:32.459Z</time></trkpt><trkpt lat="44.6372725" lon="7.9423128"><ele>372.0</ele><time>2026-04-11T08:46:33.459Z</time></trkpt><trkpt lat="44.6373976" lon="7.9422812"><ele>372.0</ele><time>2026-04-11T08:46:34.458Z</time></trkpt><trkpt lat="44.6375145" lon="7.9422135"><ele>372.0</ele><time>2026-04-11T08:46:35.458Z</time></trkpt><trkpt lat="44.6376339" lon="7.9421382"><ele>372.0</ele><time>2026-04-11T08:46:36.458Z</time></trkpt><trkpt lat="44.6377548" lon="7.9420687"><ele>370.25</ele><time>2026-04-11T08:46:37.458Z</time></trkpt><trkpt lat="44.6378804" lon="7.942019"><ele>368.5</ele><time>2026-04-11T08:46:38.458Z</time></trkpt><trkpt lat="44.6379827" lon="7.9419536"><ele>366.75</ele><time>2026-04-11T08:46:39.458Z</time></trkpt><trkpt lat="44.6380872" lon="7.9418901"><ele>365.0</ele><time>2026-04-11T08:46:40.458Z</time></trkpt><trkpt lat="44.6381788" lon="7.9418206"><ele>365.0</ele><time>2026-04-11T08:46:41.458Z</time></trkpt><trkpt lat="44.6382742" lon="7.9417275"><ele>365.0</ele><time>2026-04-11T08:46:42.458Z</time></trkpt><trkpt lat="44.6383834" lon="7.9416464"><ele>365.0</ele><time>2026-04-11T08:46:43.458Z</time></trkpt><trkpt lat="44.6384843" lon="7.9415689"><ele>365.0</ele><time>2026-04-11T08:46:44.458Z</time></trkpt><trkpt lat="44.6385888" lon="7.9414989"><ele>363.5</ele><time>2026-04-11T08:46:45.458Z</time></trkpt><trkpt lat="44.6386989" lon="7.9415214"><ele>362.0</ele><time>2026-04-11T08:46:46.458Z</time></trkpt><trkpt lat="44.6387948" lon="7.9416218"><ele>360.5</ele><time>2026-04-11T08:46:47.459Z</time></trkpt><trkpt lat="44.638845" lon="7.941772"><ele>359.0</ele><time>2026-04-11T08:46:48.458Z</time></trkpt><trkpt lat="44.6388495" lon="7.9419167"><ele>360.2</ele><time>2026-04-11T08:46:49.458Z</time></trkpt><trkpt lat="44.6388117" lon="7.9420538"><ele>361.4</ele><time>2026-04-11T08:46:50.458Z</time></trkpt><trkpt lat="44.6387473" lon="7.942178"><ele>362.6</ele><time>2026-04-11T08:46:51.458Z</time></trkpt><trkpt lat="44.6386655" lon="7.9422946"><ele>363.8</ele><time>2026-04-11T08:46:52.458Z</time></trkpt><trkpt lat="44.6385876" lon="7.9424124"><ele>365.0</ele><time>2026-04-11T08:46:53.458Z</time></trkpt><trkpt lat="44.6385135" lon="7.9425364"><ele>361.0</ele><time>2026-04-11T08:46:54.458Z</time></trkpt><trkpt lat="44.6384414" lon="7.942666"><ele>357.0</ele><time>2026-04-11T08:46:55.458Z</time></trkpt><trkpt lat="44.6383606" lon="7.942793"><ele>353.0</ele><time>2026-04-11T08:46:56.458Z</time></trkpt><trkpt lat="44.6382653" lon="7.9429081"><ele>349.0</ele><time>2026-04-11T08:46:57.458Z</time></trkpt><trkpt lat="44.6381613" lon="7.9430053"><ele>349.0</ele><time>2026-04-11T08:46:58.458Z</time></trkpt><trkpt lat="44.6380431" lon="7.943081"><ele>349.0</ele><time>2026-04-11T08:46:59.458Z</time></trkpt><trkpt lat="44.6379227" lon="7.9431489"><ele>349.0</ele><time>2026-04-11T08:47:00.458Z</time></trkpt><trkpt lat="44.6378017" lon="7.9432244"><ele>349.0</ele><time>2026-04-11T08:47:01.458Z</time></trkpt><trkpt lat="44.6376809" lon="7.9433001"><ele>350.75</ele><time>2026-04-11T08:47:02.458Z</time></trkpt><trkpt lat="44.6375614" lon="7.9433785"><ele>352.5</ele><time>2026-04-11T08:47:03.458Z</time></trkpt><trkpt lat="44.6374408" lon="7.9434497"><ele>354.25</ele><time>2026-04-11T08:47:04.458Z</time></trkpt><trkpt lat="44.6373211" lon="7.943518"><ele>356.0</ele><time>2026-04-11T08:47:05.458Z</time></trkpt><trkpt lat="44.6372111" lon="7.9435802"><ele>353.20000000000005</ele><time>2026-04-11T08:47:06.458Z</time></trkpt><trkpt lat="44.6371184" lon="7.943635"><ele>350.40000000000003</ele><time>2026-04-11T08:47:07.458Z</time></trkpt><trkpt lat="44.6370522" lon="7.9437087"><ele>347.6</ele><time>2026-04-11T08:47:08.458Z</time></trkpt><trkpt lat="44.6370289" lon="7.9438481"><ele>344.8</ele><time>2026-04-11T08:47:09.458Z</time></trkpt><trkpt lat="44.6370687" lon="7.9439657"><ele>342.0</ele><time>2026-04-11T08:47:10.458Z</time></trkpt><trkpt lat="44.6371264" lon="7.944059"><ele>342.0</ele><time>2026-04-11T08:47:11.458Z</time></trkpt><trkpt lat="44.6372433" lon="7.9440727"><ele>342.0</ele><time>2026-04-11T08:47:12.458Z</time></trkpt><trkpt lat="44.637352" lon="7.9440515"><ele>342.0</ele><time>2026-04-11T08:47:13.458Z</time></trkpt><trkpt lat="44.6374618" lon="7.9440396"><ele>342.0</ele><time>2026-04-11T08:47:14.458Z</time></trkpt><trkpt lat="44.6375725" lon="7.9440263"><ele>342.0</ele><time>2026-04-11T08:47:15.458Z</time></trkpt><trkpt lat="44.6376862" lon="7.9440098"><ele>342.0</ele><time>2026-04-11T08:47:16.458Z</time></trkpt><trkpt lat="44.6377946" lon="7.9440029"><ele>342.0</ele><time>2026-04-11T08:47:17.458Z</time></trkpt><trkpt lat="44.6379015" lon="7.9439966"><ele>342.0</ele><time>2026-04-11T08:47:18.458Z</time></trkpt><trkpt lat="44.638007" lon="7.9439915"><ele>342.0</ele><time>2026-04-11T08:47:19.458Z</time></trkpt><trkpt lat="44.6381122" lon="7.9439838"><ele>342.0</ele><time>2026-04-11T08:47:20.458Z</time></trkpt><trkpt lat="44.6382212" lon="7.9439723"><ele>341.40000000000003</ele><time>2026-04-11T08:47:21.458Z</time></trkpt><trkpt lat="44.6383297" lon="7.9439578"><ele>340.8</ele><time>2026-04-11T08:47:22.458Z</time></trkpt><trkpt lat="44.6384295" lon="7.9439424"><ele>340.2</ele><time>2026-04-11T08:47:23.458Z</time></trkpt><trkpt lat="44.6385389" lon="7.9439502"><ele>339.6</ele><time>2026-04-11T08:47:24.458Z</time></trkpt><trkpt lat="44.6386406" lon="7.9439239"><ele>339.0</ele><time>2026-04-11T08:47:25.458Z</time></trkpt><trkpt lat="44.6387472" lon="7.9439196"><ele>337.79999999999995</ele><time>2026-04-11T08:47:26.458Z</time></trkpt><trkpt lat="44.6388535" lon="7.9439134"><ele>336.59999999999997</ele><time>2026-04-11T08:47:27.458Z</time></trkpt><trkpt lat="44.6389578" lon="7.9438958"><ele>335.4</ele><time>2026-04-11T08:47:28.459Z</time></trkpt><trkpt lat="44.6390474" lon="7.9439239"><ele>334.2</ele><time>2026-04-11T08:47:29.458Z</time></trkpt><trkpt lat="44.6391315" lon="7.9440279"><ele>333.0</ele><time>2026-04-11T08:47:30.458Z</time></trkpt><trkpt lat="44.6392062" lon="7.9441586"><ele>332.5</ele><time>2026-04-11T08:47:31.458Z</time></trkpt><trkpt lat="44.6392338" lon="7.9443267"><ele>332.0</ele><time>2026-04-11T08:47:32.458Z</time></trkpt><trkpt lat="44.6392229" lon="7.9444989"><ele>331.5</ele><time>2026-04-11T08:47:33.458Z</time></trkpt><trkpt lat="44.6391908" lon="7.9446531"><ele>331.0</ele><time>2026-04-11T08:47:34.458Z</time></trkpt><trkpt lat="44.6391436" lon="7.9447924"><ele>331.0</ele><time>2026-04-11T08:47:35.458Z</time></trkpt><trkpt lat="44.6390834" lon="7.944899"><ele>331.0</ele><time>2026-04-11T08:47:36.458Z</time></trkpt><trkpt lat="44.6389834" lon="7.9449507"><ele>331.0</ele><time>2026-04-11T08:47:37.458Z</time></trkpt><trkpt lat="44.6388802" lon="7.9449826"><ele>331.0</ele><time>2026-04-11T08:47:38.458Z</time></trkpt><trkpt lat="44.6387784" lon="7.9450026"><ele>331.0</ele><time>2026-04-11T08:47:39.458Z</time></trkpt><trkpt lat="44.6386478" lon="7.9450396"><ele>328.5</ele><time>2026-04-11T08:47:40.458Z</time></trkpt><trkpt lat="44.6385242" lon="7.9451121"><ele>326.0</ele><time>2026-04-11T08:47:41.458Z</time></trkpt><trkpt lat="44.6384018" lon="7.9452133"><ele>323.5</ele><time>2026-04-11T08:47:42.458Z</time></trkpt><trkpt lat="44.6383127" lon="7.945332"><ele>321.0</ele><time>2026-04-11T08:47:43.458Z</time></trkpt><trkpt lat="44.6382154" lon="7.945453"><ele>321.0</ele><time>2026-04-11T08:47:44.458Z</time></trkpt><trkpt lat="44.6381035" lon="7.9455846"><ele>321.0</ele><time>2026-04-11T08:47:45.458Z</time></trkpt><trkpt lat="44.6380032" lon="7.9457091"><ele>321.0</ele><time>2026-04-11T08:47:46.458Z</time></trkpt><trkpt lat="44.6379068" lon="7.9458072"><ele>321.0</ele><time>2026-04-11T08:47:47.458Z</time></trkpt><trkpt lat="44.6378028" lon="7.9459038"><ele>317.75</ele><time>2026-04-11T08:47:48.458Z</time></trkpt><trkpt lat="44.637702" lon="7.9460128"><ele>314.5</ele><time>2026-04-11T08:47:49.459Z</time></trkpt><trkpt lat="44.6376082" lon="7.9461192"><ele>311.25</ele><time>2026-04-11T08:47:50.458Z</time></trkpt><trkpt lat="44.6374925" lon="7.9462448"><ele>308.0</ele><time>2026-04-11T08:47:51.458Z</time></trkpt><trkpt lat="44.6373731" lon="7.9463708"><ele>308.0</ele><time>2026-04-11T08:47:52.458Z</time></trkpt><trkpt lat="44.6372605" lon="7.9464981"><ele>308.0</ele><time>2026-04-11T08:47:53.458Z</time></trkpt><trkpt lat="44.6371519" lon="7.9466188"><ele>308.0</ele><time>2026-04-11T08:47:54.458Z</time></trkpt><trkpt lat="44.6370469" lon="7.9467409"><ele>308.0</ele><time>2026-04-11T08:47:55.459Z</time></trkpt><trkpt lat="44.636953" lon="7.9468732"><ele>307.25</ele><time>2026-04-11T08:47:56.458Z</time></trkpt><trkpt lat="44.6368714" lon="7.9470106"><ele>306.5</ele><time>2026-04-11T08:47:57.458Z</time></trkpt><trkpt lat="44.6368006" lon="7.947172"><ele>305.75</ele><time>2026-04-11T08:47:58.458Z</time></trkpt><trkpt lat="44.6367358" lon="7.9473427"><ele>305.0</ele><time>2026-04-11T08:47:59.458Z</time></trkpt><trkpt lat="44.6366879" lon="7.9475216"><ele>305.75</ele><time>2026-04-11T08:48:00.458Z</time></trkpt><trkpt lat="44.636663" lon="7.9477042"><ele>306.5</ele><time>2026-04-11T08:48:01.458Z</time></trkpt><trkpt lat="44.6366701" lon="7.9478886"><ele>307.25</ele><time>2026-04-11T08:48:02.458Z</time></trkpt><trkpt lat="44.636693" lon="7.9480704"><ele>308.0</ele><time>2026-04-11T08:48:03.458Z</time></trkpt><trkpt lat="44.6367231" lon="7.9482484"><ele>309.0</ele><time>2026-04-11T08:48:04.458Z</time></trkpt><trkpt lat="44.6367605" lon="7.9484048"><ele>310.0</ele><time>2026-04-11T08:48:05.458Z</time></trkpt><trkpt lat="44.6368182" lon="7.9485614"><ele>311.0</ele><time>2026-04-11T08:48:06.458Z</time></trkpt><trkpt lat="44.6368862" lon="7.9487244"><ele>312.0</ele><time>2026-04-11T08:48:07.458Z</time></trkpt><trkpt lat="44.6369546" lon="7.9488775"><ele>306.75</ele><time>2026-04-11T08:48:08.458Z</time></trkpt><trkpt lat="44.6370268" lon="7.9490355"><ele>301.5</ele><time>2026-04-11T08:48:09.458Z</time></trkpt><trkpt lat="44.6370973" lon="7.949195"><ele>296.25</ele><time>2026-04-11T08:48:10.458Z</time></trkpt><trkpt lat="44.637161" lon="7.9493593"><ele>291.0</ele><time>2026-04-11T08:48:11.458Z</time></trkpt><trkpt lat="44.6372165" lon="7.9495265"><ele>290.5</ele><time>2026-04-11T08:48:12.458Z</time></trkpt><trkpt lat="44.637265" lon="7.9496961"><ele>290.0</ele><time>2026-04-11T08:48:13.458Z</time></trkpt><trkpt lat="44.6372938" lon="7.9498798"><ele>289.5</ele><time>2026-04-11T08:48:14.459Z</time></trkpt><trkpt lat="44.6373037" lon="7.9500614"><ele>289.0</ele><time>2026-04-11T08:48:15.458Z</time></trkpt><trkpt lat="44.6372965" lon="7.9502487"><ele>288.5</ele><time>2026-04-11T08:48:16.458Z</time></trkpt><trkpt lat="44.6372834" lon="7.9504318"><ele>288.0</ele><time>2026-04-11T08:48:17.458Z</time></trkpt><trkpt lat="44.6372702" lon="7.9506148"><ele>287.5</ele><time>2026-04-11T08:48:18.458Z</time></trkpt><trkpt lat="44.6372467" lon="7.9507883"><ele>287.0</ele><time>2026-04-11T08:48:19.458Z</time></trkpt><trkpt lat="44.6372161" lon="7.9509548"><ele>287.0</ele><time>2026-04-11T08:48:20.458Z</time></trkpt><trkpt lat="44.6371636" lon="7.9511025"><ele>287.0</ele><time>2026-04-11T08:48:21.458Z</time></trkpt><trkpt lat="44.6370834" lon="7.9512285"><ele>287.0</ele><time>2026-04-11T08:48:22.458Z</time></trkpt><trkpt lat="44.6369889" lon="7.9513417"><ele>287.0</ele><time>2026-04-11T08:48:23.458Z</time></trkpt><trkpt lat="44.6368905" lon="7.9514081"><ele>287.0</ele><time>2026-04-11T08:48:24.458Z</time></trkpt><trkpt lat="44.6367888" lon="7.9514846"><ele>287.0</ele><time>2026-04-11T08:48:25.458Z</time></trkpt><trkpt lat="44.6366789" lon="7.9515702"><ele>287.0</ele><time>2026-04-11T08:48:26.458Z</time></trkpt><trkpt lat="44.6365737" lon="7.95165"><ele>287.0</ele><time>2026-04-11T08:48:27.458Z</time></trkpt><trkpt lat="44.6364623" lon="7.9517105"><ele>286.5</ele><time>2026-04-11T08:48:28.458Z</time></trkpt><trkpt lat="44.6363562" lon="7.9517602"><ele>286.0</ele><time>2026-04-11T08:48:29.458Z</time></trkpt><trkpt lat="44.6362494" lon="7.9518387"><ele>285.5</ele><time>2026-04-11T08:48:30.458Z</time></trkpt><trkpt lat="44.636144" lon="7.9518987"><ele>285.0</ele><time>2026-04-11T08:48:31.458Z</time></trkpt><trkpt lat="44.6360333" lon="7.951958"><ele>285.0</ele><time>2026-04-11T08:48:32.458Z</time></trkpt><trkpt lat="44.6359277" lon="7.9520239"><ele>285.0</ele><time>2026-04-11T08:48:33.458Z</time></trkpt><trkpt lat="44.6358311" lon="7.9521193"><ele>285.0</ele><time>2026-04-11T08:48:34.458Z</time></trkpt><trkpt lat="44.6357439" lon="7.9522367"><ele>285.0</ele><time>2026-04-11T08:48:35.458Z</time></trkpt><trkpt lat="44.6356862" lon="7.9523721"><ele>285.0</ele><time>2026-04-11T08:48:36.458Z</time></trkpt><trkpt lat="44.6356267" lon="7.9525233"><ele>285.0</ele><time>2026-04-11T08:48:37.458Z</time></trkpt><trkpt lat="44.6355752" lon="7.9526938"><ele>285.0</ele><time>2026-04-11T08:48:38.458Z</time></trkpt><trkpt lat="44.6355986" lon="7.9528575"><ele>285.0</ele><time>2026-04-11T08:48:39.459Z</time></trkpt><trkpt lat="44.6356335" lon="7.9530207"><ele>284.2</ele><time>2026-04-11T08:48:40.458Z</time></trkpt><trkpt lat="44.6357016" lon="7.9531556"><ele>283.4</ele><time>2026-04-11T08:48:41.458Z</time></trkpt><trkpt lat="44.635767" lon="7.9532708"><ele>282.6</ele><time>2026-04-11T08:48:42.458Z</time></trkpt><trkpt lat="44.6358586" lon="7.9533659"><ele>281.8</ele><time>2026-04-11T08:48:43.459Z</time></trkpt><trkpt lat="44.6359578" lon="7.9534398"><ele>281.0</ele><time>2026-04-11T08:48:44.458Z</time></trkpt><trkpt lat="44.6360579" lon="7.9535167"><ele>279.75</ele><time>2026-04-11T08:48:45.458Z</time></trkpt><trkpt lat="44.6361497" lon="7.9535988"><ele>278.5</ele><time>2026-04-11T08:48:46.458Z</time></trkpt><trkpt lat="44.636249" lon="7.9536802"><ele>277.25</ele><time>2026-04-11T08:48:47.458Z</time></trkpt><trkpt lat="44.6363475" lon="7.953766"><ele>276.0</ele><time>2026-04-11T08:48:48.458Z</time></trkpt><trkpt lat="44.636442" lon="7.9538519"><ele>276.0</ele><time>2026-04-11T08:48:49.458Z</time></trkpt><trkpt lat="44.6365346" lon="7.9539457"><ele>276.0</ele><time>2026-04-11T08:48:50.458Z</time></trkpt><trkpt lat="44.6366253" lon="7.9540387"><ele>276.0</ele><time>2026-04-11T08:48:51.458Z</time></trkpt><trkpt lat="44.6367096" lon="7.954139"><ele>276.0</ele><time>2026-04-11T08:48:52.458Z</time></trkpt><trkpt lat="44.6367872" lon="7.9542489"><ele>276.0</ele><time>2026-04-11T08:48:53.458Z</time></trkpt><trkpt lat="44.6368582" lon="7.9543714"><ele>274.8333333333333</ele><time>2026-04-11T08:48:54.458Z</time></trkpt><trkpt lat="44.6369132" lon="7.9544926"><ele>273.6666666666667</ele><time>2026-04-11T08:48:55.459Z</time></trkpt><trkpt lat="44.6369682" lon="7.9546023"><ele>272.5</ele><time>2026-04-11T08:48:56.458Z</time></trkpt><trkpt lat="44.63702" lon="7.9547087"><ele>271.33333333333337</ele><time>2026-04-11T08:48:57.458Z</time></trkpt><trkpt lat="44.6370584" lon="7.9548082"><ele>270.1666666666667</ele><time>2026-04-11T08:48:58.458Z</time></trkpt><trkpt lat="44.6371011" lon="7.9548792"><ele>269.0</ele><time>2026-04-11T08:48:59.458Z</time></trkpt><trkpt lat="44.6371643" lon="7.9549904"><ele>269.0</ele><time>2026-04-11T08:49:01.458Z</time></trkpt><trkpt lat="44.6372022" lon="7.9551081"><ele>269.0</ele><time>2026-04-11T08:49:03.458Z</time></trkpt><trkpt lat="44.6372984" lon="7.9551376"><ele>269.0</ele><time>2026-04-11T08:49:06.458Z</time></trkpt><trkpt lat="44.6373776" lon="7.9550118"><ele>269.0</ele><time>2026-04-11T08:49:08.458Z</time></trkpt><trkpt lat="44.6374189" lon="7.9548504"><ele>269.0</ele><time>2026-04-11T08:49:10.458Z</time></trkpt><trkpt lat="44.6374226" lon="7.9547378"><ele>269.0</ele><time>2026-04-11T08:49:11.458Z</time></trkpt><trkpt lat="44.6374377" lon="7.9545706"><ele>269.0</ele><time>2026-04-11T08:49:12.458Z</time></trkpt><trkpt lat="44.6374521" lon="7.9544332"><ele>269.0</ele><time>2026-04-11T08:49:13.458Z</time></trkpt><trkpt lat="44.6374477" lon="7.95428"><ele>269.0</ele><time>2026-04-11T08:49:14.458Z</time></trkpt><trkpt lat="44.6374419" lon="7.9541506"><ele>269.0</ele><time>2026-04-11T08:49:15.458Z</time></trkpt><trkpt lat="44.6374376" lon="7.9540224"><ele>268.33333333333337</ele><time>2026-04-11T08:49:16.458Z</time></trkpt><trkpt lat="44.6374622" lon="7.9539313"><ele>267.6666666666667</ele><time>2026-04-11T08:49:17.458Z</time></trkpt><trkpt lat="44.6375074" lon="7.9538483"><ele>267.0</ele><time>2026-04-11T08:49:18.458Z</time></trkpt><trkpt lat="44.6375831" lon="7.9537872"><ele>266.3333333333333</ele><time>2026-04-11T08:49:19.458Z</time></trkpt><trkpt lat="44.6376764" lon="7.953757"><ele>265.66666666666663</ele><time>2026-04-11T08:49:20.458Z</time></trkpt><trkpt lat="44.6377769" lon="7.9537207"><ele>265.0</ele><time>2026-04-11T08:49:21.458Z</time></trkpt><trkpt lat="44.637881" lon="7.9536889"><ele>262.5</ele><time>2026-04-11T08:49:22.458Z</time></trkpt><trkpt lat="44.637992" lon="7.9536541"><ele>260.0</ele><time>2026-04-11T08:49:23.458Z</time></trkpt><trkpt lat="44.6380993" lon="7.9536121"><ele>257.5</ele><time>2026-04-11T08:49:24.458Z</time></trkpt><trkpt lat="44.6382064" lon="7.953565"><ele>255.0</ele><time>2026-04-11T08:49:25.458Z</time></trkpt><trkpt lat="44.6383136" lon="7.9535151"><ele>255.0</ele><time>2026-04-11T08:49:26.458Z</time></trkpt><trkpt lat="44.6384325" lon="7.9534631"><ele>255.0</ele><time>2026-04-11T08:49:27.458Z</time></trkpt><trkpt lat="44.6385521" lon="7.9534012"><ele>255.0</ele><time>2026-04-11T08:49:28.458Z</time></trkpt><trkpt lat="44.6386738" lon="7.9533412"><ele>255.0</ele><time>2026-04-11T08:49:29.458Z</time></trkpt><trkpt lat="44.638801" lon="7.953293"><ele>253.0</ele><time>2026-04-11T08:49:30.458Z</time></trkpt><trkpt lat="44.6389298" lon="7.9532687"><ele>251.0</ele><time>2026-04-11T08:49:31.459Z</time></trkpt><trkpt lat="44.6390746" lon="7.953266"><ele>249.0</ele><time>2026-04-11T08:49:32.458Z</time></trkpt><trkpt lat="44.6392103" lon="7.9532792"><ele>247.0</ele><time>2026-04-11T08:49:33.458Z</time></trkpt><trkpt lat="44.6393345" lon="7.9533254"><ele>247.0</ele><time>2026-04-11T08:49:34.458Z</time></trkpt><trkpt lat="44.6394612" lon="7.953365"><ele>247.0</ele><time>2026-04-11T08:49:35.458Z</time></trkpt><trkpt lat="44.6395791" lon="7.9533807"><ele>247.0</ele><time>2026-04-11T08:49:36.458Z</time></trkpt><trkpt lat="44.6397051" lon="7.9533793"><ele>247.0</ele><time>2026-04-11T08:49:37.458Z</time></trkpt><trkpt lat="44.6398256" lon="7.9533776"><ele>246.2</ele><time>2026-04-11T08:49:38.458Z</time></trkpt><trkpt lat="44.639932" lon="7.9533873"><ele>245.39999999999998</ele><time>2026-04-11T08:49:39.458Z</time></trkpt><trkpt lat="44.6400356" lon="7.9534049"><ele>244.60000000000002</ele><time>2026-04-11T08:49:40.458Z</time></trkpt><trkpt lat="44.6401406" lon="7.9534012"><ele>243.8</ele><time>2026-04-11T08:49:41.458Z</time></trkpt><trkpt lat="44.6402396" lon="7.9533831"><ele>243.0</ele><time>2026-04-11T08:49:42.458Z</time></trkpt><trkpt lat="44.6403328" lon="7.9533623"><ele>242.8</ele><time>2026-04-11T08:49:43.458Z</time></trkpt><trkpt lat="44.640414" lon="7.9533405"><ele>242.60000000000002</ele><time>2026-04-11T08:49:44.458Z</time></trkpt><trkpt lat="44.6405189" lon="7.9533456"><ele>242.39999999999998</ele><time>2026-04-11T08:49:45.458Z</time></trkpt><trkpt lat="44.6406166" lon="7.9534066"><ele>242.2</ele><time>2026-04-11T08:49:46.458Z</time></trkpt><trkpt lat="44.6407027" lon="7.9534396"><ele>242.0</ele><time>2026-04-11T08:49:47.459Z</time></trkpt><trkpt lat="44.6407809" lon="7.9534558"><ele>241.33333333333334</ele><time>2026-04-11T08:49:48.459Z</time></trkpt><trkpt lat="44.6408606" lon="7.9534861"><ele>240.66666666666669</ele><time>2026-04-11T08:49:49.459Z</time></trkpt><trkpt lat="44.6409449" lon="7.9535073"><ele>240.0</ele><time>2026-04-11T08:49:50.459Z</time></trkpt><trkpt lat="44.6410422" lon="7.9535067"><ele>239.33333333333331</ele><time>2026-04-11T08:49:51.459Z</time></trkpt><trkpt lat="44.6411286" lon="7.9535111"><ele>238.66666666666666</ele><time>2026-04-11T08:49:52.459Z</time></trkpt><trkpt lat="44.6412133" lon="7.9535204"><ele>238.0</ele><time>2026-04-11T08:49:53.459Z</time></trkpt><trkpt lat="44.6413032" lon="7.9535347"><ele>237.66666666666666</ele><time>2026-04-11T08:49:54.46Z</time></trkpt><trkpt lat="44.641375" lon="7.9535325"><ele>237.33333333333331</ele><time>2026-04-11T08:49:55.459Z</time></trkpt><trkpt lat="44.6414412" lon="7.9535334"><ele>237.0</ele><time>2026-04-11T08:49:56.459Z</time></trkpt><trkpt lat="44.6415218" lon="7.9534996"><ele>236.66666666666669</ele><time>2026-04-11T08:49:57.459Z</time></trkpt><trkpt lat="44.6416241" lon="7.9534541"><ele>236.33333333333334</ele><time>2026-04-11T08:49:58.459Z</time></trkpt><trkpt lat="44.6417255" lon="7.9534137"><ele>236.0</ele><time>2026-04-11T08:49:59.459Z</time></trkpt><trkpt lat="44.6418197" lon="7.9533971"><ele>236.60000000000002</ele><time>2026-04-11T08:50:00.459Z</time></trkpt><trkpt lat="44.641919" lon="7.9533636"><ele>237.20000000000002</ele><time>2026-04-11T08:50:01.459Z</time></trkpt><trkpt lat="44.642015" lon="7.9533525"><ele>237.79999999999998</ele><time>2026-04-11T08:50:02.459Z</time></trkpt><trkpt lat="44.6421172" lon="7.9533559"><ele>238.39999999999998</ele><time>2026-04-11T08:50:03.459Z</time></trkpt><trkpt lat="44.642219" lon="7.9533515"><ele>239.0</ele><time>2026-04-11T08:50:04.459Z</time></trkpt><trkpt lat="44.6423119" lon="7.9533033"><ele>237.6</ele><time>2026-04-11T08:50:05.459Z</time></trkpt><trkpt lat="44.6424069" lon="7.953273"><ele>236.2</ele><time>2026-04-11T08:50:06.459Z</time></trkpt><trkpt lat="44.6425164" lon="7.9532437"><ele>234.79999999999998</ele><time>2026-04-11T08:50:07.459Z</time></trkpt><trkpt lat="44.6426078" lon="7.9531947"><ele>233.39999999999998</ele><time>2026-04-11T08:50:08.459Z</time></trkpt><trkpt lat="44.6426936" lon="7.9531604"><ele>232.0</ele><time>2026-04-11T08:50:09.459Z</time></trkpt><trkpt lat="44.6427828" lon="7.9531259"><ele>230.99999999999997</ele><time>2026-04-11T08:50:10.459Z</time></trkpt><trkpt lat="44.6428689" lon="7.9531013"><ele>230.0</ele><time>2026-04-11T08:50:11.459Z</time></trkpt><trkpt lat="44.6429407" lon="7.9530607"><ele>229.0</ele><time>2026-04-11T08:50:12.46Z</time></trkpt><trkpt lat="44.6430074" lon="7.9530225"><ele>228.0</ele><time>2026-04-11T08:50:13.459Z</time></trkpt><trkpt lat="44.6430713" lon="7.9529629"><ele>226.99999999999997</ele><time>2026-04-11T08:50:14.459Z</time></trkpt><trkpt lat="44.6431413" lon="7.952919"><ele>226.0</ele><time>2026-04-11T08:50:15.459Z</time></trkpt><trkpt lat="44.6432545" lon="7.9528377"><ele>226.0</ele><time>2026-04-11T08:50:17.459Z</time></trkpt><trkpt lat="44.643342" lon="7.9527578"><ele>226.00000000000003</ele><time>2026-04-11T08:50:18.459Z</time></trkpt><trkpt lat="44.6434372" lon="7.9526626"><ele>226.00000000000003</ele><time>2026-04-11T08:50:19.459Z</time></trkpt><trkpt lat="44.6435219" lon="7.952583"><ele>226.0</ele><time>2026-04-11T08:50:20.459Z</time></trkpt><trkpt lat="44.6436045" lon="7.9525119"><ele>226.0</ele><time>2026-04-11T08:50:21.459Z</time></trkpt><trkpt lat="44.6436974" lon="7.9524264"><ele>225.33333333333331</ele><time>2026-04-11T08:50:22.459Z</time></trkpt><trkpt lat="44.6437701" lon="7.9523588"><ele>224.66666666666666</ele><time>2026-04-11T08:50:23.459Z</time></trkpt><trkpt lat="44.6438202" lon="7.9522461"><ele>224.0</ele><time>2026-04-11T08:50:24.46Z</time></trkpt><trkpt lat="44.643873" lon="7.952144"><ele>223.33333333333331</ele><time>2026-04-11T08:50:25.459Z</time></trkpt><trkpt lat="44.6439116" lon="7.9520307"><ele>222.66666666666666</ele><time>2026-04-11T08:50:26.459Z</time></trkpt><trkpt lat="44.6439411" lon="7.9519247"><ele>222.0</ele><time>2026-04-11T08:50:27.459Z</time></trkpt><trkpt lat="44.6439834" lon="7.9518239"><ele>222.0</ele><time>2026-04-11T08:50:28.459Z</time></trkpt><trkpt lat="44.6440395" lon="7.9517433"><ele>222.0</ele><time>2026-04-11T08:50:29.459Z</time></trkpt><trkpt lat="44.6441018" lon="7.9516799"><ele>222.0</ele><time>2026-04-11T08:50:30.459Z</time></trkpt><trkpt lat="44.6442064" lon="7.9516576"><ele>222.0</ele><time>2026-04-11T08:50:32.459Z</time></trkpt><trkpt lat="44.6442555" lon="7.9517193"><ele>222.0</ele><time>2026-04-11T08:50:33.459Z</time></trkpt><trkpt lat="44.6442959" lon="7.9517935"><ele>222.0</ele><time>2026-04-11T08:50:34.459Z</time></trkpt><trkpt lat="44.6443278" lon="7.95187"><ele>222.0</ele><time>2026-04-11T08:50:35.459Z</time></trkpt><trkpt lat="44.6443634" lon="7.9519605"><ele>222.0</ele><time>2026-04-11T08:50:36.459Z</time></trkpt><trkpt lat="44.6443848" lon="7.9520626"><ele>222.0</ele><time>2026-04-11T08:50:37.459Z</time></trkpt><trkpt lat="44.6444012" lon="7.9521581"><ele>222.0</ele><time>2026-04-11T08:50:38.46Z</time></trkpt><trkpt lat="44.6444195" lon="7.9522504"><ele>222.0</ele><time>2026-04-11T08:50:39.459Z</time></trkpt><trkpt lat="44.6444404" lon="7.95234"><ele>222.0</ele><time>2026-04-11T08:50:40.459Z</time></trkpt><trkpt lat="44.6444618" lon="7.9524257"><ele>222.0</ele><time>2026-04-11T08:50:41.459Z</time></trkpt><trkpt lat="44.6444888" lon="7.9525127"><ele>223.0</ele><time>2026-04-11T08:50:42.46Z</time></trkpt><trkpt lat="44.6445098" lon="7.9526076"><ele>224.0</ele><time>2026-04-11T08:50:43.459Z</time></trkpt><trkpt lat="44.6445374" lon="7.9527046"><ele>225.0</ele><time>2026-04-11T08:50:44.459Z</time></trkpt><trkpt lat="44.6445567" lon="7.9528061"><ele>226.0</ele><time>2026-04-11T08:50:45.459Z</time></trkpt><trkpt lat="44.6445784" lon="7.9529067"><ele>227.0</ele><time>2026-04-11T08:50:46.459Z</time></trkpt><trkpt lat="44.6446009" lon="7.953007"><ele>228.0</ele><time>2026-04-11T08:50:47.459Z</time></trkpt><trkpt lat="44.6446217" lon="7.9531056"><ele>229.0</ele><time>2026-04-11T08:50:48.459Z</time></trkpt><trkpt lat="44.6446481" lon="7.9532032"><ele>229.0</ele><time>2026-04-11T08:50:49.459Z</time></trkpt><trkpt lat="44.6446722" lon="7.9532957"><ele>229.0</ele><time>2026-04-11T08:50:50.459Z</time></trkpt><trkpt lat="44.64469" lon="7.9533847"><ele>229.0</ele><time>2026-04-11T08:50:51.459Z</time></trkpt><trkpt lat="44.644724" lon="7.9534743"><ele>229.0</ele><time>2026-04-11T08:50:52.459Z</time></trkpt><trkpt lat="44.644765" lon="7.9535591"><ele>229.0</ele><time>2026-04-11T08:50:53.459Z</time></trkpt><trkpt lat="44.6448119" lon="7.9536364"><ele>229.0</ele><time>2026-04-11T08:50:54.459Z</time></trkpt><trkpt lat="44.6448577" lon="7.95371"><ele>229.0</ele><time>2026-04-11T08:50:55.459Z</time></trkpt><trkpt lat="44.6449069" lon="7.953778"><ele>227.66666666666666</ele><time>2026-04-11T08:50:56.459Z</time></trkpt><trkpt lat="44.6449523" lon="7.9538565"><ele>226.33333333333331</ele><time>2026-04-11T08:50:57.459Z</time></trkpt><trkpt lat="44.6449688" lon="7.9539533"><ele>225.0</ele><time>2026-04-11T08:50:58.46Z</time></trkpt><trkpt lat="44.645028" lon="7.9540481"><ele>223.66666666666669</ele><time>2026-04-11T08:50:59.46Z</time></trkpt><trkpt lat="44.6450929" lon="7.9541228"><ele>222.33333333333334</ele><time>2026-04-11T08:51:00.459Z</time></trkpt><trkpt lat="44.645156" lon="7.9542025"><ele>221.0</ele><time>2026-04-11T08:51:01.459Z</time></trkpt><trkpt lat="44.6452192" lon="7.9542845"><ele>220.50000000000003</ele><time>2026-04-11T08:51:02.459Z</time></trkpt><trkpt lat="44.6452809" lon="7.954355"><ele>220.0</ele><time>2026-04-11T08:51:03.459Z</time></trkpt><trkpt lat="44.6453478" lon="7.9544169"><ele>219.5</ele><time>2026-04-11T08:51:04.459Z</time></trkpt><trkpt lat="44.6454204" lon="7.9544782"><ele>219.0</ele><time>2026-04-11T08:51:05.459Z</time></trkpt><trkpt lat="44.6454929" lon="7.9545471"><ele>218.50000000000003</ele><time>2026-04-11T08:51:06.459Z</time></trkpt><trkpt lat="44.6455672" lon="7.9546038"><ele>218.0</ele><time>2026-04-11T08:51:07.459Z</time></trkpt><trkpt lat="44.645648" lon="7.954658"><ele>218.0</ele><time>2026-04-11T08:51:08.459Z</time></trkpt><trkpt lat="44.6457277" lon="7.9547161"><ele>218.0</ele><time>2026-04-11T08:51:09.459Z</time></trkpt><trkpt lat="44.6458055" lon="7.9547728"><ele>218.0</ele><time>2026-04-11T08:51:10.459Z</time></trkpt><trkpt lat="44.6458834" lon="7.9548363"><ele>218.0</ele><time>2026-04-11T08:51:11.459Z</time></trkpt><trkpt lat="44.6459632" lon="7.9548973"><ele>218.0</ele><time>2026-04-11T08:51:12.46Z</time></trkpt><trkpt lat="44.6460454" lon="7.9549656"><ele>218.4</ele><time>2026-04-11T08:51:13.459Z</time></trkpt><trkpt lat="44.6461285" lon="7.9550351"><ele>218.8</ele><time>2026-04-11T08:51:14.459Z</time></trkpt><trkpt lat="44.6462167" lon="7.9550968"><ele>219.2</ele><time>2026-04-11T08:51:15.459Z</time></trkpt><trkpt lat="44.6463074" lon="7.9551571"><ele>219.6</ele><time>2026-04-11T08:51:16.459Z</time></trkpt><trkpt lat="44.6464027" lon="7.9552141"><ele>220.0</ele><time>2026-04-11T08:51:17.459Z</time></trkpt><trkpt lat="44.6464835" lon="7.9552986"><ele>218.83333333333331</ele><time>2026-04-11T08:51:18.459Z</time></trkpt><trkpt lat="44.6465518" lon="7.9553828"><ele>217.66666666666666</ele><time>2026-04-11T08:51:19.459Z</time></trkpt><trkpt lat="44.6466248" lon="7.9554425"><ele>216.5</ele><time>2026-04-11T08:51:20.459Z</time></trkpt><trkpt lat="44.6466999" lon="7.955493"><ele>215.33333333333331</ele><time>2026-04-11T08:51:21.459Z</time></trkpt><trkpt lat="44.6467816" lon="7.9555561"><ele>214.16666666666666</ele><time>2026-04-11T08:51:22.459Z</time></trkpt><trkpt lat="44.6468684" lon="7.9556173"><ele>213.0</ele><time>2026-04-11T08:51:23.459Z</time></trkpt><trkpt lat="44.6469569" lon="7.9556605"><ele>213.0</ele><time>2026-04-11T08:51:24.459Z</time></trkpt><trkpt lat="44.6470396" lon="7.9557142"><ele>213.0</ele><time>2026-04-11T08:51:25.459Z</time></trkpt><trkpt lat="44.6471255" lon="7.9557952"><ele>213.0</ele><time>2026-04-11T08:51:26.459Z</time></trkpt><trkpt lat="44.6472053" lon="7.9558896"><ele>213.0</ele><time>2026-04-11T08:51:27.459Z</time></trkpt><trkpt lat="44.6472771" lon="7.955981"><ele>213.0</ele><time>2026-04-11T08:51:28.459Z</time></trkpt><trkpt lat="44.6473466" lon="7.9560692"><ele>213.0</ele><time>2026-04-11T08:51:29.459Z</time></trkpt><trkpt lat="44.6474181" lon="7.956163"><ele>213.0</ele><time>2026-04-11T08:51:30.459Z</time></trkpt><trkpt lat="44.647489" lon="7.9562534"><ele>213.0</ele><time>2026-04-11T08:51:31.459Z</time></trkpt><trkpt lat="44.6475637" lon="7.9563299"><ele>213.0</ele><time>2026-04-11T08:51:32.459Z</time></trkpt><trkpt lat="44.647635" lon="7.9563995"><ele>213.0</ele><time>2026-04-11T08:51:33.459Z</time></trkpt><trkpt lat="44.6477063" lon="7.9564649"><ele>213.0</ele><time>2026-04-11T08:51:34.459Z</time></trkpt><trkpt lat="44.6477748" lon="7.9565346"><ele>213.0</ele><time>2026-04-11T08:51:35.459Z</time></trkpt><trkpt lat="44.6478342" lon="7.956605"><ele>213.0</ele><time>2026-04-11T08:51:36.459Z</time></trkpt><trkpt lat="44.6478806" lon="7.9566914"><ele>213.0</ele><time>2026-04-11T08:51:37.459Z</time></trkpt><trkpt lat="44.6479221" lon="7.9567906"><ele>213.0</ele><time>2026-04-11T08:51:38.459Z</time></trkpt><trkpt lat="44.6479633" lon="7.956906"><ele>213.0</ele><time>2026-04-11T08:51:39.459Z</time></trkpt><trkpt lat="44.6479946" lon="7.9570139"><ele>212.16666666666666</ele><time>2026-04-11T08:51:40.459Z</time></trkpt><trkpt lat="44.6480191" lon="7.9571248"><ele>211.33333333333331</ele><time>2026-04-11T08:51:41.459Z</time></trkpt><trkpt lat="44.6480428" lon="7.9572382"><ele>210.5</ele><time>2026-04-11T08:51:42.459Z</time></trkpt><trkpt lat="44.6480707" lon="7.9573468"><ele>209.66666666666666</ele><time>2026-04-11T08:51:43.459Z</time></trkpt><trkpt lat="44.6480928" lon="7.957465"><ele>208.83333333333331</ele><time>2026-04-11T08:51:44.459Z</time></trkpt><trkpt lat="44.6481146" lon="7.957579"><ele>208.0</ele><time>2026-04-11T08:51:45.459Z</time></trkpt><trkpt lat="44.6481466" lon="7.9576891"><ele>207.83333333333331</ele><time>2026-04-11T08:51:46.459Z</time></trkpt><trkpt lat="44.6481853" lon="7.9577878"><ele>207.66666666666666</ele><time>2026-04-11T08:51:47.46Z</time></trkpt><trkpt lat="44.6482251" lon="7.9578929"><ele>207.5</ele><time>2026-04-11T08:51:48.465Z</time></trkpt><trkpt lat="44.6482554" lon="7.9579986"><ele>207.33333333333331</ele><time>2026-04-11T08:51:49.465Z</time></trkpt><trkpt lat="44.6482994" lon="7.9580844"><ele>207.16666666666666</ele><time>2026-04-11T08:51:50.465Z</time></trkpt><trkpt lat="44.6483437" lon="7.9581793"><ele>207.0</ele><time>2026-04-11T08:51:51.465Z</time></trkpt><trkpt lat="44.6483839" lon="7.9582807"><ele>206.83333333333334</ele><time>2026-04-11T08:51:52.465Z</time></trkpt><trkpt lat="44.6484134" lon="7.9583819"><ele>206.66666666666669</ele><time>2026-04-11T08:51:53.465Z</time></trkpt><trkpt lat="44.6484467" lon="7.9584906"><ele>206.5</ele><time>2026-04-11T08:51:54.465Z</time></trkpt><trkpt lat="44.6484861" lon="7.9586006"><ele>206.33333333333334</ele><time>2026-04-11T08:51:55.465Z</time></trkpt><trkpt lat="44.6485109" lon="7.9587076"><ele>206.16666666666669</ele><time>2026-04-11T08:51:56.465Z</time></trkpt><trkpt lat="44.648556" lon="7.9588011"><ele>206.0</ele><time>2026-04-11T08:51:57.465Z</time></trkpt><trkpt lat="44.6486087" lon="7.9589052"><ele>206.16666666666669</ele><time>2026-04-11T08:51:58.465Z</time></trkpt><trkpt lat="44.6486405" lon="7.9590113"><ele>206.33333333333334</ele><time>2026-04-11T08:51:59.465Z</time></trkpt><trkpt lat="44.6486714" lon="7.9591087"><ele>206.5</ele><time>2026-04-11T08:52:00.465Z</time></trkpt><trkpt lat="44.6487006" lon="7.9592052"><ele>206.66666666666669</ele><time>2026-04-11T08:52:01.465Z</time></trkpt><trkpt lat="44.6487336" lon="7.9593076"><ele>206.83333333333334</ele><time>2026-04-11T08:52:02.465Z</time></trkpt><trkpt lat="44.6487641" lon="7.9594071"><ele>207.0</ele><time>2026-04-11T08:52:03.465Z</time></trkpt><trkpt lat="44.6487963" lon="7.9594972"><ele>206.6</ele><time>2026-04-11T08:52:04.465Z</time></trkpt><trkpt lat="44.6488294" lon="7.9595754"><ele>206.2</ele><time>2026-04-11T08:52:05.465Z</time></trkpt><trkpt lat="44.648913" lon="7.959691"><ele>205.8</ele><time>2026-04-11T08:52:07.465Z</time></trkpt><trkpt lat="44.6490253" lon="7.9596684"><ele>205.4</ele><time>2026-04-11T08:52:09.465Z</time></trkpt><trkpt lat="44.6491442" lon="7.9596199"><ele>205.0</ele><time>2026-04-11T08:52:11.465Z</time></trkpt><trkpt lat="44.6492477" lon="7.9595666"><ele>205.0</ele><time>2026-04-11T08:52:13.465Z</time></trkpt><trkpt lat="44.6493734" lon="7.9595341"><ele>205.0</ele><time>2026-04-11T08:52:15.465Z</time></trkpt><trkpt lat="44.6494422" lon="7.9595028"><ele>205.0</ele><time>2026-04-11T08:52:16.465Z</time></trkpt><trkpt lat="44.6495115" lon="7.9594662"><ele>205.0</ele><time>2026-04-11T08:52:17.465Z</time></trkpt><trkpt lat="44.6495745" lon="7.9594791"><ele>205.0</ele><time>2026-04-11T08:52:18.466Z</time></trkpt><trkpt lat="44.6496635" lon="7.9596176"><ele>205.49999999999997</ele><time>2026-04-11T08:52:20.465Z</time></trkpt><trkpt lat="44.6496986" lon="7.9596958"><ele>206.0</ele><time>2026-04-11T08:52:21.465Z</time></trkpt><trkpt lat="44.649724" lon="7.9597816"><ele>206.5</ele><time>2026-04-11T08:52:22.465Z</time></trkpt><trkpt lat="44.6497646" lon="7.9599351"><ele>207.0</ele><time>2026-04-11T08:52:24.465Z</time></trkpt><trkpt lat="44.6498054" lon="7.9600686"><ele>207.49999999999997</ele><time>2026-04-11T08:52:26.465Z</time></trkpt><trkpt lat="44.6498634" lon="7.9601473"><ele>208.0</ele><time>2026-04-11T08:52:28.465Z</time></trkpt><trkpt lat="44.6499177" lon="7.960196"><ele>207.99999999999997</ele><time>2026-04-11T08:52:30.465Z</time></trkpt><trkpt lat="44.6498946" lon="7.9602788"><ele>208.0</ele><time>2026-04-11T08:52:58.465Z</time></trkpt><trkpt lat="44.649905" lon="7.9603818"><ele>208.0</ele><time>2026-04-11T08:53:00.466Z</time></trkpt><trkpt lat="44.6499384" lon="7.9605052"><ele>208.0</ele><time>2026-04-11T08:53:02.466Z</time></trkpt><trkpt lat="44.6499864" lon="7.9606498"><ele>207.99999999999997</ele><time>2026-04-11T08:53:04.466Z</time></trkpt><trkpt lat="44.6500087" lon="7.9607335"><ele>208.0</ele><time>2026-04-11T08:53:05.466Z</time></trkpt><trkpt lat="44.650036" lon="7.9608149"><ele>207.16666666666666</ele><time>2026-04-11T08:53:06.466Z</time></trkpt><trkpt lat="44.650086" lon="7.9609718"><ele>206.33333333333331</ele><time>2026-04-11T08:53:08.466Z</time></trkpt><trkpt lat="44.6501148" lon="7.961065"><ele>205.5</ele><time>2026-04-11T08:53:09.466Z</time></trkpt><trkpt lat="44.6501427" lon="7.9611534"><ele>204.66666666666669</ele><time>2026-04-11T08:53:10.466Z</time></trkpt><trkpt lat="44.650168" lon="7.9612435"><ele>203.83333333333334</ele><time>2026-04-11T08:53:11.466Z</time></trkpt><trkpt lat="44.6501986" lon="7.9613374"><ele>203.0</ele><time>2026-04-11T08:53:12.466Z</time></trkpt><trkpt lat="44.6502248" lon="7.9614333"><ele>203.0</ele><time>2026-04-11T08:53:13.466Z</time></trkpt><trkpt lat="44.6502534" lon="7.9615274"><ele>203.0</ele><time>2026-04-11T08:53:14.466Z</time></trkpt><trkpt lat="44.6502855" lon="7.9616324"><ele>203.0</ele><time>2026-04-11T08:53:15.466Z</time></trkpt><trkpt lat="44.6503153" lon="7.9617195"><ele>203.0</ele><time>2026-04-11T08:53:16.466Z</time></trkpt><trkpt lat="44.6503406" lon="7.9618136"><ele>203.0</ele><time>2026-04-11T08:53:17.466Z</time></trkpt><trkpt lat="44.6503657" lon="7.9619151"><ele>203.0</ele><time>2026-04-11T08:53:18.466Z</time></trkpt><trkpt lat="44.6503802" lon="7.9620194"><ele>203.0</ele><time>2026-04-11T08:53:19.466Z</time></trkpt><trkpt lat="44.6504016" lon="7.9621225"><ele>204.50000000000003</ele><time>2026-04-11T08:53:20.466Z</time></trkpt><trkpt lat="44.6504194" lon="7.9622256"><ele>206.0</ele><time>2026-04-11T08:53:21.466Z</time></trkpt><trkpt lat="44.6504543" lon="7.9623338"><ele>207.5</ele><time>2026-04-11T08:53:22.466Z</time></trkpt><trkpt lat="44.6504772" lon="7.9624308"><ele>209.0</ele><time>2026-04-11T08:53:23.466Z</time></trkpt><trkpt lat="44.6504974" lon="7.9625353"><ele>210.50000000000003</ele><time>2026-04-11T08:53:24.466Z</time></trkpt><trkpt lat="44.6505204" lon="7.9626428"><ele>212.0</ele><time>2026-04-11T08:53:25.466Z</time></trkpt><trkpt lat="44.6505402" lon="7.9627556"><ele>212.00000000000003</ele><time>2026-04-11T08:53:26.466Z</time></trkpt><trkpt lat="44.6505577" lon="7.9628627"><ele>212.0</ele><time>2026-04-11T08:53:27.466Z</time></trkpt><trkpt lat="44.6505629" lon="7.9629746"><ele>212.0</ele><time>2026-04-11T08:53:28.466Z</time></trkpt><trkpt lat="44.6505827" lon="7.9630843"><ele>212.0</ele><time>2026-04-11T08:53:29.466Z</time></trkpt><trkpt lat="44.6505985" lon="7.9631875"><ele>212.00000000000003</ele><time>2026-04-11T08:53:30.466Z</time></trkpt><trkpt lat="44.6506199" lon="7.9632986"><ele>212.0</ele><time>2026-04-11T08:53:31.466Z</time></trkpt><trkpt lat="44.6506503" lon="7.9634139"><ele>210.66666666666669</ele><time>2026-04-11T08:53:32.466Z</time></trkpt><trkpt lat="44.6506818" lon="7.9635227"><ele>209.33333333333334</ele><time>2026-04-11T08:53:33.466Z</time></trkpt><trkpt lat="44.6507145" lon="7.9636265"><ele>208.0</ele><time>2026-04-11T08:53:34.466Z</time></trkpt><trkpt lat="44.6507343" lon="7.9637158"><ele>206.66666666666669</ele><time>2026-04-11T08:53:35.466Z</time></trkpt><trkpt lat="44.6507841" lon="7.963805"><ele>205.33333333333334</ele><time>2026-04-11T08:53:36.466Z</time></trkpt><trkpt lat="44.6508417" lon="7.9638764"><ele>204.0</ele><time>2026-04-11T08:53:37.466Z</time></trkpt><trkpt lat="44.6508846" lon="7.9639507"><ele>204.0</ele><time>2026-04-11T08:53:38.466Z</time></trkpt><trkpt lat="44.6509429" lon="7.964026"><ele>204.0</ele><time>2026-04-11T08:53:39.466Z</time></trkpt><trkpt lat="44.651004" lon="7.9640986"><ele>204.0</ele><time>2026-04-11T08:53:40.466Z</time></trkpt><trkpt lat="44.6510644" lon="7.9641726"><ele>204.0</ele><time>2026-04-11T08:53:41.466Z</time></trkpt><trkpt lat="44.6511245" lon="7.9642408"><ele>204.0</ele><time>2026-04-11T08:53:42.466Z</time></trkpt><trkpt lat="44.651188" lon="7.9643088"><ele>204.0</ele><time>2026-04-11T08:53:43.466Z</time></trkpt><trkpt lat="44.6512419" lon="7.9643794"><ele>204.33333333333334</ele><time>2026-04-11T08:53:44.466Z</time></trkpt><trkpt lat="44.6512904" lon="7.964452"><ele>204.66666666666669</ele><time>2026-04-11T08:53:45.466Z</time></trkpt><trkpt lat="44.6513434" lon="7.9645253"><ele>205.0</ele><time>2026-04-11T08:53:46.466Z</time></trkpt><trkpt lat="44.6513965" lon="7.9646018"><ele>205.33333333333334</ele><time>2026-04-11T08:53:47.466Z</time></trkpt><trkpt lat="44.6514621" lon="7.9646822"><ele>205.66666666666669</ele><time>2026-04-11T08:53:48.466Z</time></trkpt><trkpt lat="44.6515337" lon="7.9647574"><ele>206.0</ele><time>2026-04-11T08:53:49.466Z</time></trkpt><trkpt lat="44.6516033" lon="7.9648536"><ele>206.00000000000003</ele><time>2026-04-11T08:53:50.466Z</time></trkpt><trkpt lat="44.6516686" lon="7.9649351"><ele>206.0</ele><time>2026-04-11T08:53:51.466Z</time></trkpt><trkpt lat="44.6517256" lon="7.9650172"><ele>206.0</ele><time>2026-04-11T08:53:52.466Z</time></trkpt><trkpt lat="44.6517768" lon="7.9651047"><ele>206.0</ele><time>2026-04-11T08:53:53.466Z</time></trkpt><trkpt lat="44.6518249" lon="7.9651844"><ele>206.00000000000003</ele><time>2026-04-11T08:53:54.466Z</time></trkpt><trkpt lat="44.6518794" lon="7.9652631"><ele>206.0</ele><time>2026-04-11T08:53:55.466Z</time></trkpt><trkpt lat="44.6519351" lon="7.9653492"><ele>206.33333333333334</ele><time>2026-04-11T08:53:56.466Z</time></trkpt><trkpt lat="44.6519891" lon="7.9654318"><ele>206.66666666666669</ele><time>2026-04-11T08:53:57.467Z</time></trkpt><trkpt lat="44.6520449" lon="7.9655232"><ele>207.0</ele><time>2026-04-11T08:53:58.466Z</time></trkpt><trkpt lat="44.6521047" lon="7.965603"><ele>207.33333333333331</ele><time>2026-04-11T08:53:59.466Z</time></trkpt><trkpt lat="44.6521635" lon="7.9656762"><ele>207.66666666666666</ele><time>2026-04-11T08:54:00.466Z</time></trkpt><trkpt lat="44.6522224" lon="7.9657509"><ele>208.0</ele><time>2026-04-11T08:54:01.466Z</time></trkpt><trkpt lat="44.6522891" lon="7.9658247"><ele>205.99999999999997</ele><time>2026-04-11T08:54:02.466Z</time></trkpt><trkpt lat="44.6523468" lon="7.9658971"><ele>204.0</ele><time>2026-04-11T08:54:03.466Z</time></trkpt><trkpt lat="44.6524062" lon="7.9659713"><ele>202.0</ele><time>2026-04-11T08:54:04.466Z</time></trkpt><trkpt lat="44.6524652" lon="7.9660644"><ele>200.0</ele><time>2026-04-11T08:54:05.466Z</time></trkpt><trkpt lat="44.6525168" lon="7.9661588"><ele>197.99999999999997</ele><time>2026-04-11T08:54:06.466Z</time></trkpt><trkpt lat="44.6525549" lon="7.9662914"><ele>196.0</ele><time>2026-04-11T08:54:07.466Z</time></trkpt><trkpt lat="44.652572" lon="7.9664174"><ele>196.0</ele><time>2026-04-11T08:54:08.466Z</time></trkpt><trkpt lat="44.6525915" lon="7.9665349"><ele>196.0</ele><time>2026-04-11T08:54:09.466Z</time></trkpt><trkpt lat="44.6526122" lon="7.9666597"><ele>196.0</ele><time>2026-04-11T08:54:10.466Z</time></trkpt><trkpt lat="44.6526259" lon="7.9667903"><ele>196.0</ele><time>2026-04-11T08:54:11.466Z</time></trkpt><trkpt lat="44.6526619" lon="7.9669153"><ele>196.0</ele><time>2026-04-11T08:54:12.466Z</time></trkpt><trkpt lat="44.6527111" lon="7.9670321"><ele>195.4</ele><time>2026-04-11T08:54:13.466Z</time></trkpt><trkpt lat="44.6527633" lon="7.96716"><ele>194.8</ele><time>2026-04-11T08:54:14.466Z</time></trkpt><trkpt lat="44.6528131" lon="7.967272"><ele>194.20000000000002</ele><time>2026-04-11T08:54:15.466Z</time></trkpt><trkpt lat="44.6528522" lon="7.9673794"><ele>193.60000000000002</ele><time>2026-04-11T08:54:16.466Z</time></trkpt><trkpt lat="44.6528976" lon="7.9674922"><ele>193.0</ele><time>2026-04-11T08:54:17.466Z</time></trkpt><trkpt lat="44.6529535" lon="7.9676093"><ele>192.99999999999997</ele><time>2026-04-11T08:54:18.466Z</time></trkpt><trkpt lat="44.6530084" lon="7.9677149"><ele>193.0</ele><time>2026-04-11T08:54:19.466Z</time></trkpt><trkpt lat="44.6530642" lon="7.9678112"><ele>193.0</ele><time>2026-04-11T08:54:20.466Z</time></trkpt><trkpt lat="44.653134" lon="7.9678842"><ele>193.0</ele><time>2026-04-11T08:54:21.467Z</time></trkpt><trkpt lat="44.6532022" lon="7.9679482"><ele>192.99999999999997</ele><time>2026-04-11T08:54:22.466Z</time></trkpt><trkpt lat="44.6532755" lon="7.967989"><ele>193.0</ele><time>2026-04-11T08:54:23.466Z</time></trkpt><trkpt lat="44.6533646" lon="7.9679956"><ele>192.99999999999997</ele><time>2026-04-11T08:54:24.466Z</time></trkpt><trkpt lat="44.653451" lon="7.9679914"><ele>193.0</ele><time>2026-04-11T08:54:25.466Z</time></trkpt><trkpt lat="44.6535359" lon="7.9680035"><ele>193.0</ele><time>2026-04-11T08:54:26.466Z</time></trkpt><trkpt lat="44.6536196" lon="7.9680142"><ele>193.0</ele><time>2026-04-11T08:54:27.466Z</time></trkpt><trkpt lat="44.6536864" lon="7.9680272"><ele>192.99999999999997</ele><time>2026-04-11T08:54:28.466Z</time></trkpt><trkpt lat="44.6537515" lon="7.9680513"><ele>193.0</ele><time>2026-04-11T08:54:29.466Z</time></trkpt><trkpt lat="44.6538228" lon="7.9680871"><ele>192.83333333333331</ele><time>2026-04-11T08:54:30.466Z</time></trkpt><trkpt lat="44.653895" lon="7.9681496"><ele>192.66666666666666</ele><time>2026-04-11T08:54:31.466Z</time></trkpt><trkpt lat="44.653967" lon="7.9681842"><ele>192.5</ele><time>2026-04-11T08:54:32.467Z</time></trkpt><trkpt lat="44.6540417" lon="7.9681862"><ele>192.33333333333331</ele><time>2026-04-11T08:54:33.466Z</time></trkpt><trkpt lat="44.6541157" lon="7.9681454"><ele>192.16666666666666</ele><time>2026-04-11T08:54:34.466Z</time></trkpt><trkpt lat="44.6541835" lon="7.9680851"><ele>192.0</ele><time>2026-04-11T08:54:35.466Z</time></trkpt><trkpt lat="44.654245" lon="7.9680097"><ele>192.0</ele><time>2026-04-11T08:54:36.466Z</time></trkpt><trkpt lat="44.6542958" lon="7.9679233"><ele>192.0</ele><time>2026-04-11T08:54:37.466Z</time></trkpt><trkpt lat="44.6543479" lon="7.9678719"><ele>192.0</ele><time>2026-04-11T08:54:38.466Z</time></trkpt><trkpt lat="44.6544016" lon="7.9678201"><ele>192.0</ele><time>2026-04-11T08:54:39.466Z</time></trkpt><trkpt lat="44.654501" lon="7.9678206"><ele>192.0</ele><time>2026-04-11T08:54:41.466Z</time></trkpt><trkpt lat="44.6545453" lon="7.9679241"><ele>192.0</ele><time>2026-04-11T08:54:43.466Z</time></trkpt><trkpt lat="44.6545328" lon="7.9680218"><ele>192.0</ele><time>2026-04-11T08:54:45.466Z</time></trkpt><trkpt lat="44.6545085" lon="7.9681208"><ele>192.0</ele><time>2026-04-11T08:54:47.466Z</time></trkpt><trkpt lat="44.6544538" lon="7.9682247"><ele>192.0</ele><time>2026-04-11T08:54:49.466Z</time></trkpt><trkpt lat="44.6544077" lon="7.9683671"><ele>192.0</ele><time>2026-04-11T08:54:51.466Z</time></trkpt><trkpt lat="44.6543778" lon="7.9684502"><ele>192.0</ele><time>2026-04-11T08:54:52.466Z</time></trkpt><trkpt lat="44.6543359" lon="7.9686085"><ele>192.0</ele><time>2026-04-11T08:54:54.466Z</time></trkpt><trkpt lat="44.6542957" lon="7.9687709"><ele>192.0</ele><time>2026-04-11T08:54:56.466Z</time></trkpt><trkpt lat="44.6542799" lon="7.9688629"><ele>192.0</ele><time>2026-04-11T08:54:57.466Z</time></trkpt><trkpt lat="44.6542661" lon="7.9689584"><ele>192.0</ele><time>2026-04-11T08:54:58.466Z</time></trkpt><trkpt lat="44.6542516" lon="7.9690567"><ele>192.0</ele><time>2026-04-11T08:54:59.466Z</time></trkpt><trkpt lat="44.6542398" lon="7.9691618"><ele>192.0</ele><time>2026-04-11T08:55:00.466Z</time></trkpt><trkpt lat="44.6542256" lon="7.9692611"><ele>191.99999999999997</ele><time>2026-04-11T08:55:01.467Z</time></trkpt><trkpt lat="44.6542091" lon="7.9693535"><ele>192.0</ele><time>2026-04-11T08:55:02.466Z</time></trkpt><trkpt lat="44.6541902" lon="7.9694486"><ele>192.0</ele><time>2026-04-11T08:55:03.466Z</time></trkpt><trkpt lat="44.6541718" lon="7.9695486"><ele>192.0</ele><time>2026-04-11T08:55:04.466Z</time></trkpt><trkpt lat="44.6541545" lon="7.9696483"><ele>192.0</ele><time>2026-04-11T08:55:05.466Z</time></trkpt><trkpt lat="44.6541343" lon="7.9697479"><ele>191.99999999999997</ele><time>2026-04-11T08:55:06.466Z</time></trkpt><trkpt lat="44.6541195" lon="7.9698512"><ele>192.0</ele><time>2026-04-11T08:55:07.466Z</time></trkpt><trkpt lat="44.6541029" lon="7.9699493"><ele>192.0</ele><time>2026-04-11T08:55:08.466Z</time></trkpt><trkpt lat="44.6540834" lon="7.9700522"><ele>192.0</ele><time>2026-04-11T08:55:09.466Z</time></trkpt><trkpt lat="44.6540673" lon="7.9701558"><ele>192.0</ele><time>2026-04-11T08:55:10.466Z</time></trkpt><trkpt lat="44.6540493" lon="7.9702633"><ele>192.0</ele><time>2026-04-11T08:55:11.466Z</time></trkpt><trkpt lat="44.654033" lon="7.970372"><ele>192.0</ele><time>2026-04-11T08:55:12.466Z</time></trkpt><trkpt lat="44.6540167" lon="7.9704754"><ele>192.0</ele><time>2026-04-11T08:55:13.466Z</time></trkpt><trkpt lat="44.6539998" lon="7.9705771"><ele>192.0</ele><time>2026-04-11T08:55:14.466Z</time></trkpt><trkpt lat="44.6539897" lon="7.9706852"><ele>192.0</ele><time>2026-04-11T08:55:15.466Z</time></trkpt><trkpt lat="44.6539735" lon="7.9707883"><ele>192.0</ele><time>2026-04-11T08:55:16.466Z</time></trkpt><trkpt lat="44.6539603" lon="7.9708954"><ele>192.0</ele><time>2026-04-11T08:55:17.466Z</time></trkpt><trkpt lat="44.6539474" lon="7.9710011"><ele>192.0</ele><time>2026-04-11T08:55:18.466Z</time></trkpt><trkpt lat="44.6539341" lon="7.9711058"><ele>192.0</ele><time>2026-04-11T08:55:19.466Z</time></trkpt><trkpt lat="44.6539214" lon="7.9712123"><ele>191.83333333333334</ele><time>2026-04-11T08:55:20.466Z</time></trkpt><trkpt lat="44.653909" lon="7.9713187"><ele>191.66666666666666</ele><time>2026-04-11T08:55:21.466Z</time></trkpt><trkpt lat="44.6538942" lon="7.9714232"><ele>191.5</ele><time>2026-04-11T08:55:22.466Z</time></trkpt><trkpt lat="44.653882" lon="7.9715292"><ele>191.33333333333331</ele><time>2026-04-11T08:55:23.466Z</time></trkpt><trkpt lat="44.6538722" lon="7.971635"><ele>191.16666666666666</ele><time>2026-04-11T08:55:24.466Z</time></trkpt><trkpt lat="44.653866" lon="7.9717427"><ele>191.0</ele><time>2026-04-11T08:55:25.466Z</time></trkpt><trkpt lat="44.6538594" lon="7.9718544"><ele>191.0</ele><time>2026-04-11T08:55:26.466Z</time></trkpt><trkpt lat="44.6538529" lon="7.9719633"><ele>191.0</ele><time>2026-04-11T08:55:27.466Z</time></trkpt><trkpt lat="44.6538503" lon="7.972074"><ele>191.0</ele><time>2026-04-11T08:55:28.466Z</time></trkpt><trkpt lat="44.6538527" lon="7.9721899"><ele>191.0</ele><time>2026-04-11T08:55:29.466Z</time></trkpt><trkpt lat="44.6538496" lon="7.9723027"><ele>191.0</ele><time>2026-04-11T08:55:30.466Z</time></trkpt><trkpt lat="44.6538485" lon="7.9724136"><ele>191.0</ele><time>2026-04-11T08:55:31.466Z</time></trkpt><trkpt lat="44.6538489" lon="7.9725198"><ele>191.5</ele><time>2026-04-11T08:55:32.466Z</time></trkpt><trkpt lat="44.6538529" lon="7.9726328"><ele>192.0</ele><time>2026-04-11T08:55:33.466Z</time></trkpt><trkpt lat="44.6538592" lon="7.9727427"><ele>192.5</ele><time>2026-04-11T08:55:34.466Z</time></trkpt><trkpt lat="44.6538652" lon="7.9728566"><ele>193.0</ele><time>2026-04-11T08:55:35.466Z</time></trkpt><trkpt lat="44.6538751" lon="7.9729707"><ele>193.50000000000003</ele><time>2026-04-11T08:55:36.466Z</time></trkpt><trkpt lat="44.6538843" lon="7.9730812"><ele>194.0</ele><time>2026-04-11T08:55:37.466Z</time></trkpt><trkpt lat="44.6538961" lon="7.9731892"><ele>194.00000000000003</ele><time>2026-04-11T08:55:38.466Z</time></trkpt><trkpt lat="44.6539101" lon="7.9733015"><ele>194.0</ele><time>2026-04-11T08:55:39.466Z</time></trkpt><trkpt lat="44.6539214" lon="7.973411"><ele>194.0</ele><time>2026-04-11T08:55:40.466Z</time></trkpt><trkpt lat="44.6539286" lon="7.9735199"><ele>194.0</ele><time>2026-04-11T08:55:41.466Z</time></trkpt><trkpt lat="44.6539403" lon="7.9736343"><ele>194.00000000000003</ele><time>2026-04-11T08:55:42.466Z</time></trkpt><trkpt lat="44.6539485" lon="7.9737461"><ele>194.0</ele><time>2026-04-11T08:55:43.466Z</time></trkpt><trkpt lat="44.6539641" lon="7.9738585"><ele>194.16666666666669</ele><time>2026-04-11T08:55:44.466Z</time></trkpt><trkpt lat="44.6539815" lon="7.9739667"><ele>194.33333333333334</ele><time>2026-04-11T08:55:45.466Z</time></trkpt><trkpt lat="44.6539882" lon="7.9740793"><ele>194.5</ele><time>2026-04-11T08:55:46.466Z</time></trkpt><trkpt lat="44.6539913" lon="7.9741889"><ele>194.66666666666669</ele><time>2026-04-11T08:55:47.466Z</time></trkpt><trkpt lat="44.6540064" lon="7.9743018"><ele>194.83333333333334</ele><time>2026-04-11T08:55:48.466Z</time></trkpt><trkpt lat="44.6540196" lon="7.974412"><ele>195.0</ele><time>2026-04-11T08:55:49.466Z</time></trkpt><trkpt lat="44.6540388" lon="7.9745249"><ele>194.66666666666666</ele><time>2026-04-11T08:55:50.466Z</time></trkpt><trkpt lat="44.6540549" lon="7.9746433"><ele>194.33333333333331</ele><time>2026-04-11T08:55:51.466Z</time></trkpt><trkpt lat="44.6540667" lon="7.9747614"><ele>194.0</ele><time>2026-04-11T08:55:52.467Z</time></trkpt><trkpt lat="44.6540785" lon="7.9748797"><ele>193.66666666666666</ele><time>2026-04-11T08:55:53.466Z</time></trkpt><trkpt lat="44.6540862" lon="7.9749919"><ele>193.33333333333331</ele><time>2026-04-11T08:55:54.466Z</time></trkpt><trkpt lat="44.654094" lon="7.9751049"><ele>193.0</ele><time>2026-04-11T08:55:55.466Z</time></trkpt><trkpt lat="44.6541036" lon="7.9752198"><ele>192.83333333333331</ele><time>2026-04-11T08:55:56.466Z</time></trkpt><trkpt lat="44.6541128" lon="7.9753271"><ele>192.66666666666666</ele><time>2026-04-11T08:55:57.466Z</time></trkpt><trkpt lat="44.6541325" lon="7.9754388"><ele>192.5</ele><time>2026-04-11T08:55:58.466Z</time></trkpt><trkpt lat="44.6541529" lon="7.9755481"><ele>192.33333333333331</ele><time>2026-04-11T08:55:59.466Z</time></trkpt><trkpt lat="44.6541716" lon="7.9756587"><ele>192.16666666666666</ele><time>2026-04-11T08:56:00.466Z</time></trkpt><trkpt lat="44.6542001" lon="7.9757729"><ele>192.0</ele><time>2026-04-11T08:56:01.466Z</time></trkpt><trkpt lat="44.6542216" lon="7.9758837"><ele>192.0</ele><time>2026-04-11T08:56:02.466Z</time></trkpt><trkpt lat="44.6542345" lon="7.9759984"><ele>192.0</ele><time>2026-04-11T08:56:03.466Z</time></trkpt><trkpt lat="44.6542441" lon="7.9761139"><ele>192.0</ele><time>2026-04-11T08:56:04.466Z</time></trkpt><trkpt lat="44.6542594" lon="7.9762289"><ele>192.0</ele><time>2026-04-11T08:56:05.466Z</time></trkpt><trkpt lat="44.6542726" lon="7.9763411"><ele>192.0</ele><time>2026-04-11T08:56:06.467Z</time></trkpt><trkpt lat="44.6542841" lon="7.976454"><ele>192.0</ele><time>2026-04-11T08:56:07.466Z</time></trkpt><trkpt lat="44.6542984" lon="7.976569"><ele>192.0</ele><time>2026-04-11T08:56:08.466Z</time></trkpt><trkpt lat="44.6543099" lon="7.9766832"><ele>192.0</ele><time>2026-04-11T08:56:09.466Z</time></trkpt><trkpt lat="44.6543231" lon="7.9767993"><ele>192.0</ele><time>2026-04-11T08:56:10.466Z</time></trkpt><trkpt lat="44.654341" lon="7.9769077"><ele>192.0</ele><time>2026-04-11T08:56:11.466Z</time></trkpt><trkpt lat="44.6543648" lon="7.9770246"><ele>192.0</ele><time>2026-04-11T08:56:12.466Z</time></trkpt><trkpt lat="44.6543843" lon="7.9771427"><ele>192.0</ele><time>2026-04-11T08:56:13.466Z</time></trkpt><trkpt lat="44.6543946" lon="7.9772712"><ele>192.16666666666666</ele><time>2026-04-11T08:56:14.466Z</time></trkpt><trkpt lat="44.6544154" lon="7.9773996"><ele>192.33333333333331</ele><time>2026-04-11T08:56:15.466Z</time></trkpt><trkpt lat="44.6544309" lon="7.9775141"><ele>192.5</ele><time>2026-04-11T08:56:16.466Z</time></trkpt><trkpt lat="44.6544454" lon="7.9776203"><ele>192.66666666666666</ele><time>2026-04-11T08:56:17.466Z</time></trkpt><trkpt lat="44.6544611" lon="7.977727"><ele>192.83333333333331</ele><time>2026-04-11T08:56:18.466Z</time></trkpt><trkpt lat="44.6544718" lon="7.977838"><ele>193.0</ele><time>2026-04-11T08:56:19.466Z</time></trkpt><trkpt lat="44.6544895" lon="7.9779497"><ele>192.99999999999997</ele><time>2026-04-11T08:56:20.467Z</time></trkpt><trkpt lat="44.6545055" lon="7.9780635"><ele>193.0</ele><time>2026-04-11T08:56:21.467Z</time></trkpt><trkpt lat="44.6545188" lon="7.978177"><ele>193.0</ele><time>2026-04-11T08:56:22.466Z</time></trkpt><trkpt lat="44.6545339" lon="7.9782905"><ele>193.0</ele><time>2026-04-11T08:56:23.466Z</time></trkpt><trkpt lat="44.6545472" lon="7.9784022"><ele>192.99999999999997</ele><time>2026-04-11T08:56:24.466Z</time></trkpt><trkpt lat="44.6545604" lon="7.9785124"><ele>193.0</ele><time>2026-04-11T08:56:25.466Z</time></trkpt><trkpt lat="44.6545763" lon="7.9786221"><ele>192.83333333333331</ele><time>2026-04-11T08:56:26.466Z</time></trkpt><trkpt lat="44.6545945" lon="7.978734"><ele>192.66666666666666</ele><time>2026-04-11T08:56:27.466Z</time></trkpt><trkpt lat="44.6546059" lon="7.9788452"><ele>192.5</ele><time>2026-04-11T08:56:28.466Z</time></trkpt><trkpt lat="44.654634" lon="7.9789527"><ele>192.33333333333331</ele><time>2026-04-11T08:56:29.466Z</time></trkpt><trkpt lat="44.654656" lon="7.9790588"><ele>192.16666666666666</ele><time>2026-04-11T08:56:30.466Z</time></trkpt><trkpt lat="44.6546714" lon="7.9791649"><ele>192.0</ele><time>2026-04-11T08:56:31.466Z</time></trkpt><trkpt lat="44.6546844" lon="7.9792735"><ele>192.0</ele><time>2026-04-11T08:56:32.466Z</time></trkpt><trkpt lat="44.6546981" lon="7.9793782"><ele>192.0</ele><time>2026-04-11T08:56:33.466Z</time></trkpt><trkpt lat="44.6547059" lon="7.9794763"><ele>192.0</ele><time>2026-04-11T08:56:34.466Z</time></trkpt><trkpt lat="44.654713" lon="7.9795716"><ele>192.0</ele><time>2026-04-11T08:56:35.466Z</time></trkpt><trkpt lat="44.6547199" lon="7.9797373"><ele>192.0</ele><time>2026-04-11T08:56:37.466Z</time></trkpt><trkpt lat="44.6547012" lon="7.9798402"><ele>192.0</ele><time>2026-04-11T08:56:39.466Z</time></trkpt><trkpt lat="44.6545986" lon="7.9798332"><ele>192.0</ele><time>2026-04-11T08:56:46.466Z</time></trkpt><trkpt lat="44.6545173" lon="7.9798113"><ele>192.0</ele><time>2026-04-11T08:56:48.466Z</time></trkpt><trkpt lat="44.654434" lon="7.9797613"><ele>192.0</ele><time>2026-04-11T08:56:50.466Z</time></trkpt><trkpt lat="44.6543224" lon="7.9797016"><ele>192.0</ele><time>2026-04-11T08:56:52.466Z</time></trkpt><trkpt lat="44.6542105" lon="7.9796534"><ele>192.0</ele><time>2026-04-11T08:56:54.466Z</time></trkpt><trkpt lat="44.6540878" lon="7.9795874"><ele>192.33333333333334</ele><time>2026-04-11T08:56:56.466Z</time></trkpt><trkpt lat="44.6540262" lon="7.9795519"><ele>192.66666666666669</ele><time>2026-04-11T08:56:57.466Z</time></trkpt><trkpt lat="44.653909" lon="7.979481"><ele>193.0</ele><time>2026-04-11T08:56:59.466Z</time></trkpt><trkpt lat="44.6538493" lon="7.9794425"><ele>193.33333333333334</ele><time>2026-04-11T08:57:00.466Z</time></trkpt><trkpt lat="44.6537738" lon="7.9794111"><ele>193.66666666666669</ele><time>2026-04-11T08:57:01.466Z</time></trkpt><trkpt lat="44.6536952" lon="7.9793825"><ele>194.0</ele><time>2026-04-11T08:57:02.466Z</time></trkpt><trkpt lat="44.653619" lon="7.9793528"><ele>194.0</ele><time>2026-04-11T08:57:03.466Z</time></trkpt><trkpt lat="44.6535507" lon="7.9793283"><ele>194.0</ele><time>2026-04-11T08:57:04.466Z</time></trkpt><trkpt lat="44.6534869" lon="7.9792956"><ele>194.0</ele><time>2026-04-11T08:57:05.466Z</time></trkpt><trkpt lat="44.6534233" lon="7.9792598"><ele>194.0</ele><time>2026-04-11T08:57:06.466Z</time></trkpt><trkpt lat="44.6533546" lon="7.9792354"><ele>194.0</ele><time>2026-04-11T08:57:07.467Z</time></trkpt><trkpt lat="44.6532883" lon="7.9792112"><ele>194.0</ele><time>2026-04-11T08:57:08.466Z</time></trkpt><trkpt lat="44.6532268" lon="7.9791807"><ele>194.0</ele><time>2026-04-11T08:57:09.466Z</time></trkpt><trkpt lat="44.6531621" lon="7.9791489"><ele>194.0</ele><time>2026-04-11T08:57:10.466Z</time></trkpt><trkpt lat="44.653091" lon="7.9791204"><ele>194.0</ele><time>2026-04-11T08:57:11.466Z</time></trkpt><trkpt lat="44.6530167" lon="7.9790887"><ele>194.0</ele><time>2026-04-11T08:57:12.466Z</time></trkpt><trkpt lat="44.6529507" lon="7.9790597"><ele>194.0</ele><time>2026-04-11T08:57:13.466Z</time></trkpt><trkpt lat="44.6528875" lon="7.9790292"><ele>194.0</ele><time>2026-04-11T08:57:14.466Z</time></trkpt><trkpt lat="44.6528175" lon="7.9790046"><ele>194.0</ele><time>2026-04-11T08:57:15.466Z</time></trkpt><trkpt lat="44.6527497" lon="7.9789765"><ele>194.0</ele><time>2026-04-11T08:57:16.466Z</time></trkpt><trkpt lat="44.652685" lon="7.9789516"><ele>194.33333333333334</ele><time>2026-04-11T08:57:17.466Z</time></trkpt><trkpt lat="44.6526161" lon="7.9789267"><ele>194.66666666666669</ele><time>2026-04-11T08:57:18.466Z</time></trkpt><trkpt lat="44.6525519" lon="7.9788967"><ele>195.0</ele><time>2026-04-11T08:57:19.466Z</time></trkpt><trkpt lat="44.6524329" lon="7.9788433"><ele>195.33333333333331</ele><time>2026-04-11T08:57:21.466Z</time></trkpt><trkpt lat="44.6523684" lon="7.9788295"><ele>195.66666666666666</ele><time>2026-04-11T08:57:22.466Z</time></trkpt><trkpt lat="44.6523046" lon="7.9788095"><ele>196.0</ele><time>2026-04-11T08:57:23.466Z</time></trkpt><trkpt lat="44.6522365" lon="7.9787854"><ele>196.0</ele><time>2026-04-11T08:57:24.466Z</time></trkpt><trkpt lat="44.652159" lon="7.9787796"><ele>196.0</ele><time>2026-04-11T08:57:25.466Z</time></trkpt><trkpt lat="44.6520782" lon="7.9787746"><ele>196.0</ele><time>2026-04-11T08:57:26.466Z</time></trkpt><trkpt lat="44.6520027" lon="7.9787922"><ele>196.0</ele><time>2026-04-11T08:57:27.466Z</time></trkpt><trkpt lat="44.6518812" lon="7.9788344"><ele>196.0</ele><time>2026-04-11T08:57:29.466Z</time></trkpt><trkpt lat="44.6517682" lon="7.9789232"><ele>195.85714285714286</ele><time>2026-04-11T08:57:31.466Z</time></trkpt><trkpt lat="44.6517067" lon="7.9789661"><ele>195.71428571428572</ele><time>2026-04-11T08:57:32.466Z</time></trkpt><trkpt lat="44.6516479" lon="7.979018"><ele>195.57142857142856</ele><time>2026-04-11T08:57:33.466Z</time></trkpt><trkpt lat="44.6515909" lon="7.9790749"><ele>195.42857142857144</ele><time>2026-04-11T08:57:34.466Z</time></trkpt><trkpt lat="44.6515342" lon="7.9791292"><ele>195.28571428571428</ele><time>2026-04-11T08:57:35.466Z</time></trkpt><trkpt lat="44.6514656" lon="7.9791752"><ele>195.14285714285714</ele><time>2026-04-11T08:57:36.466Z</time></trkpt><trkpt lat="44.6514064" lon="7.979214"><ele>195.0</ele><time>2026-04-11T08:57:37.466Z</time></trkpt><trkpt lat="44.6513401" lon="7.979235"><ele>195.0</ele><time>2026-04-11T08:57:38.466Z</time></trkpt><trkpt lat="44.6512147" lon="7.9792876"><ele>195.0</ele><time>2026-04-11T08:57:40.466Z</time></trkpt><trkpt lat="44.6511486" lon="7.9793092"><ele>195.0</ele><time>2026-04-11T08:57:41.466Z</time></trkpt><trkpt lat="44.6510861" lon="7.979332"><ele>195.0</ele><time>2026-04-11T08:57:42.466Z</time></trkpt><trkpt lat="44.6509633" lon="7.9793639"><ele>195.0</ele><time>2026-04-11T08:57:44.466Z</time></trkpt><trkpt lat="44.650846" lon="7.9793721"><ele>195.4</ele><time>2026-04-11T08:57:46.466Z</time></trkpt><trkpt lat="44.6507384" lon="7.9793858"><ele>195.8</ele><time>2026-04-11T08:57:48.466Z</time></trkpt><trkpt lat="44.650674" lon="7.9793858"><ele>196.2</ele><time>2026-04-11T08:57:49.466Z</time></trkpt><trkpt lat="44.6505633" lon="7.9793576"><ele>196.6</ele><time>2026-04-11T08:57:51.466Z</time></trkpt><trkpt lat="44.6504318" lon="7.9793568"><ele>197.0</ele><time>2026-04-11T08:57:53.466Z</time></trkpt><trkpt lat="44.6503137" lon="7.979337"><ele>197.0</ele><time>2026-04-11T08:57:55.466Z</time></trkpt><trkpt lat="44.650202" lon="7.9793247"><ele>197.0</ele><time>2026-04-11T08:57:57.466Z</time></trkpt><trkpt lat="44.6500975" lon="7.9793156"><ele>197.0</ele><time>2026-04-11T08:57:59.466Z</time></trkpt><trkpt lat="44.6499872" lon="7.9793097"><ele>197.0</ele><time>2026-04-11T08:58:01.466Z</time></trkpt><trkpt lat="44.6498727" lon="7.9793067"><ele>197.0</ele><time>2026-04-11T08:58:03.466Z</time></trkpt><trkpt lat="44.6497378" lon="7.9792963"><ele>197.0</ele><time>2026-04-11T08:58:05.466Z</time></trkpt><trkpt lat="44.6496665" lon="7.9793056"><ele>197.0</ele><time>2026-04-11T08:58:06.466Z</time></trkpt><trkpt lat="44.6495658" lon="7.9793009"><ele>197.0</ele><time>2026-04-11T08:58:08.466Z</time></trkpt><trkpt lat="44.6494499" lon="7.9792944"><ele>197.0</ele><time>2026-04-11T08:58:10.466Z</time></trkpt><trkpt lat="44.6493564" lon="7.9792871"><ele>197.0</ele><time>2026-04-11T08:58:12.466Z</time></trkpt><trkpt lat="44.6492361" lon="7.9792824"><ele>197.0</ele><time>2026-04-11T08:58:14.466Z</time></trkpt><trkpt lat="44.6491184" lon="7.9792657"><ele>197.0</ele><time>2026-04-11T08:58:16.467Z</time></trkpt><trkpt lat="44.6490026" lon="7.9792362"><ele>197.0</ele><time>2026-04-11T08:58:18.466Z</time></trkpt><trkpt lat="44.6488937" lon="7.9791862"><ele>197.0</ele><time>2026-04-11T08:58:20.466Z</time></trkpt><trkpt lat="44.6487783" lon="7.979136"><ele>197.00000000000003</ele><time>2026-04-11T08:58:22.467Z</time></trkpt><trkpt lat="44.6486667" lon="7.9790982"><ele>197.0</ele><time>2026-04-11T08:58:24.466Z</time></trkpt><trkpt lat="44.648603" lon="7.9790711"><ele>197.0</ele><time>2026-04-11T08:58:25.466Z</time></trkpt><trkpt lat="44.6485408" lon="7.9790403"><ele>197.0</ele><time>2026-04-11T08:58:26.466Z</time></trkpt><trkpt lat="44.6484791" lon="7.9790161"><ele>197.00000000000003</ele><time>2026-04-11T08:58:27.466Z</time></trkpt><trkpt lat="44.6483602" lon="7.9789643"><ele>197.0</ele><time>2026-04-11T08:58:29.473Z</time></trkpt><trkpt lat="44.6482402" lon="7.9789076"><ele>197.2</ele><time>2026-04-11T08:58:31.473Z</time></trkpt><trkpt lat="44.64812" lon="7.9788536"><ele>197.39999999999998</ele><time>2026-04-11T08:58:33.473Z</time></trkpt><trkpt lat="44.6480155" lon="7.9788078"><ele>197.60000000000002</ele><time>2026-04-11T08:58:35.473Z</time></trkpt><trkpt lat="44.6479188" lon="7.9787584"><ele>197.8</ele><time>2026-04-11T08:58:37.473Z</time></trkpt><trkpt lat="44.6478572" lon="7.9787342"><ele>198.0</ele><time>2026-04-11T08:58:38.473Z</time></trkpt><trkpt lat="44.6477373" lon="7.9786901"><ele>199.25</ele><time>2026-04-11T08:58:40.473Z</time></trkpt><trkpt lat="44.6476239" lon="7.9786459"><ele>200.5</ele><time>2026-04-11T08:58:42.473Z</time></trkpt><trkpt lat="44.6475139" lon="7.9785976"><ele>201.75</ele><time>2026-04-11T08:58:44.473Z</time></trkpt><trkpt lat="44.6474085" lon="7.978545"><ele>203.0</ele><time>2026-04-11T08:58:46.473Z</time></trkpt><trkpt lat="44.647309" lon="7.9784833"><ele>203.0</ele><time>2026-04-11T08:58:48.473Z</time></trkpt><trkpt lat="44.6472031" lon="7.9784242"><ele>203.0</ele><time>2026-04-11T08:58:50.473Z</time></trkpt><trkpt lat="44.6470981" lon="7.9783727"><ele>203.0</ele><time>2026-04-11T08:58:52.473Z</time></trkpt><trkpt lat="44.6470093" lon="7.9782859"><ele>203.0</ele><time>2026-04-11T08:58:54.473Z</time></trkpt><trkpt lat="44.6469654" lon="7.9781275"><ele>202.25</ele><time>2026-04-11T08:58:56.473Z</time></trkpt><trkpt lat="44.6469158" lon="7.9779826"><ele>201.5</ele><time>2026-04-11T08:58:58.473Z</time></trkpt><trkpt lat="44.646824" lon="7.9778835"><ele>200.75</ele><time>2026-04-11T08:59:00.473Z</time></trkpt><trkpt lat="44.6467124" lon="7.9778587"><ele>200.0</ele><time>2026-04-11T08:59:02.473Z</time></trkpt><trkpt lat="44.6466152" lon="7.9779617"><ele>200.0</ele><time>2026-04-11T08:59:04.473Z</time></trkpt><trkpt lat="44.6465462" lon="7.9780891"><ele>200.0</ele><time>2026-04-11T08:59:06.473Z</time></trkpt><trkpt lat="44.6464578" lon="7.9782026"><ele>200.0</ele><time>2026-04-11T08:59:08.473Z</time></trkpt><trkpt lat="44.6463983" lon="7.9782393"><ele>200.0</ele><time>2026-04-11T08:59:09.473Z</time></trkpt><trkpt lat="44.646344" lon="7.9782885"><ele>200.0</ele><time>2026-04-11T08:59:10.474Z</time></trkpt><trkpt lat="44.6462455" lon="7.9783334"><ele>201.8</ele><time>2026-04-11T08:59:12.473Z</time></trkpt><trkpt lat="44.6461407" lon="7.9783787"><ele>203.6</ele><time>2026-04-11T08:59:14.473Z</time></trkpt><trkpt lat="44.6460374" lon="7.9784376"><ele>205.39999999999998</ele><time>2026-04-11T08:59:16.473Z</time></trkpt><trkpt lat="44.6459342" lon="7.9784864"><ele>207.2</ele><time>2026-04-11T08:59:18.473Z</time></trkpt><trkpt lat="44.6458317" lon="7.9785413"><ele>209.0</ele><time>2026-04-11T08:59:20.473Z</time></trkpt><trkpt lat="44.6457294" lon="7.9785998"><ele>209.0</ele><time>2026-04-11T08:59:22.473Z</time></trkpt><trkpt lat="44.6456262" lon="7.9786474"><ele>209.0</ele><time>2026-04-11T08:59:24.473Z</time></trkpt><trkpt lat="44.6455217" lon="7.9786969"><ele>209.0</ele><time>2026-04-11T08:59:26.474Z</time></trkpt><trkpt lat="44.645415" lon="7.9787495"><ele>209.0</ele><time>2026-04-11T08:59:28.473Z</time></trkpt><trkpt lat="44.6453097" lon="7.9788018"><ele>209.0</ele><time>2026-04-11T08:59:30.473Z</time></trkpt><trkpt lat="44.6452149" lon="7.9788598"><ele>208.2</ele><time>2026-04-11T08:59:32.473Z</time></trkpt><trkpt lat="44.6451163" lon="7.9789105"><ele>207.39999999999998</ele><time>2026-04-11T08:59:34.473Z</time></trkpt><trkpt lat="44.6450212" lon="7.9789622"><ele>206.6</ele><time>2026-04-11T08:59:36.473Z</time></trkpt><trkpt lat="44.6449334" lon="7.9789889"><ele>205.8</ele><time>2026-04-11T08:59:38.473Z</time></trkpt><trkpt lat="44.6448088" lon="7.9790527"><ele>205.0</ele><time>2026-04-11T08:59:40.473Z</time></trkpt><trkpt lat="44.6447424" lon="7.9790531"><ele>204.99999999999997</ele><time>2026-04-11T08:59:41.473Z</time></trkpt><trkpt lat="44.6446278" lon="7.9791067"><ele>205.0</ele><time>2026-04-11T08:59:43.473Z</time></trkpt><trkpt lat="44.6445203" lon="7.9791671"><ele>205.0</ele><time>2026-04-11T08:59:45.473Z</time></trkpt><trkpt lat="44.6444619" lon="7.9792009"><ele>205.0</ele><time>2026-04-11T08:59:46.473Z</time></trkpt><trkpt lat="44.6444001" lon="7.9792415"><ele>204.99999999999997</ele><time>2026-04-11T08:59:47.473Z</time></trkpt><trkpt lat="44.6443393" lon="7.9792832"><ele>205.0</ele><time>2026-04-11T08:59:48.473Z</time></trkpt><trkpt lat="44.6442822" lon="7.9793463"><ele>206.0</ele><time>2026-04-11T08:59:49.473Z</time></trkpt><trkpt lat="44.6442269" lon="7.9794247"><ele>207.0</ele><time>2026-04-11T08:59:50.473Z</time></trkpt><trkpt lat="44.6441741" lon="7.9794852"><ele>208.0</ele><time>2026-04-11T08:59:51.473Z</time></trkpt><trkpt lat="44.6441135" lon="7.9795482"><ele>209.0</ele><time>2026-04-11T08:59:52.473Z</time></trkpt><trkpt lat="44.6440568" lon="7.9796012"><ele>210.0</ele><time>2026-04-11T08:59:53.474Z</time></trkpt><trkpt lat="44.6439994" lon="7.9796569"><ele>211.0</ele><time>2026-04-11T08:59:54.473Z</time></trkpt><trkpt lat="44.6439433" lon="7.979716"><ele>212.0</ele><time>2026-04-11T08:59:55.473Z</time></trkpt><trkpt lat="44.6438909" lon="7.9797839"><ele>212.0</ele><time>2026-04-11T08:59:56.473Z</time></trkpt><trkpt lat="44.6438385" lon="7.9798493"><ele>212.0</ele><time>2026-04-11T08:59:57.474Z</time></trkpt><trkpt lat="44.6437865" lon="7.9799172"><ele>212.0</ele><time>2026-04-11T08:59:58.473Z</time></trkpt><trkpt lat="44.643731" lon="7.9799757"><ele>212.0</ele><time>2026-04-11T08:59:59.473Z</time></trkpt><trkpt lat="44.643674" lon="7.9800418"><ele>212.0</ele><time>2026-04-11T09:00:00.473Z</time></trkpt><trkpt lat="44.6436175" lon="7.9801064"><ele>212.0</ele><time>2026-04-11T09:00:01.473Z</time></trkpt><trkpt lat="44.6435615" lon="7.9801705"><ele>212.0</ele><time>2026-04-11T09:00:02.473Z</time></trkpt><trkpt lat="44.6435083" lon="7.9802326"><ele>211.57142857142858</ele><time>2026-04-11T09:00:03.473Z</time></trkpt><trkpt lat="44.6434608" lon="7.9803088"><ele>211.14285714285714</ele><time>2026-04-11T09:00:04.473Z</time></trkpt><trkpt lat="44.643407" lon="7.9803772"><ele>210.71428571428572</ele><time>2026-04-11T09:00:05.473Z</time></trkpt><trkpt lat="44.6433521" lon="7.9804394"><ele>210.28571428571428</ele><time>2026-04-11T09:00:06.473Z</time></trkpt><trkpt lat="44.6432999" lon="7.9804983"><ele>209.85714285714283</ele><time>2026-04-11T09:00:07.473Z</time></trkpt><trkpt lat="44.6432445" lon="7.9805593"><ele>209.42857142857142</ele><time>2026-04-11T09:00:08.473Z</time></trkpt><trkpt lat="44.643196" lon="7.9806228"><ele>209.0</ele><time>2026-04-11T09:00:09.473Z</time></trkpt><trkpt lat="44.6431432" lon="7.9806949"><ele>209.00000000000003</ele><time>2026-04-11T09:00:10.473Z</time></trkpt><trkpt lat="44.6430899" lon="7.9807583"><ele>209.0</ele><time>2026-04-11T09:00:11.473Z</time></trkpt><trkpt lat="44.6429616" lon="7.9808264"><ele>209.0</ele><time>2026-04-11T09:00:13.473Z</time></trkpt><trkpt lat="44.6428899" lon="7.9808657"><ele>209.0</ele><time>2026-04-11T09:00:14.473Z</time></trkpt><trkpt lat="44.6428266" lon="7.980909"><ele>209.00000000000003</ele><time>2026-04-11T09:00:15.473Z</time></trkpt><trkpt lat="44.6427662" lon="7.9809568"><ele>209.0</ele><time>2026-04-11T09:00:16.473Z</time></trkpt><trkpt lat="44.6426602" lon="7.9810231"><ele>209.0</ele><time>2026-04-11T09:00:18.473Z</time></trkpt><trkpt lat="44.6426005" lon="7.9810601"><ele>209.0</ele><time>2026-04-11T09:00:19.473Z</time></trkpt><trkpt lat="44.6425406" lon="7.9811087"><ele>209.0</ele><time>2026-04-11T09:00:20.473Z</time></trkpt><trkpt lat="44.6424835" lon="7.9811551"><ele>209.0</ele><time>2026-04-11T09:00:21.473Z</time></trkpt><trkpt lat="44.6424267" lon="7.9812042"><ele>209.0</ele><time>2026-04-11T09:00:22.473Z</time></trkpt><trkpt lat="44.6423747" lon="7.9812578"><ele>209.0</ele><time>2026-04-11T09:00:23.473Z</time></trkpt><trkpt lat="44.6423239" lon="7.9813188"><ele>209.0</ele><time>2026-04-11T09:00:24.473Z</time></trkpt><trkpt lat="44.6422737" lon="7.9813925"><ele>209.0</ele><time>2026-04-11T09:00:25.473Z</time></trkpt><trkpt lat="44.6422203" lon="7.9814473"><ele>209.0</ele><time>2026-04-11T09:00:26.473Z</time></trkpt><trkpt lat="44.6421683" lon="7.9815048"><ele>209.0</ele><time>2026-04-11T09:00:27.473Z</time></trkpt><trkpt lat="44.6421125" lon="7.9815719"><ele>209.0</ele><time>2026-04-11T09:00:28.473Z</time></trkpt><trkpt lat="44.6420555" lon="7.9816337"><ele>209.0</ele><time>2026-04-11T09:00:29.473Z</time></trkpt><trkpt lat="44.6419973" lon="7.981688"><ele>209.0</ele><time>2026-04-11T09:00:30.473Z</time></trkpt><trkpt lat="44.6419338" lon="7.9817649"><ele>209.0</ele><time>2026-04-11T09:00:31.473Z</time></trkpt><trkpt lat="44.6418679" lon="7.9818438"><ele>209.00000000000003</ele><time>2026-04-11T09:00:32.473Z</time></trkpt><trkpt lat="44.6418057" lon="7.9818957"><ele>209.0</ele><time>2026-04-11T09:00:33.473Z</time></trkpt><trkpt lat="44.6417475" lon="7.9819302"><ele>209.0</ele><time>2026-04-11T09:00:34.473Z</time></trkpt><trkpt lat="44.6416342" lon="7.9819802"><ele>209.0</ele><time>2026-04-11T09:00:36.473Z</time></trkpt><trkpt lat="44.6415716" lon="7.9819971"><ele>209.00000000000003</ele><time>2026-04-11T09:00:37.474Z</time></trkpt><trkpt lat="44.6415065" lon="7.9820184"><ele>209.0</ele><time>2026-04-11T09:00:38.473Z</time></trkpt><trkpt lat="44.6414421" lon="7.9820434"><ele>209.0</ele><time>2026-04-11T09:00:39.473Z</time></trkpt><trkpt lat="44.6413165" lon="7.9821174"><ele>209.0</ele><time>2026-04-11T09:00:41.474Z</time></trkpt><trkpt lat="44.641246" lon="7.9821566"><ele>209.0</ele><time>2026-04-11T09:00:42.474Z</time></trkpt><trkpt lat="44.6411684" lon="7.9821795"><ele>209.0</ele><time>2026-04-11T09:00:43.474Z</time></trkpt><trkpt lat="44.6411029" lon="7.9821919"><ele>209.0</ele><time>2026-04-11T09:00:44.474Z</time></trkpt><trkpt lat="44.6409763" lon="7.9822254"><ele>208.79999999999998</ele><time>2026-04-11T09:00:46.474Z</time></trkpt><trkpt lat="44.6409007" lon="7.9822517"><ele>208.6</ele><time>2026-04-11T09:00:47.474Z</time></trkpt><trkpt lat="44.6407935" lon="7.9822638"><ele>208.4</ele><time>2026-04-11T09:00:49.474Z</time></trkpt><trkpt lat="44.6406729" lon="7.9823099"><ele>208.2</ele><time>2026-04-11T09:00:51.474Z</time></trkpt><trkpt lat="44.6406023" lon="7.9823484"><ele>208.0</ele><time>2026-04-11T09:00:52.474Z</time></trkpt><trkpt lat="44.6405345" lon="7.9823839"><ele>208.0</ele><time>2026-04-11T09:00:53.475Z</time></trkpt><trkpt lat="44.6404189" lon="7.9824202"><ele>208.0</ele><time>2026-04-11T09:00:55.474Z</time></trkpt><trkpt lat="44.6403003" lon="7.9824565"><ele>208.0</ele><time>2026-04-11T09:00:57.474Z</time></trkpt><trkpt lat="44.6401893" lon="7.9824968"><ele>208.0</ele><time>2026-04-11T09:00:59.474Z</time></trkpt><trkpt lat="44.6401283" lon="7.9825191"><ele>208.0</ele><time>2026-04-11T09:01:00.475Z</time></trkpt><trkpt lat="44.6400028" lon="7.9825621"><ele>210.0</ele><time>2026-04-11T09:01:02.474Z</time></trkpt><trkpt lat="44.6399257" lon="7.9826015"><ele>212.0</ele><time>2026-04-11T09:01:03.474Z</time></trkpt><trkpt lat="44.6398597" lon="7.9826233"><ele>214.0</ele><time>2026-04-11T09:01:04.474Z</time></trkpt><trkpt lat="44.6397465" lon="7.9826352"><ele>216.0</ele><time>2026-04-11T09:01:06.474Z</time></trkpt><trkpt lat="44.6396247" lon="7.9826593"><ele>218.0</ele><time>2026-04-11T09:01:08.474Z</time></trkpt><trkpt lat="44.6395047" lon="7.9826854"><ele>217.5</ele><time>2026-04-11T09:01:10.474Z</time></trkpt><trkpt lat="44.6393906" lon="7.982688"><ele>217.0</ele><time>2026-04-11T09:01:12.474Z</time></trkpt><trkpt lat="44.6392721" lon="7.9826736"><ele>216.5</ele><time>2026-04-11T09:01:14.474Z</time></trkpt><trkpt lat="44.639152" lon="7.9827153"><ele>216.0</ele><time>2026-04-11T09:01:16.474Z</time></trkpt><trkpt lat="44.639043" lon="7.9827155"><ele>216.0</ele><time>2026-04-11T09:01:18.474Z</time></trkpt><trkpt lat="44.6389329" lon="7.9827257"><ele>216.00000000000003</ele><time>2026-04-11T09:01:20.474Z</time></trkpt><trkpt lat="44.6388341" lon="7.9827217"><ele>216.00000000000003</ele><time>2026-04-11T09:01:22.474Z</time></trkpt><trkpt lat="44.6387216" lon="7.9827336"><ele>216.0</ele><time>2026-04-11T09:01:24.474Z</time></trkpt><trkpt lat="44.6386031" lon="7.9827923"><ele>216.0</ele><time>2026-04-11T09:01:26.474Z</time></trkpt><trkpt lat="44.6385387" lon="7.9828315"><ele>215.57142857142856</ele><time>2026-04-11T09:01:27.474Z</time></trkpt><trkpt lat="44.6384781" lon="7.9828634"><ele>215.14285714285714</ele><time>2026-04-11T09:01:28.474Z</time></trkpt><trkpt lat="44.6384158" lon="7.9829015"><ele>214.71428571428572</ele><time>2026-04-11T09:01:29.474Z</time></trkpt><trkpt lat="44.6383596" lon="7.9829537"><ele>214.28571428571428</ele><time>2026-04-11T09:01:30.474Z</time></trkpt><trkpt lat="44.6382921" lon="7.9830037"><ele>213.85714285714286</ele><time>2026-04-11T09:01:31.474Z</time></trkpt><trkpt lat="44.638235" lon="7.9830517"><ele>213.42857142857142</ele><time>2026-04-11T09:01:32.474Z</time></trkpt><trkpt lat="44.638172" lon="7.9830915"><ele>213.0</ele><time>2026-04-11T09:01:33.474Z</time></trkpt><trkpt lat="44.6381135" lon="7.9831397"><ele>213.0</ele><time>2026-04-11T09:01:34.474Z</time></trkpt><trkpt lat="44.638049" lon="7.9831943"><ele>213.0</ele><time>2026-04-11T09:01:35.474Z</time></trkpt><trkpt lat="44.6379849" lon="7.9832388"><ele>213.0</ele><time>2026-04-11T09:01:36.474Z</time></trkpt><trkpt lat="44.6379178" lon="7.9832868"><ele>213.0</ele><time>2026-04-11T09:01:37.474Z</time></trkpt><trkpt lat="44.6378499" lon="7.9833365"><ele>213.0</ele><time>2026-04-11T09:01:38.474Z</time></trkpt><trkpt lat="44.6377817" lon="7.9833882"><ele>213.0</ele><time>2026-04-11T09:01:39.474Z</time></trkpt><trkpt lat="44.6377103" lon="7.9834458"><ele>212.66666666666666</ele><time>2026-04-11T09:01:40.474Z</time></trkpt><trkpt lat="44.6376331" lon="7.9834943"><ele>212.33333333333331</ele><time>2026-04-11T09:01:41.474Z</time></trkpt><trkpt lat="44.6375681" lon="7.9835479"><ele>212.0</ele><time>2026-04-11T09:01:42.474Z</time></trkpt><trkpt lat="44.6375016" lon="7.9836071"><ele>211.66666666666666</ele><time>2026-04-11T09:01:43.474Z</time></trkpt><trkpt lat="44.6374281" lon="7.983652"><ele>211.33333333333331</ele><time>2026-04-11T09:01:44.474Z</time></trkpt><trkpt lat="44.6373566" lon="7.983695"><ele>211.0</ele><time>2026-04-11T09:01:45.474Z</time></trkpt><trkpt lat="44.6372909" lon="7.9837311"><ele>211.0</ele><time>2026-04-11T09:01:46.474Z</time></trkpt><trkpt lat="44.6372222" lon="7.9837781"><ele>211.0</ele><time>2026-04-11T09:01:47.474Z</time></trkpt><trkpt lat="44.6371539" lon="7.9838252"><ele>211.0</ele><time>2026-04-11T09:01:48.474Z</time></trkpt><trkpt lat="44.6370959" lon="7.9838651"><ele>211.0</ele><time>2026-04-11T09:01:49.474Z</time></trkpt><trkpt lat="44.6370278" lon="7.9838987"><ele>211.0</ele><time>2026-04-11T09:01:50.474Z</time></trkpt><trkpt lat="44.6369633" lon="7.9839255"><ele>211.0</ele><time>2026-04-11T09:01:51.474Z</time></trkpt><trkpt lat="44.636899" lon="7.9839571"><ele>211.0</ele><time>2026-04-11T09:01:52.474Z</time></trkpt><trkpt lat="44.6368347" lon="7.983992"><ele>211.16666666666666</ele><time>2026-04-11T09:01:53.474Z</time></trkpt><trkpt lat="44.6367647" lon="7.9840274"><ele>211.33333333333331</ele><time>2026-04-11T09:01:54.474Z</time></trkpt><trkpt lat="44.636693" lon="7.9840623"><ele>211.5</ele><time>2026-04-11T09:01:55.474Z</time></trkpt><trkpt lat="44.6365811" lon="7.9841208"><ele>211.66666666666669</ele><time>2026-04-11T09:01:57.474Z</time></trkpt><trkpt lat="44.6364855" lon="7.9841975"><ele>211.83333333333334</ele><time>2026-04-11T09:01:59.474Z</time></trkpt><trkpt lat="44.6364228" lon="7.9842388"><ele>212.0</ele><time>2026-04-11T09:02:01.474Z</time></trkpt><trkpt lat="44.6362597" lon="7.984328"><ele>212.6</ele><time>2026-04-11T09:02:19.474Z</time></trkpt><trkpt lat="44.6361567" lon="7.9843869"><ele>213.2</ele><time>2026-04-11T09:02:21.474Z</time></trkpt><trkpt lat="44.6360563" lon="7.9844387"><ele>213.8</ele><time>2026-04-11T09:02:23.474Z</time></trkpt><trkpt lat="44.6359695" lon="7.9844653"><ele>214.4</ele><time>2026-04-11T09:02:25.474Z</time></trkpt><trkpt lat="44.6358431" lon="7.9844844"><ele>215.0</ele><time>2026-04-11T09:02:27.474Z</time></trkpt><trkpt lat="44.6357319" lon="7.9845025"><ele>215.00000000000003</ele><time>2026-04-11T09:02:29.474Z</time></trkpt><trkpt lat="44.6356655" lon="7.9845103"><ele>215.0</ele><time>2026-04-11T09:02:30.474Z</time></trkpt><trkpt lat="44.6356017" lon="7.984524"><ele>215.0</ele><time>2026-04-11T09:02:31.474Z</time></trkpt><trkpt lat="44.6354814" lon="7.9845258"><ele>215.0</ele><time>2026-04-11T09:02:33.474Z</time></trkpt><trkpt lat="44.6353675" lon="7.9845506"><ele>215.00000000000003</ele><time>2026-04-11T09:02:35.474Z</time></trkpt><trkpt lat="44.6353041" lon="7.9845647"><ele>215.0</ele><time>2026-04-11T09:02:36.474Z</time></trkpt><trkpt lat="44.6351895" lon="7.9845756"><ele>215.4</ele><time>2026-04-11T09:02:38.474Z</time></trkpt><trkpt lat="44.6351233" lon="7.9845902"><ele>215.8</ele><time>2026-04-11T09:02:39.474Z</time></trkpt><trkpt lat="44.6350569" lon="7.9846088"><ele>216.2</ele><time>2026-04-11T09:02:40.474Z</time></trkpt><trkpt lat="44.6349374" lon="7.9846231"><ele>216.6</ele><time>2026-04-11T09:02:42.474Z</time></trkpt><trkpt lat="44.6348284" lon="7.984656"><ele>217.0</ele><time>2026-04-11T09:02:44.474Z</time></trkpt><trkpt lat="44.6347197" lon="7.9846737"><ele>217.0</ele><time>2026-04-11T09:02:46.474Z</time></trkpt><trkpt lat="44.6346196" lon="7.9846796"><ele>217.0</ele><time>2026-04-11T09:02:48.474Z</time></trkpt><trkpt lat="44.6345155" lon="7.9846984"><ele>217.0</ele><time>2026-04-11T09:02:50.474Z</time></trkpt><trkpt lat="44.6344122" lon="7.9847165"><ele>217.0</ele><time>2026-04-11T09:02:52.474Z</time></trkpt><trkpt lat="44.6343137" lon="7.9847318"><ele>217.0</ele><time>2026-04-11T09:02:54.474Z</time></trkpt><trkpt lat="44.6342139" lon="7.9847432"><ele>217.0</ele><time>2026-04-11T09:02:56.474Z</time></trkpt><trkpt lat="44.6341161" lon="7.9847544"><ele>217.0</ele><time>2026-04-11T09:02:58.475Z</time></trkpt><trkpt lat="44.6340192" lon="7.9847709"><ele>217.0</ele><time>2026-04-11T09:03:00.474Z</time></trkpt><trkpt lat="44.6339184" lon="7.9847893"><ele>217.0</ele><time>2026-04-11T09:03:02.474Z</time></trkpt><trkpt lat="44.6338497" lon="7.9847894"><ele>217.0</ele><time>2026-04-11T09:03:05.474Z</time></trkpt><trkpt lat="44.6337483" lon="7.984785"><ele>217.0</ele><time>2026-04-11T09:03:07.474Z</time></trkpt><trkpt lat="44.6336255" lon="7.9848046"><ele>217.0</ele><time>2026-04-11T09:03:09.474Z</time></trkpt><trkpt lat="44.6335619" lon="7.9848187"><ele>217.0</ele><time>2026-04-11T09:03:10.474Z</time></trkpt><trkpt lat="44.633497" lon="7.9848334"><ele>217.0</ele><time>2026-04-11T09:03:11.474Z</time></trkpt><trkpt lat="44.6333897" lon="7.9848802"><ele>217.0</ele><time>2026-04-11T09:03:13.474Z</time></trkpt><trkpt lat="44.6332908" lon="7.9849621"><ele>217.83333333333331</ele><time>2026-04-11T09:03:15.474Z</time></trkpt><trkpt lat="44.6332307" lon="7.9851009"><ele>218.66666666666666</ele><time>2026-04-11T09:03:17.474Z</time></trkpt><trkpt lat="44.6331971" lon="7.985186"><ele>219.5</ele><time>2026-04-11T09:03:19.474Z</time></trkpt><trkpt lat="44.6331644" lon="7.9852743"><ele>220.33333333333331</ele><time>2026-04-11T09:03:21.474Z</time></trkpt><trkpt lat="44.6331323" lon="7.9853553"><ele>221.16666666666666</ele><time>2026-04-11T09:03:23.474Z</time></trkpt><trkpt lat="44.6330982" lon="7.9854531"><ele>222.0</ele><time>2026-04-11T09:03:25.474Z</time></trkpt><trkpt lat="44.6330629" lon="7.9855324"><ele>222.0</ele><time>2026-04-11T09:03:27.474Z</time></trkpt><trkpt lat="44.6330314" lon="7.9856469"><ele>222.0</ele><time>2026-04-11T09:03:30.474Z</time></trkpt><trkpt lat="44.6329883" lon="7.9857509"><ele>222.0</ele><time>2026-04-11T09:03:33.474Z</time></trkpt><trkpt lat="44.6329495" lon="7.9858567"><ele>222.0</ele><time>2026-04-11T09:03:36.474Z</time></trkpt><trkpt lat="44.6329179" lon="7.9859406"><ele>222.0</ele><time>2026-04-11T09:03:38.474Z</time></trkpt><trkpt lat="44.6328713" lon="7.9860306"><ele>222.0</ele><time>2026-04-11T09:03:41.474Z</time></trkpt><trkpt lat="44.6328012" lon="7.986096"><ele>222.57142857142856</ele><time>2026-04-11T09:03:44.474Z</time></trkpt><trkpt lat="44.632735" lon="7.9861007"><ele>223.14285714285717</ele><time>2026-04-11T09:03:46.474Z</time></trkpt><trkpt lat="44.6326703" lon="7.9860844"><ele>223.71428571428572</ele><time>2026-04-11T09:03:50.474Z</time></trkpt><trkpt lat="44.6326062" lon="7.9860747"><ele>224.28571428571428</ele><time>2026-04-11T09:03:54.474Z</time></trkpt><trkpt lat="44.6325504" lon="7.9860023"><ele>224.85714285714283</ele><time>2026-04-11T09:03:57.474Z</time></trkpt><trkpt lat="44.632479" lon="7.9859392"><ele>225.42857142857144</ele><time>2026-04-11T09:04:01.474Z</time></trkpt><trkpt lat="44.6324154" lon="7.9858857"><ele>226.0</ele><time>2026-04-11T09:04:04.474Z</time></trkpt><trkpt lat="44.6323419" lon="7.9858438"><ele>226.0</ele><time>2026-04-11T09:04:07.474Z</time></trkpt><trkpt lat="44.6322934" lon="7.9857669"><ele>226.0</ele><time>2026-04-11T09:04:10.474Z</time></trkpt><trkpt lat="44.6322278" lon="7.9857036"><ele>226.0</ele><time>2026-04-11T09:04:13.474Z</time></trkpt><trkpt lat="44.6321685" lon="7.9856578"><ele>226.0</ele><time>2026-04-11T09:04:16.474Z</time></trkpt><trkpt lat="44.632105" lon="7.9856043"><ele>226.0</ele><time>2026-04-11T09:04:19.474Z</time></trkpt><trkpt lat="44.6320408" lon="7.9855679"><ele>226.0</ele><time>2026-04-11T09:04:22.474Z</time></trkpt><trkpt lat="44.6319741" lon="7.9855395"><ele>226.0</ele><time>2026-04-11T09:04:25.474Z</time></trkpt><trkpt lat="44.6318883" lon="7.9855023"><ele>227.71428571428572</ele><time>2026-04-11T09:04:28.474Z</time></trkpt><trkpt lat="44.6318069" lon="7.9854852"><ele>229.42857142857142</ele><time>2026-04-11T09:04:32.474Z</time></trkpt><trkpt lat="44.6317306" lon="7.9854753"><ele>231.14285714285714</ele><time>2026-04-11T09:04:35.474Z</time></trkpt><trkpt lat="44.6316652" lon="7.9855013"><ele>232.85714285714286</ele><time>2026-04-11T09:04:38.474Z</time></trkpt><trkpt lat="44.6315941" lon="7.9855088"><ele>234.57142857142856</ele><time>2026-04-11T09:04:41.474Z</time></trkpt><trkpt lat="44.6315308" lon="7.985542"><ele>236.28571428571428</ele><time>2026-04-11T09:04:44.474Z</time></trkpt><trkpt lat="44.6314601" lon="7.9855897"><ele>238.0</ele><time>2026-04-11T09:04:47.474Z</time></trkpt><trkpt lat="44.6314082" lon="7.9856461"><ele>237.99999999999997</ele><time>2026-04-11T09:04:49.474Z</time></trkpt><trkpt lat="44.6313275" lon="7.9856821"><ele>238.0</ele><time>2026-04-11T09:04:52.474Z</time></trkpt><trkpt lat="44.6312603" lon="7.9857129"><ele>238.0</ele><time>2026-04-11T09:04:55.474Z</time></trkpt><trkpt lat="44.6311867" lon="7.9857617"><ele>238.0</ele><time>2026-04-11T09:04:59.474Z</time></trkpt><trkpt lat="44.6311171" lon="7.9857954"><ele>237.99999999999997</ele><time>2026-04-11T09:05:02.474Z</time></trkpt><trkpt lat="44.631038" lon="7.9858254"><ele>238.0</ele><time>2026-04-11T09:05:05.475Z</time></trkpt><trkpt lat="44.6309628" lon="7.9858687"><ele>241.28571428571428</ele><time>2026-04-11T09:05:08.474Z</time></trkpt><trkpt lat="44.630895" lon="7.9859194"><ele>244.57142857142856</ele><time>2026-04-11T09:05:11.481Z</time></trkpt><trkpt lat="44.6308335" lon="7.9859494"><ele>247.85714285714286</ele><time>2026-04-11T09:05:14.481Z</time></trkpt><trkpt lat="44.6307715" lon="7.9859779"><ele>251.14285714285714</ele><time>2026-04-11T09:05:17.481Z</time></trkpt><trkpt lat="44.6307068" lon="7.9860084"><ele>254.42857142857142</ele><time>2026-04-11T09:05:20.481Z</time></trkpt><trkpt lat="44.6306351" lon="7.9860644"><ele>257.7142857142857</ele><time>2026-04-11T09:05:24.481Z</time></trkpt><trkpt lat="44.6305796" lon="7.9861281"><ele>261.0</ele><time>2026-04-11T09:05:27.481Z</time></trkpt><trkpt lat="44.6305042" lon="7.9861889"><ele>261.0</ele><time>2026-04-11T09:05:30.481Z</time></trkpt><trkpt lat="44.6304681" lon="7.9862817"><ele>261.0</ele><time>2026-04-11T09:05:33.481Z</time></trkpt><trkpt lat="44.6304228" lon="7.9863893"><ele>261.0</ele><time>2026-04-11T09:05:36.481Z</time></trkpt><trkpt lat="44.6303679" lon="7.986481"><ele>261.0</ele><time>2026-04-11T09:05:39.481Z</time></trkpt><trkpt lat="44.6303397" lon="7.9865767"><ele>261.0</ele><time>2026-04-11T09:05:42.481Z</time></trkpt><trkpt lat="44.6303053" lon="7.9866767"><ele>261.0</ele><time>2026-04-11T09:05:45.481Z</time></trkpt><trkpt lat="44.6302655" lon="7.9867694"><ele>259.6666666666667</ele><time>2026-04-11T09:05:48.481Z</time></trkpt><trkpt lat="44.6302282" lon="7.9868694"><ele>258.3333333333333</ele><time>2026-04-11T09:05:51.482Z</time></trkpt><trkpt lat="44.6302147" lon="7.9869791"><ele>257.0</ele><time>2026-04-11T09:05:55.481Z</time></trkpt><trkpt lat="44.6301596" lon="7.9870512"><ele>255.66666666666666</ele><time>2026-04-11T09:05:58.481Z</time></trkpt><trkpt lat="44.6301264" lon="7.9871322"><ele>254.33333333333331</ele><time>2026-04-11T09:06:01.481Z</time></trkpt><trkpt lat="44.6300855" lon="7.9872297"><ele>253.0</ele><time>2026-04-11T09:06:04.481Z</time></trkpt><trkpt lat="44.6300508" lon="7.9873202"><ele>253.00000000000003</ele><time>2026-04-11T09:06:07.481Z</time></trkpt><trkpt lat="44.6300237" lon="7.9874214"><ele>253.0</ele><time>2026-04-11T09:06:11.481Z</time></trkpt><trkpt lat="44.6300221" lon="7.9875178"><ele>253.00000000000003</ele><time>2026-04-11T09:06:15.481Z</time></trkpt><trkpt lat="44.6300755" lon="7.9875818"><ele>253.00000000000003</ele><time>2026-04-11T09:06:18.481Z</time></trkpt><trkpt lat="44.6301449" lon="7.9875896"><ele>253.0</ele><time>2026-04-11T09:06:21.481Z</time></trkpt><trkpt lat="44.6302042" lon="7.9875542"><ele>253.00000000000003</ele><time>2026-04-11T09:06:23.481Z</time></trkpt><trkpt lat="44.6302757" lon="7.9874764"><ele>253.00000000000003</ele><time>2026-04-11T09:06:26.481Z</time></trkpt><trkpt lat="44.6303168" lon="7.9873877"><ele>256.5</ele><time>2026-04-11T09:06:28.481Z</time></trkpt><trkpt lat="44.6303706" lon="7.9872615"><ele>260.0</ele><time>2026-04-11T09:06:31.481Z</time></trkpt><trkpt lat="44.6304102" lon="7.9871873"><ele>263.5</ele><time>2026-04-11T09:06:33.481Z</time></trkpt><trkpt lat="44.6304366" lon="7.9870671"><ele>267.0</ele><time>2026-04-11T09:06:36.481Z</time></trkpt><trkpt lat="44.6304944" lon="7.98698"><ele>270.5</ele><time>2026-04-11T09:06:39.481Z</time></trkpt><trkpt lat="44.6305562" lon="7.9868951"><ele>274.0</ele><time>2026-04-11T09:06:42.481Z</time></trkpt><trkpt lat="44.6306111" lon="7.9868103"><ele>274.00000000000006</ele><time>2026-04-11T09:06:45.481Z</time></trkpt><trkpt lat="44.6306639" lon="7.9867352"><ele>274.0</ele><time>2026-04-11T09:06:48.481Z</time></trkpt><trkpt lat="44.6307309" lon="7.986683"><ele>274.0</ele><time>2026-04-11T09:06:51.481Z</time></trkpt><trkpt lat="44.6307953" lon="7.9866417"><ele>274.0</ele><time>2026-04-11T09:06:54.481Z</time></trkpt><trkpt lat="44.6308572" lon="7.9866254"><ele>274.0</ele><time>2026-04-11T09:06:57.481Z</time></trkpt><trkpt lat="44.6309284" lon="7.9866537"><ele>274.00000000000006</ele><time>2026-04-11T09:07:00.481Z</time></trkpt><trkpt lat="44.6310101" lon="7.9866448"><ele>274.0</ele><time>2026-04-11T09:07:04.481Z</time></trkpt><trkpt lat="44.6310789" lon="7.9866292"><ele>271.42857142857144</ele><time>2026-04-11T09:07:07.481Z</time></trkpt><trkpt lat="44.6311484" lon="7.9866157"><ele>268.8571428571429</ele><time>2026-04-11T09:07:10.481Z</time></trkpt><trkpt lat="44.6312172" lon="7.986594"><ele>266.2857142857143</ele><time>2026-04-11T09:07:13.482Z</time></trkpt><trkpt lat="44.6312911" lon="7.9866374"><ele>263.7142857142857</ele><time>2026-04-11T09:07:17.481Z</time></trkpt><trkpt lat="44.6313705" lon="7.9866704"><ele>261.1428571428571</ele><time>2026-04-11T09:07:20.481Z</time></trkpt><trkpt lat="44.6313318" lon="7.9867539"><ele>258.57142857142856</ele><time>2026-04-11T09:07:29.481Z</time></trkpt><trkpt lat="44.6312613" lon="7.9867682"><ele>256.0</ele><time>2026-04-11T09:07:32.481Z</time></trkpt><trkpt lat="44.6311896" lon="7.9868251"><ele>259.0</ele><time>2026-04-11T09:07:36.481Z</time></trkpt><trkpt lat="44.6311088" lon="7.9868239"><ele>262.0</ele><time>2026-04-11T09:07:39.481Z</time></trkpt><trkpt lat="44.6310369" lon="7.9868362"><ele>265.0</ele><time>2026-04-11T09:07:42.481Z</time></trkpt><trkpt lat="44.630953" lon="7.9868767"><ele>268.0</ele><time>2026-04-11T09:07:45.481Z</time></trkpt><trkpt lat="44.6308715" lon="7.9868942"><ele>271.0</ele><time>2026-04-11T09:07:48.481Z</time></trkpt><trkpt lat="44.6308262" lon="7.9869581"><ele>274.0</ele><time>2026-04-11T09:07:51.481Z</time></trkpt><trkpt lat="44.6307929" lon="7.9870538"><ele>274.0</ele><time>2026-04-11T09:07:54.481Z</time></trkpt><trkpt lat="44.6307495" lon="7.9871487"><ele>274.0</ele><time>2026-04-11T09:07:57.481Z</time></trkpt><trkpt lat="44.630732" lon="7.9872584"><ele>274.0</ele><time>2026-04-11T09:08:00.482Z</time></trkpt><trkpt lat="44.6306901" lon="7.9873677"><ele>274.0</ele><time>2026-04-11T09:08:03.481Z</time></trkpt><trkpt lat="44.6307282" lon="7.9874551"><ele>274.0</ele><time>2026-04-11T09:08:05.481Z</time></trkpt><trkpt lat="44.6307411" lon="7.9875654"><ele>274.0</ele><time>2026-04-11T09:08:08.481Z</time></trkpt><trkpt lat="44.6307409" lon="7.9876738"><ele>274.3333333333333</ele><time>2026-04-11T09:08:11.481Z</time></trkpt><trkpt lat="44.6307209" lon="7.9877874"><ele>274.66666666666663</ele><time>2026-04-11T09:08:14.481Z</time></trkpt><trkpt lat="44.6307029" lon="7.9878878"><ele>275.0</ele><time>2026-04-11T09:08:17.481Z</time></trkpt><trkpt lat="44.6306871" lon="7.9879761"><ele>275.3333333333333</ele><time>2026-04-11T09:08:19.481Z</time></trkpt><trkpt lat="44.6306729" lon="7.9880857"><ele>275.6666666666667</ele><time>2026-04-11T09:08:22.481Z</time></trkpt><trkpt lat="44.6306593" lon="7.9881944"><ele>276.0</ele><time>2026-04-11T09:08:25.481Z</time></trkpt><trkpt lat="44.6306889" lon="7.9883167"><ele>277.3333333333333</ele><time>2026-04-11T09:08:28.481Z</time></trkpt><trkpt lat="44.630704" lon="7.9884331"><ele>278.6666666666667</ele><time>2026-04-11T09:08:31.481Z</time></trkpt><trkpt lat="44.6307239" lon="7.9885189"><ele>280.0</ele><time>2026-04-11T09:08:33.481Z</time></trkpt><trkpt lat="44.6307367" lon="7.9886397"><ele>281.33333333333337</ele><time>2026-04-11T09:08:36.481Z</time></trkpt><trkpt lat="44.6307668" lon="7.9887321"><ele>282.6666666666667</ele><time>2026-04-11T09:08:38.481Z</time></trkpt><trkpt lat="44.6307999" lon="7.9888563"><ele>284.0</ele><time>2026-04-11T09:08:41.481Z</time></trkpt><trkpt lat="44.6308272" lon="7.9889781"><ele>284.0</ele><time>2026-04-11T09:08:44.481Z</time></trkpt><trkpt lat="44.6308511" lon="7.9891055"><ele>284.0</ele><time>2026-04-11T09:08:47.481Z</time></trkpt><trkpt lat="44.6308806" lon="7.9891973"><ele>284.0</ele><time>2026-04-11T09:08:49.481Z</time></trkpt><trkpt lat="44.6309312" lon="7.9892958"><ele>284.0</ele><time>2026-04-11T09:08:51.481Z</time></trkpt><trkpt lat="44.6309479" lon="7.989382"><ele>284.0</ele><time>2026-04-11T09:08:53.481Z</time></trkpt><trkpt lat="44.6309631" lon="7.989503"><ele>284.0</ele><time>2026-04-11T09:08:56.481Z</time></trkpt><trkpt lat="44.6309631" lon="7.9896231"><ele>285.1666666666667</ele><time>2026-04-11T09:08:59.481Z</time></trkpt><trkpt lat="44.6309885" lon="7.9897424"><ele>286.33333333333337</ele><time>2026-04-11T09:09:02.481Z</time></trkpt><trkpt lat="44.6310272" lon="7.9898365"><ele>287.5</ele><time>2026-04-11T09:09:04.481Z</time></trkpt><trkpt lat="44.6310735" lon="7.9899448"><ele>288.6666666666667</ele><time>2026-04-11T09:09:06.481Z</time></trkpt><trkpt lat="44.6310995" lon="7.9900678"><ele>289.8333333333333</ele><time>2026-04-11T09:09:09.481Z</time></trkpt><trkpt lat="44.631127" lon="7.990149"><ele>291.0</ele><time>2026-04-11T09:09:11.481Z</time></trkpt><trkpt lat="44.6311378" lon="7.9902727"><ele>290.8333333333333</ele><time>2026-04-11T09:09:14.481Z</time></trkpt><trkpt lat="44.6311652" lon="7.9903954"><ele>290.6666666666667</ele><time>2026-04-11T09:09:17.481Z</time></trkpt><trkpt lat="44.6311999" lon="7.9905195"><ele>290.5</ele><time>2026-04-11T09:09:20.481Z</time></trkpt><trkpt lat="44.6312403" lon="7.9906161"><ele>290.33333333333337</ele><time>2026-04-11T09:09:22.481Z</time></trkpt><trkpt lat="44.6312706" lon="7.9907395"><ele>290.1666666666667</ele><time>2026-04-11T09:09:25.481Z</time></trkpt><trkpt lat="44.6312983" lon="7.9908282"><ele>290.0</ele><time>2026-04-11T09:09:27.481Z</time></trkpt><trkpt lat="44.6313454" lon="7.9909178"><ele>291.83333333333337</ele><time>2026-04-11T09:09:29.482Z</time></trkpt><trkpt lat="44.6313901" lon="7.9910042"><ele>293.6666666666667</ele><time>2026-04-11T09:09:31.482Z</time></trkpt><trkpt lat="44.6314413" lon="7.9910658"><ele>295.5</ele><time>2026-04-11T09:09:33.482Z</time></trkpt><trkpt lat="44.6315122" lon="7.9911383"><ele>297.3333333333333</ele><time>2026-04-11T09:09:36.482Z</time></trkpt><trkpt lat="44.631587" lon="7.9912041"><ele>299.16666666666663</ele><time>2026-04-11T09:09:39.482Z</time></trkpt><trkpt lat="44.6316446" lon="7.9912409"><ele>301.0</ele><time>2026-04-11T09:09:41.482Z</time></trkpt><trkpt lat="44.6317199" lon="7.9912592"><ele>301.0</ele><time>2026-04-11T09:09:43.482Z</time></trkpt><trkpt lat="44.6317805" lon="7.991297"><ele>301.0</ele><time>2026-04-11T09:09:45.482Z</time></trkpt><trkpt lat="44.631833" lon="7.99135"><ele>301.0</ele><time>2026-04-11T09:09:47.482Z</time></trkpt><trkpt lat="44.6319057" lon="7.9914385"><ele>301.0</ele><time>2026-04-11T09:09:50.482Z</time></trkpt><trkpt lat="44.6319447" lon="7.9915155"><ele>301.0</ele><time>2026-04-11T09:09:52.482Z</time></trkpt><trkpt lat="44.6320044" lon="7.9915707"><ele>301.0</ele><time>2026-04-11T09:09:55.482Z</time></trkpt><trkpt lat="44.6320493" lon="7.9916834"><ele>301.85714285714283</ele><time>2026-04-11T09:09:58.482Z</time></trkpt><trkpt lat="44.6320775" lon="7.991773"><ele>302.7142857142857</ele><time>2026-04-11T09:10:00.482Z</time></trkpt><trkpt lat="44.6321188" lon="7.9918508"><ele>303.57142857142856</ele><time>2026-04-11T09:10:02.482Z</time></trkpt><trkpt lat="44.6321316" lon="7.9919704"><ele>304.42857142857144</ele><time>2026-04-11T09:10:05.482Z</time></trkpt><trkpt lat="44.6321469" lon="7.9920727"><ele>305.2857142857143</ele><time>2026-04-11T09:10:07.482Z</time></trkpt><trkpt lat="44.6321137" lon="7.9921619"><ele>306.1428571428571</ele><time>2026-04-11T09:10:10.482Z</time></trkpt><trkpt lat="44.6320908" lon="7.9922518"><ele>307.0</ele><time>2026-04-11T09:10:13.483Z</time></trkpt><trkpt lat="44.6320355" lon="7.9923166"><ele>305.8333333333333</ele><time>2026-04-11T09:10:16.482Z</time></trkpt><trkpt lat="44.631965" lon="7.9923638"><ele>304.66666666666663</ele><time>2026-04-11T09:10:19.482Z</time></trkpt><trkpt lat="44.6318746" lon="7.9923786"><ele>303.5</ele><time>2026-04-11T09:10:22.482Z</time></trkpt><trkpt lat="44.6317939" lon="7.9923674"><ele>302.3333333333333</ele><time>2026-04-11T09:10:25.482Z</time></trkpt><trkpt lat="44.6317132" lon="7.9923107"><ele>301.1666666666667</ele><time>2026-04-11T09:10:28.482Z</time></trkpt><trkpt lat="44.6316601" lon="7.9922553"><ele>300.0</ele><time>2026-04-11T09:10:30.482Z</time></trkpt><trkpt lat="44.6315868" lon="7.9922143"><ele>300.0</ele><time>2026-04-11T09:10:32.482Z</time></trkpt><trkpt lat="44.6315081" lon="7.9921454"><ele>300.0</ele><time>2026-04-11T09:10:35.482Z</time></trkpt><trkpt lat="44.631416" lon="7.9920981"><ele>300.0</ele><time>2026-04-11T09:10:38.483Z</time></trkpt><trkpt lat="44.6313596" lon="7.9920275"><ele>300.0</ele><time>2026-04-11T09:10:40.482Z</time></trkpt><trkpt lat="44.631288" lon="7.9919803"><ele>300.0</ele><time>2026-04-11T09:10:42.482Z</time></trkpt><trkpt lat="44.6312248" lon="7.9919323"><ele>300.0</ele><time>2026-04-11T09:10:44.482Z</time></trkpt><trkpt lat="44.6311518" lon="7.9918822"><ele>299.6666666666667</ele><time>2026-04-11T09:10:46.482Z</time></trkpt><trkpt lat="44.63108" lon="7.9918319"><ele>299.3333333333333</ele><time>2026-04-11T09:10:48.482Z</time></trkpt><trkpt lat="44.6310083" lon="7.9917957"><ele>299.0</ele><time>2026-04-11T09:10:50.482Z</time></trkpt><trkpt lat="44.6309288" lon="7.9917528"><ele>298.66666666666663</ele><time>2026-04-11T09:10:52.482Z</time></trkpt><trkpt lat="44.6308322" lon="7.9917163"><ele>298.3333333333333</ele><time>2026-04-11T09:10:55.482Z</time></trkpt><trkpt lat="44.6307668" lon="7.9917003"><ele>298.0</ele><time>2026-04-11T09:10:57.482Z</time></trkpt><trkpt lat="44.6306966" lon="7.9916954"><ele>298.0</ele><time>2026-04-11T09:10:59.482Z</time></trkpt><trkpt lat="44.6306319" lon="7.9917036"><ele>298.0</ele><time>2026-04-11T09:11:01.482Z</time></trkpt><trkpt lat="44.6305666" lon="7.9917521"><ele>298.0</ele><time>2026-04-11T09:11:03.482Z</time></trkpt><trkpt lat="44.6304891" lon="7.9917808"><ele>298.0</ele><time>2026-04-11T09:11:06.482Z</time></trkpt><trkpt lat="44.6304136" lon="7.9917713"><ele>298.0</ele><time>2026-04-11T09:11:09.482Z</time></trkpt><trkpt lat="44.6303367" lon="7.9918024"><ele>298.0</ele><time>2026-04-11T09:11:12.482Z</time></trkpt><trkpt lat="44.6302621" lon="7.9918567"><ele>299.3333333333333</ele><time>2026-04-11T09:11:15.482Z</time></trkpt><trkpt lat="44.6301818" lon="7.9918691"><ele>300.66666666666663</ele><time>2026-04-11T09:11:18.482Z</time></trkpt><trkpt lat="44.6300887" lon="7.9918449"><ele>302.0</ele><time>2026-04-11T09:11:21.482Z</time></trkpt><trkpt lat="44.6300105" lon="7.9918709"><ele>303.3333333333333</ele><time>2026-04-11T09:11:25.482Z</time></trkpt><trkpt lat="44.6299258" lon="7.9919048"><ele>304.6666666666667</ele><time>2026-04-11T09:11:28.482Z</time></trkpt><trkpt lat="44.629862" lon="7.9919288"><ele>306.0</ele><time>2026-04-11T09:11:30.483Z</time></trkpt><trkpt lat="44.6297825" lon="7.9919224"><ele>306.0</ele><time>2026-04-11T09:11:33.482Z</time></trkpt><trkpt lat="44.6296923" lon="7.9919326"><ele>306.0</ele><time>2026-04-11T09:11:36.482Z</time></trkpt><trkpt lat="44.6296046" lon="7.9919657"><ele>306.0</ele><time>2026-04-11T09:11:39.482Z</time></trkpt><trkpt lat="44.6295104" lon="7.9919687"><ele>306.0</ele><time>2026-04-11T09:11:42.482Z</time></trkpt><trkpt lat="44.6294467" lon="7.9919697"><ele>306.0</ele><time>2026-04-11T09:11:44.482Z</time></trkpt><trkpt lat="44.6293576" lon="7.9919746"><ele>306.0</ele><time>2026-04-11T09:11:47.482Z</time></trkpt><trkpt lat="44.6292675" lon="7.9919957"><ele>306.7142857142857</ele><time>2026-04-11T09:11:50.488Z</time></trkpt><trkpt lat="44.6291996" lon="7.9919963"><ele>307.42857142857144</ele><time>2026-04-11T09:11:52.488Z</time></trkpt><trkpt lat="44.6291216" lon="7.9920179"><ele>308.1428571428571</ele><time>2026-04-11T09:11:54.488Z</time></trkpt><trkpt lat="44.629045" lon="7.9920252"><ele>308.8571428571429</ele><time>2026-04-11T09:11:56.488Z</time></trkpt><trkpt lat="44.6289715" lon="7.9920433"><ele>309.5714285714286</ele><time>2026-04-11T09:11:58.488Z</time></trkpt><trkpt lat="44.6289082" lon="7.9920374"><ele>310.2857142857143</ele><time>2026-04-11T09:12:00.488Z</time></trkpt><trkpt lat="44.6288231" lon="7.9920469"><ele>311.0</ele><time>2026-04-11T09:12:02.488Z</time></trkpt><trkpt lat="44.6287508" lon="7.9920697"><ele>311.0</ele><time>2026-04-11T09:12:04.488Z</time></trkpt><trkpt lat="44.6286889" lon="7.992088"><ele>311.0</ele><time>2026-04-11T09:12:06.488Z</time></trkpt><trkpt lat="44.6286285" lon="7.9921319"><ele>311.0</ele><time>2026-04-11T09:12:08.488Z</time></trkpt><trkpt lat="44.6285673" lon="7.992183"><ele>311.0</ele><time>2026-04-11T09:12:10.488Z</time></trkpt><trkpt lat="44.6285088" lon="7.9922295"><ele>311.0</ele><time>2026-04-11T09:12:12.488Z</time></trkpt><trkpt lat="44.628426" lon="7.9922886"><ele>311.0</ele><time>2026-04-11T09:12:15.488Z</time></trkpt><trkpt lat="44.6283572" lon="7.9923591"><ele>311.0</ele><time>2026-04-11T09:12:18.489Z</time></trkpt><trkpt lat="44.628273" lon="7.992396"><ele>312.0</ele><time>2026-04-11T09:12:21.488Z</time></trkpt><trkpt lat="44.6282141" lon="7.9924345"><ele>313.0</ele><time>2026-04-11T09:12:23.488Z</time></trkpt><trkpt lat="44.6281397" lon="7.9924815"><ele>314.0</ele><time>2026-04-11T09:12:26.488Z</time></trkpt><trkpt lat="44.6280619" lon="7.9925288"><ele>315.0</ele><time>2026-04-11T09:12:29.489Z</time></trkpt><trkpt lat="44.6279847" lon="7.9925597"><ele>316.0</ele><time>2026-04-11T09:12:32.488Z</time></trkpt><trkpt lat="44.627911" lon="7.9926348"><ele>317.0</ele><time>2026-04-11T09:12:35.488Z</time></trkpt><trkpt lat="44.6278412" lon="7.9926895"><ele>319.33333333333337</ele><time>2026-04-11T09:12:38.488Z</time></trkpt><trkpt lat="44.6277626" lon="7.9927416"><ele>321.6666666666667</ele><time>2026-04-11T09:12:41.489Z</time></trkpt><trkpt lat="44.6276942" lon="7.9928058"><ele>324.0</ele><time>2026-04-11T09:12:44.488Z</time></trkpt><trkpt lat="44.627625" lon="7.9928709"><ele>326.3333333333333</ele><time>2026-04-11T09:12:47.488Z</time></trkpt><trkpt lat="44.6275499" lon="7.9929232"><ele>328.66666666666663</ele><time>2026-04-11T09:12:50.488Z</time></trkpt><trkpt lat="44.6274747" lon="7.9929709"><ele>331.0</ele><time>2026-04-11T09:12:53.488Z</time></trkpt><trkpt lat="44.627414" lon="7.9930291"><ele>331.0</ele><time>2026-04-11T09:12:56.488Z</time></trkpt><trkpt lat="44.6273638" lon="7.9930979"><ele>331.0</ele><time>2026-04-11T09:12:58.488Z</time></trkpt><trkpt lat="44.6273151" lon="7.9931627"><ele>331.0</ele><time>2026-04-11T09:13:00.488Z</time></trkpt><trkpt lat="44.6272576" lon="7.9932336"><ele>331.0</ele><time>2026-04-11T09:13:03.488Z</time></trkpt><trkpt lat="44.6272204" lon="7.9933054"><ele>331.0</ele><time>2026-04-11T09:13:06.488Z</time></trkpt><trkpt lat="44.6271894" lon="7.9934155"><ele>331.0</ele><time>2026-04-11T09:13:09.488Z</time></trkpt><trkpt lat="44.6271153" lon="7.9935027"><ele>331.8333333333333</ele><time>2026-04-11T09:13:12.488Z</time></trkpt><trkpt lat="44.6270553" lon="7.9936035"><ele>332.66666666666663</ele><time>2026-04-11T09:13:15.488Z</time></trkpt><trkpt lat="44.6270057" lon="7.9936904"><ele>333.5</ele><time>2026-04-11T09:13:18.488Z</time></trkpt><trkpt lat="44.6269622" lon="7.9937734"><ele>334.3333333333333</ele><time>2026-04-11T09:13:21.488Z</time></trkpt><trkpt lat="44.6269059" lon="7.9938274"><ele>335.1666666666667</ele><time>2026-04-11T09:13:23.488Z</time></trkpt><trkpt lat="44.6268537" lon="7.993899"><ele>336.0</ele><time>2026-04-11T09:13:25.488Z</time></trkpt><trkpt lat="44.6268691" lon="7.9940215"><ele>336.3333333333333</ele><time>2026-04-11T09:13:28.488Z</time></trkpt><trkpt lat="44.6268217" lon="7.9941037"><ele>336.6666666666667</ele><time>2026-04-11T09:13:31.488Z</time></trkpt><trkpt lat="44.6267926" lon="7.9942083"><ele>337.0</ele><time>2026-04-11T09:13:35.488Z</time></trkpt><trkpt lat="44.6267442" lon="7.9943007"><ele>337.33333333333337</ele><time>2026-04-11T09:13:38.488Z</time></trkpt><trkpt lat="44.6266825" lon="7.9943966"><ele>337.6666666666667</ele><time>2026-04-11T09:13:41.488Z</time></trkpt><trkpt lat="44.6266484" lon="7.9944958"><ele>338.0</ele><time>2026-04-11T09:13:44.488Z</time></trkpt><trkpt lat="44.6266151" lon="7.9945861"><ele>338.6666666666667</ele><time>2026-04-11T09:13:47.488Z</time></trkpt><trkpt lat="44.6265711" lon="7.9946939"><ele>339.33333333333337</ele><time>2026-04-11T09:13:50.488Z</time></trkpt><trkpt lat="44.6265532" lon="7.9947789"><ele>340.0</ele><time>2026-04-11T09:13:52.489Z</time></trkpt><trkpt lat="44.6265156" lon="7.9948664"><ele>340.6666666666667</ele><time>2026-04-11T09:13:54.488Z</time></trkpt><trkpt lat="44.6264929" lon="7.99497"><ele>341.3333333333333</ele><time>2026-04-11T09:13:56.488Z</time></trkpt><trkpt lat="44.6264639" lon="7.9950703"><ele>342.0</ele><time>2026-04-11T09:13:58.488Z</time></trkpt><trkpt lat="44.6264396" lon="7.9951678"><ele>343.6666666666667</ele><time>2026-04-11T09:14:00.488Z</time></trkpt><trkpt lat="44.6264119" lon="7.9952622"><ele>345.3333333333333</ele><time>2026-04-11T09:14:02.488Z</time></trkpt><trkpt lat="44.6263725" lon="7.9953389"><ele>347.0</ele><time>2026-04-11T09:14:04.488Z</time></trkpt><trkpt lat="44.6263411" lon="7.9954425"><ele>348.66666666666663</ele><time>2026-04-11T09:14:06.488Z</time></trkpt><trkpt lat="44.6263151" lon="7.9955445"><ele>350.3333333333333</ele><time>2026-04-11T09:14:08.488Z</time></trkpt><trkpt lat="44.6262837" lon="7.9956552"><ele>352.0</ele><time>2026-04-11T09:14:10.488Z</time></trkpt><trkpt lat="44.6262618" lon="7.9957716"><ele>352.7142857142857</ele><time>2026-04-11T09:14:12.488Z</time></trkpt><trkpt lat="44.6262355" lon="7.9958743"><ele>353.42857142857144</ele><time>2026-04-11T09:14:14.488Z</time></trkpt><trkpt lat="44.626208" lon="7.9959631"><ele>354.1428571428571</ele><time>2026-04-11T09:14:16.488Z</time></trkpt><trkpt lat="44.626169" lon="7.9960408"><ele>354.8571428571429</ele><time>2026-04-11T09:14:18.488Z</time></trkpt><trkpt lat="44.6261207" lon="7.9961185"><ele>355.57142857142856</ele><time>2026-04-11T09:14:20.488Z</time></trkpt><trkpt lat="44.6260592" lon="7.9961744"><ele>356.2857142857143</ele><time>2026-04-11T09:14:22.488Z</time></trkpt><trkpt lat="44.6259926" lon="7.9962057"><ele>357.0</ele><time>2026-04-11T09:14:24.488Z</time></trkpt><trkpt lat="44.6259179" lon="7.9962168"><ele>357.0</ele><time>2026-04-11T09:14:26.488Z</time></trkpt><trkpt lat="44.6258405" lon="7.9961876"><ele>357.0</ele><time>2026-04-11T09:14:28.488Z</time></trkpt><trkpt lat="44.6257613" lon="7.9961681"><ele>357.0</ele><time>2026-04-11T09:14:30.489Z</time></trkpt><trkpt lat="44.6256783" lon="7.9961476"><ele>357.0</ele><time>2026-04-11T09:14:32.488Z</time></trkpt><trkpt lat="44.6255971" lon="7.9961274"><ele>357.0</ele><time>2026-04-11T09:14:34.488Z</time></trkpt><trkpt lat="44.6255281" lon="7.9961099"><ele>357.0</ele><time>2026-04-11T09:14:36.488Z</time></trkpt><trkpt lat="44.6254615" lon="7.9960845"><ele>357.0</ele><time>2026-04-11T09:14:38.488Z</time></trkpt><trkpt lat="44.6253902" lon="7.9960611"><ele>357.0</ele><time>2026-04-11T09:14:40.488Z</time></trkpt><trkpt lat="44.625307" lon="7.9960356"><ele>357.0</ele><time>2026-04-11T09:14:42.488Z</time></trkpt><trkpt lat="44.6252291" lon="7.9960101"><ele>357.0</ele><time>2026-04-11T09:14:44.488Z</time></trkpt><trkpt lat="44.6251622" lon="7.9959923"><ele>357.0</ele><time>2026-04-11T09:14:46.488Z</time></trkpt><trkpt lat="44.6250929" lon="7.9959616"><ele>357.0</ele><time>2026-04-11T09:14:48.488Z</time></trkpt><trkpt lat="44.6249976" lon="7.995948"><ele>358.40000000000003</ele><time>2026-04-11T09:14:50.488Z</time></trkpt><trkpt lat="44.6249093" lon="7.9959175"><ele>359.8</ele><time>2026-04-11T09:14:52.488Z</time></trkpt><trkpt lat="44.6248282" lon="7.995887"><ele>361.2</ele><time>2026-04-11T09:14:54.488Z</time></trkpt><trkpt lat="44.6247425" lon="7.995843"><ele>362.6</ele><time>2026-04-11T09:14:56.488Z</time></trkpt><trkpt lat="44.6246581" lon="7.9957837"><ele>364.0</ele><time>2026-04-11T09:14:58.488Z</time></trkpt><trkpt lat="44.6245698" lon="7.9957057"><ele>362.6</ele><time>2026-04-11T09:15:00.488Z</time></trkpt><trkpt lat="44.6244831" lon="7.9956558"><ele>361.2</ele><time>2026-04-11T09:15:02.488Z</time></trkpt><trkpt lat="44.6244011" lon="7.9956041"><ele>359.8</ele><time>2026-04-11T09:15:04.488Z</time></trkpt><trkpt lat="44.6243114" lon="7.9955558"><ele>358.40000000000003</ele><time>2026-04-11T09:15:06.488Z</time></trkpt><trkpt lat="44.6242371" lon="7.9955037"><ele>357.0</ele><time>2026-04-11T09:15:08.488Z</time></trkpt><trkpt lat="44.6241449" lon="7.995432"><ele>357.0</ele><time>2026-04-11T09:15:10.488Z</time></trkpt><trkpt lat="44.624054" lon="7.9953849"><ele>357.0</ele><time>2026-04-11T09:15:12.488Z</time></trkpt><trkpt lat="44.6239887" lon="7.9953298"><ele>357.0</ele><time>2026-04-11T09:15:14.488Z</time></trkpt><trkpt lat="44.6239224" lon="7.995272"><ele>357.0</ele><time>2026-04-11T09:15:16.488Z</time></trkpt><trkpt lat="44.6238345" lon="7.9952115"><ele>357.0</ele><time>2026-04-11T09:15:18.488Z</time></trkpt><trkpt lat="44.6237431" lon="7.9951587"><ele>357.0</ele><time>2026-04-11T09:15:20.488Z</time></trkpt><trkpt lat="44.6236511" lon="7.9950924"><ele>356.20000000000005</ele><time>2026-04-11T09:15:22.488Z</time></trkpt><trkpt lat="44.6235668" lon="7.995015"><ele>355.4</ele><time>2026-04-11T09:15:24.488Z</time></trkpt><trkpt lat="44.6234865" lon="7.9949534"><ele>354.6</ele><time>2026-04-11T09:15:26.488Z</time></trkpt><trkpt lat="44.6234129" lon="7.9949135"><ele>353.79999999999995</ele><time>2026-04-11T09:15:28.488Z</time></trkpt><trkpt lat="44.6233296" lon="7.9948475"><ele>353.0</ele><time>2026-04-11T09:15:30.488Z</time></trkpt><trkpt lat="44.6232542" lon="7.9947756"><ele>353.0</ele><time>2026-04-11T09:15:32.488Z</time></trkpt><trkpt lat="44.6231912" lon="7.994695"><ele>353.0</ele><time>2026-04-11T09:15:34.488Z</time></trkpt><trkpt lat="44.6231089" lon="7.9946179"><ele>353.0</ele><time>2026-04-11T09:15:36.488Z</time></trkpt><trkpt lat="44.6230118" lon="7.9945701"><ele>353.0</ele><time>2026-04-11T09:15:38.488Z</time></trkpt><trkpt lat="44.6229165" lon="7.9945295"><ele>353.0</ele><time>2026-04-11T09:15:40.488Z</time></trkpt><trkpt lat="44.6228243" lon="7.9945126"><ele>354.59999999999997</ele><time>2026-04-11T09:15:42.488Z</time></trkpt><trkpt lat="44.6227294" lon="7.9944889"><ele>356.2</ele><time>2026-04-11T09:15:44.488Z</time></trkpt><trkpt lat="44.6226314" lon="7.9944963"><ele>357.8</ele><time>2026-04-11T09:15:46.488Z</time></trkpt><trkpt lat="44.622529" lon="7.9945283"><ele>359.4</ele><time>2026-04-11T09:15:48.488Z</time></trkpt><trkpt lat="44.6224331" lon="7.9945741"><ele>361.0</ele><time>2026-04-11T09:15:50.488Z</time></trkpt><trkpt lat="44.6223455" lon="7.9946204"><ele>361.0</ele><time>2026-04-11T09:15:52.488Z</time></trkpt><trkpt lat="44.6222645" lon="7.994666"><ele>361.0</ele><time>2026-04-11T09:15:54.488Z</time></trkpt><trkpt lat="44.6221828" lon="7.9947281"><ele>361.0</ele><time>2026-04-11T09:15:56.488Z</time></trkpt><trkpt lat="44.6220964" lon="7.9947852"><ele>361.0</ele><time>2026-04-11T09:15:58.488Z</time></trkpt><trkpt lat="44.6220041" lon="7.9948556"><ele>361.0</ele><time>2026-04-11T09:16:00.488Z</time></trkpt><trkpt lat="44.621905" lon="7.9949177"><ele>359.20000000000005</ele><time>2026-04-11T09:16:02.488Z</time></trkpt><trkpt lat="44.6218108" lon="7.994983"><ele>357.40000000000003</ele><time>2026-04-11T09:16:04.488Z</time></trkpt><trkpt lat="44.6217046" lon="7.9950585"><ele>355.6</ele><time>2026-04-11T09:16:06.488Z</time></trkpt><trkpt lat="44.6216122" lon="7.9951218"><ele>353.8</ele><time>2026-04-11T09:16:08.488Z</time></trkpt><trkpt lat="44.6215122" lon="7.9951976"><ele>352.0</ele><time>2026-04-11T09:16:10.488Z</time></trkpt><trkpt lat="44.6213921" lon="7.9952736"><ele>351.8</ele><time>2026-04-11T09:16:12.488Z</time></trkpt><trkpt lat="44.621328" lon="7.9952958"><ele>351.6</ele><time>2026-04-11T09:16:13.488Z</time></trkpt><trkpt lat="44.621265" lon="7.9953318"><ele>351.40000000000003</ele><time>2026-04-11T09:16:14.488Z</time></trkpt><trkpt lat="44.6211565" lon="7.9953659"><ele>351.20000000000005</ele><time>2026-04-11T09:16:16.488Z</time></trkpt><trkpt lat="44.6210432" lon="7.9954033"><ele>351.0</ele><time>2026-04-11T09:16:18.488Z</time></trkpt><trkpt lat="44.6209297" lon="7.9954314"><ele>352.20000000000005</ele><time>2026-04-11T09:16:20.488Z</time></trkpt><trkpt lat="44.6208329" lon="7.9953956"><ele>353.40000000000003</ele><time>2026-04-11T09:16:22.488Z</time></trkpt><trkpt lat="44.6207323" lon="7.9953619"><ele>354.6</ele><time>2026-04-11T09:16:24.488Z</time></trkpt><trkpt lat="44.6206533" lon="7.9953238"><ele>355.8</ele><time>2026-04-11T09:16:26.488Z</time></trkpt><trkpt lat="44.620553" lon="7.9953238"><ele>357.0</ele><time>2026-04-11T09:16:28.488Z</time></trkpt><trkpt lat="44.6204452" lon="7.9953248"><ele>357.0</ele><time>2026-04-11T09:16:30.488Z</time></trkpt><trkpt lat="44.6203499" lon="7.9953423"><ele>357.0</ele><time>2026-04-11T09:16:33.488Z</time></trkpt><trkpt lat="44.6202652" lon="7.9953771"><ele>357.0</ele><time>2026-04-11T09:16:35.488Z</time></trkpt><trkpt lat="44.620192" lon="7.9954015"><ele>357.0</ele><time>2026-04-11T09:16:37.488Z</time></trkpt><trkpt lat="44.620117" lon="7.9954133"><ele>357.0</ele><time>2026-04-11T09:16:39.488Z</time></trkpt><trkpt lat="44.6200488" lon="7.9954242"><ele>357.0</ele><time>2026-04-11T09:16:41.488Z</time></trkpt><trkpt lat="44.619982" lon="7.9954271"><ele>358.14285714285717</ele><time>2026-04-11T09:16:43.488Z</time></trkpt><trkpt lat="44.6199131" lon="7.9954338"><ele>359.2857142857143</ele><time>2026-04-11T09:16:45.488Z</time></trkpt><trkpt lat="44.6198455" lon="7.9954328"><ele>360.42857142857144</ele><time>2026-04-11T09:16:47.488Z</time></trkpt><trkpt lat="44.6197838" lon="7.9954505"><ele>361.57142857142856</ele><time>2026-04-11T09:16:49.488Z</time></trkpt><trkpt lat="44.6197203" lon="7.9954668"><ele>362.7142857142857</ele><time>2026-04-11T09:16:51.488Z</time></trkpt><trkpt lat="44.6196507" lon="7.9954973"><ele>363.8571428571429</ele><time>2026-04-11T09:16:53.488Z</time></trkpt><trkpt lat="44.6195544" lon="7.9955202"><ele>365.0</ele><time>2026-04-11T09:16:56.488Z</time></trkpt><trkpt lat="44.6194857" lon="7.9955501"><ele>365.1666666666667</ele><time>2026-04-11T09:16:58.488Z</time></trkpt><trkpt lat="44.6194199" lon="7.99557"><ele>365.33333333333337</ele><time>2026-04-11T09:17:00.488Z</time></trkpt><trkpt lat="44.6193368" lon="7.9956214"><ele>365.5</ele><time>2026-04-11T09:17:03.488Z</time></trkpt><trkpt lat="44.6192724" lon="7.9957101"><ele>365.6666666666667</ele><time>2026-04-11T09:17:06.488Z</time></trkpt><trkpt lat="44.6192298" lon="7.9958269"><ele>365.8333333333333</ele><time>2026-04-11T09:17:08.488Z</time></trkpt><trkpt lat="44.6192001" lon="7.9959399"><ele>366.0</ele><time>2026-04-11T09:17:10.488Z</time></trkpt><trkpt lat="44.6191546" lon="7.9960284"><ele>366.0</ele><time>2026-04-11T09:17:12.488Z</time></trkpt><trkpt lat="44.6191326" lon="7.9961155"><ele>366.0</ele><time>2026-04-11T09:17:14.488Z</time></trkpt><trkpt lat="44.6191271" lon="7.9962326"><ele>366.0</ele><time>2026-04-11T09:17:17.488Z</time></trkpt><trkpt lat="44.61913" lon="7.9963411"><ele>366.0</ele><time>2026-04-11T09:17:19.488Z</time></trkpt><trkpt lat="44.6191417" lon="7.9964489"><ele>366.0</ele><time>2026-04-11T09:17:21.488Z</time></trkpt><trkpt lat="44.6191324" lon="7.9965416"><ele>366.0</ele><time>2026-04-11T09:17:23.488Z</time></trkpt><trkpt lat="44.6191313" lon="7.996635"><ele>366.0</ele><time>2026-04-11T09:17:25.489Z</time></trkpt><trkpt lat="44.6191062" lon="7.9967629"><ele>366.8571428571429</ele><time>2026-04-11T09:17:28.489Z</time></trkpt><trkpt lat="44.6190991" lon="7.996856"><ele>367.7142857142857</ele><time>2026-04-11T09:17:30.489Z</time></trkpt><trkpt lat="44.619096" lon="7.9969508"><ele>368.57142857142856</ele><time>2026-04-11T09:17:32.489Z</time></trkpt><trkpt lat="44.619093" lon="7.9970582"><ele>369.42857142857144</ele><time>2026-04-11T09:17:34.489Z</time></trkpt><trkpt lat="44.6190711" lon="7.9971517"><ele>370.2857142857143</ele><time>2026-04-11T09:17:36.489Z</time></trkpt><trkpt lat="44.6190511" lon="7.9972399"><ele>371.14285714285717</ele><time>2026-04-11T09:17:38.489Z</time></trkpt><trkpt lat="44.6190227" lon="7.9973299"><ele>372.0</ele><time>2026-04-11T09:17:40.489Z</time></trkpt><trkpt lat="44.6189954" lon="7.9974238"><ele>371.8333333333333</ele><time>2026-04-11T09:17:42.489Z</time></trkpt><trkpt lat="44.6189752" lon="7.9975099"><ele>371.6666666666667</ele><time>2026-04-11T09:17:44.489Z</time></trkpt><trkpt lat="44.6189379" lon="7.9976217"><ele>371.5</ele><time>2026-04-11T09:17:47.489Z</time></trkpt><trkpt lat="44.618887" lon="7.9977264"><ele>371.33333333333337</ele><time>2026-04-11T09:17:50.489Z</time></trkpt><trkpt lat="44.618821" lon="7.9978194"><ele>371.1666666666667</ele><time>2026-04-11T09:17:53.49Z</time></trkpt><trkpt lat="44.618768" lon="7.9979159"><ele>371.0</ele><time>2026-04-11T09:17:56.489Z</time></trkpt><trkpt lat="44.6187001" lon="7.9979972"><ele>371.33333333333337</ele><time>2026-04-11T09:17:59.489Z</time></trkpt><trkpt lat="44.61863" lon="7.9980882"><ele>371.6666666666667</ele><time>2026-04-11T09:18:02.489Z</time></trkpt><trkpt lat="44.6185727" lon="7.9981439"><ele>372.0</ele><time>2026-04-11T09:18:04.489Z</time></trkpt><trkpt lat="44.6185225" lon="7.9981982"><ele>372.3333333333333</ele><time>2026-04-11T09:18:06.489Z</time></trkpt><trkpt lat="44.6184484" lon="7.9982774"><ele>372.66666666666663</ele><time>2026-04-11T09:18:09.489Z</time></trkpt><trkpt lat="44.6183819" lon="7.9983134"><ele>373.0</ele><time>2026-04-11T09:18:11.489Z</time></trkpt><trkpt lat="44.6183139" lon="7.9983734"><ele>373.0</ele><time>2026-04-11T09:18:12.489Z</time></trkpt><trkpt lat="44.6182432" lon="7.9984599"><ele>373.0</ele><time>2026-04-11T09:18:14.489Z</time></trkpt><trkpt lat="44.6181792" lon="7.9984873"><ele>373.0</ele><time>2026-04-11T09:18:16.489Z</time></trkpt><trkpt lat="44.618106" lon="7.9985412"><ele>373.0</ele><time>2026-04-11T09:18:18.489Z</time></trkpt><trkpt lat="44.6180177" lon="7.9985732"><ele>373.0</ele><time>2026-04-11T09:18:20.489Z</time></trkpt><trkpt lat="44.6179107" lon="7.9986138"><ele>373.0</ele><time>2026-04-11T09:18:22.489Z</time></trkpt><trkpt lat="44.617795" lon="7.9986466"><ele>373.0</ele><time>2026-04-11T09:18:24.489Z</time></trkpt><trkpt lat="44.6176812" lon="7.998672"><ele>373.0</ele><time>2026-04-11T09:18:26.489Z</time></trkpt><trkpt lat="44.6176133" lon="7.9986963"><ele>373.0</ele><time>2026-04-11T09:18:27.489Z</time></trkpt><trkpt lat="44.6174983" lon="7.9987463"><ele>373.0</ele><time>2026-04-11T09:18:29.49Z</time></trkpt><trkpt lat="44.6173971" lon="7.9988603"><ele>373.0</ele><time>2026-04-11T09:18:31.495Z</time></trkpt><trkpt lat="44.617328" lon="7.9989354"><ele>373.0</ele><time>2026-04-11T09:18:32.495Z</time></trkpt><trkpt lat="44.617261" lon="7.9990297"><ele>373.0</ele><time>2026-04-11T09:18:33.495Z</time></trkpt><trkpt lat="44.6172053" lon="7.9991039"><ele>373.0</ele><time>2026-04-11T09:18:34.495Z</time></trkpt><trkpt lat="44.6171287" lon="7.9992484"><ele>373.0</ele><time>2026-04-11T09:18:36.495Z</time></trkpt><trkpt lat="44.6170879" lon="7.999323"><ele>373.0</ele><time>2026-04-11T09:18:37.495Z</time></trkpt><trkpt lat="44.6170442" lon="7.9993964"><ele>373.0</ele><time>2026-04-11T09:18:38.495Z</time></trkpt><trkpt lat="44.6170064" lon="7.9994695"><ele>374.16666666666663</ele><time>2026-04-11T09:18:39.495Z</time></trkpt><trkpt lat="44.6169698" lon="7.9995463"><ele>375.3333333333333</ele><time>2026-04-11T09:18:40.495Z</time></trkpt><trkpt lat="44.6169341" lon="7.9996228"><ele>376.5</ele><time>2026-04-11T09:18:41.495Z</time></trkpt><trkpt lat="44.6169006" lon="7.9996982"><ele>377.6666666666667</ele><time>2026-04-11T09:18:42.495Z</time></trkpt><trkpt lat="44.6168298" lon="7.9998424"><ele>378.83333333333337</ele><time>2026-04-11T09:18:44.496Z</time></trkpt><trkpt lat="44.6167703" lon="7.999974"><ele>380.0</ele><time>2026-04-11T09:18:46.495Z</time></trkpt><trkpt lat="44.6166884" lon="8.0000882"><ele>380.0</ele><time>2026-04-11T09:18:48.495Z</time></trkpt><trkpt lat="44.6166279" lon="8.0001439"><ele>380.0</ele><time>2026-04-11T09:18:49.495Z</time></trkpt><trkpt lat="44.6165771" lon="8.0001987"><ele>380.0</ele><time>2026-04-11T09:18:50.495Z</time></trkpt><trkpt lat="44.6165264" lon="8.0002535"><ele>380.0</ele><time>2026-04-11T09:18:51.495Z</time></trkpt><trkpt lat="44.616424" lon="8.0003409"><ele>380.0</ele><time>2026-04-11T09:18:53.495Z</time></trkpt><trkpt lat="44.6163126" lon="8.0004086"><ele>380.0</ele><time>2026-04-11T09:18:55.496Z</time></trkpt><trkpt lat="44.6162147" lon="8.0004625"><ele>377.4</ele><time>2026-04-11T09:18:57.495Z</time></trkpt><trkpt lat="44.6161176" lon="8.0005223"><ele>374.8</ele><time>2026-04-11T09:18:59.495Z</time></trkpt><trkpt lat="44.6160207" lon="8.0005753"><ele>372.20000000000005</ele><time>2026-04-11T09:19:01.495Z</time></trkpt><trkpt lat="44.6159243" lon="8.0006337"><ele>369.6</ele><time>2026-04-11T09:19:03.495Z</time></trkpt><trkpt lat="44.615819" lon="8.0006835"><ele>367.0</ele><time>2026-04-11T09:19:05.495Z</time></trkpt><trkpt lat="44.6157127" lon="8.0007427"><ele>367.0</ele><time>2026-04-11T09:19:07.496Z</time></trkpt><trkpt lat="44.6156116" lon="8.0007989"><ele>367.0</ele><time>2026-04-11T09:19:09.496Z</time></trkpt><trkpt lat="44.6155226" lon="8.0008315"><ele>367.0</ele><time>2026-04-11T09:19:11.495Z</time></trkpt><trkpt lat="44.615439" lon="8.0008517"><ele>367.0</ele><time>2026-04-11T09:19:13.495Z</time></trkpt><trkpt lat="44.615339" lon="8.0008911"><ele>367.0</ele><time>2026-04-11T09:19:15.495Z</time></trkpt><trkpt lat="44.6152345" lon="8.0009507"><ele>369.5</ele><time>2026-04-11T09:19:17.495Z</time></trkpt><trkpt lat="44.6151255" lon="8.0010037"><ele>372.0</ele><time>2026-04-11T09:19:19.495Z</time></trkpt><trkpt lat="44.6150588" lon="8.0010429"><ele>374.5</ele><time>2026-04-11T09:19:20.495Z</time></trkpt><trkpt lat="44.6149895" lon="8.0010976"><ele>377.0</ele><time>2026-04-11T09:19:22.495Z</time></trkpt><trkpt lat="44.6149099" lon="8.0011523"><ele>379.5</ele><time>2026-04-11T09:19:24.495Z</time></trkpt><trkpt lat="44.6148389" lon="8.0011853"><ele>382.0</ele><time>2026-04-11T09:19:25.495Z</time></trkpt><trkpt lat="44.6147684" lon="8.0011918"><ele>382.0</ele><time>2026-04-11T09:19:26.495Z</time></trkpt><trkpt lat="44.6146812" lon="8.0011862"><ele>382.0</ele><time>2026-04-11T09:19:28.495Z</time></trkpt><trkpt lat="44.6145788" lon="8.0012083"><ele>382.0</ele><time>2026-04-11T09:19:30.495Z</time></trkpt><trkpt lat="44.6145117" lon="8.0012219"><ele>382.0</ele><time>2026-04-11T09:19:31.495Z</time></trkpt><trkpt lat="44.6144451" lon="8.0012548"><ele>382.0</ele><time>2026-04-11T09:19:32.495Z</time></trkpt><trkpt lat="44.614372" lon="8.0012544"><ele>382.0</ele><time>2026-04-11T09:19:33.495Z</time></trkpt><trkpt lat="44.6142855" lon="8.0012623"><ele>381.66666666666663</ele><time>2026-04-11T09:19:34.495Z</time></trkpt><trkpt lat="44.6142094" lon="8.001286"><ele>381.3333333333333</ele><time>2026-04-11T09:19:35.495Z</time></trkpt><trkpt lat="44.6141396" lon="8.0013176"><ele>381.0</ele><time>2026-04-11T09:19:36.495Z</time></trkpt><trkpt lat="44.6140676" lon="8.0013198"><ele>380.6666666666667</ele><time>2026-04-11T09:19:37.495Z</time></trkpt><trkpt lat="44.6139952" lon="8.001329"><ele>380.33333333333337</ele><time>2026-04-11T09:19:38.495Z</time></trkpt><trkpt lat="44.6139186" lon="8.0013343"><ele>380.0</ele><time>2026-04-11T09:19:39.495Z</time></trkpt><trkpt lat="44.61384" lon="8.0013358"><ele>380.0</ele><time>2026-04-11T09:19:40.495Z</time></trkpt><trkpt lat="44.6137558" lon="8.0013308"><ele>380.0</ele><time>2026-04-11T09:19:41.495Z</time></trkpt><trkpt lat="44.6136613" lon="8.0013531"><ele>380.0</ele><time>2026-04-11T09:19:42.495Z</time></trkpt><trkpt lat="44.6135746" lon="8.001385"><ele>380.0</ele><time>2026-04-11T09:19:43.495Z</time></trkpt><trkpt lat="44.6134895" lon="8.0014059"><ele>380.0</ele><time>2026-04-11T09:19:44.496Z</time></trkpt><trkpt lat="44.6133851" lon="8.0014167"><ele>378.5</ele><time>2026-04-11T09:19:45.495Z</time></trkpt><trkpt lat="44.6132878" lon="8.0014299"><ele>377.0</ele><time>2026-04-11T09:19:46.495Z</time></trkpt><trkpt lat="44.6132184" lon="8.0014082"><ele>375.5</ele><time>2026-04-11T09:19:47.495Z</time></trkpt><trkpt lat="44.6131442" lon="8.0014046"><ele>374.0</ele><time>2026-04-11T09:19:48.495Z</time></trkpt><trkpt lat="44.6130581" lon="8.001399"><ele>372.5</ele><time>2026-04-11T09:19:49.495Z</time></trkpt><trkpt lat="44.612982" lon="8.0014044"><ele>371.0</ele><time>2026-04-11T09:19:50.496Z</time></trkpt><trkpt lat="44.6129048" lon="8.0013737"><ele>371.0</ele><time>2026-04-11T09:19:51.495Z</time></trkpt><trkpt lat="44.6128301" lon="8.0013486"><ele>371.0</ele><time>2026-04-11T09:19:52.495Z</time></trkpt><trkpt lat="44.6127537" lon="8.0013249"><ele>371.0</ele><time>2026-04-11T09:19:53.495Z</time></trkpt><trkpt lat="44.61268" lon="8.0012794"><ele>371.0</ele><time>2026-04-11T09:19:54.495Z</time></trkpt><trkpt lat="44.6126146" lon="8.0012272"><ele>371.0</ele><time>2026-04-11T09:19:55.495Z</time></trkpt><trkpt lat="44.6125526" lon="8.0011803"><ele>371.0</ele><time>2026-04-11T09:19:56.496Z</time></trkpt><trkpt lat="44.6124863" lon="8.0011426"><ele>372.33333333333337</ele><time>2026-04-11T09:19:57.495Z</time></trkpt><trkpt lat="44.6124188" lon="8.0011246"><ele>373.6666666666667</ele><time>2026-04-11T09:19:58.495Z</time></trkpt><trkpt lat="44.6123485" lon="8.0010892"><ele>375.0</ele><time>2026-04-11T09:19:59.495Z</time></trkpt><trkpt lat="44.6122879" lon="8.0010464"><ele>376.3333333333333</ele><time>2026-04-11T09:20:00.495Z</time></trkpt><trkpt lat="44.6121752" lon="8.0009687"><ele>377.66666666666663</ele><time>2026-04-11T09:20:02.495Z</time></trkpt><trkpt lat="44.6121179" lon="8.0009296"><ele>379.0</ele><time>2026-04-11T09:20:03.495Z</time></trkpt><trkpt lat="44.6120608" lon="8.0008776"><ele>379.2</ele><time>2026-04-11T09:20:04.495Z</time></trkpt><trkpt lat="44.611962" lon="8.0007927"><ele>379.4</ele><time>2026-04-11T09:20:06.495Z</time></trkpt><trkpt lat="44.6118883" lon="8.0007034"><ele>379.6</ele><time>2026-04-11T09:20:08.495Z</time></trkpt><trkpt lat="44.6118168" lon="8.0006184"><ele>379.8</ele><time>2026-04-11T09:20:10.495Z</time></trkpt><trkpt lat="44.6117146" lon="8.0005547"><ele>380.0</ele><time>2026-04-11T09:20:12.495Z</time></trkpt><trkpt lat="44.6116554" lon="8.0005231"><ele>380.0</ele><time>2026-04-11T09:20:13.495Z</time></trkpt><trkpt lat="44.611576" lon="8.0005138"><ele>380.0</ele><time>2026-04-11T09:20:15.495Z</time></trkpt><trkpt lat="44.6115358" lon="8.0004402"><ele>380.0</ele><time>2026-04-11T09:20:17.495Z</time></trkpt><trkpt lat="44.6114829" lon="8.0003648"><ele>380.0</ele><time>2026-04-11T09:20:20.495Z</time></trkpt><trkpt lat="44.6114279" lon="8.0003134"><ele>380.0</ele><time>2026-04-11T09:20:22.495Z</time></trkpt><trkpt lat="44.6113541" lon="8.0002791"><ele>380.0</ele><time>2026-04-11T09:20:25.495Z</time></trkpt><trkpt lat="44.6112954" lon="8.000229"><ele>380.0</ele><time>2026-04-11T09:20:29.495Z</time></trkpt><trkpt lat="44.6112342" lon="8.0002864"><ele>382.83333333333337</ele><time>2026-04-11T09:20:32.495Z</time></trkpt><trkpt lat="44.6111538" lon="8.0002928"><ele>385.6666666666667</ele><time>2026-04-11T09:20:35.495Z</time></trkpt><trkpt lat="44.6110884" lon="8.0003362"><ele>388.5</ele><time>2026-04-11T09:20:39.495Z</time></trkpt><trkpt lat="44.6110163" lon="8.0004216"><ele>391.33333333333337</ele><time>2026-04-11T09:20:43.495Z</time></trkpt><trkpt lat="44.6110173" lon="8.000516"><ele>394.1666666666667</ele><time>2026-04-11T09:20:45.495Z</time></trkpt><trkpt lat="44.6109871" lon="8.0006075"><ele>397.0</ele><time>2026-04-11T09:20:51.495Z</time></trkpt><trkpt lat="44.6109582" lon="8.0004985"><ele>397.0</ele><time>2026-04-11T09:20:56.495Z</time></trkpt><trkpt lat="44.6109477" lon="8.0003989"><ele>397.0</ele><time>2026-04-11T09:20:59.495Z</time></trkpt><trkpt lat="44.6109891" lon="8.0003273"><ele>397.0</ele><time>2026-04-11T09:21:02.495Z</time></trkpt><trkpt lat="44.6109813" lon="8.0002377"><ele>397.0</ele><time>2026-04-11T09:21:07.496Z</time></trkpt><trkpt lat="44.6109227" lon="8.0001693"><ele>397.0</ele><time>2026-04-11T09:21:10.495Z</time></trkpt><trkpt lat="44.6108622" lon="8.0001383"><ele>397.0</ele><time>2026-04-11T09:21:14.495Z</time></trkpt><trkpt lat="44.6107864" lon="8.0000789"><ele>397.0</ele><time>2026-04-11T09:21:18.495Z</time></trkpt><trkpt lat="44.6107287" lon="8.0000082"><ele>397.0</ele><time>2026-04-11T09:21:21.495Z</time></trkpt><trkpt lat="44.6106484" lon="7.9999904"><ele>397.0</ele><time>2026-04-11T09:21:25.495Z</time></trkpt><trkpt lat="44.6106385" lon="8.0000968"><ele>397.0</ele><time>2026-04-11T09:21:30.495Z</time></trkpt><trkpt lat="44.6106428" lon="8.0002138"><ele>397.0</ele><time>2026-04-11T09:21:33.495Z</time></trkpt><trkpt lat="44.6106061" lon="8.0002894"><ele>397.0</ele><time>2026-04-11T09:21:40.495Z</time></trkpt><trkpt lat="44.6105994" lon="8.0003866"><ele>397.0</ele><time>2026-04-11T09:21:45.495Z</time></trkpt><trkpt lat="44.6106079" lon="8.000291"><ele>397.0</ele><time>2026-04-11T09:22:02.496Z</time></trkpt><trkpt lat="44.6105561" lon="8.0001889"><ele>397.00000000000006</ele><time>2026-04-11T09:22:06.495Z</time></trkpt><trkpt lat="44.6105415" lon="8.0000785"><ele>397.0</ele><time>2026-04-11T09:22:09.495Z</time></trkpt><trkpt lat="44.6104806" lon="8.0001171"><ele>397.0</ele><time>2026-04-11T09:22:31.495Z</time></trkpt><trkpt lat="44.6103972" lon="8.0001778"><ele>397.0</ele><time>2026-04-11T09:22:36.495Z</time></trkpt><trkpt lat="44.6103581" lon="8.0002605"><ele>397.00000000000006</ele><time>2026-04-11T09:22:38.495Z</time></trkpt><trkpt lat="44.6103599" lon="8.000359"><ele>397.0</ele><time>2026-04-11T09:22:43.495Z</time></trkpt><trkpt lat="44.6104572" lon="8.000438"><ele>397.0</ele><time>2026-04-11T09:22:46.495Z</time></trkpt><trkpt lat="44.6105222" lon="8.00047"><ele>397.0</ele><time>2026-04-11T09:22:48.495Z</time></trkpt><trkpt lat="44.6104512" lon="8.0004533"><ele>397.0</ele><time>2026-04-11T09:22:59.495Z</time></trkpt><trkpt lat="44.6103879" lon="8.0004159"><ele>397.0</ele><time>2026-04-11T09:23:06.495Z</time></trkpt><trkpt lat="44.6103195" lon="8.0004674"><ele>397.0</ele><time>2026-04-11T09:23:10.495Z</time></trkpt><trkpt lat="44.6102584" lon="8.0004047"><ele>397.0</ele><time>2026-04-11T09:23:15.495Z</time></trkpt><trkpt lat="44.6101978" lon="8.0003543"><ele>397.0</ele><time>2026-04-11T09:23:17.495Z</time></trkpt><trkpt lat="44.6102021" lon="8.0002553"><ele>396.33333333333337</ele><time>2026-04-11T09:23:20.495Z</time></trkpt><trkpt lat="44.610232" lon="8.0001493"><ele>395.6666666666667</ele><time>2026-04-11T09:23:23.495Z</time></trkpt><trkpt lat="44.6101716" lon="8.0002585"><ele>395.0</ele><time>2026-04-11T09:23:31.495Z</time></trkpt><trkpt lat="44.6101319" lon="8.0003479"><ele>394.33333333333337</ele><time>2026-04-11T09:23:34.495Z</time></trkpt><trkpt lat="44.6100605" lon="8.0003371"><ele>393.6666666666667</ele><time>2026-04-11T09:23:43.495Z</time></trkpt><trkpt lat="44.6099823" lon="8.0003387"><ele>393.0</ele><time>2026-04-11T09:23:44.495Z</time></trkpt><trkpt lat="44.6098889" lon="8.0003242"><ele>393.0</ele><time>2026-04-11T09:23:45.495Z</time></trkpt><trkpt lat="44.609806" lon="8.0003028"><ele>393.0</ele><time>2026-04-11T09:23:46.495Z</time></trkpt><trkpt lat="44.6097306" lon="8.0002867"><ele>393.0</ele><time>2026-04-11T09:23:47.495Z</time></trkpt><trkpt lat="44.6096287" lon="8.000291"><ele>393.0</ele><time>2026-04-11T09:23:49.495Z</time></trkpt><trkpt lat="44.6095637" lon="8.0002619"><ele>393.0</ele><time>2026-04-11T09:23:51.495Z</time></trkpt><trkpt lat="44.6095055" lon="8.0003325"><ele>393.0</ele><time>2026-04-11T09:23:53.495Z</time></trkpt><trkpt lat="44.6094047" lon="8.000429"><ele>391.3333333333333</ele><time>2026-04-11T09:23:55.495Z</time></trkpt><trkpt lat="44.6093174" lon="8.0004697"><ele>389.6666666666667</ele><time>2026-04-11T09:23:56.495Z</time></trkpt><trkpt lat="44.6092577" lon="8.000513"><ele>388.0</ele><time>2026-04-11T09:23:57.495Z</time></trkpt><trkpt lat="44.6091379" lon="8.0005552"><ele>386.33333333333337</ele><time>2026-04-11T09:23:59.495Z</time></trkpt><trkpt lat="44.6090723" lon="8.000563"><ele>384.6666666666667</ele><time>2026-04-11T09:24:00.495Z</time></trkpt><trkpt lat="44.6090062" lon="8.0005731"><ele>383.0</ele><time>2026-04-11T09:24:01.495Z</time></trkpt><trkpt lat="44.6089368" lon="8.0005968"><ele>383.0</ele><time>2026-04-11T09:24:02.495Z</time></trkpt><trkpt lat="44.608856" lon="8.0006272"><ele>383.0</ele><time>2026-04-11T09:24:03.495Z</time></trkpt><trkpt lat="44.6087834" lon="8.0006381"><ele>383.0</ele><time>2026-04-11T09:24:04.495Z</time></trkpt><trkpt lat="44.6087119" lon="8.0006517"><ele>383.0</ele><time>2026-04-11T09:24:05.495Z</time></trkpt><trkpt lat="44.6086379" lon="8.0006599"><ele>383.0</ele><time>2026-04-11T09:24:06.495Z</time></trkpt><trkpt lat="44.608562" lon="8.0006594"><ele>383.0</ele><time>2026-04-11T09:24:07.495Z</time></trkpt><trkpt lat="44.6084895" lon="8.0006339"><ele>382.57142857142856</ele><time>2026-04-11T09:24:08.495Z</time></trkpt><trkpt lat="44.6084218" lon="8.0005917"><ele>382.1428571428571</ele><time>2026-04-11T09:24:09.495Z</time></trkpt><trkpt lat="44.6083436" lon="8.0005522"><ele>381.7142857142857</ele><time>2026-04-11T09:24:10.495Z</time></trkpt><trkpt lat="44.6082824" lon="8.0005104"><ele>381.2857142857143</ele><time>2026-04-11T09:24:11.495Z</time></trkpt><trkpt lat="44.6082196" lon="8.0004832"><ele>380.8571428571429</ele><time>2026-04-11T09:24:12.495Z</time></trkpt><trkpt lat="44.6081576" lon="8.0004507"><ele>380.42857142857144</ele><time>2026-04-11T09:24:13.495Z</time></trkpt><trkpt lat="44.6080845" lon="8.0004107"><ele>380.0</ele><time>2026-04-11T09:24:14.495Z</time></trkpt><trkpt lat="44.6080091" lon="8.0003848"><ele>380.0</ele><time>2026-04-11T09:24:15.495Z</time></trkpt><trkpt lat="44.6079256" lon="8.0003694"><ele>380.0</ele><time>2026-04-11T09:24:16.495Z</time></trkpt><trkpt lat="44.6078537" lon="8.0003464"><ele>380.0</ele><time>2026-04-11T09:24:17.495Z</time></trkpt><trkpt lat="44.6077848" lon="8.0003069"><ele>380.0</ele><time>2026-04-11T09:24:18.495Z</time></trkpt><trkpt lat="44.6077181" lon="8.0002774"><ele>380.0</ele><time>2026-04-11T09:24:19.495Z</time></trkpt><trkpt lat="44.6076554" lon="8.000253"><ele>380.0</ele><time>2026-04-11T09:24:20.495Z</time></trkpt><trkpt lat="44.6075922" lon="8.0002362"><ele>380.0</ele><time>2026-04-11T09:24:21.495Z</time></trkpt><trkpt lat="44.6074598" lon="8.0002438"><ele>381.0</ele><time>2026-04-11T09:24:23.495Z</time></trkpt><trkpt lat="44.6073937" lon="8.0002175"><ele>382.0</ele><time>2026-04-11T09:24:24.495Z</time></trkpt><trkpt lat="44.6073154" lon="8.0002"><ele>383.0</ele><time>2026-04-11T09:24:25.495Z</time></trkpt><trkpt lat="44.6072061" lon="8.0001125"><ele>384.0</ele><time>2026-04-11T09:24:27.495Z</time></trkpt><trkpt lat="44.6071556" lon="8.0000333"><ele>385.0</ele><time>2026-04-11T09:24:28.496Z</time></trkpt><trkpt lat="44.6070815" lon="7.9998878"><ele>385.0</ele><time>2026-04-11T09:24:30.495Z</time></trkpt><trkpt lat="44.6069942" lon="7.9997869"><ele>385.0</ele><time>2026-04-11T09:24:32.495Z</time></trkpt><trkpt lat="44.6069377" lon="7.9997342"><ele>385.0</ele><time>2026-04-11T09:24:33.495Z</time></trkpt><trkpt lat="44.6068368" lon="7.9996393"><ele>385.0</ele><time>2026-04-11T09:24:35.495Z</time></trkpt><trkpt lat="44.6067224" lon="7.999557"><ele>385.0</ele><time>2026-04-11T09:24:37.495Z</time></trkpt><trkpt lat="44.606654" lon="7.9995286"><ele>386.00000000000006</ele><time>2026-04-11T09:24:38.495Z</time></trkpt><trkpt lat="44.6065819" lon="7.9995136"><ele>387.0</ele><time>2026-04-11T09:24:39.495Z</time></trkpt><trkpt lat="44.6065038" lon="7.9995135"><ele>388.0</ele><time>2026-04-11T09:24:40.495Z</time></trkpt><trkpt lat="44.6064261" lon="7.9995254"><ele>389.0</ele><time>2026-04-11T09:24:41.495Z</time></trkpt><trkpt lat="44.6063486" lon="7.9995488"><ele>390.00000000000006</ele><time>2026-04-11T09:24:42.495Z</time></trkpt><trkpt lat="44.6062692" lon="7.9995629"><ele>391.0</ele><time>2026-04-11T09:24:43.495Z</time></trkpt><trkpt lat="44.606184" lon="7.9995775"><ele>389.6</ele><time>2026-04-11T09:24:44.495Z</time></trkpt><trkpt lat="44.6061014" lon="7.9995854"><ele>388.20000000000005</ele><time>2026-04-11T09:24:45.495Z</time></trkpt><trkpt lat="44.6060104" lon="7.9995735"><ele>386.79999999999995</ele><time>2026-04-11T09:24:46.495Z</time></trkpt><trkpt lat="44.6059113" lon="7.9995439"><ele>385.4</ele><time>2026-04-11T09:24:47.495Z</time></trkpt><trkpt lat="44.60582" lon="7.9995075"><ele>384.0</ele><time>2026-04-11T09:24:48.495Z</time></trkpt><trkpt lat="44.605725" lon="7.999471"><ele>384.0</ele><time>2026-04-11T09:24:49.495Z</time></trkpt><trkpt lat="44.6056212" lon="7.9994442"><ele>384.0</ele><time>2026-04-11T09:24:50.495Z</time></trkpt><trkpt lat="44.6055297" lon="7.9994391"><ele>384.0</ele><time>2026-04-11T09:24:51.495Z</time></trkpt><trkpt lat="44.6054399" lon="7.9994163"><ele>384.0</ele><time>2026-04-11T09:24:52.495Z</time></trkpt><trkpt lat="44.6053494" lon="7.9993937"><ele>384.0</ele><time>2026-04-11T09:24:53.495Z</time></trkpt><trkpt lat="44.6052649" lon="7.999371"><ele>382.5</ele><time>2026-04-11T09:24:54.495Z</time></trkpt><trkpt lat="44.6051722" lon="7.9993297"><ele>381.0</ele><time>2026-04-11T09:24:55.495Z</time></trkpt><trkpt lat="44.6050815" lon="7.9992871"><ele>379.5</ele><time>2026-04-11T09:24:56.495Z</time></trkpt><trkpt lat="44.6050007" lon="7.9992581"><ele>378.0</ele><time>2026-04-11T09:24:57.495Z</time></trkpt><trkpt lat="44.6049241" lon="7.9992282"><ele>376.5</ele><time>2026-04-11T09:24:58.495Z</time></trkpt><trkpt lat="44.6048539" lon="7.9991964"><ele>375.0</ele><time>2026-04-11T09:24:59.496Z</time></trkpt><trkpt lat="44.6047779" lon="7.9991739"><ele>375.8333333333333</ele><time>2026-04-11T09:25:00.495Z</time></trkpt><trkpt lat="44.6047077" lon="7.9991418"><ele>376.6666666666667</ele><time>2026-04-11T09:25:01.495Z</time></trkpt><trkpt lat="44.6046032" lon="7.9990871"><ele>377.5</ele><time>2026-04-11T09:25:03.495Z</time></trkpt><trkpt lat="44.6045372" lon="7.9990621"><ele>378.33333333333337</ele><time>2026-04-11T09:25:04.495Z</time></trkpt><trkpt lat="44.6044719" lon="7.9990435"><ele>379.1666666666667</ele><time>2026-04-11T09:25:05.495Z</time></trkpt><trkpt lat="44.604365" lon="7.998978"><ele>380.0</ele><time>2026-04-11T09:25:07.495Z</time></trkpt><trkpt lat="44.6042418" lon="7.9989561"><ele>380.42857142857144</ele><time>2026-04-11T09:25:09.496Z</time></trkpt><trkpt lat="44.6041761" lon="7.9989448"><ele>380.8571428571429</ele><time>2026-04-11T09:25:10.503Z</time></trkpt><trkpt lat="44.6041088" lon="7.9989292"><ele>381.2857142857143</ele><time>2026-04-11T09:25:11.503Z</time></trkpt><trkpt lat="44.6040407" lon="7.9989252"><ele>381.7142857142857</ele><time>2026-04-11T09:25:12.503Z</time></trkpt><trkpt lat="44.6039707" lon="7.9989233"><ele>382.1428571428571</ele><time>2026-04-11T09:25:13.503Z</time></trkpt><trkpt lat="44.603899" lon="7.9989233"><ele>382.57142857142856</ele><time>2026-04-11T09:25:14.503Z</time></trkpt><trkpt lat="44.6038225" lon="7.9989245"><ele>383.0</ele><time>2026-04-11T09:25:15.503Z</time></trkpt><trkpt lat="44.6037468" lon="7.9989337"><ele>383.0</ele><time>2026-04-11T09:25:16.503Z</time></trkpt><trkpt lat="44.6036711" lon="7.9989463"><ele>383.0</ele><time>2026-04-11T09:25:17.503Z</time></trkpt><trkpt lat="44.6035943" lon="7.9989418"><ele>383.0</ele><time>2026-04-11T09:25:18.503Z</time></trkpt><trkpt lat="44.6035152" lon="7.9989458"><ele>383.0</ele><time>2026-04-11T09:25:19.503Z</time></trkpt><trkpt lat="44.6034318" lon="7.9989692"><ele>383.0</ele><time>2026-04-11T09:25:20.503Z</time></trkpt><trkpt lat="44.6033512" lon="7.9989934"><ele>383.0</ele><time>2026-04-11T09:25:21.503Z</time></trkpt><trkpt lat="44.6032654" lon="7.9990263"><ele>382.1666666666667</ele><time>2026-04-11T09:25:22.503Z</time></trkpt><trkpt lat="44.6031791" lon="7.9990506"><ele>381.33333333333337</ele><time>2026-04-11T09:25:23.503Z</time></trkpt><trkpt lat="44.6031108" lon="7.999077"><ele>380.5</ele><time>2026-04-11T09:25:24.503Z</time></trkpt><trkpt lat="44.6030394" lon="7.999098"><ele>379.6666666666667</ele><time>2026-04-11T09:25:25.503Z</time></trkpt><trkpt lat="44.602959" lon="7.9991167"><ele>378.8333333333333</ele><time>2026-04-11T09:25:26.503Z</time></trkpt><trkpt lat="44.6028826" lon="7.9991405"><ele>378.0</ele><time>2026-04-11T09:25:27.503Z</time></trkpt><trkpt lat="44.6028093" lon="7.9991674"><ele>377.85714285714283</ele><time>2026-04-11T09:25:28.503Z</time></trkpt><trkpt lat="44.6027356" lon="7.9992053"><ele>377.7142857142857</ele><time>2026-04-11T09:25:29.503Z</time></trkpt><trkpt lat="44.6026673" lon="7.9992438"><ele>377.57142857142856</ele><time>2026-04-11T09:25:30.503Z</time></trkpt><trkpt lat="44.6025926" lon="7.9992783"><ele>377.42857142857144</ele><time>2026-04-11T09:25:31.503Z</time></trkpt><trkpt lat="44.602518" lon="7.9993029"><ele>377.2857142857143</ele><time>2026-04-11T09:25:32.503Z</time></trkpt><trkpt lat="44.6024531" lon="7.9993151"><ele>377.1428571428571</ele><time>2026-04-11T09:25:33.503Z</time></trkpt><trkpt lat="44.602384" lon="7.9993228"><ele>377.0</ele><time>2026-04-11T09:25:34.503Z</time></trkpt><trkpt lat="44.6023178" lon="7.9993221"><ele>377.0</ele><time>2026-04-11T09:25:35.503Z</time></trkpt><trkpt lat="44.6021931" lon="7.9993334"><ele>377.0</ele><time>2026-04-11T09:25:37.503Z</time></trkpt><trkpt lat="44.6020769" lon="7.9993633"><ele>377.0</ele><time>2026-04-11T09:25:39.503Z</time></trkpt><trkpt lat="44.6019673" lon="7.9993885"><ele>377.0</ele><time>2026-04-11T09:25:41.503Z</time></trkpt><trkpt lat="44.60185" lon="7.9994315"><ele>377.1666666666667</ele><time>2026-04-11T09:25:43.503Z</time></trkpt><trkpt lat="44.6017846" lon="7.9994494"><ele>377.33333333333337</ele><time>2026-04-11T09:25:44.503Z</time></trkpt><trkpt lat="44.6017192" lon="7.9994581"><ele>377.5</ele><time>2026-04-11T09:25:45.503Z</time></trkpt><trkpt lat="44.6015956" lon="7.9994887"><ele>377.6666666666667</ele><time>2026-04-11T09:25:47.503Z</time></trkpt><trkpt lat="44.6015326" lon="7.9995036"><ele>377.8333333333333</ele><time>2026-04-11T09:25:48.503Z</time></trkpt><trkpt lat="44.6014644" lon="7.9995228"><ele>378.0</ele><time>2026-04-11T09:25:49.503Z</time></trkpt><trkpt lat="44.6013905" lon="7.9995451"><ele>378.0</ele><time>2026-04-11T09:25:50.503Z</time></trkpt><trkpt lat="44.6013174" lon="7.9995706"><ele>378.0</ele><time>2026-04-11T09:25:51.503Z</time></trkpt><trkpt lat="44.6012402" lon="7.9995913"><ele>378.0</ele><time>2026-04-11T09:25:52.503Z</time></trkpt><trkpt lat="44.6011604" lon="7.99961"><ele>378.0</ele><time>2026-04-11T09:25:53.503Z</time></trkpt><trkpt lat="44.6010819" lon="7.9996324"><ele>378.0</ele><time>2026-04-11T09:25:54.503Z</time></trkpt><trkpt lat="44.6009978" lon="7.9996609"><ele>378.0</ele><time>2026-04-11T09:25:55.503Z</time></trkpt><trkpt lat="44.6009097" lon="7.9996865"><ele>378.0</ele><time>2026-04-11T09:25:56.503Z</time></trkpt><trkpt lat="44.6008211" lon="7.9997187"><ele>378.0</ele><time>2026-04-11T09:25:57.503Z</time></trkpt><trkpt lat="44.6007289" lon="7.9997408"><ele>378.0</ele><time>2026-04-11T09:25:58.503Z</time></trkpt><trkpt lat="44.6006344" lon="7.9997656"><ele>378.0</ele><time>2026-04-11T09:25:59.503Z</time></trkpt><trkpt lat="44.600537" lon="7.9997882"><ele>378.0</ele><time>2026-04-11T09:26:00.503Z</time></trkpt><trkpt lat="44.6004403" lon="7.9998199"><ele>378.0</ele><time>2026-04-11T09:26:01.503Z</time></trkpt><trkpt lat="44.6003461" lon="7.9998674"><ele>378.0</ele><time>2026-04-11T09:26:02.503Z</time></trkpt><trkpt lat="44.6002459" lon="7.9999393"><ele>378.0</ele><time>2026-04-11T09:26:03.503Z</time></trkpt><trkpt lat="44.6001562" lon="8.0000424"><ele>378.0</ele><time>2026-04-11T09:26:04.503Z</time></trkpt><trkpt lat="44.6000752" lon="8.0001661"><ele>378.0</ele><time>2026-04-11T09:26:05.503Z</time></trkpt><trkpt lat="44.600009" lon="8.0003061"><ele>378.0</ele><time>2026-04-11T09:26:06.503Z</time></trkpt><trkpt lat="44.5999422" lon="8.0004457"><ele>378.0</ele><time>2026-04-11T09:26:07.503Z</time></trkpt><trkpt lat="44.5998848" lon="8.0005801"><ele>378.0</ele><time>2026-04-11T09:26:08.503Z</time></trkpt><trkpt lat="44.5998311" lon="8.000721"><ele>378.0</ele><time>2026-04-11T09:26:09.503Z</time></trkpt><trkpt lat="44.5997813" lon="8.0008498"><ele>378.0</ele><time>2026-04-11T09:26:10.503Z</time></trkpt><trkpt lat="44.599747" lon="8.0009887"><ele>378.2</ele><time>2026-04-11T09:26:11.503Z</time></trkpt><trkpt lat="44.5997312" lon="8.0011236"><ele>378.4</ele><time>2026-04-11T09:26:12.503Z</time></trkpt><trkpt lat="44.5997321" lon="8.0012533"><ele>378.59999999999997</ele><time>2026-04-11T09:26:13.503Z</time></trkpt><trkpt lat="44.5997553" lon="8.0013804"><ele>378.79999999999995</ele><time>2026-04-11T09:26:14.503Z</time></trkpt><trkpt lat="44.5997869" lon="8.0015067"><ele>379.0</ele><time>2026-04-11T09:26:15.503Z</time></trkpt><trkpt lat="44.5998124" lon="8.0016096"><ele>379.3333333333333</ele><time>2026-04-11T09:26:16.503Z</time></trkpt><trkpt lat="44.5998328" lon="8.0017176"><ele>379.66666666666663</ele><time>2026-04-11T09:26:17.503Z</time></trkpt><trkpt lat="44.5998553" lon="8.0018339"><ele>380.0</ele><time>2026-04-11T09:26:18.503Z</time></trkpt><trkpt lat="44.5998797" lon="8.0019349"><ele>380.3333333333333</ele><time>2026-04-11T09:26:19.503Z</time></trkpt><trkpt lat="44.5998891" lon="8.002023"><ele>380.6666666666667</ele><time>2026-04-11T09:26:20.503Z</time></trkpt><trkpt lat="44.5998972" lon="8.0021157"><ele>381.0</ele><time>2026-04-11T09:26:21.503Z</time></trkpt><trkpt lat="44.5999101" lon="8.0022797"><ele>381.0</ele><time>2026-04-11T09:26:23.503Z</time></trkpt><trkpt lat="44.5999186" lon="8.002429"><ele>381.0</ele><time>2026-04-11T09:26:25.503Z</time></trkpt><trkpt lat="44.5999284" lon="8.0025589"><ele>381.0</ele><time>2026-04-11T09:26:27.503Z</time></trkpt><trkpt lat="44.5999535" lon="8.0026663"><ele>381.0</ele><time>2026-04-11T09:26:29.503Z</time></trkpt><trkpt lat="44.5999675" lon="8.0027856"><ele>381.0</ele><time>2026-04-11T09:26:31.503Z</time></trkpt><trkpt lat="44.5999856" lon="8.0028882"><ele>381.0</ele><time>2026-04-11T09:26:33.503Z</time></trkpt><trkpt lat="44.6000146" lon="8.0029928"><ele>381.57142857142856</ele><time>2026-04-11T09:26:35.503Z</time></trkpt><trkpt lat="44.6000489" lon="8.0030847"><ele>382.14285714285717</ele><time>2026-04-11T09:26:37.503Z</time></trkpt><trkpt lat="44.60009" lon="8.0031702"><ele>382.7142857142857</ele><time>2026-04-11T09:26:39.503Z</time></trkpt><trkpt lat="44.6001321" lon="8.0032552"><ele>383.2857142857143</ele><time>2026-04-11T09:26:41.503Z</time></trkpt><trkpt lat="44.6001728" lon="8.0033374"><ele>383.8571428571429</ele><time>2026-04-11T09:26:43.503Z</time></trkpt><trkpt lat="44.6002149" lon="8.0034185"><ele>384.42857142857144</ele><time>2026-04-11T09:26:45.503Z</time></trkpt><trkpt lat="44.6002648" lon="8.0035022"><ele>385.0</ele><time>2026-04-11T09:26:47.503Z</time></trkpt><trkpt lat="44.6003111" lon="8.0035908"><ele>384.42857142857144</ele><time>2026-04-11T09:26:49.503Z</time></trkpt><trkpt lat="44.6003557" lon="8.0036664"><ele>383.8571428571429</ele><time>2026-04-11T09:26:51.503Z</time></trkpt><trkpt lat="44.6003898" lon="8.0037492"><ele>383.2857142857143</ele><time>2026-04-11T09:26:53.503Z</time></trkpt><trkpt lat="44.6004261" lon="8.0038277"><ele>382.7142857142857</ele><time>2026-04-11T09:26:55.503Z</time></trkpt><trkpt lat="44.6004635" lon="8.0039008"><ele>382.14285714285717</ele><time>2026-04-11T09:26:57.503Z</time></trkpt><trkpt lat="44.6005052" lon="8.0039743"><ele>381.57142857142856</ele><time>2026-04-11T09:26:59.503Z</time></trkpt><trkpt lat="44.6005607" lon="8.0040798"><ele>381.0</ele><time>2026-04-11T09:27:02.503Z</time></trkpt><trkpt lat="44.6006091" lon="8.0041804"><ele>382.5</ele><time>2026-04-11T09:27:05.503Z</time></trkpt><trkpt lat="44.6006595" lon="8.0042694"><ele>384.0</ele><time>2026-04-11T09:27:08.503Z</time></trkpt><trkpt lat="44.6007166" lon="8.0043542"><ele>385.5</ele><time>2026-04-11T09:27:11.503Z</time></trkpt><trkpt lat="44.6007701" lon="8.0044563"><ele>387.0</ele><time>2026-04-11T09:27:14.503Z</time></trkpt><trkpt lat="44.6008242" lon="8.0045404"><ele>388.5</ele><time>2026-04-11T09:27:17.503Z</time></trkpt><trkpt lat="44.6008706" lon="8.0046375"><ele>390.0</ele><time>2026-04-11T09:27:20.503Z</time></trkpt><trkpt lat="44.6009097" lon="8.0047471"><ele>390.0</ele><time>2026-04-11T09:27:23.503Z</time></trkpt><trkpt lat="44.6009295" lon="8.0048557"><ele>390.0</ele><time>2026-04-11T09:27:26.503Z</time></trkpt><trkpt lat="44.60089" lon="8.0049453"><ele>390.0</ele><time>2026-04-11T09:27:29.503Z</time></trkpt><trkpt lat="44.6008199" lon="8.0049863"><ele>390.0</ele><time>2026-04-11T09:27:32.503Z</time></trkpt><trkpt lat="44.6007463" lon="8.0049724"><ele>390.0</ele><time>2026-04-11T09:27:35.503Z</time></trkpt><trkpt lat="44.6006959" lon="8.0048769"><ele>390.0</ele><time>2026-04-11T09:27:38.503Z</time></trkpt><trkpt lat="44.6006405" lon="8.0047879"><ele>390.0</ele><time>2026-04-11T09:27:41.503Z</time></trkpt><trkpt lat="44.6006169" lon="8.0046668"><ele>390.0</ele><time>2026-04-11T09:27:44.503Z</time></trkpt><trkpt lat="44.6005871" lon="8.0045708"><ele>390.0</ele><time>2026-04-11T09:27:46.503Z</time></trkpt><trkpt lat="44.6005555" lon="8.0044942"><ele>390.0</ele><time>2026-04-11T09:27:48.503Z</time></trkpt><trkpt lat="44.6005067" lon="8.0044319"><ele>390.0</ele><time>2026-04-11T09:27:50.503Z</time></trkpt><trkpt lat="44.600453" lon="8.0043402"><ele>390.0</ele><time>2026-04-11T09:27:53.503Z</time></trkpt><trkpt lat="44.6004128" lon="8.0042709"><ele>390.0</ele><time>2026-04-11T09:27:55.503Z</time></trkpt><trkpt lat="44.6003556" lon="8.0042194"><ele>390.6666666666667</ele><time>2026-04-11T09:27:57.503Z</time></trkpt><trkpt lat="44.6002974" lon="8.0041848"><ele>391.33333333333337</ele><time>2026-04-11T09:27:59.503Z</time></trkpt><trkpt lat="44.600233" lon="8.0041377"><ele>392.0</ele><time>2026-04-11T09:28:01.503Z</time></trkpt><trkpt lat="44.6001592" lon="8.004083"><ele>392.6666666666667</ele><time>2026-04-11T09:28:03.503Z</time></trkpt><trkpt lat="44.6001033" lon="8.004"><ele>393.33333333333337</ele><time>2026-04-11T09:28:06.503Z</time></trkpt><trkpt lat="44.6000113" lon="8.0039871"><ele>394.0</ele><time>2026-04-11T09:28:09.503Z</time></trkpt><trkpt lat="44.5999375" lon="8.0040283"><ele>394.0</ele><time>2026-04-11T09:28:12.503Z</time></trkpt><trkpt lat="44.5998851" lon="8.0041519"><ele>394.0</ele><time>2026-04-11T09:28:15.503Z</time></trkpt><trkpt lat="44.5998595" lon="8.0043025"><ele>394.0</ele><time>2026-04-11T09:28:17.503Z</time></trkpt><trkpt lat="44.5998303" lon="8.0044132"><ele>394.0</ele><time>2026-04-11T09:28:20.503Z</time></trkpt><trkpt lat="44.5998246" lon="8.0045128"><ele>394.0</ele><time>2026-04-11T09:28:23.503Z</time></trkpt><trkpt lat="44.5998323" lon="8.0046566"><ele>396.00000000000006</ele><time>2026-04-11T09:28:26.503Z</time></trkpt><trkpt lat="44.5998196" lon="8.0047583"><ele>398.0</ele><time>2026-04-11T09:28:29.503Z</time></trkpt><trkpt lat="44.5997829" lon="8.0048547"><ele>400.0</ele><time>2026-04-11T09:28:32.503Z</time></trkpt><trkpt lat="44.5997699" lon="8.0049564"><ele>402.0</ele><time>2026-04-11T09:28:35.503Z</time></trkpt><trkpt lat="44.5997466" lon="8.0050437"><ele>404.00000000000006</ele><time>2026-04-11T09:28:37.503Z</time></trkpt><trkpt lat="44.5997248" lon="8.0051572"><ele>406.0</ele><time>2026-04-11T09:28:40.503Z</time></trkpt><trkpt lat="44.5996767" lon="8.0052381"><ele>405.50000000000006</ele><time>2026-04-11T09:28:43.503Z</time></trkpt><trkpt lat="44.5996091" lon="8.0053074"><ele>405.0</ele><time>2026-04-11T09:28:46.503Z</time></trkpt><trkpt lat="44.5995523" lon="8.0053827"><ele>404.5</ele><time>2026-04-11T09:28:49.503Z</time></trkpt><trkpt lat="44.5994907" lon="8.0054527"><ele>404.0</ele><time>2026-04-11T09:28:52.504Z</time></trkpt><trkpt lat="44.5994215" lon="8.0055085"><ele>403.50000000000006</ele><time>2026-04-11T09:28:55.504Z</time></trkpt><trkpt lat="44.5993612" lon="8.0055791"><ele>403.0</ele><time>2026-04-11T09:28:58.504Z</time></trkpt><trkpt lat="44.5993022" lon="8.0056401"><ele>403.0</ele><time>2026-04-11T09:29:02.504Z</time></trkpt><trkpt lat="44.5992345" lon="8.0056859"><ele>403.0</ele><time>2026-04-11T09:29:05.504Z</time></trkpt><trkpt lat="44.599184" lon="8.0057499"><ele>403.0</ele><time>2026-04-11T09:29:08.504Z</time></trkpt><trkpt lat="44.5991235" lon="8.0057987"><ele>403.0</ele><time>2026-04-11T09:29:11.504Z</time></trkpt><trkpt lat="44.5990607" lon="8.005842"><ele>403.0</ele><time>2026-04-11T09:29:14.504Z</time></trkpt><trkpt lat="44.5989984" lon="8.0058993"><ele>403.0</ele><time>2026-04-11T09:29:17.505Z</time></trkpt><trkpt lat="44.5989493" lon="8.0059851"><ele>403.0</ele><time>2026-04-11T09:29:20.504Z</time></trkpt><trkpt lat="44.5988839" lon="8.0060271"><ele>404.1666666666667</ele><time>2026-04-11T09:29:23.504Z</time></trkpt><trkpt lat="44.5988287" lon="8.0060879"><ele>405.33333333333337</ele><time>2026-04-11T09:29:25.504Z</time></trkpt><trkpt lat="44.5987713" lon="8.0061574"><ele>406.5</ele><time>2026-04-11T09:29:29.504Z</time></trkpt><trkpt lat="44.5987072" lon="8.0062045"><ele>407.66666666666663</ele><time>2026-04-11T09:29:32.504Z</time></trkpt><trkpt lat="44.598624" lon="8.0062456"><ele>408.8333333333333</ele><time>2026-04-11T09:29:35.504Z</time></trkpt><trkpt lat="44.5985512" lon="8.0062796"><ele>410.0</ele><time>2026-04-11T09:29:38.504Z</time></trkpt><trkpt lat="44.5984838" lon="8.0063076"><ele>410.0</ele><time>2026-04-11T09:29:40.504Z</time></trkpt><trkpt lat="44.5984192" lon="8.0063422"><ele>410.0</ele><time>2026-04-11T09:29:42.504Z</time></trkpt><trkpt lat="44.5983549" lon="8.0063788"><ele>410.0</ele><time>2026-04-11T09:29:44.504Z</time></trkpt><trkpt lat="44.5982857" lon="8.0064357"><ele>410.0</ele><time>2026-04-11T09:29:46.504Z</time></trkpt><trkpt lat="44.5982123" lon="8.0064716"><ele>410.0</ele><time>2026-04-11T09:29:48.504Z</time></trkpt><trkpt lat="44.5981444" lon="8.0065111"><ele>410.0</ele><time>2026-04-11T09:29:50.504Z</time></trkpt><trkpt lat="44.5980727" lon="8.0065222"><ele>410.0</ele><time>2026-04-11T09:29:52.504Z</time></trkpt><trkpt lat="44.5979977" lon="8.0065618"><ele>409.99999999999994</ele><time>2026-04-11T09:29:54.504Z</time></trkpt><trkpt lat="44.5979054" lon="8.0065966"><ele>410.0</ele><time>2026-04-11T09:29:56.504Z</time></trkpt><trkpt lat="44.5978312" lon="8.0066232"><ele>410.0</ele><time>2026-04-11T09:29:58.504Z</time></trkpt><trkpt lat="44.5977688" lon="8.0066377"><ele>410.0</ele><time>2026-04-11T09:29:59.504Z</time></trkpt><trkpt lat="44.5976769" lon="8.006655"><ele>409.99999999999994</ele><time>2026-04-11T09:30:01.504Z</time></trkpt><trkpt lat="44.5975602" lon="8.00667"><ele>410.0</ele><time>2026-04-11T09:30:03.504Z</time></trkpt><trkpt lat="44.597474" lon="8.0066848"><ele>413.5</ele><time>2026-04-11T09:30:05.504Z</time></trkpt><trkpt lat="44.5973735" lon="8.0066936"><ele>417.0</ele><time>2026-04-11T09:30:07.505Z</time></trkpt><trkpt lat="44.5972562" lon="8.0067109"><ele>420.5</ele><time>2026-04-11T09:30:09.504Z</time></trkpt><trkpt lat="44.5971395" lon="8.006713"><ele>424.0</ele><time>2026-04-11T09:30:11.504Z</time></trkpt><trkpt lat="44.5970178" lon="8.0066991"><ele>422.50000000000006</ele><time>2026-04-11T09:30:13.504Z</time></trkpt><trkpt lat="44.5968978" lon="8.0066574"><ele>421.0</ele><time>2026-04-11T09:30:15.505Z</time></trkpt><trkpt lat="44.596838" lon="8.0066269"><ele>419.5</ele><time>2026-04-11T09:30:16.505Z</time></trkpt><trkpt lat="44.5967807" lon="8.0065885"><ele>418.0</ele><time>2026-04-11T09:30:17.504Z</time></trkpt><trkpt lat="44.5967257" lon="8.0065391"><ele>416.50000000000006</ele><time>2026-04-11T09:30:18.504Z</time></trkpt><trkpt lat="44.596672" lon="8.0064869"><ele>415.0</ele><time>2026-04-11T09:30:19.504Z</time></trkpt><trkpt lat="44.5965769" lon="8.0063761"><ele>415.0</ele><time>2026-04-11T09:30:21.504Z</time></trkpt><trkpt lat="44.5964759" lon="8.0062872"><ele>415.0</ele><time>2026-04-11T09:30:23.504Z</time></trkpt><trkpt lat="44.5963701" lon="8.0061857"><ele>415.0</ele><time>2026-04-11T09:30:25.504Z</time></trkpt><trkpt lat="44.5962962" lon="8.0060734"><ele>415.0</ele><time>2026-04-11T09:30:27.504Z</time></trkpt><trkpt lat="44.5962137" lon="8.0059599"><ele>418.2</ele><time>2026-04-11T09:30:29.504Z</time></trkpt><trkpt lat="44.5961309" lon="8.005842"><ele>421.4</ele><time>2026-04-11T09:30:31.504Z</time></trkpt><trkpt lat="44.5960715" lon="8.0057083"><ele>424.6</ele><time>2026-04-11T09:30:33.504Z</time></trkpt><trkpt lat="44.5960414" lon="8.0055384"><ele>427.8</ele><time>2026-04-11T09:30:35.504Z</time></trkpt><trkpt lat="44.5960304" lon="8.0054241"><ele>431.0</ele><time>2026-04-11T09:30:36.504Z</time></trkpt><trkpt lat="44.5960097" lon="8.0052765"><ele>431.0</ele><time>2026-04-11T09:30:38.504Z</time></trkpt><trkpt lat="44.5959972" lon="8.0051448"><ele>431.0</ele><time>2026-04-11T09:30:40.504Z</time></trkpt><trkpt lat="44.5959498" lon="8.005005"><ele>431.0</ele><time>2026-04-11T09:30:42.505Z</time></trkpt><trkpt lat="44.595883" lon="8.0049075"><ele>431.0</ele><time>2026-04-11T09:30:44.504Z</time></trkpt><trkpt lat="44.5957921" lon="8.0048488"><ele>431.0</ele><time>2026-04-11T09:30:46.504Z</time></trkpt><trkpt lat="44.5956936" lon="8.0048164"><ele>429.4</ele><time>2026-04-11T09:30:48.504Z</time></trkpt><trkpt lat="44.5955856" lon="8.0047992"><ele>427.8</ele><time>2026-04-11T09:30:50.504Z</time></trkpt><trkpt lat="44.5954794" lon="8.0047712"><ele>426.2</ele><time>2026-04-11T09:30:52.504Z</time></trkpt><trkpt lat="44.5953725" lon="8.004735"><ele>424.59999999999997</ele><time>2026-04-11T09:30:54.505Z</time></trkpt><trkpt lat="44.595284" lon="8.0046559"><ele>423.0</ele><time>2026-04-11T09:30:56.504Z</time></trkpt><trkpt lat="44.5951966" lon="8.0045727"><ele>423.0</ele><time>2026-04-11T09:30:58.504Z</time></trkpt><trkpt lat="44.5951055" lon="8.0044877"><ele>423.0</ele><time>2026-04-11T09:31:00.504Z</time></trkpt><trkpt lat="44.5950191" lon="8.0043854"><ele>423.0</ele><time>2026-04-11T09:31:02.505Z</time></trkpt><trkpt lat="44.5949266" lon="8.0042917"><ele>423.0</ele><time>2026-04-11T09:31:04.504Z</time></trkpt><trkpt lat="44.5948289" lon="8.004196"><ele>423.59999999999997</ele><time>2026-04-11T09:31:06.504Z</time></trkpt><trkpt lat="44.594733" lon="8.0040826"><ele>424.2</ele><time>2026-04-11T09:31:08.504Z</time></trkpt><trkpt lat="44.5946468" lon="8.0039556"><ele>424.8</ele><time>2026-04-11T09:31:10.504Z</time></trkpt><trkpt lat="44.5946007" lon="8.0038922"><ele>425.4</ele><time>2026-04-11T09:31:11.504Z</time></trkpt><trkpt lat="44.5945611" lon="8.0038216"><ele>426.0</ele><time>2026-04-11T09:31:12.504Z</time></trkpt><trkpt lat="44.5944836" lon="8.0036909"><ele>426.0</ele><time>2026-04-11T09:31:14.504Z</time></trkpt><trkpt lat="44.594408" lon="8.0035581"><ele>426.0</ele><time>2026-04-11T09:31:16.504Z</time></trkpt><trkpt lat="44.5943665" lon="8.0034894"><ele>426.0</ele><time>2026-04-11T09:31:17.504Z</time></trkpt><trkpt lat="44.5942863" lon="8.0033706"><ele>426.0</ele><time>2026-04-11T09:31:19.504Z</time></trkpt><trkpt lat="44.5941951" lon="8.0032662"><ele>426.0</ele><time>2026-04-11T09:31:21.504Z</time></trkpt><trkpt lat="44.5940816" lon="8.0031875"><ele>425.20000000000005</ele><time>2026-04-11T09:31:23.504Z</time></trkpt><trkpt lat="44.5939736" lon="8.0031188"><ele>424.40000000000003</ele><time>2026-04-11T09:31:25.504Z</time></trkpt><trkpt lat="44.5938813" lon="8.0030324"><ele>423.6</ele><time>2026-04-11T09:31:27.504Z</time></trkpt><trkpt lat="44.5937946" lon="8.002936"><ele>422.8</ele><time>2026-04-11T09:31:29.504Z</time></trkpt><trkpt lat="44.5937063" lon="8.0028512"><ele>422.0</ele><time>2026-04-11T09:31:31.504Z</time></trkpt><trkpt lat="44.5936215" lon="8.0027802"><ele>423.8</ele><time>2026-04-11T09:31:33.504Z</time></trkpt><trkpt lat="44.5935292" lon="8.002725"><ele>425.6</ele><time>2026-04-11T09:31:35.504Z</time></trkpt><trkpt lat="44.5934364" lon="8.0026692"><ele>427.40000000000003</ele><time>2026-04-11T09:31:37.504Z</time></trkpt><trkpt lat="44.5933362" lon="8.0026327"><ele>429.20000000000005</ele><time>2026-04-11T09:31:39.504Z</time></trkpt><trkpt lat="44.5932247" lon="8.0026283"><ele>431.0</ele><time>2026-04-11T09:31:41.504Z</time></trkpt><trkpt lat="44.5931249" lon="8.0026546"><ele>431.0</ele><time>2026-04-11T09:31:43.505Z</time></trkpt><trkpt lat="44.5930282" lon="8.0026872"><ele>431.0</ele><time>2026-04-11T09:31:45.504Z</time></trkpt><trkpt lat="44.5929276" lon="8.0027335"><ele>431.0</ele><time>2026-04-11T09:31:47.504Z</time></trkpt><trkpt lat="44.5928304" lon="8.0027826"><ele>431.0</ele><time>2026-04-11T09:31:49.504Z</time></trkpt><trkpt lat="44.59273" lon="8.0028363"><ele>431.0</ele><time>2026-04-11T09:31:51.509Z</time></trkpt><trkpt lat="44.5926311" lon="8.0028803"><ele>430.6</ele><time>2026-04-11T09:31:53.509Z</time></trkpt><trkpt lat="44.5925293" lon="8.0029186"><ele>430.20000000000005</ele><time>2026-04-11T09:31:55.509Z</time></trkpt><trkpt lat="44.5924289" lon="8.002959"><ele>429.79999999999995</ele><time>2026-04-11T09:31:57.509Z</time></trkpt><trkpt lat="44.59233" lon="8.0029912"><ele>429.4</ele><time>2026-04-11T09:31:59.509Z</time></trkpt><trkpt lat="44.5922383" lon="8.0030117"><ele>429.0</ele><time>2026-04-11T09:32:01.509Z</time></trkpt><trkpt lat="44.5921443" lon="8.0030416"><ele>429.0</ele><time>2026-04-11T09:32:03.509Z</time></trkpt><trkpt lat="44.592035" lon="8.0030484"><ele>429.0</ele><time>2026-04-11T09:32:05.509Z</time></trkpt><trkpt lat="44.5919426" lon="8.0030505"><ele>429.0</ele><time>2026-04-11T09:32:07.509Z</time></trkpt><trkpt lat="44.5918418" lon="8.003044"><ele>429.0</ele><time>2026-04-11T09:32:09.509Z</time></trkpt><trkpt lat="44.5917426" lon="8.0030415"><ele>429.0</ele><time>2026-04-11T09:32:11.509Z</time></trkpt><trkpt lat="44.5916452" lon="8.0030245"><ele>429.4</ele><time>2026-04-11T09:32:13.509Z</time></trkpt><trkpt lat="44.5915448" lon="8.0030105"><ele>429.79999999999995</ele><time>2026-04-11T09:32:15.509Z</time></trkpt><trkpt lat="44.5914504" lon="8.0029847"><ele>430.20000000000005</ele><time>2026-04-11T09:32:17.509Z</time></trkpt><trkpt lat="44.5913422" lon="8.0029874"><ele>430.6</ele><time>2026-04-11T09:32:19.509Z</time></trkpt><trkpt lat="44.5912382" lon="8.002993"><ele>431.0</ele><time>2026-04-11T09:32:21.509Z</time></trkpt><trkpt lat="44.5911358" lon="8.0029865"><ele>431.49999999999994</ele><time>2026-04-11T09:32:23.509Z</time></trkpt><trkpt lat="44.5910311" lon="8.0029602"><ele>432.0</ele><time>2026-04-11T09:32:25.509Z</time></trkpt><trkpt lat="44.5909219" lon="8.0029272"><ele>432.5</ele><time>2026-04-11T09:32:27.509Z</time></trkpt><trkpt lat="44.590856" lon="8.0029171"><ele>433.0</ele><time>2026-04-11T09:32:28.509Z</time></trkpt><trkpt lat="44.5907791" lon="8.0029078"><ele>433.49999999999994</ele><time>2026-04-11T09:32:29.509Z</time></trkpt><trkpt lat="44.5907" lon="8.0029028"><ele>434.0</ele><time>2026-04-11T09:32:30.509Z</time></trkpt><trkpt lat="44.5906241" lon="8.0028947"><ele>433.99999999999994</ele><time>2026-04-11T09:32:31.509Z</time></trkpt><trkpt lat="44.5905476" lon="8.0028838"><ele>434.0</ele><time>2026-04-11T09:32:32.509Z</time></trkpt><trkpt lat="44.590467" lon="8.0028763"><ele>434.0</ele><time>2026-04-11T09:32:33.509Z</time></trkpt><trkpt lat="44.5903861" lon="8.0028676"><ele>434.0</ele><time>2026-04-11T09:32:34.509Z</time></trkpt><trkpt lat="44.5902985" lon="8.0028634"><ele>433.99999999999994</ele><time>2026-04-11T09:32:35.509Z</time></trkpt><trkpt lat="44.5902059" lon="8.0028604"><ele>434.0</ele><time>2026-04-11T09:32:36.509Z</time></trkpt><trkpt lat="44.5901164" lon="8.0028604"><ele>432.79999999999995</ele><time>2026-04-11T09:32:37.509Z</time></trkpt><trkpt lat="44.5900162" lon="8.0028702"><ele>431.59999999999997</ele><time>2026-04-11T09:32:38.509Z</time></trkpt><trkpt lat="44.5899186" lon="8.0028977"><ele>430.4</ele><time>2026-04-11T09:32:39.509Z</time></trkpt><trkpt lat="44.5898195" lon="8.0029329"><ele>429.2</ele><time>2026-04-11T09:32:40.509Z</time></trkpt><trkpt lat="44.5897257" lon="8.0029857"><ele>428.0</ele><time>2026-04-11T09:32:41.509Z</time></trkpt><trkpt lat="44.5896414" lon="8.0030654"><ele>428.0</ele><time>2026-04-11T09:32:42.509Z</time></trkpt><trkpt lat="44.5895613" lon="8.0031588"><ele>427.99999999999994</ele><time>2026-04-11T09:32:43.509Z</time></trkpt><trkpt lat="44.589481" lon="8.0032602"><ele>427.99999999999994</ele><time>2026-04-11T09:32:44.509Z</time></trkpt><trkpt lat="44.5894074" lon="8.0033712"><ele>428.0</ele><time>2026-04-11T09:32:45.509Z</time></trkpt><trkpt lat="44.5893358" lon="8.0034887"><ele>428.0</ele><time>2026-04-11T09:32:46.509Z</time></trkpt><trkpt lat="44.5892611" lon="8.003607"><ele>428.5</ele><time>2026-04-11T09:32:47.509Z</time></trkpt><trkpt lat="44.5891855" lon="8.0037349"><ele>429.0</ele><time>2026-04-11T09:32:48.51Z</time></trkpt><trkpt lat="44.5891115" lon="8.003867"><ele>429.5</ele><time>2026-04-11T09:32:49.509Z</time></trkpt><trkpt lat="44.5890338" lon="8.0039977"><ele>430.0</ele><time>2026-04-11T09:32:50.509Z</time></trkpt><trkpt lat="44.5889576" lon="8.0041271"><ele>428.75</ele><time>2026-04-11T09:32:51.509Z</time></trkpt><trkpt lat="44.5888826" lon="8.0042606"><ele>427.5</ele><time>2026-04-11T09:32:52.509Z</time></trkpt><trkpt lat="44.5887982" lon="8.004388"><ele>426.25</ele><time>2026-04-11T09:32:53.509Z</time></trkpt><trkpt lat="44.5887138" lon="8.004506"><ele>425.0</ele><time>2026-04-11T09:32:54.509Z</time></trkpt><trkpt lat="44.5886336" lon="8.0046311"><ele>423.75</ele><time>2026-04-11T09:32:55.509Z</time></trkpt><trkpt lat="44.5885608" lon="8.0047592"><ele>422.5</ele><time>2026-04-11T09:32:56.509Z</time></trkpt><trkpt lat="44.588496" lon="8.0048915"><ele>421.25</ele><time>2026-04-11T09:32:57.509Z</time></trkpt><trkpt lat="44.588442" lon="8.0050332"><ele>420.0</ele><time>2026-04-11T09:32:58.509Z</time></trkpt><trkpt lat="44.5884058" lon="8.0051859"><ele>420.0</ele><time>2026-04-11T09:32:59.509Z</time></trkpt><trkpt lat="44.5883805" lon="8.0053406"><ele>420.0</ele><time>2026-04-11T09:33:00.509Z</time></trkpt><trkpt lat="44.5883698" lon="8.005497"><ele>420.0</ele><time>2026-04-11T09:33:01.509Z</time></trkpt><trkpt lat="44.5883665" lon="8.0056423"><ele>420.0</ele><time>2026-04-11T09:33:02.509Z</time></trkpt><trkpt lat="44.5883773" lon="8.0057846"><ele>420.0</ele><time>2026-04-11T09:33:03.509Z</time></trkpt><trkpt lat="44.5883881" lon="8.0059284"><ele>421.1666666666667</ele><time>2026-04-11T09:33:04.509Z</time></trkpt><trkpt lat="44.588418" lon="8.0060558"><ele>422.33333333333337</ele><time>2026-04-11T09:33:05.509Z</time></trkpt><trkpt lat="44.5884511" lon="8.0061655"><ele>423.5</ele><time>2026-04-11T09:33:06.509Z</time></trkpt><trkpt lat="44.5884911" lon="8.0062694"><ele>424.6666666666667</ele><time>2026-04-11T09:33:07.509Z</time></trkpt><trkpt lat="44.5885188" lon="8.0063682"><ele>425.83333333333337</ele><time>2026-04-11T09:33:08.509Z</time></trkpt><trkpt lat="44.5885445" lon="8.0064666"><ele>427.0</ele><time>2026-04-11T09:33:09.509Z</time></trkpt><trkpt lat="44.5885613" lon="8.0065572"><ele>427.00000000000006</ele><time>2026-04-11T09:33:10.51Z</time></trkpt><trkpt lat="44.588566" lon="8.0066465"><ele>427.0</ele><time>2026-04-11T09:33:11.509Z</time></trkpt><trkpt lat="44.5885333" lon="8.0067948"><ele>427.0</ele><time>2026-04-11T09:33:13.509Z</time></trkpt><trkpt lat="44.5884612" lon="8.0068654"><ele>427.0</ele><time>2026-04-11T09:33:15.509Z</time></trkpt><trkpt lat="44.5883856" lon="8.0068852"><ele>427.00000000000006</ele><time>2026-04-11T09:33:17.51Z</time></trkpt><trkpt lat="44.5883179" lon="8.0068829"><ele>427.0</ele><time>2026-04-11T09:33:19.509Z</time></trkpt><trkpt lat="44.5882528" lon="8.0068656"><ele>428.14285714285717</ele><time>2026-04-11T09:33:21.509Z</time></trkpt><trkpt lat="44.5881772" lon="8.0068609"><ele>429.2857142857143</ele><time>2026-04-11T09:33:23.509Z</time></trkpt><trkpt lat="44.5881045" lon="8.0068841"><ele>430.42857142857144</ele><time>2026-04-11T09:33:25.509Z</time></trkpt><trkpt lat="44.5880414" lon="8.0068781"><ele>431.57142857142856</ele><time>2026-04-11T09:33:27.509Z</time></trkpt><trkpt lat="44.5879611" lon="8.0068504"><ele>432.7142857142857</ele><time>2026-04-11T09:33:30.509Z</time></trkpt><trkpt lat="44.5878974" lon="8.0068394"><ele>433.8571428571429</ele><time>2026-04-11T09:33:32.509Z</time></trkpt><trkpt lat="44.5878347" lon="8.0068542"><ele>435.0</ele><time>2026-04-11T09:33:34.509Z</time></trkpt><trkpt lat="44.5877625" lon="8.0068336"><ele>435.0</ele><time>2026-04-11T09:33:37.509Z</time></trkpt><trkpt lat="44.5876685" lon="8.0068598"><ele>435.0</ele><time>2026-04-11T09:33:39.509Z</time></trkpt><trkpt lat="44.5876087" lon="8.0068288"><ele>435.0</ele><time>2026-04-11T09:33:41.509Z</time></trkpt><trkpt lat="44.5875325" lon="8.0067996"><ele>435.0</ele><time>2026-04-11T09:33:44.509Z</time></trkpt><trkpt lat="44.5874497" lon="8.0067969"><ele>435.0</ele><time>2026-04-11T09:33:47.509Z</time></trkpt><trkpt lat="44.5873701" lon="8.0068174"><ele>435.0</ele><time>2026-04-11T09:33:50.509Z</time></trkpt><trkpt lat="44.587286" lon="8.0068376"><ele>435.0</ele><time>2026-04-11T09:33:53.509Z</time></trkpt><trkpt lat="44.5872054" lon="8.0068825"><ele>435.0</ele><time>2026-04-11T09:33:56.509Z</time></trkpt><trkpt lat="44.5871437" lon="8.0069451"><ele>435.0</ele><time>2026-04-11T09:33:59.509Z</time></trkpt><trkpt lat="44.5870798" lon="8.0070118"><ele>435.0</ele><time>2026-04-11T09:34:02.51Z</time></trkpt><trkpt lat="44.5870368" lon="8.0070771"><ele>435.0</ele><time>2026-04-11T09:34:04.509Z</time></trkpt><trkpt lat="44.586977" lon="8.0071735"><ele>435.0</ele><time>2026-04-11T09:34:07.509Z</time></trkpt><trkpt lat="44.5869224" lon="8.0072621"><ele>435.8333333333333</ele><time>2026-04-11T09:34:10.509Z</time></trkpt><trkpt lat="44.5868785" lon="8.0073583"><ele>436.66666666666663</ele><time>2026-04-11T09:34:13.509Z</time></trkpt><trkpt lat="44.5868549" lon="8.0074657"><ele>437.5</ele><time>2026-04-11T09:34:16.509Z</time></trkpt><trkpt lat="44.586848" lon="8.0075835"><ele>438.3333333333333</ele><time>2026-04-11T09:34:19.509Z</time></trkpt><trkpt lat="44.5868428" lon="8.0077085"><ele>439.16666666666663</ele><time>2026-04-11T09:34:22.509Z</time></trkpt><trkpt lat="44.5868419" lon="8.0078399"><ele>440.0</ele><time>2026-04-11T09:34:25.509Z</time></trkpt><trkpt lat="44.5868521" lon="8.0079655"><ele>439.99999999999994</ele><time>2026-04-11T09:34:28.509Z</time></trkpt><trkpt lat="44.5868641" lon="8.0080809"><ele>440.0</ele><time>2026-04-11T09:34:31.509Z</time></trkpt><trkpt lat="44.5868904" lon="8.0081953"><ele>440.0</ele><time>2026-04-11T09:34:34.509Z</time></trkpt><trkpt lat="44.5869186" lon="8.0082807"><ele>440.0</ele><time>2026-04-11T09:34:36.509Z</time></trkpt><trkpt lat="44.58693" lon="8.0083696"><ele>440.0</ele><time>2026-04-11T09:34:38.509Z</time></trkpt><trkpt lat="44.5869404" lon="8.00846"><ele>439.99999999999994</ele><time>2026-04-11T09:34:40.509Z</time></trkpt><trkpt lat="44.5869471" lon="8.008557"><ele>440.0</ele><time>2026-04-11T09:34:43.509Z</time></trkpt><trkpt lat="44.5869101" lon="8.0086362"><ele>441.3333333333333</ele><time>2026-04-11T09:34:46.509Z</time></trkpt><trkpt lat="44.5868685" lon="8.0087202"><ele>442.66666666666663</ele><time>2026-04-11T09:34:49.509Z</time></trkpt><trkpt lat="44.586802" lon="8.008795"><ele>444.0</ele><time>2026-04-11T09:34:52.509Z</time></trkpt><trkpt lat="44.5867354" lon="8.0088687"><ele>445.33333333333337</ele><time>2026-04-11T09:34:55.509Z</time></trkpt><trkpt lat="44.5866728" lon="8.0089494"><ele>446.6666666666667</ele><time>2026-04-11T09:34:58.509Z</time></trkpt><trkpt lat="44.5866137" lon="8.009006"><ele>448.0</ele><time>2026-04-11T09:35:01.509Z</time></trkpt><trkpt lat="44.5865529" lon="8.0090772"><ele>448.0</ele><time>2026-04-11T09:35:05.509Z</time></trkpt><trkpt lat="44.586498" lon="8.0091229"><ele>448.0</ele><time>2026-04-11T09:35:08.509Z</time></trkpt><trkpt lat="44.5864375" lon="8.009212"><ele>448.0</ele><time>2026-04-11T09:35:11.509Z</time></trkpt><trkpt lat="44.5864078" lon="8.0092955"><ele>448.0</ele><time>2026-04-11T09:35:14.509Z</time></trkpt><trkpt lat="44.5863679" lon="8.0093748"><ele>448.0</ele><time>2026-04-11T09:35:17.51Z</time></trkpt><trkpt lat="44.5863306" lon="8.0094621"><ele>448.0</ele><time>2026-04-11T09:35:20.51Z</time></trkpt><trkpt lat="44.5862988" lon="8.0095589"><ele>448.0</ele><time>2026-04-11T09:35:23.51Z</time></trkpt><trkpt lat="44.5862569" lon="8.0096534"><ele>447.85714285714283</ele><time>2026-04-11T09:35:26.51Z</time></trkpt><trkpt lat="44.5862163" lon="8.0097555"><ele>447.7142857142857</ele><time>2026-04-11T09:35:29.51Z</time></trkpt><trkpt lat="44.5861798" lon="8.0098395"><ele>447.57142857142856</ele><time>2026-04-11T09:35:32.51Z</time></trkpt><trkpt lat="44.5861329" lon="8.0099246"><ele>447.42857142857144</ele><time>2026-04-11T09:35:35.51Z</time></trkpt><trkpt lat="44.5860839" lon="8.0100018"><ele>447.2857142857143</ele><time>2026-04-11T09:35:38.51Z</time></trkpt><trkpt lat="44.5860294" lon="8.0100721"><ele>447.1428571428571</ele><time>2026-04-11T09:35:41.51Z</time></trkpt><trkpt lat="44.5859705" lon="8.0101192"><ele>447.0</ele><time>2026-04-11T09:35:44.51Z</time></trkpt><trkpt lat="44.5859026" lon="8.0101422"><ele>450.3333333333333</ele><time>2026-04-11T09:35:47.51Z</time></trkpt><trkpt lat="44.5858371" lon="8.0101678"><ele>453.66666666666663</ele><time>2026-04-11T09:35:50.51Z</time></trkpt><trkpt lat="44.5857529" lon="8.0102176"><ele>457.0</ele><time>2026-04-11T09:35:53.511Z</time></trkpt><trkpt lat="44.5856689" lon="8.0102404"><ele>460.3333333333333</ele><time>2026-04-11T09:35:56.51Z</time></trkpt><trkpt lat="44.5855919" lon="8.0102415"><ele>463.66666666666663</ele><time>2026-04-11T09:35:59.51Z</time></trkpt><trkpt lat="44.5855239" lon="8.0102298"><ele>467.0</ele><time>2026-04-11T09:36:02.51Z</time></trkpt><trkpt lat="44.5854539" lon="8.010215"><ele>466.99999999999994</ele><time>2026-04-11T09:36:05.51Z</time></trkpt><trkpt lat="44.58539" lon="8.0102023"><ele>467.0</ele><time>2026-04-11T09:36:08.51Z</time></trkpt><trkpt lat="44.5853239" lon="8.0102515"><ele>466.99999999999994</ele><time>2026-04-11T09:36:12.51Z</time></trkpt><trkpt lat="44.5852731" lon="8.01034"><ele>466.99999999999994</ele><time>2026-04-11T09:36:15.51Z</time></trkpt><trkpt lat="44.5852349" lon="8.0104192"><ele>467.0</ele><time>2026-04-11T09:36:18.51Z</time></trkpt><trkpt lat="44.5852421" lon="8.0105139"><ele>466.99999999999994</ele><time>2026-04-11T09:36:21.51Z</time></trkpt><trkpt lat="44.5852626" lon="8.0106077"><ele>466.99999999999994</ele><time>2026-04-11T09:36:24.51Z</time></trkpt><trkpt lat="44.5853043" lon="8.0106932"><ele>466.99999999999994</ele><time>2026-04-11T09:36:27.51Z</time></trkpt><trkpt lat="44.5853565" lon="8.0107498"><ele>467.0</ele><time>2026-04-11T09:36:30.51Z</time></trkpt><trkpt lat="44.5854368" lon="8.0107991"><ele>466.99999999999994</ele><time>2026-04-11T09:36:32.51Z</time></trkpt><trkpt lat="44.5855054" lon="8.0108279"><ele>466.99999999999994</ele><time>2026-04-11T09:36:34.51Z</time></trkpt><trkpt lat="44.5855702" lon="8.0108143"><ele>467.0</ele><time>2026-04-11T09:36:37.51Z</time></trkpt><trkpt lat="44.5856552" lon="8.0108195"><ele>466.99999999999994</ele><time>2026-04-11T09:36:40.51Z</time></trkpt><trkpt lat="44.5857187" lon="8.0108237"><ele>466.99999999999994</ele><time>2026-04-11T09:36:42.51Z</time></trkpt><trkpt lat="44.5857901" lon="8.0108119"><ele>466.99999999999994</ele><time>2026-04-11T09:36:44.51Z</time></trkpt><trkpt lat="44.5858565" lon="8.010804"><ele>467.0</ele><time>2026-04-11T09:36:46.51Z</time></trkpt><trkpt lat="44.5859234" lon="8.0107812"><ele>466.99999999999994</ele><time>2026-04-11T09:36:48.51Z</time></trkpt><trkpt lat="44.5859932" lon="8.0107624"><ele>466.99999999999994</ele><time>2026-04-11T09:36:50.51Z</time></trkpt><trkpt lat="44.5860609" lon="8.0107331"><ele>467.0</ele><time>2026-04-11T09:36:52.51Z</time></trkpt><trkpt lat="44.5861248" lon="8.0106921"><ele>466.99999999999994</ele><time>2026-04-11T09:36:54.51Z</time></trkpt><trkpt lat="44.5861871" lon="8.0106407"><ele>466.99999999999994</ele><time>2026-04-11T09:36:56.51Z</time></trkpt><trkpt lat="44.5862461" lon="8.0105803"><ele>468.71428571428567</ele><time>2026-04-11T09:36:58.51Z</time></trkpt><trkpt lat="44.5863" lon="8.0105213"><ele>470.42857142857144</ele><time>2026-04-11T09:37:00.51Z</time></trkpt><trkpt lat="44.5863516" lon="8.0104631"><ele>472.1428571428571</ele><time>2026-04-11T09:37:02.51Z</time></trkpt><trkpt lat="44.5864004" lon="8.0104051"><ele>473.85714285714283</ele><time>2026-04-11T09:37:04.51Z</time></trkpt><trkpt lat="44.5864571" lon="8.0103574"><ele>475.57142857142856</ele><time>2026-04-11T09:37:06.51Z</time></trkpt><trkpt lat="44.5865208" lon="8.0103537"><ele>477.2857142857143</ele><time>2026-04-11T09:37:08.51Z</time></trkpt><trkpt lat="44.5865718" lon="8.0104335"><ele>479.0</ele><time>2026-04-11T09:37:11.51Z</time></trkpt><trkpt lat="44.5865819" lon="8.0105435"><ele>478.99999999999994</ele><time>2026-04-11T09:37:14.51Z</time></trkpt><trkpt lat="44.5865331" lon="8.0106196"><ele>479.0</ele><time>2026-04-11T09:37:17.51Z</time></trkpt><trkpt lat="44.5864655" lon="8.0106478"><ele>479.0</ele><time>2026-04-11T09:37:19.51Z</time></trkpt><trkpt lat="44.5863913" lon="8.0107134"><ele>479.0</ele><time>2026-04-11T09:37:22.51Z</time></trkpt><trkpt lat="44.5863189" lon="8.0107893"><ele>478.99999999999994</ele><time>2026-04-11T09:37:25.51Z</time></trkpt><trkpt lat="44.58625" lon="8.0108275"><ele>479.0</ele><time>2026-04-11T09:37:29.51Z</time></trkpt><trkpt lat="44.5861875" lon="8.0108677"><ele>479.66666666666663</ele><time>2026-04-11T09:37:32.51Z</time></trkpt><trkpt lat="44.5861464" lon="8.0109613"><ele>480.3333333333333</ele><time>2026-04-11T09:37:35.51Z</time></trkpt><trkpt lat="44.586098" lon="8.0110325"><ele>481.0</ele><time>2026-04-11T09:37:38.51Z</time></trkpt><trkpt lat="44.5860336" lon="8.0111065"><ele>481.66666666666663</ele><time>2026-04-11T09:37:42.51Z</time></trkpt><trkpt lat="44.5859746" lon="8.0111651"><ele>482.3333333333333</ele><time>2026-04-11T09:37:45.51Z</time></trkpt><trkpt lat="44.5859285" lon="8.0112304"><ele>483.0</ele><time>2026-04-11T09:37:48.51Z</time></trkpt><trkpt lat="44.5858901" lon="8.0113331"><ele>483.0</ele><time>2026-04-11T09:37:51.51Z</time></trkpt><trkpt lat="44.5858345" lon="8.0114088"><ele>483.0</ele><time>2026-04-11T09:37:54.51Z</time></trkpt><trkpt lat="44.5857852" lon="8.0114873"><ele>483.0</ele><time>2026-04-11T09:37:57.51Z</time></trkpt><trkpt lat="44.5857394" lon="8.0115746"><ele>483.0</ele><time>2026-04-11T09:38:00.511Z</time></trkpt><trkpt lat="44.5856989" lon="8.011659"><ele>483.0</ele><time>2026-04-11T09:38:03.51Z</time></trkpt><trkpt lat="44.5856587" lon="8.0117611"><ele>483.0</ele><time>2026-04-11T09:38:06.51Z</time></trkpt><trkpt lat="44.5856248" lon="8.011843"><ele>484.6666666666667</ele><time>2026-04-11T09:38:09.51Z</time></trkpt><trkpt lat="44.5855717" lon="8.0119321"><ele>486.33333333333337</ele><time>2026-04-11T09:38:14.607Z</time></trkpt><trkpt lat="44.5855362" lon="8.0120153"><ele>488.0</ele><time>2026-04-11T09:38:17.598Z</time></trkpt><trkpt lat="44.5854956" lon="8.0120985"><ele>489.6666666666667</ele><time>2026-04-11T09:38:19.525Z</time></trkpt><trkpt lat="44.5854463" lon="8.0121932"><ele>491.33333333333337</ele><time>2026-04-11T09:38:22.505Z</time></trkpt><trkpt lat="44.5854049" lon="8.0122639"><ele>493.0</ele><time>2026-04-11T09:38:25.885Z</time></trkpt><trkpt lat="44.5853524" lon="8.0123602"><ele>492.57142857142856</ele><time>2026-04-11T09:38:29.246Z</time></trkpt><trkpt lat="44.5852993" lon="8.0124405"><ele>492.14285714285717</ele><time>2026-04-11T09:38:32.554Z</time></trkpt><trkpt lat="44.5852381" lon="8.0124777"><ele>491.7142857142857</ele><time>2026-04-11T09:38:36.624Z</time></trkpt><trkpt lat="44.5851769" lon="8.0125098"><ele>491.2857142857143</ele><time>2026-04-11T09:38:40.571Z</time></trkpt><trkpt lat="44.5851129" lon="8.0125556"><ele>490.8571428571429</ele><time>2026-04-11T09:38:43.562Z</time></trkpt><trkpt lat="44.5850544" lon="8.0125966"><ele>490.42857142857144</ele><time>2026-04-11T09:38:46.554Z</time></trkpt><trkpt lat="44.5849754" lon="8.0126107"><ele>490.0</ele><time>2026-04-11T09:38:49.507Z</time></trkpt><trkpt lat="44.5849117" lon="8.0126106"><ele>491.7142857142857</ele><time>2026-04-11T09:38:52.536Z</time></trkpt><trkpt lat="44.5848165" lon="8.0126276"><ele>493.42857142857144</ele><time>2026-04-11T09:38:55.967Z</time></trkpt><trkpt lat="44.5847556" lon="8.0126578"><ele>495.1428571428571</ele><time>2026-04-11T09:38:58.182Z</time></trkpt><trkpt lat="44.5846918" lon="8.0127003"><ele>496.85714285714283</ele><time>2026-04-11T09:39:00.553Z</time></trkpt><trkpt lat="44.5846331" lon="8.0127331"><ele>498.57142857142856</ele><time>2026-04-11T09:39:02.587Z</time></trkpt><trkpt lat="44.584566" lon="8.0127605"><ele>500.2857142857142</ele><time>2026-04-11T09:39:05.578Z</time></trkpt><trkpt lat="44.5845005" lon="8.0127694"><ele>501.99999999999994</ele><time>2026-04-11T09:39:08.602Z</time></trkpt><trkpt lat="44.5844275" lon="8.012777"><ele>502.33333333333337</ele><time>2026-04-11T09:39:11.561Z</time></trkpt><trkpt lat="44.5843527" lon="8.0128014"><ele>502.6666666666667</ele><time>2026-04-11T09:39:14.564Z</time></trkpt><trkpt lat="44.5842876" lon="8.0128004"><ele>503.0</ele><time>2026-04-11T09:39:18.282Z</time></trkpt><trkpt lat="44.5841925" lon="8.0128286"><ele>503.33333333333337</ele><time>2026-04-11T09:39:21.612Z</time></trkpt><trkpt lat="44.584116" lon="8.0128624"><ele>503.6666666666667</ele><time>2026-04-11T09:39:25.244Z</time></trkpt><trkpt lat="44.5840523" lon="8.0128627"><ele>504.0</ele><time>2026-04-11T09:39:29.561Z</time></trkpt><trkpt lat="44.5839812" lon="8.0128602"><ele>504.0</ele><time>2026-04-11T09:39:33.577Z</time></trkpt><trkpt lat="44.5838993" lon="8.0128645"><ele>504.0</ele><time>2026-04-11T09:39:37.525Z</time></trkpt><trkpt lat="44.5838304" lon="8.0129105"><ele>504.0</ele><time>2026-04-11T09:39:40.636Z</time></trkpt><trkpt lat="44.5837607" lon="8.0129434"><ele>504.0</ele><time>2026-04-11T09:39:43.51Z</time></trkpt><trkpt lat="44.5836786" lon="8.0129744"><ele>504.0</ele><time>2026-04-11T09:39:46.619Z</time></trkpt><trkpt lat="44.5836126" lon="8.0129757"><ele>504.0</ele><time>2026-04-11T09:39:49.61Z</time></trkpt><trkpt lat="44.5835444" lon="8.0129842"><ele>503.8571428571429</ele><time>2026-04-11T09:39:52.426Z</time></trkpt><trkpt lat="44.5834702" lon="8.013014"><ele>503.7142857142857</ele><time>2026-04-11T09:39:55.593Z</time></trkpt><trkpt lat="44.5834084" lon="8.0130504"><ele>503.57142857142856</ele><time>2026-04-11T09:39:58.584Z</time></trkpt><trkpt lat="44.5833403" lon="8.0130929"><ele>503.42857142857144</ele><time>2026-04-11T09:40:01.627Z</time></trkpt><trkpt lat="44.583274" lon="8.0131206"><ele>503.28571428571433</ele><time>2026-04-11T09:40:05.605Z</time></trkpt><trkpt lat="44.5832108" lon="8.0131463"><ele>503.14285714285717</ele><time>2026-04-11T09:40:08.635Z</time></trkpt><trkpt lat="44.5831361" lon="8.0131962"><ele>503.0</ele><time>2026-04-11T09:40:11.626Z</time></trkpt><trkpt lat="44.5830722" lon="8.0132521"><ele>503.0</ele><time>2026-04-11T09:40:14.618Z</time></trkpt><trkpt lat="44.5830188" lon="8.0132994"><ele>503.00000000000006</ele><time>2026-04-11T09:40:16.652Z</time></trkpt><trkpt lat="44.5829504" lon="8.0133823"><ele>503.0</ele><time>2026-04-11T09:40:19.524Z</time></trkpt><trkpt lat="44.5828978" lon="8.0134403"><ele>503.0</ele><time>2026-04-11T09:40:22.626Z</time></trkpt><trkpt lat="44.5828425" lon="8.013531"><ele>503.00000000000006</ele><time>2026-04-11T09:40:25.547Z</time></trkpt><trkpt lat="44.5827985" lon="8.0135956"><ele>503.0</ele><time>2026-04-11T09:40:28.617Z</time></trkpt><trkpt lat="44.5827332" lon="8.013652"><ele>503.0</ele><time>2026-04-11T09:40:32.628Z</time></trkpt><trkpt lat="44.5826959" lon="8.0137556"><ele>504.8333333333333</ele><time>2026-04-11T09:40:36.634Z</time></trkpt><trkpt lat="44.582641" lon="8.013813"><ele>506.66666666666663</ele><time>2026-04-11T09:40:38.548Z</time></trkpt><trkpt lat="44.5825577" lon="8.0138603"><ele>508.5</ele><time>2026-04-11T09:40:41.54Z</time></trkpt><trkpt lat="44.5824805" lon="8.0139121"><ele>510.33333333333337</ele><time>2026-04-11T09:40:44.582Z</time></trkpt><trkpt lat="44.5824176" lon="8.0139772"><ele>512.1666666666667</ele><time>2026-04-11T09:40:47.642Z</time></trkpt><trkpt lat="44.5823505" lon="8.0140406"><ele>514.0</ele><time>2026-04-11T09:40:49.556Z</time></trkpt><trkpt lat="44.5822926" lon="8.0140912"><ele>514.0</ele><time>2026-04-11T09:40:51.582Z</time></trkpt><trkpt lat="44.5822021" lon="8.0140758"><ele>514.0</ele><time>2026-04-11T09:40:55.539Z</time></trkpt><trkpt lat="44.5821123" lon="8.0140918"><ele>514.0</ele><time>2026-04-11T09:40:58.531Z</time></trkpt><trkpt lat="44.5820235" lon="8.0141686"><ele>514.0</ele><time>2026-04-11T09:41:01.642Z</time></trkpt><trkpt lat="44.5819395" lon="8.0141207"><ele>514.0</ele><time>2026-04-11T09:41:03.648Z</time></trkpt><trkpt lat="44.5818544" lon="8.0141292"><ele>514.4</ele><time>2026-04-11T09:41:05.582Z</time></trkpt><trkpt lat="44.5817647" lon="8.0141104"><ele>514.8</ele><time>2026-04-11T09:41:07.513Z</time></trkpt><trkpt lat="44.5816832" lon="8.0140952"><ele>515.2</ele><time>2026-04-11T09:41:09.513Z</time></trkpt><trkpt lat="44.58159" lon="8.0140591"><ele>515.6</ele><time>2026-04-11T09:41:11.513Z</time></trkpt><trkpt lat="44.5815006" lon="8.0140097"><ele>516.0</ele><time>2026-04-11T09:41:13.513Z</time></trkpt><trkpt lat="44.5814171" lon="8.0139704"><ele>516.0</ele><time>2026-04-11T09:41:15.513Z</time></trkpt><trkpt lat="44.5813406" lon="8.0139112"><ele>516.0</ele><time>2026-04-11T09:41:17.513Z</time></trkpt><trkpt lat="44.5812617" lon="8.0138946"><ele>516.0</ele><time>2026-04-11T09:41:19.513Z</time></trkpt><trkpt lat="44.5811869" lon="8.0139205"><ele>516.0</ele><time>2026-04-11T09:41:21.513Z</time></trkpt><trkpt lat="44.5811038" lon="8.0139079"><ele>516.0</ele><time>2026-04-11T09:41:23.513Z</time></trkpt><trkpt lat="44.5810278" lon="8.0139107"><ele>516.0</ele><time>2026-04-11T09:41:25.513Z</time></trkpt><trkpt lat="44.5809656" lon="8.0139277"><ele>516.3333333333334</ele><time>2026-04-11T09:41:27.513Z</time></trkpt><trkpt lat="44.580884" lon="8.0139504"><ele>516.6666666666666</ele><time>2026-04-11T09:41:29.513Z</time></trkpt><trkpt lat="44.5807952" lon="8.0139623"><ele>517.0</ele><time>2026-04-11T09:41:31.513Z</time></trkpt><trkpt lat="44.5807038" lon="8.0139265"><ele>517.3333333333333</ele><time>2026-04-11T09:41:34.513Z</time></trkpt><trkpt lat="44.5806358" lon="8.0139081"><ele>517.6666666666666</ele><time>2026-04-11T09:41:36.513Z</time></trkpt><trkpt lat="44.5805556" lon="8.013902"><ele>518.0</ele><time>2026-04-11T09:41:39.513Z</time></trkpt><trkpt lat="44.5804615" lon="8.0139111"><ele>518.0</ele><time>2026-04-11T09:41:42.513Z</time></trkpt><trkpt lat="44.5803807" lon="8.0139228"><ele>518.0</ele><time>2026-04-11T09:41:44.513Z</time></trkpt><trkpt lat="44.5802936" lon="8.0139292"><ele>518.0</ele><time>2026-04-11T09:41:47.513Z</time></trkpt><trkpt lat="44.5802073" lon="8.013961"><ele>518.0</ele><time>2026-04-11T09:41:50.513Z</time></trkpt><trkpt lat="44.580136" lon="8.013952"><ele>518.0</ele><time>2026-04-11T09:41:52.513Z</time></trkpt><trkpt lat="44.5800517" lon="8.0140178"><ele>518.0</ele><time>2026-04-11T09:41:54.513Z</time></trkpt><trkpt lat="44.5799663" lon="8.0140271"><ele>519.1666666666666</ele><time>2026-04-11T09:41:57.513Z</time></trkpt><trkpt lat="44.5798943" lon="8.0140312"><ele>520.3333333333333</ele><time>2026-04-11T09:42:01.513Z</time></trkpt><trkpt lat="44.5798161" lon="8.0140012"><ele>521.5</ele><time>2026-04-11T09:42:05.513Z</time></trkpt><trkpt lat="44.5797515" lon="8.0139738"><ele>522.6666666666666</ele><time>2026-04-11T09:42:08.513Z</time></trkpt><trkpt lat="44.5796857" lon="8.0139629"><ele>523.8333333333334</ele><time>2026-04-11T09:42:10.513Z</time></trkpt><trkpt lat="44.5796124" lon="8.0138908"><ele>525.0</ele><time>2026-04-11T09:42:13.513Z</time></trkpt><trkpt lat="44.5795633" lon="8.013809"><ele>526.5714285714286</ele><time>2026-04-11T09:42:16.513Z</time></trkpt><trkpt lat="44.5795063" lon="8.0137458"><ele>528.1428571428571</ele><time>2026-04-11T09:42:19.513Z</time></trkpt><trkpt lat="44.5794563" lon="8.013669"><ele>529.7142857142858</ele><time>2026-04-11T09:42:22.513Z</time></trkpt><trkpt lat="44.5794269" lon="8.0135863"><ele>531.2857142857142</ele><time>2026-04-11T09:42:25.513Z</time></trkpt><trkpt lat="44.5793927" lon="8.013511"><ele>532.8571428571429</ele><time>2026-04-11T09:42:28.513Z</time></trkpt><trkpt lat="44.579363" lon="8.0134063"><ele>534.4285714285714</ele><time>2026-04-11T09:42:32.513Z</time></trkpt><trkpt lat="44.5793359" lon="8.0133203"><ele>536.0</ele><time>2026-04-11T09:42:35.514Z</time></trkpt><trkpt lat="44.5793107" lon="8.0132382"><ele>536.0</ele><time>2026-04-11T09:42:38.513Z</time></trkpt><trkpt lat="44.5792619" lon="8.013154"><ele>536.0</ele><time>2026-04-11T09:42:42.513Z</time></trkpt><trkpt lat="44.5792083" lon="8.0130775"><ele>536.0</ele><time>2026-04-11T09:42:46.513Z</time></trkpt><trkpt lat="44.5791433" lon="8.013069"><ele>536.0</ele><time>2026-04-11T09:42:49.513Z</time></trkpt><trkpt lat="44.5791064" lon="8.0131926"><ele>536.0</ele><time>2026-04-11T09:42:52.514Z</time></trkpt><trkpt lat="44.5790875" lon="8.0132912"><ele>536.0</ele><time>2026-04-11T09:42:54.513Z</time></trkpt><trkpt lat="44.5790647" lon="8.0133878"><ele>537.8333333333333</ele><time>2026-04-11T09:42:56.513Z</time></trkpt><trkpt lat="44.5790329" lon="8.0135075"><ele>539.6666666666666</ele><time>2026-04-11T09:42:59.513Z</time></trkpt><trkpt lat="44.578983" lon="8.0135621"><ele>541.5</ele><time>2026-04-11T09:43:01.513Z</time></trkpt><trkpt lat="44.5789039" lon="8.0136352"><ele>543.3333333333334</ele><time>2026-04-11T09:43:04.513Z</time></trkpt><trkpt lat="44.5788208" lon="8.0136949"><ele>545.1666666666667</ele><time>2026-04-11T09:43:07.513Z</time></trkpt><trkpt lat="44.5787386" lon="8.0137142"><ele>547.0</ele><time>2026-04-11T09:43:10.513Z</time></trkpt><trkpt lat="44.5786766" lon="8.0137359"><ele>549.3333333333334</ele><time>2026-04-11T09:43:12.513Z</time></trkpt><trkpt lat="44.5785855" lon="8.0137706"><ele>551.6666666666667</ele><time>2026-04-11T09:43:15.513Z</time></trkpt><trkpt lat="44.5784962" lon="8.013805"><ele>554.0</ele><time>2026-04-11T09:43:18.513Z</time></trkpt><trkpt lat="44.5784323" lon="8.0138295"><ele>556.3333333333334</ele><time>2026-04-11T09:43:20.513Z</time></trkpt><trkpt lat="44.5783649" lon="8.0138452"><ele>558.6666666666666</ele><time>2026-04-11T09:43:22.513Z</time></trkpt><trkpt lat="44.5782959" lon="8.0138882"><ele>561.0</ele><time>2026-04-11T09:43:25.513Z</time></trkpt><trkpt lat="44.5782066" lon="8.013914"><ele>561.0</ele><time>2026-04-11T09:43:29.513Z</time></trkpt><trkpt lat="44.5781305" lon="8.0139204"><ele>561.0</ele><time>2026-04-11T09:43:31.513Z</time></trkpt><trkpt lat="44.578034" lon="8.013955"><ele>561.0</ele><time>2026-04-11T09:43:34.513Z</time></trkpt><trkpt lat="44.5779597" lon="8.0139841"><ele>561.0</ele><time>2026-04-11T09:43:36.513Z</time></trkpt><trkpt lat="44.577883" lon="8.014027"><ele>561.0</ele><time>2026-04-11T09:43:39.513Z</time></trkpt><trkpt lat="44.5778196" lon="8.0140571"><ele>561.0</ele><time>2026-04-11T09:43:41.513Z</time></trkpt><trkpt lat="44.5777504" lon="8.0140906"><ele>561.5</ele><time>2026-04-11T09:43:44.513Z</time></trkpt><trkpt lat="44.5776705" lon="8.0141291"><ele>562.0</ele><time>2026-04-11T09:43:47.513Z</time></trkpt><trkpt lat="44.5776077" lon="8.0141518"><ele>562.5</ele><time>2026-04-11T09:43:49.513Z</time></trkpt><trkpt lat="44.5775427" lon="8.0141751"><ele>563.0</ele><time>2026-04-11T09:43:51.513Z</time></trkpt><trkpt lat="44.5774655" lon="8.0142157"><ele>563.5</ele><time>2026-04-11T09:43:54.513Z</time></trkpt><trkpt lat="44.5773823" lon="8.0142416"><ele>564.0</ele><time>2026-04-11T09:43:57.513Z</time></trkpt><trkpt lat="44.5773191" lon="8.0143145"><ele>564.0</ele><time>2026-04-11T09:43:59.513Z</time></trkpt><trkpt lat="44.5772468" lon="8.014358"><ele>564.0</ele><time>2026-04-11T09:44:02.513Z</time></trkpt><trkpt lat="44.5771727" lon="8.0143866"><ele>564.0</ele><time>2026-04-11T09:44:05.513Z</time></trkpt><trkpt lat="44.5770943" lon="8.0144265"><ele>564.0</ele><time>2026-04-11T09:44:09.514Z</time></trkpt><trkpt lat="44.5770171" lon="8.0144884"><ele>564.0</ele><time>2026-04-11T09:44:12.513Z</time></trkpt><trkpt lat="44.5769345" lon="8.0145699"><ele>564.0</ele><time>2026-04-11T09:44:15.513Z</time></trkpt><trkpt lat="44.5768768" lon="8.014609"><ele>565.8333333333334</ele><time>2026-04-11T09:44:17.513Z</time></trkpt><trkpt lat="44.5767985" lon="8.0146663"><ele>567.6666666666666</ele><time>2026-04-11T09:44:20.514Z</time></trkpt><trkpt lat="44.5767179" lon="8.0146878"><ele>569.5</ele><time>2026-04-11T09:44:23.513Z</time></trkpt><trkpt lat="44.5766428" lon="8.0147262"><ele>571.3333333333333</ele><time>2026-04-11T09:44:26.515Z</time></trkpt><trkpt lat="44.5765663" lon="8.014758"><ele>573.1666666666666</ele><time>2026-04-11T09:44:29.514Z</time></trkpt><trkpt lat="44.5765064" lon="8.0147891"><ele>575.0</ele><time>2026-04-11T09:44:31.514Z</time></trkpt><trkpt lat="44.5764319" lon="8.0147838"><ele>575.0</ele><time>2026-04-11T09:44:34.514Z</time></trkpt><trkpt lat="44.5763703" lon="8.0148456"><ele>575.0</ele><time>2026-04-11T09:44:37.514Z</time></trkpt><trkpt lat="44.5763266" lon="8.0149227"><ele>575.0</ele><time>2026-04-11T09:44:39.514Z</time></trkpt><trkpt lat="44.5762787" lon="8.0150125"><ele>575.0</ele><time>2026-04-11T09:44:41.514Z</time></trkpt><trkpt lat="44.5762316" lon="8.0151004"><ele>575.0</ele><time>2026-04-11T09:44:43.514Z</time></trkpt><trkpt lat="44.5762025" lon="8.0151812"><ele>575.0</ele><time>2026-04-11T09:44:45.514Z</time></trkpt><trkpt lat="44.5761821" lon="8.0152686"><ele>575.0</ele><time>2026-04-11T09:44:47.514Z</time></trkpt><trkpt lat="44.5761666" lon="8.0153874"><ele>574.8333333333333</ele><time>2026-04-11T09:44:50.514Z</time></trkpt><trkpt lat="44.5761332" lon="8.0155309"><ele>574.6666666666666</ele><time>2026-04-11T09:44:53.514Z</time></trkpt><trkpt lat="44.5761102" lon="8.0156524"><ele>574.5</ele><time>2026-04-11T09:44:55.514Z</time></trkpt><trkpt lat="44.5760785" lon="8.0157302"><ele>574.3333333333334</ele><time>2026-04-11T09:44:57.514Z</time></trkpt><trkpt lat="44.5760486" lon="8.0158277"><ele>574.1666666666667</ele><time>2026-04-11T09:44:59.514Z</time></trkpt><trkpt lat="44.5760182" lon="8.015932"><ele>574.0</ele><time>2026-04-11T09:45:01.514Z</time></trkpt><trkpt lat="44.5759934" lon="8.0160218"><ele>574.0</ele><time>2026-04-11T09:45:03.514Z</time></trkpt><trkpt lat="44.5759708" lon="8.0161094"><ele>574.0</ele><time>2026-04-11T09:45:05.514Z</time></trkpt><trkpt lat="44.5759578" lon="8.0162055"><ele>574.0</ele><time>2026-04-11T09:45:07.514Z</time></trkpt><trkpt lat="44.5759671" lon="8.0163274"><ele>574.0</ele><time>2026-04-11T09:45:09.514Z</time></trkpt><trkpt lat="44.5759536" lon="8.0164254"><ele>574.0</ele><time>2026-04-11T09:45:11.526Z</time></trkpt><trkpt lat="44.5759243" lon="8.0165045"><ele>574.0</ele><time>2026-04-11T09:45:13.526Z</time></trkpt><trkpt lat="44.575896" lon="8.01659"><ele>574.0</ele><time>2026-04-11T09:45:15.526Z</time></trkpt><trkpt lat="44.575872" lon="8.0166891"><ele>574.5</ele><time>2026-04-11T09:45:17.526Z</time></trkpt><trkpt lat="44.5758643" lon="8.0168004"><ele>575.0</ele><time>2026-04-11T09:45:20.526Z</time></trkpt><trkpt lat="44.5758384" lon="8.0169119"><ele>575.5</ele><time>2026-04-11T09:45:22.526Z</time></trkpt><trkpt lat="44.5757988" lon="8.0170352"><ele>576.0</ele><time>2026-04-11T09:45:25.526Z</time></trkpt><trkpt lat="44.5757635" lon="8.017156"><ele>576.5</ele><time>2026-04-11T09:45:28.526Z</time></trkpt><trkpt lat="44.5757366" lon="8.0172609"><ele>577.0</ele><time>2026-04-11T09:45:30.526Z</time></trkpt><trkpt lat="44.5756813" lon="8.0173752"><ele>576.2</ele><time>2026-04-11T09:45:32.526Z</time></trkpt><trkpt lat="44.5756392" lon="8.0175059"><ele>575.4000000000001</ele><time>2026-04-11T09:45:34.526Z</time></trkpt><trkpt lat="44.5756013" lon="8.0175775"><ele>574.5999999999999</ele><time>2026-04-11T09:45:35.526Z</time></trkpt><trkpt lat="44.575516" lon="8.0176946"><ele>573.8</ele><time>2026-04-11T09:45:37.526Z</time></trkpt><trkpt lat="44.5754397" lon="8.0178338"><ele>573.0</ele><time>2026-04-11T09:45:39.526Z</time></trkpt><trkpt lat="44.5753972" lon="8.0179163"><ele>574.0</ele><time>2026-04-11T09:45:40.526Z</time></trkpt><trkpt lat="44.5753534" lon="8.0179966"><ele>575.0</ele><time>2026-04-11T09:45:41.526Z</time></trkpt><trkpt lat="44.5753099" lon="8.0180788"><ele>576.0</ele><time>2026-04-11T09:45:42.526Z</time></trkpt><trkpt lat="44.5752647" lon="8.0181628"><ele>577.0</ele><time>2026-04-11T09:45:43.526Z</time></trkpt><trkpt lat="44.5752233" lon="8.0182477"><ele>578.0</ele><time>2026-04-11T09:45:44.526Z</time></trkpt><trkpt lat="44.5751838" lon="8.0183385"><ele>579.0</ele><time>2026-04-11T09:45:45.526Z</time></trkpt><trkpt lat="44.575141" lon="8.0184266"><ele>580.0</ele><time>2026-04-11T09:45:46.526Z</time></trkpt><trkpt lat="44.5750998" lon="8.0185163"><ele>580.0</ele><time>2026-04-11T09:45:47.526Z</time></trkpt><trkpt lat="44.5750591" lon="8.0186067"><ele>580.0</ele><time>2026-04-11T09:45:48.526Z</time></trkpt><trkpt lat="44.5750209" lon="8.018698"><ele>580.0</ele><time>2026-04-11T09:45:49.526Z</time></trkpt><trkpt lat="44.5749797" lon="8.0187905"><ele>580.0</ele><time>2026-04-11T09:45:50.526Z</time></trkpt><trkpt lat="44.5749419" lon="8.0188777"><ele>580.0</ele><time>2026-04-11T09:45:51.526Z</time></trkpt><trkpt lat="44.574905" lon="8.0189714"><ele>580.0</ele><time>2026-04-11T09:45:52.526Z</time></trkpt><trkpt lat="44.5748605" lon="8.0190607"><ele>578.6666666666667</ele><time>2026-04-11T09:45:53.526Z</time></trkpt><trkpt lat="44.5748201" lon="8.0191518"><ele>577.3333333333334</ele><time>2026-04-11T09:45:54.526Z</time></trkpt><trkpt lat="44.5747865" lon="8.0192404"><ele>576.0</ele><time>2026-04-11T09:45:55.526Z</time></trkpt><trkpt lat="44.5747572" lon="8.0193322"><ele>574.6666666666666</ele><time>2026-04-11T09:45:56.526Z</time></trkpt><trkpt lat="44.5747334" lon="8.0194294"><ele>573.3333333333333</ele><time>2026-04-11T09:45:57.526Z</time></trkpt><trkpt lat="44.5747305" lon="8.0195494"><ele>572.0</ele><time>2026-04-11T09:45:58.526Z</time></trkpt><trkpt lat="44.5747224" lon="8.0196563"><ele>571.9999999999999</ele><time>2026-04-11T09:45:59.526Z</time></trkpt><trkpt lat="44.5747088" lon="8.0197511"><ele>572.0</ele><time>2026-04-11T09:46:00.526Z</time></trkpt><trkpt lat="44.5746843" lon="8.0198345"><ele>572.0</ele><time>2026-04-11T09:46:01.526Z</time></trkpt><trkpt lat="44.574663" lon="8.01992"><ele>572.0</ele><time>2026-04-11T09:46:02.526Z</time></trkpt><trkpt lat="44.5746415" lon="8.0200061"><ele>572.0</ele><time>2026-04-11T09:46:03.526Z</time></trkpt><trkpt lat="44.5746263" lon="8.0200952"><ele>571.9999999999999</ele><time>2026-04-11T09:46:04.526Z</time></trkpt><trkpt lat="44.5746226" lon="8.0201945"><ele>572.0</ele><time>2026-04-11T09:46:05.526Z</time></trkpt><trkpt lat="44.5746231" lon="8.0202986"><ele>571.8571428571428</ele><time>2026-04-11T09:46:06.526Z</time></trkpt><trkpt lat="44.5746149" lon="8.0203929"><ele>571.7142857142857</ele><time>2026-04-11T09:46:07.526Z</time></trkpt><trkpt lat="44.5746022" lon="8.0204819"><ele>571.5714285714286</ele><time>2026-04-11T09:46:08.526Z</time></trkpt><trkpt lat="44.5745825" lon="8.0205739"><ele>571.4285714285713</ele><time>2026-04-11T09:46:09.526Z</time></trkpt><trkpt lat="44.5745605" lon="8.0206652"><ele>571.2857142857142</ele><time>2026-04-11T09:46:10.526Z</time></trkpt><trkpt lat="44.5745434" lon="8.020759"><ele>571.1428571428571</ele><time>2026-04-11T09:46:11.526Z</time></trkpt><trkpt lat="44.5745369" lon="8.0208602"><ele>571.0</ele><time>2026-04-11T09:46:12.526Z</time></trkpt><trkpt lat="44.5745279" lon="8.0209617"><ele>571.0</ele><time>2026-04-11T09:46:13.526Z</time></trkpt><trkpt lat="44.5745137" lon="8.0210666"><ele>571.0</ele><time>2026-04-11T09:46:14.526Z</time></trkpt><trkpt lat="44.5745203" lon="8.0211755"><ele>571.0</ele><time>2026-04-11T09:46:15.526Z</time></trkpt><trkpt lat="44.5745441" lon="8.0212829"><ele>571.0</ele><time>2026-04-11T09:46:16.526Z</time></trkpt><trkpt lat="44.5745844" lon="8.0213909"><ele>571.0</ele><time>2026-04-11T09:46:17.526Z</time></trkpt><trkpt lat="44.5746322" lon="8.0214974"><ele>571.0</ele><time>2026-04-11T09:46:18.526Z</time></trkpt><trkpt lat="44.574684" lon="8.0216053"><ele>570.8333333333334</ele><time>2026-04-11T09:46:19.526Z</time></trkpt><trkpt lat="44.574748" lon="8.0216947"><ele>570.6666666666667</ele><time>2026-04-11T09:46:20.526Z</time></trkpt><trkpt lat="44.5748174" lon="8.0217838"><ele>570.5</ele><time>2026-04-11T09:46:21.526Z</time></trkpt><trkpt lat="44.5748819" lon="8.0218838"><ele>570.3333333333334</ele><time>2026-04-11T09:46:22.526Z</time></trkpt><trkpt lat="44.5749308" lon="8.0219765"><ele>570.1666666666666</ele><time>2026-04-11T09:46:23.526Z</time></trkpt><trkpt lat="44.5749833" lon="8.0220568"><ele>570.0</ele><time>2026-04-11T09:46:24.526Z</time></trkpt><trkpt lat="44.5750326" lon="8.0221445"><ele>570.0</ele><time>2026-04-11T09:46:25.526Z</time></trkpt><trkpt lat="44.5750826" lon="8.022224"><ele>570.0</ele><time>2026-04-11T09:46:26.526Z</time></trkpt><trkpt lat="44.5751315" lon="8.0223127"><ele>570.0</ele><time>2026-04-11T09:46:27.526Z</time></trkpt><trkpt lat="44.5751826" lon="8.0223919"><ele>570.0</ele><time>2026-04-11T09:46:28.526Z</time></trkpt><trkpt lat="44.5752351" lon="8.0224695"><ele>570.0</ele><time>2026-04-11T09:46:29.526Z</time></trkpt><trkpt lat="44.5752822" lon="8.0225519"><ele>570.0</ele><time>2026-04-11T09:46:30.526Z</time></trkpt><trkpt lat="44.5753303" lon="8.0226381"><ele>568.1666666666666</ele><time>2026-04-11T09:46:31.526Z</time></trkpt><trkpt lat="44.5753756" lon="8.0227153"><ele>566.3333333333334</ele><time>2026-04-11T09:46:32.526Z</time></trkpt><trkpt lat="44.5754245" lon="8.0227997"><ele>564.5</ele><time>2026-04-11T09:46:33.526Z</time></trkpt><trkpt lat="44.5754735" lon="8.0228892"><ele>562.6666666666667</ele><time>2026-04-11T09:46:34.526Z</time></trkpt><trkpt lat="44.5755232" lon="8.0229783"><ele>560.8333333333334</ele><time>2026-04-11T09:46:35.526Z</time></trkpt><trkpt lat="44.5755776" lon="8.0230655"><ele>559.0</ele><time>2026-04-11T09:46:36.526Z</time></trkpt><trkpt lat="44.5756194" lon="8.0231397"><ele>559.0</ele><time>2026-04-11T09:46:37.526Z</time></trkpt><trkpt lat="44.5756489" lon="8.0232261"><ele>559.0</ele><time>2026-04-11T09:46:38.526Z</time></trkpt><trkpt lat="44.5756739" lon="8.0234186"><ele>559.0</ele><time>2026-04-11T09:46:40.526Z</time></trkpt><trkpt lat="44.575678" lon="8.023539"><ele>559.0</ele><time>2026-04-11T09:46:41.526Z</time></trkpt><trkpt lat="44.5757262" lon="8.0236317"><ele>559.0</ele><time>2026-04-11T09:46:42.526Z</time></trkpt><trkpt lat="44.5757811" lon="8.0238112"><ele>560.5</ele><time>2026-04-11T09:46:44.526Z</time></trkpt><trkpt lat="44.5757988" lon="8.0239085"><ele>562.0</ele><time>2026-04-11T09:46:45.526Z</time></trkpt><trkpt lat="44.5758191" lon="8.0240972"><ele>563.5</ele><time>2026-04-11T09:46:47.526Z</time></trkpt><trkpt lat="44.5758358" lon="8.0242046"><ele>565.0</ele><time>2026-04-11T09:46:48.526Z</time></trkpt><trkpt lat="44.5758563" lon="8.0243081"><ele>566.5</ele><time>2026-04-11T09:46:49.526Z</time></trkpt><trkpt lat="44.5758673" lon="8.0244178"><ele>568.0</ele><time>2026-04-11T09:46:50.526Z</time></trkpt><trkpt lat="44.5758786" lon="8.0245263"><ele>568.2857142857142</ele><time>2026-04-11T09:46:51.526Z</time></trkpt><trkpt lat="44.5758898" lon="8.0246343"><ele>568.5714285714286</ele><time>2026-04-11T09:46:52.526Z</time></trkpt><trkpt lat="44.5759004" lon="8.0247415"><ele>568.8571428571429</ele><time>2026-04-11T09:46:53.526Z</time></trkpt><trkpt lat="44.5759034" lon="8.024839"><ele>569.1428571428571</ele><time>2026-04-11T09:46:54.526Z</time></trkpt><trkpt lat="44.5759042" lon="8.0249362"><ele>569.4285714285714</ele><time>2026-04-11T09:46:55.526Z</time></trkpt><trkpt lat="44.5759009" lon="8.0250312"><ele>569.7142857142857</ele><time>2026-04-11T09:46:56.526Z</time></trkpt><trkpt lat="44.5759086" lon="8.0251383"><ele>570.0</ele><time>2026-04-11T09:46:57.526Z</time></trkpt><trkpt lat="44.5759184" lon="8.0253139"><ele>570.0</ele><time>2026-04-11T09:46:59.526Z</time></trkpt><trkpt lat="44.5759254" lon="8.0254174"><ele>570.0</ele><time>2026-04-11T09:47:00.526Z</time></trkpt><trkpt lat="44.5759205" lon="8.0255076"><ele>570.0</ele><time>2026-04-11T09:47:01.526Z</time></trkpt><trkpt lat="44.5759248" lon="8.0256037"><ele>570.0</ele><time>2026-04-11T09:47:02.526Z</time></trkpt><trkpt lat="44.575927" lon="8.0257032"><ele>570.0</ele><time>2026-04-11T09:47:03.526Z</time></trkpt><trkpt lat="44.5759319" lon="8.0258033"><ele>570.0</ele><time>2026-04-11T09:47:04.526Z</time></trkpt><trkpt lat="44.5759413" lon="8.0258993"><ele>570.0</ele><time>2026-04-11T09:47:05.526Z</time></trkpt><trkpt lat="44.5759516" lon="8.0260052"><ele>570.1666666666666</ele><time>2026-04-11T09:47:06.526Z</time></trkpt><trkpt lat="44.5759611" lon="8.0261146"><ele>570.3333333333334</ele><time>2026-04-11T09:47:07.526Z</time></trkpt><trkpt lat="44.5759737" lon="8.0262233"><ele>570.5</ele><time>2026-04-11T09:47:08.526Z</time></trkpt><trkpt lat="44.5759981" lon="8.02634"><ele>570.6666666666667</ele><time>2026-04-11T09:47:09.526Z</time></trkpt><trkpt lat="44.5760266" lon="8.0264598"><ele>570.8333333333334</ele><time>2026-04-11T09:47:10.526Z</time></trkpt><trkpt lat="44.5760502" lon="8.0265745"><ele>571.0</ele><time>2026-04-11T09:47:11.526Z</time></trkpt><trkpt lat="44.5760567" lon="8.0266831"><ele>571.1666666666667</ele><time>2026-04-11T09:47:12.526Z</time></trkpt><trkpt lat="44.5760697" lon="8.0267992"><ele>571.3333333333334</ele><time>2026-04-11T09:47:13.526Z</time></trkpt><trkpt lat="44.5760762" lon="8.0269091"><ele>571.5</ele><time>2026-04-11T09:47:14.526Z</time></trkpt><trkpt lat="44.5760766" lon="8.0270172"><ele>571.6666666666666</ele><time>2026-04-11T09:47:15.526Z</time></trkpt><trkpt lat="44.5760649" lon="8.0271205"><ele>571.8333333333333</ele><time>2026-04-11T09:47:16.526Z</time></trkpt><trkpt lat="44.5760518" lon="8.0272228"><ele>572.0</ele><time>2026-04-11T09:47:17.526Z</time></trkpt><trkpt lat="44.5760452" lon="8.0273341"><ele>572.0</ele><time>2026-04-11T09:47:18.527Z</time></trkpt><trkpt lat="44.5760466" lon="8.0274477"><ele>572.0</ele><time>2026-04-11T09:47:19.526Z</time></trkpt><trkpt lat="44.5760671" lon="8.0275663"><ele>572.0</ele><time>2026-04-11T09:47:20.526Z</time></trkpt><trkpt lat="44.5761025" lon="8.0276902"><ele>572.0</ele><time>2026-04-11T09:47:21.526Z</time></trkpt><trkpt lat="44.5761407" lon="8.0278075"><ele>572.0</ele><time>2026-04-11T09:47:22.526Z</time></trkpt><trkpt lat="44.5761771" lon="8.0279139"><ele>572.0</ele><time>2026-04-11T09:47:23.526Z</time></trkpt><trkpt lat="44.5762132" lon="8.0280228"><ele>569.2</ele><time>2026-04-11T09:47:24.526Z</time></trkpt><trkpt lat="44.5762593" lon="8.0281293"><ele>566.4000000000001</ele><time>2026-04-11T09:47:25.526Z</time></trkpt><trkpt lat="44.5763355" lon="8.0282271"><ele>563.5999999999999</ele><time>2026-04-11T09:47:26.527Z</time></trkpt><trkpt lat="44.576416" lon="8.0283207"><ele>560.8</ele><time>2026-04-11T09:47:27.526Z</time></trkpt><trkpt lat="44.5764966" lon="8.0284039"><ele>558.0</ele><time>2026-04-11T09:47:28.526Z</time></trkpt><trkpt lat="44.5765833" lon="8.028493"><ele>558.0</ele><time>2026-04-11T09:47:29.526Z</time></trkpt><trkpt lat="44.5766617" lon="8.0285834"><ele>558.0</ele><time>2026-04-11T09:47:30.526Z</time></trkpt><trkpt lat="44.5767432" lon="8.0286669"><ele>558.0</ele><time>2026-04-11T09:47:31.526Z</time></trkpt><trkpt lat="44.576826" lon="8.0287447"><ele>558.0</ele><time>2026-04-11T09:47:32.526Z</time></trkpt><trkpt lat="44.5769019" lon="8.0288267"><ele>558.0</ele><time>2026-04-11T09:47:33.526Z</time></trkpt><trkpt lat="44.5769682" lon="8.0289149"><ele>557.1999999999999</ele><time>2026-04-11T09:47:34.526Z</time></trkpt><trkpt lat="44.577042" lon="8.0289881"><ele>556.4</ele><time>2026-04-11T09:47:35.526Z</time></trkpt><trkpt lat="44.5771217" lon="8.0290683"><ele>555.5999999999999</ele><time>2026-04-11T09:47:36.526Z</time></trkpt><trkpt lat="44.5772045" lon="8.0291536"><ele>554.8</ele><time>2026-04-11T09:47:37.526Z</time></trkpt><trkpt lat="44.577283" lon="8.0292399"><ele>554.0</ele><time>2026-04-11T09:47:38.526Z</time></trkpt><trkpt lat="44.5773575" lon="8.0293304"><ele>554.0</ele><time>2026-04-11T09:47:39.526Z</time></trkpt><trkpt lat="44.5774403" lon="8.0294115"><ele>554.0</ele><time>2026-04-11T09:47:40.526Z</time></trkpt><trkpt lat="44.5775167" lon="8.0294951"><ele>554.0</ele><time>2026-04-11T09:47:41.526Z</time></trkpt><trkpt lat="44.5775915" lon="8.0295803"><ele>554.0</ele><time>2026-04-11T09:47:42.526Z</time></trkpt><trkpt lat="44.5776698" lon="8.0296684"><ele>554.0</ele><time>2026-04-11T09:47:43.526Z</time></trkpt><trkpt lat="44.577752" lon="8.0297569"><ele>554.0</ele><time>2026-04-11T09:47:44.526Z</time></trkpt><trkpt lat="44.5778369" lon="8.0298496"><ele>554.0</ele><time>2026-04-11T09:47:45.526Z</time></trkpt><trkpt lat="44.5779247" lon="8.0299368"><ele>554.0</ele><time>2026-04-11T09:47:46.526Z</time></trkpt><trkpt lat="44.5780106" lon="8.0300292"><ele>554.0</ele><time>2026-04-11T09:47:47.526Z</time></trkpt><trkpt lat="44.5780968" lon="8.0301232"><ele>554.0</ele><time>2026-04-11T09:47:48.526Z</time></trkpt><trkpt lat="44.5781836" lon="8.0302185"><ele>553.6</ele><time>2026-04-11T09:47:49.526Z</time></trkpt><trkpt lat="44.5782678" lon="8.0303247"><ele>553.2</ele><time>2026-04-11T09:47:50.526Z</time></trkpt><trkpt lat="44.5783561" lon="8.0304218"><ele>552.8000000000001</ele><time>2026-04-11T09:47:51.526Z</time></trkpt><trkpt lat="44.5784444" lon="8.0305091"><ele>552.4</ele><time>2026-04-11T09:47:52.526Z</time></trkpt><trkpt lat="44.5785384" lon="8.0306033"><ele>552.0</ele><time>2026-04-11T09:47:53.526Z</time></trkpt><trkpt lat="44.5786244" lon="8.0306946"><ele>550.4</ele><time>2026-04-11T09:47:54.526Z</time></trkpt><trkpt lat="44.5787108" lon="8.0307795"><ele>548.8000000000001</ele><time>2026-04-11T09:47:55.526Z</time></trkpt><trkpt lat="44.5787992" lon="8.0308733"><ele>547.2</ele><time>2026-04-11T09:47:56.526Z</time></trkpt><trkpt lat="44.5788877" lon="8.0309681"><ele>545.6</ele><time>2026-04-11T09:47:57.526Z</time></trkpt><trkpt lat="44.5789747" lon="8.031059"><ele>544.0</ele><time>2026-04-11T09:47:58.526Z</time></trkpt><trkpt lat="44.5790626" lon="8.0311506"><ele>544.0</ele><time>2026-04-11T09:47:59.526Z</time></trkpt><trkpt lat="44.5791494" lon="8.031252"><ele>544.0</ele><time>2026-04-11T09:48:00.526Z</time></trkpt><trkpt lat="44.5792356" lon="8.0313516"><ele>544.0</ele><time>2026-04-11T09:48:01.526Z</time></trkpt><trkpt lat="44.5793279" lon="8.0314554"><ele>544.0</ele><time>2026-04-11T09:48:02.526Z</time></trkpt><trkpt lat="44.5794193" lon="8.0315718"><ele>545.75</ele><time>2026-04-11T09:48:03.526Z</time></trkpt><trkpt lat="44.5795121" lon="8.031676"><ele>547.5</ele><time>2026-04-11T09:48:04.526Z</time></trkpt><trkpt lat="44.5796033" lon="8.0317638"><ele>549.25</ele><time>2026-04-11T09:48:05.526Z</time></trkpt><trkpt lat="44.5796895" lon="8.0318635"><ele>551.0</ele><time>2026-04-11T09:48:06.526Z</time></trkpt><trkpt lat="44.5797609" lon="8.0319958"><ele>548.6</ele><time>2026-04-11T09:48:07.526Z</time></trkpt><trkpt lat="44.5798071" lon="8.0321507"><ele>546.2</ele><time>2026-04-11T09:48:08.526Z</time></trkpt><trkpt lat="44.5798306" lon="8.0322993"><ele>543.8</ele><time>2026-04-11T09:48:09.526Z</time></trkpt><trkpt lat="44.5798476" lon="8.03246"><ele>541.4</ele><time>2026-04-11T09:48:10.526Z</time></trkpt><trkpt lat="44.5798664" lon="8.0326041"><ele>539.0</ele><time>2026-04-11T09:48:11.526Z</time></trkpt><trkpt lat="44.5798788" lon="8.0327553"><ele>539.0</ele><time>2026-04-11T09:48:12.526Z</time></trkpt><trkpt lat="44.5798944" lon="8.0329149"><ele>539.0</ele><time>2026-04-11T09:48:13.526Z</time></trkpt><trkpt lat="44.5799056" lon="8.0330666"><ele>539.0</ele><time>2026-04-11T09:48:14.526Z</time></trkpt><trkpt lat="44.5799171" lon="8.0332211"><ele>539.0</ele><time>2026-04-11T09:48:15.526Z</time></trkpt><trkpt lat="44.5799189" lon="8.0333706"><ele>539.0</ele><time>2026-04-11T09:48:16.526Z</time></trkpt><trkpt lat="44.5799126" lon="8.0335266"><ele>539.4</ele><time>2026-04-11T09:48:17.527Z</time></trkpt><trkpt lat="44.5798948" lon="8.0336836"><ele>539.8</ele><time>2026-04-11T09:48:18.526Z</time></trkpt><trkpt lat="44.5798693" lon="8.033831"><ele>540.2</ele><time>2026-04-11T09:48:19.526Z</time></trkpt><trkpt lat="44.5798487" lon="8.0339781"><ele>540.6</ele><time>2026-04-11T09:48:20.526Z</time></trkpt><trkpt lat="44.5798125" lon="8.0341086"><ele>541.0</ele><time>2026-04-11T09:48:21.526Z</time></trkpt><trkpt lat="44.5797792" lon="8.034243"><ele>541.0</ele><time>2026-04-11T09:48:22.526Z</time></trkpt><trkpt lat="44.5797378" lon="8.0343651"><ele>541.0</ele><time>2026-04-11T09:48:23.526Z</time></trkpt><trkpt lat="44.5796986" lon="8.034483"><ele>541.0</ele><time>2026-04-11T09:48:24.526Z</time></trkpt><trkpt lat="44.5796713" lon="8.0345984"><ele>541.0</ele><time>2026-04-11T09:48:25.526Z</time></trkpt><trkpt lat="44.5796418" lon="8.0347149"><ele>541.0</ele><time>2026-04-11T09:48:26.527Z</time></trkpt><trkpt lat="44.5796063" lon="8.0348323"><ele>541.0</ele><time>2026-04-11T09:48:27.526Z</time></trkpt><trkpt lat="44.5795807" lon="8.034941"><ele>541.0</ele><time>2026-04-11T09:48:28.526Z</time></trkpt><trkpt lat="44.5795536" lon="8.035044"><ele>541.0</ele><time>2026-04-11T09:48:29.526Z</time></trkpt><trkpt lat="44.579531" lon="8.0351396"><ele>541.0</ele><time>2026-04-11T09:48:30.526Z</time></trkpt><trkpt lat="44.5795118" lon="8.0352303"><ele>541.0</ele><time>2026-04-11T09:48:31.526Z</time></trkpt><trkpt lat="44.5794727" lon="8.0353924"><ele>541.0</ele><time>2026-04-11T09:48:33.526Z</time></trkpt><trkpt lat="44.5794208" lon="8.0355347"><ele>541.8</ele><time>2026-04-11T09:48:35.526Z</time></trkpt><trkpt lat="44.5793084" lon="8.0355544"><ele>542.6</ele><time>2026-04-11T09:48:37.526Z</time></trkpt><trkpt lat="44.5792205" lon="8.0355315"><ele>543.4</ele><time>2026-04-11T09:48:39.526Z</time></trkpt><trkpt lat="44.5791542" lon="8.0355203"><ele>544.2</ele><time>2026-04-11T09:48:41.526Z</time></trkpt><trkpt lat="44.5790688" lon="8.035477"><ele>545.0</ele><time>2026-04-11T09:48:44.526Z</time></trkpt><trkpt lat="44.5789801" lon="8.0354562"><ele>545.0</ele><time>2026-04-11T09:48:47.526Z</time></trkpt><trkpt lat="44.5789025" lon="8.0354118"><ele>545.0</ele><time>2026-04-11T09:48:50.526Z</time></trkpt><trkpt lat="44.5788296" lon="8.0354106"><ele>545.0</ele><time>2026-04-11T09:48:52.526Z</time></trkpt><trkpt lat="44.5787598" lon="8.0353748"><ele>545.0</ele><time>2026-04-11T09:48:55.526Z</time></trkpt><trkpt lat="44.5786924" lon="8.0353339"><ele>545.0</ele><time>2026-04-11T09:48:58.526Z</time></trkpt><trkpt lat="44.5786241" lon="8.0353076"><ele>545.0</ele><time>2026-04-11T09:49:01.526Z</time></trkpt><trkpt lat="44.5785539" lon="8.0352852"><ele>545.0</ele><time>2026-04-11T09:49:04.526Z</time></trkpt><trkpt lat="44.5784784" lon="8.0352448"><ele>546.0</ele><time>2026-04-11T09:49:07.526Z</time></trkpt><trkpt lat="44.5783867" lon="8.035221"><ele>547.0</ele><time>2026-04-11T09:49:10.526Z</time></trkpt><trkpt lat="44.5783066" lon="8.0352033"><ele>548.0</ele><time>2026-04-11T09:49:13.526Z</time></trkpt><trkpt lat="44.5782339" lon="8.0351665"><ele>549.0</ele><time>2026-04-11T09:49:16.526Z</time></trkpt><trkpt lat="44.5781685" lon="8.0351391"><ele>550.0</ele><time>2026-04-11T09:49:19.526Z</time></trkpt><trkpt lat="44.5780882" lon="8.0351215"><ele>551.0</ele><time>2026-04-11T09:49:22.526Z</time></trkpt><trkpt lat="44.5780242" lon="8.0350837"><ele>551.0</ele><time>2026-04-11T09:49:26.526Z</time></trkpt><trkpt lat="44.5779455" lon="8.0350617"><ele>551.0</ele><time>2026-04-11T09:49:29.526Z</time></trkpt><trkpt lat="44.5778652" lon="8.0350666"><ele>551.0</ele><time>2026-04-11T09:49:31.526Z</time></trkpt><trkpt lat="44.57777" lon="8.0350624"><ele>551.0</ele><time>2026-04-11T09:49:33.526Z</time></trkpt><trkpt lat="44.5776667" lon="8.0350946"><ele>551.0</ele><time>2026-04-11T09:49:35.526Z</time></trkpt><trkpt lat="44.5776087" lon="8.0351583"><ele>551.0</ele><time>2026-04-11T09:49:38.526Z</time></trkpt><trkpt lat="44.5775759" lon="8.0352567"><ele>551.4</ele><time>2026-04-11T09:49:40.526Z</time></trkpt><trkpt lat="44.5775018" lon="8.0353923"><ele>551.8</ele><time>2026-04-11T09:49:42.526Z</time></trkpt><trkpt lat="44.5774357" lon="8.0355139"><ele>552.1999999999999</ele><time>2026-04-11T09:49:44.527Z</time></trkpt><trkpt lat="44.5773784" lon="8.0356693"><ele>552.6</ele><time>2026-04-11T09:49:46.526Z</time></trkpt><trkpt lat="44.5773558" lon="8.0357704"><ele>553.0</ele><time>2026-04-11T09:49:47.526Z</time></trkpt><trkpt lat="44.5773399" lon="8.0358892"><ele>553.0</ele><time>2026-04-11T09:49:48.526Z</time></trkpt><trkpt lat="44.5773175" lon="8.0360159"><ele>553.0</ele><time>2026-04-11T09:49:49.526Z</time></trkpt><trkpt lat="44.5772913" lon="8.0361345"><ele>553.0</ele><time>2026-04-11T09:49:50.526Z</time></trkpt><trkpt lat="44.5772625" lon="8.0362487"><ele>553.0</ele><time>2026-04-11T09:49:51.526Z</time></trkpt><trkpt lat="44.577236" lon="8.0363529"><ele>553.0</ele><time>2026-04-11T09:49:52.526Z</time></trkpt><trkpt lat="44.577207" lon="8.0364418"><ele>553.0</ele><time>2026-04-11T09:49:53.526Z</time></trkpt><trkpt lat="44.5772107" lon="8.0365366"><ele>553.0</ele><time>2026-04-11T09:49:54.526Z</time></trkpt><trkpt lat="44.5771922" lon="8.0366578"><ele>553.0</ele><time>2026-04-11T09:49:55.526Z</time></trkpt><trkpt lat="44.577175" lon="8.0367612"><ele>553.0</ele><time>2026-04-11T09:49:56.526Z</time></trkpt><trkpt lat="44.5771667" lon="8.0368623"><ele>553.0</ele><time>2026-04-11T09:49:57.526Z</time></trkpt><trkpt lat="44.5771498" lon="8.0369735"><ele>553.0</ele><time>2026-04-11T09:49:58.526Z</time></trkpt><trkpt lat="44.5771257" lon="8.0370804"><ele>553.0</ele><time>2026-04-11T09:49:59.526Z</time></trkpt><trkpt lat="44.5770887" lon="8.0371677"><ele>553.0</ele><time>2026-04-11T09:50:00.526Z</time></trkpt><trkpt lat="44.577048" lon="8.0372715"><ele>553.0</ele><time>2026-04-11T09:50:01.526Z</time></trkpt><trkpt lat="44.5769935" lon="8.0373661"><ele>553.0</ele><time>2026-04-11T09:50:02.526Z</time></trkpt><trkpt lat="44.5769447" lon="8.0374651"><ele>553.0</ele><time>2026-04-11T09:50:03.527Z</time></trkpt><trkpt lat="44.5768935" lon="8.037571"><ele>553.0</ele><time>2026-04-11T09:50:04.527Z</time></trkpt><trkpt lat="44.5768356" lon="8.0376864"><ele>553.0</ele><time>2026-04-11T09:50:05.526Z</time></trkpt><trkpt lat="44.5767831" lon="8.0377815"><ele>550.1666666666667</ele><time>2026-04-11T09:50:06.526Z</time></trkpt><trkpt lat="44.5767137" lon="8.037882"><ele>547.3333333333334</ele><time>2026-04-11T09:50:07.526Z</time></trkpt><trkpt lat="44.5766473" lon="8.0379804"><ele>544.5</ele><time>2026-04-11T09:50:08.526Z</time></trkpt><trkpt lat="44.5766016" lon="8.038076"><ele>541.6666666666666</ele><time>2026-04-11T09:50:09.526Z</time></trkpt><trkpt lat="44.5765835" lon="8.0381722"><ele>538.8333333333333</ele><time>2026-04-11T09:50:10.527Z</time></trkpt><trkpt lat="44.5765459" lon="8.0382518"><ele>536.0</ele><time>2026-04-11T09:50:11.526Z</time></trkpt><trkpt lat="44.5765061" lon="8.0383241"><ele>536.0</ele><time>2026-04-11T09:50:12.527Z</time></trkpt><trkpt lat="44.5764739" lon="8.0384204"><ele>536.0</ele><time>2026-04-11T09:50:13.526Z</time></trkpt><trkpt lat="44.5764271" lon="8.0384979"><ele>536.0</ele><time>2026-04-11T09:50:14.526Z</time></trkpt><trkpt lat="44.5763395" lon="8.0386206"><ele>536.0</ele><time>2026-04-11T09:50:16.526Z</time></trkpt><trkpt lat="44.5762755" lon="8.0387502"><ele>536.0</ele><time>2026-04-11T09:50:18.526Z</time></trkpt><trkpt lat="44.5761963" lon="8.0388844"><ele>534.1666666666666</ele><time>2026-04-11T09:50:20.526Z</time></trkpt><trkpt lat="44.5761539" lon="8.0389699"><ele>532.3333333333333</ele><time>2026-04-11T09:50:21.526Z</time></trkpt><trkpt lat="44.5761056" lon="8.0390667"><ele>530.5</ele><time>2026-04-11T09:50:22.526Z</time></trkpt><trkpt lat="44.576057" lon="8.0391636"><ele>528.6666666666666</ele><time>2026-04-11T09:50:23.526Z</time></trkpt><trkpt lat="44.5760139" lon="8.0392701"><ele>526.8333333333334</ele><time>2026-04-11T09:50:24.526Z</time></trkpt><trkpt lat="44.5759549" lon="8.0393234"><ele>525.0</ele><time>2026-04-11T09:50:25.526Z</time></trkpt><trkpt lat="44.5758821" lon="8.0393702"><ele>524.6666666666666</ele><time>2026-04-11T09:50:26.526Z</time></trkpt><trkpt lat="44.5758163" lon="8.0394131"><ele>524.3333333333334</ele><time>2026-04-11T09:50:27.526Z</time></trkpt><trkpt lat="44.5757171" lon="8.0394978"><ele>524.0</ele><time>2026-04-11T09:50:29.526Z</time></trkpt><trkpt lat="44.5756543" lon="8.0395715"><ele>523.6666666666667</ele><time>2026-04-11T09:50:31.526Z</time></trkpt><trkpt lat="44.5756125" lon="8.0396464"><ele>523.3333333333334</ele><time>2026-04-11T09:50:33.526Z</time></trkpt><trkpt lat="44.5755475" lon="8.0397421"><ele>523.0</ele><time>2026-04-11T09:50:35.526Z</time></trkpt><trkpt lat="44.5754781" lon="8.0398872"><ele>523.0</ele><time>2026-04-11T09:50:37.526Z</time></trkpt><trkpt lat="44.5754419" lon="8.0399664"><ele>523.0</ele><time>2026-04-11T09:50:38.526Z</time></trkpt><trkpt lat="44.5754077" lon="8.0400515"><ele>523.0</ele><time>2026-04-11T09:50:39.526Z</time></trkpt><trkpt lat="44.5753728" lon="8.0401267"><ele>523.0</ele><time>2026-04-11T09:50:40.526Z</time></trkpt><trkpt lat="44.5753168" lon="8.0402622"><ele>523.0</ele><time>2026-04-11T09:50:42.526Z</time></trkpt><trkpt lat="44.5752924" lon="8.0403674"><ele>523.0</ele><time>2026-04-11T09:50:44.526Z</time></trkpt><trkpt lat="44.5752867" lon="8.0405075"><ele>524.8333333333334</ele><time>2026-04-11T09:50:46.526Z</time></trkpt><trkpt lat="44.5752058" lon="8.0406093"><ele>526.6666666666667</ele><time>2026-04-11T09:50:48.526Z</time></trkpt><trkpt lat="44.5751533" lon="8.040724"><ele>528.5</ele><time>2026-04-11T09:50:50.526Z</time></trkpt><trkpt lat="44.5751008" lon="8.040813"><ele>530.3333333333334</ele><time>2026-04-11T09:50:52.526Z</time></trkpt><trkpt lat="44.5750352" lon="8.0408863"><ele>532.1666666666666</ele><time>2026-04-11T09:50:55.526Z</time></trkpt><trkpt lat="44.5749724" lon="8.0409091"><ele>534.0</ele><time>2026-04-11T09:51:02.526Z</time></trkpt><trkpt lat="44.5748367" lon="8.0409185"><ele>534.0</ele><time>2026-04-11T09:51:16.527Z</time></trkpt><trkpt lat="44.5749199" lon="8.0409939"><ele>534.0</ele><time>2026-04-11T09:51:24.528Z</time></trkpt><trkpt lat="44.574981" lon="8.041067"><ele>534.0</ele><time>2026-04-11T09:51:28.527Z</time></trkpt><trkpt lat="44.574918" lon="8.0410488"><ele>534.0</ele><time>2026-04-11T09:51:43.527Z</time></trkpt><trkpt lat="44.5748663" lon="8.0411418"><ele>534.0</ele><time>2026-04-11T09:51:47.527Z</time></trkpt><trkpt lat="44.5748355" lon="8.0412412"><ele>534.0</ele><time>2026-04-11T09:51:50.527Z</time></trkpt><trkpt lat="44.5747995" lon="8.0413154"><ele>534.0</ele><time>2026-04-11T09:51:54.533Z</time></trkpt><trkpt lat="44.5747286" lon="8.0413679"><ele>534.0</ele><time>2026-04-11T09:51:59.533Z</time></trkpt><trkpt lat="44.5747166" lon="8.0412556"><ele>534.0</ele><time>2026-04-11T09:52:07.534Z</time></trkpt><trkpt lat="44.5746804" lon="8.0411398"><ele>534.0</ele><time>2026-04-11T09:52:11.533Z</time></trkpt><trkpt lat="44.5747178" lon="8.0410656"><ele>534.0</ele><time>2026-04-11T09:52:14.533Z</time></trkpt><trkpt lat="44.5747611" lon="8.0410004"><ele>534.0</ele><time>2026-04-11T09:52:17.533Z</time></trkpt><trkpt lat="44.5748212" lon="8.0409175"><ele>534.0</ele><time>2026-04-11T09:52:21.533Z</time></trkpt><trkpt lat="44.5748726" lon="8.0408495"><ele>534.0</ele><time>2026-04-11T09:52:24.533Z</time></trkpt><trkpt lat="44.5748975" lon="8.0407659"><ele>534.0</ele><time>2026-04-11T09:52:27.533Z</time></trkpt><trkpt lat="44.5748988" lon="8.0406436"><ele>534.0</ele><time>2026-04-11T09:52:30.533Z</time></trkpt><trkpt lat="44.5749362" lon="8.0405406"><ele>534.0</ele><time>2026-04-11T09:52:33.533Z</time></trkpt><trkpt lat="44.5749663" lon="8.040444"><ele>534.0</ele><time>2026-04-11T09:52:37.533Z</time></trkpt><trkpt lat="44.5749727" lon="8.0403425"><ele>534.2857142857143</ele><time>2026-04-11T09:52:41.533Z</time></trkpt><trkpt lat="44.5749698" lon="8.0402324"><ele>534.5714285714286</ele><time>2026-04-11T09:52:46.533Z</time></trkpt><trkpt lat="44.5749358" lon="8.040149"><ele>534.8571428571429</ele><time>2026-04-11T09:52:49.533Z</time></trkpt><trkpt lat="44.574945" lon="8.0400604"><ele>535.1428571428571</ele><time>2026-04-11T09:52:53.534Z</time></trkpt><trkpt lat="44.5749475" lon="8.0399606"><ele>535.4285714285714</ele><time>2026-04-11T09:52:57.534Z</time></trkpt><trkpt lat="44.5749433" lon="8.0398648"><ele>535.7142857142858</ele><time>2026-04-11T09:53:02.534Z</time></trkpt><trkpt lat="44.5748873" lon="8.0397892"><ele>536.0</ele><time>2026-04-11T09:53:05.534Z</time></trkpt><trkpt lat="44.5748464" lon="8.0397064"><ele>536.0</ele><time>2026-04-11T09:53:09.534Z</time></trkpt><trkpt lat="44.5747805" lon="8.039694"><ele>536.0</ele><time>2026-04-11T09:53:13.534Z</time></trkpt><trkpt lat="44.5747072" lon="8.0397003"><ele>536.0</ele><time>2026-04-11T09:53:18.534Z</time></trkpt><trkpt lat="44.5746387" lon="8.0396575"><ele>536.0</ele><time>2026-04-11T09:53:22.534Z</time></trkpt><trkpt lat="44.5746362" lon="8.0395506"><ele>536.0</ele><time>2026-04-11T09:53:27.534Z</time></trkpt><trkpt lat="44.574674" lon="8.0394703"><ele>536.0</ele><time>2026-04-11T09:53:31.534Z</time></trkpt><trkpt lat="44.5746841" lon="8.0393775"><ele>536.0</ele><time>2026-04-11T09:53:35.534Z</time></trkpt><trkpt lat="44.5746753" lon="8.0392856"><ele>536.0</ele><time>2026-04-11T09:53:39.534Z</time></trkpt><trkpt lat="44.5746756" lon="8.0391907"><ele>536.0</ele><time>2026-04-11T09:53:43.534Z</time></trkpt><trkpt lat="44.5746713" lon="8.0390946"><ele>536.0</ele><time>2026-04-11T09:53:47.535Z</time></trkpt><trkpt lat="44.5746636" lon="8.038993"><ele>536.0</ele><time>2026-04-11T09:53:51.534Z</time></trkpt><trkpt lat="44.5746174" lon="8.0388788"><ele>536.0</ele><time>2026-04-11T09:53:55.534Z</time></trkpt><trkpt lat="44.5746495" lon="8.0387724"><ele>536.0</ele><time>2026-04-11T09:53:59.534Z</time></trkpt><trkpt lat="44.5747035" lon="8.038675"><ele>536.0</ele><time>2026-04-11T09:54:01.534Z</time></trkpt><trkpt lat="44.5747596" lon="8.038574"><ele>536.0</ele><time>2026-04-11T09:54:03.534Z</time></trkpt><trkpt lat="44.5748089" lon="8.0384727"><ele>536.0</ele><time>2026-04-11T09:54:05.534Z</time></trkpt><trkpt lat="44.5748493" lon="8.0383629"><ele>536.0</ele><time>2026-04-11T09:54:07.535Z</time></trkpt><trkpt lat="44.5748586" lon="8.0382297"><ele>536.0</ele><time>2026-04-11T09:54:09.534Z</time></trkpt><trkpt lat="44.5748453" lon="8.0380736"><ele>535.8</ele><time>2026-04-11T09:54:11.534Z</time></trkpt><trkpt lat="44.5748211" lon="8.0379104"><ele>535.6</ele><time>2026-04-11T09:54:13.534Z</time></trkpt><trkpt lat="44.5747821" lon="8.0377773"><ele>535.4</ele><time>2026-04-11T09:54:15.534Z</time></trkpt><trkpt lat="44.5747327" lon="8.037659"><ele>535.2</ele><time>2026-04-11T09:54:17.534Z</time></trkpt><trkpt lat="44.5746852" lon="8.0375586"><ele>535.0</ele><time>2026-04-11T09:54:19.534Z</time></trkpt><trkpt lat="44.5746492" lon="8.0374719"><ele>534.8333333333334</ele><time>2026-04-11T09:54:21.534Z</time></trkpt><trkpt lat="44.5746019" lon="8.0373855"><ele>534.6666666666667</ele><time>2026-04-11T09:54:23.534Z</time></trkpt><trkpt lat="44.5745598" lon="8.0372837"><ele>534.5</ele><time>2026-04-11T09:54:25.534Z</time></trkpt><trkpt lat="44.5745122" lon="8.0371812"><ele>534.3333333333334</ele><time>2026-04-11T09:54:27.534Z</time></trkpt><trkpt lat="44.574472" lon="8.0370818"><ele>534.1666666666666</ele><time>2026-04-11T09:54:29.534Z</time></trkpt><trkpt lat="44.5744208" lon="8.0369842"><ele>534.0</ele><time>2026-04-11T09:54:31.534Z</time></trkpt><trkpt lat="44.5743658" lon="8.036905"><ele>535.7142857142858</ele><time>2026-04-11T09:54:33.534Z</time></trkpt><trkpt lat="44.5743248" lon="8.0368365"><ele>537.4285714285714</ele><time>2026-04-11T09:54:35.534Z</time></trkpt><trkpt lat="44.5742843" lon="8.0367648"><ele>539.1428571428571</ele><time>2026-04-11T09:54:37.534Z</time></trkpt><trkpt lat="44.5742489" lon="8.0366786"><ele>540.8571428571429</ele><time>2026-04-11T09:54:39.534Z</time></trkpt><trkpt lat="44.5742127" lon="8.0366015"><ele>542.5714285714286</ele><time>2026-04-11T09:54:41.534Z</time></trkpt><trkpt lat="44.5741582" lon="8.0365187"><ele>544.2857142857143</ele><time>2026-04-11T09:54:43.534Z</time></trkpt><trkpt lat="44.5741082" lon="8.0364515"><ele>546.0</ele><time>2026-04-11T09:54:45.534Z</time></trkpt><trkpt lat="44.5740805" lon="8.0363656"><ele>545.6666666666666</ele><time>2026-04-11T09:54:47.534Z</time></trkpt><trkpt lat="44.5740391" lon="8.0362691"><ele>545.3333333333334</ele><time>2026-04-11T09:54:49.534Z</time></trkpt><trkpt lat="44.5740086" lon="8.0361652"><ele>545.0</ele><time>2026-04-11T09:54:51.534Z</time></trkpt><trkpt lat="44.5740437" lon="8.0360405"><ele>544.6666666666667</ele><time>2026-04-11T09:54:54.534Z</time></trkpt><trkpt lat="44.5740569" lon="8.0359332"><ele>544.3333333333334</ele><time>2026-04-11T09:54:56.534Z</time></trkpt><trkpt lat="44.5740335" lon="8.0358446"><ele>544.0</ele><time>2026-04-11T09:54:58.534Z</time></trkpt><trkpt lat="44.5740155" lon="8.0357308"><ele>544.0</ele><time>2026-04-11T09:55:01.534Z</time></trkpt><trkpt lat="44.574023" lon="8.0356301"><ele>544.0</ele><time>2026-04-11T09:55:03.534Z</time></trkpt><trkpt lat="44.5739934" lon="8.0355116"><ele>544.0</ele><time>2026-04-11T09:55:05.534Z</time></trkpt><trkpt lat="44.5739991" lon="8.0353556"><ele>544.0</ele><time>2026-04-11T09:55:07.534Z</time></trkpt><trkpt lat="44.5739915" lon="8.0351864"><ele>544.0</ele><time>2026-04-11T09:55:09.534Z</time></trkpt><trkpt lat="44.5739962" lon="8.0350857"><ele>542.8</ele><time>2026-04-11T09:55:10.534Z</time></trkpt><trkpt lat="44.5740261" lon="8.0349359"><ele>541.5999999999999</ele><time>2026-04-11T09:55:12.534Z</time></trkpt><trkpt lat="44.5740014" lon="8.0348545"><ele>540.4</ele><time>2026-04-11T09:55:13.534Z</time></trkpt><trkpt lat="44.5739875" lon="8.0346864"><ele>539.1999999999999</ele><time>2026-04-11T09:55:15.534Z</time></trkpt><trkpt lat="44.5739665" lon="8.0345596"><ele>538.0</ele><time>2026-04-11T09:55:17.534Z</time></trkpt><trkpt lat="44.5739299" lon="8.0344775"><ele>538.0</ele><time>2026-04-11T09:55:18.534Z</time></trkpt><trkpt lat="44.573924" lon="8.0343347"><ele>538.0</ele><time>2026-04-11T09:55:20.534Z</time></trkpt><trkpt lat="44.573904" lon="8.0341855"><ele>538.0</ele><time>2026-04-11T09:55:22.534Z</time></trkpt><trkpt lat="44.5738803" lon="8.0339937"><ele>538.0</ele><time>2026-04-11T09:55:24.534Z</time></trkpt><trkpt lat="44.5738732" lon="8.0338736"><ele>538.0</ele><time>2026-04-11T09:55:25.534Z</time></trkpt><trkpt lat="44.5738472" lon="8.0337782"><ele>536.0</ele><time>2026-04-11T09:55:26.535Z</time></trkpt><trkpt lat="44.5738293" lon="8.0336804"><ele>534.0</ele><time>2026-04-11T09:55:27.534Z</time></trkpt><trkpt lat="44.5737833" lon="8.0336025"><ele>532.0</ele><time>2026-04-11T09:55:28.534Z</time></trkpt><trkpt lat="44.5736874" lon="8.0335326"><ele>530.0</ele><time>2026-04-11T09:55:30.534Z</time></trkpt><trkpt lat="44.5736118" lon="8.0334415"><ele>528.0</ele><time>2026-04-11T09:55:32.534Z</time></trkpt><trkpt lat="44.573527" lon="8.0333595"><ele>528.4</ele><time>2026-04-11T09:55:34.534Z</time></trkpt><trkpt lat="44.5734402" lon="8.0332707"><ele>528.8</ele><time>2026-04-11T09:55:36.534Z</time></trkpt><trkpt lat="44.5734063" lon="8.0331556"><ele>529.2</ele><time>2026-04-11T09:55:38.534Z</time></trkpt><trkpt lat="44.5733604" lon="8.0330368"><ele>529.6</ele><time>2026-04-11T09:55:40.534Z</time></trkpt><trkpt lat="44.5733087" lon="8.0329567"><ele>530.0</ele><time>2026-04-11T09:55:42.534Z</time></trkpt><trkpt lat="44.5732467" lon="8.0328547"><ele>530.0</ele><time>2026-04-11T09:55:44.534Z</time></trkpt><trkpt lat="44.573175" lon="8.032747"><ele>530.0</ele><time>2026-04-11T09:55:46.534Z</time></trkpt><trkpt lat="44.5730867" lon="8.0326204"><ele>530.0</ele><time>2026-04-11T09:55:48.534Z</time></trkpt><trkpt lat="44.5730282" lon="8.0325573"><ele>530.0</ele><time>2026-04-11T09:55:49.534Z</time></trkpt><trkpt lat="44.5729751" lon="8.0324931"><ele>530.0</ele><time>2026-04-11T09:55:50.534Z</time></trkpt><trkpt lat="44.5729185" lon="8.0324317"><ele>530.0</ele><time>2026-04-11T09:55:51.534Z</time></trkpt><trkpt lat="44.5728532" lon="8.0323662"><ele>530.2</ele><time>2026-04-11T09:55:52.534Z</time></trkpt><trkpt lat="44.572799" lon="8.0322782"><ele>530.4</ele><time>2026-04-11T09:55:53.534Z</time></trkpt><trkpt lat="44.5727078" lon="8.0321756"><ele>530.6</ele><time>2026-04-11T09:55:55.534Z</time></trkpt><trkpt lat="44.5725909" lon="8.0320782"><ele>530.8</ele><time>2026-04-11T09:55:57.534Z</time></trkpt><trkpt lat="44.5725343" lon="8.0320242"><ele>531.0</ele><time>2026-04-11T09:55:58.534Z</time></trkpt><trkpt lat="44.5724386" lon="8.031917"><ele>531.0</ele><time>2026-04-11T09:56:00.534Z</time></trkpt><trkpt lat="44.5723308" lon="8.031844"><ele>531.0</ele><time>2026-04-11T09:56:02.534Z</time></trkpt><trkpt lat="44.5722639" lon="8.0318096"><ele>531.0</ele><time>2026-04-11T09:56:04.534Z</time></trkpt><trkpt lat="44.5721636" lon="8.0317742"><ele>531.0</ele><time>2026-04-11T09:56:06.534Z</time></trkpt><trkpt lat="44.5720813" lon="8.0317391"><ele>531.0</ele><time>2026-04-11T09:56:08.534Z</time></trkpt><trkpt lat="44.5719922" lon="8.0317171"><ele>531.0</ele><time>2026-04-11T09:56:10.534Z</time></trkpt><trkpt lat="44.5719094" lon="8.0317109"><ele>531.0</ele><time>2026-04-11T09:56:13.534Z</time></trkpt><trkpt lat="44.5718474" lon="8.0316732"><ele>531.0</ele><time>2026-04-11T09:56:16.534Z</time></trkpt><trkpt lat="44.5717723" lon="8.0316531"><ele>531.0</ele><time>2026-04-11T09:56:20.534Z</time></trkpt><trkpt lat="44.5717101" lon="8.0316384"><ele>531.0</ele><time>2026-04-11T09:56:22.534Z</time></trkpt><trkpt lat="44.5716327" lon="8.0316023"><ele>531.0</ele><time>2026-04-11T09:56:25.534Z</time></trkpt><trkpt lat="44.5715494" lon="8.0315461"><ele>531.0</ele><time>2026-04-11T09:56:28.534Z</time></trkpt><trkpt lat="44.5715036" lon="8.0314819"><ele>531.0</ele><time>2026-04-11T09:56:33.534Z</time></trkpt><trkpt lat="44.571504" lon="8.0313582"><ele>531.0</ele><time>2026-04-11T09:56:37.534Z</time></trkpt><trkpt lat="44.5715161" lon="8.0312666"><ele>531.0</ele><time>2026-04-11T09:56:39.534Z</time></trkpt><trkpt lat="44.5714644" lon="8.0311758"><ele>531.0</ele><time>2026-04-11T09:56:42.534Z</time></trkpt><trkpt lat="44.5713991" lon="8.0311731"><ele>531.0</ele><time>2026-04-11T09:56:44.535Z</time></trkpt><trkpt lat="44.571299" lon="8.0311512"><ele>531.0</ele><time>2026-04-11T09:56:47.534Z</time></trkpt><trkpt lat="44.5712299" lon="8.0311187"><ele>531.0</ele><time>2026-04-11T09:56:49.534Z</time></trkpt><trkpt lat="44.5711632" lon="8.0310781"><ele>531.0</ele><time>2026-04-11T09:56:51.534Z</time></trkpt><trkpt lat="44.5710924" lon="8.031049"><ele>531.0</ele><time>2026-04-11T09:56:53.534Z</time></trkpt><trkpt lat="44.5710031" lon="8.0310147"><ele>531.0</ele><time>2026-04-11T09:56:56.534Z</time></trkpt><trkpt lat="44.5709435" lon="8.0309842"><ele>531.0</ele><time>2026-04-11T09:56:58.534Z</time></trkpt><trkpt lat="44.5708678" lon="8.0310034"><ele>532.2857142857143</ele><time>2026-04-11T09:57:01.534Z</time></trkpt><trkpt lat="44.5707918" lon="8.0310259"><ele>533.5714285714287</ele><time>2026-04-11T09:57:04.534Z</time></trkpt><trkpt lat="44.5707245" lon="8.0310465"><ele>534.8571428571429</ele><time>2026-04-11T09:57:07.534Z</time></trkpt><trkpt lat="44.5706489" lon="8.0310527"><ele>536.1428571428571</ele><time>2026-04-11T09:57:12.534Z</time></trkpt><trkpt lat="44.5705731" lon="8.0310377"><ele>537.4285714285713</ele><time>2026-04-11T09:57:16.534Z</time></trkpt><trkpt lat="44.570506" lon="8.0310338"><ele>538.7142857142857</ele><time>2026-04-11T09:57:19.534Z</time></trkpt><trkpt lat="44.5704284" lon="8.0310287"><ele>540.0</ele><time>2026-04-11T09:57:22.534Z</time></trkpt><trkpt lat="44.5703599" lon="8.0310145"><ele>540.3333333333334</ele><time>2026-04-11T09:57:25.534Z</time></trkpt><trkpt lat="44.5702881" lon="8.030993"><ele>540.6666666666666</ele><time>2026-04-11T09:57:28.534Z</time></trkpt><trkpt lat="44.570219" lon="8.0309694"><ele>541.0</ele><time>2026-04-11T09:57:31.534Z</time></trkpt><trkpt lat="44.5701566" lon="8.0309551"><ele>541.3333333333333</ele><time>2026-04-11T09:57:34.534Z</time></trkpt><trkpt lat="44.5700581" lon="8.0309355"><ele>541.6666666666666</ele><time>2026-04-11T09:57:38.534Z</time></trkpt><trkpt lat="44.5699999" lon="8.0308988"><ele>542.0</ele><time>2026-04-11T09:57:41.534Z</time></trkpt><trkpt lat="44.5699256" lon="8.0308626"><ele>542.0</ele><time>2026-04-11T09:57:44.534Z</time></trkpt><trkpt lat="44.5698588" lon="8.0309109"><ele>542.0</ele><time>2026-04-11T09:57:47.534Z</time></trkpt><trkpt lat="44.569788" lon="8.0309417"><ele>542.0</ele><time>2026-04-11T09:57:51.534Z</time></trkpt><trkpt lat="44.5697241" lon="8.031002"><ele>542.0</ele><time>2026-04-11T09:57:55.534Z</time></trkpt><trkpt lat="44.5696866" lon="8.0311081"><ele>542.0</ele><time>2026-04-11T09:57:58.534Z</time></trkpt><trkpt lat="44.5696377" lon="8.0311777"><ele>542.0</ele><time>2026-04-11T09:58:02.534Z</time></trkpt><trkpt lat="44.5696007" lon="8.0312761"><ele>542.0</ele><time>2026-04-11T09:58:07.534Z</time></trkpt><trkpt lat="44.5695462" lon="8.0313407"><ele>542.0</ele><time>2026-04-11T09:58:11.534Z</time></trkpt><trkpt lat="44.5694936" lon="8.0314183"><ele>542.0</ele><time>2026-04-11T09:58:16.534Z</time></trkpt><trkpt lat="44.5694414" lon="8.031485"><ele>542.0</ele><time>2026-04-11T09:58:21.534Z</time></trkpt><trkpt lat="44.5694031" lon="8.0315713"><ele>542.0</ele><time>2026-04-11T09:58:24.534Z</time></trkpt><trkpt lat="44.5693988" lon="8.0316764"><ele>542.0</ele><time>2026-04-11T09:58:27.534Z</time></trkpt><trkpt lat="44.5693692" lon="8.031757"><ele>542.0</ele><time>2026-04-11T09:58:31.534Z</time></trkpt><trkpt lat="44.5693311" lon="8.0318363"><ele>544.0</ele><time>2026-04-11T09:58:36.543Z</time></trkpt><trkpt lat="44.5692795" lon="8.031908"><ele>546.0</ele><time>2026-04-11T09:58:41.543Z</time></trkpt><trkpt lat="44.5692495" lon="8.0320055"><ele>548.0</ele><time>2026-04-11T09:58:45.543Z</time></trkpt><trkpt lat="44.5692161" lon="8.0321001"><ele>550.0</ele><time>2026-04-11T09:58:49.544Z</time></trkpt><trkpt lat="44.5691964" lon="8.032197"><ele>552.0</ele><time>2026-04-11T09:58:53.543Z</time></trkpt><trkpt lat="44.5691837" lon="8.0323003"><ele>554.0</ele><time>2026-04-11T09:58:58.543Z</time></trkpt><trkpt lat="44.569175" lon="8.0323905"><ele>556.0</ele><time>2026-04-11T09:59:03.543Z</time></trkpt><trkpt lat="44.5691654" lon="8.0324796"><ele>557.7142857142857</ele><time>2026-04-11T09:59:07.543Z</time></trkpt><trkpt lat="44.5691597" lon="8.0325734"><ele>559.4285714285714</ele><time>2026-04-11T09:59:11.543Z</time></trkpt><trkpt lat="44.5691789" lon="8.0326758"><ele>561.1428571428571</ele><time>2026-04-11T09:59:16.543Z</time></trkpt><trkpt lat="44.5691774" lon="8.0327877"><ele>562.8571428571429</ele><time>2026-04-11T09:59:21.543Z</time></trkpt><trkpt lat="44.5691632" lon="8.032881"><ele>564.5714285714286</ele><time>2026-04-11T09:59:24.543Z</time></trkpt><trkpt lat="44.5691877" lon="8.0329728"><ele>566.2857142857142</ele><time>2026-04-11T09:59:28.543Z</time></trkpt><trkpt lat="44.5692053" lon="8.0330702"><ele>568.0</ele><time>2026-04-11T09:59:32.543Z</time></trkpt><trkpt lat="44.5691954" lon="8.0331743"><ele>568.0</ele><time>2026-04-11T09:59:37.543Z</time></trkpt><trkpt lat="44.569151" lon="8.0332581"><ele>568.0</ele><time>2026-04-11T09:59:42.543Z</time></trkpt><trkpt lat="44.5691128" lon="8.0333413"><ele>568.0</ele><time>2026-04-11T09:59:46.543Z</time></trkpt><trkpt lat="44.5691018" lon="8.0334385"><ele>568.0</ele><time>2026-04-11T09:59:50.543Z</time></trkpt><trkpt lat="44.5690902" lon="8.0335354"><ele>568.0</ele><time>2026-04-11T09:59:54.543Z</time></trkpt><trkpt lat="44.5690946" lon="8.0336498"><ele>568.0</ele><time>2026-04-11T09:59:58.543Z</time></trkpt><trkpt lat="44.5690903" lon="8.0337515"><ele>568.0</ele><time>2026-04-11T10:00:02.543Z</time></trkpt><trkpt lat="44.5690731" lon="8.0338374"><ele>569.5714285714286</ele><time>2026-04-11T10:00:06.543Z</time></trkpt><trkpt lat="44.5690773" lon="8.0339487"><ele>571.1428571428571</ele><time>2026-04-11T10:00:10.543Z</time></trkpt><trkpt lat="44.5690786" lon="8.0340632"><ele>572.7142857142857</ele><time>2026-04-11T10:00:14.543Z</time></trkpt><trkpt lat="44.5690934" lon="8.0341534"><ele>574.2857142857142</ele><time>2026-04-11T10:00:17.543Z</time></trkpt><trkpt lat="44.569086" lon="8.0342645"><ele>575.8571428571429</ele><time>2026-04-11T10:00:21.543Z</time></trkpt><trkpt lat="44.569083" lon="8.0343622"><ele>577.4285714285713</ele><time>2026-04-11T10:00:25.543Z</time></trkpt><trkpt lat="44.5690576" lon="8.0344587"><ele>579.0</ele><time>2026-04-11T10:00:31.543Z</time></trkpt><trkpt lat="44.5690679" lon="8.0345615"><ele>580.5714285714286</ele><time>2026-04-11T10:00:34.543Z</time></trkpt><trkpt lat="44.5690496" lon="8.0346667"><ele>582.1428571428571</ele><time>2026-04-11T10:00:38.543Z</time></trkpt><trkpt lat="44.5690378" lon="8.0347619"><ele>583.7142857142858</ele><time>2026-04-11T10:00:42.543Z</time></trkpt><trkpt lat="44.56904" lon="8.0348766"><ele>585.2857142857142</ele><time>2026-04-11T10:00:46.543Z</time></trkpt><trkpt lat="44.5690345" lon="8.0349768"><ele>586.8571428571429</ele><time>2026-04-11T10:00:49.543Z</time></trkpt><trkpt lat="44.5689979" lon="8.0350758"><ele>588.4285714285714</ele><time>2026-04-11T10:00:53.543Z</time></trkpt><trkpt lat="44.5689781" lon="8.0351693"><ele>590.0</ele><time>2026-04-11T10:00:56.543Z</time></trkpt><trkpt lat="44.5689727" lon="8.0352608"><ele>591.5</ele><time>2026-04-11T10:00:59.543Z</time></trkpt><trkpt lat="44.5689427" lon="8.0353453"><ele>593.0</ele><time>2026-04-11T10:01:02.543Z</time></trkpt><trkpt lat="44.5689008" lon="8.0354332"><ele>594.5</ele><time>2026-04-11T10:01:05.543Z</time></trkpt><trkpt lat="44.5688632" lon="8.0355233"><ele>596.0</ele><time>2026-04-11T10:01:08.543Z</time></trkpt><trkpt lat="44.5688145" lon="8.0356283"><ele>597.5</ele><time>2026-04-11T10:01:11.543Z</time></trkpt><trkpt lat="44.5687836" lon="8.0357444"><ele>599.0</ele><time>2026-04-11T10:01:14.543Z</time></trkpt><trkpt lat="44.5687399" lon="8.0358441"><ele>597.8333333333333</ele><time>2026-04-11T10:01:17.543Z</time></trkpt><trkpt lat="44.5687091" lon="8.0359382"><ele>596.6666666666666</ele><time>2026-04-11T10:01:20.543Z</time></trkpt><trkpt lat="44.5686489" lon="8.0359773"><ele>595.5</ele><time>2026-04-11T10:01:22.543Z</time></trkpt><trkpt lat="44.5685748" lon="8.0360099"><ele>594.3333333333334</ele><time>2026-04-11T10:01:24.543Z</time></trkpt><trkpt lat="44.5684998" lon="8.0360701"><ele>593.1666666666667</ele><time>2026-04-11T10:01:27.543Z</time></trkpt><trkpt lat="44.5684226" lon="8.0361168"><ele>592.0</ele><time>2026-04-11T10:01:31.543Z</time></trkpt><trkpt lat="44.5683601" lon="8.03618"><ele>592.0</ele><time>2026-04-11T10:01:35.543Z</time></trkpt><trkpt lat="44.5683112" lon="8.0362445"><ele>592.0</ele><time>2026-04-11T10:01:38.543Z</time></trkpt><trkpt lat="44.5682564" lon="8.0363259"><ele>592.0</ele><time>2026-04-11T10:01:42.543Z</time></trkpt><trkpt lat="44.5681897" lon="8.0364047"><ele>592.0</ele><time>2026-04-11T10:01:46.543Z</time></trkpt><trkpt lat="44.5681262" lon="8.0364761"><ele>592.0</ele><time>2026-04-11T10:01:49.543Z</time></trkpt><trkpt lat="44.56808" lon="8.0365599"><ele>592.0</ele><time>2026-04-11T10:01:52.543Z</time></trkpt><trkpt lat="44.5680389" lon="8.0366694"><ele>590.5</ele><time>2026-04-11T10:01:55.543Z</time></trkpt><trkpt lat="44.5679996" lon="8.0367811"><ele>589.0</ele><time>2026-04-11T10:01:58.543Z</time></trkpt><trkpt lat="44.5679594" lon="8.0368895"><ele>587.5</ele><time>2026-04-11T10:02:01.543Z</time></trkpt><trkpt lat="44.5679133" lon="8.0369838"><ele>586.0</ele><time>2026-04-11T10:02:04.543Z</time></trkpt><trkpt lat="44.5678595" lon="8.0370822"><ele>584.5</ele><time>2026-04-11T10:02:07.543Z</time></trkpt><trkpt lat="44.5678178" lon="8.0371748"><ele>583.0</ele><time>2026-04-11T10:02:10.543Z</time></trkpt><trkpt lat="44.5677737" lon="8.0372718"><ele>583.0</ele><time>2026-04-11T10:02:13.543Z</time></trkpt><trkpt lat="44.567731" lon="8.0373712"><ele>583.0</ele><time>2026-04-11T10:02:16.543Z</time></trkpt><trkpt lat="44.5677043" lon="8.0374691"><ele>583.0</ele><time>2026-04-11T10:02:19.543Z</time></trkpt><trkpt lat="44.5676773" lon="8.0375502"><ele>583.0</ele><time>2026-04-11T10:02:21.543Z</time></trkpt><trkpt lat="44.5676574" lon="8.0376761"><ele>583.0</ele><time>2026-04-11T10:02:24.543Z</time></trkpt><trkpt lat="44.5676661" lon="8.0377802"><ele>583.0</ele><time>2026-04-11T10:02:26.543Z</time></trkpt><trkpt lat="44.5676447" lon="8.0379009"><ele>585.5</ele><time>2026-04-11T10:02:28.543Z</time></trkpt><trkpt lat="44.5676875" lon="8.0379972"><ele>588.0</ele><time>2026-04-11T10:02:30.543Z</time></trkpt><trkpt lat="44.5677219" lon="8.0380779"><ele>590.5</ele><time>2026-04-11T10:02:32.543Z</time></trkpt><trkpt lat="44.5677515" lon="8.0381952"><ele>593.0</ele><time>2026-04-11T10:02:34.543Z</time></trkpt><trkpt lat="44.5677766" lon="8.0382985"><ele>595.5</ele><time>2026-04-11T10:02:36.543Z</time></trkpt><trkpt lat="44.5678105" lon="8.0384034"><ele>598.0</ele><time>2026-04-11T10:02:38.543Z</time></trkpt><trkpt lat="44.5678437" lon="8.0385063"><ele>598.8333333333334</ele><time>2026-04-11T10:02:40.543Z</time></trkpt><trkpt lat="44.5678582" lon="8.0386096"><ele>599.6666666666667</ele><time>2026-04-11T10:02:42.543Z</time></trkpt><trkpt lat="44.5678665" lon="8.0387233"><ele>600.5</ele><time>2026-04-11T10:02:44.543Z</time></trkpt><trkpt lat="44.5678736" lon="8.0388332"><ele>601.3333333333334</ele><time>2026-04-11T10:02:46.543Z</time></trkpt><trkpt lat="44.5678827" lon="8.0389444"><ele>602.1666666666666</ele><time>2026-04-11T10:02:48.543Z</time></trkpt><trkpt lat="44.5679573" lon="8.0389901"><ele>603.0</ele><time>2026-04-11T10:02:51.543Z</time></trkpt><trkpt lat="44.5679831" lon="8.0389093"><ele>605.8571428571429</ele><time>2026-04-11T10:02:53.543Z</time></trkpt><trkpt lat="44.5679806" lon="8.0387969"><ele>608.7142857142857</ele><time>2026-04-11T10:02:56.544Z</time></trkpt><trkpt lat="44.5679762" lon="8.0387009"><ele>611.5714285714286</ele><time>2026-04-11T10:03:00.543Z</time></trkpt><trkpt lat="44.5679825" lon="8.0385944"><ele>614.4285714285714</ele><time>2026-04-11T10:03:04.544Z</time></trkpt><trkpt lat="44.5679745" lon="8.038488"><ele>617.2857142857142</ele><time>2026-04-11T10:03:08.543Z</time></trkpt><trkpt lat="44.567968" lon="8.0383794"><ele>620.1428571428571</ele><time>2026-04-11T10:03:12.543Z</time></trkpt><trkpt lat="44.567939" lon="8.0382898"><ele>623.0</ele><time>2026-04-11T10:03:15.543Z</time></trkpt><trkpt lat="44.568005" lon="8.0381978"><ele>623.0</ele><time>2026-04-11T10:03:17.543Z</time></trkpt><trkpt lat="44.5679872" lon="8.0380686"><ele>623.0</ele><time>2026-04-11T10:03:21.543Z</time></trkpt><trkpt lat="44.5679288" lon="8.0379973"><ele>623.0</ele><time>2026-04-11T10:03:24.544Z</time></trkpt><trkpt lat="44.5679135" lon="8.0379083"><ele>623.0</ele><time>2026-04-11T10:03:28.543Z</time></trkpt><trkpt lat="44.5679399" lon="8.0378214"><ele>623.0</ele><time>2026-04-11T10:03:32.543Z</time></trkpt><trkpt lat="44.5680038" lon="8.0377822"><ele>623.0</ele><time>2026-04-11T10:03:39.543Z</time></trkpt><trkpt lat="44.5680548" lon="8.0378463"><ele>623.0</ele><time>2026-04-11T10:03:42.543Z</time></trkpt><trkpt lat="44.5680589" lon="8.0379514"><ele>623.0</ele><time>2026-04-11T10:03:45.543Z</time></trkpt><trkpt lat="44.5680952" lon="8.0380332"><ele>623.0</ele><time>2026-04-11T10:03:49.543Z</time></trkpt><trkpt lat="44.5681262" lon="8.0381107"><ele>623.0</ele><time>2026-04-11T10:03:54.543Z</time></trkpt><trkpt lat="44.5681569" lon="8.038188"><ele>623.0</ele><time>2026-04-11T10:03:58.543Z</time></trkpt><trkpt lat="44.5681895" lon="8.038283"><ele>623.0</ele><time>2026-04-11T10:04:03.543Z</time></trkpt><trkpt lat="44.5682343" lon="8.038372"><ele>623.0</ele><time>2026-04-11T10:04:08.543Z</time></trkpt><trkpt lat="44.5682769" lon="8.038459"><ele>623.0</ele><time>2026-04-11T10:04:13.543Z</time></trkpt><trkpt lat="44.5683114" lon="8.0385382"><ele>624.0</ele><time>2026-04-11T10:04:18.543Z</time></trkpt><trkpt lat="44.5683592" lon="8.0386204"><ele>625.0</ele><time>2026-04-11T10:04:21.543Z</time></trkpt><trkpt lat="44.5683994" lon="8.0387018"><ele>626.0</ele><time>2026-04-11T10:04:26.544Z</time></trkpt><trkpt lat="44.5684461" lon="8.0387735"><ele>627.0</ele><time>2026-04-11T10:04:30.543Z</time></trkpt><trkpt lat="44.5684924" lon="8.0388519"><ele>628.0</ele><time>2026-04-11T10:04:35.544Z</time></trkpt><trkpt lat="44.5685214" lon="8.0389456"><ele>629.0</ele><time>2026-04-11T10:04:39.544Z</time></trkpt><trkpt lat="44.5685333" lon="8.0390335"><ele>630.0</ele><time>2026-04-11T10:04:43.544Z</time></trkpt><trkpt lat="44.5685489" lon="8.0391403"><ele>630.0</ele><time>2026-04-11T10:04:48.544Z</time></trkpt><trkpt lat="44.5685907" lon="8.0392179"><ele>630.0</ele><time>2026-04-11T10:04:52.544Z</time></trkpt><trkpt lat="44.5686469" lon="8.0391738"><ele>630.0</ele><time>2026-04-11T10:04:57.544Z</time></trkpt><trkpt lat="44.5686581" lon="8.0390652"><ele>630.0</ele><time>2026-04-11T10:05:01.544Z</time></trkpt><trkpt lat="44.5686468" lon="8.0389473"><ele>630.0</ele><time>2026-04-11T10:05:06.544Z</time></trkpt><trkpt lat="44.5686428" lon="8.0388446"><ele>630.0</ele><time>2026-04-11T10:05:10.544Z</time></trkpt><trkpt lat="44.5686645" lon="8.0387601"><ele>630.0</ele><time>2026-04-11T10:05:14.548Z</time></trkpt><trkpt lat="44.5686716" lon="8.0386548"><ele>630.0</ele><time>2026-04-11T10:05:18.548Z</time></trkpt><trkpt lat="44.5686685" lon="8.0385633"><ele>630.0</ele><time>2026-04-11T10:05:21.549Z</time></trkpt><trkpt lat="44.5686849" lon="8.0384669"><ele>630.0</ele><time>2026-04-11T10:05:25.548Z</time></trkpt><trkpt lat="44.5686869" lon="8.0383656"><ele>630.0</ele><time>2026-04-11T10:05:29.548Z</time></trkpt><trkpt lat="44.5686795" lon="8.0382687"><ele>630.0</ele><time>2026-04-11T10:05:34.548Z</time></trkpt><trkpt lat="44.5686859" lon="8.0381761"><ele>630.0</ele><time>2026-04-11T10:05:38.548Z</time></trkpt><trkpt lat="44.5687029" lon="8.0380797"><ele>630.0</ele><time>2026-04-11T10:05:42.548Z</time></trkpt><trkpt lat="44.568762" lon="8.0380389"><ele>631.0</ele><time>2026-04-11T10:05:46.548Z</time></trkpt><trkpt lat="44.5688364" lon="8.0380911"><ele>632.0</ele><time>2026-04-11T10:05:50.549Z</time></trkpt><trkpt lat="44.5688771" lon="8.038167"><ele>633.0</ele><time>2026-04-11T10:05:53.549Z</time></trkpt><trkpt lat="44.5689235" lon="8.0382597"><ele>634.0</ele><time>2026-04-11T10:05:56.549Z</time></trkpt><trkpt lat="44.5689507" lon="8.0383546"><ele>635.0</ele><time>2026-04-11T10:05:59.549Z</time></trkpt><trkpt lat="44.5689693" lon="8.0384599"><ele>636.0</ele><time>2026-04-11T10:06:02.549Z</time></trkpt><trkpt lat="44.5689966" lon="8.03856"><ele>637.3333333333334</ele><time>2026-04-11T10:06:05.549Z</time></trkpt><trkpt lat="44.5690203" lon="8.0386652"><ele>638.6666666666666</ele><time>2026-04-11T10:06:08.549Z</time></trkpt><trkpt lat="44.5690347" lon="8.0387624"><ele>640.0</ele><time>2026-04-11T10:06:11.549Z</time></trkpt><trkpt lat="44.5690381" lon="8.0388883"><ele>641.3333333333333</ele><time>2026-04-11T10:06:14.549Z</time></trkpt><trkpt lat="44.5690463" lon="8.0389915"><ele>642.6666666666666</ele><time>2026-04-11T10:06:18.549Z</time></trkpt><trkpt lat="44.5690893" lon="8.0390837"><ele>644.0</ele><time>2026-04-11T10:06:22.549Z</time></trkpt><trkpt lat="44.5690916" lon="8.0391765"><ele>644.8571428571429</ele><time>2026-04-11T10:06:26.549Z</time></trkpt><trkpt lat="44.5690922" lon="8.0392776"><ele>645.7142857142858</ele><time>2026-04-11T10:06:31.549Z</time></trkpt><trkpt lat="44.5691385" lon="8.0393513"><ele>646.5714285714286</ele><time>2026-04-11T10:06:35.549Z</time></trkpt><trkpt lat="44.5691774" lon="8.0394555"><ele>647.4285714285714</ele><time>2026-04-11T10:06:38.549Z</time></trkpt><trkpt lat="44.5692076" lon="8.0395569"><ele>648.2857142857143</ele><time>2026-04-11T10:06:43.549Z</time></trkpt><trkpt lat="44.5692221" lon="8.0396461"><ele>649.1428571428571</ele><time>2026-04-11T10:06:47.549Z</time></trkpt><trkpt lat="44.5692181" lon="8.0397525"><ele>650.0</ele><time>2026-04-11T10:06:52.549Z</time></trkpt><trkpt lat="44.5692568" lon="8.0398447"><ele>650.0</ele><time>2026-04-11T10:06:56.549Z</time></trkpt><trkpt lat="44.5692767" lon="8.0399458"><ele>650.0</ele><time>2026-04-11T10:07:00.549Z</time></trkpt><trkpt lat="44.5692299" lon="8.0400264"><ele>650.0</ele><time>2026-04-11T10:07:04.549Z</time></trkpt><trkpt lat="44.5692092" lon="8.0401247"><ele>650.0</ele><time>2026-04-11T10:07:08.549Z</time></trkpt><trkpt lat="44.5691711" lon="8.0402131"><ele>650.0</ele><time>2026-04-11T10:07:11.549Z</time></trkpt><trkpt lat="44.5691679" lon="8.040331"><ele>650.0</ele><time>2026-04-11T10:07:15.549Z</time></trkpt><trkpt lat="44.5691416" lon="8.0404148"><ele>650.0</ele><time>2026-04-11T10:07:17.549Z</time></trkpt><trkpt lat="44.5690914" lon="8.0404953"><ele>650.8333333333333</ele><time>2026-04-11T10:07:19.549Z</time></trkpt><trkpt lat="44.5690514" lon="8.0405932"><ele>651.6666666666666</ele><time>2026-04-11T10:07:22.549Z</time></trkpt><trkpt lat="44.5690027" lon="8.0406749"><ele>652.5</ele><time>2026-04-11T10:07:26.549Z</time></trkpt><trkpt lat="44.568949" lon="8.0407399"><ele>653.3333333333334</ele><time>2026-04-11T10:07:29.549Z</time></trkpt><trkpt lat="44.5689329" lon="8.0408456"><ele>654.1666666666667</ele><time>2026-04-11T10:07:32.549Z</time></trkpt><trkpt lat="44.5689398" lon="8.0409501"><ele>655.0</ele><time>2026-04-11T10:07:34.549Z</time></trkpt><trkpt lat="44.5689245" lon="8.0410627"><ele>656.6</ele><time>2026-04-11T10:07:36.549Z</time></trkpt><trkpt lat="44.5688941" lon="8.0411818"><ele>658.2</ele><time>2026-04-11T10:07:38.549Z</time></trkpt><trkpt lat="44.5688619" lon="8.0413085"><ele>659.8</ele><time>2026-04-11T10:07:40.549Z</time></trkpt><trkpt lat="44.5688189" lon="8.0414223"><ele>661.4</ele><time>2026-04-11T10:07:42.549Z</time></trkpt><trkpt lat="44.5687687" lon="8.0415624"><ele>663.0</ele><time>2026-04-11T10:07:44.549Z</time></trkpt><trkpt lat="44.5687051" lon="8.0416976"><ele>661.2</ele><time>2026-04-11T10:07:46.549Z</time></trkpt><trkpt lat="44.5686082" lon="8.041795"><ele>659.4</ele><time>2026-04-11T10:07:48.549Z</time></trkpt><trkpt lat="44.568551" lon="8.0418909"><ele>657.6</ele><time>2026-04-11T10:07:50.549Z</time></trkpt><trkpt lat="44.5685001" lon="8.0419834"><ele>655.8000000000001</ele><time>2026-04-11T10:07:52.549Z</time></trkpt><trkpt lat="44.5684596" lon="8.0420963"><ele>654.0</ele><time>2026-04-11T10:07:54.549Z</time></trkpt><trkpt lat="44.5684304" lon="8.0421965"><ele>654.0</ele><time>2026-04-11T10:07:56.549Z</time></trkpt><trkpt lat="44.5684067" lon="8.0422946"><ele>654.0</ele><time>2026-04-11T10:07:58.549Z</time></trkpt><trkpt lat="44.5683867" lon="8.0424239"><ele>654.0</ele><time>2026-04-11T10:08:01.549Z</time></trkpt><trkpt lat="44.5683794" lon="8.0425274"><ele>654.0</ele><time>2026-04-11T10:08:04.549Z</time></trkpt><trkpt lat="44.5683688" lon="8.0426344"><ele>654.0</ele><time>2026-04-11T10:08:07.549Z</time></trkpt><trkpt lat="44.5683894" lon="8.0427334"><ele>654.0</ele><time>2026-04-11T10:08:09.549Z</time></trkpt><trkpt lat="44.5683443" lon="8.0428231"><ele>656.6666666666666</ele><time>2026-04-11T10:08:12.549Z</time></trkpt><trkpt lat="44.5683146" lon="8.0429217"><ele>659.3333333333334</ele><time>2026-04-11T10:08:14.549Z</time></trkpt><trkpt lat="44.5682892" lon="8.0430351"><ele>662.0</ele><time>2026-04-11T10:08:17.549Z</time></trkpt><trkpt lat="44.5682446" lon="8.0431512"><ele>664.6666666666667</ele><time>2026-04-11T10:08:20.549Z</time></trkpt><trkpt lat="44.5682254" lon="8.0432423"><ele>667.3333333333334</ele><time>2026-04-11T10:08:22.549Z</time></trkpt><trkpt lat="44.5681668" lon="8.0433127"><ele>670.0</ele><time>2026-04-11T10:08:25.549Z</time></trkpt><trkpt lat="44.5681041" lon="8.04341"><ele>670.6666666666667</ele><time>2026-04-11T10:08:28.549Z</time></trkpt><trkpt lat="44.5680421" lon="8.0434906"><ele>671.3333333333334</ele><time>2026-04-11T10:08:31.549Z</time></trkpt><trkpt lat="44.5680281" lon="8.0435803"><ele>672.0</ele><time>2026-04-11T10:08:33.55Z</time></trkpt><trkpt lat="44.5679905" lon="8.0437096"><ele>672.6666666666666</ele><time>2026-04-11T10:08:36.549Z</time></trkpt><trkpt lat="44.567991" lon="8.0438032"><ele>673.3333333333333</ele><time>2026-04-11T10:08:38.549Z</time></trkpt><trkpt lat="44.5679644" lon="8.0439051"><ele>674.0</ele><time>2026-04-11T10:08:41.549Z</time></trkpt><trkpt lat="44.5679389" lon="8.04399"><ele>674.0000000000001</ele><time>2026-04-11T10:08:43.549Z</time></trkpt><trkpt lat="44.5678988" lon="8.0440756"><ele>674.0</ele><time>2026-04-11T10:08:45.549Z</time></trkpt><trkpt lat="44.5678403" lon="8.0441555"><ele>674.0</ele><time>2026-04-11T10:08:48.549Z</time></trkpt><trkpt lat="44.5677832" lon="8.0442157"><ele>674.0</ele><time>2026-04-11T10:08:51.549Z</time></trkpt><trkpt lat="44.5677259" lon="8.0442867"><ele>674.0</ele><time>2026-04-11T10:08:54.549Z</time></trkpt><trkpt lat="44.567682" lon="8.0443546"><ele>674.0000000000001</ele><time>2026-04-11T10:08:57.549Z</time></trkpt><trkpt lat="44.5676351" lon="8.0444181"><ele>674.0</ele><time>2026-04-11T10:09:00.549Z</time></trkpt><trkpt lat="44.567592" lon="8.0444846"><ele>673.5714285714287</ele><time>2026-04-11T10:09:03.549Z</time></trkpt><trkpt lat="44.5675477" lon="8.0445503"><ele>673.1428571428571</ele><time>2026-04-11T10:09:06.549Z</time></trkpt><trkpt lat="44.5674997" lon="8.0446217"><ele>672.7142857142858</ele><time>2026-04-11T10:09:09.549Z</time></trkpt><trkpt lat="44.5674523" lon="8.0447145"><ele>672.2857142857143</ele><time>2026-04-11T10:09:12.549Z</time></trkpt><trkpt lat="44.5673991" lon="8.0448066"><ele>671.8571428571429</ele><time>2026-04-11T10:09:15.549Z</time></trkpt><trkpt lat="44.5673565" lon="8.0448818"><ele>671.4285714285714</ele><time>2026-04-11T10:09:17.549Z</time></trkpt><trkpt lat="44.5673346" lon="8.0449735"><ele>671.0</ele><time>2026-04-11T10:09:19.549Z</time></trkpt><trkpt lat="44.5673032" lon="8.045092"><ele>671.0</ele><time>2026-04-11T10:09:21.549Z</time></trkpt><trkpt lat="44.5672685" lon="8.0451952"><ele>671.0</ele><time>2026-04-11T10:09:23.549Z</time></trkpt><trkpt lat="44.5672316" lon="8.0453111"><ele>671.0</ele><time>2026-04-11T10:09:25.549Z</time></trkpt><trkpt lat="44.5671869" lon="8.0454086"><ele>671.0</ele><time>2026-04-11T10:09:27.549Z</time></trkpt><trkpt lat="44.5671389" lon="8.0454936"><ele>671.0</ele><time>2026-04-11T10:09:29.549Z</time></trkpt><trkpt lat="44.5670888" lon="8.0455911"><ele>671.0</ele><time>2026-04-11T10:09:31.549Z</time></trkpt><trkpt lat="44.5670462" lon="8.0456697"><ele>671.5</ele><time>2026-04-11T10:09:33.549Z</time></trkpt><trkpt lat="44.5670124" lon="8.0457482"><ele>672.0</ele><time>2026-04-11T10:09:35.549Z</time></trkpt><trkpt lat="44.5669794" lon="8.0458731"><ele>672.5</ele><time>2026-04-11T10:09:38.55Z</time></trkpt><trkpt lat="44.5669479" lon="8.0459857"><ele>673.0</ele><time>2026-04-11T10:09:41.549Z</time></trkpt><trkpt lat="44.5669161" lon="8.0460867"><ele>673.5</ele><time>2026-04-11T10:09:44.549Z</time></trkpt><trkpt lat="44.5669097" lon="8.0461945"><ele>674.0</ele><time>2026-04-11T10:09:47.549Z</time></trkpt><trkpt lat="44.5668852" lon="8.0462796"><ele>674.0</ele><time>2026-04-11T10:09:49.549Z</time></trkpt><trkpt lat="44.5668535" lon="8.0463779"><ele>674.0</ele><time>2026-04-11T10:09:51.549Z</time></trkpt><trkpt lat="44.5668304" lon="8.0464861"><ele>674.0</ele><time>2026-04-11T10:09:53.549Z</time></trkpt><trkpt lat="44.5668022" lon="8.0465782"><ele>674.0</ele><time>2026-04-11T10:09:55.549Z</time></trkpt><trkpt lat="44.5667879" lon="8.0466859"><ele>674.0</ele><time>2026-04-11T10:09:57.549Z</time></trkpt><trkpt lat="44.5667508" lon="8.0467815"><ele>674.0</ele><time>2026-04-11T10:09:59.549Z</time></trkpt><trkpt lat="44.5667149" lon="8.0468777"><ele>675.0</ele><time>2026-04-11T10:10:01.549Z</time></trkpt><trkpt lat="44.5666916" lon="8.0469666"><ele>676.0</ele><time>2026-04-11T10:10:03.549Z</time></trkpt><trkpt lat="44.5666669" lon="8.0470867"><ele>677.0</ele><time>2026-04-11T10:10:06.549Z</time></trkpt><trkpt lat="44.5666464" lon="8.0472099"><ele>678.0</ele><time>2026-04-11T10:10:09.549Z</time></trkpt><trkpt lat="44.5666374" lon="8.0473405"><ele>679.0</ele><time>2026-04-11T10:10:12.549Z</time></trkpt><trkpt lat="44.5666519" lon="8.0474666"><ele>680.0</ele><time>2026-04-11T10:10:15.549Z</time></trkpt><trkpt lat="44.566667" lon="8.0475923"><ele>680.3333333333333</ele><time>2026-04-11T10:10:18.549Z</time></trkpt><trkpt lat="44.5666823" lon="8.0477048"><ele>680.6666666666666</ele><time>2026-04-11T10:10:21.549Z</time></trkpt><trkpt lat="44.5666867" lon="8.0478262"><ele>681.0</ele><time>2026-04-11T10:10:24.549Z</time></trkpt><trkpt lat="44.5666871" lon="8.0479558"><ele>681.3333333333334</ele><time>2026-04-11T10:10:27.549Z</time></trkpt><trkpt lat="44.5667098" lon="8.048051"><ele>681.6666666666667</ele><time>2026-04-11T10:10:29.549Z</time></trkpt><trkpt lat="44.566693" lon="8.0481658"><ele>682.0</ele><time>2026-04-11T10:10:32.55Z</time></trkpt><trkpt lat="44.5666715" lon="8.0482641"><ele>682.6666666666667</ele><time>2026-04-11T10:10:35.549Z</time></trkpt><trkpt lat="44.5666383" lon="8.0483617"><ele>683.3333333333334</ele><time>2026-04-11T10:10:38.549Z</time></trkpt><trkpt lat="44.5665886" lon="8.0484538"><ele>684.0</ele><time>2026-04-11T10:10:41.549Z</time></trkpt><trkpt lat="44.5666137" lon="8.048581"><ele>684.6666666666666</ele><time>2026-04-11T10:10:45.549Z</time></trkpt><trkpt lat="44.5666036" lon="8.0486869"><ele>685.3333333333333</ele><time>2026-04-11T10:10:48.549Z</time></trkpt><trkpt lat="44.5665965" lon="8.0488114"><ele>686.0</ele><time>2026-04-11T10:10:51.549Z</time></trkpt><trkpt lat="44.5665967" lon="8.0489371"><ele>686.0</ele><time>2026-04-11T10:10:54.549Z</time></trkpt><trkpt lat="44.5665742" lon="8.0490479"><ele>686.0</ele><time>2026-04-11T10:10:57.549Z</time></trkpt><trkpt lat="44.5665513" lon="8.0491656"><ele>686.0</ele><time>2026-04-11T10:11:00.549Z</time></trkpt><trkpt lat="44.5665203" lon="8.0492563"><ele>686.0</ele><time>2026-04-11T10:11:03.549Z</time></trkpt><trkpt lat="44.5664791" lon="8.0493699"><ele>686.0</ele><time>2026-04-11T10:11:06.549Z</time></trkpt><trkpt lat="44.5664597" lon="8.0494945"><ele>686.0</ele><time>2026-04-11T10:11:09.549Z</time></trkpt><trkpt lat="44.5664368" lon="8.0495973"><ele>686.8333333333333</ele><time>2026-04-11T10:11:12.549Z</time></trkpt><trkpt lat="44.5664245" lon="8.0497046"><ele>687.6666666666666</ele><time>2026-04-11T10:11:15.55Z</time></trkpt><trkpt lat="44.566408" lon="8.0498133"><ele>688.5</ele><time>2026-04-11T10:11:18.549Z</time></trkpt><trkpt lat="44.5664287" lon="8.0499229"><ele>689.3333333333334</ele><time>2026-04-11T10:11:21.549Z</time></trkpt><trkpt lat="44.5664377" lon="8.05003"><ele>690.1666666666667</ele><time>2026-04-11T10:11:24.549Z</time></trkpt><trkpt lat="44.5664073" lon="8.0501213"><ele>691.0</ele><time>2026-04-11T10:11:26.549Z</time></trkpt><trkpt lat="44.5664036" lon="8.0502104"><ele>691.4285714285713</ele><time>2026-04-11T10:11:28.549Z</time></trkpt><trkpt lat="44.566395" lon="8.0503416"><ele>691.8571428571429</ele><time>2026-04-11T10:11:31.549Z</time></trkpt><trkpt lat="44.5663932" lon="8.0504398"><ele>692.2857142857142</ele><time>2026-04-11T10:11:33.549Z</time></trkpt><trkpt lat="44.5663901" lon="8.050537"><ele>692.7142857142857</ele><time>2026-04-11T10:11:35.549Z</time></trkpt><trkpt lat="44.5663884" lon="8.0506349"><ele>693.1428571428571</ele><time>2026-04-11T10:11:37.549Z</time></trkpt><trkpt lat="44.5663835" lon="8.0507245"><ele>693.5714285714286</ele><time>2026-04-11T10:11:39.549Z</time></trkpt><trkpt lat="44.566377" lon="8.0508163"><ele>694.0</ele><time>2026-04-11T10:11:41.549Z</time></trkpt><trkpt lat="44.566387" lon="8.0509294"><ele>694.2857142857143</ele><time>2026-04-11T10:11:44.549Z</time></trkpt><trkpt lat="44.5664031" lon="8.0510156"><ele>694.5714285714286</ele><time>2026-04-11T10:11:46.549Z</time></trkpt><trkpt lat="44.5663973" lon="8.0511208"><ele>694.8571428571429</ele><time>2026-04-11T10:11:49.549Z</time></trkpt><trkpt lat="44.5664026" lon="8.0512289"><ele>695.1428571428571</ele><time>2026-04-11T10:11:52.549Z</time></trkpt><trkpt lat="44.5664087" lon="8.0513233"><ele>695.4285714285714</ele><time>2026-04-11T10:11:56.556Z</time></trkpt><trkpt lat="44.5664266" lon="8.0514217"><ele>695.7142857142857</ele><time>2026-04-11T10:12:01.556Z</time></trkpt><trkpt lat="44.5664168" lon="8.0515254"><ele>696.0</ele><time>2026-04-11T10:12:05.556Z</time></trkpt><trkpt lat="44.5663974" lon="8.0516213"><ele>697.2857142857142</ele><time>2026-04-11T10:12:08.556Z</time></trkpt><trkpt lat="44.5663754" lon="8.0517184"><ele>698.5714285714286</ele><time>2026-04-11T10:12:12.556Z</time></trkpt><trkpt lat="44.5663062" lon="8.0517431"><ele>699.8571428571429</ele><time>2026-04-11T10:12:15.556Z</time></trkpt><trkpt lat="44.5662613" lon="8.0518293"><ele>701.1428571428571</ele><time>2026-04-11T10:12:19.556Z</time></trkpt><trkpt lat="44.5662301" lon="8.0519116"><ele>702.4285714285714</ele><time>2026-04-11T10:12:22.556Z</time></trkpt><trkpt lat="44.5662161" lon="8.0520081"><ele>703.7142857142857</ele><time>2026-04-11T10:12:25.556Z</time></trkpt><trkpt lat="44.56617" lon="8.0520938"><ele>705.0</ele><time>2026-04-11T10:12:28.556Z</time></trkpt><trkpt lat="44.5661272" lon="8.0521806"><ele>705.0</ele><time>2026-04-11T10:12:30.556Z</time></trkpt><trkpt lat="44.5660834" lon="8.0522689"><ele>705.0</ele><time>2026-04-11T10:12:32.556Z</time></trkpt><trkpt lat="44.5660595" lon="8.0523741"><ele>705.0</ele><time>2026-04-11T10:12:34.556Z</time></trkpt><trkpt lat="44.5660213" lon="8.0524795"><ele>705.0</ele><time>2026-04-11T10:12:36.556Z</time></trkpt><trkpt lat="44.5659698" lon="8.0525665"><ele>705.0</ele><time>2026-04-11T10:12:38.556Z</time></trkpt><trkpt lat="44.565941" lon="8.0526681"><ele>705.0</ele><time>2026-04-11T10:12:40.556Z</time></trkpt><trkpt lat="44.5659094" lon="8.0527737"><ele>706.8333333333334</ele><time>2026-04-11T10:12:42.556Z</time></trkpt><trkpt lat="44.5658808" lon="8.0528571"><ele>708.6666666666666</ele><time>2026-04-11T10:12:44.556Z</time></trkpt><trkpt lat="44.5658456" lon="8.0529659"><ele>710.5</ele><time>2026-04-11T10:12:46.556Z</time></trkpt><trkpt lat="44.5658205" lon="8.053064"><ele>712.3333333333333</ele><time>2026-04-11T10:12:48.556Z</time></trkpt><trkpt lat="44.5657825" lon="8.0531396"><ele>714.1666666666666</ele><time>2026-04-11T10:12:50.556Z</time></trkpt><trkpt lat="44.5657434" lon="8.0532473"><ele>716.0</ele><time>2026-04-11T10:12:53.556Z</time></trkpt><trkpt lat="44.5657075" lon="8.0533352"><ele>716.0000000000001</ele><time>2026-04-11T10:12:56.556Z</time></trkpt><trkpt lat="44.5656872" lon="8.0534199"><ele>716.0</ele><time>2026-04-11T10:12:59.556Z</time></trkpt><trkpt lat="44.5656498" lon="8.05353"><ele>716.0</ele><time>2026-04-11T10:13:03.556Z</time></trkpt><trkpt lat="44.5656069" lon="8.0536112"><ele>716.0</ele><time>2026-04-11T10:13:06.556Z</time></trkpt><trkpt lat="44.5655786" lon="8.0537082"><ele>716.0</ele><time>2026-04-11T10:13:09.556Z</time></trkpt><trkpt lat="44.5655434" lon="8.053788"><ele>716.0000000000001</ele><time>2026-04-11T10:13:12.556Z</time></trkpt><trkpt lat="44.5654987" lon="8.0538785"><ele>716.0</ele><time>2026-04-11T10:13:16.556Z</time></trkpt><trkpt lat="44.565455" lon="8.0539631"><ele>716.0</ele><time>2026-04-11T10:13:20.557Z</time></trkpt><trkpt lat="44.5654072" lon="8.0540304"><ele>716.0</ele><time>2026-04-11T10:13:24.556Z</time></trkpt><trkpt lat="44.5653668" lon="8.0541011"><ele>716.0</ele><time>2026-04-11T10:13:27.556Z</time></trkpt><trkpt lat="44.5653197" lon="8.0541883"><ele>716.0</ele><time>2026-04-11T10:13:31.556Z</time></trkpt><trkpt lat="44.5652523" lon="8.0542687"><ele>716.0</ele><time>2026-04-11T10:13:34.556Z</time></trkpt><trkpt lat="44.5651909" lon="8.0543255"><ele>716.0</ele><time>2026-04-11T10:13:36.556Z</time></trkpt><trkpt lat="44.565102" lon="8.0543899"><ele>717.4</ele><time>2026-04-11T10:13:38.556Z</time></trkpt><trkpt lat="44.5650026" lon="8.0544743"><ele>718.8</ele><time>2026-04-11T10:13:40.556Z</time></trkpt><trkpt lat="44.5648947" lon="8.054568"><ele>720.1999999999999</ele><time>2026-04-11T10:13:42.556Z</time></trkpt><trkpt lat="44.5648332" lon="8.0546292"><ele>721.5999999999999</ele><time>2026-04-11T10:13:43.556Z</time></trkpt><trkpt lat="44.5647569" lon="8.0546749"><ele>723.0</ele><time>2026-04-11T10:13:44.556Z</time></trkpt><trkpt lat="44.5646794" lon="8.0547202"><ele>723.0</ele><time>2026-04-11T10:13:45.556Z</time></trkpt><trkpt lat="44.5646025" lon="8.0547764"><ele>723.0</ele><time>2026-04-11T10:13:46.556Z</time></trkpt><trkpt lat="44.564523" lon="8.0548105"><ele>723.0</ele><time>2026-04-11T10:13:47.556Z</time></trkpt><trkpt lat="44.5644447" lon="8.0548453"><ele>723.0</ele><time>2026-04-11T10:13:48.556Z</time></trkpt><trkpt lat="44.5643773" lon="8.054878"><ele>723.0</ele><time>2026-04-11T10:13:49.556Z</time></trkpt><trkpt lat="44.5643116" lon="8.0549337"><ele>723.0</ele><time>2026-04-11T10:13:50.556Z</time></trkpt><trkpt lat="44.5642527" lon="8.0550034"><ele>721.1666666666666</ele><time>2026-04-11T10:13:51.556Z</time></trkpt><trkpt lat="44.5642199" lon="8.055083"><ele>719.3333333333334</ele><time>2026-04-11T10:13:52.557Z</time></trkpt><trkpt lat="44.5641847" lon="8.0551682"><ele>717.5</ele><time>2026-04-11T10:13:53.556Z</time></trkpt><trkpt lat="44.5641046" lon="8.0552956"><ele>715.6666666666667</ele><time>2026-04-11T10:13:55.556Z</time></trkpt><trkpt lat="44.5640345" lon="8.0553907"><ele>713.8333333333334</ele><time>2026-04-11T10:13:57.556Z</time></trkpt><trkpt lat="44.5639887" lon="8.0554962"><ele>712.0</ele><time>2026-04-11T10:13:59.556Z</time></trkpt><trkpt lat="44.5639527" lon="8.0555836"><ele>711.9999999999999</ele><time>2026-04-11T10:14:01.556Z</time></trkpt><trkpt lat="44.5639138" lon="8.0556606"><ele>712.0</ele><time>2026-04-11T10:14:03.556Z</time></trkpt><trkpt lat="44.5638618" lon="8.0557435"><ele>712.0</ele><time>2026-04-11T10:14:06.557Z</time></trkpt><trkpt lat="44.5638215" lon="8.0558313"><ele>712.0</ele><time>2026-04-11T10:14:09.556Z</time></trkpt><trkpt lat="44.5637815" lon="8.0559064"><ele>712.0</ele><time>2026-04-11T10:14:12.556Z</time></trkpt><trkpt lat="44.5637352" lon="8.0559927"><ele>711.9999999999999</ele><time>2026-04-11T10:14:16.556Z</time></trkpt><trkpt lat="44.563667" lon="8.0560376"><ele>712.0</ele><time>2026-04-11T10:14:20.556Z</time></trkpt><trkpt lat="44.5636233" lon="8.0561243"><ele>713.2857142857142</ele><time>2026-04-11T10:14:26.556Z</time></trkpt><trkpt lat="44.5636038" lon="8.0562174"><ele>714.5714285714286</ele><time>2026-04-11T10:14:29.556Z</time></trkpt><trkpt lat="44.5635528" lon="8.0562941"><ele>715.8571428571429</ele><time>2026-04-11T10:14:33.556Z</time></trkpt><trkpt lat="44.5634924" lon="8.0563672"><ele>717.1428571428571</ele><time>2026-04-11T10:14:37.556Z</time></trkpt><trkpt lat="44.5634435" lon="8.0564405"><ele>718.4285714285714</ele><time>2026-04-11T10:14:42.676Z</time></trkpt><trkpt lat="44.563381" lon="8.0564824"><ele>719.7142857142857</ele><time>2026-04-11T10:14:45.668Z</time></trkpt><trkpt lat="44.5633256" lon="8.0565289"><ele>721.0</ele><time>2026-04-11T10:14:50.574Z</time></trkpt><trkpt lat="44.5632649" lon="8.0565859"><ele>722.5714285714286</ele><time>2026-04-11T10:14:54.593Z</time></trkpt><trkpt lat="44.5632103" lon="8.0566465"><ele>724.1428571428571</ele><time>2026-04-11T10:14:59.667Z</time></trkpt><trkpt lat="44.563147" lon="8.0566921"><ele>725.7142857142858</ele><time>2026-04-11T10:15:04.574Z</time></trkpt><trkpt lat="44.5631118" lon="8.0567701"><ele>727.2857142857142</ele><time>2026-04-11T10:15:08.642Z</time></trkpt><trkpt lat="44.5630497" lon="8.0568197"><ele>728.8571428571429</ele><time>2026-04-11T10:15:12.59Z</time></trkpt><trkpt lat="44.5629973" lon="8.0568844"><ele>730.4285714285714</ele><time>2026-04-11T10:15:18.556Z</time></trkpt><trkpt lat="44.5629371" lon="8.0569567"><ele>732.0</ele><time>2026-04-11T10:15:21.556Z</time></trkpt><trkpt lat="44.5628797" lon="8.0569941"><ele>732.7142857142858</ele><time>2026-04-11T10:15:25.556Z</time></trkpt><trkpt lat="44.5628255" lon="8.0570426"><ele>733.4285714285714</ele><time>2026-04-11T10:15:29.556Z</time></trkpt><trkpt lat="44.5627618" lon="8.0570634"><ele>734.1428571428571</ele><time>2026-04-11T10:15:33.556Z</time></trkpt><trkpt lat="44.5627125" lon="8.0571636"><ele>734.8571428571429</ele><time>2026-04-11T10:15:37.556Z</time></trkpt><trkpt lat="44.5626614" lon="8.0572398"><ele>735.5714285714286</ele><time>2026-04-11T10:15:40.556Z</time></trkpt><trkpt lat="44.5626188" lon="8.0573084"><ele>736.2857142857143</ele><time>2026-04-11T10:15:44.556Z</time></trkpt><trkpt lat="44.5625732" lon="8.0573793"><ele>737.0</ele><time>2026-04-11T10:15:47.556Z</time></trkpt><trkpt lat="44.562507" lon="8.0573715"><ele>737.0</ele><time>2026-04-11T10:15:50.556Z</time></trkpt><trkpt lat="44.5624311" lon="8.057358"><ele>737.0</ele><time>2026-04-11T10:15:53.556Z</time></trkpt><trkpt lat="44.5623677" lon="8.0573494"><ele>737.0</ele><time>2026-04-11T10:15:55.556Z</time></trkpt><trkpt lat="44.562274" lon="8.0573803"><ele>737.0</ele><time>2026-04-11T10:15:58.556Z</time></trkpt><trkpt lat="44.5621859" lon="8.0573553"><ele>737.0</ele><time>2026-04-11T10:16:01.556Z</time></trkpt><trkpt lat="44.5621192" lon="8.0573166"><ele>737.0</ele><time>2026-04-11T10:16:05.556Z</time></trkpt><trkpt lat="44.5620299" lon="8.0573164"><ele>737.3333333333333</ele><time>2026-04-11T10:16:08.556Z</time></trkpt><trkpt lat="44.5619398" lon="8.0572808"><ele>737.6666666666666</ele><time>2026-04-11T10:16:11.556Z</time></trkpt><trkpt lat="44.561872" lon="8.05725"><ele>738.0</ele><time>2026-04-11T10:16:13.556Z</time></trkpt><trkpt lat="44.561792" lon="8.0572182"><ele>738.3333333333334</ele><time>2026-04-11T10:16:15.556Z</time></trkpt><trkpt lat="44.5616931" lon="8.0571933"><ele>738.6666666666667</ele><time>2026-04-11T10:16:17.556Z</time></trkpt><trkpt lat="44.561594" lon="8.0571715"><ele>739.0</ele><time>2026-04-11T10:16:19.556Z</time></trkpt><trkpt lat="44.5615039" lon="8.0571286"><ele>739.0</ele><time>2026-04-11T10:16:21.556Z</time></trkpt><trkpt lat="44.5614253" lon="8.0571236"><ele>739.0</ele><time>2026-04-11T10:16:23.556Z</time></trkpt><trkpt lat="44.5613438" lon="8.0570769"><ele>739.0</ele><time>2026-04-11T10:16:25.556Z</time></trkpt><trkpt lat="44.5612378" lon="8.0570354"><ele>739.0</ele><time>2026-04-11T10:16:27.556Z</time></trkpt><trkpt lat="44.5611409" lon="8.057006"><ele>739.0</ele><time>2026-04-11T10:16:29.556Z</time></trkpt><trkpt lat="44.5610456" lon="8.0569978"><ele>739.8333333333334</ele><time>2026-04-11T10:16:31.556Z</time></trkpt><trkpt lat="44.5609741" lon="8.0569517"><ele>740.6666666666667</ele><time>2026-04-11T10:16:33.556Z</time></trkpt><trkpt lat="44.5608987" lon="8.0569128"><ele>741.5</ele><time>2026-04-11T10:16:35.556Z</time></trkpt><trkpt lat="44.5608283" lon="8.0568986"><ele>742.3333333333334</ele><time>2026-04-11T10:16:37.556Z</time></trkpt><trkpt lat="44.5607601" lon="8.056895"><ele>743.1666666666666</ele><time>2026-04-11T10:16:39.557Z</time></trkpt><trkpt lat="44.5606672" lon="8.0569066"><ele>744.0</ele><time>2026-04-11T10:16:42.556Z</time></trkpt><trkpt lat="44.560601" lon="8.0569324"><ele>744.0000000000001</ele><time>2026-04-11T10:16:45.556Z</time></trkpt><trkpt lat="44.5605266" lon="8.0569848"><ele>744.0</ele><time>2026-04-11T10:16:48.556Z</time></trkpt><trkpt lat="44.5604531" lon="8.0570448"><ele>744.0</ele><time>2026-04-11T10:16:51.556Z</time></trkpt><trkpt lat="44.5603941" lon="8.0570896"><ele>744.0</ele><time>2026-04-11T10:16:54.556Z</time></trkpt><trkpt lat="44.5603427" lon="8.0571513"><ele>744.0</ele><time>2026-04-11T10:16:57.556Z</time></trkpt><trkpt lat="44.5603442" lon="8.05724"><ele>744.0000000000001</ele><time>2026-04-11T10:17:01.556Z</time></trkpt><trkpt lat="44.5602866" lon="8.0572012"><ele>744.0</ele><time>2026-04-11T10:17:12.556Z</time></trkpt><trkpt lat="44.5602653" lon="8.0573007"><ele>744.0</ele><time>2026-04-11T10:17:26.556Z</time></trkpt><trkpt lat="44.5602767" lon="8.0574022"><ele>744.0</ele><time>2026-04-11T10:17:32.556Z</time></trkpt><trkpt lat="44.5604835" lon="8.057398"><ele>744.0</ele><time>2026-04-11T10:17:42.556Z</time></trkpt><trkpt lat="44.5605485" lon="8.0574213"><ele>744.0</ele><time>2026-04-11T10:17:46.557Z</time></trkpt><trkpt lat="44.5605759" lon="8.0575052"><ele>744.0</ele><time>2026-04-11T10:17:49.556Z</time></trkpt><trkpt lat="44.5605802" lon="8.0576156"><ele>744.0</ele><time>2026-04-11T10:17:53.556Z</time></trkpt><trkpt lat="44.5605208" lon="8.0575202"><ele>744.0</ele><time>2026-04-11T10:19:41.563Z</time></trkpt><trkpt lat="44.5604585" lon="8.0574507"><ele>744.0</ele><time>2026-04-11T10:19:43.563Z</time></trkpt><trkpt lat="44.560377" lon="8.05745"><ele>744.0</ele><time>2026-04-11T10:19:45.563Z</time></trkpt><trkpt lat="44.560311" lon="8.0575172"><ele>744.0</ele><time>2026-04-11T10:19:47.563Z</time></trkpt><trkpt lat="44.5602636" lon="8.0575766"><ele>744.0</ele><time>2026-04-11T10:19:49.563Z</time></trkpt><trkpt lat="44.5602282" lon="8.0576596"><ele>745.2</ele><time>2026-04-11T10:19:51.563Z</time></trkpt><trkpt lat="44.560187" lon="8.0577562"><ele>746.4000000000001</ele><time>2026-04-11T10:19:54.563Z</time></trkpt><trkpt lat="44.560181" lon="8.0578523"><ele>747.6</ele><time>2026-04-11T10:19:58.563Z</time></trkpt><trkpt lat="44.5602129" lon="8.0577744"><ele>748.8</ele><time>2026-04-11T10:20:32.563Z</time></trkpt><trkpt lat="44.5602575" lon="8.0577069"><ele>750.0</ele><time>2026-04-11T10:20:36.563Z</time></trkpt><trkpt lat="44.5604302" lon="8.0578129"><ele>757.0</ele><time>2026-04-11T10:22:11.563Z</time></trkpt><trkpt lat="44.5612153" lon="8.0577213"><ele>757.0</ele><time>2026-04-11T10:22:27.564Z</time></trkpt><trkpt lat="44.5613561" lon="8.0576268"><ele>757.0</ele><time>2026-04-11T10:22:29.564Z</time></trkpt><trkpt lat="44.5602883" lon="8.0578893"><ele>759.0</ele><time>2026-04-11T10:23:00.017Z</time></trkpt><trkpt lat="44.5599718" lon="8.058005"><ele>761.0</ele><time>2026-04-11T10:26:03.57Z</time></trkpt><trkpt lat="44.5603923" lon="8.0578806"><ele>755.5</ele><time>2026-04-11T10:27:55.57Z</time></trkpt><trkpt lat="44.5603058" lon="8.0580595"><ele>750.0</ele><time>2026-04-11T10:29:40.57Z</time></trkpt><trkpt lat="44.5602801" lon="8.0576331"><ele>750.0</ele><time>2026-04-11T10:30:59.571Z</time></trkpt><trkpt lat="44.5602349" lon="8.0577288"><ele>750.0</ele><time>2026-04-11T10:33:25.577Z</time></trkpt><trkpt lat="44.5601516" lon="8.0578471"><ele>750.0</ele><time>2026-04-11T10:33:37.577Z</time></trkpt><trkpt lat="44.5601605" lon="8.0579633"><ele>750.0</ele><time>2026-04-11T10:33:59.577Z</time></trkpt><trkpt lat="44.560158" lon="8.0578624"><ele>750.0</ele><time>2026-04-11T10:36:41.577Z</time></trkpt><trkpt lat="44.5602209" lon="8.0578758"><ele>750.0</ele><time>2026-04-11T10:37:26.577Z</time></trkpt><trkpt lat="44.5601644" lon="8.0579352"><ele>750.0</ele><time>2026-04-11T10:38:09.689Z</time></trkpt><trkpt lat="44.5601089" lon="8.0579889"><ele>750.0</ele><time>2026-04-11T10:38:57.522Z</time></trkpt><trkpt lat="44.5601117" lon="8.0581378"><ele>750.0</ele><time>2026-04-11T10:38:58.584Z</time></trkpt><trkpt lat="44.5600867" lon="8.0582384"><ele>750.0</ele><time>2026-04-11T10:38:59.584Z</time></trkpt><trkpt lat="44.5600435" lon="8.0583348"><ele>750.0</ele><time>2026-04-11T10:39:00.584Z</time></trkpt><trkpt lat="44.5600041" lon="8.0584226"><ele>750.0</ele><time>2026-04-11T10:39:01.584Z</time></trkpt><trkpt lat="44.5599533" lon="8.0584982"><ele>750.8333333333334</ele><time>2026-04-11T10:39:02.584Z</time></trkpt><trkpt lat="44.5598962" lon="8.0585526"><ele>751.6666666666666</ele><time>2026-04-11T10:39:03.584Z</time></trkpt><trkpt lat="44.5598124" lon="8.0585862"><ele>752.5</ele><time>2026-04-11T10:39:04.584Z</time></trkpt><trkpt lat="44.5597431" lon="8.0586357"><ele>753.3333333333333</ele><time>2026-04-11T10:39:05.584Z</time></trkpt><trkpt lat="44.5596709" lon="8.0586819"><ele>754.1666666666666</ele><time>2026-04-11T10:39:06.584Z</time></trkpt><trkpt lat="44.5595932" lon="8.0587282"><ele>755.0</ele><time>2026-04-11T10:39:07.584Z</time></trkpt><trkpt lat="44.5595107" lon="8.0587743"><ele>751.8</ele><time>2026-04-11T10:39:08.584Z</time></trkpt><trkpt lat="44.5594068" lon="8.0587906"><ele>748.6</ele><time>2026-04-11T10:39:09.584Z</time></trkpt><trkpt lat="44.5593276" lon="8.0588461"><ele>745.4000000000001</ele><time>2026-04-11T10:39:10.584Z</time></trkpt><trkpt lat="44.5592355" lon="8.058899"><ele>742.2</ele><time>2026-04-11T10:39:11.584Z</time></trkpt><trkpt lat="44.5591416" lon="8.0589582"><ele>739.0</ele><time>2026-04-11T10:39:12.584Z</time></trkpt><trkpt lat="44.5590492" lon="8.0590238"><ele>739.0</ele><time>2026-04-11T10:39:13.584Z</time></trkpt><trkpt lat="44.5589558" lon="8.0590866"><ele>739.0</ele><time>2026-04-11T10:39:14.584Z</time></trkpt><trkpt lat="44.5588662" lon="8.059145"><ele>739.0</ele><time>2026-04-11T10:39:15.584Z</time></trkpt><trkpt lat="44.5587721" lon="8.0592038"><ele>739.0</ele><time>2026-04-11T10:39:16.584Z</time></trkpt><trkpt lat="44.5586773" lon="8.0592662"><ele>739.0</ele><time>2026-04-11T10:39:17.584Z</time></trkpt><trkpt lat="44.558589" lon="8.059321"><ele>738.1666666666667</ele><time>2026-04-11T10:39:18.584Z</time></trkpt><trkpt lat="44.5585151" lon="8.0593694"><ele>737.3333333333334</ele><time>2026-04-11T10:39:19.584Z</time></trkpt><trkpt lat="44.5584182" lon="8.059458"><ele>736.5</ele><time>2026-04-11T10:39:21.584Z</time></trkpt><trkpt lat="44.5583449" lon="8.0595183"><ele>735.6666666666666</ele><time>2026-04-11T10:39:23.584Z</time></trkpt><trkpt lat="44.5582761" lon="8.0595353"><ele>734.8333333333333</ele><time>2026-04-11T10:39:25.584Z</time></trkpt><trkpt lat="44.5582013" lon="8.0595636"><ele>734.0</ele><time>2026-04-11T10:39:28.584Z</time></trkpt><trkpt lat="44.5580517" lon="8.0595474"><ele>734.0</ele><time>2026-04-11T10:39:32.584Z</time></trkpt><trkpt lat="44.5579422" lon="8.059537"><ele>734.0</ele><time>2026-04-11T10:39:34.585Z</time></trkpt><trkpt lat="44.5578324" lon="8.0595491"><ele>734.0</ele><time>2026-04-11T10:39:36.584Z</time></trkpt><trkpt lat="44.5577183" lon="8.0596106"><ele>734.0</ele><time>2026-04-11T10:39:38.584Z</time></trkpt><trkpt lat="44.5576085" lon="8.0596829"><ele>734.8333333333333</ele><time>2026-04-11T10:39:40.584Z</time></trkpt><trkpt lat="44.5574937" lon="8.0597652"><ele>735.6666666666666</ele><time>2026-04-11T10:39:42.584Z</time></trkpt><trkpt lat="44.5574349" lon="8.0598099"><ele>736.5</ele><time>2026-04-11T10:39:43.584Z</time></trkpt><trkpt lat="44.5573748" lon="8.0598453"><ele>737.3333333333334</ele><time>2026-04-11T10:39:44.584Z</time></trkpt><trkpt lat="44.5573137" lon="8.0598817"><ele>738.1666666666667</ele><time>2026-04-11T10:39:45.584Z</time></trkpt><trkpt lat="44.5572507" lon="8.0599193"><ele>739.0</ele><time>2026-04-11T10:39:46.584Z</time></trkpt><trkpt lat="44.5571921" lon="8.0599537"><ele>739.0</ele><time>2026-04-11T10:39:47.584Z</time></trkpt><trkpt lat="44.5571325" lon="8.0599889"><ele>739.0</ele><time>2026-04-11T10:39:48.584Z</time></trkpt><trkpt lat="44.5570707" lon="8.0600285"><ele>739.0</ele><time>2026-04-11T10:39:49.584Z</time></trkpt><trkpt lat="44.5570113" lon="8.0600683"><ele>739.0</ele><time>2026-04-11T10:39:50.584Z</time></trkpt><trkpt lat="44.5569532" lon="8.060104"><ele>739.0</ele><time>2026-04-11T10:39:51.584Z</time></trkpt><trkpt lat="44.556892" lon="8.060142"><ele>739.0</ele><time>2026-04-11T10:39:52.584Z</time></trkpt><trkpt lat="44.5568286" lon="8.0601799"><ele>739.0</ele><time>2026-04-11T10:39:53.584Z</time></trkpt><trkpt lat="44.5567649" lon="8.0602069"><ele>737.7142857142858</ele><time>2026-04-11T10:39:54.584Z</time></trkpt><trkpt lat="44.5567" lon="8.0602286"><ele>736.4285714285714</ele><time>2026-04-11T10:39:55.584Z</time></trkpt><trkpt lat="44.5566334" lon="8.0602499"><ele>735.1428571428571</ele><time>2026-04-11T10:39:56.584Z</time></trkpt><trkpt lat="44.5565651" lon="8.0602643"><ele>733.8571428571429</ele><time>2026-04-11T10:39:57.585Z</time></trkpt><trkpt lat="44.5564957" lon="8.0602791"><ele>732.5714285714286</ele><time>2026-04-11T10:39:58.584Z</time></trkpt><trkpt lat="44.5564294" lon="8.0602936"><ele>731.2857142857143</ele><time>2026-04-11T10:39:59.584Z</time></trkpt><trkpt lat="44.5563617" lon="8.0603062"><ele>730.0</ele><time>2026-04-11T10:40:00.584Z</time></trkpt><trkpt lat="44.5562945" lon="8.0603265"><ele>730.0000000000001</ele><time>2026-04-11T10:40:01.584Z</time></trkpt><trkpt lat="44.556222" lon="8.0603524"><ele>730.0</ele><time>2026-04-11T10:40:02.584Z</time></trkpt><trkpt lat="44.5561528" lon="8.0603888"><ele>730.0</ele><time>2026-04-11T10:40:03.584Z</time></trkpt><trkpt lat="44.556087" lon="8.0604293"><ele>730.0</ele><time>2026-04-11T10:40:04.584Z</time></trkpt><trkpt lat="44.5560289" lon="8.0604723"><ele>730.0</ele><time>2026-04-11T10:40:05.584Z</time></trkpt><trkpt lat="44.5559767" lon="8.0605271"><ele>730.0000000000001</ele><time>2026-04-11T10:40:06.584Z</time></trkpt><trkpt lat="44.5559268" lon="8.0605896"><ele>730.0</ele><time>2026-04-11T10:40:07.584Z</time></trkpt><trkpt lat="44.5558791" lon="8.0606569"><ele>731.1428571428572</ele><time>2026-04-11T10:40:08.584Z</time></trkpt><trkpt lat="44.5558343" lon="8.0607344"><ele>732.2857142857143</ele><time>2026-04-11T10:40:09.584Z</time></trkpt><trkpt lat="44.5557922" lon="8.0608181"><ele>733.4285714285714</ele><time>2026-04-11T10:40:10.584Z</time></trkpt><trkpt lat="44.5557503" lon="8.0609001"><ele>734.5714285714287</ele><time>2026-04-11T10:40:11.584Z</time></trkpt><trkpt lat="44.5557162" lon="8.0609874"><ele>735.7142857142857</ele><time>2026-04-11T10:40:12.584Z</time></trkpt><trkpt lat="44.5556811" lon="8.0610753"><ele>736.8571428571429</ele><time>2026-04-11T10:40:13.584Z</time></trkpt><trkpt lat="44.5556426" lon="8.061161"><ele>738.0</ele><time>2026-04-11T10:40:14.584Z</time></trkpt><trkpt lat="44.5556042" lon="8.0612529"><ele>738.0</ele><time>2026-04-11T10:40:15.584Z</time></trkpt><trkpt lat="44.5555695" lon="8.0613487"><ele>738.0</ele><time>2026-04-11T10:40:16.584Z</time></trkpt><trkpt lat="44.5555321" lon="8.0614419"><ele>738.0</ele><time>2026-04-11T10:40:17.584Z</time></trkpt><trkpt lat="44.5554937" lon="8.0615335"><ele>738.0</ele><time>2026-04-11T10:40:18.584Z</time></trkpt><trkpt lat="44.5554558" lon="8.0616265"><ele>738.0</ele><time>2026-04-11T10:40:19.584Z</time></trkpt><trkpt lat="44.5554168" lon="8.0617144"><ele>738.0</ele><time>2026-04-11T10:40:20.584Z</time></trkpt><trkpt lat="44.5553783" lon="8.0618006"><ele>735.8333333333334</ele><time>2026-04-11T10:40:21.585Z</time></trkpt><trkpt lat="44.5553438" lon="8.0618905"><ele>733.6666666666666</ele><time>2026-04-11T10:40:22.584Z</time></trkpt><trkpt lat="44.5553029" lon="8.0619798"><ele>731.5</ele><time>2026-04-11T10:40:23.584Z</time></trkpt><trkpt lat="44.5552596" lon="8.0620658"><ele>729.3333333333333</ele><time>2026-04-11T10:40:24.584Z</time></trkpt><trkpt lat="44.555215" lon="8.0621573"><ele>727.1666666666666</ele><time>2026-04-11T10:40:25.584Z</time></trkpt><trkpt lat="44.5551639" lon="8.0622361"><ele>725.0</ele><time>2026-04-11T10:40:26.584Z</time></trkpt><trkpt lat="44.5551044" lon="8.0623063"><ele>725.0</ele><time>2026-04-11T10:40:27.584Z</time></trkpt><trkpt lat="44.5550425" lon="8.0623702"><ele>725.0</ele><time>2026-04-11T10:40:28.584Z</time></trkpt><trkpt lat="44.5549753" lon="8.0624279"><ele>725.0</ele><time>2026-04-11T10:40:29.584Z</time></trkpt><trkpt lat="44.5549069" lon="8.0624731"><ele>725.0</ele><time>2026-04-11T10:40:30.584Z</time></trkpt><trkpt lat="44.5548316" lon="8.0625116"><ele>725.0</ele><time>2026-04-11T10:40:31.584Z</time></trkpt><trkpt lat="44.5547538" lon="8.0625426"><ele>725.0</ele><time>2026-04-11T10:40:32.585Z</time></trkpt><trkpt lat="44.5546699" lon="8.0625632"><ele>726.0</ele><time>2026-04-11T10:40:33.584Z</time></trkpt><trkpt lat="44.5545872" lon="8.0625686"><ele>727.0</ele><time>2026-04-11T10:40:34.584Z</time></trkpt><trkpt lat="44.5545069" lon="8.0625634"><ele>728.0</ele><time>2026-04-11T10:40:35.584Z</time></trkpt><trkpt lat="44.5544256" lon="8.0625487"><ele>729.0</ele><time>2026-04-11T10:40:36.584Z</time></trkpt><trkpt lat="44.554343" lon="8.0625259"><ele>730.0</ele><time>2026-04-11T10:40:37.584Z</time></trkpt><trkpt lat="44.5542593" lon="8.0625044"><ele>731.0</ele><time>2026-04-11T10:40:38.584Z</time></trkpt><trkpt lat="44.5541795" lon="8.0624769"><ele>731.0</ele><time>2026-04-11T10:40:39.584Z</time></trkpt><trkpt lat="44.5541046" lon="8.0624448"><ele>731.0</ele><time>2026-04-11T10:40:40.584Z</time></trkpt><trkpt lat="44.5540287" lon="8.0624263"><ele>731.0</ele><time>2026-04-11T10:40:41.584Z</time></trkpt><trkpt lat="44.5539537" lon="8.0624187"><ele>731.0</ele><time>2026-04-11T10:40:42.584Z</time></trkpt><trkpt lat="44.5538774" lon="8.0624256"><ele>731.0</ele><time>2026-04-11T10:40:43.584Z</time></trkpt><trkpt lat="44.5538052" lon="8.0624523"><ele>731.0</ele><time>2026-04-11T10:40:44.584Z</time></trkpt><trkpt lat="44.5537314" lon="8.0624914"><ele>731.1666666666666</ele><time>2026-04-11T10:40:45.584Z</time></trkpt><trkpt lat="44.5536572" lon="8.0625351"><ele>731.3333333333333</ele><time>2026-04-11T10:40:46.584Z</time></trkpt><trkpt lat="44.5535839" lon="8.0625779"><ele>731.5</ele><time>2026-04-11T10:40:47.584Z</time></trkpt><trkpt lat="44.5535066" lon="8.0626234"><ele>731.6666666666666</ele><time>2026-04-11T10:40:48.584Z</time></trkpt><trkpt lat="44.5534308" lon="8.0626664"><ele>731.8333333333334</ele><time>2026-04-11T10:40:49.584Z</time></trkpt><trkpt lat="44.5533468" lon="8.0627124"><ele>732.0</ele><time>2026-04-11T10:40:50.584Z</time></trkpt><trkpt lat="44.5532586" lon="8.0627584"><ele>732.0</ele><time>2026-04-11T10:40:51.584Z</time></trkpt><trkpt lat="44.5531892" lon="8.0628005"><ele>732.0</ele><time>2026-04-11T10:40:52.584Z</time></trkpt><trkpt lat="44.5531309" lon="8.0628412"><ele>732.0</ele><time>2026-04-11T10:40:53.584Z</time></trkpt><trkpt lat="44.5530636" lon="8.062881"><ele>732.0</ele><time>2026-04-11T10:40:54.584Z</time></trkpt><trkpt lat="44.5529946" lon="8.062926"><ele>732.0</ele><time>2026-04-11T10:40:55.584Z</time></trkpt><trkpt lat="44.5529209" lon="8.0629668"><ele>732.0</ele><time>2026-04-11T10:40:56.584Z</time></trkpt><trkpt lat="44.5528472" lon="8.0630085"><ele>732.0</ele><time>2026-04-11T10:40:57.584Z</time></trkpt><trkpt lat="44.5527699" lon="8.0630438"><ele>731.6666666666666</ele><time>2026-04-11T10:40:58.584Z</time></trkpt><trkpt lat="44.55269" lon="8.063068"><ele>731.3333333333334</ele><time>2026-04-11T10:40:59.585Z</time></trkpt><trkpt lat="44.5526053" lon="8.0630811"><ele>731.0</ele><time>2026-04-11T10:41:00.584Z</time></trkpt><trkpt lat="44.5525241" lon="8.0630549"><ele>730.6666666666667</ele><time>2026-04-11T10:41:01.584Z</time></trkpt><trkpt lat="44.5524482" lon="8.063011"><ele>730.3333333333334</ele><time>2026-04-11T10:41:02.584Z</time></trkpt><trkpt lat="44.5523751" lon="8.0629562"><ele>730.0</ele><time>2026-04-11T10:41:03.584Z</time></trkpt><trkpt lat="44.5523029" lon="8.0628884"><ele>730.0</ele><time>2026-04-11T10:41:04.584Z</time></trkpt><trkpt lat="44.552236" lon="8.0628171"><ele>730.0</ele><time>2026-04-11T10:41:05.584Z</time></trkpt><trkpt lat="44.5521706" lon="8.0627456"><ele>730.0</ele><time>2026-04-11T10:41:06.584Z</time></trkpt><trkpt lat="44.5521034" lon="8.06267"><ele>730.0</ele><time>2026-04-11T10:41:07.585Z</time></trkpt><trkpt lat="44.5520333" lon="8.0625943"><ele>730.0</ele><time>2026-04-11T10:41:08.584Z</time></trkpt><trkpt lat="44.5519719" lon="8.0625177"><ele>730.0</ele><time>2026-04-11T10:41:09.584Z</time></trkpt><trkpt lat="44.5519096" lon="8.0624458"><ele>729.1666666666667</ele><time>2026-04-11T10:41:10.584Z</time></trkpt><trkpt lat="44.5518446" lon="8.0623732"><ele>728.3333333333334</ele><time>2026-04-11T10:41:11.584Z</time></trkpt><trkpt lat="44.5517792" lon="8.0623024"><ele>727.5</ele><time>2026-04-11T10:41:12.584Z</time></trkpt><trkpt lat="44.5517076" lon="8.0622448"><ele>726.6666666666666</ele><time>2026-04-11T10:41:13.584Z</time></trkpt><trkpt lat="44.5516363" lon="8.0621942"><ele>725.8333333333333</ele><time>2026-04-11T10:41:14.584Z</time></trkpt><trkpt lat="44.5515804" lon="8.062144"><ele>725.0</ele><time>2026-04-11T10:41:15.584Z</time></trkpt><trkpt lat="44.5515271" lon="8.0620715"><ele>725.0</ele><time>2026-04-11T10:41:16.584Z</time></trkpt><trkpt lat="44.5514681" lon="8.0619926"><ele>725.0</ele><time>2026-04-11T10:41:17.584Z</time></trkpt><trkpt lat="44.5514115" lon="8.0619151"><ele>725.0</ele><time>2026-04-11T10:41:18.584Z</time></trkpt><trkpt lat="44.551352" lon="8.0618502"><ele>725.0</ele><time>2026-04-11T10:41:19.584Z</time></trkpt><trkpt lat="44.5512812" lon="8.0617949"><ele>725.0</ele><time>2026-04-11T10:41:20.584Z</time></trkpt><trkpt lat="44.5512104" lon="8.0617605"><ele>725.0</ele><time>2026-04-11T10:41:21.584Z</time></trkpt><trkpt lat="44.5511215" lon="8.0617329"><ele>725.8333333333333</ele><time>2026-04-11T10:41:22.584Z</time></trkpt><trkpt lat="44.551032" lon="8.0617237"><ele>726.6666666666666</ele><time>2026-04-11T10:41:23.584Z</time></trkpt><trkpt lat="44.55096" lon="8.0617119"><ele>727.5</ele><time>2026-04-11T10:41:24.584Z</time></trkpt><trkpt lat="44.5508888" lon="8.0616963"><ele>728.3333333333334</ele><time>2026-04-11T10:41:25.584Z</time></trkpt><trkpt lat="44.5508126" lon="8.0616794"><ele>729.1666666666667</ele><time>2026-04-11T10:41:26.584Z</time></trkpt><trkpt lat="44.550734" lon="8.0616618"><ele>730.0</ele><time>2026-04-11T10:41:27.584Z</time></trkpt><trkpt lat="44.5506506" lon="8.0616443"><ele>730.0</ele><time>2026-04-11T10:41:28.584Z</time></trkpt><trkpt lat="44.5505676" lon="8.061621"><ele>730.0</ele><time>2026-04-11T10:41:29.584Z</time></trkpt><trkpt lat="44.5504836" lon="8.0615995"><ele>730.0</ele><time>2026-04-11T10:41:30.584Z</time></trkpt><trkpt lat="44.5503988" lon="8.0615761"><ele>730.0</ele><time>2026-04-11T10:41:31.584Z</time></trkpt><trkpt lat="44.550317" lon="8.0615427"><ele>730.0</ele><time>2026-04-11T10:41:32.584Z</time></trkpt><trkpt lat="44.5502393" lon="8.061499"><ele>730.0</ele><time>2026-04-11T10:41:33.584Z</time></trkpt><trkpt lat="44.5501666" lon="8.0614389"><ele>729.1666666666667</ele><time>2026-04-11T10:41:34.584Z</time></trkpt><trkpt lat="44.5501002" lon="8.0613589"><ele>728.3333333333334</ele><time>2026-04-11T10:41:35.584Z</time></trkpt><trkpt lat="44.5500385" lon="8.061268"><ele>727.5</ele><time>2026-04-11T10:41:36.584Z</time></trkpt><trkpt lat="44.549978" lon="8.0611786"><ele>726.6666666666666</ele><time>2026-04-11T10:41:37.584Z</time></trkpt><trkpt lat="44.5499241" lon="8.0610906"><ele>725.8333333333333</ele><time>2026-04-11T10:41:38.584Z</time></trkpt><trkpt lat="44.5498733" lon="8.061003"><ele>725.0</ele><time>2026-04-11T10:41:39.584Z</time></trkpt><trkpt lat="44.5498224" lon="8.0609149"><ele>725.0</ele><time>2026-04-11T10:41:40.584Z</time></trkpt><trkpt lat="44.5497675" lon="8.0608313"><ele>725.0</ele><time>2026-04-11T10:41:41.584Z</time></trkpt><trkpt lat="44.5497093" lon="8.0607488"><ele>725.0</ele><time>2026-04-11T10:41:42.585Z</time></trkpt><trkpt lat="44.5496502" lon="8.0606722"><ele>725.0</ele><time>2026-04-11T10:41:43.584Z</time></trkpt><trkpt lat="44.5495921" lon="8.0606068"><ele>725.0</ele><time>2026-04-11T10:41:44.584Z</time></trkpt><trkpt lat="44.5495244" lon="8.0605545"><ele>725.0</ele><time>2026-04-11T10:41:45.584Z</time></trkpt><trkpt lat="44.5494479" lon="8.0605126"><ele>725.3333333333333</ele><time>2026-04-11T10:41:46.584Z</time></trkpt><trkpt lat="44.5493665" lon="8.0604859"><ele>725.6666666666666</ele><time>2026-04-11T10:41:47.585Z</time></trkpt><trkpt lat="44.5492817" lon="8.0604658"><ele>726.0</ele><time>2026-04-11T10:41:48.584Z</time></trkpt><trkpt lat="44.5491997" lon="8.0604602"><ele>726.3333333333334</ele><time>2026-04-11T10:41:49.584Z</time></trkpt><trkpt lat="44.5491211" lon="8.0604604"><ele>726.6666666666667</ele><time>2026-04-11T10:41:50.584Z</time></trkpt><trkpt lat="44.5490411" lon="8.0604674"><ele>727.0</ele><time>2026-04-11T10:41:51.584Z</time></trkpt><trkpt lat="44.54896" lon="8.0604695"><ele>727.0</ele><time>2026-04-11T10:41:52.584Z</time></trkpt><trkpt lat="44.5488888" lon="8.0604592"><ele>727.0</ele><time>2026-04-11T10:41:53.584Z</time></trkpt><trkpt lat="44.5488145" lon="8.0604329"><ele>727.0</ele><time>2026-04-11T10:41:54.584Z</time></trkpt><trkpt lat="44.5487388" lon="8.060394"><ele>727.0</ele><time>2026-04-11T10:41:55.584Z</time></trkpt><trkpt lat="44.5486677" lon="8.0603424"><ele>727.0</ele><time>2026-04-11T10:41:56.584Z</time></trkpt><trkpt lat="44.5486004" lon="8.0602868"><ele>727.0</ele><time>2026-04-11T10:41:57.584Z</time></trkpt><trkpt lat="44.5485336" lon="8.0602295"><ele>727.5</ele><time>2026-04-11T10:41:58.584Z</time></trkpt><trkpt lat="44.5484681" lon="8.0601664"><ele>728.0</ele><time>2026-04-11T10:41:59.584Z</time></trkpt><trkpt lat="44.5484096" lon="8.0600909"><ele>728.5</ele><time>2026-04-11T10:42:00.584Z</time></trkpt><trkpt lat="44.5483521" lon="8.0600176"><ele>729.0</ele><time>2026-04-11T10:42:01.584Z</time></trkpt><trkpt lat="44.5482899" lon="8.0599516"><ele>729.5</ele><time>2026-04-11T10:42:02.584Z</time></trkpt><trkpt lat="44.5482274" lon="8.0598839"><ele>730.0</ele><time>2026-04-11T10:42:03.584Z</time></trkpt><trkpt lat="44.5481663" lon="8.0598186"><ele>730.2857142857143</ele><time>2026-04-11T10:42:04.584Z</time></trkpt><trkpt lat="44.5481061" lon="8.0597554"><ele>730.5714285714286</ele><time>2026-04-11T10:42:05.584Z</time></trkpt><trkpt lat="44.5480418" lon="8.0597002"><ele>730.8571428571429</ele><time>2026-04-11T10:42:06.584Z</time></trkpt><trkpt lat="44.5479769" lon="8.0596549"><ele>731.1428571428571</ele><time>2026-04-11T10:42:07.584Z</time></trkpt><trkpt lat="44.5479126" lon="8.0596074"><ele>731.4285714285714</ele><time>2026-04-11T10:42:08.585Z</time></trkpt><trkpt lat="44.5478517" lon="8.0595577"><ele>731.7142857142858</ele><time>2026-04-11T10:42:09.584Z</time></trkpt><trkpt lat="44.5477916" lon="8.0595078"><ele>732.0</ele><time>2026-04-11T10:42:10.584Z</time></trkpt><trkpt lat="44.5477309" lon="8.0594564"><ele>732.0</ele><time>2026-04-11T10:42:11.584Z</time></trkpt><trkpt lat="44.5476677" lon="8.0594047"><ele>732.0</ele><time>2026-04-11T10:42:12.584Z</time></trkpt><trkpt lat="44.5476054" lon="8.0593607"><ele>732.0</ele><time>2026-04-11T10:42:13.584Z</time></trkpt><trkpt lat="44.5475399" lon="8.0593211"><ele>732.0</ele><time>2026-04-11T10:42:14.584Z</time></trkpt><trkpt lat="44.5474739" lon="8.0592917"><ele>732.0</ele><time>2026-04-11T10:42:15.584Z</time></trkpt><trkpt lat="44.5474045" lon="8.0592679"><ele>732.0</ele><time>2026-04-11T10:42:16.584Z</time></trkpt><trkpt lat="44.5473346" lon="8.0592568"><ele>732.0</ele><time>2026-04-11T10:42:17.584Z</time></trkpt><trkpt lat="44.547261" lon="8.0592507"><ele>732.0</ele><time>2026-04-11T10:42:18.584Z</time></trkpt><trkpt lat="44.5471885" lon="8.0592531"><ele>732.0</ele><time>2026-04-11T10:42:19.584Z</time></trkpt><trkpt lat="44.5471165" lon="8.0592591"><ele>732.0</ele><time>2026-04-11T10:42:20.584Z</time></trkpt><trkpt lat="44.5470435" lon="8.0592659"><ele>732.0</ele><time>2026-04-11T10:42:21.584Z</time></trkpt><trkpt lat="44.5469747" lon="8.0592693"><ele>732.0</ele><time>2026-04-11T10:42:22.584Z</time></trkpt><trkpt lat="44.5469095" lon="8.0592684"><ele>732.0</ele><time>2026-04-11T10:42:23.584Z</time></trkpt><trkpt lat="44.5468432" lon="8.0592692"><ele>732.0</ele><time>2026-04-11T10:42:24.584Z</time></trkpt><trkpt lat="44.5467689" lon="8.0592685"><ele>732.1428571428571</ele><time>2026-04-11T10:42:25.584Z</time></trkpt><trkpt lat="44.5466964" lon="8.0592546"><ele>732.2857142857143</ele><time>2026-04-11T10:42:26.584Z</time></trkpt><trkpt lat="44.5466269" lon="8.0592267"><ele>732.4285714285713</ele><time>2026-04-11T10:42:27.584Z</time></trkpt><trkpt lat="44.5465605" lon="8.0591869"><ele>732.5714285714286</ele><time>2026-04-11T10:42:28.584Z</time></trkpt><trkpt lat="44.5464977" lon="8.059139"><ele>732.7142857142857</ele><time>2026-04-11T10:42:29.584Z</time></trkpt><trkpt lat="44.5464386" lon="8.0590846"><ele>732.8571428571428</ele><time>2026-04-11T10:42:30.584Z</time></trkpt><trkpt lat="44.5463816" lon="8.0590254"><ele>733.0</ele><time>2026-04-11T10:42:31.584Z</time></trkpt><trkpt lat="44.5463251" lon="8.0589673"><ele>733.0</ele><time>2026-04-11T10:42:32.584Z</time></trkpt><trkpt lat="44.5462673" lon="8.058905"><ele>733.0</ele><time>2026-04-11T10:42:33.584Z</time></trkpt><trkpt lat="44.5462075" lon="8.0588523"><ele>733.0</ele><time>2026-04-11T10:42:34.584Z</time></trkpt><trkpt lat="44.5460914" lon="8.058799"><ele>733.0</ele><time>2026-04-11T10:42:36.584Z</time></trkpt><trkpt lat="44.545965" lon="8.0588293"><ele>733.0</ele><time>2026-04-11T10:42:38.584Z</time></trkpt><trkpt lat="44.5459001" lon="8.0588692"><ele>732.5</ele><time>2026-04-11T10:42:39.584Z</time></trkpt><trkpt lat="44.5458311" lon="8.058934"><ele>732.0</ele><time>2026-04-11T10:42:40.584Z</time></trkpt><trkpt lat="44.5457682" lon="8.0589853"><ele>731.5</ele><time>2026-04-11T10:42:41.584Z</time></trkpt><trkpt lat="44.5456957" lon="8.0590472"><ele>731.0</ele><time>2026-04-11T10:42:43.584Z</time></trkpt><trkpt lat="44.5456174" lon="8.0590816"><ele>730.5</ele><time>2026-04-11T10:42:47.584Z</time></trkpt><trkpt lat="44.5455545" lon="8.05911"><ele>730.0</ele><time>2026-04-11T10:42:49.639Z</time></trkpt><trkpt lat="44.5454694" lon="8.0591413"><ele>729.8333333333334</ele><time>2026-04-11T10:42:51.584Z</time></trkpt><trkpt lat="44.5453592" lon="8.0591508"><ele>729.6666666666667</ele><time>2026-04-11T10:42:53.584Z</time></trkpt><trkpt lat="44.5452771" lon="8.0591563"><ele>729.5</ele><time>2026-04-11T10:42:55.584Z</time></trkpt><trkpt lat="44.5452141" lon="8.0591636"><ele>729.3333333333334</ele><time>2026-04-11T10:42:57.584Z</time></trkpt><trkpt lat="44.5451462" lon="8.0591457"><ele>729.1666666666666</ele><time>2026-04-11T10:43:27.584Z</time></trkpt><trkpt lat="44.5450838" lon="8.0591281"><ele>729.0</ele><time>2026-04-11T10:43:31.584Z</time></trkpt><trkpt lat="44.5450081" lon="8.0591392"><ele>729.0</ele><time>2026-04-11T10:43:33.584Z</time></trkpt><trkpt lat="44.5449257" lon="8.059151"><ele>729.0</ele><time>2026-04-11T10:43:35.584Z</time></trkpt><trkpt lat="44.5448582" lon="8.0591627"><ele>729.0</ele><time>2026-04-11T10:43:37.584Z</time></trkpt><trkpt lat="44.5447706" lon="8.0591928"><ele>729.0</ele><time>2026-04-11T10:43:40.584Z</time></trkpt><trkpt lat="44.544686" lon="8.0592313"><ele>729.0</ele><time>2026-04-11T10:43:43.584Z</time></trkpt><trkpt lat="44.5446238" lon="8.0592601"><ele>729.0</ele><time>2026-04-11T10:43:45.584Z</time></trkpt><trkpt lat="44.5445361" lon="8.0592545"><ele>730.1428571428572</ele><time>2026-04-11T10:43:48.584Z</time></trkpt><trkpt lat="44.544471" lon="8.0592454"><ele>731.2857142857142</ele><time>2026-04-11T10:43:50.584Z</time></trkpt><trkpt lat="44.5443977" lon="8.0592442"><ele>732.4285714285714</ele><time>2026-04-11T10:43:53.584Z</time></trkpt><trkpt lat="44.5443335" lon="8.059239"><ele>733.5714285714287</ele><time>2026-04-11T10:43:56.584Z</time></trkpt><trkpt lat="44.5442414" lon="8.0592404"><ele>734.7142857142858</ele><time>2026-04-11T10:43:59.584Z</time></trkpt><trkpt lat="44.544178" lon="8.0592489"><ele>735.8571428571429</ele><time>2026-04-11T10:44:01.585Z</time></trkpt><trkpt lat="44.5441016" lon="8.0592336"><ele>737.0</ele><time>2026-04-11T10:44:04.584Z</time></trkpt><trkpt lat="44.5440241" lon="8.0592287"><ele>737.0</ele><time>2026-04-11T10:44:08.584Z</time></trkpt><trkpt lat="44.5439305" lon="8.0592252"><ele>737.0</ele><time>2026-04-11T10:44:11.584Z</time></trkpt><trkpt lat="44.5438616" lon="8.0592319"><ele>737.0</ele><time>2026-04-11T10:44:13.584Z</time></trkpt><trkpt lat="44.5437861" lon="8.0592602"><ele>737.0</ele><time>2026-04-11T10:44:15.584Z</time></trkpt><trkpt lat="44.5437196" lon="8.0592853"><ele>737.0</ele><time>2026-04-11T10:44:17.584Z</time></trkpt><trkpt lat="44.543653" lon="8.0593262"><ele>737.0</ele><time>2026-04-11T10:44:19.584Z</time></trkpt><trkpt lat="44.5436112" lon="8.0594091"><ele>738.8571428571429</ele><time>2026-04-11T10:44:21.584Z</time></trkpt><trkpt lat="44.5435695" lon="8.0595068"><ele>740.7142857142858</ele><time>2026-04-11T10:44:23.584Z</time></trkpt><trkpt lat="44.5435271" lon="8.0595775"><ele>742.5714285714287</ele><time>2026-04-11T10:44:25.584Z</time></trkpt><trkpt lat="44.5434938" lon="8.0596564"><ele>744.4285714285714</ele><time>2026-04-11T10:44:28.584Z</time></trkpt><trkpt lat="44.5434696" lon="8.0597437"><ele>746.2857142857142</ele><time>2026-04-11T10:44:31.584Z</time></trkpt><trkpt lat="44.5434361" lon="8.0598301"><ele>748.1428571428572</ele><time>2026-04-11T10:44:34.584Z</time></trkpt><trkpt lat="44.5433797" lon="8.0599024"><ele>750.0</ele><time>2026-04-11T10:44:37.584Z</time></trkpt><trkpt lat="44.5433358" lon="8.0599808"><ele>750.0</ele><time>2026-04-11T10:44:41.584Z</time></trkpt><trkpt lat="44.5432815" lon="8.0600622"><ele>750.0</ele><time>2026-04-11T10:44:46.584Z</time></trkpt><trkpt lat="44.5432122" lon="8.0600816"><ele>750.0</ele><time>2026-04-11T10:44:50.585Z</time></trkpt><trkpt lat="44.543138" lon="8.0601087"><ele>750.0</ele><time>2026-04-11T10:44:54.585Z</time></trkpt><trkpt lat="44.5430584" lon="8.0601242"><ele>750.0</ele><time>2026-04-11T10:44:58.585Z</time></trkpt><trkpt lat="44.542993" lon="8.0601804"><ele>750.0</ele><time>2026-04-11T10:45:01.585Z</time></trkpt><trkpt lat="44.5429375" lon="8.0602386"><ele>750.0</ele><time>2026-04-11T10:45:05.585Z</time></trkpt><trkpt lat="44.5429178" lon="8.0603273"><ele>750.0</ele><time>2026-04-11T10:45:08.585Z</time></trkpt><trkpt lat="44.5428707" lon="8.0604413"><ele>750.0</ele><time>2026-04-11T10:45:11.585Z</time></trkpt><trkpt lat="44.5428471" lon="8.0605239"><ele>750.0</ele><time>2026-04-11T10:45:13.585Z</time></trkpt><trkpt lat="44.5428128" lon="8.0606404"><ele>750.0</ele><time>2026-04-11T10:45:15.585Z</time></trkpt><trkpt lat="44.5427737" lon="8.0607385"><ele>750.0</ele><time>2026-04-11T10:45:17.592Z</time></trkpt><trkpt lat="44.5427327" lon="8.0608161"><ele>752.5</ele><time>2026-04-11T10:45:20.592Z</time></trkpt><trkpt lat="44.5427289" lon="8.0609331"><ele>755.0</ele><time>2026-04-11T10:45:23.592Z</time></trkpt><trkpt lat="44.5426982" lon="8.0610501"><ele>757.5</ele><time>2026-04-11T10:45:26.592Z</time></trkpt><trkpt lat="44.5426723" lon="8.0611432"><ele>760.0</ele><time>2026-04-11T10:45:29.593Z</time></trkpt><trkpt lat="44.542648" lon="8.0612417"><ele>762.5</ele><time>2026-04-11T10:45:31.592Z</time></trkpt><trkpt lat="44.5426084" lon="8.0613121"><ele>765.0</ele><time>2026-04-11T10:45:33.592Z</time></trkpt><trkpt lat="44.5425617" lon="8.0613872"><ele>765.0000000000001</ele><time>2026-04-11T10:45:36.592Z</time></trkpt><trkpt lat="44.5425187" lon="8.0614576"><ele>765.0</ele><time>2026-04-11T10:45:40.592Z</time></trkpt><trkpt lat="44.5424458" lon="8.0615114"><ele>765.0</ele><time>2026-04-11T10:45:43.592Z</time></trkpt><trkpt lat="44.5423731" lon="8.0615463"><ele>765.0</ele><time>2026-04-11T10:45:46.592Z</time></trkpt><trkpt lat="44.5422963" lon="8.0615839"><ele>765.0</ele><time>2026-04-11T10:45:50.592Z</time></trkpt><trkpt lat="44.5422339" lon="8.0616296"><ele>765.0000000000001</ele><time>2026-04-11T10:45:52.592Z</time></trkpt><trkpt lat="44.5421753" lon="8.0616664"><ele>765.0</ele><time>2026-04-11T10:45:54.592Z</time></trkpt><trkpt lat="44.5421181" lon="8.0617382"><ele>765.0</ele><time>2026-04-11T10:45:57.592Z</time></trkpt><trkpt lat="44.5420787" lon="8.0618251"><ele>765.0</ele><time>2026-04-11T10:46:03.592Z</time></trkpt><trkpt lat="44.5420631" lon="8.0619248"><ele>765.0</ele><time>2026-04-11T10:46:05.592Z</time></trkpt><trkpt lat="44.5420274" lon="8.0620219"><ele>765.0</ele><time>2026-04-11T10:46:09.592Z</time></trkpt><trkpt lat="44.5419916" lon="8.0621318"><ele>765.0</ele><time>2026-04-11T10:46:13.592Z</time></trkpt><trkpt lat="44.5419424" lon="8.0622112"><ele>765.0</ele><time>2026-04-11T10:46:16.592Z</time></trkpt><trkpt lat="44.5418988" lon="8.0623097"><ele>765.3333333333334</ele><time>2026-04-11T10:46:19.592Z</time></trkpt><trkpt lat="44.5418694" lon="8.0624116"><ele>765.6666666666666</ele><time>2026-04-11T10:46:22.592Z</time></trkpt><trkpt lat="44.5418444" lon="8.0625207"><ele>766.0</ele><time>2026-04-11T10:46:25.592Z</time></trkpt><trkpt lat="44.5417985" lon="8.0626017"><ele>766.3333333333333</ele><time>2026-04-11T10:46:28.592Z</time></trkpt><trkpt lat="44.5417595" lon="8.0626942"><ele>766.6666666666666</ele><time>2026-04-11T10:46:31.592Z</time></trkpt><trkpt lat="44.5417322" lon="8.0627905"><ele>767.0</ele><time>2026-04-11T10:46:33.592Z</time></trkpt><trkpt lat="44.5417296" lon="8.0629127"><ele>767.1666666666666</ele><time>2026-04-11T10:46:36.592Z</time></trkpt><trkpt lat="44.541674" lon="8.0629936"><ele>767.3333333333333</ele><time>2026-04-11T10:46:39.592Z</time></trkpt><trkpt lat="44.5416401" lon="8.0631116"><ele>767.5</ele><time>2026-04-11T10:46:42.592Z</time></trkpt><trkpt lat="44.5416028" lon="8.0632163"><ele>767.6666666666666</ele><time>2026-04-11T10:46:44.592Z</time></trkpt><trkpt lat="44.5415578" lon="8.0633255"><ele>767.8333333333334</ele><time>2026-04-11T10:46:46.592Z</time></trkpt><trkpt lat="44.5415138" lon="8.0634188"><ele>768.0</ele><time>2026-04-11T10:46:48.592Z</time></trkpt><trkpt lat="44.5414539" lon="8.0635128"><ele>770.0</ele><time>2026-04-11T10:46:50.592Z</time></trkpt><trkpt lat="44.5414058" lon="8.0636135"><ele>772.0</ele><time>2026-04-11T10:46:52.592Z</time></trkpt><trkpt lat="44.5413801" lon="8.0637438"><ele>774.0</ele><time>2026-04-11T10:46:54.592Z</time></trkpt><trkpt lat="44.5413366" lon="8.0638938"><ele>776.0</ele><time>2026-04-11T10:46:56.592Z</time></trkpt><trkpt lat="44.5412499" lon="8.0640181"><ele>778.0</ele><time>2026-04-11T10:46:58.592Z</time></trkpt><trkpt lat="44.5412001" lon="8.0640722"><ele>776.6666666666666</ele><time>2026-04-11T10:46:59.592Z</time></trkpt><trkpt lat="44.541115" lon="8.0641854"><ele>775.3333333333333</ele><time>2026-04-11T10:47:01.592Z</time></trkpt><trkpt lat="44.5410701" lon="8.0642593"><ele>774.0</ele><time>2026-04-11T10:47:02.592Z</time></trkpt><trkpt lat="44.5410305" lon="8.0643561"><ele>772.6666666666667</ele><time>2026-04-11T10:47:03.592Z</time></trkpt><trkpt lat="44.5409888" lon="8.0644412"><ele>771.3333333333334</ele><time>2026-04-11T10:47:04.592Z</time></trkpt><trkpt lat="44.5409639" lon="8.0645338"><ele>770.0</ele><time>2026-04-11T10:47:05.592Z</time></trkpt><trkpt lat="44.5409218" lon="8.0646165"><ele>770.0</ele><time>2026-04-11T10:47:06.592Z</time></trkpt><trkpt lat="44.5408737" lon="8.0646993"><ele>770.0</ele><time>2026-04-11T10:47:07.592Z</time></trkpt><trkpt lat="44.5408197" lon="8.0647681"><ele>770.0</ele><time>2026-04-11T10:47:08.592Z</time></trkpt><trkpt lat="44.540761" lon="8.0648361"><ele>770.0</ele><time>2026-04-11T10:47:09.593Z</time></trkpt><trkpt lat="44.5407005" lon="8.0648941"><ele>770.0</ele><time>2026-04-11T10:47:10.592Z</time></trkpt><trkpt lat="44.5406407" lon="8.0649375"><ele>770.0</ele><time>2026-04-11T10:47:11.592Z</time></trkpt><trkpt lat="44.5405696" lon="8.0649801"><ele>770.0</ele><time>2026-04-11T10:47:12.592Z</time></trkpt><trkpt lat="44.5405" lon="8.0649804"><ele>769.3333333333334</ele><time>2026-04-11T10:47:13.592Z</time></trkpt><trkpt lat="44.5404304" lon="8.064978"><ele>768.6666666666667</ele><time>2026-04-11T10:47:14.593Z</time></trkpt><trkpt lat="44.5403569" lon="8.0649496"><ele>768.0</ele><time>2026-04-11T10:47:15.592Z</time></trkpt><trkpt lat="44.5402631" lon="8.0648667"><ele>767.3333333333334</ele><time>2026-04-11T10:47:17.592Z</time></trkpt><trkpt lat="44.5402117" lon="8.0647236"><ele>766.6666666666667</ele><time>2026-04-11T10:47:19.592Z</time></trkpt><trkpt lat="44.5401965" lon="8.0646378"><ele>766.0</ele><time>2026-04-11T10:47:20.592Z</time></trkpt><trkpt lat="44.5401709" lon="8.0644806"><ele>764.0</ele><time>2026-04-11T10:47:22.592Z</time></trkpt><trkpt lat="44.5401451" lon="8.0643616"><ele>762.0</ele><time>2026-04-11T10:47:24.593Z</time></trkpt><trkpt lat="44.5400441" lon="8.0643623"><ele>760.0</ele><time>2026-04-11T10:47:27.592Z</time></trkpt><trkpt lat="44.5399345" lon="8.0643844"><ele>758.0</ele><time>2026-04-11T10:47:29.592Z</time></trkpt><trkpt lat="44.5398188" lon="8.064387"><ele>756.0</ele><time>2026-04-11T10:47:31.592Z</time></trkpt><trkpt lat="44.5397007" lon="8.0643725"><ele>756.0</ele><time>2026-04-11T10:47:33.592Z</time></trkpt><trkpt lat="44.5395812" lon="8.0643751"><ele>756.0</ele><time>2026-04-11T10:47:35.592Z</time></trkpt><trkpt lat="44.5394555" lon="8.0643775"><ele>756.0</ele><time>2026-04-11T10:47:37.592Z</time></trkpt><trkpt lat="44.5393895" lon="8.0643837"><ele>756.0</ele><time>2026-04-11T10:47:38.592Z</time></trkpt><trkpt lat="44.5393234" lon="8.0644124"><ele>756.0</ele><time>2026-04-11T10:47:39.592Z</time></trkpt><trkpt lat="44.5392637" lon="8.0644827"><ele>755.1666666666666</ele><time>2026-04-11T10:47:40.592Z</time></trkpt><trkpt lat="44.5392162" lon="8.0645641"><ele>754.3333333333334</ele><time>2026-04-11T10:47:41.592Z</time></trkpt><trkpt lat="44.5391693" lon="8.0646516"><ele>753.5</ele><time>2026-04-11T10:47:42.592Z</time></trkpt><trkpt lat="44.5391296" lon="8.064776"><ele>752.6666666666667</ele><time>2026-04-11T10:47:43.592Z</time></trkpt><trkpt lat="44.5390794" lon="8.0648664"><ele>751.8333333333334</ele><time>2026-04-11T10:47:44.592Z</time></trkpt><trkpt lat="44.5390242" lon="8.0649406"><ele>751.0</ele><time>2026-04-11T10:47:45.592Z</time></trkpt><trkpt lat="44.5389622" lon="8.065005"><ele>751.1666666666667</ele><time>2026-04-11T10:47:46.592Z</time></trkpt><trkpt lat="44.5388927" lon="8.0650677"><ele>751.3333333333334</ele><time>2026-04-11T10:47:47.592Z</time></trkpt><trkpt lat="44.5388256" lon="8.0651326"><ele>751.5</ele><time>2026-04-11T10:47:48.592Z</time></trkpt><trkpt lat="44.5387574" lon="8.0652029"><ele>751.6666666666666</ele><time>2026-04-11T10:47:49.593Z</time></trkpt><trkpt lat="44.5386966" lon="8.0652899"><ele>751.8333333333333</ele><time>2026-04-11T10:47:50.592Z</time></trkpt><trkpt lat="44.538653" lon="8.0653845"><ele>752.0</ele><time>2026-04-11T10:47:51.592Z</time></trkpt><trkpt lat="44.5386207" lon="8.0655312"><ele>752.0</ele><time>2026-04-11T10:47:53.592Z</time></trkpt><trkpt lat="44.5385505" lon="8.0655606"><ele>752.0</ele><time>2026-04-11T10:47:54.592Z</time></trkpt><trkpt lat="44.5384756" lon="8.0655646"><ele>752.0</ele><time>2026-04-11T10:47:55.592Z</time></trkpt><trkpt lat="44.5383948" lon="8.0655411"><ele>752.0</ele><time>2026-04-11T10:47:56.592Z</time></trkpt><trkpt lat="44.5383052" lon="8.0655057"><ele>752.0</ele><time>2026-04-11T10:47:57.592Z</time></trkpt><trkpt lat="44.5382086" lon="8.0654491"><ele>752.0</ele><time>2026-04-11T10:47:58.592Z</time></trkpt><trkpt lat="44.5381163" lon="8.0654268"><ele>752.0</ele><time>2026-04-11T10:47:59.592Z</time></trkpt><trkpt lat="44.5380198" lon="8.0654194"><ele>752.0</ele><time>2026-04-11T10:48:00.592Z</time></trkpt><trkpt lat="44.5379315" lon="8.0654328"><ele>752.0</ele><time>2026-04-11T10:48:01.592Z</time></trkpt><trkpt lat="44.5378381" lon="8.0654544"><ele>752.0</ele><time>2026-04-11T10:48:02.592Z</time></trkpt><trkpt lat="44.5377464" lon="8.0654614"><ele>752.0</ele><time>2026-04-11T10:48:03.592Z</time></trkpt><trkpt lat="44.5376511" lon="8.0654577"><ele>751.2</ele><time>2026-04-11T10:48:04.592Z</time></trkpt><trkpt lat="44.5375434" lon="8.0654044"><ele>750.4000000000001</ele><time>2026-04-11T10:48:05.592Z</time></trkpt><trkpt lat="44.5374577" lon="8.0653266"><ele>749.5999999999999</ele><time>2026-04-11T10:48:06.592Z</time></trkpt><trkpt lat="44.5373871" lon="8.0652436"><ele>748.8</ele><time>2026-04-11T10:48:07.592Z</time></trkpt><trkpt lat="44.537306" lon="8.0651922"><ele>748.0</ele><time>2026-04-11T10:48:08.592Z</time></trkpt><trkpt lat="44.5372241" lon="8.0651497"><ele>748.0</ele><time>2026-04-11T10:48:09.592Z</time></trkpt><trkpt lat="44.5371389" lon="8.065108"><ele>748.0</ele><time>2026-04-11T10:48:10.593Z</time></trkpt><trkpt lat="44.5370578" lon="8.0650658"><ele>748.0</ele><time>2026-04-11T10:48:11.592Z</time></trkpt><trkpt lat="44.5369438" lon="8.0650354"><ele>748.0</ele><time>2026-04-11T10:48:12.592Z</time></trkpt><trkpt lat="44.5368243" lon="8.0650327"><ele>748.0</ele><time>2026-04-11T10:48:13.592Z</time></trkpt><trkpt lat="44.5366892" lon="8.0650283"><ele>746.75</ele><time>2026-04-11T10:48:14.592Z</time></trkpt><trkpt lat="44.5365525" lon="8.0650263"><ele>745.5</ele><time>2026-04-11T10:48:15.592Z</time></trkpt><trkpt lat="44.5364218" lon="8.0650255"><ele>744.25</ele><time>2026-04-11T10:48:16.592Z</time></trkpt><trkpt lat="44.5362945" lon="8.0650541"><ele>743.0</ele><time>2026-04-11T10:48:17.592Z</time></trkpt><trkpt lat="44.536165" lon="8.065062"><ele>740.25</ele><time>2026-04-11T10:48:18.592Z</time></trkpt><trkpt lat="44.5360247" lon="8.06506"><ele>737.5</ele><time>2026-04-11T10:48:19.592Z</time></trkpt><trkpt lat="44.5358915" lon="8.0650828"><ele>734.75</ele><time>2026-04-11T10:48:20.592Z</time></trkpt><trkpt lat="44.5357613" lon="8.0650932"><ele>732.0</ele><time>2026-04-11T10:48:21.592Z</time></trkpt><trkpt lat="44.5356295" lon="8.0650922"><ele>732.0</ele><time>2026-04-11T10:48:22.592Z</time></trkpt><trkpt lat="44.5355041" lon="8.0651073"><ele>732.0</ele><time>2026-04-11T10:48:23.592Z</time></trkpt><trkpt lat="44.5353907" lon="8.065135"><ele>732.0</ele><time>2026-04-11T10:48:24.592Z</time></trkpt><trkpt lat="44.5352938" lon="8.0651586"><ele>732.0</ele><time>2026-04-11T10:48:25.592Z</time></trkpt><trkpt lat="44.535202" lon="8.0652038"><ele>732.0</ele><time>2026-04-11T10:48:26.592Z</time></trkpt><trkpt lat="44.5351081" lon="8.0652563"><ele>730.8</ele><time>2026-04-11T10:48:27.592Z</time></trkpt><trkpt lat="44.5350278" lon="8.065311"><ele>729.6</ele><time>2026-04-11T10:48:28.592Z</time></trkpt><trkpt lat="44.5349365" lon="8.0653772"><ele>728.4</ele><time>2026-04-11T10:48:29.592Z</time></trkpt><trkpt lat="44.5348354" lon="8.0654334"><ele>727.1999999999999</ele><time>2026-04-11T10:48:30.592Z</time></trkpt><trkpt lat="44.534743" lon="8.065446"><ele>726.0</ele><time>2026-04-11T10:48:31.592Z</time></trkpt><trkpt lat="44.5346364" lon="8.0654397"><ele>725.1999999999999</ele><time>2026-04-11T10:48:32.592Z</time></trkpt><trkpt lat="44.5345206" lon="8.0654399"><ele>724.4</ele><time>2026-04-11T10:48:33.592Z</time></trkpt><trkpt lat="44.5344132" lon="8.0654623"><ele>723.6</ele><time>2026-04-11T10:48:34.593Z</time></trkpt><trkpt lat="44.5343142" lon="8.0654893"><ele>722.8</ele><time>2026-04-11T10:48:35.592Z</time></trkpt><trkpt lat="44.5342068" lon="8.0655042"><ele>722.0</ele><time>2026-04-11T10:48:36.592Z</time></trkpt><trkpt lat="44.5341014" lon="8.0655378"><ele>722.0</ele><time>2026-04-11T10:48:37.592Z</time></trkpt><trkpt lat="44.5340139" lon="8.0655539"><ele>722.0</ele><time>2026-04-11T10:48:38.592Z</time></trkpt><trkpt lat="44.5339282" lon="8.0655292"><ele>722.0</ele><time>2026-04-11T10:48:39.592Z</time></trkpt><trkpt lat="44.5338437" lon="8.0654846"><ele>722.0</ele><time>2026-04-11T10:48:40.592Z</time></trkpt><trkpt lat="44.5337547" lon="8.0654551"><ele>722.0</ele><time>2026-04-11T10:48:41.592Z</time></trkpt><trkpt lat="44.5336646" lon="8.0654733"><ele>722.0</ele><time>2026-04-11T10:48:42.592Z</time></trkpt><trkpt lat="44.5335703" lon="8.0655214"><ele>719.6</ele><time>2026-04-11T10:48:43.592Z</time></trkpt><trkpt lat="44.5334757" lon="8.0655511"><ele>717.2</ele><time>2026-04-11T10:48:44.592Z</time></trkpt><trkpt lat="44.5333706" lon="8.0655769"><ele>714.8</ele><time>2026-04-11T10:48:45.592Z</time></trkpt><trkpt lat="44.5332652" lon="8.0655867"><ele>712.4</ele><time>2026-04-11T10:48:46.592Z</time></trkpt><trkpt lat="44.5331606" lon="8.0655762"><ele>710.0</ele><time>2026-04-11T10:48:47.592Z</time></trkpt><trkpt lat="44.5330572" lon="8.0655855"><ele>710.0</ele><time>2026-04-11T10:48:48.592Z</time></trkpt><trkpt lat="44.532968" lon="8.0655858"><ele>710.0</ele><time>2026-04-11T10:48:49.592Z</time></trkpt><trkpt lat="44.5328778" lon="8.0655954"><ele>710.0</ele><time>2026-04-11T10:48:50.592Z</time></trkpt><trkpt lat="44.5327801" lon="8.0656045"><ele>710.0</ele><time>2026-04-11T10:48:51.592Z</time></trkpt><trkpt lat="44.5326823" lon="8.0656154"><ele>710.0</ele><time>2026-04-11T10:48:52.592Z</time></trkpt><trkpt lat="44.5325967" lon="8.0656317"><ele>709.8571428571429</ele><time>2026-04-11T10:48:53.592Z</time></trkpt><trkpt lat="44.5325129" lon="8.0656419"><ele>709.7142857142858</ele><time>2026-04-11T10:48:54.592Z</time></trkpt><trkpt lat="44.5324426" lon="8.0656607"><ele>709.5714285714287</ele><time>2026-04-11T10:48:55.592Z</time></trkpt><trkpt lat="44.5323801" lon="8.0657127"><ele>709.4285714285714</ele><time>2026-04-11T10:48:56.592Z</time></trkpt><trkpt lat="44.532314" lon="8.0657605"><ele>709.2857142857143</ele><time>2026-04-11T10:48:57.593Z</time></trkpt><trkpt lat="44.5322462" lon="8.0658006"><ele>709.1428571428572</ele><time>2026-04-11T10:48:58.592Z</time></trkpt><trkpt lat="44.5321811" lon="8.06584"><ele>709.0</ele><time>2026-04-11T10:48:59.592Z</time></trkpt><trkpt lat="44.5321197" lon="8.0658825"><ele>710.0</ele><time>2026-04-11T10:49:00.592Z</time></trkpt><trkpt lat="44.5320287" lon="8.0659681"><ele>711.0</ele><time>2026-04-11T10:49:02.592Z</time></trkpt><trkpt lat="44.5319473" lon="8.0660135"><ele>712.0</ele><time>2026-04-11T10:49:04.592Z</time></trkpt><trkpt lat="44.5318684" lon="8.0660892"><ele>713.0</ele><time>2026-04-11T10:49:06.592Z</time></trkpt><trkpt lat="44.5317754" lon="8.0661664"><ele>714.0</ele><time>2026-04-11T10:49:08.592Z</time></trkpt><trkpt lat="44.5317075" lon="8.0662327"><ele>714.0</ele><time>2026-04-11T10:49:09.592Z</time></trkpt><trkpt lat="44.5316446" lon="8.0663189"><ele>714.0</ele><time>2026-04-11T10:49:10.592Z</time></trkpt><trkpt lat="44.5315848" lon="8.0663743"><ele>714.0</ele><time>2026-04-11T10:49:12.592Z</time></trkpt><trkpt lat="44.5315079" lon="8.0664266"><ele>714.0</ele><time>2026-04-11T10:49:15.592Z</time></trkpt><trkpt lat="44.5314273" lon="8.0664568"><ele>714.0</ele><time>2026-04-11T10:49:17.592Z</time></trkpt><trkpt lat="44.5313475" lon="8.0665322"><ele>714.0</ele><time>2026-04-11T10:49:19.593Z</time></trkpt><trkpt lat="44.5312543" lon="8.0666093"><ele>712.8333333333334</ele><time>2026-04-11T10:49:21.592Z</time></trkpt><trkpt lat="44.5311485" lon="8.0666905"><ele>711.6666666666666</ele><time>2026-04-11T10:49:23.593Z</time></trkpt><trkpt lat="44.531089" lon="8.066732"><ele>710.5</ele><time>2026-04-11T10:49:24.592Z</time></trkpt><trkpt lat="44.5310124" lon="8.0667755"><ele>709.3333333333333</ele><time>2026-04-11T10:49:25.592Z</time></trkpt><trkpt lat="44.5309268" lon="8.0668091"><ele>708.1666666666666</ele><time>2026-04-11T10:49:26.592Z</time></trkpt><trkpt lat="44.5308522" lon="8.0668381"><ele>707.0</ele><time>2026-04-11T10:49:27.592Z</time></trkpt><trkpt lat="44.5307813" lon="8.0668871"><ele>707.0</ele><time>2026-04-11T10:49:28.592Z</time></trkpt><trkpt lat="44.5307114" lon="8.0669466"><ele>707.0</ele><time>2026-04-11T10:49:29.592Z</time></trkpt><trkpt lat="44.5306407" lon="8.067008"><ele>707.0</ele><time>2026-04-11T10:49:30.592Z</time></trkpt><trkpt lat="44.5305673" lon="8.0670682"><ele>707.0</ele><time>2026-04-11T10:49:31.592Z</time></trkpt><trkpt lat="44.5304891" lon="8.0671318"><ele>707.0</ele><time>2026-04-11T10:49:32.592Z</time></trkpt><trkpt lat="44.53043" lon="8.0672036"><ele>707.0</ele><time>2026-04-11T10:49:33.592Z</time></trkpt><trkpt lat="44.5303867" lon="8.0672777"><ele>705.5</ele><time>2026-04-11T10:49:34.592Z</time></trkpt><trkpt lat="44.5303392" lon="8.067348"><ele>704.0</ele><time>2026-04-11T10:49:35.592Z</time></trkpt><trkpt lat="44.5302822" lon="8.0674044"><ele>702.5</ele><time>2026-04-11T10:49:36.592Z</time></trkpt><trkpt lat="44.5302187" lon="8.0674389"><ele>701.0</ele><time>2026-04-11T10:49:37.592Z</time></trkpt><trkpt lat="44.5301095" lon="8.0674893"><ele>699.5</ele><time>2026-04-11T10:49:39.592Z</time></trkpt><trkpt lat="44.5300191" lon="8.0675059"><ele>698.0</ele><time>2026-04-11T10:49:41.592Z</time></trkpt><trkpt lat="44.5299572" lon="8.0675257"><ele>696.3333333333333</ele><time>2026-04-11T10:49:43.592Z</time></trkpt><trkpt lat="44.5298516" lon="8.0676268"><ele>694.6666666666666</ele><time>2026-04-11T10:49:45.592Z</time></trkpt><trkpt lat="44.5297878" lon="8.0676689"><ele>693.0</ele><time>2026-04-11T10:49:46.592Z</time></trkpt><trkpt lat="44.5297159" lon="8.0677019"><ele>691.3333333333334</ele><time>2026-04-11T10:49:47.592Z</time></trkpt><trkpt lat="44.5296539" lon="8.067729"><ele>689.6666666666667</ele><time>2026-04-11T10:49:48.592Z</time></trkpt><trkpt lat="44.5295558" lon="8.0677514"><ele>688.0</ele><time>2026-04-11T10:49:50.592Z</time></trkpt><trkpt lat="44.5295135" lon="8.0676665"><ele>684.6666666666667</ele><time>2026-04-11T10:49:53.592Z</time></trkpt><trkpt lat="44.5295186" lon="8.0675775"><ele>681.3333333333334</ele><time>2026-04-11T10:49:58.592Z</time></trkpt><trkpt lat="44.5294736" lon="8.0674892"><ele>678.0</ele><time>2026-04-11T10:50:03.592Z</time></trkpt><trkpt lat="44.529457" lon="8.0673852"><ele>674.6666666666666</ele><time>2026-04-11T10:50:06.592Z</time></trkpt><trkpt lat="44.5294224" lon="8.0672492"><ele>671.3333333333333</ele><time>2026-04-11T10:50:09.592Z</time></trkpt><trkpt lat="44.5293979" lon="8.067131"><ele>668.0</ele><time>2026-04-11T10:50:11.592Z</time></trkpt><trkpt lat="44.5294042" lon="8.0670292"><ele>667.5</ele><time>2026-04-11T10:50:13.592Z</time></trkpt><trkpt lat="44.5293575" lon="8.0669073"><ele>667.0</ele><time>2026-04-11T10:50:15.592Z</time></trkpt><trkpt lat="44.529381" lon="8.0668192"><ele>666.5</ele><time>2026-04-11T10:50:16.592Z</time></trkpt><trkpt lat="44.5293888" lon="8.0667271"><ele>666.0</ele><time>2026-04-11T10:50:17.592Z</time></trkpt><trkpt lat="44.5293675" lon="8.0665745"><ele>665.5</ele><time>2026-04-11T10:50:19.592Z</time></trkpt><trkpt lat="44.5293545" lon="8.0664531"><ele>665.0</ele><time>2026-04-11T10:50:21.592Z</time></trkpt><trkpt lat="44.5293845" lon="8.0663728"><ele>662.6</ele><time>2026-04-11T10:50:23.592Z</time></trkpt><trkpt lat="44.5294454" lon="8.0662797"><ele>660.2</ele><time>2026-04-11T10:50:26.592Z</time></trkpt><trkpt lat="44.5295221" lon="8.0661968"><ele>657.8</ele><time>2026-04-11T10:50:28.592Z</time></trkpt><trkpt lat="44.5296123" lon="8.0660977"><ele>655.4</ele><time>2026-04-11T10:50:30.592Z</time></trkpt><trkpt lat="44.5296919" lon="8.0660064"><ele>653.0</ele><time>2026-04-11T10:50:32.592Z</time></trkpt><trkpt lat="44.5297666" lon="8.0658728"><ele>655.0</ele><time>2026-04-11T10:50:34.592Z</time></trkpt><trkpt lat="44.529802" lon="8.0657856"><ele>657.0</ele><time>2026-04-11T10:50:35.592Z</time></trkpt><trkpt lat="44.5298464" lon="8.0656925"><ele>659.0</ele><time>2026-04-11T10:50:36.592Z</time></trkpt><trkpt lat="44.5298922" lon="8.0656181"><ele>661.0</ele><time>2026-04-11T10:50:37.592Z</time></trkpt><trkpt lat="44.5299741" lon="8.0654896"><ele>663.0</ele><time>2026-04-11T10:50:39.592Z</time></trkpt><trkpt lat="44.5300447" lon="8.0653536"><ele>662.9999999999999</ele><time>2026-04-11T10:50:41.592Z</time></trkpt><trkpt lat="44.5300285" lon="8.0652073"><ele>663.0</ele><time>2026-04-11T10:50:43.592Z</time></trkpt><trkpt lat="44.5300373" lon="8.0651161"><ele>663.0</ele><time>2026-04-11T10:50:44.592Z</time></trkpt><trkpt lat="44.5300644" lon="8.0650312"><ele>663.0</ele><time>2026-04-11T10:50:45.592Z</time></trkpt><trkpt lat="44.5301117" lon="8.0649581"><ele>663.0</ele><time>2026-04-11T10:50:46.592Z</time></trkpt><trkpt lat="44.5301593" lon="8.0648791"><ele>662.9999999999999</ele><time>2026-04-11T10:50:47.593Z</time></trkpt><trkpt lat="44.5302071" lon="8.064819"><ele>663.0</ele><time>2026-04-11T10:50:48.592Z</time></trkpt><trkpt lat="44.5302504" lon="8.0647526"><ele>660.1666666666666</ele><time>2026-04-11T10:50:49.592Z</time></trkpt><trkpt lat="44.5302886" lon="8.0646779"><ele>657.3333333333334</ele><time>2026-04-11T10:50:50.592Z</time></trkpt><trkpt lat="44.5303201" lon="8.0645929"><ele>654.5</ele><time>2026-04-11T10:50:51.592Z</time></trkpt><trkpt lat="44.5303472" lon="8.0645093"><ele>651.6666666666667</ele><time>2026-04-11T10:50:52.592Z</time></trkpt><trkpt lat="44.5303684" lon="8.0644251"><ele>648.8333333333334</ele><time>2026-04-11T10:50:53.592Z</time></trkpt><trkpt lat="44.5304027" lon="8.0642586"><ele>646.0</ele><time>2026-04-11T10:50:55.592Z</time></trkpt><trkpt lat="44.530423" lon="8.06417"><ele>649.1428571428572</ele><time>2026-04-11T10:50:56.592Z</time></trkpt><trkpt lat="44.5304524" lon="8.0640798"><ele>652.2857142857143</ele><time>2026-04-11T10:50:57.592Z</time></trkpt><trkpt lat="44.5304787" lon="8.0639874"><ele>655.4285714285714</ele><time>2026-04-11T10:50:58.592Z</time></trkpt><trkpt lat="44.5304967" lon="8.0638959"><ele>658.5714285714287</ele><time>2026-04-11T10:50:59.592Z</time></trkpt><trkpt lat="44.5305224" lon="8.0638124"><ele>661.7142857142858</ele><time>2026-04-11T10:51:00.592Z</time></trkpt><trkpt lat="44.5305598" lon="8.0637359"><ele>664.8571428571429</ele><time>2026-04-11T10:51:01.592Z</time></trkpt><trkpt lat="44.5305884" lon="8.0636468"><ele>668.0</ele><time>2026-04-11T10:51:02.592Z</time></trkpt><trkpt lat="44.5306301" lon="8.0635658"><ele>668.0</ele><time>2026-04-11T10:51:03.592Z</time></trkpt><trkpt lat="44.5306772" lon="8.0634871"><ele>668.0</ele><time>2026-04-11T10:51:04.592Z</time></trkpt><trkpt lat="44.5307234" lon="8.0634112"><ele>668.0</ele><time>2026-04-11T10:51:05.592Z</time></trkpt><trkpt lat="44.5307611" lon="8.0633199"><ele>668.0</ele><time>2026-04-11T10:51:06.592Z</time></trkpt><trkpt lat="44.5308046" lon="8.0632417"><ele>668.0</ele><time>2026-04-11T10:51:07.593Z</time></trkpt><trkpt lat="44.5308607" lon="8.0630907"><ele>668.0</ele><time>2026-04-11T10:51:09.592Z</time></trkpt><trkpt lat="44.5309254" lon="8.0629584"><ele>666.4</ele><time>2026-04-11T10:51:11.592Z</time></trkpt><trkpt lat="44.5310046" lon="8.0628634"><ele>664.8</ele><time>2026-04-11T10:51:13.592Z</time></trkpt><trkpt lat="44.5310989" lon="8.0627869"><ele>663.2</ele><time>2026-04-11T10:51:15.593Z</time></trkpt><trkpt lat="44.5311738" lon="8.0627511"><ele>661.6</ele><time>2026-04-11T10:51:17.592Z</time></trkpt><trkpt lat="44.5312544" lon="8.0627332"><ele>660.0</ele><time>2026-04-11T10:51:20.592Z</time></trkpt><trkpt lat="44.5313233" lon="8.0626789"><ele>660.0</ele><time>2026-04-11T10:51:22.592Z</time></trkpt><trkpt lat="44.531388" lon="8.0626284"><ele>660.0</ele><time>2026-04-11T10:51:24.593Z</time></trkpt><trkpt lat="44.5314411" lon="8.0625666"><ele>660.0</ele><time>2026-04-11T10:51:26.592Z</time></trkpt><trkpt lat="44.531472" lon="8.0624688"><ele>660.0</ele><time>2026-04-11T10:51:28.592Z</time></trkpt><trkpt lat="44.5316067" lon="8.0624025"><ele>660.0</ele><time>2026-04-11T10:51:30.592Z</time></trkpt><trkpt lat="44.5316883" lon="8.0623806"><ele>660.0</ele><time>2026-04-11T10:51:31.592Z</time></trkpt><trkpt lat="44.5318037" lon="8.0623998"><ele>660.0</ele><time>2026-04-11T10:51:33.592Z</time></trkpt><trkpt lat="44.5318974" lon="8.0624424"><ele>660.0</ele><time>2026-04-11T10:51:35.592Z</time></trkpt><trkpt lat="44.5319699" lon="8.0624651"><ele>660.0</ele><time>2026-04-11T10:51:36.592Z</time></trkpt><trkpt lat="44.5320299" lon="8.0623885"><ele>660.0</ele><time>2026-04-11T10:51:38.592Z</time></trkpt><trkpt lat="44.5320894" lon="8.0623354"><ele>660.0</ele><time>2026-04-11T10:51:40.592Z</time></trkpt><trkpt lat="44.5321804" lon="8.0622713"><ele>660.0</ele><time>2026-04-11T10:51:42.592Z</time></trkpt><trkpt lat="44.5322891" lon="8.0621528"><ele>656.2</ele><time>2026-04-11T10:51:44.592Z</time></trkpt><trkpt lat="44.5323644" lon="8.0621064"><ele>652.4</ele><time>2026-04-11T10:51:45.592Z</time></trkpt><trkpt lat="44.532456" lon="8.0620328"><ele>648.5999999999999</ele><time>2026-04-11T10:51:47.592Z</time></trkpt><trkpt lat="44.5325681" lon="8.0620836"><ele>644.8</ele><time>2026-04-11T10:51:49.592Z</time></trkpt><trkpt lat="44.5326402" lon="8.0621337"><ele>641.0</ele><time>2026-04-11T10:51:51.592Z</time></trkpt><trkpt lat="44.5327019" lon="8.0621043"><ele>641.0</ele><time>2026-04-11T10:51:56.599Z</time></trkpt><trkpt lat="44.5327568" lon="8.0620435"><ele>641.0</ele><time>2026-04-11T10:52:00.599Z</time></trkpt><trkpt lat="44.5327842" lon="8.0619546"><ele>641.0</ele><time>2026-04-11T10:52:04.598Z</time></trkpt><trkpt lat="44.5328174" lon="8.0618537"><ele>641.0</ele><time>2026-04-11T10:52:07.598Z</time></trkpt><trkpt lat="44.5328704" lon="8.0618046"><ele>641.0</ele><time>2026-04-11T10:52:09.598Z</time></trkpt><trkpt lat="44.5329793" lon="8.061771"><ele>641.0</ele><time>2026-04-11T10:52:12.598Z</time></trkpt><trkpt lat="44.5330836" lon="8.0617627"><ele>642.6666666666666</ele><time>2026-04-11T10:52:14.598Z</time></trkpt><trkpt lat="44.5331663" lon="8.0617485"><ele>644.3333333333333</ele><time>2026-04-11T10:52:16.598Z</time></trkpt><trkpt lat="44.5332415" lon="8.0617789"><ele>646.0</ele><time>2026-04-11T10:52:19.598Z</time></trkpt><trkpt lat="44.5333029" lon="8.0617488"><ele>647.6666666666666</ele><time>2026-04-11T10:52:25.598Z</time></trkpt><trkpt lat="44.533367" lon="8.0616674"><ele>649.3333333333334</ele><time>2026-04-11T10:52:30.598Z</time></trkpt><trkpt lat="44.5334358" lon="8.0616871"><ele>651.0</ele><time>2026-04-11T10:52:33.598Z</time></trkpt><trkpt lat="44.5335727" lon="8.0617265"><ele>651.0</ele><time>2026-04-11T10:52:40.599Z</time></trkpt><trkpt lat="44.5336329" lon="8.0616857"><ele>651.0</ele><time>2026-04-11T10:52:44.598Z</time></trkpt><trkpt lat="44.5336684" lon="8.0615913"><ele>651.0</ele><time>2026-04-11T10:52:47.598Z</time></trkpt><trkpt lat="44.5337377" lon="8.0615389"><ele>651.0</ele><time>2026-04-11T10:52:49.598Z</time></trkpt><trkpt lat="44.5338208" lon="8.0615201"><ele>651.0</ele><time>2026-04-11T10:52:51.598Z</time></trkpt><trkpt lat="44.5338877" lon="8.0614638"><ele>651.0</ele><time>2026-04-11T10:52:54.598Z</time></trkpt><trkpt lat="44.533962" lon="8.0613999"><ele>649.6666666666666</ele><time>2026-04-11T10:52:57.598Z</time></trkpt><trkpt lat="44.5340402" lon="8.0613668"><ele>648.3333333333334</ele><time>2026-04-11T10:53:00.598Z</time></trkpt><trkpt lat="44.5341085" lon="8.0613761"><ele>647.0</ele><time>2026-04-11T10:53:03.598Z</time></trkpt><trkpt lat="44.5341722" lon="8.0612898"><ele>645.6666666666667</ele><time>2026-04-11T10:53:08.598Z</time></trkpt><trkpt lat="44.5342302" lon="8.0612402"><ele>644.3333333333334</ele><time>2026-04-11T10:53:12.598Z</time></trkpt><trkpt lat="44.5343021" lon="8.0612581"><ele>643.0</ele><time>2026-04-11T10:53:15.598Z</time></trkpt><trkpt lat="44.5343817" lon="8.0613002"><ele>643.0</ele><time>2026-04-11T10:53:28.598Z</time></trkpt><trkpt lat="44.5344463" lon="8.0612615"><ele>643.0</ele><time>2026-04-11T10:53:37.598Z</time></trkpt><trkpt lat="44.5345023" lon="8.0612122"><ele>643.0</ele><time>2026-04-11T10:53:58.598Z</time></trkpt><trkpt lat="44.5345735" lon="8.0612214"><ele>643.0</ele><time>2026-04-11T10:54:03.599Z</time></trkpt><trkpt lat="44.5346435" lon="8.0612393"><ele>643.0</ele><time>2026-04-11T10:54:08.599Z</time></trkpt><trkpt lat="44.5346986" lon="8.0611904"><ele>643.0</ele><time>2026-04-11T10:54:09.6Z</time></trkpt><trkpt lat="44.5347926" lon="8.0611787"><ele>643.0</ele><time>2026-04-11T10:54:12.6Z</time></trkpt><trkpt lat="44.5348871" lon="8.0611396"><ele>642.6666666666667</ele><time>2026-04-11T10:54:15.599Z</time></trkpt><trkpt lat="44.5349705" lon="8.061143"><ele>642.3333333333334</ele><time>2026-04-11T10:54:17.599Z</time></trkpt><trkpt lat="44.5350472" lon="8.06108"><ele>642.0</ele><time>2026-04-11T10:54:19.599Z</time></trkpt><trkpt lat="44.5350722" lon="8.0609789"><ele>641.6666666666666</ele><time>2026-04-11T10:54:21.599Z</time></trkpt><trkpt lat="44.5351114" lon="8.0608798"><ele>641.3333333333333</ele><time>2026-04-11T10:54:23.599Z</time></trkpt><trkpt lat="44.5351485" lon="8.0607326"><ele>641.0</ele><time>2026-04-11T10:54:25.599Z</time></trkpt><trkpt lat="44.5352108" lon="8.0606258"><ele>641.0</ele><time>2026-04-11T10:54:27.599Z</time></trkpt><trkpt lat="44.5352922" lon="8.0605764"><ele>641.0</ele><time>2026-04-11T10:54:29.599Z</time></trkpt><trkpt lat="44.5353717" lon="8.0605164"><ele>641.0</ele><time>2026-04-11T10:54:31.599Z</time></trkpt><trkpt lat="44.5354332" lon="8.0604912"><ele>641.0</ele><time>2026-04-11T10:54:33.599Z</time></trkpt><trkpt lat="44.5355027" lon="8.0604592"><ele>641.0</ele><time>2026-04-11T10:54:37.599Z</time></trkpt><trkpt lat="44.535608" lon="8.0604223"><ele>641.0</ele><time>2026-04-11T10:54:50.599Z</time></trkpt><trkpt lat="44.5356794" lon="8.0603878"><ele>642.1428571428571</ele><time>2026-04-11T10:54:52.599Z</time></trkpt><trkpt lat="44.5357488" lon="8.060385"><ele>643.2857142857142</ele><time>2026-04-11T10:54:54.599Z</time></trkpt><trkpt lat="44.5358121" lon="8.0603939"><ele>644.4285714285713</ele><time>2026-04-11T10:54:57.6Z</time></trkpt><trkpt lat="44.5358886" lon="8.060389"><ele>645.5714285714286</ele><time>2026-04-11T10:55:00.599Z</time></trkpt><trkpt lat="44.5359525" lon="8.0603416"><ele>646.7142857142857</ele><time>2026-04-11T10:55:03.599Z</time></trkpt><trkpt lat="44.5360145" lon="8.060317"><ele>647.8571428571428</ele><time>2026-04-11T10:55:07.599Z</time></trkpt><trkpt lat="44.5359374" lon="8.0603232"><ele>649.0</ele><time>2026-04-11T10:55:13.599Z</time></trkpt><trkpt lat="44.535862" lon="8.0602458"><ele>649.0</ele><time>2026-04-11T10:55:17.599Z</time></trkpt><trkpt lat="44.5358413" lon="8.0601235"><ele>649.0</ele><time>2026-04-11T10:55:20.599Z</time></trkpt><trkpt lat="44.5358545" lon="8.0600274"><ele>649.0</ele><time>2026-04-11T10:55:22.599Z</time></trkpt><trkpt lat="44.5359156" lon="8.0599549"><ele>649.0</ele><time>2026-04-11T10:55:24.599Z</time></trkpt><trkpt lat="44.5359808" lon="8.0598936"><ele>649.0</ele><time>2026-04-11T10:55:26.599Z</time></trkpt><trkpt lat="44.5360475" lon="8.0598103"><ele>649.0</ele><time>2026-04-11T10:55:29.599Z</time></trkpt><trkpt lat="44.5361146" lon="8.0597567"><ele>651.0</ele><time>2026-04-11T10:55:31.599Z</time></trkpt><trkpt lat="44.5361605" lon="8.0596667"><ele>653.0</ele><time>2026-04-11T10:55:33.599Z</time></trkpt><trkpt lat="44.5362408" lon="8.0595607"><ele>655.0</ele><time>2026-04-11T10:55:35.599Z</time></trkpt><trkpt lat="44.5362677" lon="8.0594281"><ele>657.0</ele><time>2026-04-11T10:55:37.599Z</time></trkpt><trkpt lat="44.5363124" lon="8.059324"><ele>659.0</ele><time>2026-04-11T10:55:58.599Z</time></trkpt><trkpt lat="44.5362383" lon="8.0593356"><ele>661.0</ele><time>2026-04-11T10:56:05.599Z</time></trkpt><trkpt lat="44.5361078" lon="8.0592274"><ele>661.0</ele><time>2026-04-11T10:56:26.599Z</time></trkpt><trkpt lat="44.5360284" lon="8.0592136"><ele>661.0</ele><time>2026-04-11T10:56:32.599Z</time></trkpt><trkpt lat="44.5359589" lon="8.0592112"><ele>661.0</ele><time>2026-04-11T10:56:38.599Z</time></trkpt><trkpt lat="44.5359059" lon="8.0591509"><ele>661.0</ele><time>2026-04-11T10:56:43.599Z</time></trkpt><trkpt lat="44.5358474" lon="8.0591105"><ele>661.0</ele><time>2026-04-11T10:56:51.599Z</time></trkpt><trkpt lat="44.5357798" lon="8.059106"><ele>661.0</ele><time>2026-04-11T10:56:59.599Z</time></trkpt><trkpt lat="44.5357299" lon="8.0590406"><ele>661.0</ele><time>2026-04-11T10:57:05.701Z</time></trkpt><trkpt lat="44.5356779" lon="8.0589722"><ele>661.1999999999999</ele><time>2026-04-11T10:57:14.674Z</time></trkpt><trkpt lat="44.5356217" lon="8.058918"><ele>661.4</ele><time>2026-04-11T10:57:20.657Z</time></trkpt><trkpt lat="44.5355471" lon="8.058936"><ele>661.6</ele><time>2026-04-11T10:57:32.622Z</time></trkpt><trkpt lat="44.5353777" lon="8.0590257"><ele>661.8</ele><time>2026-04-11T10:57:36.6Z</time></trkpt><trkpt lat="44.5353027" lon="8.0590806"><ele>662.0</ele><time>2026-04-11T10:57:37.599Z</time></trkpt><trkpt lat="44.5352034" lon="8.0591567"><ele>662.0</ele><time>2026-04-11T10:57:38.599Z</time></trkpt><trkpt lat="44.5350899" lon="8.0592355"><ele>662.0</ele><time>2026-04-11T10:57:40.599Z</time></trkpt><trkpt lat="44.5350322" lon="8.0592738"><ele>662.0</ele><time>2026-04-11T10:57:41.599Z</time></trkpt><trkpt lat="44.5349739" lon="8.0593093"><ele>662.0</ele><time>2026-04-11T10:57:42.599Z</time></trkpt><trkpt lat="44.5348708" lon="8.0593601"><ele>662.0</ele><time>2026-04-11T10:57:44.599Z</time></trkpt><trkpt lat="44.5348009" lon="8.0593735"><ele>662.0</ele><time>2026-04-11T10:57:46.599Z</time></trkpt><trkpt lat="44.5347217" lon="8.0593775"><ele>662.0</ele><time>2026-04-11T10:57:49.599Z</time></trkpt><trkpt lat="44.5346462" lon="8.0594065"><ele>662.0</ele><time>2026-04-11T10:57:51.599Z</time></trkpt><trkpt lat="44.5345232" lon="8.0594646"><ele>662.0</ele><time>2026-04-11T10:57:53.599Z</time></trkpt><trkpt lat="44.5344491" lon="8.059499"><ele>662.0</ele><time>2026-04-11T10:57:54.599Z</time></trkpt><trkpt lat="44.534382" lon="8.0595218"><ele>662.0</ele><time>2026-04-11T10:57:55.599Z</time></trkpt><trkpt lat="44.5342773" lon="8.0595325"><ele>663.0</ele><time>2026-04-11T10:57:57.599Z</time></trkpt><trkpt lat="44.5342151" lon="8.0595184"><ele>664.0</ele><time>2026-04-11T10:58:00.599Z</time></trkpt><trkpt lat="44.5341574" lon="8.0594665"><ele>665.0</ele><time>2026-04-11T10:58:04.599Z</time></trkpt><trkpt lat="44.5340755" lon="8.0594533"><ele>666.0</ele><time>2026-04-11T10:58:08.599Z</time></trkpt><trkpt lat="44.5340126" lon="8.0594089"><ele>667.0</ele><time>2026-04-11T10:58:12.6Z</time></trkpt><trkpt lat="44.533944" lon="8.0593821"><ele>668.0</ele><time>2026-04-11T10:58:15.599Z</time></trkpt><trkpt lat="44.5338624" lon="8.0594132"><ele>669.0</ele><time>2026-04-11T10:58:18.599Z</time></trkpt><trkpt lat="44.533793" lon="8.0594752"><ele>669.1428571428571</ele><time>2026-04-11T10:58:22.599Z</time></trkpt><trkpt lat="44.5337217" lon="8.0594822"><ele>669.2857142857142</ele><time>2026-04-11T10:58:25.599Z</time></trkpt><trkpt lat="44.5336561" lon="8.0594624"><ele>669.4285714285713</ele><time>2026-04-11T10:58:27.599Z</time></trkpt><trkpt lat="44.5335937" lon="8.0594384"><ele>669.5714285714286</ele><time>2026-04-11T10:58:29.599Z</time></trkpt><trkpt lat="44.5335267" lon="8.0594174"><ele>669.7142857142857</ele><time>2026-04-11T10:58:32.599Z</time></trkpt><trkpt lat="44.5334522" lon="8.0594791"><ele>669.8571428571428</ele><time>2026-04-11T10:58:35.599Z</time></trkpt><trkpt lat="44.533366" lon="8.0594607"><ele>670.0</ele><time>2026-04-11T10:58:38.606Z</time></trkpt><trkpt lat="44.5333211" lon="8.0593802"><ele>669.9999999999999</ele><time>2026-04-11T10:58:41.606Z</time></trkpt><trkpt lat="44.5332589" lon="8.0593539"><ele>670.0</ele><time>2026-04-11T11:00:06.606Z</time></trkpt><trkpt lat="44.533176" lon="8.0593977"><ele>670.0</ele><time>2026-04-11T11:00:10.606Z</time></trkpt><trkpt lat="44.5331015" lon="8.0594286"><ele>670.0</ele><time>2026-04-11T11:00:14.606Z</time></trkpt><trkpt lat="44.5330383" lon="8.0593967"><ele>670.0</ele><time>2026-04-11T11:00:18.606Z</time></trkpt><trkpt lat="44.5329828" lon="8.0593529"><ele>669.9999999999999</ele><time>2026-04-11T11:00:21.606Z</time></trkpt><trkpt lat="44.5329029" lon="8.0593529"><ele>670.0</ele><time>2026-04-11T11:00:24.606Z</time></trkpt><trkpt lat="44.5328349" lon="8.0593737"><ele>669.4285714285713</ele><time>2026-04-11T11:00:26.607Z</time></trkpt><trkpt lat="44.532777" lon="8.0593279"><ele>668.8571428571429</ele><time>2026-04-11T11:00:30.606Z</time></trkpt><trkpt lat="44.532705" lon="8.0593315"><ele>668.2857142857142</ele><time>2026-04-11T11:00:34.606Z</time></trkpt><trkpt lat="44.5326364" lon="8.0593108"><ele>667.7142857142857</ele><time>2026-04-11T11:00:38.606Z</time></trkpt><trkpt lat="44.5325576" lon="8.0592841"><ele>667.1428571428571</ele><time>2026-04-11T11:00:42.606Z</time></trkpt><trkpt lat="44.5324955" lon="8.0592592"><ele>666.5714285714286</ele><time>2026-04-11T11:00:45.606Z</time></trkpt><trkpt lat="44.5324271" lon="8.0592269"><ele>666.0</ele><time>2026-04-11T11:00:49.606Z</time></trkpt><trkpt lat="44.5323561" lon="8.059208"><ele>666.0</ele><time>2026-04-11T11:00:53.606Z</time></trkpt><trkpt lat="44.5322783" lon="8.0592437"><ele>666.0</ele><time>2026-04-11T11:00:56.606Z</time></trkpt><trkpt lat="44.5322147" lon="8.0592264"><ele>666.0</ele><time>2026-04-11T11:00:59.606Z</time></trkpt><trkpt lat="44.5321417" lon="8.0591829"><ele>666.0</ele><time>2026-04-11T11:01:02.606Z</time></trkpt><trkpt lat="44.5320708" lon="8.0591748"><ele>666.0</ele><time>2026-04-11T11:01:04.606Z</time></trkpt><trkpt lat="44.5320069" lon="8.059149"><ele>666.0</ele><time>2026-04-11T11:01:06.606Z</time></trkpt><trkpt lat="44.5319412" lon="8.0590548"><ele>664.3333333333334</ele><time>2026-04-11T11:01:09.606Z</time></trkpt><trkpt lat="44.5318876" lon="8.0589407"><ele>662.6666666666666</ele><time>2026-04-11T11:01:11.606Z</time></trkpt><trkpt lat="44.5318481" lon="8.0588714"><ele>661.0</ele><time>2026-04-11T11:01:15.606Z</time></trkpt><trkpt lat="44.5317734" lon="8.0588187"><ele>659.3333333333333</ele><time>2026-04-11T11:01:17.606Z</time></trkpt><trkpt lat="44.5316773" lon="8.0588018"><ele>657.6666666666666</ele><time>2026-04-11T11:01:19.606Z</time></trkpt><trkpt lat="44.5316496" lon="8.058722"><ele>656.0</ele><time>2026-04-11T11:01:27.606Z</time></trkpt><trkpt lat="44.531607" lon="8.0586551"><ele>656.0</ele><time>2026-04-11T11:01:30.606Z</time></trkpt><trkpt lat="44.5316185" lon="8.0585556"><ele>656.0</ele><time>2026-04-11T11:01:32.606Z</time></trkpt><trkpt lat="44.5316307" lon="8.0584514"><ele>656.0</ele><time>2026-04-11T11:01:34.606Z</time></trkpt><trkpt lat="44.5316318" lon="8.0583394"><ele>656.0</ele><time>2026-04-11T11:01:36.606Z</time></trkpt><trkpt lat="44.5316035" lon="8.0581845"><ele>656.0</ele><time>2026-04-11T11:01:38.606Z</time></trkpt><trkpt lat="44.5316012" lon="8.058031"><ele>655.3333333333333</ele><time>2026-04-11T11:01:40.606Z</time></trkpt><trkpt lat="44.5315982" lon="8.0579411"><ele>654.6666666666666</ele><time>2026-04-11T11:01:41.606Z</time></trkpt><trkpt lat="44.5316284" lon="8.0578513"><ele>654.0</ele><time>2026-04-11T11:01:42.606Z</time></trkpt><trkpt lat="44.5316631" lon="8.0577698"><ele>653.3333333333334</ele><time>2026-04-11T11:01:43.606Z</time></trkpt><trkpt lat="44.5316947" lon="8.0576835"><ele>652.6666666666667</ele><time>2026-04-11T11:01:44.606Z</time></trkpt><trkpt lat="44.5317057" lon="8.0575547"><ele>652.0</ele><time>2026-04-11T11:01:46.606Z</time></trkpt><trkpt lat="44.5316776" lon="8.0574341"><ele>650.2</ele><time>2026-04-11T11:01:48.606Z</time></trkpt><trkpt lat="44.5316333" lon="8.0573175"><ele>648.4000000000001</ele><time>2026-04-11T11:01:50.606Z</time></trkpt><trkpt lat="44.531633" lon="8.0571977"><ele>646.5999999999999</ele><time>2026-04-11T11:01:52.606Z</time></trkpt><trkpt lat="44.5316601" lon="8.0570646"><ele>644.8</ele><time>2026-04-11T11:01:54.606Z</time></trkpt><trkpt lat="44.5316844" lon="8.0569156"><ele>643.0</ele><time>2026-04-11T11:01:56.606Z</time></trkpt><trkpt lat="44.5317281" lon="8.0567671"><ele>643.0</ele><time>2026-04-11T11:01:58.606Z</time></trkpt><trkpt lat="44.5318031" lon="8.0566323"><ele>643.0</ele><time>2026-04-11T11:02:00.606Z</time></trkpt><trkpt lat="44.531831" lon="8.0565204"><ele>643.0</ele><time>2026-04-11T11:02:02.606Z</time></trkpt><trkpt lat="44.5318485" lon="8.0563599"><ele>643.0</ele><time>2026-04-11T11:02:04.606Z</time></trkpt><trkpt lat="44.5319308" lon="8.056262"><ele>643.0</ele><time>2026-04-11T11:02:06.606Z</time></trkpt><trkpt lat="44.531991" lon="8.0561972"><ele>645.5</ele><time>2026-04-11T11:02:08.606Z</time></trkpt><trkpt lat="44.5320726" lon="8.0561509"><ele>648.0</ele><time>2026-04-11T11:02:11.606Z</time></trkpt><trkpt lat="44.5320993" lon="8.0560468"><ele>650.5</ele><time>2026-04-11T11:02:14.606Z</time></trkpt><trkpt lat="44.5321486" lon="8.0559815"><ele>653.0</ele><time>2026-04-11T11:02:18.606Z</time></trkpt><trkpt lat="44.5322001" lon="8.0559227"><ele>655.5</ele><time>2026-04-11T11:02:21.606Z</time></trkpt><trkpt lat="44.5322694" lon="8.0558584"><ele>658.0</ele><time>2026-04-11T11:02:26.607Z</time></trkpt><trkpt lat="44.5323241" lon="8.0557443"><ele>658.0</ele><time>2026-04-11T11:02:28.606Z</time></trkpt><trkpt lat="44.5323774" lon="8.0556238"><ele>658.0</ele><time>2026-04-11T11:02:30.606Z</time></trkpt><trkpt lat="44.5324461" lon="8.0555784"><ele>658.0</ele><time>2026-04-11T11:02:33.606Z</time></trkpt><trkpt lat="44.5324686" lon="8.0554508"><ele>658.0</ele><time>2026-04-11T11:02:35.606Z</time></trkpt><trkpt lat="44.5324802" lon="8.055291"><ele>658.0</ele><time>2026-04-11T11:02:37.606Z</time></trkpt><trkpt lat="44.5324771" lon="8.0551912"><ele>658.0</ele><time>2026-04-11T11:02:38.606Z</time></trkpt><trkpt lat="44.5324651" lon="8.0551005"><ele>658.0</ele><time>2026-04-11T11:02:39.606Z</time></trkpt><trkpt lat="44.5324588" lon="8.054954"><ele>658.0</ele><time>2026-04-11T11:02:41.606Z</time></trkpt><trkpt lat="44.5324532" lon="8.054855"><ele>658.0</ele><time>2026-04-11T11:02:43.607Z</time></trkpt><trkpt lat="44.5324503" lon="8.0547411"><ele>658.0</ele><time>2026-04-11T11:02:46.607Z</time></trkpt><trkpt lat="44.5325034" lon="8.0546345"><ele>658.0</ele><time>2026-04-11T11:02:49.607Z</time></trkpt><trkpt lat="44.5324824" lon="8.0545422"><ele>656.5999999999999</ele><time>2026-04-11T11:02:52.607Z</time></trkpt><trkpt lat="44.5325156" lon="8.0544417"><ele>655.1999999999999</ele><time>2026-04-11T11:02:57.607Z</time></trkpt><trkpt lat="44.5325687" lon="8.054324"><ele>653.8</ele><time>2026-04-11T11:02:59.607Z</time></trkpt><trkpt lat="44.5326222" lon="8.0541777"><ele>652.4</ele><time>2026-04-11T11:03:01.607Z</time></trkpt><trkpt lat="44.5326734" lon="8.0540447"><ele>651.0</ele><time>2026-04-11T11:03:03.607Z</time></trkpt><trkpt lat="44.5327142" lon="8.053916"><ele>649.4285714285714</ele><time>2026-04-11T11:03:05.607Z</time></trkpt><trkpt lat="44.5327176" lon="8.0538224"><ele>647.8571428571429</ele><time>2026-04-11T11:03:07.607Z</time></trkpt><trkpt lat="44.5327444" lon="8.053735"><ele>646.2857142857142</ele><time>2026-04-11T11:03:10.607Z</time></trkpt><trkpt lat="44.5328015" lon="8.0536404"><ele>644.7142857142858</ele><time>2026-04-11T11:03:13.607Z</time></trkpt><trkpt lat="44.5328243" lon="8.0535489"><ele>643.1428571428571</ele><time>2026-04-11T11:03:16.607Z</time></trkpt><trkpt lat="44.5328041" lon="8.0534525"><ele>641.5714285714286</ele><time>2026-04-11T11:03:19.607Z</time></trkpt><trkpt lat="44.5327626" lon="8.0533656"><ele>640.0</ele><time>2026-04-11T11:03:22.607Z</time></trkpt><trkpt lat="44.5327147" lon="8.053271"><ele>639.8</ele><time>2026-04-11T11:03:26.607Z</time></trkpt><trkpt lat="44.5326273" lon="8.0532218"><ele>639.6</ele><time>2026-04-11T11:03:29.607Z</time></trkpt><trkpt lat="44.5325483" lon="8.053184"><ele>639.4</ele><time>2026-04-11T11:03:31.607Z</time></trkpt><trkpt lat="44.532452" lon="8.0531368"><ele>639.2</ele><time>2026-04-11T11:03:33.607Z</time></trkpt><trkpt lat="44.5323737" lon="8.0531085"><ele>639.0</ele><time>2026-04-11T11:03:35.607Z</time></trkpt><trkpt lat="44.5322757" lon="8.0530509"><ele>639.0</ele><time>2026-04-11T11:03:37.607Z</time></trkpt><trkpt lat="44.5322173" lon="8.0530079"><ele>639.0</ele><time>2026-04-11T11:03:38.607Z</time></trkpt><trkpt lat="44.5320995" lon="8.0529802"><ele>639.0</ele><time>2026-04-11T11:03:40.607Z</time></trkpt><trkpt lat="44.532036" lon="8.052984"><ele>639.0</ele><time>2026-04-11T11:03:45.607Z</time></trkpt><trkpt lat="44.5319764" lon="8.0530303"><ele>639.0</ele><time>2026-04-11T11:03:52.607Z</time></trkpt><trkpt lat="44.5319114" lon="8.0530535"><ele>639.0</ele><time>2026-04-11T11:04:00.607Z</time></trkpt><trkpt lat="44.5318514" lon="8.0530976"><ele>640.2</ele><time>2026-04-11T11:04:05.644Z</time></trkpt><trkpt lat="44.5318277" lon="8.0531874"><ele>641.4</ele><time>2026-04-11T11:04:11.627Z</time></trkpt><trkpt lat="44.5317685" lon="8.0532778"><ele>642.6</ele><time>2026-04-11T11:04:31.331Z</time></trkpt><trkpt lat="44.5317008" lon="8.0533176"><ele>643.8</ele><time>2026-04-11T11:04:34.72Z</time></trkpt><trkpt lat="44.5315606" lon="8.0534142"><ele>645.0</ele><time>2026-04-11T11:04:37.525Z</time></trkpt><trkpt lat="44.5315009" lon="8.0534479"><ele>645.0</ele><time>2026-04-11T11:04:39.648Z</time></trkpt><trkpt lat="44.5314333" lon="8.053489"><ele>645.0</ele><time>2026-04-11T11:04:43.547Z</time></trkpt><trkpt lat="44.5313729" lon="8.0535235"><ele>645.0</ele><time>2026-04-11T11:04:46.686Z</time></trkpt><trkpt lat="44.5313042" lon="8.0535074"><ele>645.0</ele><time>2026-04-11T11:04:57.607Z</time></trkpt><trkpt lat="44.5312422" lon="8.0534842"><ele>645.0</ele><time>2026-04-11T11:05:05.607Z</time></trkpt><trkpt lat="44.5312203" lon="8.0533984"><ele>645.0</ele><time>2026-04-11T11:05:11.607Z</time></trkpt><trkpt lat="44.5312721" lon="8.0533375"><ele>645.0</ele><time>2026-04-11T11:05:23.66Z</time></trkpt><trkpt lat="44.5313176" lon="8.0532764"><ele>647.4285714285714</ele><time>2026-04-11T11:05:27.614Z</time></trkpt><trkpt lat="44.5313707" lon="8.0532121"><ele>649.8571428571428</ele><time>2026-04-11T11:05:33.711Z</time></trkpt><trkpt lat="44.5313954" lon="8.0531209"><ele>652.2857142857142</ele><time>2026-04-11T11:05:41.728Z</time></trkpt><trkpt lat="44.5314213" lon="8.0530315"><ele>654.7142857142858</ele><time>2026-04-11T11:05:48.729Z</time></trkpt><trkpt lat="44.5314581" lon="8.0529402"><ele>657.1428571428571</ele><time>2026-04-11T11:05:54.651Z</time></trkpt><trkpt lat="44.5315004" lon="8.0528643"><ele>659.5714285714286</ele><time>2026-04-11T11:05:59.749Z</time></trkpt><trkpt lat="44.5315243" lon="8.0527782"><ele>662.0</ele><time>2026-04-11T11:06:08.651Z</time></trkpt><trkpt lat="44.5315382" lon="8.0526814"><ele>662.0</ele><time>2026-04-11T11:06:17.625Z</time></trkpt><trkpt lat="44.5315348" lon="8.0525782"><ele>662.0</ele><time>2026-04-11T11:06:24.685Z</time></trkpt><trkpt lat="44.531487" lon="8.0525102"><ele>662.0</ele><time>2026-04-11T11:06:29.712Z</time></trkpt><trkpt lat="44.5314605" lon="8.0525993"><ele>662.0</ele><time>2026-04-11T11:06:37.728Z</time></trkpt><trkpt lat="44.5313992" lon="8.0526632"><ele>662.0</ele><time>2026-04-11T11:06:49.693Z</time></trkpt><trkpt lat="44.5313313" lon="8.0526796"><ele>662.0</ele><time>2026-04-11T11:06:53.642Z</time></trkpt><trkpt lat="44.5312926" lon="8.0527619"><ele>662.0</ele><time>2026-04-11T11:06:57.582Z</time></trkpt><trkpt lat="44.5312689" lon="8.052847"><ele>662.0</ele><time>2026-04-11T11:06:59.625Z</time></trkpt><trkpt lat="44.5312266" lon="8.0529151"><ele>662.0</ele><time>2026-04-11T11:07:01.659Z</time></trkpt><trkpt lat="44.5311729" lon="8.0529705"><ele>662.0</ele><time>2026-04-11T11:07:03.694Z</time></trkpt><trkpt lat="44.5310962" lon="8.0530108"><ele>662.0</ele><time>2026-04-11T11:07:06.685Z</time></trkpt><trkpt lat="44.5310342" lon="8.0530474"><ele>662.0</ele><time>2026-04-11T11:07:09.614Z</time></trkpt><trkpt lat="44.5309564" lon="8.0530534"><ele>662.0</ele><time>2026-04-11T11:07:12.614Z</time></trkpt><trkpt lat="44.5308877" lon="8.0530621"><ele>662.0</ele><time>2026-04-11T11:07:17.614Z</time></trkpt><trkpt lat="44.5308465" lon="8.053141"><ele>663.5714285714286</ele><time>2026-04-11T11:07:23.614Z</time></trkpt><trkpt lat="44.5307846" lon="8.0531851"><ele>665.1428571428571</ele><time>2026-04-11T11:07:26.615Z</time></trkpt><trkpt lat="44.5307342" lon="8.0532422"><ele>666.7142857142858</ele><time>2026-04-11T11:07:29.614Z</time></trkpt><trkpt lat="44.5306736" lon="8.0532824"><ele>668.2857142857142</ele><time>2026-04-11T11:07:33.614Z</time></trkpt><trkpt lat="44.5306224" lon="8.0533505"><ele>669.8571428571428</ele><time>2026-04-11T11:07:38.614Z</time></trkpt><trkpt lat="44.5305638" lon="8.0534338"><ele>671.4285714285714</ele><time>2026-04-11T11:07:42.614Z</time></trkpt><trkpt lat="44.5305017" lon="8.0535333"><ele>673.0</ele><time>2026-04-11T11:07:45.614Z</time></trkpt><trkpt lat="44.5304318" lon="8.0535777"><ele>677.1666666666667</ele><time>2026-04-11T11:07:53.614Z</time></trkpt><trkpt lat="44.5303805" lon="8.0536435"><ele>681.3333333333334</ele><time>2026-04-11T11:07:56.614Z</time></trkpt><trkpt lat="44.5303194" lon="8.0536963"><ele>685.5</ele><time>2026-04-11T11:08:00.614Z</time></trkpt><trkpt lat="44.5302423" lon="8.0537466"><ele>689.6666666666666</ele><time>2026-04-11T11:08:04.614Z</time></trkpt><trkpt lat="44.5301819" lon="8.0538376"><ele>693.8333333333333</ele><time>2026-04-11T11:08:07.614Z</time></trkpt><trkpt lat="44.5301131" lon="8.0538831"><ele>698.0</ele><time>2026-04-11T11:08:10.614Z</time></trkpt><trkpt lat="44.5300477" lon="8.053936"><ele>697.9999999999999</ele><time>2026-04-11T11:08:16.614Z</time></trkpt><trkpt lat="44.5299981" lon="8.0540027"><ele>698.0</ele><time>2026-04-11T11:08:21.614Z</time></trkpt><trkpt lat="44.5299777" lon="8.0541068"><ele>698.0</ele><time>2026-04-11T11:08:26.614Z</time></trkpt><trkpt lat="44.5299277" lon="8.0541903"><ele>698.0</ele><time>2026-04-11T11:08:31.614Z</time></trkpt><trkpt lat="44.5299318" lon="8.0542861"><ele>698.0</ele><time>2026-04-11T11:08:35.614Z</time></trkpt><trkpt lat="44.5298867" lon="8.054381"><ele>697.9999999999999</ele><time>2026-04-11T11:08:40.614Z</time></trkpt><trkpt lat="44.5298492" lon="8.0544562"><ele>698.0</ele><time>2026-04-11T11:08:44.615Z</time></trkpt><trkpt lat="44.5298169" lon="8.0545336"><ele>699.2857142857142</ele><time>2026-04-11T11:08:48.614Z</time></trkpt><trkpt lat="44.5297746" lon="8.0546106"><ele>700.5714285714286</ele><time>2026-04-11T11:08:53.614Z</time></trkpt><trkpt lat="44.5297497" lon="8.0547118"><ele>701.8571428571429</ele><time>2026-04-11T11:08:57.614Z</time></trkpt><trkpt lat="44.5296859" lon="8.0547781"><ele>703.1428571428571</ele><time>2026-04-11T11:09:02.614Z</time></trkpt><trkpt lat="44.5296449" lon="8.0548475"><ele>704.4285714285714</ele><time>2026-04-11T11:09:06.614Z</time></trkpt><trkpt lat="44.529585" lon="8.0549013"><ele>705.7142857142857</ele><time>2026-04-11T11:09:10.614Z</time></trkpt><trkpt lat="44.5295318" lon="8.0549625"><ele>707.0</ele><time>2026-04-11T11:09:14.614Z</time></trkpt><trkpt lat="44.5294698" lon="8.0550012"><ele>707.0</ele><time>2026-04-11T11:09:18.614Z</time></trkpt><trkpt lat="44.5294101" lon="8.0550699"><ele>707.0</ele><time>2026-04-11T11:09:24.614Z</time></trkpt><trkpt lat="44.529338" lon="8.0551398"><ele>707.0</ele><time>2026-04-11T11:09:27.614Z</time></trkpt><trkpt lat="44.5292606" lon="8.0552266"><ele>707.0</ele><time>2026-04-11T11:09:29.614Z</time></trkpt><trkpt lat="44.5292011" lon="8.0552709"><ele>707.0</ele><time>2026-04-11T11:09:31.614Z</time></trkpt><trkpt lat="44.5291234" lon="8.0552861"><ele>707.0</ele><time>2026-04-11T11:09:38.614Z</time></trkpt><trkpt lat="44.5290597" lon="8.0553032"><ele>707.0</ele><time>2026-04-11T11:09:42.614Z</time></trkpt><trkpt lat="44.5289898" lon="8.0553219"><ele>707.0</ele><time>2026-04-11T11:09:45.615Z</time></trkpt><trkpt lat="44.5289281" lon="8.0553661"><ele>707.0</ele><time>2026-04-11T11:09:48.614Z</time></trkpt><trkpt lat="44.5288657" lon="8.0553805"><ele>707.0</ele><time>2026-04-11T11:09:50.614Z</time></trkpt><trkpt lat="44.5287883" lon="8.0553965"><ele>707.0</ele><time>2026-04-11T11:09:54.614Z</time></trkpt><trkpt lat="44.528738" lon="8.0554964"><ele>707.0</ele><time>2026-04-11T11:09:59.615Z</time></trkpt><trkpt lat="44.528677" lon="8.0555213"><ele>707.0</ele><time>2026-04-11T11:10:03.615Z</time></trkpt><trkpt lat="44.5286032" lon="8.055545"><ele>708.4285714285714</ele><time>2026-04-11T11:10:08.615Z</time></trkpt><trkpt lat="44.5285624" lon="8.0556364"><ele>709.8571428571429</ele><time>2026-04-11T11:10:14.615Z</time></trkpt><trkpt lat="44.5285218" lon="8.0557158"><ele>711.2857142857142</ele><time>2026-04-11T11:10:21.615Z</time></trkpt><trkpt lat="44.528475" lon="8.0557977"><ele>712.7142857142858</ele><time>2026-04-11T11:10:28.615Z</time></trkpt><trkpt lat="44.5284478" lon="8.0558839"><ele>714.1428571428571</ele><time>2026-04-11T11:10:34.615Z</time></trkpt><trkpt lat="44.5284488" lon="8.0559872"><ele>715.5714285714286</ele><time>2026-04-11T11:10:39.615Z</time></trkpt><trkpt lat="44.5284034" lon="8.0560543"><ele>717.0</ele><time>2026-04-11T11:10:46.615Z</time></trkpt><trkpt lat="44.5283627" lon="8.0561345"><ele>717.0</ele><time>2026-04-11T11:11:50.719Z</time></trkpt><trkpt lat="44.5282994" lon="8.0561883"><ele>717.0</ele><time>2026-04-11T11:11:55.625Z</time></trkpt><trkpt lat="44.5282352" lon="8.056217"><ele>717.0</ele><time>2026-04-11T11:12:01.728Z</time></trkpt><trkpt lat="44.528167" lon="8.0562037"><ele>717.0</ele><time>2026-04-11T11:12:08.753Z</time></trkpt><trkpt lat="44.5280985" lon="8.056219"><ele>717.0</ele><time>2026-04-11T11:12:17.642Z</time></trkpt><trkpt lat="44.5280394" lon="8.0562778"><ele>717.0</ele><time>2026-04-11T11:12:26.736Z</time></trkpt><trkpt lat="44.5279857" lon="8.0563294"><ele>717.0</ele><time>2026-04-11T11:12:35.711Z</time></trkpt><trkpt lat="44.5279377" lon="8.0562497"><ele>717.0</ele><time>2026-04-11T11:12:53.664Z</time></trkpt><trkpt lat="44.5279084" lon="8.0561625"><ele>717.0</ele><time>2026-04-11T11:12:57.711Z</time></trkpt><trkpt lat="44.5279452" lon="8.0560908"><ele>717.0</ele><time>2026-04-11T11:13:02.653Z</time></trkpt><trkpt lat="44.5279625" lon="8.0560022"><ele>717.0</ele><time>2026-04-11T11:13:09.731Z</time></trkpt><trkpt lat="44.5279716" lon="8.0559106"><ele>717.0</ele><time>2026-04-11T11:13:15.609Z</time></trkpt><trkpt lat="44.527989" lon="8.0558218"><ele>717.0</ele><time>2026-04-11T11:13:21.65Z</time></trkpt><trkpt lat="44.5279937" lon="8.0557211"><ele>717.0</ele><time>2026-04-11T11:13:28.709Z</time></trkpt><trkpt lat="44.5279869" lon="8.0556222"><ele>718.7142857142857</ele><time>2026-04-11T11:13:35.701Z</time></trkpt><trkpt lat="44.5279231" lon="8.0556425"><ele>720.4285714285713</ele><time>2026-04-11T11:13:48.692Z</time></trkpt><trkpt lat="44.5278892" lon="8.0557288"><ele>722.1428571428571</ele><time>2026-04-11T11:13:55.633Z</time></trkpt><trkpt lat="44.5278713" lon="8.0558158"><ele>723.8571428571429</ele><time>2026-04-11T11:14:03.722Z</time></trkpt><trkpt lat="44.5278129" lon="8.0558584"><ele>725.5714285714286</ele><time>2026-04-11T11:14:13.764Z</time></trkpt><trkpt lat="44.5277708" lon="8.0557785"><ele>727.2857142857143</ele><time>2026-04-11T11:14:19.684Z</time></trkpt><trkpt lat="44.5277787" lon="8.0556773"><ele>729.0</ele><time>2026-04-11T11:14:27.748Z</time></trkpt><trkpt lat="44.5277784" lon="8.0555804"><ele>729.7142857142858</ele><time>2026-04-11T11:14:34.641Z</time></trkpt><trkpt lat="44.5277749" lon="8.05549"><ele>730.4285714285713</ele><time>2026-04-11T11:14:43.647Z</time></trkpt><trkpt lat="44.5277738" lon="8.0553905"><ele>731.1428571428571</ele><time>2026-04-11T11:14:54.744Z</time></trkpt><trkpt lat="44.5278016" lon="8.0553063"><ele>731.8571428571429</ele><time>2026-04-11T11:14:57.622Z</time></trkpt><trkpt lat="44.5278067" lon="8.0552127"><ele>732.5714285714287</ele><time>2026-04-11T11:15:00.727Z</time></trkpt><trkpt lat="44.5278142" lon="8.0550971"><ele>733.2857142857142</ele><time>2026-04-11T11:15:03.719Z</time></trkpt><trkpt lat="44.5278332" lon="8.0550117"><ele>734.0</ele><time>2026-04-11T11:15:05.633Z</time></trkpt><trkpt lat="44.5278534" lon="8.0549194"><ele>734.0</ele><time>2026-04-11T11:15:07.668Z</time></trkpt><trkpt lat="44.5278759" lon="8.0548149"><ele>734.0</ele><time>2026-04-11T11:15:10.72Z</time></trkpt><trkpt lat="44.5279112" lon="8.0547177"><ele>734.0</ele><time>2026-04-11T11:15:13.568Z</time></trkpt><trkpt lat="44.5279705" lon="8.0546316"><ele>734.0</ele><time>2026-04-11T11:15:16.642Z</time></trkpt><trkpt lat="44.5280106" lon="8.0545337"><ele>734.0</ele><time>2026-04-11T11:15:19.734Z</time></trkpt><trkpt lat="44.528041" lon="8.0544527"><ele>734.0</ele><time>2026-04-11T11:15:22.77Z</time></trkpt><trkpt lat="44.5280978" lon="8.0544129"><ele>734.6666666666666</ele><time>2026-04-11T11:15:27.75Z</time></trkpt><trkpt lat="44.5281011" lon="8.0545028"><ele>735.3333333333333</ele><time>2026-04-11T11:15:33.622Z</time></trkpt><trkpt lat="44.5281366" lon="8.0545878"><ele>736.0</ele><time>2026-04-11T11:15:40.622Z</time></trkpt><trkpt lat="44.5280736" lon="8.0545092"><ele>736.6666666666666</ele><time>2026-04-11T11:16:12.622Z</time></trkpt><trkpt lat="44.5281372" lon="8.0545491"><ele>737.3333333333334</ele><time>2026-04-11T11:16:26.622Z</time></trkpt><trkpt lat="44.5280988" lon="8.0544621"><ele>738.0</ele><time>2026-04-11T11:16:42.622Z</time></trkpt><trkpt lat="44.5281501" lon="8.0543459"><ele>738.0</ele><time>2026-04-11T11:17:07.622Z</time></trkpt><trkpt lat="44.5282129" lon="8.0542651"><ele>738.0</ele><time>2026-04-11T11:17:10.622Z</time></trkpt><trkpt lat="44.5282776" lon="8.054193"><ele>738.0</ele><time>2026-04-11T11:17:12.622Z</time></trkpt><trkpt lat="44.528337" lon="8.0541032"><ele>738.0</ele><time>2026-04-11T11:17:14.622Z</time></trkpt><trkpt lat="44.5284032" lon="8.0540018"><ele>738.0</ele><time>2026-04-11T11:17:16.622Z</time></trkpt><trkpt lat="44.528476" lon="8.0538736"><ele>737.5</ele><time>2026-04-11T11:17:18.623Z</time></trkpt><trkpt lat="44.5285437" lon="8.053745"><ele>737.0</ele><time>2026-04-11T11:17:20.622Z</time></trkpt><trkpt lat="44.5285521" lon="8.0535775"><ele>736.5</ele><time>2026-04-11T11:17:22.622Z</time></trkpt><trkpt lat="44.5285433" lon="8.0534116"><ele>736.0</ele><time>2026-04-11T11:17:24.622Z</time></trkpt><trkpt lat="44.5285757" lon="8.053273"><ele>736.8</ele><time>2026-04-11T11:17:26.622Z</time></trkpt><trkpt lat="44.5286162" lon="8.0531457"><ele>737.5999999999999</ele><time>2026-04-11T11:17:28.623Z</time></trkpt><trkpt lat="44.5286318" lon="8.0530048"><ele>738.4</ele><time>2026-04-11T11:17:30.622Z</time></trkpt><trkpt lat="44.5286249" lon="8.0528585"><ele>739.2</ele><time>2026-04-11T11:17:32.622Z</time></trkpt><trkpt lat="44.5286352" lon="8.0527231"><ele>740.0</ele><time>2026-04-11T11:17:34.622Z</time></trkpt><trkpt lat="44.5286313" lon="8.0526199"><ele>740.0</ele><time>2026-04-11T11:17:36.623Z</time></trkpt><trkpt lat="44.5286211" lon="8.0525285"><ele>740.0</ele><time>2026-04-11T11:17:38.622Z</time></trkpt><trkpt lat="44.5286346" lon="8.052428"><ele>740.0</ele><time>2026-04-11T11:17:40.622Z</time></trkpt><trkpt lat="44.5286579" lon="8.0523031"><ele>740.0</ele><time>2026-04-11T11:17:42.622Z</time></trkpt><trkpt lat="44.5286884" lon="8.052221"><ele>740.0</ele><time>2026-04-11T11:17:44.622Z</time></trkpt><trkpt lat="44.5287337" lon="8.0521483"><ele>740.0</ele><time>2026-04-11T11:17:46.622Z</time></trkpt><trkpt lat="44.5288102" lon="8.0520935"><ele>740.5</ele><time>2026-04-11T11:17:48.622Z</time></trkpt><trkpt lat="44.5288911" lon="8.0520379"><ele>741.0</ele><time>2026-04-11T11:17:50.622Z</time></trkpt><trkpt lat="44.5289637" lon="8.0519567"><ele>741.5</ele><time>2026-04-11T11:17:52.622Z</time></trkpt><trkpt lat="44.5290285" lon="8.051871"><ele>742.0</ele><time>2026-04-11T11:17:54.622Z</time></trkpt><trkpt lat="44.5290851" lon="8.0518"><ele>742.5</ele><time>2026-04-11T11:17:56.622Z</time></trkpt><trkpt lat="44.5291276" lon="8.0516807"><ele>743.0</ele><time>2026-04-11T11:17:58.622Z</time></trkpt><trkpt lat="44.529173" lon="8.0515439"><ele>744.75</ele><time>2026-04-11T11:18:00.622Z</time></trkpt><trkpt lat="44.5292386" lon="8.0514071"><ele>746.5</ele><time>2026-04-11T11:18:02.622Z</time></trkpt><trkpt lat="44.5293008" lon="8.0512615"><ele>748.25</ele><time>2026-04-11T11:18:04.622Z</time></trkpt><trkpt lat="44.529375" lon="8.051143"><ele>750.0</ele><time>2026-04-11T11:18:06.622Z</time></trkpt><trkpt lat="44.529433" lon="8.0510078"><ele>750.0</ele><time>2026-04-11T11:18:08.622Z</time></trkpt><trkpt lat="44.5294949" lon="8.0508679"><ele>750.0</ele><time>2026-04-11T11:18:10.622Z</time></trkpt><trkpt lat="44.5295398" lon="8.0507043"><ele>750.0</ele><time>2026-04-11T11:18:12.622Z</time></trkpt><trkpt lat="44.5295694" lon="8.0506223"><ele>750.0</ele><time>2026-04-11T11:18:13.622Z</time></trkpt><trkpt lat="44.5296019" lon="8.0505437"><ele>750.0</ele><time>2026-04-11T11:18:14.622Z</time></trkpt><trkpt lat="44.5296506" lon="8.0503942"><ele>747.6</ele><time>2026-04-11T11:18:16.622Z</time></trkpt><trkpt lat="44.529682" lon="8.050314"><ele>745.2</ele><time>2026-04-11T11:18:17.622Z</time></trkpt><trkpt lat="44.5297382" lon="8.0501631"><ele>742.8</ele><time>2026-04-11T11:18:19.622Z</time></trkpt><trkpt lat="44.5297641" lon="8.0500789"><ele>740.4</ele><time>2026-04-11T11:18:20.622Z</time></trkpt><trkpt lat="44.5298205" lon="8.0499352"><ele>738.0</ele><time>2026-04-11T11:18:22.622Z</time></trkpt><trkpt lat="44.5298763" lon="8.0497781"><ele>738.0</ele><time>2026-04-11T11:18:24.622Z</time></trkpt><trkpt lat="44.5299384" lon="8.0496284"><ele>738.0</ele><time>2026-04-11T11:18:26.622Z</time></trkpt><trkpt lat="44.5300024" lon="8.0494787"><ele>738.0</ele><time>2026-04-11T11:18:28.622Z</time></trkpt><trkpt lat="44.5300296" lon="8.0493897"><ele>738.0</ele><time>2026-04-11T11:18:29.622Z</time></trkpt><trkpt lat="44.5300527" lon="8.0493025"><ele>738.0</ele><time>2026-04-11T11:18:30.622Z</time></trkpt><trkpt lat="44.5300832" lon="8.0492171"><ele>738.0</ele><time>2026-04-11T11:18:31.622Z</time></trkpt><trkpt lat="44.5301222" lon="8.049145"><ele>738.0</ele><time>2026-04-11T11:18:32.622Z</time></trkpt><trkpt lat="44.5302109" lon="8.049013"><ele>738.0</ele><time>2026-04-11T11:18:34.622Z</time></trkpt><trkpt lat="44.5302645" lon="8.0489529"><ele>738.0</ele><time>2026-04-11T11:18:35.622Z</time></trkpt><trkpt lat="44.5303203" lon="8.0489036"><ele>738.0</ele><time>2026-04-11T11:18:36.622Z</time></trkpt><trkpt lat="44.5303733" lon="8.0488497"><ele>738.0</ele><time>2026-04-11T11:18:37.622Z</time></trkpt><trkpt lat="44.5304369" lon="8.0488001"><ele>737.4285714285714</ele><time>2026-04-11T11:18:38.629Z</time></trkpt><trkpt lat="44.5304879" lon="8.0487313"><ele>736.8571428571429</ele><time>2026-04-11T11:18:39.629Z</time></trkpt><trkpt lat="44.5305351" lon="8.0486613"><ele>736.2857142857142</ele><time>2026-04-11T11:18:40.629Z</time></trkpt><trkpt lat="44.5305914" lon="8.0485975"><ele>735.7142857142858</ele><time>2026-04-11T11:18:41.629Z</time></trkpt><trkpt lat="44.5306494" lon="8.0485419"><ele>735.1428571428572</ele><time>2026-04-11T11:18:42.629Z</time></trkpt><trkpt lat="44.5307131" lon="8.0485036"><ele>734.5714285714286</ele><time>2026-04-11T11:18:43.629Z</time></trkpt><trkpt lat="44.5307767" lon="8.0484492"><ele>734.0</ele><time>2026-04-11T11:18:44.629Z</time></trkpt><trkpt lat="44.5308301" lon="8.0483822"><ele>734.0</ele><time>2026-04-11T11:18:45.629Z</time></trkpt><trkpt lat="44.5308852" lon="8.0483094"><ele>734.0</ele><time>2026-04-11T11:18:46.629Z</time></trkpt><trkpt lat="44.5309445" lon="8.0482666"><ele>734.0</ele><time>2026-04-11T11:18:47.629Z</time></trkpt><trkpt lat="44.5310085" lon="8.0482189"><ele>734.0</ele><time>2026-04-11T11:18:48.629Z</time></trkpt><trkpt lat="44.5310702" lon="8.048165"><ele>734.0</ele><time>2026-04-11T11:18:49.629Z</time></trkpt><trkpt lat="44.5311383" lon="8.0481184"><ele>734.0</ele><time>2026-04-11T11:18:50.629Z</time></trkpt><trkpt lat="44.5312018" lon="8.0480647"><ele>734.0</ele><time>2026-04-11T11:18:51.629Z</time></trkpt><trkpt lat="44.5312525" lon="8.0479801"><ele>734.1666666666666</ele><time>2026-04-11T11:18:52.629Z</time></trkpt><trkpt lat="44.5313095" lon="8.0479144"><ele>734.3333333333333</ele><time>2026-04-11T11:18:53.629Z</time></trkpt><trkpt lat="44.5313732" lon="8.0478652"><ele>734.5</ele><time>2026-04-11T11:18:54.629Z</time></trkpt><trkpt lat="44.5314444" lon="8.0478239"><ele>734.6666666666666</ele><time>2026-04-11T11:18:55.629Z</time></trkpt><trkpt lat="44.5315123" lon="8.0477677"><ele>734.8333333333334</ele><time>2026-04-11T11:18:56.629Z</time></trkpt><trkpt lat="44.5315692" lon="8.0476963"><ele>735.0</ele><time>2026-04-11T11:18:57.629Z</time></trkpt><trkpt lat="44.5316187" lon="8.0476243"><ele>735.0</ele><time>2026-04-11T11:18:58.629Z</time></trkpt><trkpt lat="44.5316851" lon="8.0475745"><ele>735.0</ele><time>2026-04-11T11:18:59.629Z</time></trkpt><trkpt lat="44.5317521" lon="8.0475335"><ele>735.0</ele><time>2026-04-11T11:19:00.629Z</time></trkpt><trkpt lat="44.5318189" lon="8.0474883"><ele>735.0</ele><time>2026-04-11T11:19:01.629Z</time></trkpt><trkpt lat="44.5318839" lon="8.0474424"><ele>735.0</ele><time>2026-04-11T11:19:02.629Z</time></trkpt><trkpt lat="44.5319627" lon="8.0473876"><ele>735.0</ele><time>2026-04-11T11:19:03.629Z</time></trkpt><trkpt lat="44.5320257" lon="8.0473287"><ele>734.1666666666666</ele><time>2026-04-11T11:19:04.629Z</time></trkpt><trkpt lat="44.5320873" lon="8.0472718"><ele>733.3333333333334</ele><time>2026-04-11T11:19:05.629Z</time></trkpt><trkpt lat="44.5321599" lon="8.0472244"><ele>732.5</ele><time>2026-04-11T11:19:06.629Z</time></trkpt><trkpt lat="44.5322326" lon="8.0471662"><ele>731.6666666666667</ele><time>2026-04-11T11:19:07.629Z</time></trkpt><trkpt lat="44.5323035" lon="8.0470906"><ele>730.8333333333334</ele><time>2026-04-11T11:19:08.629Z</time></trkpt><trkpt lat="44.5323626" lon="8.0469974"><ele>730.0</ele><time>2026-04-11T11:19:09.629Z</time></trkpt><trkpt lat="44.5323977" lon="8.0468904"><ele>730.0</ele><time>2026-04-11T11:19:10.629Z</time></trkpt><trkpt lat="44.5324476" lon="8.0467907"><ele>730.0</ele><time>2026-04-11T11:19:11.63Z</time></trkpt><trkpt lat="44.5325038" lon="8.0467095"><ele>730.0</ele><time>2026-04-11T11:19:12.629Z</time></trkpt><trkpt lat="44.5325756" lon="8.0466529"><ele>730.0</ele><time>2026-04-11T11:19:13.629Z</time></trkpt><trkpt lat="44.5326554" lon="8.0466183"><ele>730.0</ele><time>2026-04-11T11:19:14.629Z</time></trkpt><trkpt lat="44.5327326" lon="8.0465725"><ele>730.0</ele><time>2026-04-11T11:19:15.629Z</time></trkpt><trkpt lat="44.5328169" lon="8.0465429"><ele>731.4</ele><time>2026-04-11T11:19:16.629Z</time></trkpt><trkpt lat="44.5329093" lon="8.0464775"><ele>732.8</ele><time>2026-04-11T11:19:17.629Z</time></trkpt><trkpt lat="44.5329788" lon="8.0464147"><ele>734.2</ele><time>2026-04-11T11:19:18.629Z</time></trkpt><trkpt lat="44.5330434" lon="8.0463615"><ele>735.6</ele><time>2026-04-11T11:19:19.629Z</time></trkpt><trkpt lat="44.5331897" lon="8.046316"><ele>737.0</ele><time>2026-04-11T11:19:21.629Z</time></trkpt><trkpt lat="44.5332737" lon="8.046297"><ele>737.0</ele><time>2026-04-11T11:19:22.629Z</time></trkpt><trkpt lat="44.533347" lon="8.0462908"><ele>737.0</ele><time>2026-04-11T11:19:23.629Z</time></trkpt><trkpt lat="44.533411" lon="8.0462654"><ele>737.0</ele><time>2026-04-11T11:19:24.629Z</time></trkpt><trkpt lat="44.5334712" lon="8.0461779"><ele>737.0</ele><time>2026-04-11T11:19:26.629Z</time></trkpt><trkpt lat="44.5334392" lon="8.0460813"><ele>737.0</ele><time>2026-04-11T11:19:28.629Z</time></trkpt><trkpt lat="44.5333569" lon="8.0460831"><ele>737.0</ele><time>2026-04-11T11:19:30.629Z</time></trkpt><trkpt lat="44.5332867" lon="8.0461311"><ele>737.0</ele><time>2026-04-11T11:19:32.629Z</time></trkpt><trkpt lat="44.5332188" lon="8.0461748"><ele>737.0</ele><time>2026-04-11T11:19:34.629Z</time></trkpt><trkpt lat="44.5331427" lon="8.0462427"><ele>737.0</ele><time>2026-04-11T11:19:36.629Z</time></trkpt><trkpt lat="44.5330628" lon="8.0462152"><ele>737.0</ele><time>2026-04-11T11:19:39.629Z</time></trkpt><trkpt lat="44.5329882" lon="8.0462226"><ele>737.0</ele><time>2026-04-11T11:19:42.629Z</time></trkpt><trkpt lat="44.5329359" lon="8.0462945"><ele>737.0</ele><time>2026-04-11T11:19:44.629Z</time></trkpt><trkpt lat="44.5328691" lon="8.0463526"><ele>737.0</ele><time>2026-04-11T11:19:46.63Z</time></trkpt><trkpt lat="44.5327865" lon="8.0463235"><ele>737.0</ele><time>2026-04-11T11:19:49.63Z</time></trkpt><trkpt lat="44.532754" lon="8.0462095"><ele>737.0</ele><time>2026-04-11T11:19:52.629Z</time></trkpt><trkpt lat="44.532798" lon="8.046119"><ele>737.0</ele><time>2026-04-11T11:19:54.629Z</time></trkpt><trkpt lat="44.5328604" lon="8.0460377"><ele>737.0</ele><time>2026-04-11T11:19:57.629Z</time></trkpt><trkpt lat="44.5329073" lon="8.0459658"><ele>737.0</ele><time>2026-04-11T11:20:00.629Z</time></trkpt><trkpt lat="44.5329584" lon="8.045906"><ele>737.0</ele><time>2026-04-11T11:20:03.629Z</time></trkpt><trkpt lat="44.5330045" lon="8.0458391"><ele>737.0</ele><time>2026-04-11T11:20:06.63Z</time></trkpt><trkpt lat="44.5330624" lon="8.045786"><ele>737.0</ele><time>2026-04-11T11:20:09.629Z</time></trkpt><trkpt lat="44.5331272" lon="8.0457055"><ele>737.0</ele><time>2026-04-11T11:20:12.629Z</time></trkpt><trkpt lat="44.5332088" lon="8.0456663"><ele>737.0</ele><time>2026-04-11T11:20:15.629Z</time></trkpt><trkpt lat="44.5332676" lon="8.0455795"><ele>737.0</ele><time>2026-04-11T11:20:18.629Z</time></trkpt><trkpt lat="44.5333374" lon="8.0455076"><ele>736.8333333333333</ele><time>2026-04-11T11:20:21.629Z</time></trkpt><trkpt lat="44.533408" lon="8.0454493"><ele>736.6666666666666</ele><time>2026-04-11T11:20:24.629Z</time></trkpt><trkpt lat="44.5334638" lon="8.0454012"><ele>736.5</ele><time>2026-04-11T11:20:26.629Z</time></trkpt><trkpt lat="44.5335138" lon="8.0453434"><ele>736.3333333333334</ele><time>2026-04-11T11:20:28.629Z</time></trkpt><trkpt lat="44.533575" lon="8.0452558"><ele>736.1666666666667</ele><time>2026-04-11T11:20:31.629Z</time></trkpt><trkpt lat="44.5336177" lon="8.045183"><ele>736.0</ele><time>2026-04-11T11:20:34.629Z</time></trkpt><trkpt lat="44.5337005" lon="8.0451586"><ele>737.1428571428572</ele><time>2026-04-11T11:20:38.629Z</time></trkpt><trkpt lat="44.5337646" lon="8.0451547"><ele>738.2857142857142</ele><time>2026-04-11T11:20:40.629Z</time></trkpt><trkpt lat="44.5338307" lon="8.0450794"><ele>739.4285714285714</ele><time>2026-04-11T11:20:43.629Z</time></trkpt><trkpt lat="44.5338614" lon="8.0449981"><ele>740.5714285714287</ele><time>2026-04-11T11:20:45.629Z</time></trkpt><trkpt lat="44.5338891" lon="8.0449186"><ele>741.7142857142858</ele><time>2026-04-11T11:20:47.63Z</time></trkpt><trkpt lat="44.533927" lon="8.044838"><ele>742.8571428571429</ele><time>2026-04-11T11:20:49.629Z</time></trkpt><trkpt lat="44.5339864" lon="8.0447573"><ele>744.0</ele><time>2026-04-11T11:20:51.629Z</time></trkpt><trkpt lat="44.5340327" lon="8.0446776"><ele>743.6666666666666</ele><time>2026-04-11T11:20:53.629Z</time></trkpt><trkpt lat="44.5340687" lon="8.0445965"><ele>743.3333333333334</ele><time>2026-04-11T11:20:55.629Z</time></trkpt><trkpt lat="44.534112" lon="8.0444599"><ele>743.0</ele><time>2026-04-11T11:20:57.629Z</time></trkpt><trkpt lat="44.5341591" lon="8.044398"><ele>742.6666666666667</ele><time>2026-04-11T11:21:00.629Z</time></trkpt><trkpt lat="44.5341954" lon="8.0443245"><ele>742.3333333333334</ele><time>2026-04-11T11:21:02.629Z</time></trkpt><trkpt lat="44.5342274" lon="8.0442338"><ele>742.0</ele><time>2026-04-11T11:21:04.629Z</time></trkpt><trkpt lat="44.5342597" lon="8.0441017"><ele>742.0</ele><time>2026-04-11T11:21:06.629Z</time></trkpt><trkpt lat="44.5343009" lon="8.0439689"><ele>742.0</ele><time>2026-04-11T11:21:08.629Z</time></trkpt><trkpt lat="44.5343416" lon="8.0438708"><ele>742.0</ele><time>2026-04-11T11:21:10.629Z</time></trkpt><trkpt lat="44.5343559" lon="8.0437374"><ele>742.0</ele><time>2026-04-11T11:21:12.629Z</time></trkpt><trkpt lat="44.5343642" lon="8.0435847"><ele>742.0</ele><time>2026-04-11T11:21:14.629Z</time></trkpt><trkpt lat="44.5343928" lon="8.0434573"><ele>742.0</ele><time>2026-04-11T11:21:16.629Z</time></trkpt><trkpt lat="44.5344334" lon="8.0433066"><ele>742.0</ele><time>2026-04-11T11:21:18.629Z</time></trkpt><trkpt lat="44.5344649" lon="8.0431673"><ele>742.0</ele><time>2026-04-11T11:21:20.629Z</time></trkpt><trkpt lat="44.5344803" lon="8.0430382"><ele>742.0</ele><time>2026-04-11T11:21:22.629Z</time></trkpt><trkpt lat="44.5345003" lon="8.0429159"><ele>742.0</ele><time>2026-04-11T11:21:24.629Z</time></trkpt><trkpt lat="44.5345221" lon="8.0427772"><ele>742.1666666666667</ele><time>2026-04-11T11:21:26.629Z</time></trkpt><trkpt lat="44.5345506" lon="8.042643"><ele>742.3333333333334</ele><time>2026-04-11T11:21:28.629Z</time></trkpt><trkpt lat="44.5345871" lon="8.0425351"><ele>742.5</ele><time>2026-04-11T11:21:30.629Z</time></trkpt><trkpt lat="44.534624" lon="8.0424392"><ele>742.6666666666666</ele><time>2026-04-11T11:21:32.629Z</time></trkpt><trkpt lat="44.53467" lon="8.0423737"><ele>742.8333333333333</ele><time>2026-04-11T11:21:34.629Z</time></trkpt><trkpt lat="44.5347596" lon="8.0422909"><ele>743.0</ele><time>2026-04-11T11:21:36.629Z</time></trkpt><trkpt lat="44.5348107" lon="8.0421354"><ele>742.5999999999999</ele><time>2026-04-11T11:21:38.629Z</time></trkpt><trkpt lat="44.5348558" lon="8.0420619"><ele>742.1999999999999</ele><time>2026-04-11T11:21:39.629Z</time></trkpt><trkpt lat="44.5349097" lon="8.0420004"><ele>741.8</ele><time>2026-04-11T11:21:40.629Z</time></trkpt><trkpt lat="44.5349803" lon="8.0419368"><ele>741.4</ele><time>2026-04-11T11:21:41.629Z</time></trkpt><trkpt lat="44.5350178" lon="8.0417985"><ele>741.0</ele><time>2026-04-11T11:21:42.629Z</time></trkpt><trkpt lat="44.5350674" lon="8.0416205"><ele>741.0</ele><time>2026-04-11T11:21:43.629Z</time></trkpt><trkpt lat="44.535117" lon="8.0414884"><ele>741.0</ele><time>2026-04-11T11:21:44.629Z</time></trkpt><trkpt lat="44.535152" lon="8.0413327"><ele>741.0</ele><time>2026-04-11T11:21:45.63Z</time></trkpt><trkpt lat="44.5352039" lon="8.041196"><ele>741.0</ele><time>2026-04-11T11:21:46.63Z</time></trkpt><trkpt lat="44.535258" lon="8.04106"><ele>741.0</ele><time>2026-04-11T11:21:47.629Z</time></trkpt><trkpt lat="44.5353408" lon="8.0409414"><ele>738.5</ele><time>2026-04-11T11:21:48.629Z</time></trkpt><trkpt lat="44.5354323" lon="8.0408392"><ele>736.0</ele><time>2026-04-11T11:21:49.629Z</time></trkpt><trkpt lat="44.5355255" lon="8.0407381"><ele>733.5</ele><time>2026-04-11T11:21:50.629Z</time></trkpt><trkpt lat="44.5356201" lon="8.0406275"><ele>731.0</ele><time>2026-04-11T11:21:51.629Z</time></trkpt><trkpt lat="44.5357127" lon="8.0405092"><ele>730.25</ele><time>2026-04-11T11:21:52.629Z</time></trkpt><trkpt lat="44.5358045" lon="8.0403768"><ele>729.5</ele><time>2026-04-11T11:21:53.629Z</time></trkpt><trkpt lat="44.5358829" lon="8.0402472"><ele>728.75</ele><time>2026-04-11T11:21:54.629Z</time></trkpt><trkpt lat="44.5359687" lon="8.04009"><ele>728.0</ele><time>2026-04-11T11:21:55.629Z</time></trkpt><trkpt lat="44.5360446" lon="8.0399346"><ele>743.0</ele><time>2026-04-11T11:21:56.629Z</time></trkpt><trkpt lat="44.5345221" lon="8.0427772"><ele>743.0</ele><time>2026-04-11T11:21:26.629Z</time></trkpt><trkpt lat="44.5345506" lon="8.042643"><ele>743.0</ele><time>2026-04-11T11:21:28.629Z</time></trkpt><trkpt lat="44.5345871" lon="8.0425351"><ele>743.0</ele><time>2026-04-11T11:21:30.629Z</time></trkpt><trkpt lat="44.534624" lon="8.0424392"><ele>743.0</ele><time>2026-04-11T11:21:32.629Z</time></trkpt><trkpt lat="44.53467" lon="8.0423737"><ele>743.0</ele><time>2026-04-11T11:21:34.629Z</time></trkpt><trkpt lat="44.5347596" lon="8.0422909"><ele>743.0</ele><time>2026-04-11T11:21:36.629Z</time></trkpt><trkpt lat="44.5348107" lon="8.0421354"><ele>742.5999999999999</ele><time>2026-04-11T11:21:38.629Z</time></trkpt><trkpt lat="44.5348558" lon="8.0420619"><ele>742.1999999999999</ele><time>2026-04-11T11:21:39.629Z</time></trkpt><trkpt lat="44.5349097" lon="8.0420004"><ele>741.8</ele><time>2026-04-11T11:21:40.629Z</time></trkpt><trkpt lat="44.5349803" lon="8.0419368"><ele>741.4</ele><time>2026-04-11T11:21:41.629Z</time></trkpt><trkpt lat="44.5350178" lon="8.0417985"><ele>741.0</ele><time>2026-04-11T11:21:42.629Z</time></trkpt><trkpt lat="44.5350674" lon="8.0416205"><ele>741.0</ele><time>2026-04-11T11:21:43.629Z</time></trkpt><trkpt lat="44.535117" lon="8.0414884"><ele>741.0</ele><time>2026-04-11T11:21:44.629Z</time></trkpt><trkpt lat="44.535152" lon="8.0413327"><ele>741.0</ele><time>2026-04-11T11:21:45.63Z</time></trkpt><trkpt lat="44.5352039" lon="8.041196"><ele>741.0</ele><time>2026-04-11T11:21:46.63Z</time></trkpt><trkpt lat="44.535258" lon="8.04106"><ele>741.0</ele><time>2026-04-11T11:21:47.629Z</time></trkpt><trkpt lat="44.5353408" lon="8.0409414"><ele>738.5</ele><time>2026-04-11T11:21:48.629Z</time></trkpt><trkpt lat="44.5354323" lon="8.0408392"><ele>736.0</ele><time>2026-04-11T11:21:49.629Z</time></trkpt><trkpt lat="44.5355255" lon="8.0407381"><ele>733.5</ele><time>2026-04-11T11:21:50.629Z</time></trkpt><trkpt lat="44.5356201" lon="8.0406275"><ele>731.0</ele><time>2026-04-11T11:21:51.629Z</time></trkpt><trkpt lat="44.5357127" lon="8.0405092"><ele>730.25</ele><time>2026-04-11T11:21:52.629Z</time></trkpt><trkpt lat="44.5358045" lon="8.0403768"><ele>729.5</ele><time>2026-04-11T11:21:53.629Z</time></trkpt><trkpt lat="44.5358829" lon="8.0402472"><ele>728.75</ele><time>2026-04-11T11:21:54.629Z</time></trkpt><trkpt lat="44.5359687" lon="8.04009"><ele>728.0</ele><time>2026-04-11T11:21:55.629Z</time></trkpt><trkpt lat="44.5360446" lon="8.0399346"><ele>726.0</ele><time>2026-04-11T11:21:56.629Z</time></trkpt><trkpt lat="44.5361252" lon="8.0397742"><ele>724.0</ele><time>2026-04-11T11:21:57.629Z</time></trkpt><trkpt lat="44.5362113" lon="8.0396252"><ele>722.0</ele><time>2026-04-11T11:21:58.629Z</time></trkpt><trkpt lat="44.536301" lon="8.0394982"><ele>720.0</ele><time>2026-04-11T11:21:59.629Z</time></trkpt><trkpt lat="44.5364025" lon="8.0393841"><ele>720.0</ele><time>2026-04-11T11:22:00.629Z</time></trkpt><trkpt lat="44.5365035" lon="8.0392794"><ele>720.0</ele><time>2026-04-11T11:22:01.629Z</time></trkpt><trkpt lat="44.5366035" lon="8.0391807"><ele>720.0</ele><time>2026-04-11T11:22:02.629Z</time></trkpt><trkpt lat="44.5366979" lon="8.0390947"><ele>720.0</ele><time>2026-04-11T11:22:03.629Z</time></trkpt><trkpt lat="44.5368007" lon="8.0390278"><ele>720.0</ele><time>2026-04-11T11:22:04.629Z</time></trkpt><trkpt lat="44.5369123" lon="8.0389568"><ele>720.0</ele><time>2026-04-11T11:22:05.629Z</time></trkpt><trkpt lat="44.5370212" lon="8.0388703"><ele>720.0</ele><time>2026-04-11T11:22:06.629Z</time></trkpt><trkpt lat="44.537114" lon="8.0387823"><ele>720.0</ele><time>2026-04-11T11:22:07.629Z</time></trkpt><trkpt lat="44.5371756" lon="8.0387108"><ele>720.0</ele><time>2026-04-11T11:22:08.629Z</time></trkpt><trkpt lat="44.5372052" lon="8.0386322"><ele>720.0</ele><time>2026-04-11T11:22:09.63Z</time></trkpt><trkpt lat="44.5372311" lon="8.038488"><ele>720.0</ele><time>2026-04-11T11:22:11.629Z</time></trkpt><trkpt lat="44.5372352" lon="8.0383381"><ele>720.0</ele><time>2026-04-11T11:22:13.629Z</time></trkpt><trkpt lat="44.5373071" lon="8.038253"><ele>720.0</ele><time>2026-04-11T11:22:15.629Z</time></trkpt><trkpt lat="44.5373084" lon="8.0381599"><ele>720.0</ele><time>2026-04-11T11:22:17.629Z</time></trkpt><trkpt lat="44.5373736" lon="8.0382028"><ele>720.0</ele><time>2026-04-11T11:22:22.629Z</time></trkpt><trkpt lat="44.5374988" lon="8.0382454"><ele>719.25</ele><time>2026-04-11T11:22:26.629Z</time></trkpt><trkpt lat="44.5376652" lon="8.0381739"><ele>718.5</ele><time>2026-04-11T11:22:30.629Z</time></trkpt><trkpt lat="44.5377881" lon="8.0381551"><ele>717.75</ele><time>2026-04-11T11:22:34.629Z</time></trkpt><trkpt lat="44.5378539" lon="8.0381446"><ele>717.0</ele><time>2026-04-11T11:22:35.629Z</time></trkpt><trkpt lat="44.5379399" lon="8.0381739"><ele>717.0</ele><time>2026-04-11T11:22:37.629Z</time></trkpt><trkpt lat="44.5380272" lon="8.0382138"><ele>717.0</ele><time>2026-04-11T11:22:39.629Z</time></trkpt><trkpt lat="44.5381179" lon="8.0382415"><ele>717.0</ele><time>2026-04-11T11:22:41.629Z</time></trkpt><trkpt lat="44.5381929" lon="8.0382051"><ele>717.0</ele><time>2026-04-11T11:22:43.629Z</time></trkpt><trkpt lat="44.5382521" lon="8.0382564"><ele>717.0</ele><time>2026-04-11T11:22:45.629Z</time></trkpt><trkpt lat="44.5383096" lon="8.0383555"><ele>717.0</ele><time>2026-04-11T11:22:47.629Z</time></trkpt><trkpt lat="44.5383763" lon="8.0383999"><ele>717.0</ele><time>2026-04-11T11:22:49.629Z</time></trkpt><trkpt lat="44.5384551" lon="8.0384465"><ele>717.0</ele><time>2026-04-11T11:22:51.629Z</time></trkpt><trkpt lat="44.5385348" lon="8.038442"><ele>717.0</ele><time>2026-04-11T11:22:53.629Z</time></trkpt><trkpt lat="44.5386117" lon="8.0383224"><ele>717.0</ele><time>2026-04-11T11:22:55.629Z</time></trkpt><trkpt lat="44.5386581" lon="8.0382511"><ele>717.0</ele><time>2026-04-11T11:22:56.629Z</time></trkpt><trkpt lat="44.5387418" lon="8.0381601"><ele>717.0</ele><time>2026-04-11T11:22:58.629Z</time></trkpt><trkpt lat="44.5388027" lon="8.0380829"><ele>717.0</ele><time>2026-04-11T11:23:02.629Z</time></trkpt><trkpt lat="44.5388374" lon="8.0380075"><ele>717.0</ele><time>2026-04-11T11:23:03.629Z</time></trkpt><trkpt lat="44.5389002" lon="8.0378894"><ele>717.0</ele><time>2026-04-11T11:23:05.629Z</time></trkpt><trkpt lat="44.5389348" lon="8.0377996"><ele>717.0</ele><time>2026-04-11T11:23:07.629Z</time></trkpt><trkpt lat="44.5390449" lon="8.0376908"><ele>717.0</ele><time>2026-04-11T11:23:09.63Z</time></trkpt><trkpt lat="44.5390897" lon="8.0376127"><ele>717.0</ele><time>2026-04-11T11:23:10.629Z</time></trkpt><trkpt lat="44.5391661" lon="8.0374784"><ele>717.0</ele><time>2026-04-11T11:23:12.629Z</time></trkpt><trkpt lat="44.5391987" lon="8.0373988"><ele>717.0</ele><time>2026-04-11T11:23:13.629Z</time></trkpt><trkpt lat="44.5392442" lon="8.037293"><ele>717.0</ele><time>2026-04-11T11:23:15.629Z</time></trkpt><trkpt lat="44.5392272" lon="8.0371641"><ele>717.0</ele><time>2026-04-11T11:23:17.629Z</time></trkpt><trkpt lat="44.5393154" lon="8.0371531"><ele>719.6</ele><time>2026-04-11T11:23:19.629Z</time></trkpt><trkpt lat="44.5393516" lon="8.0370117"><ele>722.2</ele><time>2026-04-11T11:23:22.629Z</time></trkpt><trkpt lat="44.5394116" lon="8.0368881"><ele>724.8</ele><time>2026-04-11T11:23:24.629Z</time></trkpt><trkpt lat="44.5394766" lon="8.0367574"><ele>727.4</ele><time>2026-04-11T11:23:26.629Z</time></trkpt><trkpt lat="44.5394746" lon="8.0366337"><ele>730.0</ele><time>2026-04-11T11:23:27.629Z</time></trkpt><trkpt lat="44.5394656" lon="8.0365065"><ele>731.6</ele><time>2026-04-11T11:23:28.629Z</time></trkpt><trkpt lat="44.5394922" lon="8.0363397"><ele>733.2</ele><time>2026-04-11T11:23:30.629Z</time></trkpt><trkpt lat="44.53951" lon="8.036187"><ele>734.8</ele><time>2026-04-11T11:23:32.629Z</time></trkpt><trkpt lat="44.5395479" lon="8.0360603"><ele>736.4</ele><time>2026-04-11T11:23:35.629Z</time></trkpt><trkpt lat="44.5395799" lon="8.0359778"><ele>738.0</ele><time>2026-04-11T11:23:37.629Z</time></trkpt><trkpt lat="44.5396502" lon="8.0358777"><ele>736.8</ele><time>2026-04-11T11:23:39.629Z</time></trkpt><trkpt lat="44.5396944" lon="8.0357964"><ele>735.5999999999999</ele><time>2026-04-11T11:23:40.629Z</time></trkpt><trkpt lat="44.5397543" lon="8.0357557"><ele>734.4000000000001</ele><time>2026-04-11T11:23:41.629Z</time></trkpt><trkpt lat="44.5398516" lon="8.035712"><ele>733.2</ele><time>2026-04-11T11:23:43.629Z</time></trkpt><trkpt lat="44.5399693" lon="8.0356835"><ele>732.0</ele><time>2026-04-11T11:23:45.629Z</time></trkpt><trkpt lat="44.5400947" lon="8.0356696"><ele>732.0</ele><time>2026-04-11T11:23:47.629Z</time></trkpt><trkpt lat="44.5401605" lon="8.0356929"><ele>732.0</ele><time>2026-04-11T11:23:48.629Z</time></trkpt><trkpt lat="44.5402435" lon="8.035687"><ele>732.0</ele><time>2026-04-11T11:23:50.629Z</time></trkpt><trkpt lat="44.5402578" lon="8.035783"><ele>732.0</ele><time>2026-04-11T11:23:56.629Z</time></trkpt><trkpt lat="44.5403454" lon="8.0357538"><ele>732.0</ele><time>2026-04-11T11:24:03.629Z</time></trkpt><trkpt lat="44.5404049" lon="8.0356949"><ele>732.0</ele><time>2026-04-11T11:24:06.629Z</time></trkpt><trkpt lat="44.5404965" lon="8.0356597"><ele>727.8</ele><time>2026-04-11T11:24:09.629Z</time></trkpt><trkpt lat="44.5405805" lon="8.0356752"><ele>723.6</ele><time>2026-04-11T11:24:11.629Z</time></trkpt><trkpt lat="44.5406775" lon="8.0357157"><ele>719.4</ele><time>2026-04-11T11:24:13.629Z</time></trkpt><trkpt lat="44.5407489" lon="8.0357415"><ele>715.1999999999999</ele><time>2026-04-11T11:24:15.629Z</time></trkpt><trkpt lat="44.5408409" lon="8.035768"><ele>711.0</ele><time>2026-04-11T11:24:17.629Z</time></trkpt><trkpt lat="44.5409466" lon="8.0357131"><ele>711.0</ele><time>2026-04-11T11:24:19.629Z</time></trkpt><trkpt lat="44.541025" lon="8.0356369"><ele>711.0</ele><time>2026-04-11T11:24:21.629Z</time></trkpt><trkpt lat="44.5410682" lon="8.0355701"><ele>711.0</ele><time>2026-04-11T11:24:22.629Z</time></trkpt><trkpt lat="44.5411263" lon="8.0355071"><ele>711.0</ele><time>2026-04-11T11:24:23.629Z</time></trkpt><trkpt lat="44.5411885" lon="8.0354204"><ele>711.0</ele><time>2026-04-11T11:24:24.629Z</time></trkpt><trkpt lat="44.5412436" lon="8.0353237"><ele>711.0</ele><time>2026-04-11T11:24:25.629Z</time></trkpt><trkpt lat="44.5413435" lon="8.0352162"><ele>708.8</ele><time>2026-04-11T11:24:27.629Z</time></trkpt><trkpt lat="44.5413171" lon="8.0351068"><ele>706.5999999999999</ele><time>2026-04-11T11:24:29.629Z</time></trkpt><trkpt lat="44.541284" lon="8.0349577"><ele>704.4</ele><time>2026-04-11T11:24:31.629Z</time></trkpt><trkpt lat="44.5413345" lon="8.0348253"><ele>702.2</ele><time>2026-04-11T11:24:33.629Z</time></trkpt><trkpt lat="44.5414057" lon="8.0347598"><ele>700.0</ele><time>2026-04-11T11:24:35.629Z</time></trkpt><trkpt lat="44.5414529" lon="8.0346623"><ele>700.0</ele><time>2026-04-11T11:24:36.629Z</time></trkpt><trkpt lat="44.5415178" lon="8.0345786"><ele>700.0</ele><time>2026-04-11T11:24:38.629Z</time></trkpt><trkpt lat="44.5415677" lon="8.0345173"><ele>700.0</ele><time>2026-04-11T11:24:39.629Z</time></trkpt><trkpt lat="44.5416602" lon="8.0344797"><ele>700.0</ele><time>2026-04-11T11:24:41.629Z</time></trkpt><trkpt lat="44.541728" lon="8.0344769"><ele>700.0</ele><time>2026-04-11T11:24:45.629Z</time></trkpt><trkpt lat="44.541795" lon="8.0344412"><ele>700.0</ele><time>2026-04-11T11:24:49.629Z</time></trkpt><trkpt lat="44.5419018" lon="8.0343151"><ele>700.0</ele><time>2026-04-11T11:24:56.63Z</time></trkpt><trkpt lat="44.5419846" lon="8.0342381"><ele>700.0</ele><time>2026-04-11T11:24:59.63Z</time></trkpt><trkpt lat="44.5420371" lon="8.0341647"><ele>700.0</ele><time>2026-04-11T11:25:02.63Z</time></trkpt><trkpt lat="44.5420933" lon="8.0341248"><ele>700.0</ele><time>2026-04-11T11:25:04.63Z</time></trkpt><trkpt lat="44.5421631" lon="8.0340558"><ele>700.0</ele><time>2026-04-11T11:25:07.63Z</time></trkpt><trkpt lat="44.5422207" lon="8.0340193"><ele>700.0</ele><time>2026-04-11T11:25:10.631Z</time></trkpt><trkpt lat="44.5422814" lon="8.033989"><ele>700.0</ele><time>2026-04-11T11:25:13.63Z</time></trkpt><trkpt lat="44.5423588" lon="8.0339368"><ele>696.8</ele><time>2026-04-11T11:25:16.63Z</time></trkpt><trkpt lat="44.542451" lon="8.0338835"><ele>693.6</ele><time>2026-04-11T11:25:18.636Z</time></trkpt><trkpt lat="44.5424989" lon="8.0337993"><ele>690.4000000000001</ele><time>2026-04-11T11:25:20.636Z</time></trkpt><trkpt lat="44.5425543" lon="8.0337397"><ele>687.2</ele><time>2026-04-11T11:25:22.636Z</time></trkpt><trkpt lat="44.5425752" lon="8.0335904"><ele>684.0</ele><time>2026-04-11T11:25:24.636Z</time></trkpt><trkpt lat="44.5425705" lon="8.0334287"><ele>684.0</ele><time>2026-04-11T11:25:26.636Z</time></trkpt><trkpt lat="44.5425715" lon="8.0333318"><ele>684.0</ele><time>2026-04-11T11:25:27.636Z</time></trkpt><trkpt lat="44.5425745" lon="8.0332388"><ele>684.0</ele><time>2026-04-11T11:25:28.636Z</time></trkpt><trkpt lat="44.5426129" lon="8.0331681"><ele>684.0</ele><time>2026-04-11T11:25:29.636Z</time></trkpt><trkpt lat="44.5426249" lon="8.0330681"><ele>684.0</ele><time>2026-04-11T11:25:30.636Z</time></trkpt><trkpt lat="44.5426734" lon="8.0329197"><ele>684.0</ele><time>2026-04-11T11:25:32.636Z</time></trkpt><trkpt lat="44.5427186" lon="8.0328446"><ele>683.2</ele><time>2026-04-11T11:25:33.636Z</time></trkpt><trkpt lat="44.542814" lon="8.0327438"><ele>682.4000000000001</ele><time>2026-04-11T11:25:35.636Z</time></trkpt><trkpt lat="44.5428764" lon="8.0326131"><ele>681.6</ele><time>2026-04-11T11:25:37.636Z</time></trkpt><trkpt lat="44.5429014" lon="8.032512"><ele>680.8</ele><time>2026-04-11T11:25:38.636Z</time></trkpt><trkpt lat="44.5429494" lon="8.0324319"><ele>680.0</ele><time>2026-04-11T11:25:39.636Z</time></trkpt><trkpt lat="44.5429938" lon="8.0323538"><ele>680.0</ele><time>2026-04-11T11:25:40.636Z</time></trkpt><trkpt lat="44.5430649" lon="8.0323297"><ele>680.0</ele><time>2026-04-11T11:25:41.636Z</time></trkpt><trkpt lat="44.5431329" lon="8.0323134"><ele>680.0</ele><time>2026-04-11T11:25:42.636Z</time></trkpt><trkpt lat="44.5432381" lon="8.0322494"><ele>680.0</ele><time>2026-04-11T11:25:44.636Z</time></trkpt><trkpt lat="44.5433228" lon="8.032158"><ele>680.0</ele><time>2026-04-11T11:25:46.636Z</time></trkpt><trkpt lat="44.543399" lon="8.0320357"><ele>680.0</ele><time>2026-04-11T11:25:48.636Z</time></trkpt><trkpt lat="44.543408" lon="8.0319311"><ele>680.0</ele><time>2026-04-11T11:25:49.636Z</time></trkpt><trkpt lat="44.5434293" lon="8.0318321"><ele>680.0</ele><time>2026-04-11T11:25:50.636Z</time></trkpt><trkpt lat="44.5434653" lon="8.0317328"><ele>680.0</ele><time>2026-04-11T11:25:51.636Z</time></trkpt><trkpt lat="44.5435042" lon="8.0316393"><ele>680.0</ele><time>2026-04-11T11:25:52.636Z</time></trkpt><trkpt lat="44.5435622" lon="8.0315414"><ele>680.0</ele><time>2026-04-11T11:25:53.636Z</time></trkpt><trkpt lat="44.5436138" lon="8.0314379"><ele>682.1666666666666</ele><time>2026-04-11T11:25:54.636Z</time></trkpt><trkpt lat="44.5436743" lon="8.031373"><ele>684.3333333333333</ele><time>2026-04-11T11:25:55.636Z</time></trkpt><trkpt lat="44.5437361" lon="8.0313255"><ele>686.5</ele><time>2026-04-11T11:25:56.636Z</time></trkpt><trkpt lat="44.5438168" lon="8.0312043"><ele>688.6666666666666</ele><time>2026-04-11T11:25:58.636Z</time></trkpt><trkpt lat="44.5438584" lon="8.0310711"><ele>690.8333333333334</ele><time>2026-04-11T11:26:00.637Z</time></trkpt><trkpt lat="44.5439281" lon="8.0310298"><ele>693.0</ele><time>2026-04-11T11:26:01.636Z</time></trkpt><trkpt lat="44.543988" lon="8.0309691"><ele>690.3333333333334</ele><time>2026-04-11T11:26:02.636Z</time></trkpt><trkpt lat="44.5440596" lon="8.0308977"><ele>687.6666666666666</ele><time>2026-04-11T11:26:03.636Z</time></trkpt><trkpt lat="44.5441335" lon="8.0308393"><ele>685.0</ele><time>2026-04-11T11:26:04.636Z</time></trkpt><trkpt lat="44.5441933" lon="8.0307689"><ele>682.3333333333333</ele><time>2026-04-11T11:26:05.636Z</time></trkpt><trkpt lat="44.5442392" lon="8.0306801"><ele>679.6666666666666</ele><time>2026-04-11T11:26:06.636Z</time></trkpt><trkpt lat="44.5442913" lon="8.030593"><ele>677.0</ele><time>2026-04-11T11:26:07.636Z</time></trkpt><trkpt lat="44.5443305" lon="8.0305163"><ele>677.0</ele><time>2026-04-11T11:26:08.637Z</time></trkpt><trkpt lat="44.5443777" lon="8.0304537"><ele>677.0</ele><time>2026-04-11T11:26:09.636Z</time></trkpt><trkpt lat="44.5444165" lon="8.0303553"><ele>677.0</ele><time>2026-04-11T11:26:10.636Z</time></trkpt><trkpt lat="44.5444519" lon="8.0302647"><ele>677.0</ele><time>2026-04-11T11:26:11.636Z</time></trkpt><trkpt lat="44.5445317" lon="8.0300989"><ele>677.0</ele><time>2026-04-11T11:26:13.636Z</time></trkpt><trkpt lat="44.5445705" lon="8.0300134"><ele>677.0</ele><time>2026-04-11T11:26:14.636Z</time></trkpt><trkpt lat="44.5446476" lon="8.0299799"><ele>673.8333333333333</ele><time>2026-04-11T11:26:16.636Z</time></trkpt><trkpt lat="44.5447046" lon="8.0299396"><ele>670.6666666666666</ele><time>2026-04-11T11:26:17.636Z</time></trkpt><trkpt lat="44.5447706" lon="8.0298336"><ele>667.5</ele><time>2026-04-11T11:26:18.636Z</time></trkpt><trkpt lat="44.5448509" lon="8.0297105"><ele>664.3333333333334</ele><time>2026-04-11T11:26:19.636Z</time></trkpt><trkpt lat="44.5449125" lon="8.0296036"><ele>661.1666666666667</ele><time>2026-04-11T11:26:20.636Z</time></trkpt><trkpt lat="44.5449585" lon="8.0295358"><ele>658.0</ele><time>2026-04-11T11:26:21.636Z</time></trkpt><trkpt lat="44.5450209" lon="8.0294659"><ele>658.0</ele><time>2026-04-11T11:26:22.636Z</time></trkpt><trkpt lat="44.5450664" lon="8.0293947"><ele>658.0</ele><time>2026-04-11T11:26:23.636Z</time></trkpt><trkpt lat="44.5451129" lon="8.029318"><ele>658.0</ele><time>2026-04-11T11:26:24.637Z</time></trkpt><trkpt lat="44.5451715" lon="8.0292222"><ele>658.0</ele><time>2026-04-11T11:26:26.636Z</time></trkpt><trkpt lat="44.5452274" lon="8.0291685"><ele>658.0</ele><time>2026-04-11T11:26:28.636Z</time></trkpt><trkpt lat="44.5452561" lon="8.0290406"><ele>658.0</ele><time>2026-04-11T11:26:30.636Z</time></trkpt><trkpt lat="44.545353" lon="8.0289143"><ele>654.8333333333334</ele><time>2026-04-11T11:26:32.636Z</time></trkpt><trkpt lat="44.5454117" lon="8.028852"><ele>651.6666666666667</ele><time>2026-04-11T11:26:33.636Z</time></trkpt><trkpt lat="44.545487" lon="8.0287955"><ele>648.5</ele><time>2026-04-11T11:26:35.636Z</time></trkpt><trkpt lat="44.5455" lon="8.0286867"><ele>645.3333333333334</ele><time>2026-04-11T11:26:37.636Z</time></trkpt><trkpt lat="44.5454987" lon="8.0285747"><ele>642.1666666666666</ele><time>2026-04-11T11:26:39.636Z</time></trkpt><trkpt lat="44.5455343" lon="8.028458"><ele>639.0</ele><time>2026-04-11T11:26:42.636Z</time></trkpt><trkpt lat="44.5455632" lon="8.0283637"><ele>639.6666666666666</ele><time>2026-04-11T11:26:45.636Z</time></trkpt><trkpt lat="44.545591" lon="8.0282741"><ele>640.3333333333334</ele><time>2026-04-11T11:26:46.636Z</time></trkpt><trkpt lat="44.5456326" lon="8.0281885"><ele>641.0</ele><time>2026-04-11T11:26:47.636Z</time></trkpt><trkpt lat="44.5456604" lon="8.0280771"><ele>641.6666666666667</ele><time>2026-04-11T11:26:49.636Z</time></trkpt><trkpt lat="44.5456929" lon="8.0279922"><ele>642.3333333333334</ele><time>2026-04-11T11:26:52.636Z</time></trkpt><trkpt lat="44.5457695" lon="8.0279046"><ele>643.0</ele><time>2026-04-11T11:26:54.636Z</time></trkpt><trkpt lat="44.5458537" lon="8.0278284"><ele>643.0</ele><time>2026-04-11T11:26:56.636Z</time></trkpt><trkpt lat="44.54591" lon="8.0277557"><ele>643.0</ele><time>2026-04-11T11:26:57.636Z</time></trkpt><trkpt lat="44.545997" lon="8.0276858"><ele>643.0</ele><time>2026-04-11T11:26:59.636Z</time></trkpt><trkpt lat="44.5460882" lon="8.0275736"><ele>643.0</ele><time>2026-04-11T11:27:01.636Z</time></trkpt><trkpt lat="44.5461757" lon="8.0274574"><ele>643.0</ele><time>2026-04-11T11:27:03.636Z</time></trkpt><trkpt lat="44.5462268" lon="8.0273762"><ele>641.8</ele><time>2026-04-11T11:27:05.636Z</time></trkpt><trkpt lat="44.5462022" lon="8.0272593"><ele>640.5999999999999</ele><time>2026-04-11T11:27:07.636Z</time></trkpt><trkpt lat="44.5461483" lon="8.027124"><ele>639.4000000000001</ele><time>2026-04-11T11:27:09.636Z</time></trkpt><trkpt lat="44.5460646" lon="8.0270032"><ele>638.2</ele><time>2026-04-11T11:27:11.636Z</time></trkpt><trkpt lat="44.5460285" lon="8.0269232"><ele>637.0</ele><time>2026-04-11T11:27:12.636Z</time></trkpt><trkpt lat="44.5459884" lon="8.0268364"><ele>637.0</ele><time>2026-04-11T11:27:13.636Z</time></trkpt><trkpt lat="44.5459051" lon="8.0266852"><ele>637.0</ele><time>2026-04-11T11:27:15.636Z</time></trkpt><trkpt lat="44.5458318" lon="8.0265388"><ele>637.0</ele><time>2026-04-11T11:27:16.636Z</time></trkpt><trkpt lat="44.5458031" lon="8.0264411"><ele>637.0</ele><time>2026-04-11T11:27:18.636Z</time></trkpt><trkpt lat="44.5457114" lon="8.0263591"><ele>637.0</ele><time>2026-04-11T11:27:22.636Z</time></trkpt><trkpt lat="44.5456579" lon="8.0263013"><ele>636.5</ele><time>2026-04-11T11:27:26.636Z</time></trkpt><trkpt lat="44.5456053" lon="8.0262456"><ele>636.0</ele><time>2026-04-11T11:27:35.636Z</time></trkpt><trkpt lat="44.5455127" lon="8.026111"><ele>635.5</ele><time>2026-04-11T11:27:45.636Z</time></trkpt><trkpt lat="44.5455085" lon="8.0259959"><ele>635.0</ele><time>2026-04-11T11:27:52.636Z</time></trkpt><trkpt lat="44.5454402" lon="8.0259575"><ele>634.5</ele><time>2026-04-11T11:28:00.636Z</time></trkpt><trkpt lat="44.5454407" lon="8.025859"><ele>634.0</ele><time>2026-04-11T11:28:06.636Z</time></trkpt><trkpt lat="44.5455089" lon="8.0257972"><ele>634.0</ele><time>2026-04-11T11:28:08.636Z</time></trkpt><trkpt lat="44.5456027" lon="8.0258391"><ele>634.0</ele><time>2026-04-11T11:28:10.636Z</time></trkpt><trkpt lat="44.5456437" lon="8.0257678"><ele>634.0</ele><time>2026-04-11T11:28:21.636Z</time></trkpt><trkpt lat="44.5456463" lon="8.0256663"><ele>634.0</ele><time>2026-04-11T11:28:32.657Z</time></trkpt><trkpt lat="44.5456354" lon="8.0255743"><ele>634.0</ele><time>2026-04-11T11:28:36.595Z</time></trkpt><trkpt lat="44.5456404" lon="8.0254812"><ele>634.0</ele><time>2026-04-11T11:28:42.725Z</time></trkpt><trkpt lat="44.5456298" lon="8.025355"><ele>634.0</ele><time>2026-04-11T11:28:47.751Z</time></trkpt><trkpt lat="44.5456017" lon="8.0252741"><ele>634.0</ele><time>2026-04-11T11:28:54.691Z</time></trkpt><trkpt lat="44.5455581" lon="8.0251987"><ele>634.0</ele><time>2026-04-11T11:29:00.674Z</time></trkpt><trkpt lat="44.5454601" lon="8.0251485"><ele>634.0</ele><time>2026-04-11T11:29:27.636Z</time></trkpt><trkpt lat="44.5453954" lon="8.0251748"><ele>634.0</ele><time>2026-04-11T11:29:29.636Z</time></trkpt><trkpt lat="44.5452953" lon="8.0251768"><ele>634.0</ele><time>2026-04-11T11:29:32.783Z</time></trkpt><trkpt lat="44.5452221" lon="8.025117"><ele>635.6666666666667</ele><time>2026-04-11T11:29:35.406Z</time></trkpt><trkpt lat="44.5451569" lon="8.0250427"><ele>637.3333333333334</ele><time>2026-04-11T11:29:38.694Z</time></trkpt><trkpt lat="44.5450974" lon="8.0249805"><ele>639.0</ele><time>2026-04-11T11:29:42.745Z</time></trkpt><trkpt lat="44.5450295" lon="8.0249535"><ele>640.6666666666666</ele><time>2026-04-11T11:29:47.636Z</time></trkpt><trkpt lat="44.5449766" lon="8.0248814"><ele>642.3333333333333</ele><time>2026-04-11T11:29:49.636Z</time></trkpt><trkpt lat="44.5450169" lon="8.024797"><ele>644.0</ele><time>2026-04-11T11:29:54.636Z</time></trkpt><trkpt lat="44.5449664" lon="8.024699"><ele>644.0</ele><time>2026-04-11T11:30:08.636Z</time></trkpt><trkpt lat="44.5449221" lon="8.024604"><ele>644.0</ele><time>2026-04-11T11:30:09.636Z</time></trkpt><trkpt lat="44.5448844" lon="8.0244448"><ele>644.0</ele><time>2026-04-11T11:30:13.636Z</time></trkpt><trkpt lat="44.5448695" lon="8.0243467"><ele>644.0</ele><time>2026-04-11T11:30:19.637Z</time></trkpt><trkpt lat="44.5448218" lon="8.0242715"><ele>644.0</ele><time>2026-04-11T11:30:21.636Z</time></trkpt><trkpt lat="44.5447779" lon="8.0241756"><ele>644.0</ele><time>2026-04-11T11:30:24.636Z</time></trkpt><trkpt lat="44.5447205" lon="8.0240627"><ele>644.4000000000001</ele><time>2026-04-11T11:30:26.636Z</time></trkpt><trkpt lat="44.5446736" lon="8.023967"><ele>644.8</ele><time>2026-04-11T11:30:27.636Z</time></trkpt><trkpt lat="44.5445913" lon="8.0238093"><ele>645.2</ele><time>2026-04-11T11:30:28.636Z</time></trkpt><trkpt lat="44.5445132" lon="8.0237709"><ele>645.5999999999999</ele><time>2026-04-11T11:30:30.636Z</time></trkpt><trkpt lat="44.5444517" lon="8.0237173"><ele>646.0</ele><time>2026-04-11T11:30:31.636Z</time></trkpt><trkpt lat="44.5443752" lon="8.0236431"><ele>646.0</ele><time>2026-04-11T11:30:32.636Z</time></trkpt><trkpt lat="44.5442944" lon="8.02358"><ele>646.0</ele><time>2026-04-11T11:30:34.636Z</time></trkpt><trkpt lat="44.5442285" lon="8.0235241"><ele>646.0</ele><time>2026-04-11T11:30:36.636Z</time></trkpt><trkpt lat="44.5440836" lon="8.0234413"><ele>646.0</ele><time>2026-04-11T11:30:44.636Z</time></trkpt><trkpt lat="44.5439982" lon="8.0233351"><ele>646.0</ele><time>2026-04-11T11:30:46.636Z</time></trkpt><trkpt lat="44.543946" lon="8.0231882"><ele>644.0</ele><time>2026-04-11T11:30:48.636Z</time></trkpt><trkpt lat="44.5439233" lon="8.0231016"><ele>642.0</ele><time>2026-04-11T11:30:49.636Z</time></trkpt><trkpt lat="44.5438369" lon="8.0230402"><ele>640.0</ele><time>2026-04-11T11:30:51.636Z</time></trkpt><trkpt lat="44.5437572" lon="8.0229317"><ele>638.0</ele><time>2026-04-11T11:30:53.636Z</time></trkpt><trkpt lat="44.5436723" lon="8.0228616"><ele>636.0</ele><time>2026-04-11T11:30:55.636Z</time></trkpt><trkpt lat="44.5436148" lon="8.0227089"><ele>636.0</ele><time>2026-04-11T11:30:57.636Z</time></trkpt><trkpt lat="44.5435646" lon="8.022561"><ele>636.0</ele><time>2026-04-11T11:30:59.636Z</time></trkpt><trkpt lat="44.543533" lon="8.0224138"><ele>636.0</ele><time>2026-04-11T11:31:01.636Z</time></trkpt><trkpt lat="44.5434513" lon="8.0222682"><ele>636.0</ele><time>2026-04-11T11:31:03.636Z</time></trkpt><trkpt lat="44.5433946" lon="8.0221815"><ele>636.0</ele><time>2026-04-11T11:31:04.636Z</time></trkpt><trkpt lat="44.543342" lon="8.0220946"><ele>635.5</ele><time>2026-04-11T11:31:05.636Z</time></trkpt><trkpt lat="44.543302" lon="8.0220239"><ele>635.0</ele><time>2026-04-11T11:31:06.636Z</time></trkpt><trkpt lat="44.5432871" lon="8.0219327"><ele>634.5</ele><time>2026-04-11T11:31:07.636Z</time></trkpt><trkpt lat="44.5431595" lon="8.0218279"><ele>634.0</ele><time>2026-04-11T11:31:09.636Z</time></trkpt><trkpt lat="44.54313" lon="8.021728"><ele>633.5</ele><time>2026-04-11T11:31:10.636Z</time></trkpt><trkpt lat="44.543117" lon="8.0216235"><ele>633.0</ele><time>2026-04-11T11:31:11.636Z</time></trkpt><trkpt lat="44.5430826" lon="8.0214588"><ele>632.1428571428571</ele><time>2026-04-11T11:31:13.637Z</time></trkpt><trkpt lat="44.5430392" lon="8.0213823"><ele>631.2857142857143</ele><time>2026-04-11T11:31:14.637Z</time></trkpt><trkpt lat="44.5430087" lon="8.0212968"><ele>630.4285714285714</ele><time>2026-04-11T11:31:15.637Z</time></trkpt><trkpt lat="44.5429734" lon="8.0212021"><ele>629.5714285714286</ele><time>2026-04-11T11:31:16.637Z</time></trkpt><trkpt lat="44.5429381" lon="8.0211155"><ele>628.7142857142857</ele><time>2026-04-11T11:31:17.637Z</time></trkpt><trkpt lat="44.5429046" lon="8.0210224"><ele>627.8571428571429</ele><time>2026-04-11T11:31:18.638Z</time></trkpt><trkpt lat="44.5428589" lon="8.0209554"><ele>627.0</ele><time>2026-04-11T11:31:19.637Z</time></trkpt><trkpt lat="44.5428207" lon="8.0208659"><ele>626.4</ele><time>2026-04-11T11:31:20.637Z</time></trkpt><trkpt lat="44.5427667" lon="8.0207725"><ele>625.8000000000001</ele><time>2026-04-11T11:31:21.637Z</time></trkpt><trkpt lat="44.5427042" lon="8.0206794"><ele>625.2</ele><time>2026-04-11T11:31:22.637Z</time></trkpt><trkpt lat="44.5426464" lon="8.0205749"><ele>624.6</ele><time>2026-04-11T11:31:23.637Z</time></trkpt><trkpt lat="44.5425997" lon="8.0204611"><ele>624.0</ele><time>2026-04-11T11:31:24.637Z</time></trkpt><trkpt lat="44.5425585" lon="8.02033"><ele>624.0</ele><time>2026-04-11T11:31:25.637Z</time></trkpt><trkpt lat="44.5425178" lon="8.0202109"><ele>624.0</ele><time>2026-04-11T11:31:26.638Z</time></trkpt><trkpt lat="44.5424676" lon="8.020094"><ele>624.0</ele><time>2026-04-11T11:31:27.637Z</time></trkpt><trkpt lat="44.5424244" lon="8.0199734"><ele>624.0</ele><time>2026-04-11T11:31:28.637Z</time></trkpt><trkpt lat="44.5423843" lon="8.0198563"><ele>624.0</ele><time>2026-04-11T11:31:29.637Z</time></trkpt><trkpt lat="44.5423511" lon="8.0197461"><ele>623.6666666666666</ele><time>2026-04-11T11:31:30.637Z</time></trkpt><trkpt lat="44.5423119" lon="8.0196343"><ele>623.3333333333334</ele><time>2026-04-11T11:31:31.637Z</time></trkpt><trkpt lat="44.5422793" lon="8.0195222"><ele>623.0</ele><time>2026-04-11T11:31:32.637Z</time></trkpt><trkpt lat="44.5422385" lon="8.0194161"><ele>622.6666666666667</ele><time>2026-04-11T11:31:33.637Z</time></trkpt><trkpt lat="44.5421968" lon="8.0193113"><ele>622.3333333333334</ele><time>2026-04-11T11:31:34.637Z</time></trkpt><trkpt lat="44.5421514" lon="8.0192025"><ele>622.0</ele><time>2026-04-11T11:31:35.637Z</time></trkpt><trkpt lat="44.5421109" lon="8.0191005"><ele>622.1666666666667</ele><time>2026-04-11T11:31:36.637Z</time></trkpt><trkpt lat="44.5420699" lon="8.0189945"><ele>622.3333333333334</ele><time>2026-04-11T11:31:37.637Z</time></trkpt><trkpt lat="44.5420296" lon="8.0188869"><ele>622.5</ele><time>2026-04-11T11:31:38.637Z</time></trkpt><trkpt lat="44.5419948" lon="8.0187827"><ele>622.6666666666666</ele><time>2026-04-11T11:31:39.637Z</time></trkpt><trkpt lat="44.5419587" lon="8.0186793"><ele>622.8333333333333</ele><time>2026-04-11T11:31:40.637Z</time></trkpt><trkpt lat="44.5419152" lon="8.0185855"><ele>623.0</ele><time>2026-04-11T11:31:41.637Z</time></trkpt><trkpt lat="44.5418477" lon="8.0185198"><ele>623.0</ele><time>2026-04-11T11:31:42.637Z</time></trkpt><trkpt lat="44.5417642" lon="8.0184806"><ele>623.0</ele><time>2026-04-11T11:31:43.637Z</time></trkpt><trkpt lat="44.5416886" lon="8.0184414"><ele>623.0</ele><time>2026-04-11T11:31:44.637Z</time></trkpt><trkpt lat="44.5416217" lon="8.0184012"><ele>623.0</ele><time>2026-04-11T11:31:45.637Z</time></trkpt><trkpt lat="44.5415502" lon="8.0183414"><ele>623.0</ele><time>2026-04-11T11:31:46.637Z</time></trkpt><trkpt lat="44.5414997" lon="8.0182446"><ele>623.0</ele><time>2026-04-11T11:31:47.637Z</time></trkpt><trkpt lat="44.5414477" lon="8.0181784"><ele>621.6666666666666</ele><time>2026-04-11T11:31:48.637Z</time></trkpt><trkpt lat="44.5414137" lon="8.01809"><ele>620.3333333333333</ele><time>2026-04-11T11:31:49.637Z</time></trkpt><trkpt lat="44.5413664" lon="8.0180062"><ele>619.0</ele><time>2026-04-11T11:31:50.637Z</time></trkpt><trkpt lat="44.5413183" lon="8.0179203"><ele>617.6666666666666</ele><time>2026-04-11T11:31:51.637Z</time></trkpt><trkpt lat="44.5412661" lon="8.0178257"><ele>616.3333333333334</ele><time>2026-04-11T11:31:52.637Z</time></trkpt><trkpt lat="44.541216" lon="8.0177263"><ele>615.0</ele><time>2026-04-11T11:31:53.637Z</time></trkpt><trkpt lat="44.5411529" lon="8.0176307"><ele>614.8</ele><time>2026-04-11T11:31:54.637Z</time></trkpt><trkpt lat="44.5410919" lon="8.0175262"><ele>614.6</ele><time>2026-04-11T11:31:55.637Z</time></trkpt><trkpt lat="44.541032" lon="8.0174229"><ele>614.4</ele><time>2026-04-11T11:31:56.637Z</time></trkpt><trkpt lat="44.5409672" lon="8.0173145"><ele>614.2</ele><time>2026-04-11T11:31:57.637Z</time></trkpt><trkpt lat="44.5409066" lon="8.0171988"><ele>614.0</ele><time>2026-04-11T11:31:58.644Z</time></trkpt><trkpt lat="44.5408453" lon="8.0170776"><ele>614.0</ele><time>2026-04-11T11:31:59.644Z</time></trkpt><trkpt lat="44.540784" lon="8.0169585"><ele>614.0</ele><time>2026-04-11T11:32:00.644Z</time></trkpt><trkpt lat="44.5407235" lon="8.0168316"><ele>614.0</ele><time>2026-04-11T11:32:01.644Z</time></trkpt><trkpt lat="44.5406634" lon="8.0167033"><ele>614.0</ele><time>2026-04-11T11:32:02.644Z</time></trkpt><trkpt lat="44.5406002" lon="8.0165749"><ele>614.0</ele><time>2026-04-11T11:32:03.644Z</time></trkpt><trkpt lat="44.540536" lon="8.0164503"><ele>613.6</ele><time>2026-04-11T11:32:04.644Z</time></trkpt><trkpt lat="44.540471" lon="8.016331"><ele>613.2</ele><time>2026-04-11T11:32:05.645Z</time></trkpt><trkpt lat="44.5404131" lon="8.0162045"><ele>612.8000000000001</ele><time>2026-04-11T11:32:06.644Z</time></trkpt><trkpt lat="44.5403609" lon="8.0160741"><ele>612.4</ele><time>2026-04-11T11:32:07.644Z</time></trkpt><trkpt lat="44.5402997" lon="8.0159352"><ele>612.0</ele><time>2026-04-11T11:32:08.644Z</time></trkpt><trkpt lat="44.5402291" lon="8.0157976"><ele>611.0</ele><time>2026-04-11T11:32:09.644Z</time></trkpt><trkpt lat="44.5401858" lon="8.015651"><ele>610.0</ele><time>2026-04-11T11:32:10.644Z</time></trkpt><trkpt lat="44.5401545" lon="8.0155148"><ele>609.0</ele><time>2026-04-11T11:32:11.644Z</time></trkpt><trkpt lat="44.5401196" lon="8.0153756"><ele>608.0</ele><time>2026-04-11T11:32:12.644Z</time></trkpt><trkpt lat="44.5400761" lon="8.0152512"><ele>607.0</ele><time>2026-04-11T11:32:13.644Z</time></trkpt><trkpt lat="44.5400294" lon="8.0151299"><ele>607.0</ele><time>2026-04-11T11:32:14.644Z</time></trkpt><trkpt lat="44.5399789" lon="8.0150105"><ele>607.0</ele><time>2026-04-11T11:32:15.644Z</time></trkpt><trkpt lat="44.5399212" lon="8.0148945"><ele>607.0</ele><time>2026-04-11T11:32:16.645Z</time></trkpt><trkpt lat="44.5398634" lon="8.0147792"><ele>607.0</ele><time>2026-04-11T11:32:17.644Z</time></trkpt><trkpt lat="44.539812" lon="8.0146624"><ele>607.0</ele><time>2026-04-11T11:32:18.644Z</time></trkpt><trkpt lat="44.5397624" lon="8.0145345"><ele>606.6</ele><time>2026-04-11T11:32:19.644Z</time></trkpt><trkpt lat="44.5397152" lon="8.0144039"><ele>606.2</ele><time>2026-04-11T11:32:20.644Z</time></trkpt><trkpt lat="44.539684" lon="8.0142896"><ele>605.8</ele><time>2026-04-11T11:32:21.644Z</time></trkpt><trkpt lat="44.5396263" lon="8.0141807"><ele>605.4</ele><time>2026-04-11T11:32:22.644Z</time></trkpt><trkpt lat="44.5395462" lon="8.0140858"><ele>605.0</ele><time>2026-04-11T11:32:23.644Z</time></trkpt><trkpt lat="44.5394674" lon="8.0139917"><ele>604.75</ele><time>2026-04-11T11:32:24.644Z</time></trkpt><trkpt lat="44.5393873" lon="8.0139081"><ele>604.5</ele><time>2026-04-11T11:32:25.644Z</time></trkpt><trkpt lat="44.5392921" lon="8.0138027"><ele>604.25</ele><time>2026-04-11T11:32:26.644Z</time></trkpt><trkpt lat="44.5392042" lon="8.013679"><ele>604.0</ele><time>2026-04-11T11:32:27.644Z</time></trkpt><trkpt lat="44.5391195" lon="8.0135783"><ele>604.0</ele><time>2026-04-11T11:32:28.644Z</time></trkpt><trkpt lat="44.5390444" lon="8.0134376"><ele>604.0</ele><time>2026-04-11T11:32:29.644Z</time></trkpt><trkpt lat="44.5389848" lon="8.0132807"><ele>604.0</ele><time>2026-04-11T11:32:30.644Z</time></trkpt><trkpt lat="44.5389179" lon="8.0131286"><ele>604.0</ele><time>2026-04-11T11:32:31.644Z</time></trkpt><trkpt lat="44.5388615" lon="8.0129646"><ele>604.2</ele><time>2026-04-11T11:32:32.644Z</time></trkpt><trkpt lat="44.5388084" lon="8.01286"><ele>604.4</ele><time>2026-04-11T11:32:33.644Z</time></trkpt><trkpt lat="44.5387378" lon="8.0127497"><ele>604.6</ele><time>2026-04-11T11:32:34.644Z</time></trkpt><trkpt lat="44.5386528" lon="8.0126663"><ele>604.8</ele><time>2026-04-11T11:32:35.644Z</time></trkpt><trkpt lat="44.5385972" lon="8.0125311"><ele>605.0</ele><time>2026-04-11T11:32:36.644Z</time></trkpt><trkpt lat="44.5385632" lon="8.0123809"><ele>601.6</ele><time>2026-04-11T11:32:37.644Z</time></trkpt><trkpt lat="44.5385403" lon="8.0122464"><ele>598.2</ele><time>2026-04-11T11:32:38.644Z</time></trkpt><trkpt lat="44.5384931" lon="8.0121105"><ele>594.8</ele><time>2026-04-11T11:32:39.644Z</time></trkpt><trkpt lat="44.5384281" lon="8.0119973"><ele>591.4</ele><time>2026-04-11T11:32:40.644Z</time></trkpt><trkpt lat="44.5383521" lon="8.0118979"><ele>588.0</ele><time>2026-04-11T11:32:41.644Z</time></trkpt><trkpt lat="44.5382716" lon="8.0118094"><ele>588.0</ele><time>2026-04-11T11:32:42.644Z</time></trkpt><trkpt lat="44.5382143" lon="8.0117012"><ele>588.0</ele><time>2026-04-11T11:32:43.644Z</time></trkpt><trkpt lat="44.5381685" lon="8.0115666"><ele>588.0</ele><time>2026-04-11T11:32:44.644Z</time></trkpt><trkpt lat="44.5381384" lon="8.0114137"><ele>588.0</ele><time>2026-04-11T11:32:45.644Z</time></trkpt><trkpt lat="44.5381045" lon="8.0112894"><ele>588.0</ele><time>2026-04-11T11:32:46.644Z</time></trkpt><trkpt lat="44.5380668" lon="8.0111381"><ele>589.6</ele><time>2026-04-11T11:32:47.644Z</time></trkpt><trkpt lat="44.5380255" lon="8.01099"><ele>591.1999999999999</ele><time>2026-04-11T11:32:48.644Z</time></trkpt><trkpt lat="44.5379674" lon="8.0108667"><ele>592.8</ele><time>2026-04-11T11:32:49.644Z</time></trkpt><trkpt lat="44.5379066" lon="8.0107375"><ele>594.4</ele><time>2026-04-11T11:32:50.644Z</time></trkpt><trkpt lat="44.5378481" lon="8.0106206"><ele>596.0</ele><time>2026-04-11T11:32:51.644Z</time></trkpt><trkpt lat="44.5377874" lon="8.0105024"><ele>591.0</ele><time>2026-04-11T11:32:52.644Z</time></trkpt><trkpt lat="44.5377475" lon="8.0103722"><ele>586.0</ele><time>2026-04-11T11:32:53.644Z</time></trkpt><trkpt lat="44.5377232" lon="8.0102324"><ele>581.0</ele><time>2026-04-11T11:32:54.644Z</time></trkpt><trkpt lat="44.5376993" lon="8.0101022"><ele>576.0</ele><time>2026-04-11T11:32:55.644Z</time></trkpt><trkpt lat="44.5376689" lon="8.0099656"><ele>571.0</ele><time>2026-04-11T11:32:56.644Z</time></trkpt><trkpt lat="44.5376176" lon="8.009856"><ele>571.0</ele><time>2026-04-11T11:32:57.644Z</time></trkpt><trkpt lat="44.5375488" lon="8.0097221"><ele>571.0</ele><time>2026-04-11T11:32:58.644Z</time></trkpt><trkpt lat="44.5375158" lon="8.0095813"><ele>571.0</ele><time>2026-04-11T11:32:59.644Z</time></trkpt><trkpt lat="44.5375041" lon="8.0094474"><ele>571.0</ele><time>2026-04-11T11:33:00.644Z</time></trkpt><trkpt lat="44.5375059" lon="8.0093074"><ele>571.0</ele><time>2026-04-11T11:33:01.644Z</time></trkpt><trkpt lat="44.5375246" lon="8.009162"><ele>570.5</ele><time>2026-04-11T11:33:02.644Z</time></trkpt><trkpt lat="44.5375098" lon="8.009015"><ele>570.0</ele><time>2026-04-11T11:33:03.644Z</time></trkpt><trkpt lat="44.5374874" lon="8.0088543"><ele>569.5</ele><time>2026-04-11T11:33:04.644Z</time></trkpt><trkpt lat="44.5374467" lon="8.008687"><ele>569.0</ele><time>2026-04-11T11:33:05.644Z</time></trkpt><trkpt lat="44.537414" lon="8.0085308"><ele>569.0</ele><time>2026-04-11T11:33:06.644Z</time></trkpt><trkpt lat="44.5374103" lon="8.0083842"><ele>569.0</ele><time>2026-04-11T11:33:07.644Z</time></trkpt><trkpt lat="44.5374127" lon="8.0082304"><ele>569.0</ele><time>2026-04-11T11:33:08.644Z</time></trkpt><trkpt lat="44.5374184" lon="8.0080824"><ele>569.0</ele><time>2026-04-11T11:33:09.644Z</time></trkpt><trkpt lat="44.5374183" lon="8.007937"><ele>569.0</ele><time>2026-04-11T11:33:10.644Z</time></trkpt><trkpt lat="44.5374173" lon="8.0077937"><ele>569.0</ele><time>2026-04-11T11:33:11.644Z</time></trkpt><trkpt lat="44.5374062" lon="8.007653"><ele>569.0</ele><time>2026-04-11T11:33:12.644Z</time></trkpt><trkpt lat="44.5373857" lon="8.0075212"><ele>569.0</ele><time>2026-04-11T11:33:13.644Z</time></trkpt><trkpt lat="44.5373686" lon="8.0073909"><ele>569.0</ele><time>2026-04-11T11:33:14.644Z</time></trkpt><trkpt lat="44.5373646" lon="8.0072717"><ele>569.0</ele><time>2026-04-11T11:33:15.644Z</time></trkpt><trkpt lat="44.5373555" lon="8.0071551"><ele>568.8333333333333</ele><time>2026-04-11T11:33:16.644Z</time></trkpt><trkpt lat="44.5373503" lon="8.0070378"><ele>568.6666666666666</ele><time>2026-04-11T11:33:17.644Z</time></trkpt><trkpt lat="44.5373421" lon="8.0069144"><ele>568.5</ele><time>2026-04-11T11:33:18.644Z</time></trkpt><trkpt lat="44.5373302" lon="8.0067884"><ele>568.3333333333334</ele><time>2026-04-11T11:33:19.644Z</time></trkpt><trkpt lat="44.537315" lon="8.0066599"><ele>568.1666666666667</ele><time>2026-04-11T11:33:20.644Z</time></trkpt><trkpt lat="44.5373074" lon="8.0065396"><ele>568.0</ele><time>2026-04-11T11:33:21.644Z</time></trkpt><trkpt lat="44.5373076" lon="8.0064243"><ele>567.1666666666667</ele><time>2026-04-11T11:33:22.644Z</time></trkpt><trkpt lat="44.5373045" lon="8.0063142"><ele>566.3333333333334</ele><time>2026-04-11T11:33:23.644Z</time></trkpt><trkpt lat="44.5373044" lon="8.0062088"><ele>565.5</ele><time>2026-04-11T11:33:24.644Z</time></trkpt><trkpt lat="44.5373075" lon="8.00609"><ele>564.6666666666666</ele><time>2026-04-11T11:33:25.644Z</time></trkpt><trkpt lat="44.5373119" lon="8.0059845"><ele>563.8333333333333</ele><time>2026-04-11T11:33:26.644Z</time></trkpt><trkpt lat="44.5373068" lon="8.0058868"><ele>563.0</ele><time>2026-04-11T11:33:27.644Z</time></trkpt><trkpt lat="44.5372943" lon="8.0057902"><ele>562.6666666666666</ele><time>2026-04-11T11:33:28.644Z</time></trkpt><trkpt lat="44.5372843" lon="8.0056833"><ele>562.3333333333333</ele><time>2026-04-11T11:33:29.644Z</time></trkpt><trkpt lat="44.5372935" lon="8.0055815"><ele>562.0</ele><time>2026-04-11T11:33:30.644Z</time></trkpt><trkpt lat="44.5373039" lon="8.0054636"><ele>561.6666666666666</ele><time>2026-04-11T11:33:31.644Z</time></trkpt><trkpt lat="44.5373093" lon="8.0053476"><ele>561.3333333333334</ele><time>2026-04-11T11:33:32.644Z</time></trkpt><trkpt lat="44.537307" lon="8.0052456"><ele>561.0</ele><time>2026-04-11T11:33:33.644Z</time></trkpt><trkpt lat="44.5372699" lon="8.0050988"><ele>561.0</ele><time>2026-04-11T11:33:35.644Z</time></trkpt><trkpt lat="44.5371643" lon="8.0051293"><ele>561.0</ele><time>2026-04-11T11:33:37.644Z</time></trkpt><trkpt lat="44.5371369" lon="8.0052676"><ele>561.0</ele><time>2026-04-11T11:33:38.644Z</time></trkpt><trkpt lat="44.5371303" lon="8.005373"><ele>561.0</ele><time>2026-04-11T11:33:39.644Z</time></trkpt><trkpt lat="44.5371251" lon="8.005501"><ele>561.0</ele><time>2026-04-11T11:33:40.644Z</time></trkpt><trkpt lat="44.5371225" lon="8.0056441"><ele>561.0</ele><time>2026-04-11T11:33:41.644Z</time></trkpt><trkpt lat="44.5371201" lon="8.0057837"><ele>561.0</ele><time>2026-04-11T11:33:42.644Z</time></trkpt><trkpt lat="44.5371059" lon="8.0059151"><ele>561.0</ele><time>2026-04-11T11:33:43.644Z</time></trkpt><trkpt lat="44.5370834" lon="8.0060407"><ele>561.0</ele><time>2026-04-11T11:33:44.644Z</time></trkpt><trkpt lat="44.5370624" lon="8.0061617"><ele>561.0</ele><time>2026-04-11T11:33:45.644Z</time></trkpt><trkpt lat="44.5370537" lon="8.0062848"><ele>556.8</ele><time>2026-04-11T11:33:46.644Z</time></trkpt><trkpt lat="44.537037" lon="8.0064139"><ele>552.6</ele><time>2026-04-11T11:33:47.644Z</time></trkpt><trkpt lat="44.5370251" lon="8.006544"><ele>548.4</ele><time>2026-04-11T11:33:48.644Z</time></trkpt><trkpt lat="44.5370244" lon="8.0066641"><ele>544.2</ele><time>2026-04-11T11:33:49.644Z</time></trkpt><trkpt lat="44.5370384" lon="8.0067961"><ele>540.0</ele><time>2026-04-11T11:33:50.644Z</time></trkpt><trkpt lat="44.5370513" lon="8.0069161"><ele>545.6</ele><time>2026-04-11T11:33:51.644Z</time></trkpt><trkpt lat="44.5370646" lon="8.0070371"><ele>551.2</ele><time>2026-04-11T11:33:52.644Z</time></trkpt><trkpt lat="44.5370769" lon="8.0071669"><ele>556.8</ele><time>2026-04-11T11:33:53.644Z</time></trkpt><trkpt lat="44.5370786" lon="8.0073003"><ele>562.4</ele><time>2026-04-11T11:33:54.644Z</time></trkpt><trkpt lat="44.537075" lon="8.0074313"><ele>568.0</ele><time>2026-04-11T11:33:55.644Z</time></trkpt><trkpt lat="44.5370651" lon="8.0075716"><ele>568.1999999999999</ele><time>2026-04-11T11:33:56.644Z</time></trkpt><trkpt lat="44.5370597" lon="8.007715"><ele>568.4</ele><time>2026-04-11T11:33:57.644Z</time></trkpt><trkpt lat="44.5370948" lon="8.0078452"><ele>568.5999999999999</ele><time>2026-04-11T11:33:58.644Z</time></trkpt><trkpt lat="44.537136" lon="8.0079971"><ele>568.8</ele><time>2026-04-11T11:33:59.645Z</time></trkpt><trkpt lat="44.5371394" lon="8.0081379"><ele>569.0</ele><time>2026-04-11T11:34:00.644Z</time></trkpt><trkpt lat="44.537126" lon="8.0082767"><ele>569.0</ele><time>2026-04-11T11:34:01.644Z</time></trkpt><trkpt lat="44.53711" lon="8.0084115"><ele>569.0</ele><time>2026-04-11T11:34:02.644Z</time></trkpt><trkpt lat="44.5370825" lon="8.0085301"><ele>569.0</ele><time>2026-04-11T11:34:03.644Z</time></trkpt><trkpt lat="44.5370648" lon="8.008721"><ele>569.0</ele><time>2026-04-11T11:34:04.644Z</time></trkpt><trkpt lat="44.5370438" lon="8.0089116"><ele>560.5</ele><time>2026-04-11T11:34:05.644Z</time></trkpt><trkpt lat="44.5370367" lon="8.0090464"><ele>552.0</ele><time>2026-04-11T11:34:06.644Z</time></trkpt><trkpt lat="44.5370293" lon="8.0092016"><ele>543.5</ele><time>2026-04-11T11:34:07.644Z</time></trkpt><trkpt lat="44.5370086" lon="8.0093934"><ele>535.0</ele><time>2026-04-11T11:34:08.644Z</time></trkpt><trkpt lat="44.5369889" lon="8.0095876"><ele>535.0</ele><time>2026-04-11T11:34:09.644Z</time></trkpt><trkpt lat="44.5369703" lon="8.0097504"><ele>535.0</ele><time>2026-04-11T11:34:10.644Z</time></trkpt><trkpt lat="44.5369708" lon="8.0099219"><ele>535.0</ele><time>2026-04-11T11:34:11.644Z</time></trkpt><trkpt lat="44.5370179" lon="8.0101014"><ele>535.0</ele><time>2026-04-11T11:34:12.644Z</time></trkpt><trkpt lat="44.5370772" lon="8.010264"><ele>540.0</ele><time>2026-04-11T11:34:13.644Z</time></trkpt><trkpt lat="44.5371096" lon="8.010385"><ele>545.0</ele><time>2026-04-11T11:34:14.644Z</time></trkpt><trkpt lat="44.5371274" lon="8.0105205"><ele>550.0</ele><time>2026-04-11T11:34:15.644Z</time></trkpt><trkpt lat="44.5371252" lon="8.0106872"><ele>555.0</ele><time>2026-04-11T11:34:16.644Z</time></trkpt><trkpt lat="44.5371004" lon="8.0108197"><ele>560.0</ele><time>2026-04-11T11:34:17.644Z</time></trkpt><trkpt lat="44.5370597" lon="8.0109542"><ele>555.0</ele><time>2026-04-11T11:34:18.644Z</time></trkpt><trkpt lat="44.537032" lon="8.0110743"><ele>550.0</ele><time>2026-04-11T11:34:19.644Z</time></trkpt><trkpt lat="44.5369787" lon="8.0111766"><ele>545.0</ele><time>2026-04-11T11:34:20.645Z</time></trkpt><trkpt lat="44.5369365" lon="8.0112712"><ele>540.0</ele><time>2026-04-11T11:34:21.644Z</time></trkpt><trkpt lat="44.5368908" lon="8.0113407"><ele>535.0</ele><time>2026-04-11T11:34:22.644Z</time></trkpt><trkpt lat="44.5367943" lon="8.0114231"><ele>530.0</ele><time>2026-04-11T11:34:24.644Z</time></trkpt><trkpt lat="44.5366977" lon="8.0114619"><ele>530.0</ele><time>2026-04-11T11:34:26.644Z</time></trkpt><trkpt lat="44.5366256" lon="8.0114733"><ele>530.0</ele><time>2026-04-11T11:34:28.644Z</time></trkpt><trkpt lat="44.5365617" lon="8.0114868"><ele>530.0</ele><time>2026-04-11T11:34:29.644Z</time></trkpt><trkpt lat="44.536506" lon="8.0115684"><ele>530.0</ele><time>2026-04-11T11:34:31.644Z</time></trkpt><trkpt lat="44.536545" lon="8.0116718"><ele>530.0</ele><time>2026-04-11T11:34:33.644Z</time></trkpt><trkpt lat="44.5365909" lon="8.0117892"><ele>530.0</ele><time>2026-04-11T11:34:35.644Z</time></trkpt><trkpt lat="44.5366632" lon="8.0119332"><ele>529.2857142857142</ele><time>2026-04-11T11:34:37.644Z</time></trkpt><trkpt lat="44.5367105" lon="8.0120144"><ele>528.5714285714286</ele><time>2026-04-11T11:34:38.644Z</time></trkpt><trkpt lat="44.5367577" lon="8.0120991"><ele>527.8571428571429</ele><time>2026-04-11T11:34:39.644Z</time></trkpt><trkpt lat="44.5368005" lon="8.0121872"><ele>527.1428571428571</ele><time>2026-04-11T11:34:40.644Z</time></trkpt><trkpt lat="44.5368368" lon="8.012271"><ele>526.4285714285714</ele><time>2026-04-11T11:34:41.644Z</time></trkpt><trkpt lat="44.5368743" lon="8.0123565"><ele>525.7142857142857</ele><time>2026-04-11T11:34:42.644Z</time></trkpt><trkpt lat="44.5369123" lon="8.0124387"><ele>525.0</ele><time>2026-04-11T11:34:43.644Z</time></trkpt><trkpt lat="44.5369485" lon="8.0125233"><ele>524.3333333333334</ele><time>2026-04-11T11:34:44.644Z</time></trkpt><trkpt lat="44.5369808" lon="8.0126292"><ele>523.6666666666666</ele><time>2026-04-11T11:34:45.644Z</time></trkpt><trkpt lat="44.5370154" lon="8.0127186"><ele>523.0</ele><time>2026-04-11T11:34:46.644Z</time></trkpt><trkpt lat="44.5370469" lon="8.0128083"><ele>522.3333333333333</ele><time>2026-04-11T11:34:47.644Z</time></trkpt><trkpt lat="44.5370676" lon="8.012907"><ele>521.6666666666666</ele><time>2026-04-11T11:34:48.644Z</time></trkpt><trkpt lat="44.5370673" lon="8.013019"><ele>521.0</ele><time>2026-04-11T11:34:49.644Z</time></trkpt><trkpt lat="44.5370647" lon="8.0131227"><ele>520.2</ele><time>2026-04-11T11:34:50.644Z</time></trkpt><trkpt lat="44.5370767" lon="8.0132449"><ele>519.4000000000001</ele><time>2026-04-11T11:34:51.644Z</time></trkpt><trkpt lat="44.5370924" lon="8.0133988"><ele>518.6</ele><time>2026-04-11T11:34:52.644Z</time></trkpt><trkpt lat="44.536997" lon="8.013534"><ele>517.8000000000001</ele><time>2026-04-11T11:34:54.644Z</time></trkpt><trkpt lat="44.5369637" lon="8.0136345"><ele>517.0</ele><time>2026-04-11T11:34:55.644Z</time></trkpt><trkpt lat="44.5369359" lon="8.013751"><ele>517.0</ele><time>2026-04-11T11:34:56.645Z</time></trkpt><trkpt lat="44.5369076" lon="8.0138678"><ele>517.0</ele><time>2026-04-11T11:34:57.644Z</time></trkpt><trkpt lat="44.5368698" lon="8.0139839"><ele>517.0</ele><time>2026-04-11T11:34:58.644Z</time></trkpt><trkpt lat="44.5368411" lon="8.0141023"><ele>517.0</ele><time>2026-04-11T11:34:59.644Z</time></trkpt><trkpt lat="44.5367886" lon="8.014208"><ele>517.0</ele><time>2026-04-11T11:35:00.644Z</time></trkpt><trkpt lat="44.5367341" lon="8.0143042"><ele>517.0</ele><time>2026-04-11T11:35:01.644Z</time></trkpt><trkpt lat="44.5366634" lon="8.0143548"><ele>517.2</ele><time>2026-04-11T11:35:02.645Z</time></trkpt><trkpt lat="44.5365759" lon="8.0143757"><ele>517.4000000000001</ele><time>2026-04-11T11:35:03.644Z</time></trkpt><trkpt lat="44.5364852" lon="8.0143638"><ele>517.5999999999999</ele><time>2026-04-11T11:35:04.644Z</time></trkpt><trkpt lat="44.5363912" lon="8.0143523"><ele>517.8</ele><time>2026-04-11T11:35:05.644Z</time></trkpt><trkpt lat="44.5363004" lon="8.0143269"><ele>518.0</ele><time>2026-04-11T11:35:06.644Z</time></trkpt><trkpt lat="44.5362184" lon="8.0142885"><ele>518.2857142857143</ele><time>2026-04-11T11:35:07.644Z</time></trkpt><trkpt lat="44.5361411" lon="8.0142537"><ele>518.5714285714286</ele><time>2026-04-11T11:35:08.644Z</time></trkpt><trkpt lat="44.5360721" lon="8.0142168"><ele>518.8571428571429</ele><time>2026-04-11T11:35:09.644Z</time></trkpt><trkpt lat="44.5360057" lon="8.0141795"><ele>519.1428571428571</ele><time>2026-04-11T11:35:10.644Z</time></trkpt><trkpt lat="44.5359394" lon="8.0141335"><ele>519.4285714285714</ele><time>2026-04-11T11:35:11.644Z</time></trkpt><trkpt lat="44.535888" lon="8.0140685"><ele>519.7142857142858</ele><time>2026-04-11T11:35:12.644Z</time></trkpt><trkpt lat="44.5358504" lon="8.0139775"><ele>520.0</ele><time>2026-04-11T11:35:13.644Z</time></trkpt><trkpt lat="44.5358226" lon="8.0138886"><ele>518.6</ele><time>2026-04-11T11:35:14.644Z</time></trkpt><trkpt lat="44.5357965" lon="8.013803"><ele>517.2</ele><time>2026-04-11T11:35:15.644Z</time></trkpt><trkpt lat="44.5357131" lon="8.0136811"><ele>515.8</ele><time>2026-04-11T11:35:17.644Z</time></trkpt><trkpt lat="44.5356113" lon="8.0135847"><ele>514.4</ele><time>2026-04-11T11:35:19.644Z</time></trkpt><trkpt lat="44.5355033" lon="8.0135261"><ele>513.0</ele><time>2026-04-11T11:35:21.644Z</time></trkpt><trkpt lat="44.5354001" lon="8.0134698"><ele>512.6</ele><time>2026-04-11T11:35:23.644Z</time></trkpt><trkpt lat="44.5353058" lon="8.0134074"><ele>512.1999999999999</ele><time>2026-04-11T11:35:25.644Z</time></trkpt><trkpt lat="44.5352071" lon="8.013362"><ele>511.8</ele><time>2026-04-11T11:35:27.644Z</time></trkpt><trkpt lat="44.5351212" lon="8.0133101"><ele>511.4</ele><time>2026-04-11T11:35:29.644Z</time></trkpt><trkpt lat="44.5350256" lon="8.0132667"><ele>511.0</ele><time>2026-04-11T11:35:31.644Z</time></trkpt><trkpt lat="44.5349207" lon="8.0132402"><ele>511.00000000000006</ele><time>2026-04-11T11:35:33.644Z</time></trkpt><trkpt lat="44.5348265" lon="8.0132008"><ele>511.0</ele><time>2026-04-11T11:35:35.644Z</time></trkpt><trkpt lat="44.5347806" lon="8.0131173"><ele>511.0</ele><time>2026-04-11T11:35:37.644Z</time></trkpt><trkpt lat="44.5346938" lon="8.0131121"><ele>511.0</ele><time>2026-04-11T11:35:39.644Z</time></trkpt><trkpt lat="44.5345996" lon="8.0131108"><ele>511.00000000000006</ele><time>2026-04-11T11:35:41.645Z</time></trkpt><trkpt lat="44.5345098" lon="8.0131055"><ele>511.0</ele><time>2026-04-11T11:35:43.644Z</time></trkpt><trkpt lat="44.5344238" lon="8.0130883"><ele>512.8333333333334</ele><time>2026-04-11T11:35:45.644Z</time></trkpt><trkpt lat="44.5343359" lon="8.01308"><ele>514.6666666666667</ele><time>2026-04-11T11:35:47.644Z</time></trkpt><trkpt lat="44.5342548" lon="8.0130747"><ele>516.5</ele><time>2026-04-11T11:35:49.644Z</time></trkpt><trkpt lat="44.5341743" lon="8.0130762"><ele>518.3333333333334</ele><time>2026-04-11T11:35:51.644Z</time></trkpt><trkpt lat="44.5340831" lon="8.0130598"><ele>520.1666666666666</ele><time>2026-04-11T11:35:53.644Z</time></trkpt><trkpt lat="44.534" lon="8.0130648"><ele>522.0</ele><time>2026-04-11T11:35:55.644Z</time></trkpt><trkpt lat="44.5339088" lon="8.0130582"><ele>522.0</ele><time>2026-04-11T11:35:57.644Z</time></trkpt><trkpt lat="44.533836" lon="8.0130284"><ele>522.0</ele><time>2026-04-11T11:35:59.644Z</time></trkpt><trkpt lat="44.5337575" lon="8.0130166"><ele>522.0</ele><time>2026-04-11T11:36:01.644Z</time></trkpt><trkpt lat="44.5336774" lon="8.0130192"><ele>522.0</ele><time>2026-04-11T11:36:03.644Z</time></trkpt><trkpt lat="44.5336282" lon="8.0129483"><ele>522.0</ele><time>2026-04-11T11:36:05.645Z</time></trkpt><trkpt lat="44.5335655" lon="8.0129608"><ele>522.0</ele><time>2026-04-11T11:36:06.644Z</time></trkpt><trkpt lat="44.5334549" lon="8.0129628"><ele>522.8000000000001</ele><time>2026-04-11T11:36:09.644Z</time></trkpt><trkpt lat="44.5333609" lon="8.0129422"><ele>523.6</ele><time>2026-04-11T11:36:11.644Z</time></trkpt><trkpt lat="44.5332645" lon="8.0129258"><ele>524.4000000000001</ele><time>2026-04-11T11:36:13.644Z</time></trkpt><trkpt lat="44.5331742" lon="8.0129081"><ele>525.2</ele><time>2026-04-11T11:36:15.644Z</time></trkpt><trkpt lat="44.5330866" lon="8.0128501"><ele>526.0</ele><time>2026-04-11T11:36:18.644Z</time></trkpt><trkpt lat="44.5329886" lon="8.0128564"><ele>526.0</ele><time>2026-04-11T11:36:20.644Z</time></trkpt><trkpt lat="44.5328957" lon="8.0128655"><ele>526.0</ele><time>2026-04-11T11:36:22.644Z</time></trkpt><trkpt lat="44.5328135" lon="8.0128636"><ele>526.0</ele><time>2026-04-11T11:36:24.644Z</time></trkpt><trkpt lat="44.532735" lon="8.0128723"><ele>526.0</ele><time>2026-04-11T11:36:26.644Z</time></trkpt><trkpt lat="44.5326605" lon="8.0128837"><ele>526.0</ele><time>2026-04-11T11:36:28.644Z</time></trkpt><trkpt lat="44.5325797" lon="8.0128859"><ele>526.0</ele><time>2026-04-11T11:36:30.644Z</time></trkpt><trkpt lat="44.5325076" lon="8.0128813"><ele>527.6666666666667</ele><time>2026-04-11T11:36:32.645Z</time></trkpt><trkpt lat="44.5324313" lon="8.0128823"><ele>529.3333333333334</ele><time>2026-04-11T11:36:34.644Z</time></trkpt><trkpt lat="44.5323546" lon="8.0128689"><ele>531.0</ele><time>2026-04-11T11:36:36.644Z</time></trkpt><trkpt lat="44.5322817" lon="8.0128497"><ele>532.6666666666666</ele><time>2026-04-11T11:36:38.644Z</time></trkpt><trkpt lat="44.5322046" lon="8.0128146"><ele>534.3333333333333</ele><time>2026-04-11T11:36:40.644Z</time></trkpt><trkpt lat="44.5321383" lon="8.0127689"><ele>536.0</ele><time>2026-04-11T11:36:42.644Z</time></trkpt><trkpt lat="44.532075" lon="8.0127184"><ele>537.3333333333333</ele><time>2026-04-11T11:36:45.644Z</time></trkpt><trkpt lat="44.5320042" lon="8.0126485"><ele>538.6666666666666</ele><time>2026-04-11T11:36:48.644Z</time></trkpt><trkpt lat="44.5319336" lon="8.0125964"><ele>540.0</ele><time>2026-04-11T11:36:51.644Z</time></trkpt><trkpt lat="44.5318744" lon="8.0125098"><ele>541.3333333333334</ele><time>2026-04-11T11:36:54.644Z</time></trkpt><trkpt lat="44.5318176" lon="8.0124377"><ele>542.6666666666667</ele><time>2026-04-11T11:36:57.644Z</time></trkpt><trkpt lat="44.5317818" lon="8.0123302"><ele>544.0</ele><time>2026-04-11T11:37:00.644Z</time></trkpt><trkpt lat="44.5317528" lon="8.012227"><ele>543.9999999999999</ele><time>2026-04-11T11:37:03.644Z</time></trkpt><trkpt lat="44.5317272" lon="8.0121333"><ele>544.0</ele><time>2026-04-11T11:37:06.644Z</time></trkpt><trkpt lat="44.5317" lon="8.0120462"><ele>544.0</ele><time>2026-04-11T11:37:09.644Z</time></trkpt><trkpt lat="44.5316812" lon="8.0119556"><ele>544.0</ele><time>2026-04-11T11:37:12.644Z</time></trkpt><trkpt lat="44.5316622" lon="8.011868"><ele>544.0</ele><time>2026-04-11T11:37:15.644Z</time></trkpt><trkpt lat="44.5316282" lon="8.0117854"><ele>543.9999999999999</ele><time>2026-04-11T11:37:18.644Z</time></trkpt><trkpt lat="44.5316149" lon="8.0116838"><ele>544.0</ele><time>2026-04-11T11:37:21.644Z</time></trkpt><trkpt lat="44.5316038" lon="8.0115632"><ele>543.5</ele><time>2026-04-11T11:37:24.644Z</time></trkpt><trkpt lat="44.5316003" lon="8.0114654"><ele>543.0</ele><time>2026-04-11T11:37:26.644Z</time></trkpt><trkpt lat="44.5315659" lon="8.0113593"><ele>542.5</ele><time>2026-04-11T11:37:29.644Z</time></trkpt><trkpt lat="44.5315216" lon="8.0112542"><ele>542.0</ele><time>2026-04-11T11:37:32.644Z</time></trkpt><trkpt lat="44.5314851" lon="8.0111594"><ele>541.5</ele><time>2026-04-11T11:37:35.644Z</time></trkpt><trkpt lat="44.5314596" lon="8.0110717"><ele>541.0</ele><time>2026-04-11T11:37:37.644Z</time></trkpt><trkpt lat="44.5314334" lon="8.0109789"><ele>541.0</ele><time>2026-04-11T11:37:39.644Z</time></trkpt><trkpt lat="44.5313808" lon="8.0108618"><ele>541.0</ele><time>2026-04-11T11:37:41.644Z</time></trkpt><trkpt lat="44.5313368" lon="8.0107559"><ele>541.0</ele><time>2026-04-11T11:37:43.644Z</time></trkpt><trkpt lat="44.531309" lon="8.0106354"><ele>541.0</ele><time>2026-04-11T11:37:45.644Z</time></trkpt><trkpt lat="44.5312925" lon="8.0105109"><ele>541.0</ele><time>2026-04-11T11:37:47.645Z</time></trkpt><trkpt lat="44.5312805" lon="8.0103767"><ele>540.0</ele><time>2026-04-11T11:37:49.644Z</time></trkpt><trkpt lat="44.5312714" lon="8.0102444"><ele>539.0</ele><time>2026-04-11T11:37:51.644Z</time></trkpt><trkpt lat="44.5312515" lon="8.0101033"><ele>538.0</ele><time>2026-04-11T11:37:53.644Z</time></trkpt><trkpt lat="44.531227" lon="8.0099703"><ele>537.0</ele><time>2026-04-11T11:37:55.644Z</time></trkpt><trkpt lat="44.5311966" lon="8.0098096"><ele>536.0</ele><time>2026-04-11T11:37:57.644Z</time></trkpt><trkpt lat="44.5311739" lon="8.0097111"><ele>536.8333333333333</ele><time>2026-04-11T11:37:58.644Z</time></trkpt><trkpt lat="44.5311381" lon="8.0096303"><ele>537.6666666666666</ele><time>2026-04-11T11:37:59.644Z</time></trkpt><trkpt lat="44.5310987" lon="8.0095521"><ele>538.5</ele><time>2026-04-11T11:38:00.644Z</time></trkpt><trkpt lat="44.5310448" lon="8.0093934"><ele>539.3333333333334</ele><time>2026-04-11T11:38:02.644Z</time></trkpt><trkpt lat="44.530995" lon="8.0093166"><ele>540.1666666666667</ele><time>2026-04-11T11:38:04.644Z</time></trkpt><trkpt lat="44.5309549" lon="8.0092296"><ele>541.0</ele><time>2026-04-11T11:38:05.644Z</time></trkpt><trkpt lat="44.530916" lon="8.0091096"><ele>541.0</ele><time>2026-04-11T11:38:06.644Z</time></trkpt><trkpt lat="44.530876" lon="8.0090038"><ele>541.0</ele><time>2026-04-11T11:38:07.644Z</time></trkpt><trkpt lat="44.5308498" lon="8.0088834"><ele>541.0</ele><time>2026-04-11T11:38:08.644Z</time></trkpt><trkpt lat="44.5308208" lon="8.0087507"><ele>541.0</ele><time>2026-04-11T11:38:09.644Z</time></trkpt><trkpt lat="44.5307998" lon="8.0086362"><ele>541.0</ele><time>2026-04-11T11:38:10.644Z</time></trkpt><trkpt lat="44.530776" lon="8.0085203"><ele>541.0</ele><time>2026-04-11T11:38:11.644Z</time></trkpt><trkpt lat="44.5307484" lon="8.0084067"><ele>539.6666666666667</ele><time>2026-04-11T11:38:12.644Z</time></trkpt><trkpt lat="44.5307164" lon="8.0082984"><ele>538.3333333333334</ele><time>2026-04-11T11:38:13.644Z</time></trkpt><trkpt lat="44.5306833" lon="8.0081861"><ele>537.0</ele><time>2026-04-11T11:38:14.644Z</time></trkpt><trkpt lat="44.5306809" lon="8.0080912"><ele>535.6666666666666</ele><time>2026-04-11T11:38:15.644Z</time></trkpt><trkpt lat="44.5306605" lon="8.0079888"><ele>534.3333333333333</ele><time>2026-04-11T11:38:16.644Z</time></trkpt><trkpt lat="44.5306285" lon="8.0078776"><ele>533.0</ele><time>2026-04-11T11:38:17.644Z</time></trkpt><trkpt lat="44.5305898" lon="8.0077699"><ele>533.0</ele><time>2026-04-11T11:38:18.644Z</time></trkpt><trkpt lat="44.5305505" lon="8.0076838"><ele>533.0</ele><time>2026-04-11T11:38:19.645Z</time></trkpt><trkpt lat="44.5304983" lon="8.0076074"><ele>533.0</ele><time>2026-04-11T11:38:20.644Z</time></trkpt><trkpt lat="44.5304641" lon="8.0075316"><ele>533.0</ele><time>2026-04-11T11:38:21.644Z</time></trkpt><trkpt lat="44.5304183" lon="8.0074671"><ele>533.0</ele><time>2026-04-11T11:38:22.644Z</time></trkpt><trkpt lat="44.5303721" lon="8.0073987"><ele>533.0</ele><time>2026-04-11T11:38:23.644Z</time></trkpt><trkpt lat="44.5303282" lon="8.0073212"><ele>533.0</ele><time>2026-04-11T11:38:24.644Z</time></trkpt><trkpt lat="44.530289" lon="8.0072415"><ele>533.5</ele><time>2026-04-11T11:38:25.644Z</time></trkpt><trkpt lat="44.5302506" lon="8.007157"><ele>534.0</ele><time>2026-04-11T11:38:26.644Z</time></trkpt><trkpt lat="44.5302176" lon="8.0070647"><ele>534.5</ele><time>2026-04-11T11:38:27.644Z</time></trkpt><trkpt lat="44.530172" lon="8.006972"><ele>535.0</ele><time>2026-04-11T11:38:28.644Z</time></trkpt><trkpt lat="44.530116" lon="8.0068915"><ele>535.5</ele><time>2026-04-11T11:38:29.644Z</time></trkpt><trkpt lat="44.5300528" lon="8.0068046"><ele>536.0</ele><time>2026-04-11T11:38:30.644Z</time></trkpt><trkpt lat="44.5299909" lon="8.0067117"><ele>533.8</ele><time>2026-04-11T11:38:31.644Z</time></trkpt><trkpt lat="44.5299234" lon="8.0066497"><ele>531.6</ele><time>2026-04-11T11:38:32.644Z</time></trkpt><trkpt lat="44.5298407" lon="8.0065779"><ele>529.4</ele><time>2026-04-11T11:38:33.644Z</time></trkpt><trkpt lat="44.5297535" lon="8.0065314"><ele>527.2</ele><time>2026-04-11T11:38:34.644Z</time></trkpt><trkpt lat="44.529675" lon="8.0064666"><ele>525.0</ele><time>2026-04-11T11:38:35.644Z</time></trkpt><trkpt lat="44.5295927" lon="8.0064247"><ele>526.5</ele><time>2026-04-11T11:38:36.644Z</time></trkpt><trkpt lat="44.5295066" lon="8.0063927"><ele>528.0</ele><time>2026-04-11T11:38:37.644Z</time></trkpt><trkpt lat="44.5294225" lon="8.006401"><ele>529.5</ele><time>2026-04-11T11:38:38.644Z</time></trkpt><trkpt lat="44.5293388" lon="8.0064249"><ele>531.0</ele><time>2026-04-11T11:38:39.651Z</time></trkpt><trkpt lat="44.5292576" lon="8.0064388"><ele>532.5</ele><time>2026-04-11T11:38:40.651Z</time></trkpt><trkpt lat="44.5291841" lon="8.0064182"><ele>534.0</ele><time>2026-04-11T11:38:41.651Z</time></trkpt><trkpt lat="44.5291078" lon="8.0063795"><ele>534.0</ele><time>2026-04-11T11:38:42.651Z</time></trkpt><trkpt lat="44.5290451" lon="8.0063106"><ele>534.0</ele><time>2026-04-11T11:38:43.651Z</time></trkpt><trkpt lat="44.5289885" lon="8.0062331"><ele>534.0</ele><time>2026-04-11T11:38:44.651Z</time></trkpt><trkpt lat="44.5289388" lon="8.0061444"><ele>534.0</ele><time>2026-04-11T11:38:45.651Z</time></trkpt><trkpt lat="44.5288989" lon="8.0060552"><ele>534.0</ele><time>2026-04-11T11:38:46.651Z</time></trkpt><trkpt lat="44.5288526" lon="8.0059772"><ele>534.0</ele><time>2026-04-11T11:38:47.651Z</time></trkpt><trkpt lat="44.5288036" lon="8.005901"><ele>534.0000000000001</ele><time>2026-04-11T11:38:48.651Z</time></trkpt><trkpt lat="44.5287473" lon="8.0058333"><ele>534.0</ele><time>2026-04-11T11:38:49.651Z</time></trkpt><trkpt lat="44.5286939" lon="8.0057612"><ele>534.0</ele><time>2026-04-11T11:38:50.651Z</time></trkpt><trkpt lat="44.5286428" lon="8.0056926"><ele>534.0</ele><time>2026-04-11T11:38:51.651Z</time></trkpt><trkpt lat="44.5285941" lon="8.0056231"><ele>534.0</ele><time>2026-04-11T11:38:52.651Z</time></trkpt><trkpt lat="44.5285492" lon="8.0055533"><ele>534.0000000000001</ele><time>2026-04-11T11:38:53.651Z</time></trkpt><trkpt lat="44.5284987" lon="8.005491"><ele>534.0</ele><time>2026-04-11T11:38:54.651Z</time></trkpt><trkpt lat="44.5284491" lon="8.0054228"><ele>534.0</ele><time>2026-04-11T11:38:55.652Z</time></trkpt><trkpt lat="44.5283606" lon="8.0053031"><ele>534.0</ele><time>2026-04-11T11:38:57.651Z</time></trkpt><trkpt lat="44.5282875" lon="8.0051842"><ele>534.0</ele><time>2026-04-11T11:38:59.651Z</time></trkpt><trkpt lat="44.5282115" lon="8.0050841"><ele>534.0</ele><time>2026-04-11T11:39:01.651Z</time></trkpt><trkpt lat="44.5281294" lon="8.0050039"><ele>534.0</ele><time>2026-04-11T11:39:03.651Z</time></trkpt><trkpt lat="44.5280662" lon="8.0049357"><ele>534.0000000000001</ele><time>2026-04-11T11:39:05.651Z</time></trkpt><trkpt lat="44.5280061" lon="8.0048893"><ele>534.0</ele><time>2026-04-11T11:39:07.651Z</time></trkpt><trkpt lat="44.5279527" lon="8.0048246"><ele>534.0</ele><time>2026-04-11T11:39:09.651Z</time></trkpt><trkpt lat="44.5278733" lon="8.0047467"><ele>534.0</ele><time>2026-04-11T11:39:12.651Z</time></trkpt><trkpt lat="44.5278134" lon="8.0047023"><ele>534.0</ele><time>2026-04-11T11:39:14.651Z</time></trkpt><trkpt lat="44.5277662" lon="8.0046377"><ele>534.0000000000001</ele><time>2026-04-11T11:39:16.651Z</time></trkpt><trkpt lat="44.5277049" lon="8.0046035"><ele>534.0</ele><time>2026-04-11T11:39:18.651Z</time></trkpt><trkpt lat="44.5276602" lon="8.004541"><ele>534.8333333333334</ele><time>2026-04-11T11:39:20.651Z</time></trkpt><trkpt lat="44.5275926" lon="8.0044543"><ele>535.6666666666666</ele><time>2026-04-11T11:39:23.651Z</time></trkpt><trkpt lat="44.5275225" lon="8.004364"><ele>536.5</ele><time>2026-04-11T11:39:26.651Z</time></trkpt><trkpt lat="44.5274604" lon="8.0042889"><ele>537.3333333333333</ele><time>2026-04-11T11:39:29.651Z</time></trkpt><trkpt lat="44.5274064" lon="8.0042032"><ele>538.1666666666666</ele><time>2026-04-11T11:39:32.651Z</time></trkpt><trkpt lat="44.5273415" lon="8.0041369"><ele>539.0</ele><time>2026-04-11T11:39:35.651Z</time></trkpt><trkpt lat="44.5272644" lon="8.0040952"><ele>539.0</ele><time>2026-04-11T11:39:38.651Z</time></trkpt><trkpt lat="44.5272006" lon="8.0040255"><ele>539.0</ele><time>2026-04-11T11:39:41.651Z</time></trkpt><trkpt lat="44.5271414" lon="8.0039419"><ele>539.0</ele><time>2026-04-11T11:39:44.651Z</time></trkpt><trkpt lat="44.5270839" lon="8.0038617"><ele>539.0</ele><time>2026-04-11T11:39:47.651Z</time></trkpt><trkpt lat="44.5270188" lon="8.0037965"><ele>539.0</ele><time>2026-04-11T11:39:50.651Z</time></trkpt><trkpt lat="44.5269643" lon="8.003712"><ele>539.0</ele><time>2026-04-11T11:39:53.651Z</time></trkpt><trkpt lat="44.5268774" lon="8.0036597"><ele>541.5</ele><time>2026-04-11T11:39:56.651Z</time></trkpt><trkpt lat="44.5268135" lon="8.0036016"><ele>544.0</ele><time>2026-04-11T11:39:59.651Z</time></trkpt><trkpt lat="44.5267363" lon="8.0035602"><ele>546.5</ele><time>2026-04-11T11:40:02.651Z</time></trkpt><trkpt lat="44.5266523" lon="8.0035112"><ele>549.0</ele><time>2026-04-11T11:40:05.651Z</time></trkpt><trkpt lat="44.5265796" lon="8.0034477"><ele>551.5</ele><time>2026-04-11T11:40:08.651Z</time></trkpt><trkpt lat="44.5264907" lon="8.0034046"><ele>554.0</ele><time>2026-04-11T11:40:11.651Z</time></trkpt><trkpt lat="44.5264292" lon="8.0033804"><ele>554.0</ele><time>2026-04-11T11:40:13.651Z</time></trkpt><trkpt lat="44.5263658" lon="8.0033593"><ele>554.0</ele><time>2026-04-11T11:40:15.651Z</time></trkpt><trkpt lat="44.5262996" lon="8.0033323"><ele>554.0</ele><time>2026-04-11T11:40:17.651Z</time></trkpt><trkpt lat="44.5262336" lon="8.0032917"><ele>554.0</ele><time>2026-04-11T11:40:19.651Z</time></trkpt><trkpt lat="44.5261759" lon="8.0032473"><ele>554.0</ele><time>2026-04-11T11:40:21.651Z</time></trkpt><trkpt lat="44.5260793" lon="8.0031933"><ele>554.0</ele><time>2026-04-11T11:40:23.651Z</time></trkpt><trkpt lat="44.5259716" lon="8.0031426"><ele>554.0</ele><time>2026-04-11T11:40:25.651Z</time></trkpt><trkpt lat="44.5258703" lon="8.0030748"><ele>554.0</ele><time>2026-04-11T11:40:27.651Z</time></trkpt><trkpt lat="44.5257801" lon="8.0029558"><ele>554.0</ele><time>2026-04-11T11:40:29.651Z</time></trkpt><trkpt lat="44.5257364" lon="8.0028835"><ele>554.0</ele><time>2026-04-11T11:40:30.651Z</time></trkpt><trkpt lat="44.5256875" lon="8.0028161"><ele>554.0</ele><time>2026-04-11T11:40:31.651Z</time></trkpt><trkpt lat="44.5256314" lon="8.0027553"><ele>554.0</ele><time>2026-04-11T11:40:32.651Z</time></trkpt><trkpt lat="44.5255818" lon="8.0026849"><ele>554.0</ele><time>2026-04-11T11:40:33.651Z</time></trkpt><trkpt lat="44.5254931" lon="8.0025622"><ele>554.0</ele><time>2026-04-11T11:40:35.651Z</time></trkpt><trkpt lat="44.5254221" lon="8.0024353"><ele>554.0</ele><time>2026-04-11T11:40:37.651Z</time></trkpt><trkpt lat="44.5253312" lon="8.0023232"><ele>554.0</ele><time>2026-04-11T11:40:39.651Z</time></trkpt><trkpt lat="44.5252433" lon="8.0022299"><ele>553.2</ele><time>2026-04-11T11:40:41.651Z</time></trkpt><trkpt lat="44.5251529" lon="8.0021453"><ele>552.4</ele><time>2026-04-11T11:40:43.651Z</time></trkpt><trkpt lat="44.5250699" lon="8.0020605"><ele>551.6</ele><time>2026-04-11T11:40:45.651Z</time></trkpt><trkpt lat="44.5250016" lon="8.0019813"><ele>550.8</ele><time>2026-04-11T11:40:47.651Z</time></trkpt><trkpt lat="44.5249254" lon="8.0019108"><ele>550.0</ele><time>2026-04-11T11:40:49.651Z</time></trkpt><trkpt lat="44.5248676" lon="8.0018414"><ele>550.0</ele><time>2026-04-11T11:40:52.651Z</time></trkpt><trkpt lat="44.524862" lon="8.001752"><ele>550.0</ele><time>2026-04-11T11:41:08.651Z</time></trkpt><trkpt lat="44.5247989" lon="8.0017494"><ele>550.0</ele><time>2026-04-11T11:41:13.651Z</time></trkpt><trkpt lat="44.5247494" lon="8.001633"><ele>550.0</ele><time>2026-04-11T11:41:15.651Z</time></trkpt><trkpt lat="44.5246465" lon="8.0015654"><ele>550.0</ele><time>2026-04-11T11:41:17.651Z</time></trkpt><trkpt lat="44.5245414" lon="8.0014338"><ele>549.0</ele><time>2026-04-11T11:41:19.651Z</time></trkpt><trkpt lat="44.5244803" lon="8.0013487"><ele>548.0</ele><time>2026-04-11T11:41:20.651Z</time></trkpt><trkpt lat="44.5244253" lon="8.0012597"><ele>547.0</ele><time>2026-04-11T11:41:21.651Z</time></trkpt><trkpt lat="44.5243662" lon="8.0011753"><ele>546.0</ele><time>2026-04-11T11:41:22.651Z</time></trkpt><trkpt lat="44.524307" lon="8.0010864"><ele>545.0</ele><time>2026-04-11T11:41:23.651Z</time></trkpt><trkpt lat="44.5242496" lon="8.0009943"><ele>544.0</ele><time>2026-04-11T11:41:24.651Z</time></trkpt><trkpt lat="44.5241976" lon="8.000906"><ele>544.3333333333334</ele><time>2026-04-11T11:41:25.651Z</time></trkpt><trkpt lat="44.5241456" lon="8.0008146"><ele>544.6666666666667</ele><time>2026-04-11T11:41:26.652Z</time></trkpt><trkpt lat="44.5240923" lon="8.0007304"><ele>545.0</ele><time>2026-04-11T11:41:27.651Z</time></trkpt><trkpt lat="44.5240352" lon="8.0006552"><ele>545.3333333333334</ele><time>2026-04-11T11:41:28.651Z</time></trkpt><trkpt lat="44.523985" lon="8.0005759"><ele>545.6666666666666</ele><time>2026-04-11T11:41:29.651Z</time></trkpt><trkpt lat="44.5239226" lon="8.0004986"><ele>546.0</ele><time>2026-04-11T11:41:30.651Z</time></trkpt><trkpt lat="44.5238651" lon="8.0004211"><ele>546.0</ele><time>2026-04-11T11:41:31.652Z</time></trkpt><trkpt lat="44.5238134" lon="8.0003495"><ele>546.0</ele><time>2026-04-11T11:41:32.651Z</time></trkpt><trkpt lat="44.5237487" lon="8.0001986"><ele>546.0</ele><time>2026-04-11T11:41:34.651Z</time></trkpt><trkpt lat="44.5236994" lon="8.000047"><ele>546.0</ele><time>2026-04-11T11:41:36.651Z</time></trkpt><trkpt lat="44.5236568" lon="7.9999142"><ele>546.0</ele><time>2026-04-11T11:41:38.651Z</time></trkpt><trkpt lat="44.5236116" lon="7.9997903"><ele>544.8333333333334</ele><time>2026-04-11T11:41:40.651Z</time></trkpt><trkpt lat="44.5235692" lon="7.9996741"><ele>543.6666666666666</ele><time>2026-04-11T11:41:42.651Z</time></trkpt><trkpt lat="44.5235061" lon="7.9995674"><ele>542.5</ele><time>2026-04-11T11:41:44.651Z</time></trkpt><trkpt lat="44.5234559" lon="7.9994675"><ele>541.3333333333333</ele><time>2026-04-11T11:41:46.651Z</time></trkpt><trkpt lat="44.5234068" lon="7.9993856"><ele>540.1666666666666</ele><time>2026-04-11T11:41:48.651Z</time></trkpt><trkpt lat="44.5233658" lon="7.9993001"><ele>539.0</ele><time>2026-04-11T11:41:50.651Z</time></trkpt><trkpt lat="44.523329" lon="7.9992119"><ele>540.5</ele><time>2026-04-11T11:41:52.652Z</time></trkpt><trkpt lat="44.5232705" lon="7.9991096"><ele>542.0</ele><time>2026-04-11T11:41:55.651Z</time></trkpt><trkpt lat="44.5232177" lon="7.9990333"><ele>543.5</ele><time>2026-04-11T11:41:57.651Z</time></trkpt><trkpt lat="44.5231748" lon="7.9989657"><ele>545.0</ele><time>2026-04-11T11:41:59.651Z</time></trkpt><trkpt lat="44.5231283" lon="7.9988753"><ele>546.5</ele><time>2026-04-11T11:42:02.651Z</time></trkpt><trkpt lat="44.5230774" lon="7.9987871"><ele>548.0</ele><time>2026-04-11T11:42:06.651Z</time></trkpt><trkpt lat="44.5230524" lon="7.998688"><ele>548.0</ele><time>2026-04-11T11:42:08.651Z</time></trkpt><trkpt lat="44.5229863" lon="7.9985671"><ele>548.0</ele><time>2026-04-11T11:42:10.651Z</time></trkpt><trkpt lat="44.5229403" lon="7.9984995"><ele>548.0</ele><time>2026-04-11T11:42:11.651Z</time></trkpt><trkpt lat="44.5228921" lon="7.9984279"><ele>548.0</ele><time>2026-04-11T11:42:12.651Z</time></trkpt><trkpt lat="44.5228379" lon="7.9983552"><ele>548.0</ele><time>2026-04-11T11:42:13.651Z</time></trkpt><trkpt lat="44.522779" lon="7.9982796"><ele>548.0</ele><time>2026-04-11T11:42:14.651Z</time></trkpt><trkpt lat="44.5227216" lon="7.9981963"><ele>549.0</ele><time>2026-04-11T11:42:15.651Z</time></trkpt><trkpt lat="44.5226649" lon="7.9981138"><ele>550.0</ele><time>2026-04-11T11:42:16.651Z</time></trkpt><trkpt lat="44.5226121" lon="7.9980261"><ele>551.0</ele><time>2026-04-11T11:42:17.651Z</time></trkpt><trkpt lat="44.5225612" lon="7.9979258"><ele>552.0</ele><time>2026-04-11T11:42:18.651Z</time></trkpt><trkpt lat="44.5225072" lon="7.997828"><ele>553.0</ele><time>2026-04-11T11:42:19.651Z</time></trkpt><trkpt lat="44.5224549" lon="7.9977207"><ele>554.0</ele><time>2026-04-11T11:42:20.651Z</time></trkpt><trkpt lat="44.5224042" lon="7.997598"><ele>552.8</ele><time>2026-04-11T11:42:21.652Z</time></trkpt><trkpt lat="44.5223512" lon="7.997477"><ele>551.5999999999999</ele><time>2026-04-11T11:42:22.651Z</time></trkpt><trkpt lat="44.5222996" lon="7.9973443"><ele>550.4</ele><time>2026-04-11T11:42:23.651Z</time></trkpt><trkpt lat="44.5222377" lon="7.9972122"><ele>549.1999999999999</ele><time>2026-04-11T11:42:24.651Z</time></trkpt><trkpt lat="44.5221728" lon="7.9970761"><ele>548.0</ele><time>2026-04-11T11:42:25.651Z</time></trkpt><trkpt lat="44.5221086" lon="7.996937"><ele>547.5</ele><time>2026-04-11T11:42:26.651Z</time></trkpt><trkpt lat="44.5220495" lon="7.9967989"><ele>547.0</ele><time>2026-04-11T11:42:27.651Z</time></trkpt><trkpt lat="44.5219892" lon="7.9966519"><ele>546.5</ele><time>2026-04-11T11:42:28.651Z</time></trkpt><trkpt lat="44.5219338" lon="7.9964915"><ele>546.0</ele><time>2026-04-11T11:42:29.651Z</time></trkpt><trkpt lat="44.5218768" lon="7.9963356"><ele>546.0</ele><time>2026-04-11T11:42:30.651Z</time></trkpt><trkpt lat="44.521816" lon="7.9961845"><ele>546.0</ele><time>2026-04-11T11:42:31.651Z</time></trkpt><trkpt lat="44.5217604" lon="7.9960337"><ele>546.0</ele><time>2026-04-11T11:42:32.651Z</time></trkpt><trkpt lat="44.5217053" lon="7.9958872"><ele>546.0</ele><time>2026-04-11T11:42:33.651Z</time></trkpt><trkpt lat="44.521653" lon="7.9957388"><ele>544.2</ele><time>2026-04-11T11:42:34.651Z</time></trkpt><trkpt lat="44.5216028" lon="7.995594"><ele>542.4000000000001</ele><time>2026-04-11T11:42:35.651Z</time></trkpt><trkpt lat="44.5215469" lon="7.9954593"><ele>540.6</ele><time>2026-04-11T11:42:36.651Z</time></trkpt><trkpt lat="44.5214795" lon="7.9953345"><ele>538.8000000000001</ele><time>2026-04-11T11:42:37.651Z</time></trkpt><trkpt lat="44.5214086" lon="7.9952202"><ele>537.0</ele><time>2026-04-11T11:42:38.651Z</time></trkpt><trkpt lat="44.5213352" lon="7.9951254"><ele>537.0</ele><time>2026-04-11T11:42:39.651Z</time></trkpt><trkpt lat="44.5212592" lon="7.9950168"><ele>537.0</ele><time>2026-04-11T11:42:40.651Z</time></trkpt><trkpt lat="44.5211813" lon="7.9949125"><ele>537.0</ele><time>2026-04-11T11:42:41.651Z</time></trkpt><trkpt lat="44.5211101" lon="7.9948027"><ele>537.0</ele><time>2026-04-11T11:42:42.651Z</time></trkpt><trkpt lat="44.5210428" lon="7.9946957"><ele>537.0</ele><time>2026-04-11T11:42:43.651Z</time></trkpt><trkpt lat="44.5209739" lon="7.9945931"><ele>536.5</ele><time>2026-04-11T11:42:44.651Z</time></trkpt><trkpt lat="44.5209085" lon="7.994495"><ele>536.0</ele><time>2026-04-11T11:42:45.651Z</time></trkpt><trkpt lat="44.5208482" lon="7.9944"><ele>535.5</ele><time>2026-04-11T11:42:46.651Z</time></trkpt><trkpt lat="44.5207874" lon="7.9943116"><ele>535.0</ele><time>2026-04-11T11:42:47.651Z</time></trkpt><trkpt lat="44.5207195" lon="7.9942333"><ele>534.5</ele><time>2026-04-11T11:42:48.651Z</time></trkpt><trkpt lat="44.5206522" lon="7.9941612"><ele>534.0</ele><time>2026-04-11T11:42:49.651Z</time></trkpt><trkpt lat="44.520587" lon="7.9940941"><ele>534.0</ele><time>2026-04-11T11:42:50.651Z</time></trkpt><trkpt lat="44.5205168" lon="7.994032"><ele>534.0</ele><time>2026-04-11T11:42:51.651Z</time></trkpt><trkpt lat="44.5204486" lon="7.9939653"><ele>534.0</ele><time>2026-04-11T11:42:52.651Z</time></trkpt><trkpt lat="44.5203811" lon="7.9939027"><ele>534.0</ele><time>2026-04-11T11:42:53.651Z</time></trkpt><trkpt lat="44.5203132" lon="7.9938423"><ele>534.0</ele><time>2026-04-11T11:42:54.651Z</time></trkpt><trkpt lat="44.520247" lon="7.9937826"><ele>534.0</ele><time>2026-04-11T11:42:55.651Z</time></trkpt><trkpt lat="44.5201824" lon="7.9937282"><ele>535.8333333333334</ele><time>2026-04-11T11:42:56.651Z</time></trkpt><trkpt lat="44.520124" lon="7.9936677"><ele>537.6666666666666</ele><time>2026-04-11T11:42:57.651Z</time></trkpt><trkpt lat="44.5200659" lon="7.9936113"><ele>539.5</ele><time>2026-04-11T11:42:58.651Z</time></trkpt><trkpt lat="44.5199971" lon="7.9935774"><ele>541.3333333333333</ele><time>2026-04-11T11:42:59.651Z</time></trkpt><trkpt lat="44.5199232" lon="7.9934962"><ele>543.1666666666666</ele><time>2026-04-11T11:43:01.651Z</time></trkpt><trkpt lat="44.5199756" lon="7.9934155"><ele>545.0</ele><time>2026-04-11T11:43:03.651Z</time></trkpt><trkpt lat="44.5200882" lon="7.9934157"><ele>545.0</ele><time>2026-04-11T11:43:05.651Z</time></trkpt><trkpt lat="44.5201569" lon="7.9934383"><ele>545.0</ele><time>2026-04-11T11:43:06.651Z</time></trkpt><trkpt lat="44.5202301" lon="7.9934499"><ele>545.0</ele><time>2026-04-11T11:43:07.651Z</time></trkpt><trkpt lat="44.5203139" lon="7.9934639"><ele>545.0</ele><time>2026-04-11T11:43:08.651Z</time></trkpt><trkpt lat="44.5204021" lon="7.9934665"><ele>545.0</ele><time>2026-04-11T11:43:09.651Z</time></trkpt><trkpt lat="44.5204949" lon="7.9934664"><ele>545.0</ele><time>2026-04-11T11:43:10.651Z</time></trkpt><trkpt lat="44.5205901" lon="7.9934647"><ele>542.8</ele><time>2026-04-11T11:43:11.651Z</time></trkpt><trkpt lat="44.5206887" lon="7.9934479"><ele>540.6</ele><time>2026-04-11T11:43:12.651Z</time></trkpt><trkpt lat="44.5207929" lon="7.9934331"><ele>538.4</ele><time>2026-04-11T11:43:13.651Z</time></trkpt><trkpt lat="44.5208999" lon="7.9934262"><ele>536.2</ele><time>2026-04-11T11:43:14.651Z</time></trkpt><trkpt lat="44.5210083" lon="7.9934138"><ele>534.0</ele><time>2026-04-11T11:43:15.651Z</time></trkpt><trkpt lat="44.5211206" lon="7.9934114"><ele>531.6</ele><time>2026-04-11T11:43:16.651Z</time></trkpt><trkpt lat="44.5212327" lon="7.9934042"><ele>529.2</ele><time>2026-04-11T11:43:17.651Z</time></trkpt><trkpt lat="44.5213467" lon="7.9933927"><ele>526.8000000000001</ele><time>2026-04-11T11:43:18.651Z</time></trkpt><trkpt lat="44.5214583" lon="7.9933854"><ele>524.4</ele><time>2026-04-11T11:43:19.651Z</time></trkpt><trkpt lat="44.5215672" lon="7.9933783"><ele>522.0</ele><time>2026-04-11T11:43:20.651Z</time></trkpt><trkpt lat="44.5216667" lon="7.9933616"><ele>522.0</ele><time>2026-04-11T11:43:21.651Z</time></trkpt><trkpt lat="44.521762" lon="7.9933269"><ele>522.0</ele><time>2026-04-11T11:43:22.651Z</time></trkpt><trkpt lat="44.5218503" lon="7.9932803"><ele>522.0</ele><time>2026-04-11T11:43:23.651Z</time></trkpt><trkpt lat="44.521922" lon="7.9931847"><ele>522.0</ele><time>2026-04-11T11:43:24.651Z</time></trkpt><trkpt lat="44.5219724" lon="7.9930498"><ele>522.0</ele><time>2026-04-11T11:43:25.651Z</time></trkpt><trkpt lat="44.5220321" lon="7.9929195"><ele>518.8000000000001</ele><time>2026-04-11T11:43:26.651Z</time></trkpt><trkpt lat="44.5220874" lon="7.9927823"><ele>515.6</ele><time>2026-04-11T11:43:27.651Z</time></trkpt><trkpt lat="44.5221348" lon="7.9926376"><ele>512.4000000000001</ele><time>2026-04-11T11:43:28.651Z</time></trkpt><trkpt lat="44.5221819" lon="7.9924955"><ele>509.20000000000005</ele><time>2026-04-11T11:43:29.651Z</time></trkpt><trkpt lat="44.5222267" lon="7.9923532"><ele>506.0</ele><time>2026-04-11T11:43:30.652Z</time></trkpt><trkpt lat="44.5222831" lon="7.9922024"><ele>506.0</ele><time>2026-04-11T11:43:31.651Z</time></trkpt><trkpt lat="44.5223451" lon="7.9920475"><ele>506.0</ele><time>2026-04-11T11:43:32.651Z</time></trkpt><trkpt lat="44.5224076" lon="7.9918986"><ele>506.0</ele><time>2026-04-11T11:43:33.651Z</time></trkpt><trkpt lat="44.5224775" lon="7.9917563"><ele>506.0</ele><time>2026-04-11T11:43:34.651Z</time></trkpt><trkpt lat="44.5225541" lon="7.9916172"><ele>505.75</ele><time>2026-04-11T11:43:35.651Z</time></trkpt><trkpt lat="44.5226583" lon="7.991498"><ele>505.5</ele><time>2026-04-11T11:43:36.651Z</time></trkpt><trkpt lat="44.5227752" lon="7.9913807"><ele>505.25</ele><time>2026-04-11T11:43:37.651Z</time></trkpt><trkpt lat="44.5228874" lon="7.9912603"><ele>505.0</ele><time>2026-04-11T11:43:38.651Z</time></trkpt><trkpt lat="44.523008" lon="7.9911627"><ele>503.5</ele><time>2026-04-11T11:43:39.651Z</time></trkpt><trkpt lat="44.5231247" lon="7.9910646"><ele>502.0</ele><time>2026-04-11T11:43:40.651Z</time></trkpt><trkpt lat="44.5232302" lon="7.9909677"><ele>500.5</ele><time>2026-04-11T11:43:41.651Z</time></trkpt><trkpt lat="44.5233262" lon="7.9908913"><ele>499.0</ele><time>2026-04-11T11:43:42.651Z</time></trkpt><trkpt lat="44.5234171" lon="7.9908166"><ele>499.0</ele><time>2026-04-11T11:43:43.652Z</time></trkpt><trkpt lat="44.5235046" lon="7.9907339"><ele>499.0</ele><time>2026-04-11T11:43:44.651Z</time></trkpt><trkpt lat="44.5235749" lon="7.9906302"><ele>499.0</ele><time>2026-04-11T11:43:45.651Z</time></trkpt><trkpt lat="44.5236238" lon="7.9905217"><ele>499.0</ele><time>2026-04-11T11:43:46.651Z</time></trkpt><trkpt lat="44.5236743" lon="7.9904285"><ele>499.0</ele><time>2026-04-11T11:43:47.651Z</time></trkpt><trkpt lat="44.5237211" lon="7.9903099"><ele>499.0</ele><time>2026-04-11T11:43:48.651Z</time></trkpt><trkpt lat="44.5237389" lon="7.990184"><ele>499.0</ele><time>2026-04-11T11:43:49.651Z</time></trkpt><trkpt lat="44.5237219" lon="7.9900551"><ele>499.0</ele><time>2026-04-11T11:43:50.651Z</time></trkpt><trkpt lat="44.5236906" lon="7.9899194"><ele>499.0</ele><time>2026-04-11T11:43:51.651Z</time></trkpt><trkpt lat="44.5236642" lon="7.9897946"><ele>499.0</ele><time>2026-04-11T11:43:52.651Z</time></trkpt><trkpt lat="44.5236556" lon="7.9896668"><ele>498.6</ele><time>2026-04-11T11:43:53.651Z</time></trkpt><trkpt lat="44.5236618" lon="7.9895255"><ele>498.2</ele><time>2026-04-11T11:43:54.651Z</time></trkpt><trkpt lat="44.5236967" lon="7.989386"><ele>497.80000000000007</ele><time>2026-04-11T11:43:55.651Z</time></trkpt><trkpt lat="44.5237329" lon="7.9892557"><ele>497.40000000000003</ele><time>2026-04-11T11:43:56.651Z</time></trkpt><trkpt lat="44.5237582" lon="7.9891407"><ele>497.0</ele><time>2026-04-11T11:43:57.651Z</time></trkpt><trkpt lat="44.5237724" lon="7.9890326"><ele>495.66666666666663</ele><time>2026-04-11T11:43:58.652Z</time></trkpt><trkpt lat="44.5237709" lon="7.9889274"><ele>494.3333333333333</ele><time>2026-04-11T11:43:59.651Z</time></trkpt><trkpt lat="44.5237514" lon="7.9888177"><ele>493.0</ele><time>2026-04-11T11:44:00.652Z</time></trkpt><trkpt lat="44.5237223" lon="7.9887067"><ele>491.66666666666663</ele><time>2026-04-11T11:44:01.651Z</time></trkpt><trkpt lat="44.523683" lon="7.9886065"><ele>490.3333333333333</ele><time>2026-04-11T11:44:02.651Z</time></trkpt><trkpt lat="44.5236465" lon="7.9884933"><ele>489.0</ele><time>2026-04-11T11:44:03.651Z</time></trkpt><trkpt lat="44.5236163" lon="7.9883607"><ele>487.6666666666667</ele><time>2026-04-11T11:44:04.651Z</time></trkpt><trkpt lat="44.5236119" lon="7.9882215"><ele>486.33333333333337</ele><time>2026-04-11T11:44:05.651Z</time></trkpt><trkpt lat="44.5236357" lon="7.9880901"><ele>485.0</ele><time>2026-04-11T11:44:06.651Z</time></trkpt><trkpt lat="44.5236907" lon="7.9880185"><ele>483.6666666666667</ele><time>2026-04-11T11:44:07.651Z</time></trkpt><trkpt lat="44.5237676" lon="7.9880118"><ele>482.33333333333337</ele><time>2026-04-11T11:44:08.651Z</time></trkpt><trkpt lat="44.5238364" lon="7.98808"><ele>481.0</ele><time>2026-04-11T11:44:09.651Z</time></trkpt><trkpt lat="44.5238898" lon="7.9881639"><ele>480.20000000000005</ele><time>2026-04-11T11:44:10.651Z</time></trkpt><trkpt lat="44.5239317" lon="7.9882587"><ele>479.40000000000003</ele><time>2026-04-11T11:44:11.651Z</time></trkpt><trkpt lat="44.5239672" lon="7.9883799"><ele>478.6</ele><time>2026-04-11T11:44:12.651Z</time></trkpt><trkpt lat="44.5240012" lon="7.988498"><ele>477.8</ele><time>2026-04-11T11:44:13.651Z</time></trkpt><trkpt lat="44.524041" lon="7.9886228"><ele>477.0</ele><time>2026-04-11T11:44:14.651Z</time></trkpt><trkpt lat="44.5240784" lon="7.9887564"><ele>477.0</ele><time>2026-04-11T11:44:15.651Z</time></trkpt><trkpt lat="44.5241167" lon="7.988889"><ele>477.00000000000006</ele><time>2026-04-11T11:44:16.651Z</time></trkpt><trkpt lat="44.5241471" lon="7.989014"><ele>477.00000000000006</ele><time>2026-04-11T11:44:17.651Z</time></trkpt><trkpt lat="44.5241756" lon="7.9891156"><ele>477.0</ele><time>2026-04-11T11:44:18.651Z</time></trkpt><trkpt lat="44.5242679" lon="7.9891934"><ele>477.0</ele><time>2026-04-11T11:44:20.651Z</time></trkpt><trkpt lat="44.5243305" lon="7.9891456"><ele>477.0</ele><time>2026-04-11T11:44:21.651Z</time></trkpt><trkpt lat="44.5243697" lon="7.9890542"><ele>477.00000000000006</ele><time>2026-04-11T11:44:22.651Z</time></trkpt><trkpt lat="44.5243736" lon="7.9889192"><ele>477.00000000000006</ele><time>2026-04-11T11:44:23.651Z</time></trkpt><trkpt lat="44.524381" lon="7.9887805"><ele>477.0</ele><time>2026-04-11T11:44:24.651Z</time></trkpt><trkpt lat="44.5243914" lon="7.9886449"><ele>477.0</ele><time>2026-04-11T11:44:25.651Z</time></trkpt><trkpt lat="44.5243979" lon="7.9885006"><ele>477.0</ele><time>2026-04-11T11:44:26.651Z</time></trkpt><trkpt lat="44.5244024" lon="7.9883547"><ele>477.00000000000006</ele><time>2026-04-11T11:44:27.651Z</time></trkpt><trkpt lat="44.5243977" lon="7.9881982"><ele>477.00000000000006</ele><time>2026-04-11T11:44:28.651Z</time></trkpt><trkpt lat="44.5243944" lon="7.9880375"><ele>477.0</ele><time>2026-04-11T11:44:29.651Z</time></trkpt><trkpt lat="44.5243902" lon="7.9878802"><ele>477.0</ele><time>2026-04-11T11:44:30.651Z</time></trkpt><trkpt lat="44.5243859" lon="7.98772"><ele>475.0</ele><time>2026-04-11T11:44:31.651Z</time></trkpt><trkpt lat="44.5243863" lon="7.9875459"><ele>473.0</ele><time>2026-04-11T11:44:32.651Z</time></trkpt><trkpt lat="44.524383" lon="7.9873825"><ele>471.0</ele><time>2026-04-11T11:44:33.651Z</time></trkpt><trkpt lat="44.524377" lon="7.9872221"><ele>469.0</ele><time>2026-04-11T11:44:34.651Z</time></trkpt><trkpt lat="44.5243612" lon="7.9870607"><ele>467.75</ele><time>2026-04-11T11:44:35.651Z</time></trkpt><trkpt lat="44.524319" lon="7.9869029"><ele>466.5</ele><time>2026-04-11T11:44:36.651Z</time></trkpt><trkpt lat="44.5242638" lon="7.9867601"><ele>465.25</ele><time>2026-04-11T11:44:37.651Z</time></trkpt><trkpt lat="44.5242043" lon="7.9866149"><ele>464.0</ele><time>2026-04-11T11:44:38.651Z</time></trkpt><trkpt lat="44.5241501" lon="7.9864573"><ele>462.25</ele><time>2026-04-11T11:44:39.651Z</time></trkpt><trkpt lat="44.5240925" lon="7.9863087"><ele>460.5</ele><time>2026-04-11T11:44:40.651Z</time></trkpt><trkpt lat="44.5240372" lon="7.9861543"><ele>458.75</ele><time>2026-04-11T11:44:41.651Z</time></trkpt><trkpt lat="44.5239826" lon="7.9859997"><ele>457.0</ele><time>2026-04-11T11:44:42.651Z</time></trkpt><trkpt lat="44.5239229" lon="7.9858524"><ele>455.75</ele><time>2026-04-11T11:44:43.651Z</time></trkpt><trkpt lat="44.5238581" lon="7.9857116"><ele>454.5</ele><time>2026-04-11T11:44:44.651Z</time></trkpt><trkpt lat="44.5237856" lon="7.9855771"><ele>453.25</ele><time>2026-04-11T11:44:45.651Z</time></trkpt><trkpt lat="44.5237127" lon="7.985452"><ele>452.0</ele><time>2026-04-11T11:44:46.651Z</time></trkpt><trkpt lat="44.523653" lon="7.985349"><ele>451.99999999999994</ele><time>2026-04-11T11:44:47.651Z</time></trkpt><trkpt lat="44.523605" lon="7.985272"><ele>452.0</ele><time>2026-04-11T11:44:48.651Z</time></trkpt><trkpt lat="44.5235906" lon="7.9851547"><ele>452.0</ele><time>2026-04-11T11:44:50.651Z</time></trkpt><trkpt lat="44.523704" lon="7.9851703"><ele>452.0</ele><time>2026-04-11T11:44:52.651Z</time></trkpt><trkpt lat="44.5237616" lon="7.985226"><ele>451.99999999999994</ele><time>2026-04-11T11:44:53.651Z</time></trkpt><trkpt lat="44.5238215" lon="7.9852912"><ele>452.0</ele><time>2026-04-11T11:44:54.651Z</time></trkpt><trkpt lat="44.5238778" lon="7.9853751"><ele>450.8</ele><time>2026-04-11T11:44:55.651Z</time></trkpt><trkpt lat="44.5239349" lon="7.9854587"><ele>449.6</ele><time>2026-04-11T11:44:56.651Z</time></trkpt><trkpt lat="44.5240036" lon="7.985539"><ele>448.40000000000003</ele><time>2026-04-11T11:44:57.651Z</time></trkpt><trkpt lat="44.5240799" lon="7.9856147"><ele>447.20000000000005</ele><time>2026-04-11T11:44:58.651Z</time></trkpt><trkpt lat="44.5241571" lon="7.9856821"><ele>446.0</ele><time>2026-04-11T11:44:59.651Z</time></trkpt><trkpt lat="44.52424" lon="7.9857547"><ele>446.0</ele><time>2026-04-11T11:45:00.651Z</time></trkpt><trkpt lat="44.5243234" lon="7.9858396"><ele>446.0</ele><time>2026-04-11T11:45:01.651Z</time></trkpt><trkpt lat="44.5243984" lon="7.9859045"><ele>446.0</ele><time>2026-04-11T11:45:02.651Z</time></trkpt><trkpt lat="44.5244745" lon="7.985963"><ele>446.0</ele><time>2026-04-11T11:45:03.651Z</time></trkpt><trkpt lat="44.5245885" lon="7.9858997"><ele>446.0</ele><time>2026-04-11T11:45:05.652Z</time></trkpt><trkpt lat="44.5246311" lon="7.9858019"><ele>446.0</ele><time>2026-04-11T11:45:06.651Z</time></trkpt><trkpt lat="44.5246313" lon="7.9856904"><ele>446.0</ele><time>2026-04-11T11:45:07.651Z</time></trkpt><trkpt lat="44.5245918" lon="7.9855859"><ele>446.0</ele><time>2026-04-11T11:45:08.651Z</time></trkpt><trkpt lat="44.5245409" lon="7.9854632"><ele>446.0</ele><time>2026-04-11T11:45:09.651Z</time></trkpt><trkpt lat="44.5244896" lon="7.9853361"><ele>446.0</ele><time>2026-04-11T11:45:10.651Z</time></trkpt><trkpt lat="44.524432" lon="7.9852123"><ele>446.0</ele><time>2026-04-11T11:45:11.651Z</time></trkpt><trkpt lat="44.5243859" lon="7.9850747"><ele>446.0</ele><time>2026-04-11T11:45:12.651Z</time></trkpt><trkpt lat="44.524338" lon="7.984943"><ele>446.0</ele><time>2026-04-11T11:45:13.651Z</time></trkpt><trkpt lat="44.5242893" lon="7.9848057"><ele>446.0</ele><time>2026-04-11T11:45:14.651Z</time></trkpt><trkpt lat="44.5242337" lon="7.9846678"><ele>446.0</ele><time>2026-04-11T11:45:15.651Z</time></trkpt><trkpt lat="44.5241786" lon="7.9845247"><ele>442.0</ele><time>2026-04-11T11:45:16.651Z</time></trkpt><trkpt lat="44.5241328" lon="7.9843728"><ele>438.0</ele><time>2026-04-11T11:45:17.651Z</time></trkpt><trkpt lat="44.5240936" lon="7.9842106"><ele>434.0</ele><time>2026-04-11T11:45:18.651Z</time></trkpt><trkpt lat="44.5240569" lon="7.9840417"><ele>430.0</ele><time>2026-04-11T11:45:19.658Z</time></trkpt><trkpt lat="44.5240312" lon="7.9838742"><ele>427.25</ele><time>2026-04-11T11:45:20.658Z</time></trkpt><trkpt lat="44.5240006" lon="7.9837022"><ele>424.5</ele><time>2026-04-11T11:45:21.658Z</time></trkpt><trkpt lat="44.523961" lon="7.9835393"><ele>421.75</ele><time>2026-04-11T11:45:22.658Z</time></trkpt><trkpt lat="44.5239065" lon="7.9833716"><ele>419.0</ele><time>2026-04-11T11:45:23.658Z</time></trkpt><trkpt lat="44.5238436" lon="7.9832091"><ele>418.25</ele><time>2026-04-11T11:45:24.658Z</time></trkpt><trkpt lat="44.5237727" lon="7.983052"><ele>417.5</ele><time>2026-04-11T11:45:25.658Z</time></trkpt><trkpt lat="44.5236942" lon="7.9829005"><ele>416.75</ele><time>2026-04-11T11:45:26.658Z</time></trkpt><trkpt lat="44.5236207" lon="7.9827468"><ele>416.0</ele><time>2026-04-11T11:45:27.658Z</time></trkpt><trkpt lat="44.523558" lon="7.9825822"><ele>413.25</ele><time>2026-04-11T11:45:28.658Z</time></trkpt><trkpt lat="44.5235184" lon="7.9824083"><ele>410.5</ele><time>2026-04-11T11:45:29.658Z</time></trkpt><trkpt lat="44.523496" lon="7.9822405"><ele>407.75</ele><time>2026-04-11T11:45:30.658Z</time></trkpt><trkpt lat="44.5234767" lon="7.9820694"><ele>405.0</ele><time>2026-04-11T11:45:31.658Z</time></trkpt><trkpt lat="44.5234314" lon="7.9819214"><ele>405.0</ele><time>2026-04-11T11:45:32.658Z</time></trkpt><trkpt lat="44.5233601" lon="7.9818095"><ele>405.0</ele><time>2026-04-11T11:45:33.658Z</time></trkpt><trkpt lat="44.5232685" lon="7.9817576"><ele>405.0</ele><time>2026-04-11T11:45:34.658Z</time></trkpt><trkpt lat="44.5231756" lon="7.9817359"><ele>405.0</ele><time>2026-04-11T11:45:35.658Z</time></trkpt><trkpt lat="44.5231049" lon="7.9817227"><ele>405.0</ele><time>2026-04-11T11:45:36.658Z</time></trkpt><trkpt lat="44.5230305" lon="7.981614"><ele>403.1666666666667</ele><time>2026-04-11T11:45:38.658Z</time></trkpt><trkpt lat="44.5230508" lon="7.9815044"><ele>401.33333333333337</ele><time>2026-04-11T11:45:39.658Z</time></trkpt><trkpt lat="44.5231016" lon="7.9814319"><ele>399.5</ele><time>2026-04-11T11:45:40.658Z</time></trkpt><trkpt lat="44.52318" lon="7.9813663"><ele>397.6666666666667</ele><time>2026-04-11T11:45:41.658Z</time></trkpt><trkpt lat="44.5232536" lon="7.9813028"><ele>395.83333333333337</ele><time>2026-04-11T11:45:42.658Z</time></trkpt><trkpt lat="44.5233348" lon="7.9812376"><ele>394.0</ele><time>2026-04-11T11:45:43.658Z</time></trkpt><trkpt lat="44.5234199" lon="7.9811598"><ele>394.0</ele><time>2026-04-11T11:45:44.658Z</time></trkpt><trkpt lat="44.5235119" lon="7.9810893"><ele>394.0</ele><time>2026-04-11T11:45:45.659Z</time></trkpt><trkpt lat="44.5236086" lon="7.981018"><ele>394.0</ele><time>2026-04-11T11:45:46.658Z</time></trkpt><trkpt lat="44.5237131" lon="7.9809571"><ele>394.0</ele><time>2026-04-11T11:45:47.658Z</time></trkpt><trkpt lat="44.5238092" lon="7.9808941"><ele>394.0</ele><time>2026-04-11T11:45:48.658Z</time></trkpt><trkpt lat="44.5239004" lon="7.980842"><ele>392.6666666666667</ele><time>2026-04-11T11:45:49.658Z</time></trkpt><trkpt lat="44.5239717" lon="7.9807988"><ele>391.33333333333337</ele><time>2026-04-11T11:45:50.658Z</time></trkpt><trkpt lat="44.5240029" lon="7.9806495"><ele>390.0</ele><time>2026-04-11T11:45:52.658Z</time></trkpt><trkpt lat="44.5239436" lon="7.9805854"><ele>388.66666666666663</ele><time>2026-04-11T11:45:53.658Z</time></trkpt><trkpt lat="44.5238621" lon="7.9805857"><ele>387.3333333333333</ele><time>2026-04-11T11:45:54.658Z</time></trkpt><trkpt lat="44.5237816" lon="7.9806185"><ele>386.0</ele><time>2026-04-11T11:45:55.658Z</time></trkpt><trkpt lat="44.5236995" lon="7.9806388"><ele>384.4</ele><time>2026-04-11T11:45:56.658Z</time></trkpt><trkpt lat="44.5236116" lon="7.9806543"><ele>382.8</ele><time>2026-04-11T11:45:57.658Z</time></trkpt><trkpt lat="44.523513" lon="7.980675"><ele>381.2</ele><time>2026-04-11T11:45:58.658Z</time></trkpt><trkpt lat="44.5234128" lon="7.9806973"><ele>379.59999999999997</ele><time>2026-04-11T11:45:59.658Z</time></trkpt><trkpt lat="44.5233143" lon="7.9807297"><ele>378.0</ele><time>2026-04-11T11:46:00.658Z</time></trkpt><trkpt lat="44.5232241" lon="7.9807662"><ele>378.0</ele><time>2026-04-11T11:46:01.658Z</time></trkpt><trkpt lat="44.5231479" lon="7.9808004"><ele>378.0</ele><time>2026-04-11T11:46:02.658Z</time></trkpt><trkpt lat="44.5230863" lon="7.9808219"><ele>378.0</ele><time>2026-04-11T11:46:03.658Z</time></trkpt><trkpt lat="44.5230171" lon="7.9807571"><ele>378.0</ele><time>2026-04-11T11:46:05.658Z</time></trkpt><trkpt lat="44.5230283" lon="7.9806331"><ele>378.0</ele><time>2026-04-11T11:46:06.659Z</time></trkpt><trkpt lat="44.5230584" lon="7.9805399"><ele>378.0</ele><time>2026-04-11T11:46:07.658Z</time></trkpt><trkpt lat="44.5231227" lon="7.9804759"><ele>378.0</ele><time>2026-04-11T11:46:08.659Z</time></trkpt><trkpt lat="44.5231886" lon="7.9804149"><ele>378.0</ele><time>2026-04-11T11:46:09.658Z</time></trkpt><trkpt lat="44.5232633" lon="7.9803554"><ele>378.0</ele><time>2026-04-11T11:46:10.658Z</time></trkpt><trkpt lat="44.5233345" lon="7.9803008"><ele>378.0</ele><time>2026-04-11T11:46:11.658Z</time></trkpt><trkpt lat="44.5234004" lon="7.9802334"><ele>378.0</ele><time>2026-04-11T11:46:12.658Z</time></trkpt><trkpt lat="44.5234886" lon="7.9801534"><ele>378.0</ele><time>2026-04-11T11:46:13.658Z</time></trkpt><trkpt lat="44.5235726" lon="7.9800905"><ele>378.0</ele><time>2026-04-11T11:46:14.658Z</time></trkpt><trkpt lat="44.5236756" lon="7.9800335"><ele>378.0</ele><time>2026-04-11T11:46:15.658Z</time></trkpt><trkpt lat="44.5237803" lon="7.9799786"><ele>378.0</ele><time>2026-04-11T11:46:16.658Z</time></trkpt><trkpt lat="44.523882" lon="7.9799242"><ele>378.0</ele><time>2026-04-11T11:46:17.658Z</time></trkpt><trkpt lat="44.5239778" lon="7.9798803"><ele>378.0</ele><time>2026-04-11T11:46:18.658Z</time></trkpt><trkpt lat="44.524061" lon="7.9798435"><ele>377.0</ele><time>2026-04-11T11:46:19.658Z</time></trkpt><trkpt lat="44.5241231" lon="7.9798041"><ele>376.0</ele><time>2026-04-11T11:46:20.658Z</time></trkpt><trkpt lat="44.5241412" lon="7.9796662"><ele>375.0</ele><time>2026-04-11T11:46:22.658Z</time></trkpt><trkpt lat="44.5240811" lon="7.9796136"><ele>374.0</ele><time>2026-04-11T11:46:23.658Z</time></trkpt><trkpt lat="44.5239681" lon="7.9796804"><ele>373.0</ele><time>2026-04-11T11:46:25.658Z</time></trkpt><trkpt lat="44.5238851" lon="7.9797194"><ele>372.0</ele><time>2026-04-11T11:46:26.658Z</time></trkpt><trkpt lat="44.5237983" lon="7.9797652"><ele>368.8</ele><time>2026-04-11T11:46:27.658Z</time></trkpt><trkpt lat="44.5237086" lon="7.9798048"><ele>365.6</ele><time>2026-04-11T11:46:28.658Z</time></trkpt><trkpt lat="44.5236168" lon="7.9798367"><ele>362.40000000000003</ele><time>2026-04-11T11:46:29.658Z</time></trkpt><trkpt lat="44.5235191" lon="7.979874"><ele>359.20000000000005</ele><time>2026-04-11T11:46:30.658Z</time></trkpt><trkpt lat="44.5234287" lon="7.9799178"><ele>356.0</ele><time>2026-04-11T11:46:31.658Z</time></trkpt><trkpt lat="44.5233532" lon="7.9799617"><ele>356.0</ele><time>2026-04-11T11:46:32.658Z</time></trkpt><trkpt lat="44.5232943" lon="7.9799954"><ele>356.0</ele><time>2026-04-11T11:46:33.658Z</time></trkpt><trkpt lat="44.5232228" lon="7.9800403"><ele>356.0</ele><time>2026-04-11T11:46:35.659Z</time></trkpt><trkpt lat="44.5232248" lon="7.9799068"><ele>356.0</ele><time>2026-04-11T11:46:38.658Z</time></trkpt><trkpt lat="44.5233239" lon="7.9798198"><ele>356.0</ele><time>2026-04-11T11:46:40.658Z</time></trkpt><trkpt lat="44.5233899" lon="7.9797879"><ele>356.0</ele><time>2026-04-11T11:46:41.658Z</time></trkpt><trkpt lat="44.5234544" lon="7.9797431"><ele>356.0</ele><time>2026-04-11T11:46:42.658Z</time></trkpt><trkpt lat="44.5235251" lon="7.9797026"><ele>356.0</ele><time>2026-04-11T11:46:43.658Z</time></trkpt><trkpt lat="44.5235991" lon="7.9796591"><ele>356.0</ele><time>2026-04-11T11:46:44.658Z</time></trkpt><trkpt lat="44.5236773" lon="7.9796156"><ele>356.0</ele><time>2026-04-11T11:46:45.658Z</time></trkpt><trkpt lat="44.5237561" lon="7.9795695"><ele>356.0</ele><time>2026-04-11T11:46:46.658Z</time></trkpt><trkpt lat="44.523837" lon="7.9795209"><ele>356.0</ele><time>2026-04-11T11:46:47.658Z</time></trkpt><trkpt lat="44.5239154" lon="7.9794687"><ele>359.20000000000005</ele><time>2026-04-11T11:46:48.658Z</time></trkpt><trkpt lat="44.5239974" lon="7.9794142"><ele>362.40000000000003</ele><time>2026-04-11T11:46:49.658Z</time></trkpt><trkpt lat="44.5240824" lon="7.9793593"><ele>365.6</ele><time>2026-04-11T11:46:50.658Z</time></trkpt><trkpt lat="44.5241697" lon="7.9793029"><ele>368.8</ele><time>2026-04-11T11:46:51.658Z</time></trkpt><trkpt lat="44.5242633" lon="7.9792556"><ele>372.0</ele><time>2026-04-11T11:46:52.658Z</time></trkpt><trkpt lat="44.524363" lon="7.9792352"><ele>372.0</ele><time>2026-04-11T11:46:53.658Z</time></trkpt><trkpt lat="44.5244649" lon="7.979258"><ele>372.0</ele><time>2026-04-11T11:46:54.658Z</time></trkpt><trkpt lat="44.524558" lon="7.9793054"><ele>372.0</ele><time>2026-04-11T11:46:55.658Z</time></trkpt><trkpt lat="44.5246544" lon="7.9793898"><ele>372.0</ele><time>2026-04-11T11:46:56.658Z</time></trkpt><trkpt lat="44.5247569" lon="7.9794822"><ele>372.0</ele><time>2026-04-11T11:46:57.658Z</time></trkpt><trkpt lat="44.5248649" lon="7.9796001"><ele>365.75</ele><time>2026-04-11T11:46:58.658Z</time></trkpt><trkpt lat="44.524965" lon="7.9797055"><ele>359.5</ele><time>2026-04-11T11:46:59.658Z</time></trkpt><trkpt lat="44.5250732" lon="7.9798064"><ele>353.25</ele><time>2026-04-11T11:47:00.658Z</time></trkpt><trkpt lat="44.5251776" lon="7.9798908"><ele>347.0</ele><time>2026-04-11T11:47:01.658Z</time></trkpt><trkpt lat="44.5252797" lon="7.9799655"><ele>348.1666666666667</ele><time>2026-04-11T11:47:02.658Z</time></trkpt><trkpt lat="44.5253811" lon="7.9800216"><ele>349.33333333333337</ele><time>2026-04-11T11:47:03.658Z</time></trkpt><trkpt lat="44.5254693" lon="7.9800307"><ele>350.5</ele><time>2026-04-11T11:47:04.658Z</time></trkpt><trkpt lat="44.5255315" lon="7.9800131"><ele>351.6666666666667</ele><time>2026-04-11T11:47:05.658Z</time></trkpt><trkpt lat="44.5256168" lon="7.9799543"><ele>352.8333333333333</ele><time>2026-04-11T11:47:07.658Z</time></trkpt><trkpt lat="44.5256645" lon="7.9798434"><ele>354.0</ele><time>2026-04-11T11:47:09.658Z</time></trkpt><trkpt lat="44.5256893" lon="7.9796825"><ele>354.6666666666667</ele><time>2026-04-11T11:47:11.658Z</time></trkpt><trkpt lat="44.5256751" lon="7.9795071"><ele>355.3333333333333</ele><time>2026-04-11T11:47:13.658Z</time></trkpt><trkpt lat="44.5256616" lon="7.9794161"><ele>356.0</ele><time>2026-04-11T11:47:14.658Z</time></trkpt><trkpt lat="44.5256498" lon="7.9793259"><ele>356.66666666666663</ele><time>2026-04-11T11:47:15.658Z</time></trkpt><trkpt lat="44.5256423" lon="7.9792358"><ele>357.3333333333333</ele><time>2026-04-11T11:47:16.658Z</time></trkpt><trkpt lat="44.5256366" lon="7.979137"><ele>358.0</ele><time>2026-04-11T11:47:17.658Z</time></trkpt><trkpt lat="44.5256326" lon="7.9790327"><ele>358.00000000000006</ele><time>2026-04-11T11:47:18.658Z</time></trkpt><trkpt lat="44.5256246" lon="7.9789288"><ele>358.0</ele><time>2026-04-11T11:47:19.658Z</time></trkpt><trkpt lat="44.5256189" lon="7.9788242"><ele>358.0</ele><time>2026-04-11T11:47:20.658Z</time></trkpt><trkpt lat="44.5256134" lon="7.9787237"><ele>358.0</ele><time>2026-04-11T11:47:21.658Z</time></trkpt><trkpt lat="44.5256001" lon="7.9786245"><ele>358.0</ele><time>2026-04-11T11:47:22.658Z</time></trkpt><trkpt lat="44.5255891" lon="7.9785202"><ele>358.00000000000006</ele><time>2026-04-11T11:47:23.658Z</time></trkpt><trkpt lat="44.5255729" lon="7.9784168"><ele>358.0</ele><time>2026-04-11T11:47:24.658Z</time></trkpt><trkpt lat="44.5255591" lon="7.9783126"><ele>357.16666666666663</ele><time>2026-04-11T11:47:25.658Z</time></trkpt><trkpt lat="44.5255601" lon="7.9782038"><ele>356.3333333333333</ele><time>2026-04-11T11:47:26.658Z</time></trkpt><trkpt lat="44.5255698" lon="7.9780958"><ele>355.5</ele><time>2026-04-11T11:47:27.658Z</time></trkpt><trkpt lat="44.5255897" lon="7.9779895"><ele>354.6666666666667</ele><time>2026-04-11T11:47:28.658Z</time></trkpt><trkpt lat="44.5256144" lon="7.977882"><ele>353.83333333333337</ele><time>2026-04-11T11:47:29.658Z</time></trkpt><trkpt lat="44.5256517" lon="7.9777836"><ele>353.0</ele><time>2026-04-11T11:47:30.658Z</time></trkpt><trkpt lat="44.5257078" lon="7.9776965"><ele>353.0</ele><time>2026-04-11T11:47:31.658Z</time></trkpt><trkpt lat="44.5257678" lon="7.9776074"><ele>353.0</ele><time>2026-04-11T11:47:32.658Z</time></trkpt><trkpt lat="44.5258345" lon="7.9775354"><ele>353.0</ele><time>2026-04-11T11:47:33.658Z</time></trkpt><trkpt lat="44.5258991" lon="7.9774687"><ele>353.0</ele><time>2026-04-11T11:47:34.658Z</time></trkpt><trkpt lat="44.5259672" lon="7.9774026"><ele>353.0</ele><time>2026-04-11T11:47:35.658Z</time></trkpt><trkpt lat="44.5260279" lon="7.9773315"><ele>353.0</ele><time>2026-04-11T11:47:36.658Z</time></trkpt><trkpt lat="44.5260884" lon="7.9772573"><ele>353.6666666666667</ele><time>2026-04-11T11:47:37.658Z</time></trkpt><trkpt lat="44.5261554" lon="7.9771897"><ele>354.33333333333337</ele><time>2026-04-11T11:47:38.658Z</time></trkpt><trkpt lat="44.5262199" lon="7.9771199"><ele>355.0</ele><time>2026-04-11T11:47:39.658Z</time></trkpt><trkpt lat="44.5262814" lon="7.9770474"><ele>355.6666666666667</ele><time>2026-04-11T11:47:40.658Z</time></trkpt><trkpt lat="44.526344" lon="7.9769768"><ele>356.3333333333333</ele><time>2026-04-11T11:47:41.658Z</time></trkpt><trkpt lat="44.5264112" lon="7.9769037"><ele>357.0</ele><time>2026-04-11T11:47:42.659Z</time></trkpt><trkpt lat="44.5264721" lon="7.9768334"><ele>357.0</ele><time>2026-04-11T11:47:43.658Z</time></trkpt><trkpt lat="44.5265264" lon="7.9767627"><ele>357.0</ele><time>2026-04-11T11:47:44.658Z</time></trkpt><trkpt lat="44.5265784" lon="7.9766965"><ele>357.0</ele><time>2026-04-11T11:47:45.658Z</time></trkpt><trkpt lat="44.5266349" lon="7.9766424"><ele>357.0</ele><time>2026-04-11T11:47:46.658Z</time></trkpt><trkpt lat="44.5266881" lon="7.9765864"><ele>357.0</ele><time>2026-04-11T11:47:47.658Z</time></trkpt><trkpt lat="44.5267379" lon="7.976529"><ele>357.0</ele><time>2026-04-11T11:47:48.658Z</time></trkpt><trkpt lat="44.5267855" lon="7.9764697"><ele>357.0</ele><time>2026-04-11T11:47:49.658Z</time></trkpt><trkpt lat="44.5268789" lon="7.9763543"><ele>357.6</ele><time>2026-04-11T11:47:51.658Z</time></trkpt><trkpt lat="44.5269284" lon="7.9762989"><ele>358.20000000000005</ele><time>2026-04-11T11:47:52.658Z</time></trkpt><trkpt lat="44.5270266" lon="7.9761992"><ele>358.8</ele><time>2026-04-11T11:47:54.659Z</time></trkpt><trkpt lat="44.5271146" lon="7.9760949"><ele>359.4</ele><time>2026-04-11T11:47:56.658Z</time></trkpt><trkpt lat="44.5271999" lon="7.9760136"><ele>360.0</ele><time>2026-04-11T11:47:58.658Z</time></trkpt><trkpt lat="44.5272813" lon="7.9759186"><ele>357.0</ele><time>2026-04-11T11:48:00.658Z</time></trkpt><trkpt lat="44.5273472" lon="7.9758245"><ele>354.0</ele><time>2026-04-11T11:48:02.658Z</time></trkpt><trkpt lat="44.5274195" lon="7.97574"><ele>351.0</ele><time>2026-04-11T11:48:04.658Z</time></trkpt><trkpt lat="44.5274957" lon="7.975683"><ele>348.0</ele><time>2026-04-11T11:48:06.658Z</time></trkpt><trkpt lat="44.5275748" lon="7.9755957"><ele>345.0</ele><time>2026-04-11T11:48:08.658Z</time></trkpt><trkpt lat="44.5276488" lon="7.9755037"><ele>345.0</ele><time>2026-04-11T11:48:10.658Z</time></trkpt><trkpt lat="44.5277215" lon="7.9754159"><ele>345.0</ele><time>2026-04-11T11:48:12.658Z</time></trkpt><trkpt lat="44.5277846" lon="7.9753408"><ele>345.0</ele><time>2026-04-11T11:48:14.658Z</time></trkpt><trkpt lat="44.527852" lon="7.9752664"><ele>345.0</ele><time>2026-04-11T11:48:16.658Z</time></trkpt><trkpt lat="44.527922" lon="7.9751804"><ele>345.0</ele><time>2026-04-11T11:48:18.658Z</time></trkpt><trkpt lat="44.5279818" lon="7.9750863"><ele>345.0</ele><time>2026-04-11T11:48:20.658Z</time></trkpt><trkpt lat="44.5280353" lon="7.9750057"><ele>346.3333333333333</ele><time>2026-04-11T11:48:22.658Z</time></trkpt><trkpt lat="44.5280922" lon="7.9749097"><ele>347.6666666666667</ele><time>2026-04-11T11:48:24.658Z</time></trkpt><trkpt lat="44.5281316" lon="7.9747811"><ele>349.0</ele><time>2026-04-11T11:48:26.658Z</time></trkpt><trkpt lat="44.5281981" lon="7.9746345"><ele>350.33333333333337</ele><time>2026-04-11T11:48:28.658Z</time></trkpt><trkpt lat="44.5282346" lon="7.9745617"><ele>351.6666666666667</ele><time>2026-04-11T11:48:29.658Z</time></trkpt><trkpt lat="44.5282657" lon="7.9744785"><ele>353.0</ele><time>2026-04-11T11:48:30.66Z</time></trkpt><trkpt lat="44.528296" lon="7.9743978"><ele>353.0</ele><time>2026-04-11T11:48:31.659Z</time></trkpt><trkpt lat="44.5283334" lon="7.9743217"><ele>353.0</ele><time>2026-04-11T11:48:32.659Z</time></trkpt><trkpt lat="44.5283744" lon="7.9742428"><ele>353.0</ele><time>2026-04-11T11:48:33.659Z</time></trkpt><trkpt lat="44.5284138" lon="7.9741563"><ele>353.0</ele><time>2026-04-11T11:48:34.659Z</time></trkpt><trkpt lat="44.5284554" lon="7.9740632"><ele>353.0</ele><time>2026-04-11T11:48:35.659Z</time></trkpt><trkpt lat="44.5284994" lon="7.9739704"><ele>353.0</ele><time>2026-04-11T11:48:36.659Z</time></trkpt><trkpt lat="44.5285439" lon="7.9738769"><ele>353.0</ele><time>2026-04-11T11:48:37.659Z</time></trkpt><trkpt lat="44.5285924" lon="7.9737807"><ele>352.4</ele><time>2026-04-11T11:48:38.659Z</time></trkpt><trkpt lat="44.5286407" lon="7.9736775"><ele>351.79999999999995</ele><time>2026-04-11T11:48:39.659Z</time></trkpt><trkpt lat="44.5286898" lon="7.97357"><ele>351.2</ele><time>2026-04-11T11:48:40.659Z</time></trkpt><trkpt lat="44.528739" lon="7.9734586"><ele>350.6</ele><time>2026-04-11T11:48:41.659Z</time></trkpt><trkpt lat="44.5287838" lon="7.9733453"><ele>350.0</ele><time>2026-04-11T11:48:42.659Z</time></trkpt><trkpt lat="44.5288375" lon="7.9732323"><ele>350.0</ele><time>2026-04-11T11:48:43.659Z</time></trkpt><trkpt lat="44.5288945" lon="7.9731247"><ele>350.0</ele><time>2026-04-11T11:48:44.659Z</time></trkpt><trkpt lat="44.5289497" lon="7.9730143"><ele>350.0</ele><time>2026-04-11T11:48:45.66Z</time></trkpt><trkpt lat="44.5290089" lon="7.9728987"><ele>350.0</ele><time>2026-04-11T11:48:46.659Z</time></trkpt><trkpt lat="44.5290662" lon="7.9727804"><ele>350.0</ele><time>2026-04-11T11:48:47.659Z</time></trkpt><trkpt lat="44.5291242" lon="7.9726564"><ele>350.0</ele><time>2026-04-11T11:48:48.659Z</time></trkpt><trkpt lat="44.5291825" lon="7.9725327"><ele>350.0</ele><time>2026-04-11T11:48:49.659Z</time></trkpt><trkpt lat="44.5292366" lon="7.9724032"><ele>350.0</ele><time>2026-04-11T11:48:50.66Z</time></trkpt><trkpt lat="44.5292921" lon="7.9722711"><ele>350.0</ele><time>2026-04-11T11:48:51.659Z</time></trkpt><trkpt lat="44.5293493" lon="7.9721377"><ele>350.0</ele><time>2026-04-11T11:48:52.659Z</time></trkpt><trkpt lat="44.5294118" lon="7.9720162"><ele>346.5</ele><time>2026-04-11T11:48:53.659Z</time></trkpt><trkpt lat="44.52947" lon="7.9718837"><ele>343.0</ele><time>2026-04-11T11:48:54.659Z</time></trkpt><trkpt lat="44.5295267" lon="7.9717445"><ele>339.5</ele><time>2026-04-11T11:48:55.659Z</time></trkpt><trkpt lat="44.5295905" lon="7.9716031"><ele>336.0</ele><time>2026-04-11T11:48:56.659Z</time></trkpt><trkpt lat="44.5296605" lon="7.9714576"><ele>336.0</ele><time>2026-04-11T11:48:57.659Z</time></trkpt><trkpt lat="44.5297261" lon="7.9713107"><ele>336.0</ele><time>2026-04-11T11:48:58.659Z</time></trkpt><trkpt lat="44.529787" lon="7.9711639"><ele>336.0</ele><time>2026-04-11T11:48:59.659Z</time></trkpt><trkpt lat="44.5298535" lon="7.9710188"><ele>336.0</ele><time>2026-04-11T11:49:00.659Z</time></trkpt><trkpt lat="44.5299215" lon="7.9708647"><ele>333.25</ele><time>2026-04-11T11:49:01.659Z</time></trkpt><trkpt lat="44.5299908" lon="7.9707212"><ele>330.5</ele><time>2026-04-11T11:49:02.659Z</time></trkpt><trkpt lat="44.5300628" lon="7.97058"><ele>327.75</ele><time>2026-04-11T11:49:03.66Z</time></trkpt><trkpt lat="44.5301292" lon="7.9704353"><ele>325.0</ele><time>2026-04-11T11:49:04.659Z</time></trkpt><trkpt lat="44.5301957" lon="7.9702859"><ele>325.0</ele><time>2026-04-11T11:49:05.659Z</time></trkpt><trkpt lat="44.5302649" lon="7.9701363"><ele>325.0</ele><time>2026-04-11T11:49:06.659Z</time></trkpt><trkpt lat="44.530332" lon="7.9699856"><ele>325.0</ele><time>2026-04-11T11:49:07.659Z</time></trkpt><trkpt lat="44.5303975" lon="7.9698365"><ele>325.0</ele><time>2026-04-11T11:49:08.659Z</time></trkpt><trkpt lat="44.5304627" lon="7.9696877"><ele>326.0</ele><time>2026-04-11T11:49:09.659Z</time></trkpt><trkpt lat="44.5305245" lon="7.9695429"><ele>327.0</ele><time>2026-04-11T11:49:10.659Z</time></trkpt><trkpt lat="44.5305858" lon="7.969396"><ele>328.0</ele><time>2026-04-11T11:49:11.659Z</time></trkpt><trkpt lat="44.530646" lon="7.9692519"><ele>329.0</ele><time>2026-04-11T11:49:12.659Z</time></trkpt><trkpt lat="44.5307006" lon="7.9691111"><ele>326.0</ele><time>2026-04-11T11:49:13.659Z</time></trkpt><trkpt lat="44.5307606" lon="7.9689654"><ele>323.0</ele><time>2026-04-11T11:49:14.659Z</time></trkpt><trkpt lat="44.5308234" lon="7.9688213"><ele>320.0</ele><time>2026-04-11T11:49:15.659Z</time></trkpt><trkpt lat="44.5308821" lon="7.968701"><ele>317.0</ele><time>2026-04-11T11:49:16.659Z</time></trkpt><trkpt lat="44.5309378" lon="7.9685708"><ele>317.0</ele><time>2026-04-11T11:49:17.659Z</time></trkpt><trkpt lat="44.5309938" lon="7.9684373"><ele>317.0</ele><time>2026-04-11T11:49:18.659Z</time></trkpt><trkpt lat="44.5310527" lon="7.9683059"><ele>317.0</ele><time>2026-04-11T11:49:19.659Z</time></trkpt><trkpt lat="44.5311121" lon="7.9681694"><ele>317.0</ele><time>2026-04-11T11:49:20.659Z</time></trkpt><trkpt lat="44.531172" lon="7.9680325"><ele>316.25</ele><time>2026-04-11T11:49:21.659Z</time></trkpt><trkpt lat="44.5312291" lon="7.9678977"><ele>315.5</ele><time>2026-04-11T11:49:22.659Z</time></trkpt><trkpt lat="44.5312875" lon="7.9677646"><ele>314.75</ele><time>2026-04-11T11:49:23.659Z</time></trkpt><trkpt lat="44.531348" lon="7.9676222"><ele>314.0</ele><time>2026-04-11T11:49:24.659Z</time></trkpt><trkpt lat="44.5314102" lon="7.9674782"><ele>314.0</ele><time>2026-04-11T11:49:25.659Z</time></trkpt><trkpt lat="44.5314733" lon="7.9673336"><ele>314.0</ele><time>2026-04-11T11:49:26.659Z</time></trkpt><trkpt lat="44.5315426" lon="7.967193"><ele>314.0</ele><time>2026-04-11T11:49:27.659Z</time></trkpt><trkpt lat="44.5316146" lon="7.9670532"><ele>314.0</ele><time>2026-04-11T11:49:28.659Z</time></trkpt><trkpt lat="44.5316946" lon="7.9669237"><ele>314.0</ele><time>2026-04-11T11:49:29.659Z</time></trkpt><trkpt lat="44.531781" lon="7.9667981"><ele>314.0</ele><time>2026-04-11T11:49:30.659Z</time></trkpt><trkpt lat="44.5318669" lon="7.9666774"><ele>314.0</ele><time>2026-04-11T11:49:31.659Z</time></trkpt><trkpt lat="44.5319518" lon="7.9665615"><ele>314.0</ele><time>2026-04-11T11:49:32.659Z</time></trkpt><trkpt lat="44.5320386" lon="7.9664462"><ele>312.4</ele><time>2026-04-11T11:49:33.659Z</time></trkpt><trkpt lat="44.5321195" lon="7.9663322"><ele>310.79999999999995</ele><time>2026-04-11T11:49:34.659Z</time></trkpt><trkpt lat="44.5321988" lon="7.9662168"><ele>309.20000000000005</ele><time>2026-04-11T11:49:35.659Z</time></trkpt><trkpt lat="44.5322703" lon="7.9660951"><ele>307.6</ele><time>2026-04-11T11:49:36.659Z</time></trkpt><trkpt lat="44.5323334" lon="7.9659812"><ele>306.0</ele><time>2026-04-11T11:49:37.659Z</time></trkpt><trkpt lat="44.5323824" lon="7.9658772"><ele>306.0</ele><time>2026-04-11T11:49:38.659Z</time></trkpt><trkpt lat="44.5324321" lon="7.9657416"><ele>306.0</ele><time>2026-04-11T11:49:39.659Z</time></trkpt><trkpt lat="44.5324862" lon="7.9656047"><ele>306.0</ele><time>2026-04-11T11:49:40.659Z</time></trkpt><trkpt lat="44.5325363" lon="7.9654741"><ele>306.0</ele><time>2026-04-11T11:49:41.659Z</time></trkpt><trkpt lat="44.5325832" lon="7.9653498"><ele>306.0</ele><time>2026-04-11T11:49:42.659Z</time></trkpt><trkpt lat="44.5326326" lon="7.9652188"><ele>306.0</ele><time>2026-04-11T11:49:43.659Z</time></trkpt><trkpt lat="44.5326822" lon="7.9651072"><ele>306.0</ele><time>2026-04-11T11:49:44.659Z</time></trkpt><trkpt lat="44.5327306" lon="7.9649953"><ele>306.0</ele><time>2026-04-11T11:49:45.659Z</time></trkpt><trkpt lat="44.5327845" lon="7.9648865"><ele>306.0</ele><time>2026-04-11T11:49:46.659Z</time></trkpt><trkpt lat="44.5328323" lon="7.9647719"><ele>306.0</ele><time>2026-04-11T11:49:47.66Z</time></trkpt><trkpt lat="44.5328722" lon="7.9646607"><ele>306.8</ele><time>2026-04-11T11:49:48.659Z</time></trkpt><trkpt lat="44.5329104" lon="7.9645441"><ele>307.6</ele><time>2026-04-11T11:49:49.659Z</time></trkpt><trkpt lat="44.5329494" lon="7.9644245"><ele>308.4</ele><time>2026-04-11T11:49:50.659Z</time></trkpt><trkpt lat="44.532983" lon="7.964309"><ele>309.2</ele><time>2026-04-11T11:49:51.659Z</time></trkpt><trkpt lat="44.5330149" lon="7.9641888"><ele>310.0</ele><time>2026-04-11T11:49:52.659Z</time></trkpt><trkpt lat="44.5330515" lon="7.9640726"><ele>310.0</ele><time>2026-04-11T11:49:53.659Z</time></trkpt><trkpt lat="44.5330883" lon="7.9639542"><ele>310.0</ele><time>2026-04-11T11:49:54.659Z</time></trkpt><trkpt lat="44.5331199" lon="7.9638384"><ele>310.0</ele><time>2026-04-11T11:49:55.659Z</time></trkpt><trkpt lat="44.5331541" lon="7.9637123"><ele>310.0</ele><time>2026-04-11T11:49:56.659Z</time></trkpt><trkpt lat="44.533188" lon="7.9635947"><ele>310.0</ele><time>2026-04-11T11:49:57.659Z</time></trkpt><trkpt lat="44.5332249" lon="7.9634858"><ele>310.0</ele><time>2026-04-11T11:49:58.659Z</time></trkpt><trkpt lat="44.5332612" lon="7.963375"><ele>310.0</ele><time>2026-04-11T11:49:59.659Z</time></trkpt><trkpt lat="44.5332971" lon="7.963265"><ele>310.0</ele><time>2026-04-11T11:50:00.659Z</time></trkpt><trkpt lat="44.5333268" lon="7.9631579"><ele>310.0</ele><time>2026-04-11T11:50:01.66Z</time></trkpt><trkpt lat="44.5333543" lon="7.96305"><ele>310.0</ele><time>2026-04-11T11:50:02.659Z</time></trkpt><trkpt lat="44.533383" lon="7.9629341"><ele>310.0</ele><time>2026-04-11T11:50:03.659Z</time></trkpt><trkpt lat="44.5334149" lon="7.9628212"><ele>309.66666666666663</ele><time>2026-04-11T11:50:04.659Z</time></trkpt><trkpt lat="44.5334414" lon="7.9627084"><ele>309.3333333333333</ele><time>2026-04-11T11:50:05.659Z</time></trkpt><trkpt lat="44.5334685" lon="7.9625972"><ele>309.0</ele><time>2026-04-11T11:50:06.659Z</time></trkpt><trkpt lat="44.5334924" lon="7.9624873"><ele>308.6666666666667</ele><time>2026-04-11T11:50:07.659Z</time></trkpt><trkpt lat="44.5335127" lon="7.9623754"><ele>308.33333333333337</ele><time>2026-04-11T11:50:08.659Z</time></trkpt><trkpt lat="44.5335279" lon="7.9622569"><ele>308.0</ele><time>2026-04-11T11:50:09.659Z</time></trkpt><trkpt lat="44.5335391" lon="7.9621284"><ele>307.6666666666667</ele><time>2026-04-11T11:50:10.659Z</time></trkpt><trkpt lat="44.5335473" lon="7.9620031"><ele>307.33333333333337</ele><time>2026-04-11T11:50:11.659Z</time></trkpt><trkpt lat="44.5335557" lon="7.9618852"><ele>307.0</ele><time>2026-04-11T11:50:12.659Z</time></trkpt><trkpt lat="44.5335729" lon="7.9617703"><ele>306.6666666666667</ele><time>2026-04-11T11:50:13.659Z</time></trkpt><trkpt lat="44.5335839" lon="7.9616506"><ele>306.3333333333333</ele><time>2026-04-11T11:50:14.659Z</time></trkpt><trkpt lat="44.5335935" lon="7.9615299"><ele>306.0</ele><time>2026-04-11T11:50:15.659Z</time></trkpt><trkpt lat="44.5335989" lon="7.9614096"><ele>305.6666666666667</ele><time>2026-04-11T11:50:16.659Z</time></trkpt><trkpt lat="44.5336032" lon="7.9612868"><ele>305.3333333333333</ele><time>2026-04-11T11:50:17.659Z</time></trkpt><trkpt lat="44.5336106" lon="7.9611681"><ele>305.0</ele><time>2026-04-11T11:50:18.659Z</time></trkpt><trkpt lat="44.5336168" lon="7.9610479"><ele>304.66666666666663</ele><time>2026-04-11T11:50:19.659Z</time></trkpt><trkpt lat="44.5336241" lon="7.9609321"><ele>304.3333333333333</ele><time>2026-04-11T11:50:20.659Z</time></trkpt><trkpt lat="44.5336273" lon="7.9608104"><ele>304.0</ele><time>2026-04-11T11:50:21.659Z</time></trkpt><trkpt lat="44.533633" lon="7.9606913"><ele>303.66666666666663</ele><time>2026-04-11T11:50:22.659Z</time></trkpt><trkpt lat="44.5336338" lon="7.9605736"><ele>303.3333333333333</ele><time>2026-04-11T11:50:23.659Z</time></trkpt><trkpt lat="44.5336371" lon="7.9604566"><ele>303.0</ele><time>2026-04-11T11:50:24.659Z</time></trkpt><trkpt lat="44.5336442" lon="7.9603375"><ele>302.6666666666667</ele><time>2026-04-11T11:50:25.659Z</time></trkpt><trkpt lat="44.5336566" lon="7.9602136"><ele>302.33333333333337</ele><time>2026-04-11T11:50:26.659Z</time></trkpt><trkpt lat="44.5336632" lon="7.9600888"><ele>302.0</ele><time>2026-04-11T11:50:27.659Z</time></trkpt><trkpt lat="44.5336638" lon="7.9599685"><ele>301.33333333333337</ele><time>2026-04-11T11:50:28.659Z</time></trkpt><trkpt lat="44.533666" lon="7.9598495"><ele>300.6666666666667</ele><time>2026-04-11T11:50:29.659Z</time></trkpt><trkpt lat="44.533669" lon="7.9597324"><ele>300.0</ele><time>2026-04-11T11:50:30.659Z</time></trkpt><trkpt lat="44.5336681" lon="7.9596129"><ele>299.3333333333333</ele><time>2026-04-11T11:50:31.659Z</time></trkpt><trkpt lat="44.5336713" lon="7.9594791"><ele>298.66666666666663</ele><time>2026-04-11T11:50:32.659Z</time></trkpt><trkpt lat="44.5336731" lon="7.9593532"><ele>298.0</ele><time>2026-04-11T11:50:33.659Z</time></trkpt><trkpt lat="44.5336711" lon="7.9592318"><ele>298.0</ele><time>2026-04-11T11:50:34.659Z</time></trkpt><trkpt lat="44.5336698" lon="7.959115"><ele>298.0</ele><time>2026-04-11T11:50:35.659Z</time></trkpt><trkpt lat="44.5336615" lon="7.9590018"><ele>298.0</ele><time>2026-04-11T11:50:36.659Z</time></trkpt><trkpt lat="44.5336545" lon="7.9588901"><ele>298.0</ele><time>2026-04-11T11:50:37.659Z</time></trkpt><trkpt lat="44.5336513" lon="7.9587776"><ele>298.0</ele><time>2026-04-11T11:50:38.66Z</time></trkpt><trkpt lat="44.5336452" lon="7.9586626"><ele>298.0</ele><time>2026-04-11T11:50:39.659Z</time></trkpt><trkpt lat="44.5336392" lon="7.9585474"><ele>298.0</ele><time>2026-04-11T11:50:40.659Z</time></trkpt><trkpt lat="44.5336273" lon="7.9584312"><ele>298.0</ele><time>2026-04-11T11:50:41.659Z</time></trkpt><trkpt lat="44.5336177" lon="7.9583201"><ele>298.0</ele><time>2026-04-11T11:50:42.659Z</time></trkpt><trkpt lat="44.5336167" lon="7.9582179"><ele>298.0</ele><time>2026-04-11T11:50:43.659Z</time></trkpt><trkpt lat="44.5336038" lon="7.9581105"><ele>298.0</ele><time>2026-04-11T11:50:44.659Z</time></trkpt><trkpt lat="44.5335861" lon="7.9579845"><ele>298.0</ele><time>2026-04-11T11:50:45.659Z</time></trkpt><trkpt lat="44.533566" lon="7.9578679"><ele>298.0</ele><time>2026-04-11T11:50:46.659Z</time></trkpt><trkpt lat="44.5335574" lon="7.9577568"><ele>298.0</ele><time>2026-04-11T11:50:47.659Z</time></trkpt><trkpt lat="44.5335478" lon="7.9576428"><ele>298.0</ele><time>2026-04-11T11:50:48.659Z</time></trkpt><trkpt lat="44.5335312" lon="7.9575334"><ele>298.0</ele><time>2026-04-11T11:50:49.66Z</time></trkpt><trkpt lat="44.5335163" lon="7.9574272"><ele>298.0</ele><time>2026-04-11T11:50:50.659Z</time></trkpt><trkpt lat="44.5335051" lon="7.9573206"><ele>298.0</ele><time>2026-04-11T11:50:51.659Z</time></trkpt><trkpt lat="44.5334884" lon="7.9572153"><ele>298.5</ele><time>2026-04-11T11:50:52.659Z</time></trkpt><trkpt lat="44.5334798" lon="7.9571075"><ele>299.0</ele><time>2026-04-11T11:50:53.659Z</time></trkpt><trkpt lat="44.5334775" lon="7.9569967"><ele>299.5</ele><time>2026-04-11T11:50:54.659Z</time></trkpt><trkpt lat="44.5334511" lon="7.9568813"><ele>300.0</ele><time>2026-04-11T11:50:55.659Z</time></trkpt><trkpt lat="44.5334211" lon="7.9567751"><ele>300.5</ele><time>2026-04-11T11:50:56.659Z</time></trkpt><trkpt lat="44.5333984" lon="7.9566601"><ele>301.0</ele><time>2026-04-11T11:50:57.659Z</time></trkpt><trkpt lat="44.5333712" lon="7.9565466"><ele>301.40000000000003</ele><time>2026-04-11T11:50:58.659Z</time></trkpt><trkpt lat="44.5333421" lon="7.9564255"><ele>301.8</ele><time>2026-04-11T11:50:59.66Z</time></trkpt><trkpt lat="44.5333173" lon="7.9563"><ele>302.20000000000005</ele><time>2026-04-11T11:51:00.659Z</time></trkpt><trkpt lat="44.533291" lon="7.9561778"><ele>302.6</ele><time>2026-04-11T11:51:01.659Z</time></trkpt><trkpt lat="44.5332619" lon="7.9560458"><ele>303.0</ele><time>2026-04-11T11:51:02.659Z</time></trkpt><trkpt lat="44.5332288" lon="7.9559172"><ele>302.8</ele><time>2026-04-11T11:51:03.659Z</time></trkpt><trkpt lat="44.5331996" lon="7.9557802"><ele>302.6</ele><time>2026-04-11T11:51:04.659Z</time></trkpt><trkpt lat="44.5331665" lon="7.9556444"><ele>302.4</ele><time>2026-04-11T11:51:05.659Z</time></trkpt><trkpt lat="44.5331361" lon="7.9555105"><ele>302.2</ele><time>2026-04-11T11:51:06.659Z</time></trkpt><trkpt lat="44.5331116" lon="7.9553719"><ele>302.0</ele><time>2026-04-11T11:51:07.659Z</time></trkpt><trkpt lat="44.5330867" lon="7.9552299"><ele>302.0</ele><time>2026-04-11T11:51:08.66Z</time></trkpt><trkpt lat="44.5330575" lon="7.9550928"><ele>302.0</ele><time>2026-04-11T11:51:09.659Z</time></trkpt><trkpt lat="44.5330262" lon="7.9549537"><ele>302.0</ele><time>2026-04-11T11:51:10.659Z</time></trkpt><trkpt lat="44.5329933" lon="7.9548109"><ele>302.0</ele><time>2026-04-11T11:51:11.659Z</time></trkpt><trkpt lat="44.5329583" lon="7.9546573"><ele>302.0</ele><time>2026-04-11T11:51:12.659Z</time></trkpt><trkpt lat="44.5329281" lon="7.9545035"><ele>301.6</ele><time>2026-04-11T11:51:13.659Z</time></trkpt><trkpt lat="44.5328969" lon="7.9543648"><ele>301.2</ele><time>2026-04-11T11:51:14.659Z</time></trkpt><trkpt lat="44.5328695" lon="7.954242"><ele>300.8</ele><time>2026-04-11T11:51:15.659Z</time></trkpt><trkpt lat="44.5328401" lon="7.9541068"><ele>300.4</ele><time>2026-04-11T11:51:16.659Z</time></trkpt><trkpt lat="44.5328088" lon="7.9539789"><ele>300.0</ele><time>2026-04-11T11:51:17.659Z</time></trkpt><trkpt lat="44.5327854" lon="7.9538488"><ele>299.5</ele><time>2026-04-11T11:51:18.659Z</time></trkpt><trkpt lat="44.532764" lon="7.9537212"><ele>299.0</ele><time>2026-04-11T11:51:19.659Z</time></trkpt><trkpt lat="44.5327341" lon="7.9536025"><ele>298.5</ele><time>2026-04-11T11:51:20.659Z</time></trkpt><trkpt lat="44.5326956" lon="7.9534961"><ele>298.0</ele><time>2026-04-11T11:51:21.659Z</time></trkpt><trkpt lat="44.5326555" lon="7.9534009"><ele>297.5</ele><time>2026-04-11T11:51:22.659Z</time></trkpt><trkpt lat="44.5326221" lon="7.9532955"><ele>297.0</ele><time>2026-04-11T11:51:23.659Z</time></trkpt><trkpt lat="44.5325929" lon="7.9531819"><ele>297.0</ele><time>2026-04-11T11:51:24.659Z</time></trkpt><trkpt lat="44.5325683" lon="7.9530638"><ele>297.0</ele><time>2026-04-11T11:51:25.659Z</time></trkpt><trkpt lat="44.5325367" lon="7.9529527"><ele>297.0</ele><time>2026-04-11T11:51:26.659Z</time></trkpt><trkpt lat="44.5324918" lon="7.9528386"><ele>297.0</ele><time>2026-04-11T11:51:27.659Z</time></trkpt><trkpt lat="44.5324649" lon="7.9527327"><ele>297.0</ele><time>2026-04-11T11:51:28.659Z</time></trkpt><trkpt lat="44.5324449" lon="7.9526289"><ele>297.0</ele><time>2026-04-11T11:51:29.66Z</time></trkpt><trkpt lat="44.5324221" lon="7.9525222"><ele>296.6666666666667</ele><time>2026-04-11T11:51:30.659Z</time></trkpt><trkpt lat="44.5323937" lon="7.952414"><ele>296.3333333333333</ele><time>2026-04-11T11:51:31.659Z</time></trkpt><trkpt lat="44.5323735" lon="7.9523027"><ele>296.0</ele><time>2026-04-11T11:51:32.66Z</time></trkpt><trkpt lat="44.5323566" lon="7.952198"><ele>295.66666666666663</ele><time>2026-04-11T11:51:33.659Z</time></trkpt><trkpt lat="44.5323389" lon="7.9520948"><ele>295.3333333333333</ele><time>2026-04-11T11:51:34.659Z</time></trkpt><trkpt lat="44.5323195" lon="7.9519944"><ele>295.0</ele><time>2026-04-11T11:51:35.659Z</time></trkpt><trkpt lat="44.5322939" lon="7.9518833"><ele>295.0</ele><time>2026-04-11T11:51:36.659Z</time></trkpt><trkpt lat="44.5322683" lon="7.9517784"><ele>295.0</ele><time>2026-04-11T11:51:37.66Z</time></trkpt><trkpt lat="44.5322419" lon="7.9516717"><ele>295.0</ele><time>2026-04-11T11:51:38.659Z</time></trkpt><trkpt lat="44.5322176" lon="7.9515625"><ele>295.0</ele><time>2026-04-11T11:51:39.659Z</time></trkpt><trkpt lat="44.5321934" lon="7.9514521"><ele>295.0</ele><time>2026-04-11T11:51:40.659Z</time></trkpt><trkpt lat="44.5321688" lon="7.9513436"><ele>295.0</ele><time>2026-04-11T11:51:41.659Z</time></trkpt><trkpt lat="44.532144" lon="7.9512352"><ele>295.0</ele><time>2026-04-11T11:51:42.659Z</time></trkpt><trkpt lat="44.5321233" lon="7.9511232"><ele>295.0</ele><time>2026-04-11T11:51:43.659Z</time></trkpt><trkpt lat="44.5321006" lon="7.9510061"><ele>295.0</ele><time>2026-04-11T11:51:44.659Z</time></trkpt><trkpt lat="44.5320804" lon="7.950892"><ele>295.0</ele><time>2026-04-11T11:51:45.659Z</time></trkpt><trkpt lat="44.5320713" lon="7.9507776"><ele>295.0</ele><time>2026-04-11T11:51:46.659Z</time></trkpt><trkpt lat="44.5320745" lon="7.9506754"><ele>295.0</ele><time>2026-04-11T11:51:47.659Z</time></trkpt><trkpt lat="44.5320693" lon="7.9505667"><ele>295.0</ele><time>2026-04-11T11:51:48.659Z</time></trkpt><trkpt lat="44.5320654" lon="7.9504685"><ele>295.0</ele><time>2026-04-11T11:51:49.659Z</time></trkpt><trkpt lat="44.5320486" lon="7.9503574"><ele>295.0</ele><time>2026-04-11T11:51:50.659Z</time></trkpt><trkpt lat="44.5320463" lon="7.9502463"><ele>295.0</ele><time>2026-04-11T11:51:51.659Z</time></trkpt><trkpt lat="44.5320481" lon="7.9501405"><ele>295.0</ele><time>2026-04-11T11:51:52.659Z</time></trkpt><trkpt lat="44.5320554" lon="7.9500276"><ele>295.0</ele><time>2026-04-11T11:51:53.659Z</time></trkpt><trkpt lat="44.5320493" lon="7.949923"><ele>294.3333333333333</ele><time>2026-04-11T11:51:54.659Z</time></trkpt><trkpt lat="44.5320267" lon="7.9498266"><ele>293.66666666666663</ele><time>2026-04-11T11:51:55.659Z</time></trkpt><trkpt lat="44.5319931" lon="7.9497431"><ele>293.0</ele><time>2026-04-11T11:51:56.659Z</time></trkpt><trkpt lat="44.5319404" lon="7.9496684"><ele>292.3333333333333</ele><time>2026-04-11T11:51:57.659Z</time></trkpt><trkpt lat="44.5318754" lon="7.9496036"><ele>291.6666666666667</ele><time>2026-04-11T11:51:58.659Z</time></trkpt><trkpt lat="44.531811" lon="7.9495387"><ele>291.0</ele><time>2026-04-11T11:51:59.666Z</time></trkpt><trkpt lat="44.5317394" lon="7.9494836"><ele>291.0</ele><time>2026-04-11T11:52:00.666Z</time></trkpt><trkpt lat="44.5316607" lon="7.9494462"><ele>291.0</ele><time>2026-04-11T11:52:01.666Z</time></trkpt><trkpt lat="44.5315748" lon="7.9494152"><ele>291.0</ele><time>2026-04-11T11:52:02.666Z</time></trkpt><trkpt lat="44.5314873" lon="7.9493889"><ele>291.0</ele><time>2026-04-11T11:52:03.666Z</time></trkpt><trkpt lat="44.5313973" lon="7.9493746"><ele>291.0</ele><time>2026-04-11T11:52:04.666Z</time></trkpt><trkpt lat="44.5313014" lon="7.9493647"><ele>291.0</ele><time>2026-04-11T11:52:05.666Z</time></trkpt><trkpt lat="44.5312082" lon="7.9493531"><ele>290.40000000000003</ele><time>2026-04-11T11:52:06.666Z</time></trkpt><trkpt lat="44.5311134" lon="7.9493488"><ele>289.8</ele><time>2026-04-11T11:52:07.666Z</time></trkpt><trkpt lat="44.5310197" lon="7.9493507"><ele>289.20000000000005</ele><time>2026-04-11T11:52:08.666Z</time></trkpt><trkpt lat="44.5309405" lon="7.9493535"><ele>288.6</ele><time>2026-04-11T11:52:09.666Z</time></trkpt><trkpt lat="44.530871" lon="7.9493592"><ele>288.0</ele><time>2026-04-11T11:52:10.666Z</time></trkpt><trkpt lat="44.5307567" lon="7.9493147"><ele>288.0</ele><time>2026-04-11T11:52:12.666Z</time></trkpt><trkpt lat="44.5307441" lon="7.9492104"><ele>288.0</ele><time>2026-04-11T11:52:13.666Z</time></trkpt><trkpt lat="44.5307475" lon="7.9491055"><ele>288.0</ele><time>2026-04-11T11:52:14.666Z</time></trkpt><trkpt lat="44.5307593" lon="7.9489935"><ele>288.0</ele><time>2026-04-11T11:52:15.666Z</time></trkpt><trkpt lat="44.5307575" lon="7.9488812"><ele>288.0</ele><time>2026-04-11T11:52:16.666Z</time></trkpt><trkpt lat="44.5307542" lon="7.9487737"><ele>288.0</ele><time>2026-04-11T11:52:17.666Z</time></trkpt><trkpt lat="44.5307687" lon="7.9486449"><ele>288.1666666666667</ele><time>2026-04-11T11:52:18.666Z</time></trkpt><trkpt lat="44.5307816" lon="7.9485226"><ele>288.3333333333333</ele><time>2026-04-11T11:52:19.666Z</time></trkpt><trkpt lat="44.5307977" lon="7.9484191"><ele>288.5</ele><time>2026-04-11T11:52:20.666Z</time></trkpt><trkpt lat="44.5308118" lon="7.9483113"><ele>288.66666666666663</ele><time>2026-04-11T11:52:21.666Z</time></trkpt><trkpt lat="44.5308279" lon="7.9481991"><ele>288.8333333333333</ele><time>2026-04-11T11:52:22.666Z</time></trkpt><trkpt lat="44.5308424" lon="7.9480875"><ele>289.0</ele><time>2026-04-11T11:52:23.666Z</time></trkpt><trkpt lat="44.5308526" lon="7.9479772"><ele>289.0</ele><time>2026-04-11T11:52:24.666Z</time></trkpt><trkpt lat="44.5308643" lon="7.9478617"><ele>289.0</ele><time>2026-04-11T11:52:25.666Z</time></trkpt><trkpt lat="44.5308792" lon="7.9477513"><ele>289.0</ele><time>2026-04-11T11:52:26.666Z</time></trkpt><trkpt lat="44.5308871" lon="7.9476428"><ele>289.0</ele><time>2026-04-11T11:52:27.666Z</time></trkpt><trkpt lat="44.5309002" lon="7.9475257"><ele>289.0</ele><time>2026-04-11T11:52:28.666Z</time></trkpt><trkpt lat="44.5309101" lon="7.9474165"><ele>289.0</ele><time>2026-04-11T11:52:29.666Z</time></trkpt><trkpt lat="44.5309237" lon="7.9473013"><ele>288.66666666666663</ele><time>2026-04-11T11:52:30.666Z</time></trkpt><trkpt lat="44.5309354" lon="7.9471877"><ele>288.3333333333333</ele><time>2026-04-11T11:52:31.666Z</time></trkpt><trkpt lat="44.5309293" lon="7.9470705"><ele>288.0</ele><time>2026-04-11T11:52:32.666Z</time></trkpt><trkpt lat="44.5309433" lon="7.9469508"><ele>287.6666666666667</ele><time>2026-04-11T11:52:33.666Z</time></trkpt><trkpt lat="44.5309536" lon="7.9468328"><ele>287.33333333333337</ele><time>2026-04-11T11:52:34.666Z</time></trkpt><trkpt lat="44.5309707" lon="7.946721"><ele>287.0</ele><time>2026-04-11T11:52:35.666Z</time></trkpt><trkpt lat="44.5309824" lon="7.946605"><ele>287.0</ele><time>2026-04-11T11:52:36.666Z</time></trkpt><trkpt lat="44.5309895" lon="7.9464954"><ele>287.0</ele><time>2026-04-11T11:52:37.666Z</time></trkpt><trkpt lat="44.5309982" lon="7.9463813"><ele>287.0</ele><time>2026-04-11T11:52:38.666Z</time></trkpt><trkpt lat="44.5310064" lon="7.9462656"><ele>287.0</ele><time>2026-04-11T11:52:39.666Z</time></trkpt><trkpt lat="44.5310234" lon="7.9461605"><ele>287.0</ele><time>2026-04-11T11:52:40.666Z</time></trkpt><trkpt lat="44.5310363" lon="7.9460475"><ele>287.0</ele><time>2026-04-11T11:52:41.666Z</time></trkpt><trkpt lat="44.5310472" lon="7.9459399"><ele>286.83333333333337</ele><time>2026-04-11T11:52:42.666Z</time></trkpt><trkpt lat="44.5310485" lon="7.9458334"><ele>286.6666666666667</ele><time>2026-04-11T11:52:43.666Z</time></trkpt><trkpt lat="44.531056" lon="7.9457294"><ele>286.5</ele><time>2026-04-11T11:52:44.666Z</time></trkpt><trkpt lat="44.5310596" lon="7.9456351"><ele>286.3333333333333</ele><time>2026-04-11T11:52:45.666Z</time></trkpt><trkpt lat="44.5310821" lon="7.9455226"><ele>286.16666666666663</ele><time>2026-04-11T11:52:46.666Z</time></trkpt><trkpt lat="44.531109" lon="7.945423"><ele>286.0</ele><time>2026-04-11T11:52:47.666Z</time></trkpt><trkpt lat="44.5311963" lon="7.9453275"><ele>286.0</ele><time>2026-04-11T11:52:49.666Z</time></trkpt><trkpt lat="44.5312877" lon="7.9453257"><ele>286.0</ele><time>2026-04-11T11:52:51.666Z</time></trkpt><trkpt lat="44.5313714" lon="7.945389"><ele>286.0</ele><time>2026-04-11T11:52:53.666Z</time></trkpt><trkpt lat="44.531306" lon="7.9453647"><ele>286.0</ele><time>2026-04-11T11:52:57.666Z</time></trkpt><trkpt lat="44.5312204" lon="7.9453628"><ele>286.0</ele><time>2026-04-11T11:52:59.666Z</time></trkpt><trkpt lat="44.5311467" lon="7.9453"><ele>286.0</ele><time>2026-04-11T11:53:01.666Z</time></trkpt><trkpt lat="44.5311442" lon="7.945146"><ele>285.40000000000003</ele><time>2026-04-11T11:53:03.666Z</time></trkpt><trkpt lat="44.5311476" lon="7.9449808"><ele>284.8</ele><time>2026-04-11T11:53:05.666Z</time></trkpt><trkpt lat="44.5311675" lon="7.9448815"><ele>284.20000000000005</ele><time>2026-04-11T11:53:06.666Z</time></trkpt><trkpt lat="44.5311818" lon="7.9447886"><ele>283.6</ele><time>2026-04-11T11:53:07.666Z</time></trkpt><trkpt lat="44.531189" lon="7.9446054"><ele>283.0</ele><time>2026-04-11T11:53:09.666Z</time></trkpt><trkpt lat="44.5311956" lon="7.9445038"><ele>283.0</ele><time>2026-04-11T11:53:10.666Z</time></trkpt><trkpt lat="44.531193" lon="7.9443965"><ele>283.0</ele><time>2026-04-11T11:53:11.666Z</time></trkpt><trkpt lat="44.5311981" lon="7.9442913"><ele>283.0</ele><time>2026-04-11T11:53:12.666Z</time></trkpt><trkpt lat="44.531203" lon="7.9441877"><ele>283.0</ele><time>2026-04-11T11:53:13.666Z</time></trkpt><trkpt lat="44.5312165" lon="7.944085"><ele>283.0</ele><time>2026-04-11T11:53:14.666Z</time></trkpt><trkpt lat="44.5312287" lon="7.9439882"><ele>283.0</ele><time>2026-04-11T11:53:15.666Z</time></trkpt><trkpt lat="44.5312357" lon="7.9438998"><ele>283.0</ele><time>2026-04-11T11:53:16.666Z</time></trkpt><trkpt lat="44.531237" lon="7.9438059"><ele>282.8333333333333</ele><time>2026-04-11T11:53:17.666Z</time></trkpt><trkpt lat="44.5312353" lon="7.9437152"><ele>282.66666666666663</ele><time>2026-04-11T11:53:18.666Z</time></trkpt><trkpt lat="44.5311786" lon="7.9435737"><ele>282.5</ele><time>2026-04-11T11:53:20.666Z</time></trkpt><trkpt lat="44.5311162" lon="7.9435517"><ele>282.3333333333333</ele><time>2026-04-11T11:53:21.666Z</time></trkpt><trkpt lat="44.5310462" lon="7.9435477"><ele>282.1666666666667</ele><time>2026-04-11T11:53:22.666Z</time></trkpt><trkpt lat="44.5309757" lon="7.9435486"><ele>282.0</ele><time>2026-04-11T11:53:23.666Z</time></trkpt><trkpt lat="44.5308953" lon="7.9435512"><ele>282.2</ele><time>2026-04-11T11:53:25.666Z</time></trkpt><trkpt lat="44.53085" lon="7.9434769"><ele>282.4</ele><time>2026-04-11T11:53:29.666Z</time></trkpt><trkpt lat="44.5308632" lon="7.9433147"><ele>282.6</ele><time>2026-04-11T11:53:31.666Z</time></trkpt><trkpt lat="44.5308762" lon="7.9431789"><ele>282.8</ele><time>2026-04-11T11:53:33.666Z</time></trkpt><trkpt lat="44.5308872" lon="7.9430449"><ele>283.0</ele><time>2026-04-11T11:53:35.666Z</time></trkpt><trkpt lat="44.530892" lon="7.9429106"><ele>283.0</ele><time>2026-04-11T11:53:37.666Z</time></trkpt><trkpt lat="44.530881" lon="7.9427898"><ele>283.0</ele><time>2026-04-11T11:53:39.666Z</time></trkpt><trkpt lat="44.5309604" lon="7.9427676"><ele>283.0</ele><time>2026-04-11T11:53:42.666Z</time></trkpt><trkpt lat="44.5310147" lon="7.9426953"><ele>283.0</ele><time>2026-04-11T11:53:46.666Z</time></trkpt><trkpt lat="44.5310315" lon="7.9425451"><ele>283.0</ele><time>2026-04-11T11:53:48.666Z</time></trkpt><trkpt lat="44.5310215" lon="7.9424104"><ele>283.0</ele><time>2026-04-11T11:53:50.666Z</time></trkpt><trkpt lat="44.5309899" lon="7.9423288"><ele>283.0</ele><time>2026-04-11T11:53:52.666Z</time></trkpt><trkpt lat="44.5309882" lon="7.9422335"><ele>283.0</ele><time>2026-04-11T11:53:54.666Z</time></trkpt><trkpt lat="44.5309334" lon="7.9423272"><ele>283.0</ele><time>2026-04-11T11:53:59.666Z</time></trkpt><trkpt lat="44.5309445" lon="7.9424475"><ele>283.0</ele><time>2026-04-11T11:54:01.666Z</time></trkpt><trkpt lat="44.53096" lon="7.9425551"><ele>283.0</ele><time>2026-04-11T11:54:03.667Z</time></trkpt><trkpt lat="44.5309565" lon="7.9426678"><ele>283.0</ele><time>2026-04-11T11:54:05.666Z</time></trkpt><trkpt lat="44.5309088" lon="7.9427495"><ele>283.0</ele><time>2026-04-11T11:54:07.666Z</time></trkpt><trkpt lat="44.530808" lon="7.94275"><ele>283.0</ele><time>2026-04-11T11:54:09.666Z</time></trkpt><trkpt lat="44.5306906" lon="7.9427204"><ele>283.0</ele><time>2026-04-11T11:54:11.666Z</time></trkpt><trkpt lat="44.5306134" lon="7.9426243"><ele>283.0</ele><time>2026-04-11T11:54:13.666Z</time></trkpt><trkpt lat="44.5306004" lon="7.9424702"><ele>283.0</ele><time>2026-04-11T11:54:15.666Z</time></trkpt><trkpt lat="44.5306084" lon="7.9423107"><ele>282.8</ele><time>2026-04-11T11:54:17.666Z</time></trkpt><trkpt lat="44.5306182" lon="7.9421258"><ele>282.6</ele><time>2026-04-11T11:54:19.666Z</time></trkpt><trkpt lat="44.5306425" lon="7.9420236"><ele>282.4</ele><time>2026-04-11T11:54:20.666Z</time></trkpt><trkpt lat="44.5306308" lon="7.9419324"><ele>282.2</ele><time>2026-04-11T11:54:21.666Z</time></trkpt><trkpt lat="44.5306084" lon="7.9418404"><ele>282.0</ele><time>2026-04-11T11:54:22.666Z</time></trkpt><trkpt lat="44.5305915" lon="7.9416607"><ele>281.6666666666667</ele><time>2026-04-11T11:54:24.666Z</time></trkpt><trkpt lat="44.5305894" lon="7.9414895"><ele>281.3333333333333</ele><time>2026-04-11T11:54:26.666Z</time></trkpt><trkpt lat="44.5305835" lon="7.9413914"><ele>281.0</ele><time>2026-04-11T11:54:27.666Z</time></trkpt><trkpt lat="44.5305831" lon="7.9412912"><ele>280.66666666666663</ele><time>2026-04-11T11:54:28.666Z</time></trkpt><trkpt lat="44.5305835" lon="7.9411865"><ele>280.3333333333333</ele><time>2026-04-11T11:54:29.666Z</time></trkpt><trkpt lat="44.530584" lon="7.9410916"><ele>280.0</ele><time>2026-04-11T11:54:30.666Z</time></trkpt><trkpt lat="44.5305891" lon="7.9409164"><ele>280.0</ele><time>2026-04-11T11:54:32.666Z</time></trkpt><trkpt lat="44.5305835" lon="7.9408146"><ele>280.0</ele><time>2026-04-11T11:54:33.666Z</time></trkpt><trkpt lat="44.5305805" lon="7.940708"><ele>280.0</ele><time>2026-04-11T11:54:34.666Z</time></trkpt><trkpt lat="44.5305768" lon="7.9406"><ele>280.0</ele><time>2026-04-11T11:54:35.666Z</time></trkpt><trkpt lat="44.5305793" lon="7.9405021"><ele>280.0</ele><time>2026-04-11T11:54:36.666Z</time></trkpt><trkpt lat="44.5305773" lon="7.9403317"><ele>280.0</ele><time>2026-04-11T11:54:38.666Z</time></trkpt><trkpt lat="44.5305717" lon="7.9402405"><ele>280.0</ele><time>2026-04-11T11:54:39.666Z</time></trkpt><trkpt lat="44.5305743" lon="7.9401497"><ele>280.0</ele><time>2026-04-11T11:54:40.666Z</time></trkpt><trkpt lat="44.5306028" lon="7.9400706"><ele>280.0</ele><time>2026-04-11T11:54:41.667Z</time></trkpt><trkpt lat="44.5306503" lon="7.9399973"><ele>280.0</ele><time>2026-04-11T11:54:42.666Z</time></trkpt><trkpt lat="44.5307202" lon="7.93998"><ele>280.0</ele><time>2026-04-11T11:54:43.666Z</time></trkpt><trkpt lat="44.5307925" lon="7.9399802"><ele>280.0</ele><time>2026-04-11T11:54:44.666Z</time></trkpt><trkpt lat="44.5308642" lon="7.939986"><ele>280.0</ele><time>2026-04-11T11:54:45.666Z</time></trkpt><trkpt lat="44.5309299" lon="7.9399836"><ele>279.7142857142857</ele><time>2026-04-11T11:54:46.666Z</time></trkpt><trkpt lat="44.530998" lon="7.9399861"><ele>279.42857142857144</ele><time>2026-04-11T11:54:47.666Z</time></trkpt><trkpt lat="44.5310676" lon="7.9399821"><ele>279.1428571428571</ele><time>2026-04-11T11:54:48.666Z</time></trkpt><trkpt lat="44.5311391" lon="7.9399806"><ele>278.8571428571429</ele><time>2026-04-11T11:54:49.666Z</time></trkpt><trkpt lat="44.5312095" lon="7.9399892"><ele>278.57142857142856</ele><time>2026-04-11T11:54:50.666Z</time></trkpt><trkpt lat="44.5312746" lon="7.9399833"><ele>278.2857142857143</ele><time>2026-04-11T11:54:51.666Z</time></trkpt><trkpt lat="44.531339" lon="7.9399831"><ele>278.0</ele><time>2026-04-11T11:54:52.666Z</time></trkpt><trkpt lat="44.5314489" lon="7.9399394"><ele>277.4</ele><time>2026-04-11T11:54:54.666Z</time></trkpt><trkpt lat="44.5315305" lon="7.9398116"><ele>276.8</ele><time>2026-04-11T11:54:56.666Z</time></trkpt><trkpt lat="44.5315505" lon="7.9396276"><ele>276.2</ele><time>2026-04-11T11:54:58.666Z</time></trkpt><trkpt lat="44.5315542" lon="7.9395248"><ele>275.6</ele><time>2026-04-11T11:54:59.666Z</time></trkpt><trkpt lat="44.5315537" lon="7.9394273"><ele>275.0</ele><time>2026-04-11T11:55:00.666Z</time></trkpt><trkpt lat="44.5315554" lon="7.9393324"><ele>275.0</ele><time>2026-04-11T11:55:01.666Z</time></trkpt><trkpt lat="44.5315625" lon="7.9392315"><ele>275.0</ele><time>2026-04-11T11:55:02.666Z</time></trkpt><trkpt lat="44.5315746" lon="7.9391277"><ele>275.0</ele><time>2026-04-11T11:55:03.666Z</time></trkpt><trkpt lat="44.5315878" lon="7.9390341"><ele>275.0</ele><time>2026-04-11T11:55:04.666Z</time></trkpt><trkpt lat="44.5316042" lon="7.9389377"><ele>275.0</ele><time>2026-04-11T11:55:05.666Z</time></trkpt><trkpt lat="44.5316211" lon="7.9388348"><ele>275.0</ele><time>2026-04-11T11:55:06.666Z</time></trkpt><trkpt lat="44.5316294" lon="7.9387337"><ele>275.0</ele><time>2026-04-11T11:55:07.666Z</time></trkpt><trkpt lat="44.5316361" lon="7.9386275"><ele>275.0</ele><time>2026-04-11T11:55:08.666Z</time></trkpt><trkpt lat="44.531644" lon="7.9385237"><ele>275.0</ele><time>2026-04-11T11:55:09.666Z</time></trkpt><trkpt lat="44.5316494" lon="7.9384147"><ele>275.0</ele><time>2026-04-11T11:55:10.666Z</time></trkpt><trkpt lat="44.5316553" lon="7.9383023"><ele>275.0</ele><time>2026-04-11T11:55:11.666Z</time></trkpt><trkpt lat="44.5316602" lon="7.9381914"><ele>275.0</ele><time>2026-04-11T11:55:12.666Z</time></trkpt><trkpt lat="44.5316633" lon="7.9380824"><ele>275.0</ele><time>2026-04-11T11:55:13.666Z</time></trkpt><trkpt lat="44.5316702" lon="7.9379682"><ele>274.83333333333337</ele><time>2026-04-11T11:55:14.666Z</time></trkpt><trkpt lat="44.5316778" lon="7.9378596"><ele>274.6666666666667</ele><time>2026-04-11T11:55:15.666Z</time></trkpt><trkpt lat="44.5316749" lon="7.9377392"><ele>274.5</ele><time>2026-04-11T11:55:16.666Z</time></trkpt><trkpt lat="44.5316769" lon="7.9376246"><ele>274.3333333333333</ele><time>2026-04-11T11:55:17.666Z</time></trkpt><trkpt lat="44.5316891" lon="7.9375236"><ele>274.16666666666663</ele><time>2026-04-11T11:55:18.666Z</time></trkpt><trkpt lat="44.5317047" lon="7.937417"><ele>274.0</ele><time>2026-04-11T11:55:19.666Z</time></trkpt><trkpt lat="44.5317175" lon="7.9373077"><ele>274.0</ele><time>2026-04-11T11:55:20.666Z</time></trkpt><trkpt lat="44.5317294" lon="7.9371927"><ele>274.0</ele><time>2026-04-11T11:55:21.666Z</time></trkpt><trkpt lat="44.5317433" lon="7.9370866"><ele>274.0</ele><time>2026-04-11T11:55:22.666Z</time></trkpt><trkpt lat="44.5317515" lon="7.9369713"><ele>274.0</ele><time>2026-04-11T11:55:23.666Z</time></trkpt><trkpt lat="44.5317589" lon="7.9368617"><ele>274.0</ele><time>2026-04-11T11:55:24.666Z</time></trkpt><trkpt lat="44.5317691" lon="7.9367555"><ele>274.0</ele><time>2026-04-11T11:55:25.666Z</time></trkpt><trkpt lat="44.5317832" lon="7.9366497"><ele>273.66666666666663</ele><time>2026-04-11T11:55:26.666Z</time></trkpt><trkpt lat="44.5317931" lon="7.9365493"><ele>273.3333333333333</ele><time>2026-04-11T11:55:27.666Z</time></trkpt><trkpt lat="44.5318025" lon="7.936445"><ele>273.0</ele><time>2026-04-11T11:55:28.666Z</time></trkpt><trkpt lat="44.5318159" lon="7.9363351"><ele>272.6666666666667</ele><time>2026-04-11T11:55:29.666Z</time></trkpt><trkpt lat="44.5318313" lon="7.9362283"><ele>272.33333333333337</ele><time>2026-04-11T11:55:30.666Z</time></trkpt><trkpt lat="44.5318462" lon="7.9361185"><ele>272.0</ele><time>2026-04-11T11:55:31.666Z</time></trkpt><trkpt lat="44.5318653" lon="7.9360217"><ele>271.99999999999994</ele><time>2026-04-11T11:55:32.666Z</time></trkpt><trkpt lat="44.5319044" lon="7.9359418"><ele>272.0</ele><time>2026-04-11T11:55:33.666Z</time></trkpt><trkpt lat="44.5319624" lon="7.935873"><ele>272.0</ele><time>2026-04-11T11:55:34.666Z</time></trkpt><trkpt lat="44.5320262" lon="7.9358192"><ele>272.0</ele><time>2026-04-11T11:55:35.666Z</time></trkpt><trkpt lat="44.5320959" lon="7.9357796"><ele>272.0</ele><time>2026-04-11T11:55:36.666Z</time></trkpt><trkpt lat="44.5321653" lon="7.9357408"><ele>271.99999999999994</ele><time>2026-04-11T11:55:37.666Z</time></trkpt><trkpt lat="44.5322344" lon="7.9357015"><ele>272.0</ele><time>2026-04-11T11:55:38.666Z</time></trkpt><trkpt lat="44.5323048" lon="7.9356682"><ele>272.0</ele><time>2026-04-11T11:55:39.666Z</time></trkpt><trkpt lat="44.5323772" lon="7.9356377"><ele>272.0</ele><time>2026-04-11T11:55:40.666Z</time></trkpt><trkpt lat="44.5324467" lon="7.9355988"><ele>272.0</ele><time>2026-04-11T11:55:41.666Z</time></trkpt><trkpt lat="44.5325172" lon="7.9355561"><ele>272.0</ele><time>2026-04-11T11:55:42.666Z</time></trkpt><trkpt lat="44.5325918" lon="7.9355176"><ele>272.0</ele><time>2026-04-11T11:55:43.666Z</time></trkpt><trkpt lat="44.5326642" lon="7.9354787"><ele>272.0</ele><time>2026-04-11T11:55:44.666Z</time></trkpt><trkpt lat="44.5327357" lon="7.9354408"><ele>272.0</ele><time>2026-04-11T11:55:45.665Z</time></trkpt><trkpt lat="44.5328058" lon="7.9353992"><ele>272.0</ele><time>2026-04-11T11:55:46.666Z</time></trkpt><trkpt lat="44.5328777" lon="7.9353606"><ele>272.0</ele><time>2026-04-11T11:55:47.666Z</time></trkpt><trkpt lat="44.5329554" lon="7.9353282"><ele>272.0</ele><time>2026-04-11T11:55:48.666Z</time></trkpt><trkpt lat="44.5330267" lon="7.9352879"><ele>272.0</ele><time>2026-04-11T11:55:49.666Z</time></trkpt><trkpt lat="44.533093" lon="7.9352424"><ele>272.0</ele><time>2026-04-11T11:55:50.667Z</time></trkpt><trkpt lat="44.5331609" lon="7.9352015"><ele>272.1666666666667</ele><time>2026-04-11T11:55:51.666Z</time></trkpt><trkpt lat="44.5332357" lon="7.935166"><ele>272.33333333333337</ele><time>2026-04-11T11:55:52.666Z</time></trkpt><trkpt lat="44.5333122" lon="7.9351305"><ele>272.5</ele><time>2026-04-11T11:55:53.666Z</time></trkpt><trkpt lat="44.5333883" lon="7.9350968"><ele>272.6666666666667</ele><time>2026-04-11T11:55:54.666Z</time></trkpt><trkpt lat="44.5334621" lon="7.9350614"><ele>272.8333333333333</ele><time>2026-04-11T11:55:55.666Z</time></trkpt><trkpt lat="44.5335344" lon="7.9350216"><ele>273.0</ele><time>2026-04-11T11:55:56.667Z</time></trkpt><trkpt lat="44.5336081" lon="7.9349835"><ele>272.3333333333333</ele><time>2026-04-11T11:55:57.666Z</time></trkpt><trkpt lat="44.5336839" lon="7.9349436"><ele>271.6666666666667</ele><time>2026-04-11T11:55:58.666Z</time></trkpt><trkpt lat="44.5337589" lon="7.9349042"><ele>271.0</ele><time>2026-04-11T11:55:59.667Z</time></trkpt><trkpt lat="44.533833" lon="7.9348648"><ele>270.33333333333337</ele><time>2026-04-11T11:56:00.666Z</time></trkpt><trkpt lat="44.5339083" lon="7.9348248"><ele>269.6666666666667</ele><time>2026-04-11T11:56:01.666Z</time></trkpt><trkpt lat="44.533984" lon="7.9347851"><ele>269.0</ele><time>2026-04-11T11:56:02.667Z</time></trkpt><trkpt lat="44.5340534" lon="7.9347345"><ele>269.0</ele><time>2026-04-11T11:56:03.666Z</time></trkpt><trkpt lat="44.5341257" lon="7.9346852"><ele>269.0</ele><time>2026-04-11T11:56:04.666Z</time></trkpt><trkpt lat="44.5342033" lon="7.9346504"><ele>269.0</ele><time>2026-04-11T11:56:05.666Z</time></trkpt><trkpt lat="44.5342823" lon="7.9346119"><ele>269.0</ele><time>2026-04-11T11:56:06.666Z</time></trkpt><trkpt lat="44.5343618" lon="7.9345852"><ele>269.0</ele><time>2026-04-11T11:56:07.666Z</time></trkpt><trkpt lat="44.534432" lon="7.9345418"><ele>269.0</ele><time>2026-04-11T11:56:08.666Z</time></trkpt><trkpt lat="44.5344998" lon="7.9344981"><ele>269.2</ele><time>2026-04-11T11:56:09.666Z</time></trkpt><trkpt lat="44.534571" lon="7.9344504"><ele>269.4</ele><time>2026-04-11T11:56:10.666Z</time></trkpt><trkpt lat="44.5346858" lon="7.9344329"><ele>269.6</ele><time>2026-04-11T11:56:12.666Z</time></trkpt><trkpt lat="44.5347719" lon="7.9343848"><ele>269.8</ele><time>2026-04-11T11:56:14.666Z</time></trkpt><trkpt lat="44.5348608" lon="7.9343292"><ele>270.0</ele><time>2026-04-11T11:56:16.666Z</time></trkpt><trkpt lat="44.5349647" lon="7.9343071"><ele>270.0</ele><time>2026-04-11T11:56:18.666Z</time></trkpt><trkpt lat="44.5350297" lon="7.9343033"><ele>270.0</ele><time>2026-04-11T11:56:19.666Z</time></trkpt><trkpt lat="44.535144" lon="7.9342707"><ele>270.0</ele><time>2026-04-11T11:56:21.666Z</time></trkpt><trkpt lat="44.5352596" lon="7.9342319"><ele>270.0</ele><time>2026-04-11T11:56:23.666Z</time></trkpt><trkpt lat="44.5353762" lon="7.9342647"><ele>270.0</ele><time>2026-04-11T11:56:25.666Z</time></trkpt><trkpt lat="44.535493" lon="7.9343171"><ele>270.3333333333333</ele><time>2026-04-11T11:56:27.666Z</time></trkpt><trkpt lat="44.5355533" lon="7.934351"><ele>270.6666666666667</ele><time>2026-04-11T11:56:28.666Z</time></trkpt><trkpt lat="44.5356077" lon="7.934404"><ele>271.0</ele><time>2026-04-11T11:56:29.666Z</time></trkpt><trkpt lat="44.5356944" lon="7.9345045"><ele>271.33333333333337</ele><time>2026-04-11T11:56:31.666Z</time></trkpt><trkpt lat="44.5357846" lon="7.9346125"><ele>271.6666666666667</ele><time>2026-04-11T11:56:33.666Z</time></trkpt><trkpt lat="44.5358305" lon="7.9346731"><ele>272.0</ele><time>2026-04-11T11:56:34.666Z</time></trkpt><trkpt lat="44.5359213" lon="7.9347935"><ele>272.0</ele><time>2026-04-11T11:56:36.667Z</time></trkpt><trkpt lat="44.5360092" lon="7.9349121"><ele>272.0</ele><time>2026-04-11T11:56:38.666Z</time></trkpt><trkpt lat="44.5360967" lon="7.935028"><ele>272.0</ele><time>2026-04-11T11:56:40.666Z</time></trkpt><trkpt lat="44.5361589" lon="7.9351685"><ele>272.0</ele><time>2026-04-11T11:56:42.666Z</time></trkpt><trkpt lat="44.5362112" lon="7.9353201"><ele>272.0</ele><time>2026-04-11T11:56:44.666Z</time></trkpt><trkpt lat="44.5363097" lon="7.9353849"><ele>272.0</ele><time>2026-04-11T11:56:46.666Z</time></trkpt><trkpt lat="44.5364156" lon="7.9353051"><ele>272.0</ele><time>2026-04-11T11:56:48.666Z</time></trkpt><trkpt lat="44.5364616" lon="7.9352274"><ele>272.0</ele><time>2026-04-11T11:56:49.666Z</time></trkpt><trkpt lat="44.5365011" lon="7.935152"><ele>272.0</ele><time>2026-04-11T11:56:50.666Z</time></trkpt><trkpt lat="44.5365348" lon="7.9350632"><ele>272.0</ele><time>2026-04-11T11:56:51.667Z</time></trkpt><trkpt lat="44.536568" lon="7.9349851"><ele>271.99999999999994</ele><time>2026-04-11T11:56:52.667Z</time></trkpt><trkpt lat="44.5366056" lon="7.9349069"><ele>272.0</ele><time>2026-04-11T11:56:53.666Z</time></trkpt><trkpt lat="44.5366497" lon="7.9348385"><ele>272.0</ele><time>2026-04-11T11:56:54.666Z</time></trkpt><trkpt lat="44.5366936" lon="7.9347686"><ele>272.0</ele><time>2026-04-11T11:56:55.666Z</time></trkpt><trkpt lat="44.5367352" lon="7.9346792"><ele>272.0</ele><time>2026-04-11T11:56:56.666Z</time></trkpt><trkpt lat="44.5367863" lon="7.9346032"><ele>271.99999999999994</ele><time>2026-04-11T11:56:57.667Z</time></trkpt><trkpt lat="44.5368364" lon="7.9345332"><ele>272.0</ele><time>2026-04-11T11:56:58.666Z</time></trkpt><trkpt lat="44.5368879" lon="7.9344633"><ele>272.0</ele><time>2026-04-11T11:56:59.666Z</time></trkpt><trkpt lat="44.5369384" lon="7.934382"><ele>272.0</ele><time>2026-04-11T11:57:00.666Z</time></trkpt><trkpt lat="44.5369886" lon="7.9342997"><ele>272.0</ele><time>2026-04-11T11:57:01.666Z</time></trkpt><trkpt lat="44.5370473" lon="7.9342236"><ele>272.0</ele><time>2026-04-11T11:57:02.666Z</time></trkpt><trkpt lat="44.5371001" lon="7.9341467"><ele>272.0</ele><time>2026-04-11T11:57:03.666Z</time></trkpt><trkpt lat="44.5371484" lon="7.9340495"><ele>272.0</ele><time>2026-04-11T11:57:04.666Z</time></trkpt><trkpt lat="44.5372071" lon="7.9339718"><ele>271.83333333333337</ele><time>2026-04-11T11:57:05.666Z</time></trkpt><trkpt lat="44.5372678" lon="7.9338845"><ele>271.6666666666667</ele><time>2026-04-11T11:57:06.666Z</time></trkpt><trkpt lat="44.5373285" lon="7.9337979"><ele>271.5</ele><time>2026-04-11T11:57:07.666Z</time></trkpt><trkpt lat="44.5373906" lon="7.9337236"><ele>271.3333333333333</ele><time>2026-04-11T11:57:08.666Z</time></trkpt><trkpt lat="44.5374639" lon="7.9336615"><ele>271.16666666666663</ele><time>2026-04-11T11:57:09.666Z</time></trkpt><trkpt lat="44.5375315" lon="7.9335789"><ele>271.0</ele><time>2026-04-11T11:57:10.667Z</time></trkpt><trkpt lat="44.5375929" lon="7.9334877"><ele>271.0</ele><time>2026-04-11T11:57:11.666Z</time></trkpt><trkpt lat="44.5376628" lon="7.933398"><ele>271.0</ele><time>2026-04-11T11:57:12.666Z</time></trkpt><trkpt lat="44.5377298" lon="7.9333128"><ele>271.0</ele><time>2026-04-11T11:57:13.666Z</time></trkpt><trkpt lat="44.5378" lon="7.9332246"><ele>271.0</ele><time>2026-04-11T11:57:14.666Z</time></trkpt><trkpt lat="44.5378774" lon="7.9331439"><ele>271.0</ele><time>2026-04-11T11:57:15.667Z</time></trkpt><trkpt lat="44.5379548" lon="7.9330585"><ele>271.6</ele><time>2026-04-11T11:57:16.667Z</time></trkpt><trkpt lat="44.5380321" lon="7.9329653"><ele>272.20000000000005</ele><time>2026-04-11T11:57:17.667Z</time></trkpt><trkpt lat="44.5381077" lon="7.9328713"><ele>272.79999999999995</ele><time>2026-04-11T11:57:18.667Z</time></trkpt><trkpt lat="44.5381831" lon="7.9327768"><ele>273.4</ele><time>2026-04-11T11:57:19.667Z</time></trkpt><trkpt lat="44.5382627" lon="7.9326865"><ele>274.0</ele><time>2026-04-11T11:57:20.667Z</time></trkpt><trkpt lat="44.538339" lon="7.9325928"><ele>274.59999999999997</ele><time>2026-04-11T11:57:21.667Z</time></trkpt><trkpt lat="44.5384194" lon="7.9325011"><ele>275.2</ele><time>2026-04-11T11:57:22.667Z</time></trkpt><trkpt lat="44.5385002" lon="7.9324125"><ele>275.79999999999995</ele><time>2026-04-11T11:57:23.667Z</time></trkpt><trkpt lat="44.5385819" lon="7.9323189"><ele>276.4</ele><time>2026-04-11T11:57:24.667Z</time></trkpt><trkpt lat="44.5386623" lon="7.932226"><ele>277.0</ele><time>2026-04-11T11:57:25.667Z</time></trkpt><trkpt lat="44.5387415" lon="7.9321323"><ele>277.0</ele><time>2026-04-11T11:57:26.667Z</time></trkpt><trkpt lat="44.5388216" lon="7.932039"><ele>277.0</ele><time>2026-04-11T11:57:27.667Z</time></trkpt><trkpt lat="44.5389023" lon="7.9319429"><ele>277.0</ele><time>2026-04-11T11:57:28.667Z</time></trkpt><trkpt lat="44.5389861" lon="7.9318486"><ele>277.0</ele><time>2026-04-11T11:57:29.667Z</time></trkpt><trkpt lat="44.5390676" lon="7.9317593"><ele>277.0</ele><time>2026-04-11T11:57:30.667Z</time></trkpt><trkpt lat="44.5391392" lon="7.9316684"><ele>275.0</ele><time>2026-04-11T11:57:31.667Z</time></trkpt><trkpt lat="44.5392122" lon="7.9315775"><ele>273.0</ele><time>2026-04-11T11:57:32.667Z</time></trkpt><trkpt lat="44.5392903" lon="7.9314842"><ele>271.0</ele><time>2026-04-11T11:57:33.667Z</time></trkpt><trkpt lat="44.539364" lon="7.9313895"><ele>269.0</ele><time>2026-04-11T11:57:34.667Z</time></trkpt><trkpt lat="44.5394358" lon="7.931298"><ele>267.0</ele><time>2026-04-11T11:57:35.667Z</time></trkpt><trkpt lat="44.5395099" lon="7.9312124"><ele>266.6</ele><time>2026-04-11T11:57:36.667Z</time></trkpt><trkpt lat="44.5395813" lon="7.9311333"><ele>266.2</ele><time>2026-04-11T11:57:37.667Z</time></trkpt><trkpt lat="44.539659" lon="7.9310671"><ele>265.8</ele><time>2026-04-11T11:57:38.667Z</time></trkpt><trkpt lat="44.5397424" lon="7.9309872"><ele>265.4</ele><time>2026-04-11T11:57:39.667Z</time></trkpt><trkpt lat="44.5398186" lon="7.9309172"><ele>265.0</ele><time>2026-04-11T11:57:40.667Z</time></trkpt><trkpt lat="44.5398845" lon="7.930831"><ele>265.0</ele><time>2026-04-11T11:57:41.667Z</time></trkpt><trkpt lat="44.5399539" lon="7.9307525"><ele>265.0</ele><time>2026-04-11T11:57:42.667Z</time></trkpt><trkpt lat="44.5400222" lon="7.9306629"><ele>265.0</ele><time>2026-04-11T11:57:43.667Z</time></trkpt><trkpt lat="44.5400905" lon="7.9305791"><ele>265.0</ele><time>2026-04-11T11:57:44.667Z</time></trkpt><trkpt lat="44.5401555" lon="7.9304946"><ele>265.0</ele><time>2026-04-11T11:57:45.667Z</time></trkpt><trkpt lat="44.540224" lon="7.9304218"><ele>265.0</ele><time>2026-04-11T11:57:46.667Z</time></trkpt><trkpt lat="44.5402846" lon="7.9303457"><ele>265.0</ele><time>2026-04-11T11:57:47.667Z</time></trkpt><trkpt lat="44.5403478" lon="7.930279"><ele>265.0</ele><time>2026-04-11T11:57:48.667Z</time></trkpt><trkpt lat="44.5404121" lon="7.9302104"><ele>265.0</ele><time>2026-04-11T11:57:49.668Z</time></trkpt><trkpt lat="44.5404754" lon="7.9301374"><ele>265.0</ele><time>2026-04-11T11:57:50.667Z</time></trkpt><trkpt lat="44.5405378" lon="7.9300618"><ele>265.0</ele><time>2026-04-11T11:57:51.667Z</time></trkpt><trkpt lat="44.5405965" lon="7.9299885"><ele>265.0</ele><time>2026-04-11T11:57:52.667Z</time></trkpt><trkpt lat="44.5406588" lon="7.9299185"><ele>264.71428571428567</ele><time>2026-04-11T11:57:53.667Z</time></trkpt><trkpt lat="44.5407119" lon="7.9298454"><ele>264.42857142857144</ele><time>2026-04-11T11:57:54.667Z</time></trkpt><trkpt lat="44.540773" lon="7.9297733"><ele>264.1428571428571</ele><time>2026-04-11T11:57:55.667Z</time></trkpt><trkpt lat="44.5408337" lon="7.9297069"><ele>263.85714285714283</ele><time>2026-04-11T11:57:56.667Z</time></trkpt><trkpt lat="44.54089" lon="7.9296447"><ele>263.57142857142856</ele><time>2026-04-11T11:57:57.667Z</time></trkpt><trkpt lat="44.5409483" lon="7.9295799"><ele>263.2857142857143</ele><time>2026-04-11T11:57:58.667Z</time></trkpt><trkpt lat="44.5410033" lon="7.92952"><ele>263.0</ele><time>2026-04-11T11:57:59.667Z</time></trkpt><trkpt lat="44.5410591" lon="7.9294659"><ele>263.0</ele><time>2026-04-11T11:58:00.667Z</time></trkpt><trkpt lat="44.541124" lon="7.9294077"><ele>263.0</ele><time>2026-04-11T11:58:01.667Z</time></trkpt><trkpt lat="44.541183" lon="7.9293521"><ele>263.0</ele><time>2026-04-11T11:58:02.667Z</time></trkpt><trkpt lat="44.5412371" lon="7.9292895"><ele>263.0</ele><time>2026-04-11T11:58:03.667Z</time></trkpt><trkpt lat="44.5412863" lon="7.9292252"><ele>263.0</ele><time>2026-04-11T11:58:04.667Z</time></trkpt><trkpt lat="44.5413378" lon="7.9291622"><ele>263.0</ele><time>2026-04-11T11:58:05.667Z</time></trkpt><trkpt lat="44.5413929" lon="7.9291004"><ele>263.0</ele><time>2026-04-11T11:58:06.667Z</time></trkpt><trkpt lat="44.5414454" lon="7.9290365"><ele>263.1428571428571</ele><time>2026-04-11T11:58:07.667Z</time></trkpt><trkpt lat="44.5414976" lon="7.9289711"><ele>263.2857142857143</ele><time>2026-04-11T11:58:08.667Z</time></trkpt><trkpt lat="44.5415492" lon="7.9289074"><ele>263.42857142857144</ele><time>2026-04-11T11:58:09.667Z</time></trkpt><trkpt lat="44.5416043" lon="7.9288455"><ele>263.57142857142856</ele><time>2026-04-11T11:58:10.667Z</time></trkpt><trkpt lat="44.5416608" lon="7.9287817"><ele>263.7142857142857</ele><time>2026-04-11T11:58:11.667Z</time></trkpt><trkpt lat="44.5417138" lon="7.9287147"><ele>263.85714285714283</ele><time>2026-04-11T11:58:12.667Z</time></trkpt><trkpt lat="44.541771" lon="7.9286507"><ele>264.0</ele><time>2026-04-11T11:58:13.667Z</time></trkpt><trkpt lat="44.5418288" lon="7.9285881"><ele>264.0</ele><time>2026-04-11T11:58:14.667Z</time></trkpt><trkpt lat="44.5418884" lon="7.9285302"><ele>264.0</ele><time>2026-04-11T11:58:15.667Z</time></trkpt><trkpt lat="44.5419444" lon="7.9284736"><ele>264.0</ele><time>2026-04-11T11:58:16.667Z</time></trkpt><trkpt lat="44.5420034" lon="7.9284165"><ele>264.0</ele><time>2026-04-11T11:58:17.667Z</time></trkpt><trkpt lat="44.5420639" lon="7.9283621"><ele>264.0</ele><time>2026-04-11T11:58:18.667Z</time></trkpt><trkpt lat="44.5421239" lon="7.9283075"><ele>264.0</ele><time>2026-04-11T11:58:19.667Z</time></trkpt><trkpt lat="44.5421867" lon="7.928261"><ele>264.0</ele><time>2026-04-11T11:58:20.667Z</time></trkpt><trkpt lat="44.5422501" lon="7.9282116"><ele>263.57142857142856</ele><time>2026-04-11T11:58:21.667Z</time></trkpt><trkpt lat="44.5423151" lon="7.9281655"><ele>263.14285714285717</ele><time>2026-04-11T11:58:22.667Z</time></trkpt><trkpt lat="44.5423813" lon="7.9281259"><ele>262.7142857142857</ele><time>2026-04-11T11:58:23.667Z</time></trkpt><trkpt lat="44.5424478" lon="7.9280846"><ele>262.2857142857143</ele><time>2026-04-11T11:58:24.667Z</time></trkpt><trkpt lat="44.5425115" lon="7.9280375"><ele>261.85714285714283</ele><time>2026-04-11T11:58:25.667Z</time></trkpt><trkpt lat="44.5425749" lon="7.9279934"><ele>261.42857142857144</ele><time>2026-04-11T11:58:26.667Z</time></trkpt><trkpt lat="44.5426348" lon="7.9279451"><ele>261.0</ele><time>2026-04-11T11:58:27.667Z</time></trkpt><trkpt lat="44.5426949" lon="7.927897"><ele>261.0</ele><time>2026-04-11T11:58:28.667Z</time></trkpt><trkpt lat="44.5427541" lon="7.9278516"><ele>261.0</ele><time>2026-04-11T11:58:29.668Z</time></trkpt><trkpt lat="44.542809" lon="7.9277992"><ele>261.0</ele><time>2026-04-11T11:58:30.667Z</time></trkpt><trkpt lat="44.5428694" lon="7.927757"><ele>261.0</ele><time>2026-04-11T11:58:31.667Z</time></trkpt><trkpt lat="44.5429235" lon="7.9277064"><ele>261.0</ele><time>2026-04-11T11:58:32.667Z</time></trkpt><trkpt lat="44.5429774" lon="7.9276568"><ele>261.0</ele><time>2026-04-11T11:58:33.667Z</time></trkpt><trkpt lat="44.5430316" lon="7.9276104"><ele>261.0</ele><time>2026-04-11T11:58:34.667Z</time></trkpt><trkpt lat="44.5431369" lon="7.9275387"><ele>261.8</ele><time>2026-04-11T11:58:36.667Z</time></trkpt><trkpt lat="44.5432535" lon="7.9275074"><ele>262.6</ele><time>2026-04-11T11:58:38.667Z</time></trkpt><trkpt lat="44.5433611" lon="7.9275536"><ele>263.4</ele><time>2026-04-11T11:58:40.673Z</time></trkpt><trkpt lat="44.5434613" lon="7.9275938"><ele>264.2</ele><time>2026-04-11T11:58:42.673Z</time></trkpt><trkpt lat="44.5435472" lon="7.9276349"><ele>265.0</ele><time>2026-04-11T11:58:44.673Z</time></trkpt><trkpt lat="44.5436407" lon="7.927681"><ele>267.0</ele><time>2026-04-11T11:58:46.673Z</time></trkpt><trkpt lat="44.5437269" lon="7.9277224"><ele>269.0</ele><time>2026-04-11T11:58:48.673Z</time></trkpt><trkpt lat="44.5437906" lon="7.9277748"><ele>271.0</ele><time>2026-04-11T11:58:50.673Z</time></trkpt><trkpt lat="44.5438405" lon="7.9278567"><ele>273.0</ele><time>2026-04-11T11:58:52.673Z</time></trkpt><trkpt lat="44.5438591" lon="7.9279587"><ele>275.0</ele><time>2026-04-11T11:58:54.673Z</time></trkpt><trkpt lat="44.5438777" lon="7.9280515"><ele>277.0</ele><time>2026-04-11T11:58:56.673Z</time></trkpt><trkpt lat="44.5439142" lon="7.9281674"><ele>277.0</ele><time>2026-04-11T11:58:59.673Z</time></trkpt><trkpt lat="44.543934" lon="7.9282628"><ele>277.0</ele><time>2026-04-11T11:59:01.673Z</time></trkpt><trkpt lat="44.5439429" lon="7.9283653"><ele>277.0</ele><time>2026-04-11T11:59:03.673Z</time></trkpt><trkpt lat="44.5439276" lon="7.9284612"><ele>277.0</ele><time>2026-04-11T11:59:05.673Z</time></trkpt><trkpt lat="44.5438983" lon="7.9285475"><ele>277.0</ele><time>2026-04-11T11:59:07.673Z</time></trkpt><trkpt lat="44.543861" lon="7.9286331"><ele>277.0</ele><time>2026-04-11T11:59:09.673Z</time></trkpt><trkpt lat="44.5438352" lon="7.9287233"><ele>277.0</ele><time>2026-04-11T11:59:11.673Z</time></trkpt><trkpt lat="44.5438042" lon="7.9288128"><ele>276.42857142857144</ele><time>2026-04-11T11:59:13.673Z</time></trkpt><trkpt lat="44.5437767" lon="7.9289053"><ele>275.85714285714283</ele><time>2026-04-11T11:59:15.673Z</time></trkpt><trkpt lat="44.5437534" lon="7.9289995"><ele>275.2857142857143</ele><time>2026-04-11T11:59:17.674Z</time></trkpt><trkpt lat="44.543731" lon="7.929092"><ele>274.7142857142857</ele><time>2026-04-11T11:59:19.673Z</time></trkpt><trkpt lat="44.5436938" lon="7.9291824"><ele>274.1428571428571</ele><time>2026-04-11T11:59:21.673Z</time></trkpt><trkpt lat="44.5436623" lon="7.9292659"><ele>273.57142857142856</ele><time>2026-04-11T11:59:23.673Z</time></trkpt><trkpt lat="44.543627" lon="7.9293435"><ele>273.0</ele><time>2026-04-11T11:59:25.673Z</time></trkpt><trkpt lat="44.5435923" lon="7.929423"><ele>274.8333333333333</ele><time>2026-04-11T11:59:27.673Z</time></trkpt><trkpt lat="44.5435529" lon="7.9295384"><ele>276.6666666666667</ele><time>2026-04-11T11:59:30.674Z</time></trkpt><trkpt lat="44.5435147" lon="7.9296165"><ele>278.5</ele><time>2026-04-11T11:59:32.674Z</time></trkpt><trkpt lat="44.5434983" lon="7.9297341"><ele>280.33333333333337</ele><time>2026-04-11T11:59:35.674Z</time></trkpt><trkpt lat="44.5435291" lon="7.9298384"><ele>282.1666666666667</ele><time>2026-04-11T11:59:38.674Z</time></trkpt><trkpt lat="44.5435478" lon="7.9299437"><ele>284.0</ele><time>2026-04-11T11:59:41.674Z</time></trkpt><trkpt lat="44.5435522" lon="7.9300553"><ele>285.0</ele><time>2026-04-11T11:59:44.674Z</time></trkpt><trkpt lat="44.5435444" lon="7.9301665"><ele>286.0</ele><time>2026-04-11T11:59:47.674Z</time></trkpt><trkpt lat="44.5435274" lon="7.9302808"><ele>287.0</ele><time>2026-04-11T11:59:50.674Z</time></trkpt><trkpt lat="44.5435172" lon="7.9303885"><ele>288.0</ele><time>2026-04-11T11:59:53.674Z</time></trkpt><trkpt lat="44.54351" lon="7.9304881"><ele>289.0</ele><time>2026-04-11T11:59:56.674Z</time></trkpt><trkpt lat="44.543499" lon="7.9305892"><ele>290.0</ele><time>2026-04-11T11:59:59.674Z</time></trkpt><trkpt lat="44.5434834" lon="7.9306758"><ele>291.0</ele><time>2026-04-11T12:00:02.674Z</time></trkpt><trkpt lat="44.5434552" lon="7.9307943"><ele>291.0</ele><time>2026-04-11T12:00:05.675Z</time></trkpt><trkpt lat="44.5434421" lon="7.9308865"><ele>291.0</ele><time>2026-04-11T12:00:08.674Z</time></trkpt><trkpt lat="44.5434454" lon="7.9309895"><ele>291.0</ele><time>2026-04-11T12:00:11.674Z</time></trkpt><trkpt lat="44.543456" lon="7.9310924"><ele>291.0</ele><time>2026-04-11T12:00:14.674Z</time></trkpt><trkpt lat="44.5434726" lon="7.9311955"><ele>291.0</ele><time>2026-04-11T12:00:17.674Z</time></trkpt><trkpt lat="44.5434875" lon="7.9312945"><ele>291.0</ele><time>2026-04-11T12:00:20.674Z</time></trkpt><trkpt lat="44.543512" lon="7.9313975"><ele>291.0</ele><time>2026-04-11T12:00:23.674Z</time></trkpt><trkpt lat="44.5435406" lon="7.9315007"><ele>292.1666666666667</ele><time>2026-04-11T12:00:26.674Z</time></trkpt><trkpt lat="44.5435508" lon="7.9315981"><ele>293.3333333333333</ele><time>2026-04-11T12:00:29.674Z</time></trkpt><trkpt lat="44.5435808" lon="7.9316983"><ele>294.5</ele><time>2026-04-11T12:00:32.674Z</time></trkpt><trkpt lat="44.5436004" lon="7.931802"><ele>295.66666666666663</ele><time>2026-04-11T12:00:35.674Z</time></trkpt><trkpt lat="44.543633" lon="7.9319033"><ele>296.8333333333333</ele><time>2026-04-11T12:00:38.674Z</time></trkpt><trkpt lat="44.5436555" lon="7.9320032"><ele>298.0</ele><time>2026-04-11T12:00:41.674Z</time></trkpt><trkpt lat="44.5436884" lon="7.9320952"><ele>299.0</ele><time>2026-04-11T12:00:44.674Z</time></trkpt><trkpt lat="44.5437125" lon="7.9321823"><ele>300.0</ele><time>2026-04-11T12:00:47.674Z</time></trkpt><trkpt lat="44.5437372" lon="7.9322779"><ele>301.0</ele><time>2026-04-11T12:00:50.674Z</time></trkpt><trkpt lat="44.5437739" lon="7.9323738"><ele>302.0</ele><time>2026-04-11T12:00:53.674Z</time></trkpt><trkpt lat="44.5438171" lon="7.9324481"><ele>303.0</ele><time>2026-04-11T12:00:56.674Z</time></trkpt><trkpt lat="44.5438271" lon="7.9325396"><ele>304.0</ele><time>2026-04-11T12:00:59.674Z</time></trkpt><trkpt lat="44.5438484" lon="7.9326295"><ele>305.0</ele><time>2026-04-11T12:01:02.674Z</time></trkpt><trkpt lat="44.5438687" lon="7.9327222"><ele>305.2857142857143</ele><time>2026-04-11T12:01:05.674Z</time></trkpt><trkpt lat="44.5438868" lon="7.9328296"><ele>305.57142857142856</ele><time>2026-04-11T12:01:08.674Z</time></trkpt><trkpt lat="44.5439273" lon="7.9329185"><ele>305.85714285714283</ele><time>2026-04-11T12:01:12.674Z</time></trkpt><trkpt lat="44.5439579" lon="7.9330032"><ele>306.1428571428571</ele><time>2026-04-11T12:01:15.674Z</time></trkpt><trkpt lat="44.5439761" lon="7.9330957"><ele>306.42857142857144</ele><time>2026-04-11T12:01:18.675Z</time></trkpt><trkpt lat="44.5439976" lon="7.9331902"><ele>306.71428571428567</ele><time>2026-04-11T12:01:21.674Z</time></trkpt><trkpt lat="44.5440167" lon="7.9333107"><ele>307.0</ele><time>2026-04-11T12:01:24.674Z</time></trkpt><trkpt lat="44.5440238" lon="7.9334026"><ele>308.2857142857143</ele><time>2026-04-11T12:01:27.674Z</time></trkpt><trkpt lat="44.5440407" lon="7.9334879"><ele>309.57142857142856</ele><time>2026-04-11T12:01:30.674Z</time></trkpt><trkpt lat="44.5440497" lon="7.9335839"><ele>310.8571428571429</ele><time>2026-04-11T12:01:33.674Z</time></trkpt><trkpt lat="44.5440639" lon="7.9336765"><ele>312.1428571428571</ele><time>2026-04-11T12:01:36.674Z</time></trkpt><trkpt lat="44.5440912" lon="7.9337828"><ele>313.42857142857144</ele><time>2026-04-11T12:01:40.674Z</time></trkpt><trkpt lat="44.5441192" lon="7.9338794"><ele>314.7142857142857</ele><time>2026-04-11T12:01:44.674Z</time></trkpt><trkpt lat="44.544152" lon="7.9339816"><ele>316.0</ele><time>2026-04-11T12:01:48.674Z</time></trkpt><trkpt lat="44.5441929" lon="7.9340726"><ele>316.0</ele><time>2026-04-11T12:01:52.674Z</time></trkpt><trkpt lat="44.544204" lon="7.9341886"><ele>316.0</ele><time>2026-04-11T12:01:56.674Z</time></trkpt><trkpt lat="44.5442082" lon="7.9342986"><ele>316.0</ele><time>2026-04-11T12:02:00.674Z</time></trkpt><trkpt lat="44.5442262" lon="7.9344072"><ele>316.0</ele><time>2026-04-11T12:02:04.674Z</time></trkpt><trkpt lat="44.5442223" lon="7.9344987"><ele>316.0</ele><time>2026-04-11T12:02:07.674Z</time></trkpt><trkpt lat="44.5442556" lon="7.9346094"><ele>316.0</ele><time>2026-04-11T12:02:12.674Z</time></trkpt><trkpt lat="44.5442016" lon="7.9346873"><ele>317.16666666666663</ele><time>2026-04-11T12:02:15.674Z</time></trkpt><trkpt lat="44.5442425" lon="7.9347699"><ele>318.3333333333333</ele><time>2026-04-11T12:02:19.674Z</time></trkpt><trkpt lat="44.5442964" lon="7.9348407"><ele>319.5</ele><time>2026-04-11T12:02:22.674Z</time></trkpt><trkpt lat="44.5443696" lon="7.9349218"><ele>320.6666666666667</ele><time>2026-04-11T12:02:26.674Z</time></trkpt><trkpt lat="44.5444127" lon="7.9350136"><ele>321.83333333333337</ele><time>2026-04-11T12:02:30.674Z</time></trkpt><trkpt lat="44.5444696" lon="7.9350626"><ele>323.0</ele><time>2026-04-11T12:02:33.674Z</time></trkpt><trkpt lat="44.5445514" lon="7.9350831"><ele>323.5714285714286</ele><time>2026-04-11T12:02:36.674Z</time></trkpt><trkpt lat="44.5445825" lon="7.9351818"><ele>324.14285714285717</ele><time>2026-04-11T12:02:40.674Z</time></trkpt><trkpt lat="44.5446161" lon="7.9352689"><ele>324.7142857142857</ele><time>2026-04-11T12:02:44.674Z</time></trkpt><trkpt lat="44.5446187" lon="7.9353626"><ele>325.28571428571433</ele><time>2026-04-11T12:02:48.674Z</time></trkpt><trkpt lat="44.5446638" lon="7.9354384"><ele>325.8571428571429</ele><time>2026-04-11T12:02:51.674Z</time></trkpt><trkpt lat="44.5447121" lon="7.9355052"><ele>326.42857142857144</ele><time>2026-04-11T12:02:55.674Z</time></trkpt><trkpt lat="44.5447637" lon="7.935575"><ele>327.0</ele><time>2026-04-11T12:02:59.674Z</time></trkpt><trkpt lat="44.544784" lon="7.9356641"><ele>327.0</ele><time>2026-04-11T12:03:02.674Z</time></trkpt><trkpt lat="44.5448103" lon="7.9357535"><ele>327.0</ele><time>2026-04-11T12:03:05.674Z</time></trkpt><trkpt lat="44.544857" lon="7.9358415"><ele>327.0</ele><time>2026-04-11T12:03:10.674Z</time></trkpt><trkpt lat="44.5448889" lon="7.9359272"><ele>327.0</ele><time>2026-04-11T12:03:14.674Z</time></trkpt><trkpt lat="44.54482" lon="7.9359605"><ele>327.0</ele><time>2026-04-11T12:05:51.681Z</time></trkpt><trkpt lat="44.5447622" lon="7.936014"><ele>327.0</ele><time>2026-04-11T12:05:55.681Z</time></trkpt><trkpt lat="44.5446909" lon="7.9360018"><ele>327.0</ele><time>2026-04-11T12:05:59.681Z</time></trkpt><trkpt lat="44.54462" lon="7.9359617"><ele>327.1428571428571</ele><time>2026-04-11T12:06:03.681Z</time></trkpt><trkpt lat="44.5445553" lon="7.9359347"><ele>327.2857142857143</ele><time>2026-04-11T12:06:06.681Z</time></trkpt><trkpt lat="44.5444878" lon="7.9359177"><ele>327.42857142857144</ele><time>2026-04-11T12:06:09.681Z</time></trkpt><trkpt lat="44.544426" lon="7.9358898"><ele>327.57142857142856</ele><time>2026-04-11T12:06:12.681Z</time></trkpt><trkpt lat="44.5443503" lon="7.9358675"><ele>327.7142857142857</ele><time>2026-04-11T12:06:17.681Z</time></trkpt><trkpt lat="44.5442662" lon="7.9358829"><ele>327.85714285714283</ele><time>2026-04-11T12:06:19.681Z</time></trkpt><trkpt lat="44.5441974" lon="7.9358347"><ele>328.0</ele><time>2026-04-11T12:06:22.681Z</time></trkpt><trkpt lat="44.5441473" lon="7.9357639"><ele>327.99999999999994</ele><time>2026-04-11T12:06:25.681Z</time></trkpt><trkpt lat="44.5440809" lon="7.935696"><ele>328.0</ele><time>2026-04-11T12:06:29.681Z</time></trkpt><trkpt lat="44.5440236" lon="7.9356434"><ele>328.0</ele><time>2026-04-11T12:06:32.681Z</time></trkpt><trkpt lat="44.5439739" lon="7.9355769"><ele>328.0</ele><time>2026-04-11T12:06:35.681Z</time></trkpt><trkpt lat="44.5439552" lon="7.9354755"><ele>328.0</ele><time>2026-04-11T12:06:37.681Z</time></trkpt><trkpt lat="44.5439311" lon="7.9353922"><ele>327.99999999999994</ele><time>2026-04-11T12:06:40.681Z</time></trkpt><trkpt lat="44.5438914" lon="7.9353186"><ele>328.0</ele><time>2026-04-11T12:06:43.681Z</time></trkpt><trkpt lat="44.54385" lon="7.935226"><ele>327.99999999999994</ele><time>2026-04-11T12:06:46.681Z</time></trkpt><trkpt lat="44.5438175" lon="7.9351313"><ele>328.0</ele><time>2026-04-11T12:06:49.681Z</time></trkpt><trkpt lat="44.5437839" lon="7.9350506"><ele>328.0</ele><time>2026-04-11T12:06:51.681Z</time></trkpt><trkpt lat="44.5437595" lon="7.9349621"><ele>328.0</ele><time>2026-04-11T12:06:54.681Z</time></trkpt><trkpt lat="44.543732" lon="7.9348789"><ele>328.0</ele><time>2026-04-11T12:06:57.681Z</time></trkpt><trkpt lat="44.5437135" lon="7.9347934"><ele>327.99999999999994</ele><time>2026-04-11T12:06:59.681Z</time></trkpt><trkpt lat="44.5436554" lon="7.9347186"><ele>328.0</ele><time>2026-04-11T12:07:02.681Z</time></trkpt><trkpt lat="44.5436013" lon="7.9346343"><ele>328.5</ele><time>2026-04-11T12:07:05.681Z</time></trkpt><trkpt lat="44.5435401" lon="7.9346058"><ele>329.0</ele><time>2026-04-11T12:07:08.681Z</time></trkpt><trkpt lat="44.543521" lon="7.9344646"><ele>329.5</ele><time>2026-04-11T12:07:12.681Z</time></trkpt><trkpt lat="44.5434718" lon="7.9343784"><ele>330.0</ele><time>2026-04-11T12:07:14.681Z</time></trkpt><trkpt lat="44.5434255" lon="7.9343086"><ele>330.5</ele><time>2026-04-11T12:07:16.681Z</time></trkpt><trkpt lat="44.5434097" lon="7.9341886"><ele>331.0</ele><time>2026-04-11T12:07:20.681Z</time></trkpt><trkpt lat="44.5433541" lon="7.9341391"><ele>331.0</ele><time>2026-04-11T12:07:22.681Z</time></trkpt><trkpt lat="44.5432926" lon="7.9340891"><ele>331.0</ele><time>2026-04-11T12:07:24.681Z</time></trkpt><trkpt lat="44.5432372" lon="7.9339946"><ele>331.0</ele><time>2026-04-11T12:07:27.681Z</time></trkpt><trkpt lat="44.5431958" lon="7.9339141"><ele>331.0</ele><time>2026-04-11T12:07:31.681Z</time></trkpt><trkpt lat="44.5431398" lon="7.9338364"><ele>331.0</ele><time>2026-04-11T12:07:35.681Z</time></trkpt><trkpt lat="44.5430738" lon="7.9337993"><ele>331.0</ele><time>2026-04-11T12:07:38.681Z</time></trkpt><trkpt lat="44.5430125" lon="7.9338424"><ele>331.0</ele><time>2026-04-11T12:07:42.681Z</time></trkpt><trkpt lat="44.5429554" lon="7.9339098"><ele>331.0</ele><time>2026-04-11T12:07:45.681Z</time></trkpt><trkpt lat="44.5428912" lon="7.9339744"><ele>331.0</ele><time>2026-04-11T12:07:48.681Z</time></trkpt><trkpt lat="44.5428528" lon="7.9340693"><ele>331.0</ele><time>2026-04-11T12:07:52.681Z</time></trkpt><trkpt lat="44.5428609" lon="7.9341641"><ele>331.0</ele><time>2026-04-11T12:07:55.681Z</time></trkpt><trkpt lat="44.5428658" lon="7.9342763"><ele>331.0</ele><time>2026-04-11T12:07:58.682Z</time></trkpt><trkpt lat="44.5429222" lon="7.9343478"><ele>331.0</ele><time>2026-04-11T12:08:02.681Z</time></trkpt><trkpt lat="44.5429984" lon="7.9343967"><ele>332.0</ele><time>2026-04-11T12:08:06.681Z</time></trkpt><trkpt lat="44.5430313" lon="7.9345086"><ele>333.0</ele><time>2026-04-11T12:08:10.681Z</time></trkpt><trkpt lat="44.5430785" lon="7.9346026"><ele>334.0</ele><time>2026-04-11T12:08:14.681Z</time></trkpt><trkpt lat="44.5430969" lon="7.9346987"><ele>335.0</ele><time>2026-04-11T12:08:17.681Z</time></trkpt><trkpt lat="44.5430873" lon="7.9348161"><ele>336.0</ele><time>2026-04-11T12:08:21.682Z</time></trkpt><trkpt lat="44.5430811" lon="7.9349052"><ele>337.0</ele><time>2026-04-11T12:08:24.681Z</time></trkpt><trkpt lat="44.5430644" lon="7.9349937"><ele>338.00000000000006</ele><time>2026-04-11T12:08:27.681Z</time></trkpt><trkpt lat="44.5430357" lon="7.9351124"><ele>339.0</ele><time>2026-04-11T12:08:30.681Z</time></trkpt><trkpt lat="44.5430157" lon="7.9351979"><ele>340.0</ele><time>2026-04-11T12:08:34.681Z</time></trkpt><trkpt lat="44.5430193" lon="7.9352995"><ele>341.0</ele><time>2026-04-11T12:08:38.681Z</time></trkpt><trkpt lat="44.5430414" lon="7.9354014"><ele>342.0</ele><time>2026-04-11T12:08:42.681Z</time></trkpt><trkpt lat="44.5430232" lon="7.9354935"><ele>343.00000000000006</ele><time>2026-04-11T12:08:45.682Z</time></trkpt><trkpt lat="44.5430196" lon="7.9355838"><ele>344.0</ele><time>2026-04-11T12:08:49.681Z</time></trkpt><trkpt lat="44.5430475" lon="7.9356741"><ele>344.00000000000006</ele><time>2026-04-11T12:08:53.681Z</time></trkpt><trkpt lat="44.5430435" lon="7.9357624"><ele>344.0</ele><time>2026-04-11T12:08:56.681Z</time></trkpt><trkpt lat="44.5430577" lon="7.9358666"><ele>344.0</ele><time>2026-04-11T12:08:59.681Z</time></trkpt><trkpt lat="44.543073" lon="7.935961"><ele>344.0</ele><time>2026-04-11T12:09:03.681Z</time></trkpt><trkpt lat="44.5431002" lon="7.9360535"><ele>344.0</ele><time>2026-04-11T12:09:07.681Z</time></trkpt><trkpt lat="44.5431329" lon="7.9361355"><ele>344.00000000000006</ele><time>2026-04-11T12:09:10.681Z</time></trkpt><trkpt lat="44.5431662" lon="7.936247"><ele>344.0</ele><time>2026-04-11T12:09:14.681Z</time></trkpt><trkpt lat="44.5432007" lon="7.9363421"><ele>345.42857142857144</ele><time>2026-04-11T12:09:17.681Z</time></trkpt><trkpt lat="44.5432266" lon="7.936446"><ele>346.8571428571429</ele><time>2026-04-11T12:09:21.681Z</time></trkpt><trkpt lat="44.5432493" lon="7.9365521"><ele>348.28571428571433</ele><time>2026-04-11T12:09:25.681Z</time></trkpt><trkpt lat="44.5432565" lon="7.9366406"><ele>349.7142857142857</ele><time>2026-04-11T12:09:28.681Z</time></trkpt><trkpt lat="44.543269" lon="7.9367383"><ele>351.1428571428571</ele><time>2026-04-11T12:09:31.681Z</time></trkpt><trkpt lat="44.5432502" lon="7.9368337"><ele>352.5714285714286</ele><time>2026-04-11T12:09:34.681Z</time></trkpt><trkpt lat="44.5432463" lon="7.9369316"><ele>354.0</ele><time>2026-04-11T12:09:37.681Z</time></trkpt><trkpt lat="44.5432661" lon="7.9370182"><ele>355.42857142857144</ele><time>2026-04-11T12:09:40.681Z</time></trkpt><trkpt lat="44.5432876" lon="7.9371156"><ele>356.85714285714283</ele><time>2026-04-11T12:09:43.681Z</time></trkpt><trkpt lat="44.5433041" lon="7.937215"><ele>358.2857142857143</ele><time>2026-04-11T12:09:46.681Z</time></trkpt><trkpt lat="44.5433471" lon="7.9372875"><ele>359.7142857142857</ele><time>2026-04-11T12:09:50.681Z</time></trkpt><trkpt lat="44.5433827" lon="7.9373634"><ele>361.1428571428571</ele><time>2026-04-11T12:09:53.681Z</time></trkpt><trkpt lat="44.5434186" lon="7.937447"><ele>362.57142857142856</ele><time>2026-04-11T12:09:56.681Z</time></trkpt><trkpt lat="44.5434754" lon="7.9375325"><ele>364.0</ele><time>2026-04-11T12:10:00.681Z</time></trkpt><trkpt lat="44.5435322" lon="7.9375906"><ele>365.5</ele><time>2026-04-11T12:10:03.681Z</time></trkpt><trkpt lat="44.5436154" lon="7.9376565"><ele>367.0</ele><time>2026-04-11T12:10:07.681Z</time></trkpt><trkpt lat="44.5436778" lon="7.937712"><ele>368.5</ele><time>2026-04-11T12:10:10.681Z</time></trkpt><trkpt lat="44.5437332" lon="7.9377756"><ele>370.0</ele><time>2026-04-11T12:10:14.681Z</time></trkpt><trkpt lat="44.5437966" lon="7.9378365"><ele>371.5</ele><time>2026-04-11T12:10:18.681Z</time></trkpt><trkpt lat="44.5438655" lon="7.9378757"><ele>373.0</ele><time>2026-04-11T12:10:21.681Z</time></trkpt><trkpt lat="44.5439339" lon="7.9379346"><ele>373.2857142857143</ele><time>2026-04-11T12:10:24.681Z</time></trkpt><trkpt lat="44.5439906" lon="7.9379857"><ele>373.57142857142856</ele><time>2026-04-11T12:10:27.681Z</time></trkpt><trkpt lat="44.54405" lon="7.9380274"><ele>373.8571428571429</ele><time>2026-04-11T12:10:30.681Z</time></trkpt><trkpt lat="44.5441095" lon="7.9380657"><ele>374.1428571428571</ele><time>2026-04-11T12:10:33.681Z</time></trkpt><trkpt lat="44.5441642" lon="7.9381308"><ele>374.4285714285714</ele><time>2026-04-11T12:10:36.681Z</time></trkpt><trkpt lat="44.5442185" lon="7.938208"><ele>374.7142857142857</ele><time>2026-04-11T12:10:39.681Z</time></trkpt><trkpt lat="44.5442518" lon="7.9382977"><ele>375.0</ele><time>2026-04-11T12:10:43.681Z</time></trkpt><trkpt lat="44.5442758" lon="7.9383896"><ele>376.2857142857143</ele><time>2026-04-11T12:10:46.681Z</time></trkpt><trkpt lat="44.5442522" lon="7.9384914"><ele>377.57142857142856</ele><time>2026-04-11T12:10:49.681Z</time></trkpt><trkpt lat="44.5442254" lon="7.9385816"><ele>378.85714285714283</ele><time>2026-04-11T12:10:53.682Z</time></trkpt><trkpt lat="44.5442335" lon="7.9386742"><ele>380.1428571428571</ele><time>2026-04-11T12:10:58.682Z</time></trkpt><trkpt lat="44.5441844" lon="7.9387444"><ele>381.42857142857144</ele><time>2026-04-11T12:11:02.682Z</time></trkpt><trkpt lat="44.5441341" lon="7.9388059"><ele>382.71428571428567</ele><time>2026-04-11T12:11:06.682Z</time></trkpt><trkpt lat="44.5440814" lon="7.9388599"><ele>384.0</ele><time>2026-04-11T12:11:10.682Z</time></trkpt><trkpt lat="44.5440673" lon="7.9389549"><ele>384.0</ele><time>2026-04-11T12:11:14.682Z</time></trkpt><trkpt lat="44.5441025" lon="7.9390452"><ele>384.0</ele><time>2026-04-11T12:11:18.682Z</time></trkpt><trkpt lat="44.5441672" lon="7.9391077"><ele>384.0</ele><time>2026-04-11T12:11:22.682Z</time></trkpt><trkpt lat="44.5442469" lon="7.9391389"><ele>384.0</ele><time>2026-04-11T12:11:26.682Z</time></trkpt><trkpt lat="44.5443162" lon="7.9391907"><ele>384.0</ele><time>2026-04-11T12:11:30.682Z</time></trkpt><trkpt lat="44.5443893" lon="7.9391889"><ele>384.0</ele><time>2026-04-11T12:11:33.682Z</time></trkpt><trkpt lat="44.5444602" lon="7.9391786"><ele>383.99999999999994</ele><time>2026-04-11T12:11:36.682Z</time></trkpt><trkpt lat="44.5445264" lon="7.939184"><ele>384.0</ele><time>2026-04-11T12:11:39.682Z</time></trkpt><trkpt lat="44.5445907" lon="7.9391845"><ele>384.0</ele><time>2026-04-11T12:11:42.682Z</time></trkpt><trkpt lat="44.5446405" lon="7.9392394"><ele>384.0</ele><time>2026-04-11T12:11:45.682Z</time></trkpt><trkpt lat="44.5446423" lon="7.9393482"><ele>384.0</ele><time>2026-04-11T12:11:48.682Z</time></trkpt><trkpt lat="44.5446585" lon="7.9394469"><ele>383.99999999999994</ele><time>2026-04-11T12:11:51.682Z</time></trkpt><trkpt lat="44.5446685" lon="7.9395369"><ele>384.0</ele><time>2026-04-11T12:11:54.682Z</time></trkpt><trkpt lat="44.5446852" lon="7.9396331"><ele>385.1666666666667</ele><time>2026-04-11T12:11:57.682Z</time></trkpt><trkpt lat="44.54467" lon="7.9397395"><ele>386.33333333333337</ele><time>2026-04-11T12:12:01.688Z</time></trkpt><trkpt lat="44.5446639" lon="7.9398446"><ele>387.5</ele><time>2026-04-11T12:12:04.688Z</time></trkpt><trkpt lat="44.544712" lon="7.9399365"><ele>388.6666666666667</ele><time>2026-04-11T12:12:07.688Z</time></trkpt><trkpt lat="44.5447805" lon="7.9400113"><ele>389.83333333333337</ele><time>2026-04-11T12:12:10.688Z</time></trkpt><trkpt lat="44.5448184" lon="7.9400822"><ele>391.0</ele><time>2026-04-11T12:12:12.688Z</time></trkpt><trkpt lat="44.544892" lon="7.9401249"><ele>390.99999999999994</ele><time>2026-04-11T12:12:17.688Z</time></trkpt><trkpt lat="44.5449529" lon="7.940154"><ele>391.0</ele><time>2026-04-11T12:12:20.688Z</time></trkpt><trkpt lat="44.5450153" lon="7.9401147"><ele>391.0</ele><time>2026-04-11T12:12:23.688Z</time></trkpt><trkpt lat="44.5450827" lon="7.9401476"><ele>391.0</ele><time>2026-04-11T12:12:26.688Z</time></trkpt><trkpt lat="44.545154" lon="7.9401868"><ele>391.0</ele><time>2026-04-11T12:12:29.688Z</time></trkpt><trkpt lat="44.5452189" lon="7.940229"><ele>390.99999999999994</ele><time>2026-04-11T12:12:32.688Z</time></trkpt><trkpt lat="44.5453033" lon="7.9402391"><ele>391.0</ele><time>2026-04-11T12:12:36.688Z</time></trkpt><trkpt lat="44.5453755" lon="7.9402487"><ele>392.85714285714283</ele><time>2026-04-11T12:12:39.688Z</time></trkpt><trkpt lat="44.5454449" lon="7.9402651"><ele>394.7142857142857</ele><time>2026-04-11T12:12:42.688Z</time></trkpt><trkpt lat="44.5455222" lon="7.9402722"><ele>396.57142857142856</ele><time>2026-04-11T12:12:45.688Z</time></trkpt><trkpt lat="44.5455902" lon="7.9403065"><ele>398.42857142857144</ele><time>2026-04-11T12:12:48.689Z</time></trkpt><trkpt lat="44.5456523" lon="7.9403296"><ele>400.2857142857143</ele><time>2026-04-11T12:12:51.688Z</time></trkpt><trkpt lat="44.5457151" lon="7.9403915"><ele>402.1428571428571</ele><time>2026-04-11T12:12:55.688Z</time></trkpt><trkpt lat="44.5457764" lon="7.9404373"><ele>404.0</ele><time>2026-04-11T12:12:58.688Z</time></trkpt><trkpt lat="44.545843" lon="7.9405111"><ele>404.0</ele><time>2026-04-11T12:13:02.688Z</time></trkpt><trkpt lat="44.5458948" lon="7.9405693"><ele>404.0</ele><time>2026-04-11T12:13:05.688Z</time></trkpt><trkpt lat="44.5459524" lon="7.9406339"><ele>404.0</ele><time>2026-04-11T12:13:09.688Z</time></trkpt><trkpt lat="44.5460042" lon="7.9407112"><ele>404.0</ele><time>2026-04-11T12:13:13.688Z</time></trkpt><trkpt lat="44.5460576" lon="7.9407894"><ele>404.0</ele><time>2026-04-11T12:13:17.688Z</time></trkpt><trkpt lat="44.5461095" lon="7.9408589"><ele>404.0</ele><time>2026-04-11T12:13:21.688Z</time></trkpt><trkpt lat="44.5461653" lon="7.9409126"><ele>404.0</ele><time>2026-04-11T12:13:24.688Z</time></trkpt><trkpt lat="44.5462199" lon="7.9409815"><ele>405.7142857142857</ele><time>2026-04-11T12:13:28.688Z</time></trkpt><trkpt lat="44.5462591" lon="7.9410542"><ele>407.42857142857144</ele><time>2026-04-11T12:13:32.688Z</time></trkpt><trkpt lat="44.5463064" lon="7.9411293"><ele>409.1428571428571</ele><time>2026-04-11T12:13:36.688Z</time></trkpt><trkpt lat="44.5463577" lon="7.9412057"><ele>410.8571428571429</ele><time>2026-04-11T12:13:40.688Z</time></trkpt><trkpt lat="44.5464056" lon="7.9412671"><ele>412.5714285714286</ele><time>2026-04-11T12:13:44.688Z</time></trkpt><trkpt lat="44.5464555" lon="7.9413272"><ele>414.2857142857143</ele><time>2026-04-11T12:13:48.688Z</time></trkpt><trkpt lat="44.5465106" lon="7.9413985"><ele>416.0</ele><time>2026-04-11T12:13:52.688Z</time></trkpt><trkpt lat="44.5465667" lon="7.9414646"><ele>416.0</ele><time>2026-04-11T12:13:56.688Z</time></trkpt><trkpt lat="44.5466214" lon="7.9415314"><ele>416.0</ele><time>2026-04-11T12:14:00.688Z</time></trkpt><trkpt lat="44.5466725" lon="7.9416071"><ele>416.0</ele><time>2026-04-11T12:14:04.688Z</time></trkpt><trkpt lat="44.5467255" lon="7.9416658"><ele>416.0</ele><time>2026-04-11T12:14:08.688Z</time></trkpt><trkpt lat="44.5467803" lon="7.9417306"><ele>416.0</ele><time>2026-04-11T12:14:12.688Z</time></trkpt><trkpt lat="44.5468317" lon="7.9417906"><ele>416.0</ele><time>2026-04-11T12:14:16.688Z</time></trkpt><trkpt lat="44.5468809" lon="7.9418511"><ele>416.0</ele><time>2026-04-11T12:14:20.688Z</time></trkpt><trkpt lat="44.5469267" lon="7.9419129"><ele>415.2857142857143</ele><time>2026-04-11T12:14:24.688Z</time></trkpt><trkpt lat="44.5469848" lon="7.9419524"><ele>414.5714285714286</ele><time>2026-04-11T12:14:27.688Z</time></trkpt><trkpt lat="44.5470479" lon="7.9419914"><ele>413.8571428571429</ele><time>2026-04-11T12:14:30.688Z</time></trkpt><trkpt lat="44.547101" lon="7.942058"><ele>413.1428571428571</ele><time>2026-04-11T12:14:35.688Z</time></trkpt><trkpt lat="44.54713" lon="7.9421381"><ele>412.42857142857144</ele><time>2026-04-11T12:14:38.688Z</time></trkpt><trkpt lat="44.5472" lon="7.9421757"><ele>411.7142857142857</ele><time>2026-04-11T12:14:42.688Z</time></trkpt><trkpt lat="44.5472147" lon="7.9422625"><ele>411.0</ele><time>2026-04-11T12:14:45.688Z</time></trkpt><trkpt lat="44.5471814" lon="7.94238"><ele>410.7142857142857</ele><time>2026-04-11T12:14:48.688Z</time></trkpt><trkpt lat="44.547179" lon="7.9424718"><ele>410.42857142857144</ele><time>2026-04-11T12:14:50.688Z</time></trkpt><trkpt lat="44.5471925" lon="7.9425755"><ele>410.1428571428571</ele><time>2026-04-11T12:14:52.688Z</time></trkpt><trkpt lat="44.5472349" lon="7.9426429"><ele>409.8571428571429</ele><time>2026-04-11T12:14:54.688Z</time></trkpt><trkpt lat="44.5472921" lon="7.9426828"><ele>409.5714285714286</ele><time>2026-04-11T12:14:56.688Z</time></trkpt><trkpt lat="44.5473526" lon="7.9427116"><ele>409.2857142857143</ele><time>2026-04-11T12:14:58.688Z</time></trkpt><trkpt lat="44.5474291" lon="7.9426908"><ele>409.0</ele><time>2026-04-11T12:15:01.688Z</time></trkpt><trkpt lat="44.5475082" lon="7.9427152"><ele>409.0</ele><time>2026-04-11T12:15:04.688Z</time></trkpt><trkpt lat="44.5475818" lon="7.9427363"><ele>409.0</ele><time>2026-04-11T12:15:07.688Z</time></trkpt><trkpt lat="44.5476622" lon="7.9427516"><ele>409.0</ele><time>2026-04-11T12:15:11.688Z</time></trkpt><trkpt lat="44.5477429" lon="7.9427499"><ele>409.0</ele><time>2026-04-11T12:15:15.688Z</time></trkpt><trkpt lat="44.5478023" lon="7.9427096"><ele>409.0</ele><time>2026-04-11T12:15:18.688Z</time></trkpt><trkpt lat="44.5478549" lon="7.9426362"><ele>409.0</ele><time>2026-04-11T12:15:21.688Z</time></trkpt><trkpt lat="44.54792" lon="7.9426452"><ele>409.0</ele><time>2026-04-11T12:15:24.688Z</time></trkpt><trkpt lat="44.5479807" lon="7.9426695"><ele>412.1428571428571</ele><time>2026-04-11T12:15:28.688Z</time></trkpt><trkpt lat="44.5480196" lon="7.9427622"><ele>415.28571428571433</ele><time>2026-04-11T12:15:32.688Z</time></trkpt><trkpt lat="44.5480752" lon="7.9428319"><ele>418.42857142857144</ele><time>2026-04-11T12:15:37.688Z</time></trkpt><trkpt lat="44.5481157" lon="7.9429067"><ele>421.57142857142856</ele><time>2026-04-11T12:15:41.688Z</time></trkpt><trkpt lat="44.5481812" lon="7.9429682"><ele>424.71428571428567</ele><time>2026-04-11T12:15:45.688Z</time></trkpt><trkpt lat="44.5482362" lon="7.9430298"><ele>427.8571428571429</ele><time>2026-04-11T12:15:49.688Z</time></trkpt><trkpt lat="44.548288" lon="7.9431001"><ele>431.0</ele><time>2026-04-11T12:15:53.688Z</time></trkpt><trkpt lat="44.5483487" lon="7.9431701"><ele>431.0</ele><time>2026-04-11T12:15:57.689Z</time></trkpt><trkpt lat="44.548412" lon="7.9432084"><ele>431.0</ele><time>2026-04-11T12:16:01.688Z</time></trkpt><trkpt lat="44.5484845" lon="7.9432374"><ele>431.0</ele><time>2026-04-11T12:16:05.688Z</time></trkpt><trkpt lat="44.5485593" lon="7.9432525"><ele>431.0</ele><time>2026-04-11T12:16:09.688Z</time></trkpt><trkpt lat="44.5486277" lon="7.9432326"><ele>431.0</ele><time>2026-04-11T12:16:12.688Z</time></trkpt><trkpt lat="44.5486954" lon="7.9432713"><ele>431.0</ele><time>2026-04-11T12:16:17.688Z</time></trkpt><trkpt lat="44.5487711" lon="7.9432874"><ele>431.0</ele><time>2026-04-11T12:16:23.688Z</time></trkpt><trkpt lat="44.5488351" lon="7.94331"><ele>431.5714285714286</ele><time>2026-04-11T12:16:28.688Z</time></trkpt><trkpt lat="44.5488988" lon="7.9433438"><ele>432.1428571428571</ele><time>2026-04-11T12:16:31.689Z</time></trkpt><trkpt lat="44.548944" lon="7.9434063"><ele>432.7142857142857</ele><time>2026-04-11T12:16:34.688Z</time></trkpt><trkpt lat="44.5490045" lon="7.9434652"><ele>433.28571428571433</ele><time>2026-04-11T12:16:38.688Z</time></trkpt><trkpt lat="44.5490531" lon="7.9435271"><ele>433.8571428571429</ele><time>2026-04-11T12:16:41.688Z</time></trkpt><trkpt lat="44.5491123" lon="7.9436047"><ele>434.42857142857144</ele><time>2026-04-11T12:16:45.688Z</time></trkpt><trkpt lat="44.5491662" lon="7.9436547"><ele>435.0</ele><time>2026-04-11T12:16:48.688Z</time></trkpt><trkpt lat="44.5492396" lon="7.943715"><ele>435.0</ele><time>2026-04-11T12:16:52.688Z</time></trkpt><trkpt lat="44.5493172" lon="7.9437648"><ele>435.0</ele><time>2026-04-11T12:16:55.688Z</time></trkpt><trkpt lat="44.5493875" lon="7.943833"><ele>435.0</ele><time>2026-04-11T12:16:58.688Z</time></trkpt><trkpt lat="44.5494485" lon="7.9439055"><ele>435.0</ele><time>2026-04-11T12:17:01.688Z</time></trkpt><trkpt lat="44.5494957" lon="7.9439863"><ele>435.0</ele><time>2026-04-11T12:17:05.688Z</time></trkpt><trkpt lat="44.5495466" lon="7.9440576"><ele>435.0</ele><time>2026-04-11T12:17:08.688Z</time></trkpt><trkpt lat="44.5496089" lon="7.9440727"><ele>434.6666666666667</ele><time>2026-04-11T12:17:25.688Z</time></trkpt><trkpt lat="44.5496746" lon="7.9441351"><ele>434.33333333333337</ele><time>2026-04-11T12:20:10.695Z</time></trkpt><trkpt lat="44.5497333" lon="7.944206"><ele>434.0</ele><time>2026-04-11T12:20:13.695Z</time></trkpt><trkpt lat="44.5498017" lon="7.9442457"><ele>433.6666666666667</ele><time>2026-04-11T12:20:15.695Z</time></trkpt><trkpt lat="44.5498851" lon="7.9443145"><ele>433.33333333333337</ele><time>2026-04-11T12:20:17.695Z</time></trkpt><trkpt lat="44.5499918" lon="7.9443839"><ele>433.0</ele><time>2026-04-11T12:20:19.695Z</time></trkpt><trkpt lat="44.5500892" lon="7.9444539"><ele>432.1666666666667</ele><time>2026-04-11T12:20:21.695Z</time></trkpt><trkpt lat="44.5501977" lon="7.9445281"><ele>431.33333333333337</ele><time>2026-04-11T12:20:23.695Z</time></trkpt><trkpt lat="44.5502535" lon="7.9445708"><ele>430.5</ele><time>2026-04-11T12:20:24.695Z</time></trkpt><trkpt lat="44.550312" lon="7.9446151"><ele>429.66666666666663</ele><time>2026-04-11T12:20:25.695Z</time></trkpt><trkpt lat="44.5503704" lon="7.9446567"><ele>428.8333333333333</ele><time>2026-04-11T12:20:26.695Z</time></trkpt><trkpt lat="44.5504465" lon="7.944683"><ele>428.0</ele><time>2026-04-11T12:20:27.695Z</time></trkpt><trkpt lat="44.550519" lon="7.9447113"><ele>428.3333333333333</ele><time>2026-04-11T12:20:28.696Z</time></trkpt><trkpt lat="44.550577" lon="7.9447598"><ele>428.66666666666663</ele><time>2026-04-11T12:20:29.695Z</time></trkpt><trkpt lat="44.550637" lon="7.9448018"><ele>429.0</ele><time>2026-04-11T12:20:30.695Z</time></trkpt><trkpt lat="44.5506921" lon="7.9448516"><ele>429.33333333333337</ele><time>2026-04-11T12:20:31.695Z</time></trkpt><trkpt lat="44.5507518" lon="7.9448985"><ele>429.6666666666667</ele><time>2026-04-11T12:20:32.695Z</time></trkpt><trkpt lat="44.550848" lon="7.9449964"><ele>430.0</ele><time>2026-04-11T12:20:34.695Z</time></trkpt><trkpt lat="44.5509375" lon="7.9450966"><ele>430.00000000000006</ele><time>2026-04-11T12:20:36.695Z</time></trkpt><trkpt lat="44.5510167" lon="7.9451957"><ele>430.0</ele><time>2026-04-11T12:20:38.695Z</time></trkpt><trkpt lat="44.5510729" lon="7.9452358"><ele>430.0</ele><time>2026-04-11T12:20:39.695Z</time></trkpt><trkpt lat="44.5511327" lon="7.9452832"><ele>430.0</ele><time>2026-04-11T12:20:40.695Z</time></trkpt><trkpt lat="44.5512316" lon="7.9453753"><ele>430.00000000000006</ele><time>2026-04-11T12:20:42.696Z</time></trkpt><trkpt lat="44.5512971" lon="7.9453812"><ele>430.0</ele><time>2026-04-11T12:20:43.695Z</time></trkpt><trkpt lat="44.5514172" lon="7.9454142"><ele>431.8</ele><time>2026-04-11T12:20:45.695Z</time></trkpt><trkpt lat="44.5514763" lon="7.9454447"><ele>433.6</ele><time>2026-04-11T12:20:46.695Z</time></trkpt><trkpt lat="44.551594" lon="7.9454838"><ele>435.4</ele><time>2026-04-11T12:20:48.695Z</time></trkpt><trkpt lat="44.5517066" lon="7.9455264"><ele>437.2</ele><time>2026-04-11T12:20:50.696Z</time></trkpt><trkpt lat="44.5518132" lon="7.9455809"><ele>439.0</ele><time>2026-04-11T12:20:52.695Z</time></trkpt><trkpt lat="44.5519219" lon="7.9456439"><ele>439.0</ele><time>2026-04-11T12:20:54.695Z</time></trkpt><trkpt lat="44.5519776" lon="7.9456912"><ele>439.0</ele><time>2026-04-11T12:20:55.695Z</time></trkpt><trkpt lat="44.5520309" lon="7.9457463"><ele>439.0</ele><time>2026-04-11T12:20:56.695Z</time></trkpt><trkpt lat="44.552138" lon="7.9458512"><ele>439.0</ele><time>2026-04-11T12:20:58.695Z</time></trkpt><trkpt lat="44.552191" lon="7.9459086"><ele>439.0</ele><time>2026-04-11T12:20:59.695Z</time></trkpt><trkpt lat="44.5523134" lon="7.9459548"><ele>438.0</ele><time>2026-04-11T12:21:01.695Z</time></trkpt><trkpt lat="44.5523772" lon="7.9459868"><ele>437.0</ele><time>2026-04-11T12:21:02.695Z</time></trkpt><trkpt lat="44.5524264" lon="7.9460814"><ele>436.0</ele><time>2026-04-11T12:21:03.695Z</time></trkpt><trkpt lat="44.5524913" lon="7.9461833"><ele>435.0</ele><time>2026-04-11T12:21:04.695Z</time></trkpt><trkpt lat="44.5525627" lon="7.9462811"><ele>434.0</ele><time>2026-04-11T12:21:05.695Z</time></trkpt><trkpt lat="44.5526449" lon="7.9463646"><ele>434.0</ele><time>2026-04-11T12:21:06.695Z</time></trkpt><trkpt lat="44.5527042" lon="7.9464635"><ele>434.0</ele><time>2026-04-11T12:21:07.695Z</time></trkpt><trkpt lat="44.5527934" lon="7.9465245"><ele>434.0</ele><time>2026-04-11T12:21:08.695Z</time></trkpt><trkpt lat="44.5529195" lon="7.9466112"><ele>434.0</ele><time>2026-04-11T12:21:09.695Z</time></trkpt><trkpt lat="44.5529927" lon="7.9467009"><ele>434.0</ele><time>2026-04-11T12:21:10.695Z</time></trkpt><trkpt lat="44.5530576" lon="7.9467554"><ele>435.49999999999994</ele><time>2026-04-11T12:21:11.695Z</time></trkpt><trkpt lat="44.5530876" lon="7.9468512"><ele>437.0</ele><time>2026-04-11T12:21:12.695Z</time></trkpt><trkpt lat="44.5531223" lon="7.9469284"><ele>438.5</ele><time>2026-04-11T12:21:13.695Z</time></trkpt><trkpt lat="44.5531493" lon="7.9470349"><ele>440.0</ele><time>2026-04-11T12:21:14.695Z</time></trkpt><trkpt lat="44.5531716" lon="7.9471193"><ele>441.49999999999994</ele><time>2026-04-11T12:21:15.695Z</time></trkpt><trkpt lat="44.5531994" lon="7.9472741"><ele>443.0</ele><time>2026-04-11T12:21:17.695Z</time></trkpt><trkpt lat="44.5532069" lon="7.947368"><ele>443.0</ele><time>2026-04-11T12:21:18.695Z</time></trkpt><trkpt lat="44.5532102" lon="7.9475239"><ele>442.99999999999994</ele><time>2026-04-11T12:21:20.695Z</time></trkpt><trkpt lat="44.5532872" lon="7.947598"><ele>442.99999999999994</ele><time>2026-04-11T12:21:22.695Z</time></trkpt><trkpt lat="44.5533555" lon="7.9476461"><ele>443.0</ele><time>2026-04-11T12:21:24.695Z</time></trkpt><trkpt lat="44.5534374" lon="7.9477164"><ele>443.0</ele><time>2026-04-11T12:21:26.695Z</time></trkpt><trkpt lat="44.5535088" lon="7.9477812"><ele>442.4</ele><time>2026-04-11T12:21:28.695Z</time></trkpt><trkpt lat="44.5536297" lon="7.9478446"><ele>441.79999999999995</ele><time>2026-04-11T12:21:30.695Z</time></trkpt><trkpt lat="44.5536937" lon="7.9479083"><ele>441.2</ele><time>2026-04-11T12:21:32.695Z</time></trkpt><trkpt lat="44.5537633" lon="7.9479793"><ele>440.6</ele><time>2026-04-11T12:21:34.695Z</time></trkpt><trkpt lat="44.5538318" lon="7.9480615"><ele>440.0</ele><time>2026-04-11T12:21:36.695Z</time></trkpt><trkpt lat="44.5539121" lon="7.9481537"><ele>439.99999999999994</ele><time>2026-04-11T12:21:38.695Z</time></trkpt><trkpt lat="44.5539887" lon="7.9482447"><ele>440.0</ele><time>2026-04-11T12:21:40.696Z</time></trkpt><trkpt lat="44.5540706" lon="7.9483315"><ele>440.0</ele><time>2026-04-11T12:21:42.695Z</time></trkpt><trkpt lat="44.5541463" lon="7.9483914"><ele>440.0</ele><time>2026-04-11T12:21:44.695Z</time></trkpt><trkpt lat="44.5542067" lon="7.9484539"><ele>439.99999999999994</ele><time>2026-04-11T12:21:45.695Z</time></trkpt><trkpt lat="44.5542736" lon="7.9485194"><ele>440.0</ele><time>2026-04-11T12:21:46.695Z</time></trkpt><trkpt lat="44.5543304" lon="7.9485675"><ele>438.4</ele><time>2026-04-11T12:21:47.695Z</time></trkpt><trkpt lat="44.5543824" lon="7.9486188"><ele>436.8</ele><time>2026-04-11T12:21:48.695Z</time></trkpt><trkpt lat="44.5544384" lon="7.9486826"><ele>435.20000000000005</ele><time>2026-04-11T12:21:49.695Z</time></trkpt><trkpt lat="44.5545349" lon="7.9487695"><ele>433.6</ele><time>2026-04-11T12:21:51.695Z</time></trkpt><trkpt lat="44.5546236" lon="7.9488715"><ele>432.0</ele><time>2026-04-11T12:21:53.695Z</time></trkpt><trkpt lat="44.5547169" lon="7.948979"><ele>432.0</ele><time>2026-04-11T12:21:55.695Z</time></trkpt><trkpt lat="44.5548132" lon="7.9490785"><ele>432.0</ele><time>2026-04-11T12:21:57.695Z</time></trkpt><trkpt lat="44.5548719" lon="7.9491342"><ele>432.0</ele><time>2026-04-11T12:21:58.695Z</time></trkpt><trkpt lat="44.5549311" lon="7.9492093"><ele>432.0</ele><time>2026-04-11T12:21:59.695Z</time></trkpt><trkpt lat="44.5549908" lon="7.9492701"><ele>432.0</ele><time>2026-04-11T12:22:00.695Z</time></trkpt><trkpt lat="44.5550459" lon="7.9493238"><ele>432.0</ele><time>2026-04-11T12:22:01.695Z</time></trkpt><trkpt lat="44.5551102" lon="7.9493981"><ele>432.1666666666667</ele><time>2026-04-11T12:22:02.695Z</time></trkpt><trkpt lat="44.5551646" lon="7.9494664"><ele>432.33333333333337</ele><time>2026-04-11T12:22:03.695Z</time></trkpt><trkpt lat="44.5552312" lon="7.9495252"><ele>432.5</ele><time>2026-04-11T12:22:04.695Z</time></trkpt><trkpt lat="44.5552929" lon="7.9495934"><ele>432.6666666666667</ele><time>2026-04-11T12:22:05.695Z</time></trkpt><trkpt lat="44.5553483" lon="7.949664"><ele>432.83333333333337</ele><time>2026-04-11T12:22:06.695Z</time></trkpt><trkpt lat="44.5554029" lon="7.9497364"><ele>433.0</ele><time>2026-04-11T12:22:07.695Z</time></trkpt><trkpt lat="44.5554613" lon="7.9497923"><ele>433.00000000000006</ele><time>2026-04-11T12:22:08.695Z</time></trkpt><trkpt lat="44.5555208" lon="7.9498575"><ele>433.0</ele><time>2026-04-11T12:22:09.695Z</time></trkpt><trkpt lat="44.5555759" lon="7.9499193"><ele>433.0</ele><time>2026-04-11T12:22:10.695Z</time></trkpt><trkpt lat="44.555635" lon="7.9499746"><ele>433.0</ele><time>2026-04-11T12:22:11.695Z</time></trkpt><trkpt lat="44.5556887" lon="7.9500432"><ele>433.00000000000006</ele><time>2026-04-11T12:22:12.695Z</time></trkpt><trkpt lat="44.5557717" lon="7.9501754"><ele>433.0</ele><time>2026-04-11T12:22:14.695Z</time></trkpt><trkpt lat="44.5558192" lon="7.9502376"><ele>432.2</ele><time>2026-04-11T12:22:15.695Z</time></trkpt><trkpt lat="44.555916" lon="7.9503508"><ele>431.4</ele><time>2026-04-11T12:22:17.695Z</time></trkpt><trkpt lat="44.5559696" lon="7.9504154"><ele>430.59999999999997</ele><time>2026-04-11T12:22:18.695Z</time></trkpt><trkpt lat="44.5560572" lon="7.9505077"><ele>429.79999999999995</ele><time>2026-04-11T12:22:20.695Z</time></trkpt><trkpt lat="44.5561284" lon="7.9505989"><ele>429.0</ele><time>2026-04-11T12:22:22.695Z</time></trkpt><trkpt lat="44.5561882" lon="7.9506688"><ele>430.0</ele><time>2026-04-11T12:22:24.696Z</time></trkpt><trkpt lat="44.556258" lon="7.9507266"><ele>431.0</ele><time>2026-04-11T12:22:26.695Z</time></trkpt><trkpt lat="44.556339" lon="7.950745"><ele>432.0</ele><time>2026-04-11T12:22:28.695Z</time></trkpt><trkpt lat="44.5564068" lon="7.9507828"><ele>433.0</ele><time>2026-04-11T12:22:29.695Z</time></trkpt><trkpt lat="44.5565172" lon="7.950847"><ele>434.0</ele><time>2026-04-11T12:22:31.695Z</time></trkpt><trkpt lat="44.5566177" lon="7.9508988"><ele>434.0</ele><time>2026-04-11T12:22:33.695Z</time></trkpt><trkpt lat="44.5566865" lon="7.9509362"><ele>434.0</ele><time>2026-04-11T12:22:34.695Z</time></trkpt><trkpt lat="44.5568072" lon="7.9509922"><ele>434.0</ele><time>2026-04-11T12:22:36.695Z</time></trkpt><trkpt lat="44.556888" lon="7.9510769"><ele>434.0</ele><time>2026-04-11T12:22:38.695Z</time></trkpt><trkpt lat="44.5569015" lon="7.9512376"><ele>434.0</ele><time>2026-04-11T12:22:40.695Z</time></trkpt><trkpt lat="44.5569187" lon="7.9513285"><ele>434.0</ele><time>2026-04-11T12:22:41.695Z</time></trkpt><trkpt lat="44.5569518" lon="7.9514683"><ele>434.0</ele><time>2026-04-11T12:22:43.695Z</time></trkpt><trkpt lat="44.5569318" lon="7.9515863"><ele>434.0</ele><time>2026-04-11T12:22:45.695Z</time></trkpt><trkpt lat="44.5569146" lon="7.9516774"><ele>434.0</ele><time>2026-04-11T12:22:47.695Z</time></trkpt><trkpt lat="44.5569443" lon="7.9518108"><ele>434.0</ele><time>2026-04-11T12:22:50.695Z</time></trkpt><trkpt lat="44.557074" lon="7.9518096"><ele>435.16666666666663</ele><time>2026-04-11T12:22:52.695Z</time></trkpt><trkpt lat="44.5571418" lon="7.9518189"><ele>436.3333333333333</ele><time>2026-04-11T12:22:53.695Z</time></trkpt><trkpt lat="44.5572062" lon="7.9517852"><ele>437.5</ele><time>2026-04-11T12:22:54.695Z</time></trkpt><trkpt lat="44.5572606" lon="7.9516975"><ele>438.66666666666663</ele><time>2026-04-11T12:22:55.695Z</time></trkpt><trkpt lat="44.5572773" lon="7.951602"><ele>439.8333333333333</ele><time>2026-04-11T12:22:56.695Z</time></trkpt><trkpt lat="44.5572324" lon="7.9514924"><ele>441.0</ele><time>2026-04-11T12:22:57.695Z</time></trkpt><trkpt lat="44.5571821" lon="7.9514055"><ele>437.8333333333333</ele><time>2026-04-11T12:22:58.695Z</time></trkpt><trkpt lat="44.5571621" lon="7.9512983"><ele>434.66666666666663</ele><time>2026-04-11T12:22:59.695Z</time></trkpt><trkpt lat="44.5571544" lon="7.951206"><ele>431.5</ele><time>2026-04-11T12:23:00.695Z</time></trkpt><trkpt lat="44.5572244" lon="7.9511896"><ele>428.3333333333333</ele><time>2026-04-11T12:23:05.695Z</time></trkpt><trkpt lat="44.5572858" lon="7.951231"><ele>425.16666666666663</ele><time>2026-04-11T12:23:06.695Z</time></trkpt><trkpt lat="44.5573709" lon="7.9512762"><ele>422.0</ele><time>2026-04-11T12:23:07.695Z</time></trkpt><trkpt lat="44.5574511" lon="7.9513124"><ele>422.0</ele><time>2026-04-11T12:23:08.695Z</time></trkpt><trkpt lat="44.5575305" lon="7.9513606"><ele>422.0</ele><time>2026-04-11T12:23:09.695Z</time></trkpt><trkpt lat="44.5576133" lon="7.9514064"><ele>422.0</ele><time>2026-04-11T12:23:10.695Z</time></trkpt><trkpt lat="44.5577099" lon="7.9514476"><ele>422.0</ele><time>2026-04-11T12:23:11.695Z</time></trkpt><trkpt lat="44.5578127" lon="7.9514875"><ele>422.0</ele><time>2026-04-11T12:23:12.695Z</time></trkpt><trkpt lat="44.5579186" lon="7.9515318"><ele>418.75</ele><time>2026-04-11T12:23:13.695Z</time></trkpt><trkpt lat="44.5580282" lon="7.951583"><ele>415.5</ele><time>2026-04-11T12:23:14.695Z</time></trkpt><trkpt lat="44.5581395" lon="7.9516177"><ele>412.25</ele><time>2026-04-11T12:23:15.695Z</time></trkpt><trkpt lat="44.5582569" lon="7.9516256"><ele>409.0</ele><time>2026-04-11T12:23:16.695Z</time></trkpt><trkpt lat="44.5583848" lon="7.9516139"><ele>409.0</ele><time>2026-04-11T12:23:17.695Z</time></trkpt><trkpt lat="44.5585094" lon="7.9515857"><ele>409.0</ele><time>2026-04-11T12:23:18.695Z</time></trkpt><trkpt lat="44.5586239" lon="7.9515111"><ele>409.0</ele><time>2026-04-11T12:23:19.695Z</time></trkpt><trkpt lat="44.558738" lon="7.9514582"><ele>409.0</ele><time>2026-04-11T12:23:20.695Z</time></trkpt><trkpt lat="44.5588649" lon="7.9514118"><ele>406.75</ele><time>2026-04-11T12:23:21.695Z</time></trkpt><trkpt lat="44.5589943" lon="7.9513803"><ele>404.5</ele><time>2026-04-11T12:23:22.695Z</time></trkpt><trkpt lat="44.5591124" lon="7.9513514"><ele>402.25</ele><time>2026-04-11T12:23:23.695Z</time></trkpt><trkpt lat="44.5592261" lon="7.951325"><ele>400.0</ele><time>2026-04-11T12:23:24.695Z</time></trkpt><trkpt lat="44.5593331" lon="7.9513026"><ele>400.0</ele><time>2026-04-11T12:23:25.695Z</time></trkpt><trkpt lat="44.5594405" lon="7.951288"><ele>400.0</ele><time>2026-04-11T12:23:26.695Z</time></trkpt><trkpt lat="44.5595521" lon="7.9512976"><ele>400.0</ele><time>2026-04-11T12:23:27.695Z</time></trkpt><trkpt lat="44.5596706" lon="7.9513375"><ele>400.0</ele><time>2026-04-11T12:23:28.695Z</time></trkpt><trkpt lat="44.559791" lon="7.9514085"><ele>397.00000000000006</ele><time>2026-04-11T12:23:29.695Z</time></trkpt><trkpt lat="44.5598563" lon="7.9514724"><ele>394.0</ele><time>2026-04-11T12:23:30.695Z</time></trkpt><trkpt lat="44.5599387" lon="7.9514824"><ele>391.0</ele><time>2026-04-11T12:23:32.695Z</time></trkpt><trkpt lat="44.560009" lon="7.9514088"><ele>388.0</ele><time>2026-04-11T12:23:34.695Z</time></trkpt><trkpt lat="44.5600938" lon="7.9514323"><ele>385.0</ele><time>2026-04-11T12:23:37.695Z</time></trkpt><trkpt lat="44.5601544" lon="7.9515205"><ele>382.0</ele><time>2026-04-11T12:23:39.695Z</time></trkpt><trkpt lat="44.5602435" lon="7.9516323"><ele>382.0</ele><time>2026-04-11T12:23:41.695Z</time></trkpt><trkpt lat="44.5602928" lon="7.9517001"><ele>382.0</ele><time>2026-04-11T12:23:42.695Z</time></trkpt><trkpt lat="44.5603459" lon="7.9517626"><ele>382.0</ele><time>2026-04-11T12:23:43.695Z</time></trkpt><trkpt lat="44.5604428" lon="7.9518721"><ele>382.0</ele><time>2026-04-11T12:23:45.695Z</time></trkpt><trkpt lat="44.5605079" lon="7.9519294"><ele>382.0</ele><time>2026-04-11T12:23:46.695Z</time></trkpt><trkpt lat="44.5605748" lon="7.9520026"><ele>382.0</ele><time>2026-04-11T12:23:47.695Z</time></trkpt><trkpt lat="44.560639" lon="7.9520706"><ele>381.16666666666663</ele><time>2026-04-11T12:23:48.695Z</time></trkpt><trkpt lat="44.5607045" lon="7.9521312"><ele>380.3333333333333</ele><time>2026-04-11T12:23:49.695Z</time></trkpt><trkpt lat="44.560771" lon="7.9521953"><ele>379.5</ele><time>2026-04-11T12:23:50.695Z</time></trkpt><trkpt lat="44.5608216" lon="7.9522624"><ele>378.6666666666667</ele><time>2026-04-11T12:23:51.695Z</time></trkpt><trkpt lat="44.5609191" lon="7.9523809"><ele>377.83333333333337</ele><time>2026-04-11T12:23:53.696Z</time></trkpt><trkpt lat="44.5609696" lon="7.9524444"><ele>377.0</ele><time>2026-04-11T12:23:54.695Z</time></trkpt><trkpt lat="44.5610151" lon="7.9525062"><ele>375.6666666666667</ele><time>2026-04-11T12:23:55.695Z</time></trkpt><trkpt lat="44.5610892" lon="7.9525867"><ele>374.33333333333337</ele><time>2026-04-11T12:23:57.695Z</time></trkpt><trkpt lat="44.5611534" lon="7.9526467"><ele>373.0</ele><time>2026-04-11T12:23:59.695Z</time></trkpt><trkpt lat="44.561221" lon="7.9527123"><ele>371.6666666666667</ele><time>2026-04-11T12:24:01.695Z</time></trkpt><trkpt lat="44.561341" lon="7.9527311"><ele>370.3333333333333</ele><time>2026-04-11T12:24:03.695Z</time></trkpt><trkpt lat="44.5614099" lon="7.9527344"><ele>369.0</ele><time>2026-04-11T12:24:04.695Z</time></trkpt><trkpt lat="44.56148" lon="7.9527292"><ele>369.0</ele><time>2026-04-11T12:24:05.695Z</time></trkpt><trkpt lat="44.5615581" lon="7.9527149"><ele>369.0</ele><time>2026-04-11T12:24:06.695Z</time></trkpt><trkpt lat="44.5616268" lon="7.9527216"><ele>369.0</ele><time>2026-04-11T12:24:07.695Z</time></trkpt><trkpt lat="44.5616934" lon="7.9527268"><ele>369.0</ele><time>2026-04-11T12:24:08.695Z</time></trkpt><trkpt lat="44.5617675" lon="7.9527281"><ele>369.0</ele><time>2026-04-11T12:24:09.695Z</time></trkpt><trkpt lat="44.5618471" lon="7.9527325"><ele>369.0</ele><time>2026-04-11T12:24:10.695Z</time></trkpt><trkpt lat="44.5619281" lon="7.9527462"><ele>369.0</ele><time>2026-04-11T12:24:11.695Z</time></trkpt><trkpt lat="44.5619961" lon="7.9527399"><ele>369.0</ele><time>2026-04-11T12:24:12.695Z</time></trkpt><trkpt lat="44.562084" lon="7.9527286"><ele>369.0</ele><time>2026-04-11T12:24:14.695Z</time></trkpt><trkpt lat="44.5621488" lon="7.9527851"><ele>369.0</ele><time>2026-04-11T12:24:18.695Z</time></trkpt><trkpt lat="44.562177" lon="7.9528995"><ele>369.0</ele><time>2026-04-11T12:24:22.695Z</time></trkpt><trkpt lat="44.5621681" lon="7.9530546"><ele>369.0</ele><time>2026-04-11T12:24:25.696Z</time></trkpt><trkpt lat="44.5621078" lon="7.9531928"><ele>369.0</ele><time>2026-04-11T12:24:27.695Z</time></trkpt><trkpt lat="44.5620403" lon="7.9532522"><ele>369.0</ele><time>2026-04-11T12:24:28.695Z</time></trkpt><trkpt lat="44.5619753" lon="7.9533112"><ele>369.0</ele><time>2026-04-11T12:24:29.695Z</time></trkpt><trkpt lat="44.5618983" lon="7.9533814"><ele>369.0</ele><time>2026-04-11T12:24:30.695Z</time></trkpt><trkpt lat="44.5618319" lon="7.9534634"><ele>369.0</ele><time>2026-04-11T12:24:31.695Z</time></trkpt><trkpt lat="44.5617694" lon="7.9535258"><ele>369.0</ele><time>2026-04-11T12:24:32.695Z</time></trkpt><trkpt lat="44.5617181" lon="7.9535779"><ele>367.7142857142857</ele><time>2026-04-11T12:24:33.695Z</time></trkpt><trkpt lat="44.5616711" lon="7.9536415"><ele>366.42857142857144</ele><time>2026-04-11T12:24:34.695Z</time></trkpt><trkpt lat="44.5616494" lon="7.9537251"><ele>365.1428571428571</ele><time>2026-04-11T12:24:35.695Z</time></trkpt><trkpt lat="44.5616393" lon="7.9538191"><ele>363.8571428571429</ele><time>2026-04-11T12:24:36.695Z</time></trkpt><trkpt lat="44.5616397" lon="7.9539188"><ele>362.5714285714286</ele><time>2026-04-11T12:24:37.695Z</time></trkpt><trkpt lat="44.5616297" lon="7.9540325"><ele>361.2857142857143</ele><time>2026-04-11T12:24:38.695Z</time></trkpt><trkpt lat="44.5616305" lon="7.9541423"><ele>360.0</ele><time>2026-04-11T12:24:39.695Z</time></trkpt><trkpt lat="44.561626" lon="7.9542613"><ele>359.6666666666667</ele><time>2026-04-11T12:24:40.695Z</time></trkpt><trkpt lat="44.5616178" lon="7.954385"><ele>359.3333333333333</ele><time>2026-04-11T12:24:41.695Z</time></trkpt><trkpt lat="44.5616159" lon="7.9545053"><ele>359.0</ele><time>2026-04-11T12:24:42.695Z</time></trkpt><trkpt lat="44.5616204" lon="7.9546185"><ele>358.66666666666663</ele><time>2026-04-11T12:24:43.695Z</time></trkpt><trkpt lat="44.5616218" lon="7.9547374"><ele>358.3333333333333</ele><time>2026-04-11T12:24:44.695Z</time></trkpt><trkpt lat="44.5616193" lon="7.9548465"><ele>358.0</ele><time>2026-04-11T12:24:45.695Z</time></trkpt><trkpt lat="44.5616199" lon="7.9549466"><ele>358.8571428571429</ele><time>2026-04-11T12:24:46.695Z</time></trkpt><trkpt lat="44.561619" lon="7.9550485"><ele>359.7142857142857</ele><time>2026-04-11T12:24:47.696Z</time></trkpt><trkpt lat="44.561621" lon="7.9551564"><ele>360.57142857142856</ele><time>2026-04-11T12:24:48.695Z</time></trkpt><trkpt lat="44.5616179" lon="7.9552582"><ele>361.42857142857144</ele><time>2026-04-11T12:24:49.695Z</time></trkpt><trkpt lat="44.5616105" lon="7.9553599"><ele>362.2857142857143</ele><time>2026-04-11T12:24:50.695Z</time></trkpt><trkpt lat="44.5616128" lon="7.9554621"><ele>363.14285714285717</ele><time>2026-04-11T12:24:51.695Z</time></trkpt><trkpt lat="44.5616078" lon="7.9555602"><ele>364.0</ele><time>2026-04-11T12:24:52.695Z</time></trkpt><trkpt lat="44.5616038" lon="7.9556555"><ele>364.0</ele><time>2026-04-11T12:24:53.695Z</time></trkpt><trkpt lat="44.561581" lon="7.9558189"><ele>364.0</ele><time>2026-04-11T12:24:55.695Z</time></trkpt><trkpt lat="44.5615147" lon="7.9559075"><ele>364.0</ele><time>2026-04-11T12:24:57.695Z</time></trkpt><trkpt lat="44.5614388" lon="7.9558965"><ele>364.0</ele><time>2026-04-11T12:24:59.695Z</time></trkpt><trkpt lat="44.5613889" lon="7.9558183"><ele>364.0</ele><time>2026-04-11T12:25:01.695Z</time></trkpt><trkpt lat="44.5613495" lon="7.9557268"><ele>364.0</ele><time>2026-04-11T12:25:03.695Z</time></trkpt><trkpt lat="44.5612938" lon="7.9556544"><ele>364.0</ele><time>2026-04-11T12:25:05.695Z</time></trkpt><trkpt lat="44.5612253" lon="7.9556319"><ele>364.0</ele><time>2026-04-11T12:25:07.695Z</time></trkpt><trkpt lat="44.561143" lon="7.9556639"><ele>364.0</ele><time>2026-04-11T12:25:10.695Z</time></trkpt><trkpt lat="44.5610872" lon="7.9557565"><ele>364.0</ele><time>2026-04-11T12:25:13.695Z</time></trkpt><trkpt lat="44.5610492" lon="7.9558305"><ele>364.0</ele><time>2026-04-11T12:25:16.695Z</time></trkpt><trkpt lat="44.5610044" lon="7.9559268"><ele>364.0</ele><time>2026-04-11T12:25:19.695Z</time></trkpt><trkpt lat="44.5609596" lon="7.956001"><ele>364.7142857142857</ele><time>2026-04-11T12:25:22.702Z</time></trkpt><trkpt lat="44.5609055" lon="7.9560789"><ele>365.42857142857144</ele><time>2026-04-11T12:25:26.702Z</time></trkpt><trkpt lat="44.5608544" lon="7.9561497"><ele>366.1428571428571</ele><time>2026-04-11T12:25:30.702Z</time></trkpt><trkpt lat="44.5608022" lon="7.95623"><ele>366.8571428571429</ele><time>2026-04-11T12:25:35.702Z</time></trkpt><trkpt lat="44.5607463" lon="7.9563011"><ele>367.57142857142856</ele><time>2026-04-11T12:25:40.702Z</time></trkpt><trkpt lat="44.5606775" lon="7.9563522"><ele>368.2857142857143</ele><time>2026-04-11T12:25:44.702Z</time></trkpt><trkpt lat="44.5606128" lon="7.9563809"><ele>369.0</ele><time>2026-04-11T12:25:49.702Z</time></trkpt><trkpt lat="44.5605428" lon="7.9564244"><ele>369.0</ele><time>2026-04-11T12:25:52.703Z</time></trkpt><trkpt lat="44.560476" lon="7.9564613"><ele>369.0</ele><time>2026-04-11T12:25:55.702Z</time></trkpt><trkpt lat="44.5604151" lon="7.9564928"><ele>369.0</ele><time>2026-04-11T12:25:58.702Z</time></trkpt><trkpt lat="44.5603412" lon="7.9565336"><ele>369.0</ele><time>2026-04-11T12:26:02.702Z</time></trkpt><trkpt lat="44.5602703" lon="7.9565561"><ele>369.0</ele><time>2026-04-11T12:26:05.702Z</time></trkpt><trkpt lat="44.5602072" lon="7.9566296"><ele>369.0</ele><time>2026-04-11T12:26:09.702Z</time></trkpt><trkpt lat="44.5601556" lon="7.9567071"><ele>369.0</ele><time>2026-04-11T12:26:12.702Z</time></trkpt><trkpt lat="44.5601104" lon="7.9567989"><ele>372.8333333333333</ele><time>2026-04-11T12:26:16.702Z</time></trkpt><trkpt lat="44.56006" lon="7.9568568"><ele>376.66666666666663</ele><time>2026-04-11T12:26:20.702Z</time></trkpt><trkpt lat="44.5600052" lon="7.9569287"><ele>380.5</ele><time>2026-04-11T12:26:23.702Z</time></trkpt><trkpt lat="44.5599567" lon="7.9570241"><ele>384.3333333333333</ele><time>2026-04-11T12:26:26.702Z</time></trkpt><trkpt lat="44.5599231" lon="7.9571108"><ele>388.16666666666663</ele><time>2026-04-11T12:26:29.703Z</time></trkpt><trkpt lat="44.5598878" lon="7.957205"><ele>392.0</ele><time>2026-04-11T12:26:32.702Z</time></trkpt><trkpt lat="44.559846" lon="7.9573019"><ele>391.99999999999994</ele><time>2026-04-11T12:26:35.702Z</time></trkpt><trkpt lat="44.5598064" lon="7.9573978"><ele>392.0</ele><time>2026-04-11T12:26:38.702Z</time></trkpt><trkpt lat="44.5597711" lon="7.9574969"><ele>392.0</ele><time>2026-04-11T12:26:41.702Z</time></trkpt><trkpt lat="44.5597581" lon="7.9576"><ele>392.0</ele><time>2026-04-11T12:26:44.702Z</time></trkpt><trkpt lat="44.5597667" lon="7.9577038"><ele>391.99999999999994</ele><time>2026-04-11T12:26:47.703Z</time></trkpt><trkpt lat="44.5597883" lon="7.9578034"><ele>392.0</ele><time>2026-04-11T12:26:50.702Z</time></trkpt><trkpt lat="44.5598071" lon="7.9579031"><ele>393.66666666666663</ele><time>2026-04-11T12:26:53.702Z</time></trkpt><trkpt lat="44.559857" lon="7.9579851"><ele>395.3333333333333</ele><time>2026-04-11T12:26:56.702Z</time></trkpt><trkpt lat="44.5599271" lon="7.9580456"><ele>397.0</ele><time>2026-04-11T12:26:59.702Z</time></trkpt><trkpt lat="44.5599968" lon="7.9581204"><ele>398.66666666666663</ele><time>2026-04-11T12:27:02.702Z</time></trkpt><trkpt lat="44.5600701" lon="7.9581936"><ele>400.3333333333333</ele><time>2026-04-11T12:27:05.702Z</time></trkpt><trkpt lat="44.5601236" lon="7.9582494"><ele>402.0</ele><time>2026-04-11T12:27:07.702Z</time></trkpt><trkpt lat="44.5601577" lon="7.9583282"><ele>402.0</ele><time>2026-04-11T12:27:09.702Z</time></trkpt><trkpt lat="44.5602172" lon="7.9583617"><ele>402.0</ele><time>2026-04-11T12:27:12.702Z</time></trkpt><trkpt lat="44.560277" lon="7.9584329"><ele>402.0</ele><time>2026-04-11T12:27:15.702Z</time></trkpt><trkpt lat="44.5603349" lon="7.9585114"><ele>402.0</ele><time>2026-04-11T12:27:18.702Z</time></trkpt><trkpt lat="44.5603932" lon="7.9586152"><ele>402.0</ele><time>2026-04-11T12:27:21.702Z</time></trkpt><trkpt lat="44.5604233" lon="7.9586991"><ele>402.0</ele><time>2026-04-11T12:27:23.702Z</time></trkpt><trkpt lat="44.5604495" lon="7.9587813"><ele>402.0</ele><time>2026-04-11T12:27:25.702Z</time></trkpt><trkpt lat="44.5604869" lon="7.9589008"><ele>401.6666666666667</ele><time>2026-04-11T12:27:28.702Z</time></trkpt><trkpt lat="44.5605069" lon="7.9590078"><ele>401.33333333333337</ele><time>2026-04-11T12:27:31.702Z</time></trkpt><trkpt lat="44.5605233" lon="7.9591218"><ele>401.0</ele><time>2026-04-11T12:27:34.702Z</time></trkpt><trkpt lat="44.5605291" lon="7.9592136"><ele>400.6666666666667</ele><time>2026-04-11T12:27:37.702Z</time></trkpt><trkpt lat="44.5605236" lon="7.9593201"><ele>400.33333333333337</ele><time>2026-04-11T12:27:40.702Z</time></trkpt><trkpt lat="44.5605221" lon="7.9594126"><ele>400.0</ele><time>2026-04-11T12:27:43.702Z</time></trkpt><trkpt lat="44.5605206" lon="7.9595295"><ele>400.00000000000006</ele><time>2026-04-11T12:27:47.702Z</time></trkpt><trkpt lat="44.5605256" lon="7.9596245"><ele>400.0</ele><time>2026-04-11T12:27:50.702Z</time></trkpt><trkpt lat="44.5605185" lon="7.959714"><ele>400.0</ele><time>2026-04-11T12:27:53.702Z</time></trkpt><trkpt lat="44.5604865" lon="7.9598254"><ele>400.0</ele><time>2026-04-11T12:27:57.702Z</time></trkpt><trkpt lat="44.5605035" lon="7.9599392"><ele>400.0</ele><time>2026-04-11T12:28:01.702Z</time></trkpt><trkpt lat="44.5605095" lon="7.9600409"><ele>400.00000000000006</ele><time>2026-04-11T12:28:05.702Z</time></trkpt><trkpt lat="44.560479" lon="7.9601353"><ele>400.0</ele><time>2026-04-11T12:28:09.702Z</time></trkpt><trkpt lat="44.5604058" lon="7.9602337"><ele>399.6666666666667</ele><time>2026-04-11T12:28:13.702Z</time></trkpt><trkpt lat="44.5603639" lon="7.9603027"><ele>399.33333333333337</ele><time>2026-04-11T12:28:16.702Z</time></trkpt><trkpt lat="44.5603635" lon="7.9603963"><ele>399.0</ele><time>2026-04-11T12:28:19.702Z</time></trkpt><trkpt lat="44.5603637" lon="7.9604908"><ele>398.66666666666663</ele><time>2026-04-11T12:28:23.702Z</time></trkpt><trkpt lat="44.5603772" lon="7.9606131"><ele>398.3333333333333</ele><time>2026-04-11T12:28:27.702Z</time></trkpt><trkpt lat="44.5603353" lon="7.9607006"><ele>398.0</ele><time>2026-04-11T12:28:30.702Z</time></trkpt><trkpt lat="44.5602499" lon="7.9607611"><ele>400.99999999999994</ele><time>2026-04-11T12:28:32.702Z</time></trkpt><trkpt lat="44.5601878" lon="7.9607921"><ele>404.0</ele><time>2026-04-11T12:28:34.702Z</time></trkpt><trkpt lat="44.560136" lon="7.9608687"><ele>407.0</ele><time>2026-04-11T12:28:37.702Z</time></trkpt><trkpt lat="44.5601001" lon="7.9609482"><ele>410.0</ele><time>2026-04-11T12:28:40.702Z</time></trkpt><trkpt lat="44.5601178" lon="7.9610592"><ele>413.0</ele><time>2026-04-11T12:28:44.702Z</time></trkpt><trkpt lat="44.5601028" lon="7.9611621"><ele>415.99999999999994</ele><time>2026-04-11T12:28:49.702Z</time></trkpt><trkpt lat="44.5600764" lon="7.9612646"><ele>419.0</ele><time>2026-04-11T12:28:52.702Z</time></trkpt><trkpt lat="44.5600889" lon="7.9613745"><ele>418.99999999999994</ele><time>2026-04-11T12:28:57.702Z</time></trkpt><trkpt lat="44.5600938" lon="7.9614769"><ele>419.0</ele><time>2026-04-11T12:29:01.702Z</time></trkpt><trkpt lat="44.5601215" lon="7.9615566"><ele>419.0</ele><time>2026-04-11T12:29:04.702Z</time></trkpt><trkpt lat="44.5601309" lon="7.9616613"><ele>419.0</ele><time>2026-04-11T12:29:08.702Z</time></trkpt><trkpt lat="44.5601209" lon="7.9617609"><ele>419.0</ele><time>2026-04-11T12:29:12.702Z</time></trkpt><trkpt lat="44.5600953" lon="7.9618588"><ele>418.99999999999994</ele><time>2026-04-11T12:29:17.702Z</time></trkpt><trkpt lat="44.5600714" lon="7.9619409"><ele>419.0</ele><time>2026-04-11T12:29:21.702Z</time></trkpt><trkpt lat="44.5600537" lon="7.9620401"><ele>419.71428571428567</ele><time>2026-04-11T12:29:25.702Z</time></trkpt><trkpt lat="44.5600318" lon="7.9621277"><ele>420.42857142857144</ele><time>2026-04-11T12:29:29.702Z</time></trkpt><trkpt lat="44.5600343" lon="7.9622327"><ele>421.1428571428571</ele><time>2026-04-11T12:29:33.702Z</time></trkpt><trkpt lat="44.5600261" lon="7.9623335"><ele>421.85714285714283</ele><time>2026-04-11T12:29:37.702Z</time></trkpt><trkpt lat="44.5600511" lon="7.9624248"><ele>422.57142857142856</ele><time>2026-04-11T12:29:41.702Z</time></trkpt><trkpt lat="44.5600467" lon="7.9625193"><ele>423.2857142857143</ele><time>2026-04-11T12:29:45.702Z</time></trkpt><trkpt lat="44.5600583" lon="7.9626217"><ele>424.0</ele><time>2026-04-11T12:29:49.702Z</time></trkpt><trkpt lat="44.5600187" lon="7.9627173"><ele>425.42857142857144</ele><time>2026-04-11T12:29:53.702Z</time></trkpt><trkpt lat="44.5600558" lon="7.9628112"><ele>426.85714285714283</ele><time>2026-04-11T12:29:58.702Z</time></trkpt><trkpt lat="44.5600197" lon="7.9629161"><ele>428.2857142857143</ele><time>2026-04-11T12:30:02.703Z</time></trkpt><trkpt lat="44.5600746" lon="7.9629682"><ele>429.7142857142857</ele><time>2026-04-11T12:30:05.702Z</time></trkpt><trkpt lat="44.5600911" lon="7.9630585"><ele>431.1428571428571</ele><time>2026-04-11T12:30:09.702Z</time></trkpt><trkpt lat="44.5601455" lon="7.9631248"><ele>432.57142857142856</ele><time>2026-04-11T12:30:13.702Z</time></trkpt><trkpt lat="44.5601425" lon="7.9632328"><ele>434.0</ele><time>2026-04-11T12:30:18.703Z</time></trkpt><trkpt lat="44.5601489" lon="7.9633209"><ele>434.0</ele><time>2026-04-11T12:30:22.702Z</time></trkpt><trkpt lat="44.5602023" lon="7.9633796"><ele>434.0</ele><time>2026-04-11T12:30:25.702Z</time></trkpt><trkpt lat="44.5602388" lon="7.9634729"><ele>434.0</ele><time>2026-04-11T12:30:29.703Z</time></trkpt><trkpt lat="44.5602645" lon="7.9635671"><ele>434.0</ele><time>2026-04-11T12:30:33.702Z</time></trkpt><trkpt lat="44.5603199" lon="7.9636174"><ele>434.0</ele><time>2026-04-11T12:30:35.702Z</time></trkpt><trkpt lat="44.5603837" lon="7.963649"><ele>434.0</ele><time>2026-04-11T12:30:36.702Z</time></trkpt><trkpt lat="44.560444" lon="7.9637421"><ele>434.0</ele><time>2026-04-11T12:30:39.702Z</time></trkpt><trkpt lat="44.5605186" lon="7.9637861"><ele>433.99999999999994</ele><time>2026-04-11T12:30:41.702Z</time></trkpt><trkpt lat="44.5605685" lon="7.9638666"><ele>434.0</ele><time>2026-04-11T12:30:44.702Z</time></trkpt><trkpt lat="44.5606331" lon="7.9639333"><ele>434.0</ele><time>2026-04-11T12:30:47.702Z</time></trkpt><trkpt lat="44.5607148" lon="7.9639698"><ele>434.0</ele><time>2026-04-11T12:30:50.702Z</time></trkpt><trkpt lat="44.5607848" lon="7.9640464"><ele>433.99999999999994</ele><time>2026-04-11T12:30:53.702Z</time></trkpt><trkpt lat="44.5608537" lon="7.9640953"><ele>434.0</ele><time>2026-04-11T12:30:56.702Z</time></trkpt><trkpt lat="44.5609313" lon="7.9641441"><ele>433.99999999999994</ele><time>2026-04-11T12:30:59.702Z</time></trkpt><trkpt lat="44.5609931" lon="7.9641899"><ele>434.0</ele><time>2026-04-11T12:31:01.702Z</time></trkpt><trkpt lat="44.5610651" lon="7.96425"><ele>434.0</ele><time>2026-04-11T12:31:03.702Z</time></trkpt><trkpt lat="44.5611302" lon="7.9642775"><ele>434.0</ele><time>2026-04-11T12:31:05.702Z</time></trkpt><trkpt lat="44.5612017" lon="7.9642862"><ele>433.99999999999994</ele><time>2026-04-11T12:31:07.702Z</time></trkpt><trkpt lat="44.5612831" lon="7.9643082"><ele>434.0</ele><time>2026-04-11T12:31:09.702Z</time></trkpt><trkpt lat="44.5613613" lon="7.9643301"><ele>432.66666666666663</ele><time>2026-04-11T12:31:11.703Z</time></trkpt><trkpt lat="44.5614425" lon="7.9643439"><ele>431.3333333333333</ele><time>2026-04-11T12:31:13.702Z</time></trkpt><trkpt lat="44.5615268" lon="7.9643344"><ele>430.0</ele><time>2026-04-11T12:31:15.702Z</time></trkpt><trkpt lat="44.5616137" lon="7.9643356"><ele>428.66666666666663</ele><time>2026-04-11T12:31:17.702Z</time></trkpt><trkpt lat="44.561701" lon="7.9643415"><ele>427.3333333333333</ele><time>2026-04-11T12:31:19.702Z</time></trkpt><trkpt lat="44.5617895" lon="7.964339"><ele>426.0</ele><time>2026-04-11T12:31:21.702Z</time></trkpt><trkpt lat="44.5618907" lon="7.9643458"><ele>426.0</ele><time>2026-04-11T12:31:23.702Z</time></trkpt><trkpt lat="44.5619968" lon="7.9643168"><ele>426.0</ele><time>2026-04-11T12:31:25.702Z</time></trkpt><trkpt lat="44.5620622" lon="7.9642886"><ele>426.0</ele><time>2026-04-11T12:31:26.702Z</time></trkpt><trkpt lat="44.5621268" lon="7.964277"><ele>426.0</ele><time>2026-04-11T12:31:27.702Z</time></trkpt><trkpt lat="44.5621973" lon="7.9642631"><ele>426.0</ele><time>2026-04-11T12:31:28.702Z</time></trkpt><trkpt lat="44.5622733" lon="7.9642443"><ele>426.0</ele><time>2026-04-11T12:31:29.702Z</time></trkpt><trkpt lat="44.5623563" lon="7.964223"><ele>425.6</ele><time>2026-04-11T12:31:30.702Z</time></trkpt><trkpt lat="44.5624467" lon="7.9641908"><ele>425.20000000000005</ele><time>2026-04-11T12:31:31.702Z</time></trkpt><trkpt lat="44.5625385" lon="7.9641624"><ele>424.79999999999995</ele><time>2026-04-11T12:31:32.702Z</time></trkpt><trkpt lat="44.5626262" lon="7.9641383"><ele>424.4</ele><time>2026-04-11T12:31:33.702Z</time></trkpt><trkpt lat="44.5627122" lon="7.9641168"><ele>424.0</ele><time>2026-04-11T12:31:34.702Z</time></trkpt><trkpt lat="44.562816" lon="7.9640785"><ele>422.25</ele><time>2026-04-11T12:31:35.702Z</time></trkpt><trkpt lat="44.5629282" lon="7.9640293"><ele>420.5</ele><time>2026-04-11T12:31:36.702Z</time></trkpt><trkpt lat="44.5630453" lon="7.9639732"><ele>418.75</ele><time>2026-04-11T12:31:37.702Z</time></trkpt><trkpt lat="44.5631596" lon="7.9639158"><ele>417.0</ele><time>2026-04-11T12:31:38.702Z</time></trkpt><trkpt lat="44.5632612" lon="7.9638483"><ele>417.0</ele><time>2026-04-11T12:31:39.702Z</time></trkpt><trkpt lat="44.5633419" lon="7.9637614"><ele>417.0</ele><time>2026-04-11T12:31:40.702Z</time></trkpt><trkpt lat="44.5634432" lon="7.9636843"><ele>417.0</ele><time>2026-04-11T12:31:41.702Z</time></trkpt><trkpt lat="44.5635082" lon="7.9636491"><ele>417.0</ele><time>2026-04-11T12:31:42.702Z</time></trkpt><trkpt lat="44.56366" lon="7.9636999"><ele>417.0</ele><time>2026-04-11T12:31:44.702Z</time></trkpt><trkpt lat="44.5637386" lon="7.9637935"><ele>416.20000000000005</ele><time>2026-04-11T12:31:45.702Z</time></trkpt><trkpt lat="44.5638106" lon="7.9638785"><ele>415.4</ele><time>2026-04-11T12:31:46.702Z</time></trkpt><trkpt lat="44.5638955" lon="7.9639679"><ele>414.6</ele><time>2026-04-11T12:31:47.703Z</time></trkpt><trkpt lat="44.5639801" lon="7.9640581"><ele>413.79999999999995</ele><time>2026-04-11T12:31:48.702Z</time></trkpt><trkpt lat="44.5640594" lon="7.9641626"><ele>413.0</ele><time>2026-04-11T12:31:49.702Z</time></trkpt><trkpt lat="44.5641261" lon="7.9642859"><ele>412.99999999999994</ele><time>2026-04-11T12:31:50.702Z</time></trkpt><trkpt lat="44.5641687" lon="7.9644318"><ele>413.0</ele><time>2026-04-11T12:31:51.702Z</time></trkpt><trkpt lat="44.5641994" lon="7.9645626"><ele>413.0</ele><time>2026-04-11T12:31:52.702Z</time></trkpt><trkpt lat="44.5642321" lon="7.9646717"><ele>413.0</ele><time>2026-04-11T12:31:53.702Z</time></trkpt><trkpt lat="44.5642697" lon="7.964768"><ele>412.99999999999994</ele><time>2026-04-11T12:31:54.702Z</time></trkpt><trkpt lat="44.564313" lon="7.9648536"><ele>413.0</ele><time>2026-04-11T12:31:55.702Z</time></trkpt><trkpt lat="44.5643503" lon="7.9649451"><ele>413.66666666666663</ele><time>2026-04-11T12:31:56.702Z</time></trkpt><trkpt lat="44.5643977" lon="7.9650296"><ele>414.3333333333333</ele><time>2026-04-11T12:31:57.702Z</time></trkpt><trkpt lat="44.5644414" lon="7.9651207"><ele>415.0</ele><time>2026-04-11T12:31:58.702Z</time></trkpt><trkpt lat="44.5644808" lon="7.9652201"><ele>415.66666666666663</ele><time>2026-04-11T12:31:59.702Z</time></trkpt><trkpt lat="44.5645297" lon="7.9653045"><ele>416.3333333333333</ele><time>2026-04-11T12:32:00.702Z</time></trkpt><trkpt lat="44.5645791" lon="7.9653797"><ele>417.0</ele><time>2026-04-11T12:32:01.709Z</time></trkpt><trkpt lat="44.5646295" lon="7.9654363"><ele>415.5</ele><time>2026-04-11T12:32:02.709Z</time></trkpt><trkpt lat="44.5646832" lon="7.9654923"><ele>414.0</ele><time>2026-04-11T12:32:03.71Z</time></trkpt><trkpt lat="44.5647424" lon="7.96556"><ele>412.5</ele><time>2026-04-11T12:32:04.709Z</time></trkpt><trkpt lat="44.564804" lon="7.965626"><ele>411.0</ele><time>2026-04-11T12:32:05.709Z</time></trkpt><trkpt lat="44.564867" lon="7.965706"><ele>409.5</ele><time>2026-04-11T12:32:06.709Z</time></trkpt><trkpt lat="44.5649255" lon="7.9657738"><ele>408.0</ele><time>2026-04-11T12:32:07.709Z</time></trkpt><trkpt lat="44.5649786" lon="7.9658613"><ele>408.5</ele><time>2026-04-11T12:32:08.709Z</time></trkpt><trkpt lat="44.5650132" lon="7.9659541"><ele>409.0</ele><time>2026-04-11T12:32:09.709Z</time></trkpt><trkpt lat="44.5650376" lon="7.9660605"><ele>409.5</ele><time>2026-04-11T12:32:10.709Z</time></trkpt><trkpt lat="44.565047" lon="7.9661712"><ele>410.0</ele><time>2026-04-11T12:32:11.709Z</time></trkpt><trkpt lat="44.5650467" lon="7.966282"><ele>410.5</ele><time>2026-04-11T12:32:12.709Z</time></trkpt><trkpt lat="44.5650444" lon="7.9663945"><ele>411.0</ele><time>2026-04-11T12:32:13.709Z</time></trkpt><trkpt lat="44.565038" lon="7.9665078"><ele>411.0</ele><time>2026-04-11T12:32:14.709Z</time></trkpt><trkpt lat="44.5650332" lon="7.9666183"><ele>411.0</ele><time>2026-04-11T12:32:15.709Z</time></trkpt><trkpt lat="44.5650313" lon="7.9667288"><ele>411.0</ele><time>2026-04-11T12:32:16.709Z</time></trkpt><trkpt lat="44.56503" lon="7.9668421"><ele>411.0</ele><time>2026-04-11T12:32:17.709Z</time></trkpt><trkpt lat="44.5650296" lon="7.9669544"><ele>411.0</ele><time>2026-04-11T12:32:18.709Z</time></trkpt><trkpt lat="44.5650286" lon="7.9670648"><ele>411.0</ele><time>2026-04-11T12:32:19.709Z</time></trkpt><trkpt lat="44.5650341" lon="7.96719"><ele>411.5</ele><time>2026-04-11T12:32:20.709Z</time></trkpt><trkpt lat="44.5650368" lon="7.9673052"><ele>412.0</ele><time>2026-04-11T12:32:21.709Z</time></trkpt><trkpt lat="44.5650363" lon="7.9674094"><ele>412.5</ele><time>2026-04-11T12:32:22.709Z</time></trkpt><trkpt lat="44.565037" lon="7.9675135"><ele>413.0</ele><time>2026-04-11T12:32:23.709Z</time></trkpt><trkpt lat="44.5650574" lon="7.9676108"><ele>413.5</ele><time>2026-04-11T12:32:24.709Z</time></trkpt><trkpt lat="44.5650964" lon="7.9677029"><ele>414.0</ele><time>2026-04-11T12:32:25.709Z</time></trkpt><trkpt lat="44.5651476" lon="7.9678005"><ele>413.3333333333333</ele><time>2026-04-11T12:32:26.709Z</time></trkpt><trkpt lat="44.5652068" lon="7.9678779"><ele>412.66666666666663</ele><time>2026-04-11T12:32:27.709Z</time></trkpt><trkpt lat="44.5652711" lon="7.9679552"><ele>412.0</ele><time>2026-04-11T12:32:28.709Z</time></trkpt><trkpt lat="44.5653376" lon="7.9680271"><ele>411.3333333333333</ele><time>2026-04-11T12:32:29.709Z</time></trkpt><trkpt lat="44.5654037" lon="7.9680874"><ele>410.66666666666663</ele><time>2026-04-11T12:32:30.709Z</time></trkpt><trkpt lat="44.5654749" lon="7.968143"><ele>410.0</ele><time>2026-04-11T12:32:31.709Z</time></trkpt><trkpt lat="44.5655491" lon="7.9681985"><ele>409.99999999999994</ele><time>2026-04-11T12:32:32.709Z</time></trkpt><trkpt lat="44.5656284" lon="7.9682456"><ele>410.0</ele><time>2026-04-11T12:32:33.71Z</time></trkpt><trkpt lat="44.5657079" lon="7.9682902"><ele>410.0</ele><time>2026-04-11T12:32:34.71Z</time></trkpt><trkpt lat="44.5657845" lon="7.9683251"><ele>410.0</ele><time>2026-04-11T12:32:35.709Z</time></trkpt><trkpt lat="44.5658614" lon="7.9683846"><ele>409.99999999999994</ele><time>2026-04-11T12:32:36.709Z</time></trkpt><trkpt lat="44.5659385" lon="7.9684281"><ele>410.0</ele><time>2026-04-11T12:32:37.709Z</time></trkpt><trkpt lat="44.5660169" lon="7.9684615"><ele>411.8333333333333</ele><time>2026-04-11T12:32:38.709Z</time></trkpt><trkpt lat="44.5660941" lon="7.9684991"><ele>413.66666666666663</ele><time>2026-04-11T12:32:39.709Z</time></trkpt><trkpt lat="44.5661727" lon="7.9685329"><ele>415.5</ele><time>2026-04-11T12:32:40.709Z</time></trkpt><trkpt lat="44.5662526" lon="7.9685532"><ele>417.33333333333337</ele><time>2026-04-11T12:32:41.709Z</time></trkpt><trkpt lat="44.5663325" lon="7.9685636"><ele>419.1666666666667</ele><time>2026-04-11T12:32:42.709Z</time></trkpt><trkpt lat="44.5664186" lon="7.9685515"><ele>421.0</ele><time>2026-04-11T12:32:43.709Z</time></trkpt><trkpt lat="44.5665083" lon="7.9685395"><ele>421.00000000000006</ele><time>2026-04-11T12:32:44.709Z</time></trkpt><trkpt lat="44.5665989" lon="7.9685253"><ele>421.0</ele><time>2026-04-11T12:32:45.709Z</time></trkpt><trkpt lat="44.5666852" lon="7.9684981"><ele>421.0</ele><time>2026-04-11T12:32:46.71Z</time></trkpt><trkpt lat="44.5667675" lon="7.9684696"><ele>421.0</ele><time>2026-04-11T12:32:47.709Z</time></trkpt><trkpt lat="44.5668491" lon="7.9684344"><ele>421.00000000000006</ele><time>2026-04-11T12:32:48.709Z</time></trkpt><trkpt lat="44.5669327" lon="7.968402"><ele>421.0</ele><time>2026-04-11T12:32:49.709Z</time></trkpt><trkpt lat="44.5670165" lon="7.9683669"><ele>419.50000000000006</ele><time>2026-04-11T12:32:50.709Z</time></trkpt><trkpt lat="44.5670987" lon="7.9683208"><ele>418.0</ele><time>2026-04-11T12:32:51.709Z</time></trkpt><trkpt lat="44.5671784" lon="7.9682772"><ele>416.5</ele><time>2026-04-11T12:32:52.709Z</time></trkpt><trkpt lat="44.567256" lon="7.9682325"><ele>415.0</ele><time>2026-04-11T12:32:53.709Z</time></trkpt><trkpt lat="44.5673385" lon="7.9681781"><ele>413.50000000000006</ele><time>2026-04-11T12:32:54.71Z</time></trkpt><trkpt lat="44.5674205" lon="7.9681219"><ele>412.0</ele><time>2026-04-11T12:32:55.709Z</time></trkpt><trkpt lat="44.5674921" lon="7.9680516"><ele>412.00000000000006</ele><time>2026-04-11T12:32:56.709Z</time></trkpt><trkpt lat="44.5675618" lon="7.9679833"><ele>412.0</ele><time>2026-04-11T12:32:57.709Z</time></trkpt><trkpt lat="44.5676484" lon="7.9679543"><ele>412.0</ele><time>2026-04-11T12:32:58.709Z</time></trkpt><trkpt lat="44.5677372" lon="7.9679208"><ele>412.0</ele><time>2026-04-11T12:32:59.709Z</time></trkpt><trkpt lat="44.5678184" lon="7.9678648"><ele>412.00000000000006</ele><time>2026-04-11T12:33:00.709Z</time></trkpt><trkpt lat="44.5678983" lon="7.9678135"><ele>412.0</ele><time>2026-04-11T12:33:01.709Z</time></trkpt><trkpt lat="44.5679869" lon="7.9677968"><ele>412.83333333333337</ele><time>2026-04-11T12:33:02.709Z</time></trkpt><trkpt lat="44.5680778" lon="7.9677956"><ele>413.6666666666667</ele><time>2026-04-11T12:33:03.709Z</time></trkpt><trkpt lat="44.5681643" lon="7.9677998"><ele>414.5</ele><time>2026-04-11T12:33:04.709Z</time></trkpt><trkpt lat="44.5682515" lon="7.9678024"><ele>415.33333333333337</ele><time>2026-04-11T12:33:05.71Z</time></trkpt><trkpt lat="44.5683423" lon="7.9678215"><ele>416.1666666666667</ele><time>2026-04-11T12:33:06.709Z</time></trkpt><trkpt lat="44.568432" lon="7.9678471"><ele>417.0</ele><time>2026-04-11T12:33:07.709Z</time></trkpt><trkpt lat="44.568521" lon="7.9678797"><ele>417.0</ele><time>2026-04-11T12:33:08.709Z</time></trkpt><trkpt lat="44.5686096" lon="7.967915"><ele>417.0</ele><time>2026-04-11T12:33:09.709Z</time></trkpt><trkpt lat="44.5686992" lon="7.9679497"><ele>417.0</ele><time>2026-04-11T12:33:10.709Z</time></trkpt><trkpt lat="44.5687883" lon="7.9679775"><ele>417.0</ele><time>2026-04-11T12:33:11.709Z</time></trkpt><trkpt lat="44.5688763" lon="7.9680005"><ele>417.0</ele><time>2026-04-11T12:33:12.709Z</time></trkpt><trkpt lat="44.568964" lon="7.9680203"><ele>415.8571428571429</ele><time>2026-04-11T12:33:13.709Z</time></trkpt><trkpt lat="44.5690424" lon="7.9680349"><ele>414.71428571428567</ele><time>2026-04-11T12:33:14.709Z</time></trkpt><trkpt lat="44.5691142" lon="7.9680483"><ele>413.57142857142856</ele><time>2026-04-11T12:33:15.709Z</time></trkpt><trkpt lat="44.5691838" lon="7.9680783"><ele>412.42857142857144</ele><time>2026-04-11T12:33:16.709Z</time></trkpt><trkpt lat="44.5692474" lon="7.968113"><ele>411.28571428571433</ele><time>2026-04-11T12:33:17.709Z</time></trkpt><trkpt lat="44.5693123" lon="7.9681387"><ele>410.1428571428571</ele><time>2026-04-11T12:33:18.709Z</time></trkpt><trkpt lat="44.5693747" lon="7.9681631"><ele>409.0</ele><time>2026-04-11T12:33:19.709Z</time></trkpt><trkpt lat="44.5694961" lon="7.968195"><ele>409.0</ele><time>2026-04-11T12:33:21.71Z</time></trkpt><trkpt lat="44.5696211" lon="7.9682179"><ele>409.0</ele><time>2026-04-11T12:33:23.709Z</time></trkpt><trkpt lat="44.5697388" lon="7.9682455"><ele>409.0</ele><time>2026-04-11T12:33:25.709Z</time></trkpt><trkpt lat="44.5698281" lon="7.9682629"><ele>409.0</ele><time>2026-04-11T12:33:27.709Z</time></trkpt><trkpt lat="44.569911" lon="7.968255"><ele>409.0</ele><time>2026-04-11T12:33:29.709Z</time></trkpt><trkpt lat="44.5700013" lon="7.9682369"><ele>409.00000000000006</ele><time>2026-04-11T12:33:31.709Z</time></trkpt><trkpt lat="44.5700863" lon="7.9682108"><ele>409.0</ele><time>2026-04-11T12:33:33.709Z</time></trkpt><trkpt lat="44.5701682" lon="7.9682152"><ele>409.0</ele><time>2026-04-11T12:33:35.71Z</time></trkpt><trkpt lat="44.5702518" lon="7.968209"><ele>409.0</ele><time>2026-04-11T12:33:37.709Z</time></trkpt><trkpt lat="44.5703363" lon="7.9682016"><ele>409.00000000000006</ele><time>2026-04-11T12:33:39.709Z</time></trkpt><trkpt lat="44.5704146" lon="7.9681979"><ele>409.0</ele><time>2026-04-11T12:33:41.709Z</time></trkpt><trkpt lat="44.5704896" lon="7.9682111"><ele>410.2857142857143</ele><time>2026-04-11T12:33:43.709Z</time></trkpt><trkpt lat="44.5705609" lon="7.9682284"><ele>411.5714285714286</ele><time>2026-04-11T12:33:45.709Z</time></trkpt><trkpt lat="44.5706322" lon="7.9682401"><ele>412.8571428571429</ele><time>2026-04-11T12:33:47.709Z</time></trkpt><trkpt lat="44.5707026" lon="7.9682623"><ele>414.1428571428571</ele><time>2026-04-11T12:33:49.709Z</time></trkpt><trkpt lat="44.5707768" lon="7.9682597"><ele>415.42857142857144</ele><time>2026-04-11T12:33:51.709Z</time></trkpt><trkpt lat="44.5708544" lon="7.9682318"><ele>416.7142857142857</ele><time>2026-04-11T12:33:53.709Z</time></trkpt><trkpt lat="44.5709279" lon="7.9682051"><ele>418.0</ele><time>2026-04-11T12:33:55.709Z</time></trkpt><trkpt lat="44.5710069" lon="7.9682108"><ele>418.00000000000006</ele><time>2026-04-11T12:33:57.709Z</time></trkpt><trkpt lat="44.5710895" lon="7.9681729"><ele>418.0</ele><time>2026-04-11T12:33:59.709Z</time></trkpt><trkpt lat="44.5711696" lon="7.9681162"><ele>418.0</ele><time>2026-04-11T12:34:01.709Z</time></trkpt><trkpt lat="44.5712517" lon="7.968077"><ele>418.0</ele><time>2026-04-11T12:34:03.709Z</time></trkpt><trkpt lat="44.5713278" lon="7.9680203"><ele>418.00000000000006</ele><time>2026-04-11T12:34:05.709Z</time></trkpt><trkpt lat="44.5714257" lon="7.9679958"><ele>418.0</ele><time>2026-04-11T12:34:07.709Z</time></trkpt><trkpt lat="44.5715245" lon="7.9680216"><ele>418.0</ele><time>2026-04-11T12:34:09.709Z</time></trkpt><trkpt lat="44.5716153" lon="7.9680748"><ele>418.0</ele><time>2026-04-11T12:34:11.709Z</time></trkpt><trkpt lat="44.5717078" lon="7.9681312"><ele>418.0</ele><time>2026-04-11T12:34:13.709Z</time></trkpt><trkpt lat="44.5717951" lon="7.9681702"><ele>418.0</ele><time>2026-04-11T12:34:15.709Z</time></trkpt><trkpt lat="44.5718776" lon="7.9682325"><ele>418.0</ele><time>2026-04-11T12:34:17.709Z</time></trkpt><trkpt lat="44.5719567" lon="7.9683128"><ele>417.4</ele><time>2026-04-11T12:34:19.709Z</time></trkpt><trkpt lat="44.5720424" lon="7.9683662"><ele>416.79999999999995</ele><time>2026-04-11T12:34:21.709Z</time></trkpt><trkpt lat="44.5721336" lon="7.9684101"><ele>416.2</ele><time>2026-04-11T12:34:23.709Z</time></trkpt><trkpt lat="44.5722288" lon="7.968464"><ele>415.6</ele><time>2026-04-11T12:34:25.709Z</time></trkpt><trkpt lat="44.5723202" lon="7.9685173"><ele>415.0</ele><time>2026-04-11T12:34:27.709Z</time></trkpt><trkpt lat="44.5724133" lon="7.9685754"><ele>415.0</ele><time>2026-04-11T12:34:29.709Z</time></trkpt><trkpt lat="44.5725012" lon="7.9686281"><ele>415.0</ele><time>2026-04-11T12:34:31.709Z</time></trkpt><trkpt lat="44.5725894" lon="7.9686793"><ele>415.0</ele><time>2026-04-11T12:34:33.709Z</time></trkpt><trkpt lat="44.5726771" lon="7.9687386"><ele>415.0</ele><time>2026-04-11T12:34:35.709Z</time></trkpt><trkpt lat="44.5727598" lon="7.9687919"><ele>415.0</ele><time>2026-04-11T12:34:37.709Z</time></trkpt><trkpt lat="44.5728465" lon="7.9688399"><ele>414.1666666666667</ele><time>2026-04-11T12:34:39.709Z</time></trkpt><trkpt lat="44.5729398" lon="7.9689125"><ele>413.33333333333337</ele><time>2026-04-11T12:34:41.709Z</time></trkpt><trkpt lat="44.5730072" lon="7.9690135"><ele>412.5</ele><time>2026-04-11T12:34:43.709Z</time></trkpt><trkpt lat="44.5730737" lon="7.9691062"><ele>411.66666666666663</ele><time>2026-04-11T12:34:45.709Z</time></trkpt><trkpt lat="44.5731331" lon="7.9691358"><ele>410.8333333333333</ele><time>2026-04-11T12:34:46.709Z</time></trkpt><trkpt lat="44.5731681" lon="7.9692346"><ele>410.0</ele><time>2026-04-11T12:34:48.709Z</time></trkpt><trkpt lat="44.573211" lon="7.9693243"><ele>410.0</ele><time>2026-04-11T12:34:50.709Z</time></trkpt><trkpt lat="44.5732695" lon="7.9694088"><ele>410.0</ele><time>2026-04-11T12:34:52.709Z</time></trkpt><trkpt lat="44.5733221" lon="7.9694758"><ele>410.0</ele><time>2026-04-11T12:34:54.709Z</time></trkpt><trkpt lat="44.5733696" lon="7.9695351"><ele>410.0</ele><time>2026-04-11T12:34:56.709Z</time></trkpt><trkpt lat="44.5734268" lon="7.9695888"><ele>410.0</ele><time>2026-04-11T12:34:58.709Z</time></trkpt><trkpt lat="44.5734933" lon="7.9696271"><ele>410.0</ele><time>2026-04-11T12:35:00.709Z</time></trkpt><trkpt lat="44.5735533" lon="7.9696749"><ele>410.0</ele><time>2026-04-11T12:35:02.709Z</time></trkpt><trkpt lat="44.5736136" lon="7.9697179"><ele>412.3333333333333</ele><time>2026-04-11T12:35:04.709Z</time></trkpt><trkpt lat="44.5737008" lon="7.9697584"><ele>414.66666666666663</ele><time>2026-04-11T12:35:07.709Z</time></trkpt><trkpt lat="44.5737667" lon="7.9697806"><ele>417.0</ele><time>2026-04-11T12:35:09.709Z</time></trkpt><trkpt lat="44.5738492" lon="7.9698143"><ele>419.33333333333337</ele><time>2026-04-11T12:35:11.709Z</time></trkpt><trkpt lat="44.5739264" lon="7.9698242"><ele>421.6666666666667</ele><time>2026-04-11T12:35:13.709Z</time></trkpt><trkpt lat="44.5739895" lon="7.9698492"><ele>424.0</ele><time>2026-04-11T12:35:15.709Z</time></trkpt><trkpt lat="44.5740556" lon="7.9698858"><ele>424.00000000000006</ele><time>2026-04-11T12:35:17.709Z</time></trkpt><trkpt lat="44.5741248" lon="7.9699166"><ele>424.0</ele><time>2026-04-11T12:35:19.709Z</time></trkpt><trkpt lat="44.5741954" lon="7.9699375"><ele>424.0</ele><time>2026-04-11T12:35:21.71Z</time></trkpt><trkpt lat="44.5742888" lon="7.9699601"><ele>424.0</ele><time>2026-04-11T12:35:23.71Z</time></trkpt><trkpt lat="44.5743721" lon="7.9699547"><ele>424.00000000000006</ele><time>2026-04-11T12:35:25.709Z</time></trkpt><trkpt lat="44.5744538" lon="7.9699974"><ele>424.0</ele><time>2026-04-11T12:35:28.709Z</time></trkpt><trkpt lat="44.5745512" lon="7.9700334"><ele>422.8571428571429</ele><time>2026-04-11T12:35:31.709Z</time></trkpt><trkpt lat="44.5746214" lon="7.9700415"><ele>421.71428571428567</ele><time>2026-04-11T12:35:33.709Z</time></trkpt><trkpt lat="44.5746894" lon="7.9700641"><ele>420.57142857142856</ele><time>2026-04-11T12:35:35.709Z</time></trkpt><trkpt lat="44.5747554" lon="7.9700895"><ele>419.42857142857144</ele><time>2026-04-11T12:35:37.709Z</time></trkpt><trkpt lat="44.5748291" lon="7.9701175"><ele>418.28571428571433</ele><time>2026-04-11T12:35:39.709Z</time></trkpt><trkpt lat="44.5749096" lon="7.9701463"><ele>417.1428571428571</ele><time>2026-04-11T12:35:41.709Z</time></trkpt><trkpt lat="44.5749758" lon="7.9701792"><ele>416.0</ele><time>2026-04-11T12:35:43.709Z</time></trkpt><trkpt lat="44.575038" lon="7.9701967"><ele>415.99999999999994</ele><time>2026-04-11T12:35:45.709Z</time></trkpt><trkpt lat="44.5751235" lon="7.970249"><ele>416.0</ele><time>2026-04-11T12:35:48.709Z</time></trkpt><trkpt lat="44.5751906" lon="7.9702702"><ele>416.0</ele><time>2026-04-11T12:35:50.709Z</time></trkpt><trkpt lat="44.5752829" lon="7.9703034"><ele>416.0</ele><time>2026-04-11T12:35:53.709Z</time></trkpt><trkpt lat="44.5753555" lon="7.9703335"><ele>415.99999999999994</ele><time>2026-04-11T12:35:55.709Z</time></trkpt><trkpt lat="44.5754274" lon="7.9703718"><ele>416.0</ele><time>2026-04-11T12:35:57.709Z</time></trkpt><trkpt lat="44.5754938" lon="7.9704026"><ele>417.1428571428571</ele><time>2026-04-11T12:35:59.709Z</time></trkpt><trkpt lat="44.5755587" lon="7.970422"><ele>418.28571428571433</ele><time>2026-04-11T12:36:01.709Z</time></trkpt><trkpt lat="44.5756249" lon="7.970451"><ele>419.42857142857144</ele><time>2026-04-11T12:36:03.709Z</time></trkpt><trkpt lat="44.5756962" lon="7.9704739"><ele>420.57142857142856</ele><time>2026-04-11T12:36:05.709Z</time></trkpt><trkpt lat="44.5757672" lon="7.9705007"><ele>421.71428571428567</ele><time>2026-04-11T12:36:07.709Z</time></trkpt><trkpt lat="44.5758356" lon="7.9705179"><ele>422.8571428571429</ele><time>2026-04-11T12:36:09.709Z</time></trkpt><trkpt lat="44.5759044" lon="7.9705487"><ele>424.0</ele><time>2026-04-11T12:36:12.709Z</time></trkpt><trkpt lat="44.5759844" lon="7.9704977"><ele>424.00000000000006</ele><time>2026-04-11T12:36:14.709Z</time></trkpt><trkpt lat="44.5760739" lon="7.9704785"><ele>424.0</ele><time>2026-04-11T12:36:16.709Z</time></trkpt><trkpt lat="44.5761522" lon="7.970438"><ele>424.0</ele><time>2026-04-11T12:36:18.709Z</time></trkpt><trkpt lat="44.5762187" lon="7.9703943"><ele>424.0</ele><time>2026-04-11T12:36:20.709Z</time></trkpt><trkpt lat="44.5762886" lon="7.9703561"><ele>424.00000000000006</ele><time>2026-04-11T12:36:22.709Z</time></trkpt><trkpt lat="44.5763598" lon="7.9703118"><ele>424.0</ele><time>2026-04-11T12:36:24.709Z</time></trkpt><trkpt lat="44.5764331" lon="7.9702718"><ele>424.1666666666667</ele><time>2026-04-11T12:36:26.71Z</time></trkpt><trkpt lat="44.5764925" lon="7.9702322"><ele>424.33333333333337</ele><time>2026-04-11T12:36:28.71Z</time></trkpt><trkpt lat="44.5765651" lon="7.9701944"><ele>424.5</ele><time>2026-04-11T12:36:30.71Z</time></trkpt><trkpt lat="44.5766454" lon="7.9701298"><ele>424.66666666666663</ele><time>2026-04-11T12:36:32.71Z</time></trkpt><trkpt lat="44.5767209" lon="7.9701159"><ele>424.8333333333333</ele><time>2026-04-11T12:36:34.71Z</time></trkpt><trkpt lat="44.5768092" lon="7.9700885"><ele>425.0</ele><time>2026-04-11T12:36:37.71Z</time></trkpt><trkpt lat="44.5768889" lon="7.9700518"><ele>424.99999999999994</ele><time>2026-04-11T12:36:40.71Z</time></trkpt><trkpt lat="44.5769707" lon="7.9700364"><ele>425.0</ele><time>2026-04-11T12:36:43.71Z</time></trkpt><trkpt lat="44.5770578" lon="7.9700505"><ele>425.0</ele><time>2026-04-11T12:36:46.71Z</time></trkpt><trkpt lat="44.5771238" lon="7.9700537"><ele>425.0</ele><time>2026-04-11T12:36:48.71Z</time></trkpt><trkpt lat="44.5772083" lon="7.9700615"><ele>424.99999999999994</ele><time>2026-04-11T12:36:51.71Z</time></trkpt><trkpt lat="44.5772896" lon="7.9700818"><ele>425.0</ele><time>2026-04-11T12:36:54.71Z</time></trkpt><trkpt lat="44.5773533" lon="7.9700891"><ele>425.99999999999994</ele><time>2026-04-11T12:36:56.71Z</time></trkpt><trkpt lat="44.5774237" lon="7.9701531"><ele>427.0</ele><time>2026-04-11T12:36:59.71Z</time></trkpt><trkpt lat="44.5774734" lon="7.9702265"><ele>428.0</ele><time>2026-04-11T12:37:02.71Z</time></trkpt><trkpt lat="44.5775323" lon="7.9702636"><ele>429.0</ele><time>2026-04-11T12:37:04.71Z</time></trkpt><trkpt lat="44.5776058" lon="7.9703253"><ele>429.99999999999994</ele><time>2026-04-11T12:37:07.71Z</time></trkpt><trkpt lat="44.5776838" lon="7.9703818"><ele>431.0</ele><time>2026-04-11T12:37:10.71Z</time></trkpt><trkpt lat="44.5777864" lon="7.9703769"><ele>430.66666666666663</ele><time>2026-04-11T12:37:13.71Z</time></trkpt><trkpt lat="44.5778723" lon="7.9703863"><ele>430.3333333333333</ele><time>2026-04-11T12:37:16.71Z</time></trkpt><trkpt lat="44.5779508" lon="7.9703571"><ele>430.0</ele><time>2026-04-11T12:37:19.71Z</time></trkpt><trkpt lat="44.5780215" lon="7.9703018"><ele>429.66666666666663</ele><time>2026-04-11T12:37:22.71Z</time></trkpt><trkpt lat="44.5780811" lon="7.9702214"><ele>429.3333333333333</ele><time>2026-04-11T12:37:25.71Z</time></trkpt><trkpt lat="44.578136" lon="7.9701169"><ele>429.0</ele><time>2026-04-11T12:37:28.71Z</time></trkpt><trkpt lat="44.578178" lon="7.9700441"><ele>431.14285714285717</ele><time>2026-04-11T12:37:30.71Z</time></trkpt><trkpt lat="44.5782081" lon="7.969961"><ele>433.28571428571433</ele><time>2026-04-11T12:37:32.71Z</time></trkpt><trkpt lat="44.5782466" lon="7.9698767"><ele>435.42857142857144</ele><time>2026-04-11T12:37:34.71Z</time></trkpt><trkpt lat="44.5782898" lon="7.9698069"><ele>437.57142857142856</ele><time>2026-04-11T12:37:36.71Z</time></trkpt><trkpt lat="44.5783344" lon="7.9697312"><ele>439.7142857142857</ele><time>2026-04-11T12:37:38.71Z</time></trkpt><trkpt lat="44.5783718" lon="7.9696331"><ele>441.85714285714283</ele><time>2026-04-11T12:37:40.71Z</time></trkpt><trkpt lat="44.5784153" lon="7.9695481"><ele>444.0</ele><time>2026-04-11T12:37:42.71Z</time></trkpt><trkpt lat="44.5784657" lon="7.9694659"><ele>444.0</ele><time>2026-04-11T12:37:44.71Z</time></trkpt><trkpt lat="44.5784955" lon="7.9693666"><ele>444.0</ele><time>2026-04-11T12:37:46.71Z</time></trkpt><trkpt lat="44.5785368" lon="7.9692944"><ele>444.0</ele><time>2026-04-11T12:37:48.71Z</time></trkpt><trkpt lat="44.5785878" lon="7.9692281"><ele>444.0</ele><time>2026-04-11T12:37:50.71Z</time></trkpt><trkpt lat="44.5786311" lon="7.9691393"><ele>444.0</ele><time>2026-04-11T12:37:52.71Z</time></trkpt><trkpt lat="44.5786842" lon="7.9690601"><ele>444.0</ele><time>2026-04-11T12:37:54.71Z</time></trkpt><trkpt lat="44.5787325" lon="7.9689903"><ele>444.0</ele><time>2026-04-11T12:37:56.71Z</time></trkpt><trkpt lat="44.578782" lon="7.9689261"><ele>444.6666666666667</ele><time>2026-04-11T12:37:58.71Z</time></trkpt><trkpt lat="44.5788258" lon="7.9688607"><ele>445.33333333333337</ele><time>2026-04-11T12:38:00.71Z</time></trkpt><trkpt lat="44.5789129" lon="7.9687946"><ele>446.0</ele><time>2026-04-11T12:38:03.71Z</time></trkpt><trkpt lat="44.5789841" lon="7.9687581"><ele>446.6666666666667</ele><time>2026-04-11T12:38:05.71Z</time></trkpt><trkpt lat="44.5790651" lon="7.968709"><ele>447.33333333333337</ele><time>2026-04-11T12:38:08.71Z</time></trkpt><trkpt lat="44.5791518" lon="7.9686527"><ele>448.0</ele><time>2026-04-11T12:38:11.71Z</time></trkpt><trkpt lat="44.5792377" lon="7.9686275"><ele>448.00000000000006</ele><time>2026-04-11T12:38:14.71Z</time></trkpt><trkpt lat="44.5793229" lon="7.9686356"><ele>448.0</ele><time>2026-04-11T12:38:17.71Z</time></trkpt><trkpt lat="44.5794024" lon="7.9686656"><ele>448.0</ele><time>2026-04-11T12:38:20.71Z</time></trkpt><trkpt lat="44.5794921" lon="7.9686922"><ele>448.0</ele><time>2026-04-11T12:38:23.71Z</time></trkpt><trkpt lat="44.5795611" lon="7.9686926"><ele>448.00000000000006</ele><time>2026-04-11T12:38:25.71Z</time></trkpt><trkpt lat="44.5796468" lon="7.9687178"><ele>448.0</ele><time>2026-04-11T12:38:28.71Z</time></trkpt><trkpt lat="44.5797377" lon="7.9687508"><ele>449.1666666666667</ele><time>2026-04-11T12:38:31.71Z</time></trkpt><trkpt lat="44.5798365" lon="7.9687131"><ele>450.33333333333337</ele><time>2026-04-11T12:38:33.71Z</time></trkpt><trkpt lat="44.5799138" lon="7.9687193"><ele>451.5</ele><time>2026-04-11T12:38:35.71Z</time></trkpt><trkpt lat="44.5799789" lon="7.9687677"><ele>452.66666666666663</ele><time>2026-04-11T12:38:38.71Z</time></trkpt><trkpt lat="44.5800475" lon="7.9687791"><ele>453.8333333333333</ele><time>2026-04-11T12:38:41.71Z</time></trkpt><trkpt lat="44.580133" lon="7.9687882"><ele>455.0</ele><time>2026-04-11T12:38:44.716Z</time></trkpt><trkpt lat="44.5802068" lon="7.9688318"><ele>455.0</ele><time>2026-04-11T12:38:47.716Z</time></trkpt><trkpt lat="44.5802798" lon="7.9688345"><ele>455.0</ele><time>2026-04-11T12:38:49.716Z</time></trkpt><trkpt lat="44.5803727" lon="7.9688602"><ele>455.0</ele><time>2026-04-11T12:38:52.716Z</time></trkpt><trkpt lat="44.5804367" lon="7.9688609"><ele>455.0</ele><time>2026-04-11T12:38:54.716Z</time></trkpt><trkpt lat="44.5805007" lon="7.9688339"><ele>455.0</ele><time>2026-04-11T12:38:56.716Z</time></trkpt><trkpt lat="44.5805642" lon="7.9688235"><ele>455.0</ele><time>2026-04-11T12:38:58.716Z</time></trkpt><trkpt lat="44.580623" lon="7.9687706"><ele>455.0</ele><time>2026-04-11T12:39:00.716Z</time></trkpt><trkpt lat="44.5806863" lon="7.9687385"><ele>455.7142857142857</ele><time>2026-04-11T12:39:02.716Z</time></trkpt><trkpt lat="44.5807479" lon="7.9686981"><ele>456.42857142857144</ele><time>2026-04-11T12:39:04.716Z</time></trkpt><trkpt lat="44.5808217" lon="7.9686801"><ele>457.1428571428571</ele><time>2026-04-11T12:39:06.716Z</time></trkpt><trkpt lat="44.5808929" lon="7.9686593"><ele>457.85714285714283</ele><time>2026-04-11T12:39:08.716Z</time></trkpt><trkpt lat="44.5809724" lon="7.9686272"><ele>458.57142857142856</ele><time>2026-04-11T12:39:10.716Z</time></trkpt><trkpt lat="44.5810428" lon="7.968591"><ele>459.2857142857142</ele><time>2026-04-11T12:39:12.716Z</time></trkpt><trkpt lat="44.581118" lon="7.9685778"><ele>459.99999999999994</ele><time>2026-04-11T12:39:14.717Z</time></trkpt><trkpt lat="44.5811956" lon="7.9685731"><ele>461.00000000000006</ele><time>2026-04-11T12:39:16.716Z</time></trkpt><trkpt lat="44.5812806" lon="7.9685235"><ele>462.0</ele><time>2026-04-11T12:39:18.716Z</time></trkpt><trkpt lat="44.5813752" lon="7.9685018"><ele>463.0</ele><time>2026-04-11T12:39:21.716Z</time></trkpt><trkpt lat="44.5814591" lon="7.9684423"><ele>464.0</ele><time>2026-04-11T12:39:23.716Z</time></trkpt><trkpt lat="44.5815382" lon="7.9684023"><ele>465.00000000000006</ele><time>2026-04-11T12:39:25.716Z</time></trkpt><trkpt lat="44.5816102" lon="7.968372"><ele>466.0</ele><time>2026-04-11T12:39:27.716Z</time></trkpt><trkpt lat="44.5816921" lon="7.9683526"><ele>466.7142857142857</ele><time>2026-04-11T12:39:29.716Z</time></trkpt><trkpt lat="44.5817683" lon="7.9683393"><ele>467.42857142857144</ele><time>2026-04-11T12:39:31.716Z</time></trkpt><trkpt lat="44.5818382" lon="7.9683041"><ele>468.14285714285717</ele><time>2026-04-11T12:39:33.716Z</time></trkpt><trkpt lat="44.5819051" lon="7.9682742"><ele>468.8571428571429</ele><time>2026-04-11T12:39:35.716Z</time></trkpt><trkpt lat="44.581977" lon="7.9682473"><ele>469.57142857142856</ele><time>2026-04-11T12:39:37.716Z</time></trkpt><trkpt lat="44.5820508" lon="7.9682297"><ele>470.28571428571433</ele><time>2026-04-11T12:39:39.716Z</time></trkpt><trkpt lat="44.5821252" lon="7.9682484"><ele>471.00000000000006</ele><time>2026-04-11T12:39:41.716Z</time></trkpt><trkpt lat="44.5821739" lon="7.9683317"><ele>470.8333333333333</ele><time>2026-04-11T12:39:43.716Z</time></trkpt><trkpt lat="44.5822177" lon="7.9684217"><ele>470.66666666666663</ele><time>2026-04-11T12:39:45.716Z</time></trkpt><trkpt lat="44.5822524" lon="7.9685219"><ele>470.5</ele><time>2026-04-11T12:39:47.716Z</time></trkpt><trkpt lat="44.5822875" lon="7.968643"><ele>470.3333333333333</ele><time>2026-04-11T12:39:49.716Z</time></trkpt><trkpt lat="44.5822585" lon="7.9687817"><ele>470.16666666666663</ele><time>2026-04-11T12:39:51.716Z</time></trkpt><trkpt lat="44.5822814" lon="7.9688953"><ele>470.0</ele><time>2026-04-11T12:39:53.716Z</time></trkpt><trkpt lat="44.5823374" lon="7.9689652"><ele>469.99999999999994</ele><time>2026-04-11T12:39:54.716Z</time></trkpt><trkpt lat="44.582421" lon="7.9689647"><ele>470.0</ele><time>2026-04-11T12:39:55.716Z</time></trkpt><trkpt lat="44.5825242" lon="7.9688769"><ele>470.0</ele><time>2026-04-11T12:39:57.716Z</time></trkpt><trkpt lat="44.5825777" lon="7.9688302"><ele>470.0</ele><time>2026-04-11T12:39:59.716Z</time></trkpt><trkpt lat="44.5826461" lon="7.9687646"><ele>469.99999999999994</ele><time>2026-04-11T12:40:01.716Z</time></trkpt><trkpt lat="44.5827124" lon="7.968704"><ele>470.0</ele><time>2026-04-11T12:40:03.716Z</time></trkpt><trkpt lat="44.5827634" lon="7.9686183"><ele>469.99999999999994</ele><time>2026-04-11T12:40:05.716Z</time></trkpt><trkpt lat="44.5828223" lon="7.9685673"><ele>470.0</ele><time>2026-04-11T12:40:07.716Z</time></trkpt><trkpt lat="44.5828593" lon="7.9684518"><ele>470.0</ele><time>2026-04-11T12:40:10.716Z</time></trkpt><trkpt lat="44.5828615" lon="7.9683512"><ele>470.0</ele><time>2026-04-11T12:40:12.716Z</time></trkpt><trkpt lat="44.5828812" lon="7.9682492"><ele>469.99999999999994</ele><time>2026-04-11T12:40:14.716Z</time></trkpt><trkpt lat="44.5828961" lon="7.9681533"><ele>470.0</ele><time>2026-04-11T12:40:16.716Z</time></trkpt><trkpt lat="44.5829321" lon="7.9680324"><ele>471.4285714285714</ele><time>2026-04-11T12:40:19.716Z</time></trkpt><trkpt lat="44.5829109" lon="7.9679443"><ele>472.8571428571428</ele><time>2026-04-11T12:40:21.716Z</time></trkpt><trkpt lat="44.582963" lon="7.9678747"><ele>474.2857142857143</ele><time>2026-04-11T12:40:24.716Z</time></trkpt><trkpt lat="44.5830214" lon="7.9678045"><ele>475.71428571428567</ele><time>2026-04-11T12:40:26.716Z</time></trkpt><trkpt lat="44.583086" lon="7.9677699"><ele>477.1428571428571</ele><time>2026-04-11T12:40:28.716Z</time></trkpt><trkpt lat="44.5831636" lon="7.9677457"><ele>478.57142857142856</ele><time>2026-04-11T12:40:31.716Z</time></trkpt><trkpt lat="44.5832209" lon="7.9676859"><ele>480.0</ele><time>2026-04-11T12:40:34.716Z</time></trkpt><trkpt lat="44.5832879" lon="7.9676084"><ele>480.0</ele><time>2026-04-11T12:40:37.716Z</time></trkpt><trkpt lat="44.5833332" lon="7.9675411"><ele>480.0</ele><time>2026-04-11T12:40:39.717Z</time></trkpt><trkpt lat="44.5833844" lon="7.9674583"><ele>480.0</ele><time>2026-04-11T12:40:41.716Z</time></trkpt><trkpt lat="44.5834485" lon="7.9673767"><ele>480.0</ele><time>2026-04-11T12:40:43.716Z</time></trkpt><trkpt lat="44.583526" lon="7.9672899"><ele>480.0</ele><time>2026-04-11T12:40:45.717Z</time></trkpt><trkpt lat="44.583596" lon="7.9671761"><ele>480.0</ele><time>2026-04-11T12:40:47.716Z</time></trkpt><trkpt lat="44.58367" lon="7.967073"><ele>481.0</ele><time>2026-04-11T12:40:49.716Z</time></trkpt><trkpt lat="44.5837215" lon="7.967004"><ele>482.0</ele><time>2026-04-11T12:40:50.716Z</time></trkpt><trkpt lat="44.5837711" lon="7.9669409"><ele>483.0</ele><time>2026-04-11T12:40:51.716Z</time></trkpt><trkpt lat="44.5838194" lon="7.9668742"><ele>484.0</ele><time>2026-04-11T12:40:52.716Z</time></trkpt><trkpt lat="44.5838675" lon="7.9668122"><ele>485.0</ele><time>2026-04-11T12:40:53.716Z</time></trkpt><trkpt lat="44.5839199" lon="7.9667496"><ele>486.0</ele><time>2026-04-11T12:40:54.716Z</time></trkpt><trkpt lat="44.5839745" lon="7.9666831"><ele>487.0</ele><time>2026-04-11T12:40:55.716Z</time></trkpt><trkpt lat="44.5840302" lon="7.9666048"><ele>483.83333333333337</ele><time>2026-04-11T12:40:56.716Z</time></trkpt><trkpt lat="44.5840841" lon="7.9665271"><ele>480.6666666666667</ele><time>2026-04-11T12:40:57.716Z</time></trkpt><trkpt lat="44.5841394" lon="7.9664453"><ele>477.5</ele><time>2026-04-11T12:40:58.716Z</time></trkpt><trkpt lat="44.5842004" lon="7.9663717"><ele>474.33333333333337</ele><time>2026-04-11T12:40:59.716Z</time></trkpt><trkpt lat="44.5842613" lon="7.9662932"><ele>471.1666666666667</ele><time>2026-04-11T12:41:00.716Z</time></trkpt><trkpt lat="44.5843195" lon="7.9662247"><ele>468.0</ele><time>2026-04-11T12:41:01.716Z</time></trkpt><trkpt lat="44.584384" lon="7.9661467"><ele>468.0</ele><time>2026-04-11T12:41:02.716Z</time></trkpt><trkpt lat="44.5844649" lon="7.9660858"><ele>467.99999999999994</ele><time>2026-04-11T12:41:03.716Z</time></trkpt><trkpt lat="44.5845428" lon="7.9660152"><ele>467.99999999999994</ele><time>2026-04-11T12:41:04.716Z</time></trkpt><trkpt lat="44.5846271" lon="7.9659523"><ele>468.0</ele><time>2026-04-11T12:41:05.716Z</time></trkpt><trkpt lat="44.5847201" lon="7.9658971"><ele>468.0</ele><time>2026-04-11T12:41:06.716Z</time></trkpt><trkpt lat="44.5848273" lon="7.9658403"><ele>466.59999999999997</ele><time>2026-04-11T12:41:07.716Z</time></trkpt><trkpt lat="44.5849362" lon="7.9657536"><ele>465.19999999999993</ele><time>2026-04-11T12:41:08.716Z</time></trkpt><trkpt lat="44.5850349" lon="7.9656905"><ele>463.8</ele><time>2026-04-11T12:41:09.716Z</time></trkpt><trkpt lat="44.5851154" lon="7.9655978"><ele>462.4</ele><time>2026-04-11T12:41:10.716Z</time></trkpt><trkpt lat="44.5852091" lon="7.9655269"><ele>461.0</ele><time>2026-04-11T12:41:11.716Z</time></trkpt><trkpt lat="44.5852796" lon="7.9654549"><ele>460.0</ele><time>2026-04-11T12:41:12.716Z</time></trkpt><trkpt lat="44.585347" lon="7.9653673"><ele>459.0</ele><time>2026-04-11T12:41:13.716Z</time></trkpt><trkpt lat="44.5854156" lon="7.9652537"><ele>458.0</ele><time>2026-04-11T12:41:14.716Z</time></trkpt><trkpt lat="44.5854756" lon="7.9651297"><ele>457.0</ele><time>2026-04-11T12:41:15.717Z</time></trkpt><trkpt lat="44.5855328" lon="7.9649918"><ele>456.0</ele><time>2026-04-11T12:41:16.717Z</time></trkpt><trkpt lat="44.5855778" lon="7.9648438"><ele>456.0</ele><time>2026-04-11T12:41:17.716Z</time></trkpt><trkpt lat="44.5856186" lon="7.964709"><ele>456.0</ele><time>2026-04-11T12:41:18.716Z</time></trkpt><trkpt lat="44.585664" lon="7.9645691"><ele>456.0</ele><time>2026-04-11T12:41:19.716Z</time></trkpt><trkpt lat="44.5857096" lon="7.9644264"><ele>456.0</ele><time>2026-04-11T12:41:20.716Z</time></trkpt><trkpt lat="44.5857469" lon="7.9642556"><ele>452.5</ele><time>2026-04-11T12:41:21.716Z</time></trkpt><trkpt lat="44.58579" lon="7.9640987"><ele>449.0</ele><time>2026-04-11T12:41:22.716Z</time></trkpt><trkpt lat="44.5858394" lon="7.9639577"><ele>445.5</ele><time>2026-04-11T12:41:23.716Z</time></trkpt><trkpt lat="44.5858982" lon="7.9638071"><ele>442.0</ele><time>2026-04-11T12:41:24.716Z</time></trkpt><trkpt lat="44.5859553" lon="7.9636472"><ele>442.0</ele><time>2026-04-11T12:41:25.716Z</time></trkpt><trkpt lat="44.5860108" lon="7.9635086"><ele>442.0</ele><time>2026-04-11T12:41:26.716Z</time></trkpt><trkpt lat="44.5860873" lon="7.9633627"><ele>442.0</ele><time>2026-04-11T12:41:27.716Z</time></trkpt><trkpt lat="44.5861432" lon="7.9632235"><ele>442.0</ele><time>2026-04-11T12:41:28.716Z</time></trkpt><trkpt lat="44.5861863" lon="7.9630663"><ele>441.75</ele><time>2026-04-11T12:41:29.716Z</time></trkpt><trkpt lat="44.5862236" lon="7.9629037"><ele>441.5</ele><time>2026-04-11T12:41:30.716Z</time></trkpt><trkpt lat="44.5862309" lon="7.9627586"><ele>441.25</ele><time>2026-04-11T12:41:31.716Z</time></trkpt><trkpt lat="44.5862275" lon="7.9625928"><ele>441.0</ele><time>2026-04-11T12:41:32.716Z</time></trkpt><trkpt lat="44.5862052" lon="7.9624305"><ele>441.0</ele><time>2026-04-11T12:41:33.716Z</time></trkpt><trkpt lat="44.5861782" lon="7.9622782"><ele>441.0</ele><time>2026-04-11T12:41:34.716Z</time></trkpt><trkpt lat="44.5861375" lon="7.9620955"><ele>441.0</ele><time>2026-04-11T12:41:35.716Z</time></trkpt><trkpt lat="44.5860741" lon="7.9619507"><ele>441.0</ele><time>2026-04-11T12:41:36.716Z</time></trkpt><trkpt lat="44.5859881" lon="7.9618454"><ele>440.25</ele><time>2026-04-11T12:41:37.716Z</time></trkpt><trkpt lat="44.5858868" lon="7.9617341"><ele>439.5</ele><time>2026-04-11T12:41:38.716Z</time></trkpt><trkpt lat="44.5857951" lon="7.9616312"><ele>438.75</ele><time>2026-04-11T12:41:39.716Z</time></trkpt><trkpt lat="44.5856994" lon="7.961536"><ele>438.0</ele><time>2026-04-11T12:41:40.716Z</time></trkpt><trkpt lat="44.5856135" lon="7.9614423"><ele>438.0</ele><time>2026-04-11T12:41:41.716Z</time></trkpt><trkpt lat="44.5855327" lon="7.9613411"><ele>437.99999999999994</ele><time>2026-04-11T12:41:42.716Z</time></trkpt><trkpt lat="44.5854464" lon="7.961247"><ele>437.99999999999994</ele><time>2026-04-11T12:41:43.716Z</time></trkpt><trkpt lat="44.585375" lon="7.9611322"><ele>438.0</ele><time>2026-04-11T12:41:44.716Z</time></trkpt><trkpt lat="44.5853088" lon="7.9610185"><ele>438.0</ele><time>2026-04-11T12:41:45.716Z</time></trkpt><trkpt lat="44.5852472" lon="7.9608967"><ele>436.4</ele><time>2026-04-11T12:41:46.716Z</time></trkpt><trkpt lat="44.5851909" lon="7.9607683"><ele>434.79999999999995</ele><time>2026-04-11T12:41:47.716Z</time></trkpt><trkpt lat="44.5851389" lon="7.9606393"><ele>433.2</ele><time>2026-04-11T12:41:48.716Z</time></trkpt><trkpt lat="44.585089" lon="7.9605201"><ele>431.6</ele><time>2026-04-11T12:41:49.716Z</time></trkpt><trkpt lat="44.5850461" lon="7.9603923"><ele>430.0</ele><time>2026-04-11T12:41:50.716Z</time></trkpt><trkpt lat="44.5850097" lon="7.960269"><ele>430.0</ele><time>2026-04-11T12:41:51.716Z</time></trkpt><trkpt lat="44.5849897" lon="7.9601399"><ele>430.0</ele><time>2026-04-11T12:41:52.716Z</time></trkpt><trkpt lat="44.5849795" lon="7.9599993"><ele>430.0</ele><time>2026-04-11T12:41:53.716Z</time></trkpt><trkpt lat="44.5849717" lon="7.95987"><ele>430.0</ele><time>2026-04-11T12:41:54.716Z</time></trkpt><trkpt lat="44.5849794" lon="7.9597412"><ele>430.0</ele><time>2026-04-11T12:41:55.716Z</time></trkpt><trkpt lat="44.585001" lon="7.9596044"><ele>430.6</ele><time>2026-04-11T12:41:56.716Z</time></trkpt><trkpt lat="44.5850227" lon="7.9594739"><ele>431.2</ele><time>2026-04-11T12:41:57.716Z</time></trkpt><trkpt lat="44.5850468" lon="7.9593429"><ele>431.79999999999995</ele><time>2026-04-11T12:41:58.716Z</time></trkpt><trkpt lat="44.5850742" lon="7.9592097"><ele>432.4</ele><time>2026-04-11T12:41:59.716Z</time></trkpt><trkpt lat="44.5851035" lon="7.9590778"><ele>433.0</ele><time>2026-04-11T12:42:00.716Z</time></trkpt><trkpt lat="44.585129" lon="7.9589552"><ele>433.0</ele><time>2026-04-11T12:42:01.716Z</time></trkpt><trkpt lat="44.5851558" lon="7.9588221"><ele>432.99999999999994</ele><time>2026-04-11T12:42:02.716Z</time></trkpt><trkpt lat="44.5851727" lon="7.9586879"><ele>432.99999999999994</ele><time>2026-04-11T12:42:03.716Z</time></trkpt><trkpt lat="44.5851725" lon="7.9585566"><ele>433.0</ele><time>2026-04-11T12:42:04.716Z</time></trkpt><trkpt lat="44.5851558" lon="7.9584265"><ele>433.0</ele><time>2026-04-11T12:42:05.716Z</time></trkpt><trkpt lat="44.5851174" lon="7.958303"><ele>432.2</ele><time>2026-04-11T12:42:06.716Z</time></trkpt><trkpt lat="44.585068" lon="7.95818"><ele>431.4</ele><time>2026-04-11T12:42:07.716Z</time></trkpt><trkpt lat="44.5850052" lon="7.9580632"><ele>430.59999999999997</ele><time>2026-04-11T12:42:08.716Z</time></trkpt><trkpt lat="44.5849415" lon="7.9579581"><ele>429.79999999999995</ele><time>2026-04-11T12:42:09.716Z</time></trkpt><trkpt lat="44.584867" lon="7.9578714"><ele>429.0</ele><time>2026-04-11T12:42:10.716Z</time></trkpt><trkpt lat="44.5847936" lon="7.9577671"><ele>429.0</ele><time>2026-04-11T12:42:11.716Z</time></trkpt><trkpt lat="44.5847219" lon="7.9576782"><ele>429.0</ele><time>2026-04-11T12:42:12.716Z</time></trkpt><trkpt lat="44.5846472" lon="7.9575945"><ele>429.0</ele><time>2026-04-11T12:42:13.716Z</time></trkpt><trkpt lat="44.5845729" lon="7.9575236"><ele>429.0</ele><time>2026-04-11T12:42:14.716Z</time></trkpt><trkpt lat="44.5844942" lon="7.957461"><ele>429.0</ele><time>2026-04-11T12:42:15.716Z</time></trkpt><trkpt lat="44.584414" lon="7.9573932"><ele>428.8333333333333</ele><time>2026-04-11T12:42:16.716Z</time></trkpt><trkpt lat="44.5843306" lon="7.9573588"><ele>428.66666666666663</ele><time>2026-04-11T12:42:17.716Z</time></trkpt><trkpt lat="44.5842449" lon="7.9573394"><ele>428.5</ele><time>2026-04-11T12:42:18.716Z</time></trkpt><trkpt lat="44.5841606" lon="7.9573147"><ele>428.3333333333333</ele><time>2026-04-11T12:42:19.716Z</time></trkpt><trkpt lat="44.5840792" lon="7.9573031"><ele>428.16666666666663</ele><time>2026-04-11T12:42:20.716Z</time></trkpt><trkpt lat="44.583994" lon="7.9573107"><ele>428.0</ele><time>2026-04-11T12:42:21.716Z</time></trkpt><trkpt lat="44.5839122" lon="7.9573138"><ele>427.99999999999994</ele><time>2026-04-11T12:42:22.716Z</time></trkpt><trkpt lat="44.5838291" lon="7.9573268"><ele>428.0</ele><time>2026-04-11T12:42:23.716Z</time></trkpt><trkpt lat="44.5837476" lon="7.9573353"><ele>428.0</ele><time>2026-04-11T12:42:24.716Z</time></trkpt><trkpt lat="44.5836611" lon="7.9573447"><ele>428.0</ele><time>2026-04-11T12:42:25.716Z</time></trkpt><trkpt lat="44.5835707" lon="7.9573497"><ele>427.99999999999994</ele><time>2026-04-11T12:42:26.716Z</time></trkpt><trkpt lat="44.5834789" lon="7.9573473"><ele>428.0</ele><time>2026-04-11T12:42:27.716Z</time></trkpt><trkpt lat="44.5833838" lon="7.9573212"><ele>426.0</ele><time>2026-04-11T12:42:28.716Z</time></trkpt><trkpt lat="44.5832922" lon="7.9572729"><ele>423.99999999999994</ele><time>2026-04-11T12:42:29.716Z</time></trkpt><trkpt lat="44.5831995" lon="7.9572111"><ele>422.0</ele><time>2026-04-11T12:42:30.716Z</time></trkpt><trkpt lat="44.5831108" lon="7.9571347"><ele>420.0</ele><time>2026-04-11T12:42:31.716Z</time></trkpt><trkpt lat="44.583044" lon="7.9570408"><ele>418.0</ele><time>2026-04-11T12:42:32.716Z</time></trkpt><trkpt lat="44.5829903" lon="7.9569108"><ele>418.0</ele><time>2026-04-11T12:42:33.716Z</time></trkpt><trkpt lat="44.582941" lon="7.956749"><ele>418.0</ele><time>2026-04-11T12:42:34.716Z</time></trkpt><trkpt lat="44.5829017" lon="7.956586"><ele>418.0</ele><time>2026-04-11T12:42:35.716Z</time></trkpt><trkpt lat="44.5828766" lon="7.9564242"><ele>418.0</ele><time>2026-04-11T12:42:36.716Z</time></trkpt><trkpt lat="44.5828545" lon="7.9562545"><ele>416.25</ele><time>2026-04-11T12:42:37.716Z</time></trkpt><trkpt lat="44.5828337" lon="7.9560877"><ele>414.5</ele><time>2026-04-11T12:42:38.716Z</time></trkpt><trkpt lat="44.5828147" lon="7.9559165"><ele>412.75</ele><time>2026-04-11T12:42:39.716Z</time></trkpt><trkpt lat="44.5827982" lon="7.9557397"><ele>411.0</ele><time>2026-04-11T12:42:40.716Z</time></trkpt><trkpt lat="44.582779" lon="7.9555653"><ele>411.0</ele><time>2026-04-11T12:42:41.716Z</time></trkpt><trkpt lat="44.5827564" lon="7.9553927"><ele>411.0</ele><time>2026-04-11T12:42:42.716Z</time></trkpt><trkpt lat="44.5827365" lon="7.9552313"><ele>411.0</ele><time>2026-04-11T12:42:43.716Z</time></trkpt><trkpt lat="44.5827225" lon="7.9550726"><ele>411.0</ele><time>2026-04-11T12:42:44.716Z</time></trkpt><trkpt lat="44.5827269" lon="7.9549244"><ele>411.75</ele><time>2026-04-11T12:42:45.716Z</time></trkpt><trkpt lat="44.5827684" lon="7.9547773"><ele>412.5</ele><time>2026-04-11T12:42:46.716Z</time></trkpt><trkpt lat="44.582839" lon="7.9546427"><ele>413.25</ele><time>2026-04-11T12:42:47.716Z</time></trkpt><trkpt lat="44.5829482" lon="7.9545709"><ele>414.0</ele><time>2026-04-11T12:42:48.716Z</time></trkpt><trkpt lat="44.5830615" lon="7.9545506"><ele>414.0</ele><time>2026-04-11T12:42:49.716Z</time></trkpt><trkpt lat="44.5831791" lon="7.9545193"><ele>414.0</ele><time>2026-04-11T12:42:50.716Z</time></trkpt><trkpt lat="44.5833011" lon="7.9544725"><ele>414.0</ele><time>2026-04-11T12:42:51.716Z</time></trkpt><trkpt lat="44.5834156" lon="7.9544154"><ele>414.0</ele><time>2026-04-11T12:42:52.716Z</time></trkpt><trkpt lat="44.5835337" lon="7.954347"><ele>414.0</ele><time>2026-04-11T12:42:53.717Z</time></trkpt><trkpt lat="44.5836452" lon="7.9542724"><ele>414.0</ele><time>2026-04-11T12:42:54.716Z</time></trkpt><trkpt lat="44.5837527" lon="7.9541899"><ele>414.0</ele><time>2026-04-11T12:42:55.716Z</time></trkpt><trkpt lat="44.5838582" lon="7.9541036"><ele>414.0</ele><time>2026-04-11T12:42:56.716Z</time></trkpt><trkpt lat="44.5839641" lon="7.9540202"><ele>411.75</ele><time>2026-04-11T12:42:57.716Z</time></trkpt><trkpt lat="44.5840702" lon="7.9539297"><ele>409.5</ele><time>2026-04-11T12:42:58.716Z</time></trkpt><trkpt lat="44.5841793" lon="7.9538423"><ele>407.25</ele><time>2026-04-11T12:42:59.716Z</time></trkpt><trkpt lat="44.5842891" lon="7.953757"><ele>405.0</ele><time>2026-04-11T12:43:00.716Z</time></trkpt><trkpt lat="44.5843979" lon="7.9536751"><ele>407.0</ele><time>2026-04-11T12:43:01.717Z</time></trkpt><trkpt lat="44.584514" lon="7.9536095"><ele>409.0</ele><time>2026-04-11T12:43:02.716Z</time></trkpt><trkpt lat="44.5846312" lon="7.9535545"><ele>411.0</ele><time>2026-04-11T12:43:03.716Z</time></trkpt><trkpt lat="44.5847487" lon="7.9534912"><ele>413.0</ele><time>2026-04-11T12:43:04.717Z</time></trkpt><trkpt lat="44.5848606" lon="7.9534146"><ele>408.5</ele><time>2026-04-11T12:43:05.717Z</time></trkpt><trkpt lat="44.5849677" lon="7.9533219"><ele>404.0</ele><time>2026-04-11T12:43:06.716Z</time></trkpt><trkpt lat="44.5850629" lon="7.9532033"><ele>399.5</ele><time>2026-04-11T12:43:07.716Z</time></trkpt><trkpt lat="44.5851442" lon="7.9530708"><ele>395.0</ele><time>2026-04-11T12:43:08.716Z</time></trkpt><trkpt lat="44.5852122" lon="7.9529177"><ele>395.0</ele><time>2026-04-11T12:43:09.717Z</time></trkpt><trkpt lat="44.5852776" lon="7.9527441"><ele>395.0</ele><time>2026-04-11T12:43:10.716Z</time></trkpt><trkpt lat="44.5853322" lon="7.9525689"><ele>395.0</ele><time>2026-04-11T12:43:11.716Z</time></trkpt><trkpt lat="44.5853709" lon="7.952399"><ele>395.0</ele><time>2026-04-11T12:43:12.716Z</time></trkpt><trkpt lat="44.5854053" lon="7.9522446"><ele>394.6</ele><time>2026-04-11T12:43:13.716Z</time></trkpt><trkpt lat="44.5854379" lon="7.9520975"><ele>394.2</ele><time>2026-04-11T12:43:14.716Z</time></trkpt><trkpt lat="44.5854631" lon="7.9519564"><ele>393.79999999999995</ele><time>2026-04-11T12:43:15.716Z</time></trkpt><trkpt lat="44.5854773" lon="7.9518253"><ele>393.4</ele><time>2026-04-11T12:43:16.716Z</time></trkpt><trkpt lat="44.5854796" lon="7.9517074"><ele>393.0</ele><time>2026-04-11T12:43:17.716Z</time></trkpt><trkpt lat="44.5854783" lon="7.9516026"><ele>393.0</ele><time>2026-04-11T12:43:18.716Z</time></trkpt><trkpt lat="44.5854853" lon="7.9514548"><ele>393.0</ele><time>2026-04-11T12:43:20.716Z</time></trkpt><trkpt lat="44.5855327" lon="7.9513603"><ele>393.0</ele><time>2026-04-11T12:43:22.716Z</time></trkpt><trkpt lat="44.5855835" lon="7.9513058"><ele>393.0</ele><time>2026-04-11T12:43:24.716Z</time></trkpt><trkpt lat="44.5856669" lon="7.9512863"><ele>393.0</ele><time>2026-04-11T12:43:28.718Z</time></trkpt><trkpt lat="44.5857296" lon="7.9512676"><ele>393.0</ele><time>2026-04-11T12:43:31.717Z</time></trkpt><trkpt lat="44.5856389" lon="7.9513077"><ele>393.0</ele><time>2026-04-11T12:43:39.718Z</time></trkpt><trkpt lat="44.5855526" lon="7.9513576"><ele>393.0</ele><time>2026-04-11T12:43:41.717Z</time></trkpt><trkpt lat="44.5854727" lon="7.9513531"><ele>393.0</ele><time>2026-04-11T12:43:43.717Z</time></trkpt><trkpt lat="44.5854178" lon="7.951235"><ele>393.0</ele><time>2026-04-11T12:43:45.717Z</time></trkpt><trkpt lat="44.5854044" lon="7.9511465"><ele>393.0</ele><time>2026-04-11T12:43:46.717Z</time></trkpt><trkpt lat="44.5853545" lon="7.9509796"><ele>388.8333333333333</ele><time>2026-04-11T12:43:48.717Z</time></trkpt><trkpt lat="44.5853242" lon="7.9508827"><ele>384.6666666666667</ele><time>2026-04-11T12:43:49.717Z</time></trkpt><trkpt lat="44.5852934" lon="7.9507785"><ele>380.5</ele><time>2026-04-11T12:43:50.717Z</time></trkpt><trkpt lat="44.5852545" lon="7.9506786"><ele>376.33333333333337</ele><time>2026-04-11T12:43:51.717Z</time></trkpt><trkpt lat="44.585218" lon="7.9505696"><ele>372.1666666666667</ele><time>2026-04-11T12:43:52.717Z</time></trkpt><trkpt lat="44.585188" lon="7.9504546"><ele>368.0</ele><time>2026-04-11T12:43:53.717Z</time></trkpt><trkpt lat="44.5851627" lon="7.9503336"><ele>368.4</ele><time>2026-04-11T12:43:54.717Z</time></trkpt><trkpt lat="44.5851551" lon="7.9502032"><ele>368.79999999999995</ele><time>2026-04-11T12:43:55.717Z</time></trkpt><trkpt lat="44.5851761" lon="7.9500791"><ele>369.2</ele><time>2026-04-11T12:43:56.717Z</time></trkpt><trkpt lat="44.585228" lon="7.949961"><ele>369.6</ele><time>2026-04-11T12:43:57.717Z</time></trkpt><trkpt lat="44.5853017" lon="7.9498683"><ele>370.0</ele><time>2026-04-11T12:43:58.717Z</time></trkpt><trkpt lat="44.5853914" lon="7.9498284"><ele>370.0</ele><time>2026-04-11T12:43:59.717Z</time></trkpt><trkpt lat="44.5854848" lon="7.9498214"><ele>370.0</ele><time>2026-04-11T12:44:00.717Z</time></trkpt><trkpt lat="44.5855757" lon="7.9498227"><ele>370.0</ele><time>2026-04-11T12:44:01.717Z</time></trkpt><trkpt lat="44.5856641" lon="7.9498246"><ele>370.0</ele><time>2026-04-11T12:44:02.717Z</time></trkpt><trkpt lat="44.5857475" lon="7.9498123"><ele>370.0</ele><time>2026-04-11T12:44:03.717Z</time></trkpt><trkpt lat="44.5858298" lon="7.9498066"><ele>370.0</ele><time>2026-04-11T12:44:04.717Z</time></trkpt><trkpt lat="44.5859079" lon="7.9497892"><ele>369.99999999999994</ele><time>2026-04-11T12:44:05.717Z</time></trkpt><trkpt lat="44.5859809" lon="7.949761"><ele>370.0</ele><time>2026-04-11T12:44:06.717Z</time></trkpt><trkpt lat="44.5860502" lon="7.9497271"><ele>370.0</ele><time>2026-04-11T12:44:07.718Z</time></trkpt><trkpt lat="44.5861185" lon="7.9496881"><ele>370.0</ele><time>2026-04-11T12:44:08.717Z</time></trkpt><trkpt lat="44.586185" lon="7.9496392"><ele>370.0</ele><time>2026-04-11T12:44:09.717Z</time></trkpt><trkpt lat="44.5862459" lon="7.949595"><ele>369.99999999999994</ele><time>2026-04-11T12:44:10.717Z</time></trkpt><trkpt lat="44.5863054" lon="7.9495501"><ele>370.0</ele><time>2026-04-11T12:44:11.717Z</time></trkpt><trkpt lat="44.5863615" lon="7.9495046"><ele>373.0</ele><time>2026-04-11T12:44:12.717Z</time></trkpt><trkpt lat="44.5864693" lon="7.9494133"><ele>376.0</ele><time>2026-04-11T12:44:14.717Z</time></trkpt><trkpt lat="44.586586" lon="7.9493458"><ele>379.0</ele><time>2026-04-11T12:44:16.717Z</time></trkpt><trkpt lat="44.5867006" lon="7.9493034"><ele>382.0</ele><time>2026-04-11T12:44:18.717Z</time></trkpt><trkpt lat="44.5868193" lon="7.9493238"><ele>382.0</ele><time>2026-04-11T12:44:20.717Z</time></trkpt><trkpt lat="44.5869172" lon="7.9493965"><ele>382.0</ele><time>2026-04-11T12:44:22.717Z</time></trkpt><trkpt lat="44.5870003" lon="7.9495008"><ele>382.0</ele><time>2026-04-11T12:44:24.717Z</time></trkpt><trkpt lat="44.5870839" lon="7.9496067"><ele>382.0</ele><time>2026-04-11T12:44:26.717Z</time></trkpt><trkpt lat="44.5871647" lon="7.9497105"><ele>382.0</ele><time>2026-04-11T12:44:28.717Z</time></trkpt><trkpt lat="44.5872434" lon="7.9498322"><ele>381.5</ele><time>2026-04-11T12:44:30.717Z</time></trkpt><trkpt lat="44.5873129" lon="7.9499634"><ele>381.0</ele><time>2026-04-11T12:44:32.717Z</time></trkpt><trkpt lat="44.5873833" lon="7.9500869"><ele>380.5</ele><time>2026-04-11T12:44:34.717Z</time></trkpt><trkpt lat="44.5874577" lon="7.9502036"><ele>380.0</ele><time>2026-04-11T12:44:36.717Z</time></trkpt><trkpt lat="44.5875361" lon="7.9503287"><ele>380.0</ele><time>2026-04-11T12:44:38.717Z</time></trkpt><trkpt lat="44.587612" lon="7.9504516"><ele>380.0</ele><time>2026-04-11T12:44:40.717Z</time></trkpt><trkpt lat="44.5876902" lon="7.9505794"><ele>380.0</ele><time>2026-04-11T12:44:42.717Z</time></trkpt><trkpt lat="44.5877698" lon="7.9507023"><ele>380.0</ele><time>2026-04-11T12:44:44.717Z</time></trkpt><trkpt lat="44.5878552" lon="7.9508255"><ele>380.0</ele><time>2026-04-11T12:44:46.717Z</time></trkpt><trkpt lat="44.5879389" lon="7.9509522"><ele>380.0</ele><time>2026-04-11T12:44:48.717Z</time></trkpt><trkpt lat="44.5880252" lon="7.9510771"><ele>380.0</ele><time>2026-04-11T12:44:50.717Z</time></trkpt><trkpt lat="44.5881103" lon="7.9511966"><ele>380.0</ele><time>2026-04-11T12:44:52.717Z</time></trkpt><trkpt lat="44.5881536" lon="7.9512609"><ele>380.0</ele><time>2026-04-11T12:44:53.717Z</time></trkpt><trkpt lat="44.5882303" lon="7.9513975"><ele>380.0</ele><time>2026-04-11T12:44:55.717Z</time></trkpt><trkpt lat="44.588272" lon="7.9514676"><ele>380.0</ele><time>2026-04-11T12:44:56.717Z</time></trkpt><trkpt lat="44.5883146" lon="7.951533"><ele>380.0</ele><time>2026-04-11T12:44:57.717Z</time></trkpt><trkpt lat="44.5883552" lon="7.9516009"><ele>380.0</ele><time>2026-04-11T12:44:58.717Z</time></trkpt><trkpt lat="44.5883935" lon="7.9516752"><ele>380.0</ele><time>2026-04-11T12:44:59.717Z</time></trkpt><trkpt lat="44.5884383" lon="7.9517407"><ele>380.0</ele><time>2026-04-11T12:45:00.717Z</time></trkpt><trkpt lat="44.5884828" lon="7.9518074"><ele>380.0</ele><time>2026-04-11T12:45:01.717Z</time></trkpt><trkpt lat="44.5885423" lon="7.9518512"><ele>382.0</ele><time>2026-04-11T12:45:02.717Z</time></trkpt><trkpt lat="44.5886025" lon="7.9518789"><ele>384.0</ele><time>2026-04-11T12:45:03.717Z</time></trkpt><trkpt lat="44.5886664" lon="7.9518823"><ele>386.0</ele><time>2026-04-11T12:45:04.717Z</time></trkpt><trkpt lat="44.5887959" lon="7.9518597"><ele>388.0</ele><time>2026-04-11T12:45:06.717Z</time></trkpt><trkpt lat="44.5888601" lon="7.9518356"><ele>389.99999999999994</ele><time>2026-04-11T12:45:07.717Z</time></trkpt><trkpt lat="44.5889272" lon="7.9518034"><ele>392.0</ele><time>2026-04-11T12:45:08.717Z</time></trkpt><trkpt lat="44.5889929" lon="7.9517798"><ele>392.16666666666663</ele><time>2026-04-11T12:45:09.717Z</time></trkpt><trkpt lat="44.5890526" lon="7.9517507"><ele>392.3333333333333</ele><time>2026-04-11T12:45:10.717Z</time></trkpt><trkpt lat="44.5891119" lon="7.951719"><ele>392.5</ele><time>2026-04-11T12:45:11.717Z</time></trkpt><trkpt lat="44.5891711" lon="7.9516875"><ele>392.66666666666663</ele><time>2026-04-11T12:45:12.717Z</time></trkpt><trkpt lat="44.5892841" lon="7.9516422"><ele>392.8333333333333</ele><time>2026-04-11T12:45:14.718Z</time></trkpt><trkpt lat="44.5893886" lon="7.9515963"><ele>393.0</ele><time>2026-04-11T12:45:16.717Z</time></trkpt><trkpt lat="44.5895095" lon="7.9515801"><ele>390.0</ele><time>2026-04-11T12:45:18.717Z</time></trkpt><trkpt lat="44.5896155" lon="7.9515664"><ele>387.0</ele><time>2026-04-11T12:45:20.717Z</time></trkpt><trkpt lat="44.5897156" lon="7.9515617"><ele>384.0</ele><time>2026-04-11T12:45:22.724Z</time></trkpt><trkpt lat="44.5898165" lon="7.9515682"><ele>381.0</ele><time>2026-04-11T12:45:24.724Z</time></trkpt><trkpt lat="44.5899178" lon="7.9515955"><ele>378.0</ele><time>2026-04-11T12:45:26.724Z</time></trkpt><trkpt lat="44.5900176" lon="7.9516306"><ele>378.0</ele><time>2026-04-11T12:45:28.724Z</time></trkpt><trkpt lat="44.5901247" lon="7.9516493"><ele>378.0</ele><time>2026-04-11T12:45:30.724Z</time></trkpt><trkpt lat="44.5902174" lon="7.9517108"><ele>378.0</ele><time>2026-04-11T12:45:32.724Z</time></trkpt><trkpt lat="44.5903108" lon="7.9517566"><ele>378.0</ele><time>2026-04-11T12:45:34.724Z</time></trkpt><trkpt lat="44.5904055" lon="7.9518094"><ele>378.0</ele><time>2026-04-11T12:45:36.724Z</time></trkpt><trkpt lat="44.5905022" lon="7.9518814"><ele>380.59999999999997</ele><time>2026-04-11T12:45:38.724Z</time></trkpt><trkpt lat="44.5905895" lon="7.9519653"><ele>383.2</ele><time>2026-04-11T12:45:40.724Z</time></trkpt><trkpt lat="44.5906693" lon="7.9520514"><ele>385.8</ele><time>2026-04-11T12:45:42.724Z</time></trkpt><trkpt lat="44.5907527" lon="7.9521346"><ele>388.4</ele><time>2026-04-11T12:45:44.724Z</time></trkpt><trkpt lat="44.5908308" lon="7.952208"><ele>391.0</ele><time>2026-04-11T12:45:46.724Z</time></trkpt><trkpt lat="44.5909116" lon="7.9522787"><ele>391.0</ele><time>2026-04-11T12:45:48.724Z</time></trkpt><trkpt lat="44.5910045" lon="7.9523249"><ele>391.0</ele><time>2026-04-11T12:45:50.724Z</time></trkpt><trkpt lat="44.5911081" lon="7.9523316"><ele>391.0</ele><time>2026-04-11T12:45:52.724Z</time></trkpt><trkpt lat="44.5912079" lon="7.9523024"><ele>391.0</ele><time>2026-04-11T12:45:54.724Z</time></trkpt><trkpt lat="44.5913135" lon="7.9522177"><ele>391.0</ele><time>2026-04-11T12:45:56.724Z</time></trkpt><trkpt lat="44.5913992" lon="7.9521063"><ele>390.99999999999994</ele><time>2026-04-11T12:45:58.724Z</time></trkpt><trkpt lat="44.5914419" lon="7.952037"><ele>391.0</ele><time>2026-04-11T12:45:59.724Z</time></trkpt><trkpt lat="44.5914857" lon="7.9519696"><ele>391.0</ele><time>2026-04-11T12:46:00.724Z</time></trkpt><trkpt lat="44.5915291" lon="7.9518978"><ele>391.0</ele><time>2026-04-11T12:46:01.724Z</time></trkpt><trkpt lat="44.5915727" lon="7.9518308"><ele>391.0</ele><time>2026-04-11T12:46:02.724Z</time></trkpt><trkpt lat="44.5916182" lon="7.9517549"><ele>390.99999999999994</ele><time>2026-04-11T12:46:03.724Z</time></trkpt><trkpt lat="44.5916613" lon="7.9516742"><ele>391.0</ele><time>2026-04-11T12:46:04.724Z</time></trkpt><trkpt lat="44.5917057" lon="7.9515921"><ele>389.50000000000006</ele><time>2026-04-11T12:46:05.724Z</time></trkpt><trkpt lat="44.591753" lon="7.9515123"><ele>388.0</ele><time>2026-04-11T12:46:06.724Z</time></trkpt><trkpt lat="44.5917997" lon="7.9514336"><ele>386.5</ele><time>2026-04-11T12:46:07.724Z</time></trkpt><trkpt lat="44.5918523" lon="7.9513515"><ele>385.0</ele><time>2026-04-11T12:46:08.724Z</time></trkpt><trkpt lat="44.5919" lon="7.9512624"><ele>383.5</ele><time>2026-04-11T12:46:09.724Z</time></trkpt><trkpt lat="44.5919482" lon="7.951168"><ele>382.0</ele><time>2026-04-11T12:46:10.724Z</time></trkpt><trkpt lat="44.5919949" lon="7.951068"><ele>381.5</ele><time>2026-04-11T12:46:11.724Z</time></trkpt><trkpt lat="44.5920402" lon="7.9509703"><ele>381.0</ele><time>2026-04-11T12:46:12.724Z</time></trkpt><trkpt lat="44.5920918" lon="7.9508721"><ele>380.5</ele><time>2026-04-11T12:46:13.724Z</time></trkpt><trkpt lat="44.5921334" lon="7.9507676"><ele>380.0</ele><time>2026-04-11T12:46:14.724Z</time></trkpt><trkpt lat="44.5921716" lon="7.95067"><ele>379.5</ele><time>2026-04-11T12:46:15.724Z</time></trkpt><trkpt lat="44.5922027" lon="7.9505806"><ele>379.0</ele><time>2026-04-11T12:46:16.724Z</time></trkpt><trkpt lat="44.5922356" lon="7.95049"><ele>378.3333333333333</ele><time>2026-04-11T12:46:17.724Z</time></trkpt><trkpt lat="44.5922746" lon="7.9503963"><ele>377.66666666666663</ele><time>2026-04-11T12:46:18.725Z</time></trkpt><trkpt lat="44.5923095" lon="7.9503025"><ele>377.0</ele><time>2026-04-11T12:46:19.724Z</time></trkpt><trkpt lat="44.5923476" lon="7.9502095"><ele>376.3333333333333</ele><time>2026-04-11T12:46:20.724Z</time></trkpt><trkpt lat="44.5923873" lon="7.9501139"><ele>375.6666666666667</ele><time>2026-04-11T12:46:21.725Z</time></trkpt><trkpt lat="44.5924242" lon="7.950019"><ele>375.0</ele><time>2026-04-11T12:46:22.724Z</time></trkpt><trkpt lat="44.5924806" lon="7.9499337"><ele>375.0</ele><time>2026-04-11T12:46:23.725Z</time></trkpt><trkpt lat="44.5925353" lon="7.9498474"><ele>375.0</ele><time>2026-04-11T12:46:24.724Z</time></trkpt><trkpt lat="44.5925638" lon="7.9497534"><ele>375.0</ele><time>2026-04-11T12:46:25.724Z</time></trkpt><trkpt lat="44.5925887" lon="7.9496598"><ele>375.0</ele><time>2026-04-11T12:46:26.724Z</time></trkpt><trkpt lat="44.5926172" lon="7.9495632"><ele>375.0</ele><time>2026-04-11T12:46:27.724Z</time></trkpt><trkpt lat="44.5926465" lon="7.9494671"><ele>375.0</ele><time>2026-04-11T12:46:28.725Z</time></trkpt><trkpt lat="44.5926814" lon="7.9493727"><ele>375.0</ele><time>2026-04-11T12:46:29.724Z</time></trkpt><trkpt lat="44.5927125" lon="7.9492801"><ele>375.0</ele><time>2026-04-11T12:46:30.724Z</time></trkpt><trkpt lat="44.5927402" lon="7.9491796"><ele>375.0</ele><time>2026-04-11T12:46:31.724Z</time></trkpt><trkpt lat="44.5928042" lon="7.9490191"><ele>375.0</ele><time>2026-04-11T12:46:33.724Z</time></trkpt><trkpt lat="44.5928484" lon="7.948913"><ele>375.0</ele><time>2026-04-11T12:46:34.724Z</time></trkpt><trkpt lat="44.5928869" lon="7.9488067"><ele>374.6666666666667</ele><time>2026-04-11T12:46:35.724Z</time></trkpt><trkpt lat="44.5929174" lon="7.9486959"><ele>374.3333333333333</ele><time>2026-04-11T12:46:36.724Z</time></trkpt><trkpt lat="44.5929751" lon="7.9486133"><ele>374.0</ele><time>2026-04-11T12:46:37.724Z</time></trkpt><trkpt lat="44.5930189" lon="7.9485318"><ele>373.66666666666663</ele><time>2026-04-11T12:46:38.724Z</time></trkpt><trkpt lat="44.5930536" lon="7.9484413"><ele>373.3333333333333</ele><time>2026-04-11T12:46:39.724Z</time></trkpt><trkpt lat="44.5930802" lon="7.9483398"><ele>373.0</ele><time>2026-04-11T12:46:40.724Z</time></trkpt><trkpt lat="44.5931183" lon="7.9482324"><ele>373.0</ele><time>2026-04-11T12:46:41.724Z</time></trkpt><trkpt lat="44.5931485" lon="7.9481303"><ele>373.0</ele><time>2026-04-11T12:46:42.724Z</time></trkpt><trkpt lat="44.5931967" lon="7.9480324"><ele>373.0</ele><time>2026-04-11T12:46:43.724Z</time></trkpt><trkpt lat="44.5932385" lon="7.9479329"><ele>373.0</ele><time>2026-04-11T12:46:44.724Z</time></trkpt><trkpt lat="44.5932825" lon="7.947836"><ele>373.0</ele><time>2026-04-11T12:46:45.724Z</time></trkpt><trkpt lat="44.5933249" lon="7.9477379"><ele>373.0</ele><time>2026-04-11T12:46:46.724Z</time></trkpt><trkpt lat="44.5933689" lon="7.9476359"><ele>372.16666666666663</ele><time>2026-04-11T12:46:47.724Z</time></trkpt><trkpt lat="44.5934194" lon="7.9475317"><ele>371.3333333333333</ele><time>2026-04-11T12:46:48.724Z</time></trkpt><trkpt lat="44.5934783" lon="7.947437"><ele>370.5</ele><time>2026-04-11T12:46:49.724Z</time></trkpt><trkpt lat="44.5935404" lon="7.9473554"><ele>369.6666666666667</ele><time>2026-04-11T12:46:50.724Z</time></trkpt><trkpt lat="44.5936077" lon="7.9472815"><ele>368.83333333333337</ele><time>2026-04-11T12:46:51.724Z</time></trkpt><trkpt lat="44.5936849" lon="7.9472333"><ele>368.0</ele><time>2026-04-11T12:46:52.724Z</time></trkpt><trkpt lat="44.5937661" lon="7.9472105"><ele>368.0</ele><time>2026-04-11T12:46:53.724Z</time></trkpt><trkpt lat="44.5938513" lon="7.9471887"><ele>368.0</ele><time>2026-04-11T12:46:54.724Z</time></trkpt><trkpt lat="44.5939364" lon="7.947178"><ele>368.0</ele><time>2026-04-11T12:46:55.724Z</time></trkpt><trkpt lat="44.5940186" lon="7.9471784"><ele>368.0</ele><time>2026-04-11T12:46:56.724Z</time></trkpt><trkpt lat="44.594105" lon="7.9471883"><ele>368.0</ele><time>2026-04-11T12:46:57.724Z</time></trkpt><trkpt lat="44.5941886" lon="7.9471684"><ele>368.0</ele><time>2026-04-11T12:46:58.724Z</time></trkpt><trkpt lat="44.5942751" lon="7.9471717"><ele>368.0</ele><time>2026-04-11T12:46:59.724Z</time></trkpt><trkpt lat="44.5943651" lon="7.9471789"><ele>368.0</ele><time>2026-04-11T12:47:00.724Z</time></trkpt><trkpt lat="44.5944587" lon="7.9471767"><ele>368.0</ele><time>2026-04-11T12:47:01.724Z</time></trkpt><trkpt lat="44.5945409" lon="7.947142"><ele>368.0</ele><time>2026-04-11T12:47:02.724Z</time></trkpt><trkpt lat="44.5946157" lon="7.9470816"><ele>368.0</ele><time>2026-04-11T12:47:03.724Z</time></trkpt><trkpt lat="44.5946805" lon="7.947014"><ele>368.0</ele><time>2026-04-11T12:47:04.724Z</time></trkpt><trkpt lat="44.5947453" lon="7.9469281"><ele>368.1666666666667</ele><time>2026-04-11T12:47:05.724Z</time></trkpt><trkpt lat="44.5948061" lon="7.9468388"><ele>368.33333333333337</ele><time>2026-04-11T12:47:06.724Z</time></trkpt><trkpt lat="44.5948673" lon="7.9467412"><ele>368.5</ele><time>2026-04-11T12:47:07.724Z</time></trkpt><trkpt lat="44.594928" lon="7.9466608"><ele>368.6666666666667</ele><time>2026-04-11T12:47:08.724Z</time></trkpt><trkpt lat="44.5950023" lon="7.9465827"><ele>368.8333333333333</ele><time>2026-04-11T12:47:09.725Z</time></trkpt><trkpt lat="44.5950787" lon="7.9465128"><ele>369.0</ele><time>2026-04-11T12:47:10.724Z</time></trkpt><trkpt lat="44.5951452" lon="7.9464387"><ele>369.0</ele><time>2026-04-11T12:47:11.724Z</time></trkpt><trkpt lat="44.5952163" lon="7.9463709"><ele>369.0</ele><time>2026-04-11T12:47:12.724Z</time></trkpt><trkpt lat="44.5952915" lon="7.9463181"><ele>369.0</ele><time>2026-04-11T12:47:13.724Z</time></trkpt><trkpt lat="44.5953702" lon="7.9462796"><ele>369.0</ele><time>2026-04-11T12:47:14.724Z</time></trkpt><trkpt lat="44.5954471" lon="7.9462421"><ele>369.0</ele><time>2026-04-11T12:47:15.725Z</time></trkpt><trkpt lat="44.5955264" lon="7.9462056"><ele>369.0</ele><time>2026-04-11T12:47:16.724Z</time></trkpt><trkpt lat="44.595606" lon="7.9461689"><ele>367.5</ele><time>2026-04-11T12:47:17.724Z</time></trkpt><trkpt lat="44.5956849" lon="7.9461235"><ele>366.0</ele><time>2026-04-11T12:47:18.724Z</time></trkpt><trkpt lat="44.5957657" lon="7.946082"><ele>364.5</ele><time>2026-04-11T12:47:19.724Z</time></trkpt><trkpt lat="44.5958492" lon="7.9460434"><ele>363.0</ele><time>2026-04-11T12:47:20.724Z</time></trkpt><trkpt lat="44.5959361" lon="7.9460035"><ele>361.5</ele><time>2026-04-11T12:47:21.724Z</time></trkpt><trkpt lat="44.59602" lon="7.9459565"><ele>360.0</ele><time>2026-04-11T12:47:22.724Z</time></trkpt><trkpt lat="44.5961011" lon="7.945913"><ele>361.2</ele><time>2026-04-11T12:47:23.724Z</time></trkpt><trkpt lat="44.5961865" lon="7.9458715"><ele>362.4</ele><time>2026-04-11T12:47:24.724Z</time></trkpt><trkpt lat="44.5962779" lon="7.9458324"><ele>363.6</ele><time>2026-04-11T12:47:25.724Z</time></trkpt><trkpt lat="44.5963696" lon="7.945792"><ele>364.8</ele><time>2026-04-11T12:47:26.724Z</time></trkpt><trkpt lat="44.5964547" lon="7.945751"><ele>366.0</ele><time>2026-04-11T12:47:27.724Z</time></trkpt><trkpt lat="44.596546" lon="7.9457145"><ele>366.0</ele><time>2026-04-11T12:47:28.724Z</time></trkpt><trkpt lat="44.596633" lon="7.9456726"><ele>366.0</ele><time>2026-04-11T12:47:29.724Z</time></trkpt><trkpt lat="44.5967243" lon="7.945626"><ele>366.0</ele><time>2026-04-11T12:47:30.724Z</time></trkpt><trkpt lat="44.5968105" lon="7.9455868"><ele>366.0</ele><time>2026-04-11T12:47:31.724Z</time></trkpt><trkpt lat="44.5968833" lon="7.9455488"><ele>366.0</ele><time>2026-04-11T12:47:32.724Z</time></trkpt><trkpt lat="44.5969553" lon="7.9455025"><ele>366.0</ele><time>2026-04-11T12:47:33.724Z</time></trkpt><trkpt lat="44.5970299" lon="7.9454607"><ele>363.8333333333333</ele><time>2026-04-11T12:47:34.724Z</time></trkpt><trkpt lat="44.5971099" lon="7.9454203"><ele>361.6666666666667</ele><time>2026-04-11T12:47:35.724Z</time></trkpt><trkpt lat="44.5971937" lon="7.9453772"><ele>359.5</ele><time>2026-04-11T12:47:36.724Z</time></trkpt><trkpt lat="44.5972703" lon="7.9453361"><ele>357.33333333333337</ele><time>2026-04-11T12:47:37.724Z</time></trkpt><trkpt lat="44.5973467" lon="7.9453047"><ele>355.1666666666667</ele><time>2026-04-11T12:47:38.724Z</time></trkpt><trkpt lat="44.597424" lon="7.9452753"><ele>353.0</ele><time>2026-04-11T12:47:39.724Z</time></trkpt><trkpt lat="44.5974962" lon="7.945225"><ele>353.0</ele><time>2026-04-11T12:47:40.724Z</time></trkpt><trkpt lat="44.5975688" lon="7.9451784"><ele>353.0</ele><time>2026-04-11T12:47:41.724Z</time></trkpt><trkpt lat="44.5976293" lon="7.9451135"><ele>353.0</ele><time>2026-04-11T12:47:42.724Z</time></trkpt><trkpt lat="44.5976834" lon="7.9450375"><ele>353.0</ele><time>2026-04-11T12:47:43.724Z</time></trkpt><trkpt lat="44.5977311" lon="7.9449376"><ele>353.0</ele><time>2026-04-11T12:47:44.724Z</time></trkpt><trkpt lat="44.5977679" lon="7.9448395"><ele>353.0</ele><time>2026-04-11T12:47:45.724Z</time></trkpt><trkpt lat="44.5977964" lon="7.9447136"><ele>352.1666666666667</ele><time>2026-04-11T12:47:46.724Z</time></trkpt><trkpt lat="44.5978213" lon="7.9446091"><ele>351.33333333333337</ele><time>2026-04-11T12:47:47.724Z</time></trkpt><trkpt lat="44.5978481" lon="7.9445157"><ele>350.5</ele><time>2026-04-11T12:47:48.724Z</time></trkpt><trkpt lat="44.5978801" lon="7.9444159"><ele>349.6666666666667</ele><time>2026-04-11T12:47:49.724Z</time></trkpt><trkpt lat="44.5979175" lon="7.9443182"><ele>348.8333333333333</ele><time>2026-04-11T12:47:50.724Z</time></trkpt><trkpt lat="44.5979483" lon="7.944216"><ele>348.0</ele><time>2026-04-11T12:47:51.724Z</time></trkpt><trkpt lat="44.5979982" lon="7.9441275"><ele>350.3333333333333</ele><time>2026-04-11T12:47:52.724Z</time></trkpt><trkpt lat="44.5980567" lon="7.9440402"><ele>352.6666666666667</ele><time>2026-04-11T12:47:53.724Z</time></trkpt><trkpt lat="44.5981187" lon="7.9439575"><ele>355.0</ele><time>2026-04-11T12:47:54.724Z</time></trkpt><trkpt lat="44.5981839" lon="7.9438871"><ele>357.33333333333337</ele><time>2026-04-11T12:47:55.724Z</time></trkpt><trkpt lat="44.5982594" lon="7.9438397"><ele>359.6666666666667</ele><time>2026-04-11T12:47:56.724Z</time></trkpt><trkpt lat="44.5983404" lon="7.9438066"><ele>362.0</ele><time>2026-04-11T12:47:57.724Z</time></trkpt><trkpt lat="44.5984229" lon="7.9437878"><ele>362.0</ele><time>2026-04-11T12:47:58.724Z</time></trkpt><trkpt lat="44.5985066" lon="7.9437733"><ele>362.0</ele><time>2026-04-11T12:47:59.724Z</time></trkpt><trkpt lat="44.5985904" lon="7.9437656"><ele>362.0</ele><time>2026-04-11T12:48:00.724Z</time></trkpt><trkpt lat="44.5986774" lon="7.9437615"><ele>362.0</ele><time>2026-04-11T12:48:01.724Z</time></trkpt><trkpt lat="44.5987594" lon="7.9437476"><ele>362.0</ele><time>2026-04-11T12:48:02.724Z</time></trkpt><trkpt lat="44.598842" lon="7.9437362"><ele>362.0</ele><time>2026-04-11T12:48:03.725Z</time></trkpt><trkpt lat="44.5989257" lon="7.9437136"><ele>361.6666666666667</ele><time>2026-04-11T12:48:04.724Z</time></trkpt><trkpt lat="44.5990035" lon="7.9436899"><ele>361.33333333333337</ele><time>2026-04-11T12:48:05.724Z</time></trkpt><trkpt lat="44.5990936" lon="7.9436192"><ele>361.0</ele><time>2026-04-11T12:48:07.724Z</time></trkpt><trkpt lat="44.5990983" lon="7.943486"><ele>360.6666666666667</ele><time>2026-04-11T12:48:10.724Z</time></trkpt><trkpt lat="44.5990155" lon="7.9433998"><ele>360.3333333333333</ele><time>2026-04-11T12:48:12.724Z</time></trkpt><trkpt lat="44.5989721" lon="7.9433266"><ele>360.0</ele><time>2026-04-11T12:48:15.724Z</time></trkpt><trkpt lat="44.5989251" lon="7.9432537"><ele>361.0</ele><time>2026-04-11T12:48:37.724Z</time></trkpt><trkpt lat="44.5988712" lon="7.9431626"><ele>362.0</ele><time>2026-04-11T12:48:41.724Z</time></trkpt><trkpt lat="44.5988242" lon="7.9430719"><ele>363.0</ele><time>2026-04-11T12:48:46.724Z</time></trkpt><trkpt lat="44.5987693" lon="7.9430012"><ele>364.0</ele><time>2026-04-11T12:48:49.724Z</time></trkpt><trkpt lat="44.5987059" lon="7.9429307"><ele>365.0</ele><time>2026-04-11T12:48:53.724Z</time></trkpt><trkpt lat="44.5986645" lon="7.9428485"><ele>366.0</ele><time>2026-04-11T12:48:57.724Z</time></trkpt><trkpt lat="44.5986155" lon="7.9427604"><ele>367.8571428571429</ele><time>2026-04-11T12:49:01.724Z</time></trkpt><trkpt lat="44.5985612" lon="7.9426875"><ele>369.7142857142857</ele><time>2026-04-11T12:49:05.724Z</time></trkpt><trkpt lat="44.5985187" lon="7.9425964"><ele>371.57142857142856</ele><time>2026-04-11T12:49:09.724Z</time></trkpt><trkpt lat="44.5984734" lon="7.9425265"><ele>373.42857142857144</ele><time>2026-04-11T12:49:12.724Z</time></trkpt><trkpt lat="44.5984346" lon="7.942433"><ele>375.2857142857143</ele><time>2026-04-11T12:49:15.724Z</time></trkpt><trkpt lat="44.5984003" lon="7.9423454"><ele>377.14285714285717</ele><time>2026-04-11T12:49:18.724Z</time></trkpt><trkpt lat="44.5983559" lon="7.9422715"><ele>379.0</ele><time>2026-04-11T12:49:21.724Z</time></trkpt><trkpt lat="44.5983043" lon="7.9422059"><ele>378.66666666666663</ele><time>2026-04-11T12:49:23.724Z</time></trkpt><trkpt lat="44.5982636" lon="7.9421076"><ele>378.3333333333333</ele><time>2026-04-11T12:49:26.724Z</time></trkpt><trkpt lat="44.5982196" lon="7.9420144"><ele>378.0</ele><time>2026-04-11T12:49:29.724Z</time></trkpt><trkpt lat="44.5981755" lon="7.9419091"><ele>377.6666666666667</ele><time>2026-04-11T12:49:32.724Z</time></trkpt><trkpt lat="44.5981113" lon="7.9418243"><ele>377.33333333333337</ele><time>2026-04-11T12:49:35.724Z</time></trkpt><trkpt lat="44.5980956" lon="7.9417195"><ele>377.0</ele><time>2026-04-11T12:49:37.724Z</time></trkpt><trkpt lat="44.5980647" lon="7.9416198"><ele>377.0</ele><time>2026-04-11T12:49:39.724Z</time></trkpt><trkpt lat="44.5980373" lon="7.9415145"><ele>377.0</ele><time>2026-04-11T12:49:41.724Z</time></trkpt><trkpt lat="44.5980089" lon="7.9413887"><ele>377.0</ele><time>2026-04-11T12:49:43.724Z</time></trkpt><trkpt lat="44.5979981" lon="7.9412617"><ele>377.0</ele><time>2026-04-11T12:49:45.724Z</time></trkpt><trkpt lat="44.5979939" lon="7.9411255"><ele>377.0</ele><time>2026-04-11T12:49:47.724Z</time></trkpt><trkpt lat="44.597981" lon="7.9409801"><ele>376.20000000000005</ele><time>2026-04-11T12:49:49.724Z</time></trkpt><trkpt lat="44.5979751" lon="7.9408587"><ele>375.4</ele><time>2026-04-11T12:49:51.724Z</time></trkpt><trkpt lat="44.5979846" lon="7.9407382"><ele>374.6</ele><time>2026-04-11T12:49:53.724Z</time></trkpt><trkpt lat="44.5980099" lon="7.9406277"><ele>373.79999999999995</ele><time>2026-04-11T12:49:55.724Z</time></trkpt><trkpt lat="44.5980121" lon="7.9404523"><ele>373.0</ele><time>2026-04-11T12:49:57.724Z</time></trkpt><trkpt lat="44.5980378" lon="7.9403076"><ele>373.0</ele><time>2026-04-11T12:49:59.724Z</time></trkpt><trkpt lat="44.5980499" lon="7.9401521"><ele>373.0</ele><time>2026-04-11T12:50:01.724Z</time></trkpt><trkpt lat="44.5980798" lon="7.9399942"><ele>373.0</ele><time>2026-04-11T12:50:03.724Z</time></trkpt><trkpt lat="44.5981175" lon="7.9398605"><ele>373.0</ele><time>2026-04-11T12:50:05.725Z</time></trkpt><trkpt lat="44.5981416" lon="7.9397086"><ele>373.0</ele><time>2026-04-11T12:50:07.725Z</time></trkpt><trkpt lat="44.5981599" lon="7.9395522"><ele>373.0</ele><time>2026-04-11T12:50:09.724Z</time></trkpt><trkpt lat="44.598175" lon="7.9394457"><ele>373.0</ele><time>2026-04-11T12:50:11.724Z</time></trkpt><trkpt lat="44.5981831" lon="7.9393121"><ele>373.0</ele><time>2026-04-11T12:50:13.724Z</time></trkpt><trkpt lat="44.598191" lon="7.939198"><ele>373.0</ele><time>2026-04-11T12:50:15.724Z</time></trkpt><trkpt lat="44.5982032" lon="7.9390757"><ele>373.0</ele><time>2026-04-11T12:50:17.724Z</time></trkpt><trkpt lat="44.5982212" lon="7.9389792"><ele>373.0</ele><time>2026-04-11T12:50:19.724Z</time></trkpt><trkpt lat="44.5982394" lon="7.9388867"><ele>374.5</ele><time>2026-04-11T12:50:21.724Z</time></trkpt><trkpt lat="44.5982536" lon="7.9387967"><ele>376.0</ele><time>2026-04-11T12:50:23.724Z</time></trkpt><trkpt lat="44.5982684" lon="7.9387018"><ele>377.5</ele><time>2026-04-11T12:50:25.724Z</time></trkpt><trkpt lat="44.5982781" lon="7.938609"><ele>379.0</ele><time>2026-04-11T12:50:27.724Z</time></trkpt><trkpt lat="44.5982723" lon="7.9384679"><ele>380.5</ele><time>2026-04-11T12:50:30.724Z</time></trkpt><trkpt lat="44.5982536" lon="7.9383361"><ele>382.0</ele><time>2026-04-11T12:50:33.724Z</time></trkpt><trkpt lat="44.5982423" lon="7.9382239"><ele>383.16666666666663</ele><time>2026-04-11T12:50:35.724Z</time></trkpt><trkpt lat="44.598233" lon="7.9380915"><ele>384.3333333333333</ele><time>2026-04-11T12:50:38.725Z</time></trkpt><trkpt lat="44.5982174" lon="7.9379928"><ele>385.5</ele><time>2026-04-11T12:50:40.725Z</time></trkpt><trkpt lat="44.5982131" lon="7.9378979"><ele>386.66666666666663</ele><time>2026-04-11T12:50:42.725Z</time></trkpt><trkpt lat="44.5981673" lon="7.9377748"><ele>387.8333333333333</ele><time>2026-04-11T12:50:44.725Z</time></trkpt><trkpt lat="44.5981213" lon="7.9376678"><ele>389.0</ele><time>2026-04-11T12:50:46.725Z</time></trkpt><trkpt lat="44.5980724" lon="7.9375561"><ele>389.2</ele><time>2026-04-11T12:50:48.725Z</time></trkpt><trkpt lat="44.5980107" lon="7.9374504"><ele>389.4</ele><time>2026-04-11T12:50:50.725Z</time></trkpt><trkpt lat="44.5979458" lon="7.9373461"><ele>389.6</ele><time>2026-04-11T12:50:52.726Z</time></trkpt><trkpt lat="44.5978823" lon="7.9372232"><ele>389.8</ele><time>2026-04-11T12:50:54.725Z</time></trkpt><trkpt lat="44.5978093" lon="7.9371364"><ele>390.0</ele><time>2026-04-11T12:50:56.725Z</time></trkpt><trkpt lat="44.5977485" lon="7.9370876"><ele>389.1666666666667</ele><time>2026-04-11T12:50:58.725Z</time></trkpt><trkpt lat="44.5976945" lon="7.9370213"><ele>388.33333333333337</ele><time>2026-04-11T12:51:00.725Z</time></trkpt><trkpt lat="44.5976386" lon="7.9369353"><ele>387.5</ele><time>2026-04-11T12:51:02.725Z</time></trkpt><trkpt lat="44.5975997" lon="7.9368421"><ele>386.6666666666667</ele><time>2026-04-11T12:51:05.725Z</time></trkpt><trkpt lat="44.5975466" lon="7.9367524"><ele>385.83333333333337</ele><time>2026-04-11T12:51:08.725Z</time></trkpt><trkpt lat="44.5974781" lon="7.9366835"><ele>385.0</ele><time>2026-04-11T12:51:12.725Z</time></trkpt><trkpt lat="44.5974278" lon="7.9365896"><ele>387.00000000000006</ele><time>2026-04-11T12:51:16.725Z</time></trkpt><trkpt lat="44.5973648" lon="7.9365086"><ele>389.0</ele><time>2026-04-11T12:51:19.725Z</time></trkpt><trkpt lat="44.5973138" lon="7.9364246"><ele>391.0</ele><time>2026-04-11T12:51:22.725Z</time></trkpt><trkpt lat="44.5972571" lon="7.9363511"><ele>393.0</ele><time>2026-04-11T12:51:25.725Z</time></trkpt><trkpt lat="44.5972016" lon="7.9363068"><ele>395.00000000000006</ele><time>2026-04-11T12:51:27.725Z</time></trkpt><trkpt lat="44.5971251" lon="7.9362479"><ele>397.0</ele><time>2026-04-11T12:51:30.725Z</time></trkpt><trkpt lat="44.5970501" lon="7.9361841"><ele>395.8</ele><time>2026-04-11T12:51:33.725Z</time></trkpt><trkpt lat="44.5969944" lon="7.9361016"><ele>394.6</ele><time>2026-04-11T12:51:35.725Z</time></trkpt><trkpt lat="44.5969314" lon="7.9360183"><ele>393.40000000000003</ele><time>2026-04-11T12:51:37.726Z</time></trkpt><trkpt lat="44.5968398" lon="7.9359615"><ele>392.20000000000005</ele><time>2026-04-11T12:51:39.725Z</time></trkpt><trkpt lat="44.5967369" lon="7.9359187"><ele>391.0</ele><time>2026-04-11T12:51:41.725Z</time></trkpt><trkpt lat="44.5966336" lon="7.9358964"><ele>391.00000000000006</ele><time>2026-04-11T12:51:43.725Z</time></trkpt><trkpt lat="44.5965328" lon="7.9358953"><ele>391.0</ele><time>2026-04-11T12:51:45.725Z</time></trkpt><trkpt lat="44.5964513" lon="7.935909"><ele>391.0</ele><time>2026-04-11T12:51:47.725Z</time></trkpt><trkpt lat="44.5963662" lon="7.9359213"><ele>391.0</ele><time>2026-04-11T12:51:49.725Z</time></trkpt><trkpt lat="44.5963003" lon="7.9359294"><ele>391.00000000000006</ele><time>2026-04-11T12:51:51.726Z</time></trkpt><trkpt lat="44.5962374" lon="7.935948"><ele>391.0</ele><time>2026-04-11T12:51:53.725Z</time></trkpt><trkpt lat="44.5961501" lon="7.9359712"><ele>393.33333333333337</ele><time>2026-04-11T12:51:56.725Z</time></trkpt><trkpt lat="44.5960682" lon="7.9359939"><ele>395.6666666666667</ele><time>2026-04-11T12:51:59.725Z</time></trkpt><trkpt lat="44.596001" lon="7.9360139"><ele>398.0</ele><time>2026-04-11T12:52:02.725Z</time></trkpt><trkpt lat="44.5959195" lon="7.936035"><ele>400.33333333333337</ele><time>2026-04-11T12:52:06.732Z</time></trkpt><trkpt lat="44.5958479" lon="7.9360433"><ele>402.6666666666667</ele><time>2026-04-11T12:52:09.731Z</time></trkpt><trkpt lat="44.595779" lon="7.9360681"><ele>405.0</ele><time>2026-04-11T12:52:13.731Z</time></trkpt><trkpt lat="44.5957009" lon="7.9360936"><ele>404.99999999999994</ele><time>2026-04-11T12:52:17.731Z</time></trkpt><trkpt lat="44.5956272" lon="7.9360806"><ele>405.0</ele><time>2026-04-11T12:52:20.731Z</time></trkpt><trkpt lat="44.5955641" lon="7.93611"><ele>405.0</ele><time>2026-04-11T12:52:23.731Z</time></trkpt><trkpt lat="44.5954967" lon="7.9361384"><ele>405.0</ele><time>2026-04-11T12:52:26.731Z</time></trkpt><trkpt lat="44.5954327" lon="7.9361524"><ele>405.0</ele><time>2026-04-11T12:52:29.731Z</time></trkpt><trkpt lat="44.5953697" lon="7.9361751"><ele>404.99999999999994</ele><time>2026-04-11T12:52:33.731Z</time></trkpt><trkpt lat="44.5952974" lon="7.9361831"><ele>405.0</ele><time>2026-04-11T12:52:37.731Z</time></trkpt><trkpt lat="44.5952229" lon="7.93618"><ele>406.8333333333333</ele><time>2026-04-11T12:52:41.731Z</time></trkpt><trkpt lat="44.595162" lon="7.9361451"><ele>408.66666666666663</ele><time>2026-04-11T12:52:44.731Z</time></trkpt><trkpt lat="44.5951058" lon="7.9360807"><ele>410.5</ele><time>2026-04-11T12:52:48.731Z</time></trkpt><trkpt lat="44.5950499" lon="7.9360287"><ele>412.3333333333333</ele><time>2026-04-11T12:52:52.731Z</time></trkpt><trkpt lat="44.5949918" lon="7.9359236"><ele>414.16666666666663</ele><time>2026-04-11T12:52:56.731Z</time></trkpt><trkpt lat="44.59492" lon="7.9358884"><ele>416.0</ele><time>2026-04-11T12:52:59.731Z</time></trkpt><trkpt lat="44.5949084" lon="7.9357737"><ele>416.99999999999994</ele><time>2026-04-11T12:53:03.731Z</time></trkpt><trkpt lat="44.5948566" lon="7.9356979"><ele>418.0</ele><time>2026-04-11T12:53:06.731Z</time></trkpt><trkpt lat="44.5948009" lon="7.9356084"><ele>419.0</ele><time>2026-04-11T12:53:10.732Z</time></trkpt><trkpt lat="44.5947441" lon="7.9355459"><ele>420.0</ele><time>2026-04-11T12:53:13.731Z</time></trkpt><trkpt lat="44.5947026" lon="7.9354472"><ele>420.99999999999994</ele><time>2026-04-11T12:53:17.731Z</time></trkpt><trkpt lat="44.5946475" lon="7.9353662"><ele>422.0</ele><time>2026-04-11T12:53:21.731Z</time></trkpt><trkpt lat="44.5945869" lon="7.9353201"><ele>422.0</ele><time>2026-04-11T12:53:24.731Z</time></trkpt><trkpt lat="44.5945402" lon="7.9352252"><ele>422.0</ele><time>2026-04-11T12:53:27.731Z</time></trkpt><trkpt lat="44.594499" lon="7.9351456"><ele>422.0</ele><time>2026-04-11T12:53:31.731Z</time></trkpt><trkpt lat="44.5944471" lon="7.9350857"><ele>422.0</ele><time>2026-04-11T12:53:33.731Z</time></trkpt><trkpt lat="44.5943932" lon="7.9350154"><ele>422.0</ele><time>2026-04-11T12:53:35.731Z</time></trkpt><trkpt lat="44.5943394" lon="7.9349235"><ele>422.0</ele><time>2026-04-11T12:53:38.731Z</time></trkpt><trkpt lat="44.5942892" lon="7.9348586"><ele>422.0</ele><time>2026-04-11T12:53:41.731Z</time></trkpt><trkpt lat="44.594244" lon="7.9347897"><ele>421.8333333333333</ele><time>2026-04-11T12:53:44.731Z</time></trkpt><trkpt lat="44.594186" lon="7.9347307"><ele>421.66666666666663</ele><time>2026-04-11T12:53:48.731Z</time></trkpt><trkpt lat="44.5941351" lon="7.9346465"><ele>421.5</ele><time>2026-04-11T12:53:51.731Z</time></trkpt><trkpt lat="44.5940991" lon="7.9345571"><ele>421.33333333333337</ele><time>2026-04-11T12:53:54.731Z</time></trkpt><trkpt lat="44.5940401" lon="7.9344753"><ele>421.1666666666667</ele><time>2026-04-11T12:53:58.731Z</time></trkpt><trkpt lat="44.5939974" lon="7.9343768"><ele>421.0</ele><time>2026-04-11T12:54:02.731Z</time></trkpt><trkpt lat="44.5939743" lon="7.9342638"><ele>423.83333333333337</ele><time>2026-04-11T12:54:06.731Z</time></trkpt><trkpt lat="44.5939452" lon="7.93415"><ele>426.6666666666667</ele><time>2026-04-11T12:54:09.731Z</time></trkpt><trkpt lat="44.5938848" lon="7.9340839"><ele>429.5</ele><time>2026-04-11T12:54:13.731Z</time></trkpt><trkpt lat="44.5938469" lon="7.9339879"><ele>432.33333333333337</ele><time>2026-04-11T12:54:16.731Z</time></trkpt><trkpt lat="44.593833" lon="7.9338748"><ele>435.1666666666667</ele><time>2026-04-11T12:54:19.731Z</time></trkpt><trkpt lat="44.5938204" lon="7.9337707"><ele>438.0</ele><time>2026-04-11T12:54:22.731Z</time></trkpt><trkpt lat="44.5937873" lon="7.9336561"><ele>438.0</ele><time>2026-04-11T12:54:25.731Z</time></trkpt><trkpt lat="44.5937818" lon="7.9335636"><ele>438.0</ele><time>2026-04-11T12:54:27.731Z</time></trkpt><trkpt lat="44.5937685" lon="7.9334665"><ele>438.0</ele><time>2026-04-11T12:54:29.731Z</time></trkpt><trkpt lat="44.5937372" lon="7.933385"><ele>438.0</ele><time>2026-04-11T12:54:31.732Z</time></trkpt><trkpt lat="44.5937079" lon="7.9332892"><ele>438.0</ele><time>2026-04-11T12:54:33.731Z</time></trkpt><trkpt lat="44.5936821" lon="7.9331925"><ele>438.0</ele><time>2026-04-11T12:54:35.731Z</time></trkpt><trkpt lat="44.5936587" lon="7.9330852"><ele>438.0</ele><time>2026-04-11T12:54:37.731Z</time></trkpt><trkpt lat="44.5936307" lon="7.9329621"><ele>435.59999999999997</ele><time>2026-04-11T12:54:39.731Z</time></trkpt><trkpt lat="44.5936" lon="7.9328252"><ele>433.19999999999993</ele><time>2026-04-11T12:54:41.731Z</time></trkpt><trkpt lat="44.593581" lon="7.932672"><ele>430.8</ele><time>2026-04-11T12:54:43.731Z</time></trkpt><trkpt lat="44.59354" lon="7.9325403"><ele>428.4</ele><time>2026-04-11T12:54:45.731Z</time></trkpt><trkpt lat="44.5935125" lon="7.9324036"><ele>426.0</ele><time>2026-04-11T12:54:47.731Z</time></trkpt><trkpt lat="44.5934749" lon="7.9322386"><ele>426.0</ele><time>2026-04-11T12:54:49.731Z</time></trkpt><trkpt lat="44.5934444" lon="7.9320821"><ele>426.0</ele><time>2026-04-11T12:54:51.731Z</time></trkpt><trkpt lat="44.5934313" lon="7.931964"><ele>426.0</ele><time>2026-04-11T12:54:53.731Z</time></trkpt><trkpt lat="44.5934173" lon="7.9318495"><ele>426.0</ele><time>2026-04-11T12:54:55.731Z</time></trkpt><trkpt lat="44.5934099" lon="7.9317275"><ele>426.0</ele><time>2026-04-11T12:54:57.731Z</time></trkpt><trkpt lat="44.5934032" lon="7.9316243"><ele>426.0</ele><time>2026-04-11T12:54:59.731Z</time></trkpt><trkpt lat="44.5934213" lon="7.9315017"><ele>426.99999999999994</ele><time>2026-04-11T12:55:01.731Z</time></trkpt><trkpt lat="44.593409" lon="7.9313956"><ele>428.0</ele><time>2026-04-11T12:55:03.731Z</time></trkpt><trkpt lat="44.5933816" lon="7.9312925"><ele>429.0</ele><time>2026-04-11T12:55:06.731Z</time></trkpt><trkpt lat="44.5933596" lon="7.931199"><ele>430.0</ele><time>2026-04-11T12:55:09.731Z</time></trkpt><trkpt lat="44.593362" lon="7.9311028"><ele>431.0</ele><time>2026-04-11T12:55:12.731Z</time></trkpt><trkpt lat="44.593349" lon="7.9309897"><ele>431.99999999999994</ele><time>2026-04-11T12:55:15.731Z</time></trkpt><trkpt lat="44.5933289" lon="7.9309058"><ele>433.0</ele><time>2026-04-11T12:55:17.731Z</time></trkpt><trkpt lat="44.5933069" lon="7.9308097"><ele>434.71428571428567</ele><time>2026-04-11T12:55:20.731Z</time></trkpt><trkpt lat="44.5932782" lon="7.9307222"><ele>436.42857142857144</ele><time>2026-04-11T12:55:23.731Z</time></trkpt><trkpt lat="44.5932557" lon="7.9306088"><ele>438.1428571428571</ele><time>2026-04-11T12:55:27.731Z</time></trkpt><trkpt lat="44.5932345" lon="7.930513"><ele>439.85714285714283</ele><time>2026-04-11T12:55:30.731Z</time></trkpt><trkpt lat="44.5931857" lon="7.9304201"><ele>441.57142857142856</ele><time>2026-04-11T12:55:34.732Z</time></trkpt><trkpt lat="44.5931849" lon="7.9303109"><ele>443.2857142857143</ele><time>2026-04-11T12:55:38.732Z</time></trkpt><trkpt lat="44.5931526" lon="7.9302348"><ele>445.0</ele><time>2026-04-11T12:55:41.732Z</time></trkpt><trkpt lat="44.5931099" lon="7.9301525"><ele>445.0</ele><time>2026-04-11T12:55:44.732Z</time></trkpt><trkpt lat="44.5930741" lon="7.9300653"><ele>445.0</ele><time>2026-04-11T12:55:48.732Z</time></trkpt><trkpt lat="44.5930259" lon="7.9299969"><ele>445.0</ele><time>2026-04-11T12:55:52.732Z</time></trkpt><trkpt lat="44.5929757" lon="7.9299368"><ele>445.0</ele><time>2026-04-11T12:55:56.732Z</time></trkpt><trkpt lat="44.5929192" lon="7.929875"><ele>445.0</ele><time>2026-04-11T12:56:00.732Z</time></trkpt><trkpt lat="44.5928669" lon="7.9298076"><ele>445.0</ele><time>2026-04-11T12:56:04.732Z</time></trkpt><trkpt lat="44.5928125" lon="7.9297401"><ele>445.0</ele><time>2026-04-11T12:56:08.732Z</time></trkpt><trkpt lat="44.5927595" lon="7.9296792"><ele>444.5714285714286</ele><time>2026-04-11T12:56:12.732Z</time></trkpt><trkpt lat="44.5927054" lon="7.9296098"><ele>444.1428571428571</ele><time>2026-04-11T12:56:16.732Z</time></trkpt><trkpt lat="44.5926521" lon="7.9295429"><ele>443.7142857142857</ele><time>2026-04-11T12:56:20.732Z</time></trkpt><trkpt lat="44.5925959" lon="7.9294732"><ele>443.28571428571433</ele><time>2026-04-11T12:56:24.732Z</time></trkpt><trkpt lat="44.5925507" lon="7.9293993"><ele>442.8571428571429</ele><time>2026-04-11T12:56:28.732Z</time></trkpt><trkpt lat="44.592527" lon="7.9293165"><ele>442.42857142857144</ele><time>2026-04-11T12:56:32.732Z</time></trkpt><trkpt lat="44.5924887" lon="7.9292387"><ele>442.0</ele><time>2026-04-11T12:56:36.732Z</time></trkpt><trkpt lat="44.5924677" lon="7.9291524"><ele>444.14285714285717</ele><time>2026-04-11T12:56:40.733Z</time></trkpt><trkpt lat="44.5924205" lon="7.9290875"><ele>446.28571428571433</ele><time>2026-04-11T12:56:44.732Z</time></trkpt><trkpt lat="44.5923678" lon="7.9290087"><ele>448.42857142857144</ele><time>2026-04-11T12:56:49.732Z</time></trkpt><trkpt lat="44.5923055" lon="7.9289513"><ele>450.5714285714286</ele><time>2026-04-11T12:56:54.732Z</time></trkpt><trkpt lat="44.5922427" lon="7.9289139"><ele>452.7142857142857</ele><time>2026-04-11T12:56:57.732Z</time></trkpt><trkpt lat="44.5921717" lon="7.9288849"><ele>454.85714285714295</ele><time>2026-04-11T12:57:02.732Z</time></trkpt><trkpt lat="44.5921139" lon="7.9288221"><ele>457.00000000000006</ele><time>2026-04-11T12:57:07.732Z</time></trkpt><trkpt lat="44.5920592" lon="7.9287519"><ele>456.28571428571433</ele><time>2026-04-11T12:57:11.732Z</time></trkpt><trkpt lat="44.5919796" lon="7.9287206"><ele>455.57142857142856</ele><time>2026-04-11T12:57:14.732Z</time></trkpt><trkpt lat="44.5919108" lon="7.9287075"><ele>454.8571428571429</ele><time>2026-04-11T12:57:16.732Z</time></trkpt><trkpt lat="44.5918431" lon="7.9286843"><ele>454.14285714285717</ele><time>2026-04-11T12:57:18.732Z</time></trkpt><trkpt lat="44.591773" lon="7.9286466"><ele>453.42857142857144</ele><time>2026-04-11T12:57:20.732Z</time></trkpt><trkpt lat="44.5917042" lon="7.9286363"><ele>452.7142857142857</ele><time>2026-04-11T12:57:22.732Z</time></trkpt><trkpt lat="44.5916355" lon="7.9286146"><ele>452.0</ele><time>2026-04-11T12:57:24.732Z</time></trkpt><trkpt lat="44.5915737" lon="7.9285931"><ele>452.0</ele><time>2026-04-11T12:57:26.732Z</time></trkpt><trkpt lat="44.5915002" lon="7.9285617"><ele>452.0</ele><time>2026-04-11T12:57:28.732Z</time></trkpt><trkpt lat="44.5914319" lon="7.9285372"><ele>452.0</ele><time>2026-04-11T12:57:30.732Z</time></trkpt><trkpt lat="44.5913521" lon="7.9284986"><ele>452.0</ele><time>2026-04-11T12:57:32.732Z</time></trkpt><trkpt lat="44.5912695" lon="7.9284943"><ele>452.0</ele><time>2026-04-11T12:57:34.732Z</time></trkpt><trkpt lat="44.5912031" lon="7.9284815"><ele>452.0</ele><time>2026-04-11T12:57:36.732Z</time></trkpt><trkpt lat="44.5911393" lon="7.9284531"><ele>452.0</ele><time>2026-04-11T12:57:38.732Z</time></trkpt><trkpt lat="44.5910733" lon="7.9284249"><ele>450.8571428571429</ele><time>2026-04-11T12:57:40.732Z</time></trkpt><trkpt lat="44.59101" lon="7.9284006"><ele>449.71428571428567</ele><time>2026-04-11T12:57:42.732Z</time></trkpt><trkpt lat="44.5909176" lon="7.9283624"><ele>448.57142857142856</ele><time>2026-04-11T12:57:45.732Z</time></trkpt><trkpt lat="44.5908446" lon="7.9283504"><ele>447.42857142857144</ele><time>2026-04-11T12:57:47.732Z</time></trkpt><trkpt lat="44.5907743" lon="7.9283245"><ele>446.28571428571433</ele><time>2026-04-11T12:57:49.733Z</time></trkpt><trkpt lat="44.5907077" lon="7.9283203"><ele>445.1428571428571</ele><time>2026-04-11T12:57:51.732Z</time></trkpt><trkpt lat="44.5906597" lon="7.9282589"><ele>444.0</ele><time>2026-04-11T12:57:54.732Z</time></trkpt><trkpt lat="44.5907294" lon="7.9282575"><ele>446.85714285714283</ele><time>2026-04-11T12:57:57.732Z</time></trkpt><trkpt lat="44.5906984" lon="7.9281726"><ele>449.7142857142858</ele><time>2026-04-11T13:00:13.738Z</time></trkpt><trkpt lat="44.5907599" lon="7.9281945"><ele>452.5714285714286</ele><time>2026-04-11T13:01:00.738Z</time></trkpt><trkpt lat="44.5907006" lon="7.9282346"><ele>455.42857142857144</ele><time>2026-04-11T13:01:27.738Z</time></trkpt><trkpt lat="44.5906185" lon="7.9282416"><ele>458.28571428571433</ele><time>2026-04-11T13:01:31.738Z</time></trkpt><trkpt lat="44.5905463" lon="7.9282283"><ele>461.1428571428572</ele><time>2026-04-11T13:01:35.738Z</time></trkpt><trkpt lat="44.5904786" lon="7.9282298"><ele>464.00000000000006</ele><time>2026-04-11T13:01:38.738Z</time></trkpt><trkpt lat="44.5904145" lon="7.9282374"><ele>463.8333333333333</ele><time>2026-04-11T13:01:41.738Z</time></trkpt><trkpt lat="44.5903315" lon="7.9282124"><ele>463.66666666666663</ele><time>2026-04-11T13:01:46.738Z</time></trkpt><trkpt lat="44.5902432" lon="7.9281558"><ele>463.5</ele><time>2026-04-11T13:01:49.738Z</time></trkpt><trkpt lat="44.5901683" lon="7.928139"><ele>463.33333333333337</ele><time>2026-04-11T13:01:52.738Z</time></trkpt><trkpt lat="44.5900951" lon="7.9281162"><ele>463.1666666666667</ele><time>2026-04-11T13:01:55.738Z</time></trkpt><trkpt lat="44.590037" lon="7.9280818"><ele>463.0</ele><time>2026-04-11T13:01:58.738Z</time></trkpt><trkpt lat="44.5899814" lon="7.9280262"><ele>463.0</ele><time>2026-04-11T13:02:01.738Z</time></trkpt><trkpt lat="44.5899446" lon="7.9279478"><ele>462.99999999999994</ele><time>2026-04-11T13:02:04.738Z</time></trkpt><trkpt lat="44.5900066" lon="7.9279181"><ele>463.0</ele><time>2026-04-11T13:02:10.738Z</time></trkpt><trkpt lat="44.5899319" lon="7.9279035"><ele>463.0</ele><time>2026-04-11T13:02:24.738Z</time></trkpt><trkpt lat="44.589866" lon="7.9279262"><ele>462.99999999999994</ele><time>2026-04-11T13:02:26.738Z</time></trkpt><trkpt lat="44.5898084" lon="7.9278753"><ele>463.0</ele><time>2026-04-11T13:02:29.738Z</time></trkpt><trkpt lat="44.5897416" lon="7.927805"><ele>463.0</ele><time>2026-04-11T13:02:31.738Z</time></trkpt><trkpt lat="44.5896717" lon="7.9277378"><ele>463.00000000000006</ele><time>2026-04-11T13:02:33.738Z</time></trkpt><trkpt lat="44.5895818" lon="7.9276951"><ele>463.0</ele><time>2026-04-11T13:02:35.738Z</time></trkpt><trkpt lat="44.5894958" lon="7.92768"><ele>463.0</ele><time>2026-04-11T13:02:37.738Z</time></trkpt><trkpt lat="44.589409" lon="7.9276221"><ele>463.0</ele><time>2026-04-11T13:02:39.738Z</time></trkpt><trkpt lat="44.5893336" lon="7.927584"><ele>463.00000000000006</ele><time>2026-04-11T13:02:41.738Z</time></trkpt><trkpt lat="44.589259" lon="7.9275451"><ele>463.0</ele><time>2026-04-11T13:02:43.738Z</time></trkpt><trkpt lat="44.5892016" lon="7.927503"><ele>464.2</ele><time>2026-04-11T13:02:45.738Z</time></trkpt><trkpt lat="44.5891153" lon="7.9274485"><ele>465.4</ele><time>2026-04-11T13:02:47.738Z</time></trkpt><trkpt lat="44.5890386" lon="7.9274179"><ele>466.59999999999997</ele><time>2026-04-11T13:02:49.738Z</time></trkpt><trkpt lat="44.5889437" lon="7.9274041"><ele>467.79999999999995</ele><time>2026-04-11T13:02:51.738Z</time></trkpt><trkpt lat="44.5888427" lon="7.9273966"><ele>469.0</ele><time>2026-04-11T13:02:53.738Z</time></trkpt><trkpt lat="44.5887061" lon="7.9274535"><ele>469.00000000000006</ele><time>2026-04-11T13:02:55.738Z</time></trkpt><trkpt lat="44.5885988" lon="7.9275178"><ele>469.0</ele><time>2026-04-11T13:02:57.738Z</time></trkpt><trkpt lat="44.5885149" lon="7.9275529"><ele>469.0</ele><time>2026-04-11T13:02:59.738Z</time></trkpt><trkpt lat="44.588437" lon="7.9275774"><ele>469.0</ele><time>2026-04-11T13:03:02.738Z</time></trkpt><trkpt lat="44.5883631" lon="7.9275478"><ele>469.00000000000006</ele><time>2026-04-11T13:03:05.738Z</time></trkpt><trkpt lat="44.5882938" lon="7.9275624"><ele>469.0</ele><time>2026-04-11T13:03:10.738Z</time></trkpt><trkpt lat="44.5882097" lon="7.9275728"><ele>469.0</ele><time>2026-04-11T13:03:14.738Z</time></trkpt><trkpt lat="44.5881904" lon="7.9274696"><ele>469.0</ele><time>2026-04-11T13:03:18.738Z</time></trkpt><trkpt lat="44.5881971" lon="7.9273428"><ele>469.0</ele><time>2026-04-11T13:03:20.738Z</time></trkpt><trkpt lat="44.5881663" lon="7.9272001"><ele>469.0</ele><time>2026-04-11T13:03:22.738Z</time></trkpt><trkpt lat="44.5880998" lon="7.9270962"><ele>469.0</ele><time>2026-04-11T13:03:24.738Z</time></trkpt><trkpt lat="44.5880758" lon="7.9269577"><ele>469.00000000000006</ele><time>2026-04-11T13:03:39.738Z</time></trkpt><trkpt lat="44.5880354" lon="7.9268799"><ele>469.0</ele><time>2026-04-11T13:03:48.738Z</time></trkpt><trkpt lat="44.5879659" lon="7.9268935"><ele>469.0</ele><time>2026-04-11T13:03:50.738Z</time></trkpt><trkpt lat="44.5878694" lon="7.9269701"><ele>469.0</ele><time>2026-04-11T13:03:52.738Z</time></trkpt><trkpt lat="44.5877757" lon="7.9270114"><ele>469.00000000000006</ele><time>2026-04-11T13:03:54.738Z</time></trkpt><trkpt lat="44.5876909" lon="7.927017"><ele>469.0</ele><time>2026-04-11T13:03:56.738Z</time></trkpt><trkpt lat="44.5876424" lon="7.9269552"><ele>469.0</ele><time>2026-04-11T13:03:58.738Z</time></trkpt><trkpt lat="44.5876773" lon="7.9268574"><ele>469.0</ele><time>2026-04-11T13:04:00.738Z</time></trkpt><trkpt lat="44.5877862" lon="7.9267735"><ele>469.0</ele><time>2026-04-11T13:04:02.738Z</time></trkpt><trkpt lat="44.5878547" lon="7.926765"><ele>469.0</ele><time>2026-04-11T13:04:03.738Z</time></trkpt><trkpt lat="44.587995" lon="7.9267448"><ele>469.0</ele><time>2026-04-11T13:04:05.738Z</time></trkpt><trkpt lat="44.5880849" lon="7.9267172"><ele>466.4</ele><time>2026-04-11T13:04:06.738Z</time></trkpt><trkpt lat="44.5881911" lon="7.9266917"><ele>463.79999999999995</ele><time>2026-04-11T13:04:07.738Z</time></trkpt><trkpt lat="44.5882621" lon="7.9266464"><ele>461.20000000000005</ele><time>2026-04-11T13:04:08.738Z</time></trkpt><trkpt lat="44.5883317" lon="7.9265808"><ele>458.6</ele><time>2026-04-11T13:04:11.738Z</time></trkpt><trkpt lat="44.5883915" lon="7.9265203"><ele>456.0</ele><time>2026-04-11T13:04:15.738Z</time></trkpt><trkpt lat="44.5884934" lon="7.926456"><ele>456.0</ele><time>2026-04-11T13:04:17.738Z</time></trkpt><trkpt lat="44.5885987" lon="7.9263614"><ele>456.0</ele><time>2026-04-11T13:04:19.738Z</time></trkpt><trkpt lat="44.5886843" lon="7.9263099"><ele>456.0</ele><time>2026-04-11T13:04:20.738Z</time></trkpt><trkpt lat="44.5887639" lon="7.9262469"><ele>456.0</ele><time>2026-04-11T13:04:21.738Z</time></trkpt><trkpt lat="44.5888432" lon="7.9261886"><ele>456.0</ele><time>2026-04-11T13:04:22.738Z</time></trkpt><trkpt lat="44.5889209" lon="7.9261343"><ele>456.0</ele><time>2026-04-11T13:04:23.738Z</time></trkpt><trkpt lat="44.5890051" lon="7.9260973"><ele>456.0</ele><time>2026-04-11T13:04:24.738Z</time></trkpt><trkpt lat="44.589089" lon="7.9260733"><ele>456.0</ele><time>2026-04-11T13:04:25.738Z</time></trkpt><trkpt lat="44.5891839" lon="7.9260592"><ele>456.0</ele><time>2026-04-11T13:04:26.738Z</time></trkpt><trkpt lat="44.5892613" lon="7.9260366"><ele>456.0</ele><time>2026-04-11T13:04:27.738Z</time></trkpt><trkpt lat="44.5893241" lon="7.925995"><ele>456.0</ele><time>2026-04-11T13:04:28.738Z</time></trkpt><trkpt lat="44.5894109" lon="7.925969"><ele>454.6</ele><time>2026-04-11T13:04:29.739Z</time></trkpt><trkpt lat="44.5895185" lon="7.92595"><ele>453.20000000000005</ele><time>2026-04-11T13:04:30.739Z</time></trkpt><trkpt lat="44.5896206" lon="7.9259134"><ele>451.79999999999995</ele><time>2026-04-11T13:04:31.74Z</time></trkpt><trkpt lat="44.5897218" lon="7.9258908"><ele>450.4</ele><time>2026-04-11T13:04:32.739Z</time></trkpt><trkpt lat="44.5898279" lon="7.9258758"><ele>449.0</ele><time>2026-04-11T13:04:33.739Z</time></trkpt><trkpt lat="44.5899259" lon="7.9258577"><ele>446.0</ele><time>2026-04-11T13:04:34.739Z</time></trkpt><trkpt lat="44.5900038" lon="7.9258444"><ele>443.0</ele><time>2026-04-11T13:04:35.74Z</time></trkpt><trkpt lat="44.590094" lon="7.9257673"><ele>440.0</ele><time>2026-04-11T13:04:37.739Z</time></trkpt><trkpt lat="44.590108" lon="7.9255707"><ele>437.0</ele><time>2026-04-11T13:04:39.739Z</time></trkpt><trkpt lat="44.5900976" lon="7.9254597"><ele>434.0</ele><time>2026-04-11T13:04:40.739Z</time></trkpt><trkpt lat="44.5900881" lon="7.9253168"><ele>434.0</ele><time>2026-04-11T13:04:41.739Z</time></trkpt><trkpt lat="44.5900811" lon="7.9251651"><ele>434.0</ele><time>2026-04-11T13:04:42.739Z</time></trkpt><trkpt lat="44.5900858" lon="7.9250272"><ele>434.0</ele><time>2026-04-11T13:04:43.739Z</time></trkpt><trkpt lat="44.5900852" lon="7.9249017"><ele>434.0</ele><time>2026-04-11T13:04:44.739Z</time></trkpt><trkpt lat="44.5900741" lon="7.9247972"><ele>434.0</ele><time>2026-04-11T13:04:45.74Z</time></trkpt><trkpt lat="44.5900749" lon="7.9246585"><ele>432.4</ele><time>2026-04-11T13:04:46.739Z</time></trkpt><trkpt lat="44.5900887" lon="7.9245114"><ele>430.79999999999995</ele><time>2026-04-11T13:04:47.739Z</time></trkpt><trkpt lat="44.5900963" lon="7.9243619"><ele>429.20000000000005</ele><time>2026-04-11T13:04:48.739Z</time></trkpt><trkpt lat="44.5901091" lon="7.9242313"><ele>427.6</ele><time>2026-04-11T13:04:49.739Z</time></trkpt><trkpt lat="44.5900997" lon="7.9241191"><ele>426.0</ele><time>2026-04-11T13:04:50.739Z</time></trkpt><trkpt lat="44.5900863" lon="7.9240058"><ele>424.0</ele><time>2026-04-11T13:04:51.739Z</time></trkpt><trkpt lat="44.5900791" lon="7.9238784"><ele>422.0</ele><time>2026-04-11T13:04:52.739Z</time></trkpt><trkpt lat="44.590074" lon="7.9237303"><ele>420.0</ele><time>2026-04-11T13:04:53.739Z</time></trkpt><trkpt lat="44.590081" lon="7.9235694"><ele>418.0</ele><time>2026-04-11T13:04:54.739Z</time></trkpt><trkpt lat="44.590075" lon="7.9234066"><ele>416.0</ele><time>2026-04-11T13:04:55.739Z</time></trkpt><trkpt lat="44.5900653" lon="7.9232277"><ele>413.75</ele><time>2026-04-11T13:04:56.739Z</time></trkpt><trkpt lat="44.5900639" lon="7.9230482"><ele>411.5</ele><time>2026-04-11T13:04:57.739Z</time></trkpt><trkpt lat="44.5900661" lon="7.9228604"><ele>409.25</ele><time>2026-04-11T13:04:58.739Z</time></trkpt><trkpt lat="44.5900765" lon="7.9226697"><ele>407.0</ele><time>2026-04-11T13:04:59.739Z</time></trkpt><trkpt lat="44.5900958" lon="7.9224746"><ele>404.75</ele><time>2026-04-11T13:05:00.739Z</time></trkpt><trkpt lat="44.5901216" lon="7.9222665"><ele>402.5</ele><time>2026-04-11T13:05:01.739Z</time></trkpt><trkpt lat="44.5901527" lon="7.9220606"><ele>400.25</ele><time>2026-04-11T13:05:02.74Z</time></trkpt><trkpt lat="44.5901791" lon="7.9218596"><ele>398.0</ele><time>2026-04-11T13:05:03.739Z</time></trkpt><trkpt lat="44.5902133" lon="7.9216406"><ele>395.3333333333333</ele><time>2026-04-11T13:05:04.739Z</time></trkpt><trkpt lat="44.5902453" lon="7.9214287"><ele>392.66666666666663</ele><time>2026-04-11T13:05:05.739Z</time></trkpt><trkpt lat="44.590268" lon="7.9212129"><ele>390.0</ele><time>2026-04-11T13:05:06.739Z</time></trkpt><trkpt lat="44.5902902" lon="7.9209982"><ele>391.33333333333337</ele><time>2026-04-11T13:05:07.739Z</time></trkpt><trkpt lat="44.5903207" lon="7.9207717"><ele>392.6666666666667</ele><time>2026-04-11T13:05:08.739Z</time></trkpt><trkpt lat="44.5903615" lon="7.9205481"><ele>394.0</ele><time>2026-04-11T13:05:09.739Z</time></trkpt><trkpt lat="44.5904172" lon="7.920326"><ele>394.0</ele><time>2026-04-11T13:05:10.739Z</time></trkpt><trkpt lat="44.5904701" lon="7.9201169"><ele>394.0</ele><time>2026-04-11T13:05:11.739Z</time></trkpt><trkpt lat="44.5905326" lon="7.9199187"><ele>394.0</ele><time>2026-04-11T13:05:12.739Z</time></trkpt><trkpt lat="44.5905947" lon="7.9197327"><ele>391.5</ele><time>2026-04-11T13:05:13.739Z</time></trkpt><trkpt lat="44.5906641" lon="7.9195555"><ele>389.0</ele><time>2026-04-11T13:05:14.739Z</time></trkpt><trkpt lat="44.5907319" lon="7.9193929"><ele>386.5</ele><time>2026-04-11T13:05:15.739Z</time></trkpt><trkpt lat="44.5908106" lon="7.9192374"><ele>384.0</ele><time>2026-04-11T13:05:16.739Z</time></trkpt><trkpt lat="44.5909099" lon="7.9191051"><ele>383.75</ele><time>2026-04-11T13:05:17.739Z</time></trkpt><trkpt lat="44.5910128" lon="7.9189822"><ele>383.5</ele><time>2026-04-11T13:05:18.739Z</time></trkpt><trkpt lat="44.5911131" lon="7.9188666"><ele>383.25</ele><time>2026-04-11T13:05:19.739Z</time></trkpt><trkpt lat="44.5912031" lon="7.9187467"><ele>383.0</ele><time>2026-04-11T13:05:20.739Z</time></trkpt><trkpt lat="44.5912906" lon="7.9186331"><ele>383.0</ele><time>2026-04-11T13:05:21.739Z</time></trkpt><trkpt lat="44.5913801" lon="7.9185181"><ele>383.0</ele><time>2026-04-11T13:05:22.739Z</time></trkpt><trkpt lat="44.5914643" lon="7.9184185"><ele>383.0</ele><time>2026-04-11T13:05:23.746Z</time></trkpt><trkpt lat="44.5915511" lon="7.9183251"><ele>383.0</ele><time>2026-04-11T13:05:24.746Z</time></trkpt><trkpt lat="44.5916326" lon="7.9182283"><ele>383.0</ele><time>2026-04-11T13:05:25.746Z</time></trkpt><trkpt lat="44.5917126" lon="7.9181346"><ele>380.4</ele><time>2026-04-11T13:05:26.746Z</time></trkpt><trkpt lat="44.5917907" lon="7.9180409"><ele>377.79999999999995</ele><time>2026-04-11T13:05:27.746Z</time></trkpt><trkpt lat="44.591863" lon="7.9179421"><ele>375.2</ele><time>2026-04-11T13:05:28.746Z</time></trkpt><trkpt lat="44.591928" lon="7.9178352"><ele>372.6</ele><time>2026-04-11T13:05:29.746Z</time></trkpt><trkpt lat="44.5919953" lon="7.9177215"><ele>370.0</ele><time>2026-04-11T13:05:30.746Z</time></trkpt><trkpt lat="44.5920506" lon="7.917607"><ele>368.8</ele><time>2026-04-11T13:05:31.746Z</time></trkpt><trkpt lat="44.5921073" lon="7.9174831"><ele>367.6</ele><time>2026-04-11T13:05:32.746Z</time></trkpt><trkpt lat="44.5921693" lon="7.9173499"><ele>366.4</ele><time>2026-04-11T13:05:33.746Z</time></trkpt><trkpt lat="44.5922165" lon="7.91723"><ele>365.2</ele><time>2026-04-11T13:05:34.746Z</time></trkpt><trkpt lat="44.5922709" lon="7.9170853"><ele>364.0</ele><time>2026-04-11T13:05:35.746Z</time></trkpt><trkpt lat="44.5923236" lon="7.916927"><ele>364.0</ele><time>2026-04-11T13:05:36.746Z</time></trkpt><trkpt lat="44.5923649" lon="7.9167614"><ele>364.0</ele><time>2026-04-11T13:05:37.746Z</time></trkpt><trkpt lat="44.5924127" lon="7.916603"><ele>364.0</ele><time>2026-04-11T13:05:38.746Z</time></trkpt><trkpt lat="44.5924505" lon="7.9164474"><ele>364.0</ele><time>2026-04-11T13:05:39.746Z</time></trkpt><trkpt lat="44.592497" lon="7.9163055"><ele>362.6</ele><time>2026-04-11T13:05:40.746Z</time></trkpt><trkpt lat="44.5925484" lon="7.9161564"><ele>361.2</ele><time>2026-04-11T13:05:41.746Z</time></trkpt><trkpt lat="44.5925994" lon="7.9160113"><ele>359.8</ele><time>2026-04-11T13:05:42.746Z</time></trkpt><trkpt lat="44.5926491" lon="7.9158735"><ele>358.40000000000003</ele><time>2026-04-11T13:05:43.746Z</time></trkpt><trkpt lat="44.5926949" lon="7.9157399"><ele>357.0</ele><time>2026-04-11T13:05:44.746Z</time></trkpt><trkpt lat="44.5927447" lon="7.9156121"><ele>356.0</ele><time>2026-04-11T13:05:45.746Z</time></trkpt><trkpt lat="44.5928028" lon="7.9154979"><ele>355.0</ele><time>2026-04-11T13:05:46.746Z</time></trkpt><trkpt lat="44.5928704" lon="7.9153863"><ele>354.0</ele><time>2026-04-11T13:05:47.746Z</time></trkpt><trkpt lat="44.592928" lon="7.9152679"><ele>353.0</ele><time>2026-04-11T13:05:48.746Z</time></trkpt><trkpt lat="44.5929759" lon="7.9151437"><ele>352.0</ele><time>2026-04-11T13:05:49.746Z</time></trkpt><trkpt lat="44.5930242" lon="7.915017"><ele>351.40000000000003</ele><time>2026-04-11T13:05:50.746Z</time></trkpt><trkpt lat="44.5930788" lon="7.9149048"><ele>350.8</ele><time>2026-04-11T13:05:51.746Z</time></trkpt><trkpt lat="44.5931489" lon="7.914791"><ele>350.2</ele><time>2026-04-11T13:05:52.746Z</time></trkpt><trkpt lat="44.5932313" lon="7.9146714"><ele>349.6</ele><time>2026-04-11T13:05:53.746Z</time></trkpt><trkpt lat="44.5933145" lon="7.9145507"><ele>349.0</ele><time>2026-04-11T13:05:54.746Z</time></trkpt><trkpt lat="44.5934066" lon="7.9144294"><ele>349.0</ele><time>2026-04-11T13:05:55.746Z</time></trkpt><trkpt lat="44.5934918" lon="7.9143034"><ele>349.0</ele><time>2026-04-11T13:05:56.746Z</time></trkpt><trkpt lat="44.5935825" lon="7.914176"><ele>349.0</ele><time>2026-04-11T13:05:57.746Z</time></trkpt><trkpt lat="44.5936825" lon="7.9140399"><ele>349.0</ele><time>2026-04-11T13:05:58.746Z</time></trkpt><trkpt lat="44.59379" lon="7.9139163"><ele>346.5</ele><time>2026-04-11T13:05:59.746Z</time></trkpt><trkpt lat="44.5938994" lon="7.9137938"><ele>344.0</ele><time>2026-04-11T13:06:00.746Z</time></trkpt><trkpt lat="44.5940078" lon="7.9136667"><ele>341.5</ele><time>2026-04-11T13:06:01.746Z</time></trkpt><trkpt lat="44.5941161" lon="7.9135399"><ele>339.0</ele><time>2026-04-11T13:06:02.747Z</time></trkpt><trkpt lat="44.5942254" lon="7.9134118"><ele>339.5</ele><time>2026-04-11T13:06:03.746Z</time></trkpt><trkpt lat="44.5943309" lon="7.9132806"><ele>340.0</ele><time>2026-04-11T13:06:04.746Z</time></trkpt><trkpt lat="44.5944252" lon="7.913141"><ele>340.5</ele><time>2026-04-11T13:06:05.746Z</time></trkpt><trkpt lat="44.594509" lon="7.9129837"><ele>341.0</ele><time>2026-04-11T13:06:06.746Z</time></trkpt><trkpt lat="44.5945852" lon="7.9128177"><ele>338.5</ele><time>2026-04-11T13:06:07.746Z</time></trkpt><trkpt lat="44.59466" lon="7.9126538"><ele>336.0</ele><time>2026-04-11T13:06:08.746Z</time></trkpt><trkpt lat="44.5947299" lon="7.9124814"><ele>333.5</ele><time>2026-04-11T13:06:09.746Z</time></trkpt><trkpt lat="44.5947867" lon="7.912311"><ele>331.0</ele><time>2026-04-11T13:06:10.746Z</time></trkpt><trkpt lat="44.5948383" lon="7.912128"><ele>331.0</ele><time>2026-04-11T13:06:11.746Z</time></trkpt><trkpt lat="44.5948905" lon="7.911952"><ele>331.0</ele><time>2026-04-11T13:06:12.746Z</time></trkpt><trkpt lat="44.5949348" lon="7.9117742"><ele>331.0</ele><time>2026-04-11T13:06:13.747Z</time></trkpt><trkpt lat="44.5949805" lon="7.9115941"><ele>331.0</ele><time>2026-04-11T13:06:14.746Z</time></trkpt><trkpt lat="44.5950303" lon="7.9114088"><ele>330.5</ele><time>2026-04-11T13:06:15.746Z</time></trkpt><trkpt lat="44.5950835" lon="7.9112342"><ele>330.0</ele><time>2026-04-11T13:06:16.747Z</time></trkpt><trkpt lat="44.5951364" lon="7.911076"><ele>329.5</ele><time>2026-04-11T13:06:17.746Z</time></trkpt><trkpt lat="44.5951853" lon="7.9109273"><ele>329.0</ele><time>2026-04-11T13:06:18.746Z</time></trkpt><trkpt lat="44.5952375" lon="7.91079"><ele>326.75</ele><time>2026-04-11T13:06:19.746Z</time></trkpt><trkpt lat="44.5953049" lon="7.9106626"><ele>324.5</ele><time>2026-04-11T13:06:20.746Z</time></trkpt><trkpt lat="44.5953834" lon="7.9105367"><ele>322.25</ele><time>2026-04-11T13:06:21.746Z</time></trkpt><trkpt lat="44.5954766" lon="7.9104063"><ele>320.0</ele><time>2026-04-11T13:06:22.746Z</time></trkpt><trkpt lat="44.5955665" lon="7.9102879"><ele>318.25</ele><time>2026-04-11T13:06:23.746Z</time></trkpt><trkpt lat="44.5956537" lon="7.9101709"><ele>316.5</ele><time>2026-04-11T13:06:24.746Z</time></trkpt><trkpt lat="44.5957326" lon="7.9100491"><ele>314.75</ele><time>2026-04-11T13:06:25.746Z</time></trkpt><trkpt lat="44.5958026" lon="7.9099192"><ele>313.0</ele><time>2026-04-11T13:06:26.746Z</time></trkpt><trkpt lat="44.5958611" lon="7.9097724"><ele>312.0</ele><time>2026-04-11T13:06:27.746Z</time></trkpt><trkpt lat="44.5959098" lon="7.9096193"><ele>311.0</ele><time>2026-04-11T13:06:28.746Z</time></trkpt><trkpt lat="44.5959441" lon="7.9094518"><ele>310.0</ele><time>2026-04-11T13:06:29.746Z</time></trkpt><trkpt lat="44.5959496" lon="7.9092721"><ele>309.0</ele><time>2026-04-11T13:06:30.746Z</time></trkpt><trkpt lat="44.5959439" lon="7.9090833"><ele>308.25</ele><time>2026-04-11T13:06:31.746Z</time></trkpt><trkpt lat="44.5959282" lon="7.9088899"><ele>307.5</ele><time>2026-04-11T13:06:32.746Z</time></trkpt><trkpt lat="44.5959108" lon="7.9086855"><ele>306.75</ele><time>2026-04-11T13:06:33.746Z</time></trkpt><trkpt lat="44.595895" lon="7.9084697"><ele>306.0</ele><time>2026-04-11T13:06:34.746Z</time></trkpt><trkpt lat="44.5958746" lon="7.9082598"><ele>304.5</ele><time>2026-04-11T13:06:35.746Z</time></trkpt><trkpt lat="44.5958598" lon="7.9080546"><ele>303.0</ele><time>2026-04-11T13:06:36.746Z</time></trkpt><trkpt lat="44.5958484" lon="7.9078487"><ele>301.5</ele><time>2026-04-11T13:06:37.746Z</time></trkpt><trkpt lat="44.5958271" lon="7.9076366"><ele>300.0</ele><time>2026-04-11T13:06:38.746Z</time></trkpt><trkpt lat="44.5958116" lon="7.907429"><ele>299.0</ele><time>2026-04-11T13:06:39.746Z</time></trkpt><trkpt lat="44.5957941" lon="7.9072255"><ele>298.0</ele><time>2026-04-11T13:06:40.746Z</time></trkpt><trkpt lat="44.5957719" lon="7.9070275"><ele>297.0</ele><time>2026-04-11T13:06:41.746Z</time></trkpt><trkpt lat="44.5957453" lon="7.9068286"><ele>296.0</ele><time>2026-04-11T13:06:42.746Z</time></trkpt><trkpt lat="44.5957057" lon="7.9066362"><ele>294.5</ele><time>2026-04-11T13:06:43.746Z</time></trkpt><trkpt lat="44.595649" lon="7.9064461"><ele>293.0</ele><time>2026-04-11T13:06:44.746Z</time></trkpt><trkpt lat="44.5955839" lon="7.906263"><ele>291.5</ele><time>2026-04-11T13:06:45.746Z</time></trkpt><trkpt lat="44.5955154" lon="7.9060918"><ele>290.0</ele><time>2026-04-11T13:06:46.746Z</time></trkpt><trkpt lat="44.5954557" lon="7.9059193"><ele>288.75</ele><time>2026-04-11T13:06:47.746Z</time></trkpt><trkpt lat="44.5954021" lon="7.9057545"><ele>287.5</ele><time>2026-04-11T13:06:48.746Z</time></trkpt><trkpt lat="44.5953568" lon="7.9055951"><ele>286.25</ele><time>2026-04-11T13:06:49.746Z</time></trkpt><trkpt lat="44.5953183" lon="7.9054362"><ele>285.0</ele><time>2026-04-11T13:06:50.746Z</time></trkpt><trkpt lat="44.5952822" lon="7.9052609"><ele>283.0</ele><time>2026-04-11T13:06:51.746Z</time></trkpt><trkpt lat="44.5952497" lon="7.9050875"><ele>281.0</ele><time>2026-04-11T13:06:52.746Z</time></trkpt><trkpt lat="44.5952153" lon="7.904915"><ele>279.0</ele><time>2026-04-11T13:06:53.746Z</time></trkpt><trkpt lat="44.5951875" lon="7.9047325"><ele>277.0</ele><time>2026-04-11T13:06:54.746Z</time></trkpt><trkpt lat="44.5951566" lon="7.9045498"><ele>275.5</ele><time>2026-04-11T13:06:55.747Z</time></trkpt><trkpt lat="44.5951172" lon="7.9043682"><ele>274.0</ele><time>2026-04-11T13:06:56.746Z</time></trkpt><trkpt lat="44.5950801" lon="7.9041797"><ele>272.5</ele><time>2026-04-11T13:06:57.746Z</time></trkpt><trkpt lat="44.5950442" lon="7.9039826"><ele>271.0</ele><time>2026-04-11T13:06:58.746Z</time></trkpt><trkpt lat="44.5950002" lon="7.9037929"><ele>269.25</ele><time>2026-04-11T13:06:59.747Z</time></trkpt><trkpt lat="44.5949646" lon="7.9036205"><ele>267.5</ele><time>2026-04-11T13:07:00.746Z</time></trkpt><trkpt lat="44.5949338" lon="7.9034617"><ele>265.75</ele><time>2026-04-11T13:07:01.746Z</time></trkpt><trkpt lat="44.5949092" lon="7.9033031"><ele>264.0</ele><time>2026-04-11T13:07:02.746Z</time></trkpt><trkpt lat="44.5948857" lon="7.9031298"><ele>263.0</ele><time>2026-04-11T13:07:03.746Z</time></trkpt><trkpt lat="44.5948618" lon="7.902968"><ele>262.0</ele><time>2026-04-11T13:07:04.746Z</time></trkpt><trkpt lat="44.5948386" lon="7.9027983"><ele>261.0</ele><time>2026-04-11T13:07:05.746Z</time></trkpt><trkpt lat="44.5948264" lon="7.9026169"><ele>260.0</ele><time>2026-04-11T13:07:06.747Z</time></trkpt><trkpt lat="44.594826" lon="7.9024524"><ele>259.4</ele><time>2026-04-11T13:07:07.746Z</time></trkpt><trkpt lat="44.5948291" lon="7.9023084"><ele>258.8</ele><time>2026-04-11T13:07:08.746Z</time></trkpt><trkpt lat="44.5948172" lon="7.9021751"><ele>258.2</ele><time>2026-04-11T13:07:09.746Z</time></trkpt><trkpt lat="44.5947745" lon="7.9020482"><ele>257.6</ele><time>2026-04-11T13:07:10.746Z</time></trkpt><trkpt lat="44.5946934" lon="7.9019316"><ele>257.0</ele><time>2026-04-11T13:07:11.746Z</time></trkpt><trkpt lat="44.5945933" lon="7.9018399"><ele>253.25</ele><time>2026-04-11T13:07:12.746Z</time></trkpt><trkpt lat="44.5944784" lon="7.9017619"><ele>249.5</ele><time>2026-04-11T13:07:13.746Z</time></trkpt><trkpt lat="44.5943571" lon="7.9016822"><ele>245.75</ele><time>2026-04-11T13:07:14.746Z</time></trkpt><trkpt lat="44.5942324" lon="7.9015911"><ele>242.0</ele><time>2026-04-11T13:07:15.746Z</time></trkpt><trkpt lat="44.594093" lon="7.9015252"><ele>240.0</ele><time>2026-04-11T13:07:16.746Z</time></trkpt><trkpt lat="44.5939527" lon="7.9014454"><ele>238.0</ele><time>2026-04-11T13:07:17.746Z</time></trkpt><trkpt lat="44.5938134" lon="7.9013581"><ele>236.0</ele><time>2026-04-11T13:07:18.746Z</time></trkpt><trkpt lat="44.5936894" lon="7.9012468"><ele>234.25</ele><time>2026-04-11T13:07:19.746Z</time></trkpt><trkpt lat="44.593573" lon="7.9011209"><ele>232.5</ele><time>2026-04-11T13:07:20.746Z</time></trkpt><trkpt lat="44.5934608" lon="7.9009899"><ele>230.75</ele><time>2026-04-11T13:07:21.746Z</time></trkpt><trkpt lat="44.5933524" lon="7.900853"><ele>229.0</ele><time>2026-04-11T13:07:22.746Z</time></trkpt><trkpt lat="44.5932445" lon="7.900728"><ele>229.0</ele><time>2026-04-11T13:07:23.746Z</time></trkpt><trkpt lat="44.5931456" lon="7.9006022"><ele>229.0</ele><time>2026-04-11T13:07:24.746Z</time></trkpt><trkpt lat="44.5930487" lon="7.9004853"><ele>229.0</ele><time>2026-04-11T13:07:25.746Z</time></trkpt><trkpt lat="44.5929471" lon="7.9003726"><ele>229.0</ele><time>2026-04-11T13:07:26.746Z</time></trkpt><trkpt lat="44.5928522" lon="7.9002535"><ele>228.0</ele><time>2026-04-11T13:07:27.746Z</time></trkpt><trkpt lat="44.5927574" lon="7.9001497"><ele>227.0</ele><time>2026-04-11T13:07:28.746Z</time></trkpt><trkpt lat="44.59266" lon="7.9000571"><ele>226.0</ele><time>2026-04-11T13:07:29.746Z</time></trkpt><trkpt lat="44.5925592" lon="7.8999835"><ele>225.0</ele><time>2026-04-11T13:07:30.746Z</time></trkpt><trkpt lat="44.5924668" lon="7.8999126"><ele>224.8</ele><time>2026-04-11T13:07:31.746Z</time></trkpt><trkpt lat="44.5923759" lon="7.8998328"><ele>224.6</ele><time>2026-04-11T13:07:32.746Z</time></trkpt><trkpt lat="44.592288" lon="7.8997519"><ele>224.39999999999998</ele><time>2026-04-11T13:07:33.746Z</time></trkpt><trkpt lat="44.5922212" lon="7.8996624"><ele>224.2</ele><time>2026-04-11T13:07:34.746Z</time></trkpt><trkpt lat="44.5921565" lon="7.8995578"><ele>224.0</ele><time>2026-04-11T13:07:35.746Z</time></trkpt><trkpt lat="44.5920974" lon="7.899444"><ele>224.0</ele><time>2026-04-11T13:07:36.746Z</time></trkpt><trkpt lat="44.5920422" lon="7.8993306"><ele>223.99999999999997</ele><time>2026-04-11T13:07:37.746Z</time></trkpt><trkpt lat="44.5919876" lon="7.8992199"><ele>223.99999999999997</ele><time>2026-04-11T13:07:38.746Z</time></trkpt><trkpt lat="44.5919317" lon="7.8991221"><ele>224.0</ele><time>2026-04-11T13:07:39.746Z</time></trkpt><trkpt lat="44.5918857" lon="7.8990372"><ele>224.0</ele><time>2026-04-11T13:07:40.746Z</time></trkpt><trkpt lat="44.591861" lon="7.898874"><ele>224.33333333333334</ele><time>2026-04-11T13:07:42.746Z</time></trkpt><trkpt lat="44.5918915" lon="7.8987932"><ele>224.66666666666669</ele><time>2026-04-11T13:07:43.746Z</time></trkpt><trkpt lat="44.5919429" lon="7.8987334"><ele>225.0</ele><time>2026-04-11T13:07:44.746Z</time></trkpt><trkpt lat="44.5920449" lon="7.8986486"><ele>225.33333333333331</ele><time>2026-04-11T13:07:46.746Z</time></trkpt><trkpt lat="44.5921037" lon="7.8986093"><ele>225.66666666666666</ele><time>2026-04-11T13:07:47.747Z</time></trkpt><trkpt lat="44.5921726" lon="7.8985816"><ele>226.0</ele><time>2026-04-11T13:07:48.747Z</time></trkpt><trkpt lat="44.5922368" lon="7.8985524"><ele>226.0</ele><time>2026-04-11T13:07:49.746Z</time></trkpt><trkpt lat="44.592307" lon="7.8985129"><ele>226.0</ele><time>2026-04-11T13:07:50.746Z</time></trkpt><trkpt lat="44.5923685" lon="7.8984709"><ele>226.0</ele><time>2026-04-11T13:07:51.746Z</time></trkpt><trkpt lat="44.5924216" lon="7.8984208"><ele>226.0</ele><time>2026-04-11T13:07:52.746Z</time></trkpt><trkpt lat="44.5924789" lon="7.8983772"><ele>226.0</ele><time>2026-04-11T13:07:53.747Z</time></trkpt><trkpt lat="44.5925389" lon="7.898329"><ele>226.0</ele><time>2026-04-11T13:07:54.746Z</time></trkpt><trkpt lat="44.5926014" lon="7.8982871"><ele>226.0</ele><time>2026-04-11T13:07:55.746Z</time></trkpt><trkpt lat="44.5926637" lon="7.8982441"><ele>225.57142857142858</ele><time>2026-04-11T13:07:56.746Z</time></trkpt><trkpt lat="44.5927215" lon="7.8981988"><ele>225.14285714285714</ele><time>2026-04-11T13:07:57.746Z</time></trkpt><trkpt lat="44.59278" lon="7.8981489"><ele>224.71428571428572</ele><time>2026-04-11T13:07:58.746Z</time></trkpt><trkpt lat="44.5928422" lon="7.8980965"><ele>224.28571428571428</ele><time>2026-04-11T13:07:59.746Z</time></trkpt><trkpt lat="44.5929008" lon="7.8980482"><ele>223.85714285714283</ele><time>2026-04-11T13:08:00.746Z</time></trkpt><trkpt lat="44.5929609" lon="7.8980068"><ele>223.42857142857142</ele><time>2026-04-11T13:08:01.746Z</time></trkpt><trkpt lat="44.5930204" lon="7.8979707"><ele>223.0</ele><time>2026-04-11T13:08:02.746Z</time></trkpt><trkpt lat="44.5930784" lon="7.8979353"><ele>223.0</ele><time>2026-04-11T13:08:03.746Z</time></trkpt><trkpt lat="44.5931426" lon="7.8978986"><ele>223.0</ele><time>2026-04-11T13:08:04.746Z</time></trkpt><trkpt lat="44.5932104" lon="7.897866"><ele>223.0</ele><time>2026-04-11T13:08:05.746Z</time></trkpt><trkpt lat="44.5932784" lon="7.8978337"><ele>223.0</ele><time>2026-04-11T13:08:06.746Z</time></trkpt><trkpt lat="44.5933422" lon="7.8977976"><ele>223.0</ele><time>2026-04-11T13:08:07.746Z</time></trkpt><trkpt lat="44.5934076" lon="7.8977655"><ele>223.0</ele><time>2026-04-11T13:08:08.746Z</time></trkpt><trkpt lat="44.5934694" lon="7.8977225"><ele>223.0</ele><time>2026-04-11T13:08:09.747Z</time></trkpt><trkpt lat="44.5935364" lon="7.8976805"><ele>223.0</ele><time>2026-04-11T13:08:10.746Z</time></trkpt><trkpt lat="44.5935977" lon="7.8976369"><ele>223.0</ele><time>2026-04-11T13:08:11.746Z</time></trkpt><trkpt lat="44.5936624" lon="7.8975943"><ele>223.0</ele><time>2026-04-11T13:08:12.746Z</time></trkpt><trkpt lat="44.5937269" lon="7.8975497"><ele>223.0</ele><time>2026-04-11T13:08:13.746Z</time></trkpt><trkpt lat="44.5937882" lon="7.8975079"><ele>223.0</ele><time>2026-04-11T13:08:14.746Z</time></trkpt><trkpt lat="44.5938503" lon="7.8974588"><ele>223.0</ele><time>2026-04-11T13:08:15.746Z</time></trkpt><trkpt lat="44.5939126" lon="7.8974115"><ele>223.0</ele><time>2026-04-11T13:08:16.746Z</time></trkpt><trkpt lat="44.5939732" lon="7.8973623"><ele>222.85714285714286</ele><time>2026-04-11T13:08:17.746Z</time></trkpt><trkpt lat="44.594033" lon="7.8973107"><ele>222.71428571428572</ele><time>2026-04-11T13:08:18.746Z</time></trkpt><trkpt lat="44.5940897" lon="7.8972552"><ele>222.57142857142856</ele><time>2026-04-11T13:08:19.746Z</time></trkpt><trkpt lat="44.5941424" lon="7.8971931"><ele>222.42857142857144</ele><time>2026-04-11T13:08:20.746Z</time></trkpt><trkpt lat="44.5941968" lon="7.8971297"><ele>222.2857142857143</ele><time>2026-04-11T13:08:21.746Z</time></trkpt><trkpt lat="44.5942488" lon="7.8970633"><ele>222.14285714285714</ele><time>2026-04-11T13:08:22.746Z</time></trkpt><trkpt lat="44.5943013" lon="7.8970018"><ele>222.0</ele><time>2026-04-11T13:08:23.746Z</time></trkpt><trkpt lat="44.5943568" lon="7.8969436"><ele>222.0</ele><time>2026-04-11T13:08:24.746Z</time></trkpt><trkpt lat="44.5944105" lon="7.8968826"><ele>222.0</ele><time>2026-04-11T13:08:25.746Z</time></trkpt><trkpt lat="44.5944666" lon="7.8968196"><ele>222.0</ele><time>2026-04-11T13:08:26.746Z</time></trkpt><trkpt lat="44.5945234" lon="7.8967585"><ele>222.0</ele><time>2026-04-11T13:08:27.746Z</time></trkpt><trkpt lat="44.5945764" lon="7.8966973"><ele>222.0</ele><time>2026-04-11T13:08:28.746Z</time></trkpt><trkpt lat="44.5946292" lon="7.8966348"><ele>222.0</ele><time>2026-04-11T13:08:29.746Z</time></trkpt><trkpt lat="44.5946789" lon="7.8965694"><ele>222.0</ele><time>2026-04-11T13:08:30.746Z</time></trkpt><trkpt lat="44.594725" lon="7.8965054"><ele>222.14285714285714</ele><time>2026-04-11T13:08:31.746Z</time></trkpt><trkpt lat="44.5947732" lon="7.8964401"><ele>222.2857142857143</ele><time>2026-04-11T13:08:32.746Z</time></trkpt><trkpt lat="44.5948199" lon="7.8963756"><ele>222.42857142857144</ele><time>2026-04-11T13:08:33.746Z</time></trkpt><trkpt lat="44.5948647" lon="7.8963123"><ele>222.57142857142856</ele><time>2026-04-11T13:08:34.746Z</time></trkpt><trkpt lat="44.5949113" lon="7.896248"><ele>222.71428571428572</ele><time>2026-04-11T13:08:35.746Z</time></trkpt><trkpt lat="44.594957" lon="7.8961822"><ele>222.85714285714286</ele><time>2026-04-11T13:08:36.746Z</time></trkpt><trkpt lat="44.5950037" lon="7.8961206"><ele>223.0</ele><time>2026-04-11T13:08:37.746Z</time></trkpt><trkpt lat="44.5950471" lon="7.8960539"><ele>223.0</ele><time>2026-04-11T13:08:38.746Z</time></trkpt><trkpt lat="44.5951319" lon="7.8959282"><ele>223.0</ele><time>2026-04-11T13:08:40.746Z</time></trkpt><trkpt lat="44.5951971" lon="7.8958068"><ele>223.0</ele><time>2026-04-11T13:08:42.746Z</time></trkpt><trkpt lat="44.5952842" lon="7.8957214"><ele>223.0</ele><time>2026-04-11T13:08:44.746Z</time></trkpt><trkpt lat="44.5953687" lon="7.8956443"><ele>223.0</ele><time>2026-04-11T13:08:46.746Z</time></trkpt><trkpt lat="44.5954412" lon="7.8955702"><ele>224.49999999999997</ele><time>2026-04-11T13:08:48.746Z</time></trkpt><trkpt lat="44.5955046" lon="7.8955044"><ele>226.0</ele><time>2026-04-11T13:08:50.747Z</time></trkpt><trkpt lat="44.5955632" lon="7.8954341"><ele>227.5</ele><time>2026-04-11T13:08:52.746Z</time></trkpt><trkpt lat="44.5956142" lon="7.8953695"><ele>229.0</ele><time>2026-04-11T13:08:54.746Z</time></trkpt><trkpt lat="44.5956759" lon="7.895294"><ele>230.49999999999997</ele><time>2026-04-11T13:08:57.746Z</time></trkpt><trkpt lat="44.5957513" lon="7.8952452"><ele>232.0</ele><time>2026-04-11T13:09:00.746Z</time></trkpt><trkpt lat="44.5958084" lon="7.8951664"><ele>231.99999999999997</ele><time>2026-04-11T13:09:03.746Z</time></trkpt><trkpt lat="44.5958673" lon="7.8951122"><ele>232.0</ele><time>2026-04-11T13:09:05.746Z</time></trkpt><trkpt lat="44.5959273" lon="7.8950498"><ele>232.0</ele><time>2026-04-11T13:09:08.746Z</time></trkpt><trkpt lat="44.5959915" lon="7.8949871"><ele>232.0</ele><time>2026-04-11T13:09:10.746Z</time></trkpt><trkpt lat="44.5960561" lon="7.8948994"><ele>231.99999999999997</ele><time>2026-04-11T13:09:13.746Z</time></trkpt><trkpt lat="44.5961241" lon="7.8948384"><ele>232.0</ele><time>2026-04-11T13:09:15.746Z</time></trkpt><trkpt lat="44.5961692" lon="7.8947425"><ele>231.6</ele><time>2026-04-11T13:09:17.746Z</time></trkpt><trkpt lat="44.5962265" lon="7.8946596"><ele>231.2</ele><time>2026-04-11T13:09:19.746Z</time></trkpt><trkpt lat="44.5962967" lon="7.894579"><ele>230.8</ele><time>2026-04-11T13:09:21.746Z</time></trkpt><trkpt lat="44.5963713" lon="7.8945022"><ele>230.4</ele><time>2026-04-11T13:09:23.746Z</time></trkpt><trkpt lat="44.5964526" lon="7.894433"><ele>230.0</ele><time>2026-04-11T13:09:25.746Z</time></trkpt><trkpt lat="44.5965329" lon="7.8943587"><ele>230.0</ele><time>2026-04-11T13:09:27.746Z</time></trkpt><trkpt lat="44.5966049" lon="7.8942617"><ele>230.0</ele><time>2026-04-11T13:09:29.746Z</time></trkpt><trkpt lat="44.5967049" lon="7.8942036"><ele>230.0</ele><time>2026-04-11T13:09:31.746Z</time></trkpt><trkpt lat="44.5967845" lon="7.8941023"><ele>230.0</ele><time>2026-04-11T13:09:33.746Z</time></trkpt><trkpt lat="44.5968527" lon="7.8939962"><ele>230.0</ele><time>2026-04-11T13:09:35.746Z</time></trkpt><trkpt lat="44.5969272" lon="7.8938919"><ele>229.4</ele><time>2026-04-11T13:09:37.746Z</time></trkpt><trkpt lat="44.5970169" lon="7.8937928"><ele>228.8</ele><time>2026-04-11T13:09:39.746Z</time></trkpt><trkpt lat="44.5970825" lon="7.8937053"><ele>228.2</ele><time>2026-04-11T13:09:41.746Z</time></trkpt><trkpt lat="44.5971867" lon="7.8935875"><ele>227.6</ele><time>2026-04-11T13:09:43.746Z</time></trkpt><trkpt lat="44.5972371" lon="7.8935151"><ele>227.0</ele><time>2026-04-11T13:09:44.746Z</time></trkpt><trkpt lat="44.5973243" lon="7.8933981"><ele>226.25</ele><time>2026-04-11T13:09:46.746Z</time></trkpt><trkpt lat="44.5974124" lon="7.8932779"><ele>225.5</ele><time>2026-04-11T13:09:48.746Z</time></trkpt><trkpt lat="44.5974925" lon="7.8931541"><ele>224.75</ele><time>2026-04-11T13:09:50.746Z</time></trkpt><trkpt lat="44.5975548" lon="7.8930298"><ele>224.0</ele><time>2026-04-11T13:09:52.746Z</time></trkpt><trkpt lat="44.5976306" lon="7.8929065"><ele>224.0</ele><time>2026-04-11T13:09:54.746Z</time></trkpt><trkpt lat="44.5977194" lon="7.8927959"><ele>223.99999999999997</ele><time>2026-04-11T13:09:56.746Z</time></trkpt><trkpt lat="44.5977836" lon="7.8926731"><ele>223.99999999999997</ele><time>2026-04-11T13:09:58.746Z</time></trkpt><trkpt lat="44.597855" lon="7.8925474"><ele>224.0</ele><time>2026-04-11T13:10:00.746Z</time></trkpt><trkpt lat="44.597937" lon="7.8924496"><ele>224.0</ele><time>2026-04-11T13:10:02.746Z</time></trkpt><trkpt lat="44.5980245" lon="7.8923822"><ele>224.6</ele><time>2026-04-11T13:10:04.746Z</time></trkpt><trkpt lat="44.5981126" lon="7.8923132"><ele>225.2</ele><time>2026-04-11T13:10:06.746Z</time></trkpt><trkpt lat="44.5981553" lon="7.8921906"><ele>225.79999999999998</ele><time>2026-04-11T13:10:08.746Z</time></trkpt><trkpt lat="44.5980932" lon="7.8920616"><ele>226.39999999999998</ele><time>2026-04-11T13:10:10.746Z</time></trkpt><trkpt lat="44.5979749" lon="7.8920044"><ele>227.0</ele><time>2026-04-11T13:10:12.746Z</time></trkpt><trkpt lat="44.5979124" lon="7.8919907"><ele>227.00000000000003</ele><time>2026-04-11T13:10:13.746Z</time></trkpt><trkpt lat="44.5978483" lon="7.8919799"><ele>227.0</ele><time>2026-04-11T13:10:14.746Z</time></trkpt><trkpt lat="44.5977256" lon="7.8919368"><ele>227.0</ele><time>2026-04-11T13:10:16.746Z</time></trkpt><trkpt lat="44.5976613" lon="7.8919201"><ele>227.0</ele><time>2026-04-11T13:10:17.747Z</time></trkpt><trkpt lat="44.5975935" lon="7.8918892"><ele>227.00000000000003</ele><time>2026-04-11T13:10:18.746Z</time></trkpt><trkpt lat="44.5975288" lon="7.8918719"><ele>227.0</ele><time>2026-04-11T13:10:19.746Z</time></trkpt><trkpt lat="44.5974648" lon="7.8918226"><ele>226.00000000000003</ele><time>2026-04-11T13:10:20.746Z</time></trkpt><trkpt lat="44.5974217" lon="7.8917495"><ele>225.0</ele><time>2026-04-11T13:10:21.746Z</time></trkpt><trkpt lat="44.5974506" lon="7.8916322"><ele>224.0</ele><time>2026-04-11T13:10:22.746Z</time></trkpt><trkpt lat="44.5975139" lon="7.8915691"><ele>223.0</ele><time>2026-04-11T13:10:23.746Z</time></trkpt><trkpt lat="44.5975885" lon="7.8915254"><ele>222.00000000000003</ele><time>2026-04-11T13:10:24.746Z</time></trkpt><trkpt lat="44.5976711" lon="7.8914943"><ele>221.0</ele><time>2026-04-11T13:10:25.746Z</time></trkpt><trkpt lat="44.5977474" lon="7.8914467"><ele>221.00000000000003</ele><time>2026-04-11T13:10:26.746Z</time></trkpt><trkpt lat="44.5978162" lon="7.8913987"><ele>221.0</ele><time>2026-04-11T13:10:27.746Z</time></trkpt><trkpt lat="44.5978872" lon="7.8913308"><ele>221.0</ele><time>2026-04-11T13:10:28.746Z</time></trkpt><trkpt lat="44.5979473" lon="7.8912424"><ele>221.0</ele><time>2026-04-11T13:10:29.746Z</time></trkpt><trkpt lat="44.5980036" lon="7.8911444"><ele>221.00000000000003</ele><time>2026-04-11T13:10:30.746Z</time></trkpt><trkpt lat="44.5980508" lon="7.8910481"><ele>221.0</ele><time>2026-04-11T13:10:31.746Z</time></trkpt><trkpt lat="44.5980929" lon="7.8909322"><ele>220.60000000000002</ele><time>2026-04-11T13:10:32.746Z</time></trkpt><trkpt lat="44.5981268" lon="7.8908118"><ele>220.20000000000002</ele><time>2026-04-11T13:10:33.746Z</time></trkpt><trkpt lat="44.5981636" lon="7.8906806"><ele>219.79999999999998</ele><time>2026-04-11T13:10:34.746Z</time></trkpt><trkpt lat="44.5981967" lon="7.8905438"><ele>219.39999999999998</ele><time>2026-04-11T13:10:35.746Z</time></trkpt><trkpt lat="44.5982198" lon="7.8904166"><ele>219.0</ele><time>2026-04-11T13:10:36.746Z</time></trkpt><trkpt lat="44.5982376" lon="7.890289"><ele>219.0</ele><time>2026-04-11T13:10:37.746Z</time></trkpt><trkpt lat="44.5982641" lon="7.89016"><ele>218.99999999999997</ele><time>2026-04-11T13:10:38.746Z</time></trkpt><trkpt lat="44.5982835" lon="7.8900298"><ele>218.99999999999997</ele><time>2026-04-11T13:10:39.746Z</time></trkpt><trkpt lat="44.5983009" lon="7.8898948"><ele>219.0</ele><time>2026-04-11T13:10:40.746Z</time></trkpt><trkpt lat="44.5983163" lon="7.8897549"><ele>219.0</ele><time>2026-04-11T13:10:41.746Z</time></trkpt><trkpt lat="44.5983293" lon="7.8896183"><ele>218.79999999999998</ele><time>2026-04-11T13:10:42.746Z</time></trkpt><trkpt lat="44.5983395" lon="7.8894872"><ele>218.59999999999997</ele><time>2026-04-11T13:10:43.746Z</time></trkpt><trkpt lat="44.5983481" lon="7.889361"><ele>218.4</ele><time>2026-04-11T13:10:44.746Z</time></trkpt><trkpt lat="44.5983505" lon="7.8892332"><ele>218.2</ele><time>2026-04-11T13:10:45.746Z</time></trkpt><trkpt lat="44.5983503" lon="7.8891028"><ele>218.0</ele><time>2026-04-11T13:10:46.746Z</time></trkpt><trkpt lat="44.5983542" lon="7.888972"><ele>217.50000000000003</ele><time>2026-04-11T13:10:47.746Z</time></trkpt><trkpt lat="44.5983523" lon="7.8888461"><ele>217.0</ele><time>2026-04-11T13:10:48.746Z</time></trkpt><trkpt lat="44.5983446" lon="7.8887191"><ele>216.5</ele><time>2026-04-11T13:10:49.746Z</time></trkpt><trkpt lat="44.5983332" lon="7.8885904"><ele>216.0</ele><time>2026-04-11T13:10:50.746Z</time></trkpt><trkpt lat="44.5983214" lon="7.8884628"><ele>215.50000000000003</ele><time>2026-04-11T13:10:51.746Z</time></trkpt><trkpt lat="44.5983129" lon="7.8883449"><ele>215.0</ele><time>2026-04-11T13:10:52.746Z</time></trkpt><trkpt lat="44.5982963" lon="7.8882292"><ele>214.50000000000003</ele><time>2026-04-11T13:10:53.746Z</time></trkpt><trkpt lat="44.598281" lon="7.8881136"><ele>214.0</ele><time>2026-04-11T13:10:54.746Z</time></trkpt><trkpt lat="44.5982633" lon="7.888002"><ele>213.5</ele><time>2026-04-11T13:10:55.746Z</time></trkpt><trkpt lat="44.5982399" lon="7.887889"><ele>213.0</ele><time>2026-04-11T13:10:56.747Z</time></trkpt><trkpt lat="44.5982167" lon="7.8877803"><ele>212.50000000000003</ele><time>2026-04-11T13:10:57.746Z</time></trkpt><trkpt lat="44.5982007" lon="7.8876673"><ele>212.0</ele><time>2026-04-11T13:10:58.746Z</time></trkpt><trkpt lat="44.5981773" lon="7.8875574"><ele>211.50000000000003</ele><time>2026-04-11T13:10:59.746Z</time></trkpt><trkpt lat="44.5981554" lon="7.8874529"><ele>211.0</ele><time>2026-04-11T13:11:00.746Z</time></trkpt><trkpt lat="44.5981327" lon="7.8873378"><ele>210.5</ele><time>2026-04-11T13:11:01.746Z</time></trkpt><trkpt lat="44.59811" lon="7.8872214"><ele>210.0</ele><time>2026-04-11T13:11:02.746Z</time></trkpt><trkpt lat="44.5980725" lon="7.8871116"><ele>209.50000000000003</ele><time>2026-04-11T13:11:03.746Z</time></trkpt><trkpt lat="44.598042" lon="7.8870082"><ele>209.0</ele><time>2026-04-11T13:11:04.746Z</time></trkpt><trkpt lat="44.5980305" lon="7.8868974"><ele>209.00000000000003</ele><time>2026-04-11T13:11:05.746Z</time></trkpt><trkpt lat="44.5980117" lon="7.8867987"><ele>209.0</ele><time>2026-04-11T13:11:06.746Z</time></trkpt><trkpt lat="44.5979887" lon="7.8866976"><ele>209.0</ele><time>2026-04-11T13:11:07.746Z</time></trkpt><trkpt lat="44.5979756" lon="7.8865927"><ele>209.0</ele><time>2026-04-11T13:11:08.746Z</time></trkpt><trkpt lat="44.5979545" lon="7.8864863"><ele>209.00000000000003</ele><time>2026-04-11T13:11:09.746Z</time></trkpt><trkpt lat="44.5979341" lon="7.8863814"><ele>209.0</ele><time>2026-04-11T13:11:10.746Z</time></trkpt><trkpt lat="44.5979107" lon="7.8862687"><ele>209.16666666666669</ele><time>2026-04-11T13:11:11.746Z</time></trkpt><trkpt lat="44.5978953" lon="7.8861761"><ele>209.33333333333334</ele><time>2026-04-11T13:11:12.746Z</time></trkpt><trkpt lat="44.5978833" lon="7.8859879"><ele>209.5</ele><time>2026-04-11T13:11:14.746Z</time></trkpt><trkpt lat="44.5978687" lon="7.8858889"><ele>209.66666666666669</ele><time>2026-04-11T13:11:15.746Z</time></trkpt><trkpt lat="44.5978473" lon="7.8857884"><ele>209.83333333333334</ele><time>2026-04-11T13:11:16.746Z</time></trkpt><trkpt lat="44.5978244" lon="7.8856874"><ele>210.0</ele><time>2026-04-11T13:11:17.746Z</time></trkpt><trkpt lat="44.5978093" lon="7.8855995"><ele>210.0</ele><time>2026-04-11T13:11:18.746Z</time></trkpt><trkpt lat="44.5978033" lon="7.8854993"><ele>210.0</ele><time>2026-04-11T13:11:19.746Z</time></trkpt><trkpt lat="44.597788" lon="7.8853804"><ele>210.0</ele><time>2026-04-11T13:11:20.746Z</time></trkpt><trkpt lat="44.5977696" lon="7.8852488"><ele>210.0</ele><time>2026-04-11T13:11:21.747Z</time></trkpt><trkpt lat="44.5977526" lon="7.8851398"><ele>210.0</ele><time>2026-04-11T13:11:22.746Z</time></trkpt><trkpt lat="44.5977418" lon="7.8850288"><ele>210.0</ele><time>2026-04-11T13:11:23.746Z</time></trkpt><trkpt lat="44.5977347" lon="7.8849265"><ele>210.0</ele><time>2026-04-11T13:11:24.746Z</time></trkpt><trkpt lat="44.5977324" lon="7.8848218"><ele>210.0</ele><time>2026-04-11T13:11:25.746Z</time></trkpt><trkpt lat="44.5977322" lon="7.8847132"><ele>210.0</ele><time>2026-04-11T13:11:26.746Z</time></trkpt><trkpt lat="44.5977287" lon="7.8846068"><ele>210.0</ele><time>2026-04-11T13:11:27.746Z</time></trkpt><trkpt lat="44.5977281" lon="7.8845011"><ele>210.0</ele><time>2026-04-11T13:11:28.746Z</time></trkpt><trkpt lat="44.5977302" lon="7.8843927"><ele>210.0</ele><time>2026-04-11T13:11:29.746Z</time></trkpt><trkpt lat="44.5977328" lon="7.8842859"><ele>210.16666666666666</ele><time>2026-04-11T13:11:30.746Z</time></trkpt><trkpt lat="44.597737" lon="7.884178"><ele>210.33333333333331</ele><time>2026-04-11T13:11:31.747Z</time></trkpt><trkpt lat="44.5977409" lon="7.8840739"><ele>210.5</ele><time>2026-04-11T13:11:32.746Z</time></trkpt><trkpt lat="44.5977403" lon="7.8839652"><ele>210.66666666666666</ele><time>2026-04-11T13:11:33.746Z</time></trkpt><trkpt lat="44.5977451" lon="7.8838579"><ele>210.83333333333331</ele><time>2026-04-11T13:11:34.746Z</time></trkpt><trkpt lat="44.5977459" lon="7.8837418"><ele>211.0</ele><time>2026-04-11T13:11:35.746Z</time></trkpt><trkpt lat="44.597748" lon="7.8836367"><ele>210.99999999999997</ele><time>2026-04-11T13:11:36.746Z</time></trkpt><trkpt lat="44.5977559" lon="7.8835251"><ele>211.0</ele><time>2026-04-11T13:11:37.746Z</time></trkpt><trkpt lat="44.5977551" lon="7.8834146"><ele>211.0</ele><time>2026-04-11T13:11:38.746Z</time></trkpt><trkpt lat="44.5977667" lon="7.883302"><ele>211.0</ele><time>2026-04-11T13:11:39.746Z</time></trkpt><trkpt lat="44.5977577" lon="7.8831857"><ele>210.99999999999997</ele><time>2026-04-11T13:11:40.746Z</time></trkpt><trkpt lat="44.5977569" lon="7.8830807"><ele>211.0</ele><time>2026-04-11T13:11:41.746Z</time></trkpt><trkpt lat="44.5977733" lon="7.8829783"><ele>210.99999999999997</ele><time>2026-04-11T13:11:42.746Z</time></trkpt><trkpt lat="44.5977813" lon="7.8828694"><ele>211.0</ele><time>2026-04-11T13:11:43.746Z</time></trkpt><trkpt lat="44.5977884" lon="7.8827608"><ele>211.0</ele><time>2026-04-11T13:11:44.746Z</time></trkpt><trkpt lat="44.5977903" lon="7.8826505"><ele>211.0</ele><time>2026-04-11T13:11:45.746Z</time></trkpt><trkpt lat="44.5977851" lon="7.8825487"><ele>210.99999999999997</ele><time>2026-04-11T13:11:46.746Z</time></trkpt><trkpt lat="44.5977835" lon="7.8824337"><ele>211.0</ele><time>2026-04-11T13:11:47.746Z</time></trkpt><trkpt lat="44.5977847" lon="7.8823026"><ele>211.4</ele><time>2026-04-11T13:11:48.746Z</time></trkpt><trkpt lat="44.597789" lon="7.8821705"><ele>211.8</ele><time>2026-04-11T13:11:49.746Z</time></trkpt><trkpt lat="44.5977894" lon="7.8820405"><ele>212.20000000000002</ele><time>2026-04-11T13:11:50.746Z</time></trkpt><trkpt lat="44.5977942" lon="7.8819008"><ele>212.60000000000002</ele><time>2026-04-11T13:11:51.746Z</time></trkpt><trkpt lat="44.597798" lon="7.8817641"><ele>213.0</ele><time>2026-04-11T13:11:52.746Z</time></trkpt><trkpt lat="44.5978056" lon="7.8816297"><ele>213.0</ele><time>2026-04-11T13:11:53.746Z</time></trkpt><trkpt lat="44.5978164" lon="7.8815034"><ele>213.0</ele><time>2026-04-11T13:11:54.746Z</time></trkpt><trkpt lat="44.5978251" lon="7.881362"><ele>213.0</ele><time>2026-04-11T13:11:55.746Z</time></trkpt><trkpt lat="44.5978317" lon="7.8812495"><ele>213.0</ele><time>2026-04-11T13:11:56.746Z</time></trkpt><trkpt lat="44.5978558" lon="7.8811299"><ele>213.0</ele><time>2026-04-11T13:11:57.746Z</time></trkpt><trkpt lat="44.5978796" lon="7.8810237"><ele>213.0</ele><time>2026-04-11T13:11:58.746Z</time></trkpt><trkpt lat="44.5978985" lon="7.8809285"><ele>213.2</ele><time>2026-04-11T13:11:59.747Z</time></trkpt><trkpt lat="44.5979283" lon="7.8808276"><ele>213.4</ele><time>2026-04-11T13:12:00.746Z</time></trkpt><trkpt lat="44.5979582" lon="7.8807392"><ele>213.59999999999997</ele><time>2026-04-11T13:12:01.747Z</time></trkpt><trkpt lat="44.5980265" lon="7.8806079"><ele>213.79999999999998</ele><time>2026-04-11T13:12:03.746Z</time></trkpt><trkpt lat="44.5981017" lon="7.880499"><ele>214.0</ele><time>2026-04-11T13:12:05.752Z</time></trkpt><trkpt lat="44.5981744" lon="7.8804075"><ele>213.99999999999997</ele><time>2026-04-11T13:12:07.752Z</time></trkpt><trkpt lat="44.598246" lon="7.8803432"><ele>214.0</ele><time>2026-04-11T13:12:09.752Z</time></trkpt><trkpt lat="44.5983075" lon="7.880277"><ele>214.0</ele><time>2026-04-11T13:12:11.752Z</time></trkpt><trkpt lat="44.5983634" lon="7.8801949"><ele>214.0</ele><time>2026-04-11T13:12:13.752Z</time></trkpt><trkpt lat="44.5984248" lon="7.8801391"><ele>213.99999999999997</ele><time>2026-04-11T13:12:15.752Z</time></trkpt><trkpt lat="44.5984889" lon="7.8800817"><ele>214.0</ele><time>2026-04-11T13:12:17.752Z</time></trkpt><trkpt lat="44.5985384" lon="7.8800092"><ele>214.42857142857144</ele><time>2026-04-11T13:12:19.752Z</time></trkpt><trkpt lat="44.5985666" lon="7.8799293"><ele>214.85714285714286</ele><time>2026-04-11T13:12:21.752Z</time></trkpt><trkpt lat="44.5985908" lon="7.8798299"><ele>215.28571428571428</ele><time>2026-04-11T13:12:23.752Z</time></trkpt><trkpt lat="44.5986066" lon="7.8797379"><ele>215.71428571428572</ele><time>2026-04-11T13:12:25.752Z</time></trkpt><trkpt lat="44.5986143" lon="7.8796362"><ele>216.14285714285714</ele><time>2026-04-11T13:12:27.752Z</time></trkpt><trkpt lat="44.5986065" lon="7.8795339"><ele>216.57142857142858</ele><time>2026-04-11T13:12:29.752Z</time></trkpt><trkpt lat="44.5986041" lon="7.8794434"><ele>217.0</ele><time>2026-04-11T13:12:31.752Z</time></trkpt><trkpt lat="44.5985764" lon="7.879317"><ele>217.85714285714286</ele><time>2026-04-11T13:12:34.752Z</time></trkpt><trkpt lat="44.5985442" lon="7.879237"><ele>218.71428571428572</ele><time>2026-04-11T13:12:36.752Z</time></trkpt><trkpt lat="44.5985018" lon="7.8791711"><ele>219.57142857142856</ele><time>2026-04-11T13:12:38.752Z</time></trkpt><trkpt lat="44.59844" lon="7.8791065"><ele>220.42857142857144</ele><time>2026-04-11T13:12:40.752Z</time></trkpt><trkpt lat="44.5983588" lon="7.879053"><ele>221.28571428571428</ele><time>2026-04-11T13:12:43.752Z</time></trkpt><trkpt lat="44.5982706" lon="7.8790383"><ele>222.14285714285714</ele><time>2026-04-11T13:12:46.752Z</time></trkpt><trkpt lat="44.5982058" lon="7.8790415"><ele>223.0</ele><time>2026-04-11T13:12:48.752Z</time></trkpt><trkpt lat="44.598115" lon="7.8790641"><ele>222.99999999999997</ele><time>2026-04-11T13:12:51.752Z</time></trkpt><trkpt lat="44.598028" lon="7.8791117"><ele>223.0</ele><time>2026-04-11T13:12:54.752Z</time></trkpt><trkpt lat="44.5979426" lon="7.8791656"><ele>223.0</ele><time>2026-04-11T13:12:57.752Z</time></trkpt><trkpt lat="44.5978594" lon="7.8791772"><ele>223.0</ele><time>2026-04-11T13:13:00.752Z</time></trkpt><trkpt lat="44.5978018" lon="7.8792179"><ele>222.99999999999997</ele><time>2026-04-11T13:13:02.752Z</time></trkpt><trkpt lat="44.5977429" lon="7.8792619"><ele>223.0</ele><time>2026-04-11T13:13:04.752Z</time></trkpt><trkpt lat="44.5976816" lon="7.8793005"><ele>223.33333333333331</ele><time>2026-04-11T13:13:06.752Z</time></trkpt><trkpt lat="44.597603" lon="7.8793543"><ele>223.66666666666666</ele><time>2026-04-11T13:13:09.752Z</time></trkpt><trkpt lat="44.5975475" lon="7.8794045"><ele>224.0</ele><time>2026-04-11T13:13:11.752Z</time></trkpt><trkpt lat="44.5974911" lon="7.8794716"><ele>224.33333333333331</ele><time>2026-04-11T13:13:13.752Z</time></trkpt><trkpt lat="44.5974164" lon="7.8795606"><ele>224.66666666666666</ele><time>2026-04-11T13:13:16.752Z</time></trkpt><trkpt lat="44.5973622" lon="7.8796146"><ele>225.0</ele><time>2026-04-11T13:13:18.752Z</time></trkpt><trkpt lat="44.5973042" lon="7.8796694"><ele>225.00000000000003</ele><time>2026-04-11T13:13:20.752Z</time></trkpt><trkpt lat="44.5972337" lon="7.8797408"><ele>225.0</ele><time>2026-04-11T13:13:23.752Z</time></trkpt><trkpt lat="44.5971743" lon="7.8797803"><ele>225.00000000000003</ele><time>2026-04-11T13:13:25.753Z</time></trkpt><trkpt lat="44.597092" lon="7.8798329"><ele>225.00000000000003</ele><time>2026-04-11T13:13:28.752Z</time></trkpt><trkpt lat="44.5970202" lon="7.8798553"><ele>225.0</ele><time>2026-04-11T13:13:30.752Z</time></trkpt><trkpt lat="44.5969559" lon="7.8798692"><ele>225.00000000000003</ele><time>2026-04-11T13:13:32.752Z</time></trkpt><trkpt lat="44.5968924" lon="7.8798577"><ele>225.00000000000003</ele><time>2026-04-11T13:13:34.752Z</time></trkpt><trkpt lat="44.5968081" lon="7.8798511"><ele>226.33333333333334</ele><time>2026-04-11T13:13:37.752Z</time></trkpt><trkpt lat="44.5967449" lon="7.8798487"><ele>227.66666666666669</ele><time>2026-04-11T13:13:39.752Z</time></trkpt><trkpt lat="44.5966814" lon="7.8798397"><ele>229.0</ele><time>2026-04-11T13:13:41.752Z</time></trkpt><trkpt lat="44.5965897" lon="7.8798323"><ele>230.33333333333334</ele><time>2026-04-11T13:13:44.752Z</time></trkpt><trkpt lat="44.5964957" lon="7.8798176"><ele>231.66666666666669</ele><time>2026-04-11T13:13:47.752Z</time></trkpt><trkpt lat="44.5963999" lon="7.8798149"><ele>233.0</ele><time>2026-04-11T13:13:50.752Z</time></trkpt><trkpt lat="44.5963069" lon="7.879838"><ele>233.0</ele><time>2026-04-11T13:13:53.752Z</time></trkpt><trkpt lat="44.5962438" lon="7.879846"><ele>233.0</ele><time>2026-04-11T13:13:55.752Z</time></trkpt><trkpt lat="44.59618" lon="7.8798648"><ele>233.0</ele><time>2026-04-11T13:13:57.752Z</time></trkpt><trkpt lat="44.5960945" lon="7.8798662"><ele>233.0</ele><time>2026-04-11T13:14:00.752Z</time></trkpt><trkpt lat="44.5960359" lon="7.8799005"><ele>233.0</ele><time>2026-04-11T13:14:02.752Z</time></trkpt><trkpt lat="44.5959749" lon="7.8799268"><ele>233.0</ele><time>2026-04-11T13:14:04.752Z</time></trkpt><trkpt lat="44.5959072" lon="7.8799392"><ele>233.0</ele><time>2026-04-11T13:14:06.753Z</time></trkpt><trkpt lat="44.5958344" lon="7.879981"><ele>234.50000000000003</ele><time>2026-04-11T13:14:08.752Z</time></trkpt><trkpt lat="44.5957468" lon="7.8800262"><ele>236.0</ele><time>2026-04-11T13:14:11.752Z</time></trkpt><trkpt lat="44.5956856" lon="7.8800483"><ele>237.5</ele><time>2026-04-11T13:14:13.752Z</time></trkpt><trkpt lat="44.5955986" lon="7.8800878"><ele>239.0</ele><time>2026-04-11T13:14:16.752Z</time></trkpt><trkpt lat="44.5955192" lon="7.8801262"><ele>240.50000000000003</ele><time>2026-04-11T13:14:19.752Z</time></trkpt><trkpt lat="44.5954416" lon="7.8801397"><ele>242.0</ele><time>2026-04-11T13:14:22.752Z</time></trkpt><trkpt lat="44.5953559" lon="7.8801741"><ele>240.50000000000003</ele><time>2026-04-11T13:14:25.752Z</time></trkpt><trkpt lat="44.5952811" lon="7.8802194"><ele>239.0</ele><time>2026-04-11T13:14:28.752Z</time></trkpt><trkpt lat="44.5951977" lon="7.8802562"><ele>237.5</ele><time>2026-04-11T13:14:31.752Z</time></trkpt><trkpt lat="44.5951356" lon="7.8802775"><ele>236.0</ele><time>2026-04-11T13:14:33.752Z</time></trkpt><trkpt lat="44.595053" lon="7.8803256"><ele>234.50000000000003</ele><time>2026-04-11T13:14:36.752Z</time></trkpt><trkpt lat="44.5949644" lon="7.8803594"><ele>233.0</ele><time>2026-04-11T13:14:39.753Z</time></trkpt><trkpt lat="44.5948766" lon="7.8803894"><ele>233.0</ele><time>2026-04-11T13:14:42.752Z</time></trkpt><trkpt lat="44.5947908" lon="7.8804163"><ele>233.0</ele><time>2026-04-11T13:14:45.752Z</time></trkpt><trkpt lat="44.59473" lon="7.8804462"><ele>233.0</ele><time>2026-04-11T13:14:47.752Z</time></trkpt><trkpt lat="44.5946702" lon="7.880479"><ele>233.0</ele><time>2026-04-11T13:14:49.752Z</time></trkpt><trkpt lat="44.5946063" lon="7.8805095"><ele>233.0</ele><time>2026-04-11T13:14:51.752Z</time></trkpt><trkpt lat="44.5945389" lon="7.8805297"><ele>233.0</ele><time>2026-04-11T13:14:53.752Z</time></trkpt><trkpt lat="44.5944703" lon="7.8805421"><ele>233.0</ele><time>2026-04-11T13:14:55.752Z</time></trkpt><trkpt lat="44.5943807" lon="7.8805545"><ele>234.71428571428572</ele><time>2026-04-11T13:14:58.752Z</time></trkpt><trkpt lat="44.5943174" lon="7.88057"><ele>236.42857142857142</ele><time>2026-04-11T13:15:00.752Z</time></trkpt><trkpt lat="44.5942496" lon="7.8805797"><ele>238.14285714285714</ele><time>2026-04-11T13:15:02.752Z</time></trkpt><trkpt lat="44.5941804" lon="7.8805795"><ele>239.85714285714286</ele><time>2026-04-11T13:15:04.752Z</time></trkpt><trkpt lat="44.5940984" lon="7.8805945"><ele>241.57142857142856</ele><time>2026-04-11T13:15:07.752Z</time></trkpt><trkpt lat="44.5940242" lon="7.8806126"><ele>243.28571428571428</ele><time>2026-04-11T13:15:10.753Z</time></trkpt><trkpt lat="44.5939514" lon="7.880625"><ele>245.0</ele><time>2026-04-11T13:15:13.753Z</time></trkpt><trkpt lat="44.5938809" lon="7.8806364"><ele>245.0</ele><time>2026-04-11T13:15:16.753Z</time></trkpt><trkpt lat="44.5938027" lon="7.8806394"><ele>245.0</ele><time>2026-04-11T13:15:19.753Z</time></trkpt><trkpt lat="44.5937279" lon="7.8806232"><ele>245.0</ele><time>2026-04-11T13:15:22.753Z</time></trkpt><trkpt lat="44.5936756" lon="7.8805624"><ele>245.0</ele><time>2026-04-11T13:15:25.753Z</time></trkpt><trkpt lat="44.5936313" lon="7.8804844"><ele>245.0</ele><time>2026-04-11T13:15:28.753Z</time></trkpt><trkpt lat="44.5936137" lon="7.8803754"><ele>245.0</ele><time>2026-04-11T13:15:31.753Z</time></trkpt><trkpt lat="44.5935799" lon="7.8802963"><ele>245.0</ele><time>2026-04-11T13:15:34.753Z</time></trkpt><trkpt lat="44.5935461" lon="7.8801908"><ele>245.16666666666669</ele><time>2026-04-11T13:15:37.753Z</time></trkpt><trkpt lat="44.5935264" lon="7.8801023"><ele>245.33333333333334</ele><time>2026-04-11T13:15:40.753Z</time></trkpt><trkpt lat="44.5935044" lon="7.8800062"><ele>245.5</ele><time>2026-04-11T13:15:45.753Z</time></trkpt><trkpt lat="44.5934597" lon="7.8799279"><ele>245.66666666666669</ele><time>2026-04-11T13:15:48.753Z</time></trkpt><trkpt lat="44.5934228" lon="7.87984"><ele>245.83333333333334</ele><time>2026-04-11T13:15:51.753Z</time></trkpt><trkpt lat="44.5933999" lon="7.8797294"><ele>246.0</ele><time>2026-04-11T13:15:55.753Z</time></trkpt><trkpt lat="44.5933772" lon="7.8796011"><ele>247.00000000000003</ele><time>2026-04-11T13:15:58.753Z</time></trkpt><trkpt lat="44.5933949" lon="7.8795116"><ele>248.0</ele><time>2026-04-11T13:16:01.753Z</time></trkpt><trkpt lat="44.5933909" lon="7.8794036"><ele>249.00000000000003</ele><time>2026-04-11T13:16:06.753Z</time></trkpt><trkpt lat="44.5934013" lon="7.8792922"><ele>250.00000000000003</ele><time>2026-04-11T13:16:10.753Z</time></trkpt><trkpt lat="44.5934511" lon="7.8792299"><ele>251.0</ele><time>2026-04-11T13:16:13.754Z</time></trkpt><trkpt lat="44.5934647" lon="7.8791219"><ele>252.00000000000003</ele><time>2026-04-11T13:16:17.753Z</time></trkpt><trkpt lat="44.5934794" lon="7.8790338"><ele>253.00000000000003</ele><time>2026-04-11T13:16:20.753Z</time></trkpt><trkpt lat="44.5934933" lon="7.8789392"><ele>253.71428571428575</ele><time>2026-04-11T13:16:23.753Z</time></trkpt><trkpt lat="44.5935062" lon="7.8788259"><ele>254.42857142857144</ele><time>2026-04-11T13:16:27.753Z</time></trkpt><trkpt lat="44.5935266" lon="7.8787364"><ele>255.14285714285714</ele><time>2026-04-11T13:16:30.753Z</time></trkpt><trkpt lat="44.5935401" lon="7.8786499"><ele>255.85714285714286</ele><time>2026-04-11T13:16:33.754Z</time></trkpt><trkpt lat="44.5935611" lon="7.8785382"><ele>256.57142857142856</ele><time>2026-04-11T13:16:37.753Z</time></trkpt><trkpt lat="44.5935766" lon="7.878451"><ele>257.2857142857143</ele><time>2026-04-11T13:16:40.753Z</time></trkpt><trkpt lat="44.5935974" lon="7.8783649"><ele>258.0</ele><time>2026-04-11T13:16:43.753Z</time></trkpt><trkpt lat="44.5936395" lon="7.8782701"><ele>258.2857142857143</ele><time>2026-04-11T13:16:46.753Z</time></trkpt><trkpt lat="44.5936502" lon="7.8781598"><ele>258.57142857142856</ele><time>2026-04-11T13:16:50.753Z</time></trkpt><trkpt lat="44.5936723" lon="7.8780492"><ele>258.8571428571429</ele><time>2026-04-11T13:16:54.753Z</time></trkpt><trkpt lat="44.5936979" lon="7.87796"><ele>259.1428571428571</ele><time>2026-04-11T13:16:57.753Z</time></trkpt><trkpt lat="44.5937114" lon="7.87787"><ele>259.42857142857144</ele><time>2026-04-11T13:17:00.753Z</time></trkpt><trkpt lat="44.5937263" lon="7.877755"><ele>259.7142857142857</ele><time>2026-04-11T13:17:04.753Z</time></trkpt><trkpt lat="44.5937382" lon="7.8776667"><ele>260.0</ele><time>2026-04-11T13:17:07.753Z</time></trkpt><trkpt lat="44.5937468" lon="7.8775472"><ele>264.33333333333337</ele><time>2026-04-11T13:17:11.753Z</time></trkpt><trkpt lat="44.5937429" lon="7.8774446"><ele>268.6666666666667</ele><time>2026-04-11T13:17:14.753Z</time></trkpt><trkpt lat="44.5937506" lon="7.8773566"><ele>273.0</ele><time>2026-04-11T13:17:17.753Z</time></trkpt><trkpt lat="44.5937824" lon="7.8772514"><ele>277.3333333333333</ele><time>2026-04-11T13:17:20.753Z</time></trkpt><trkpt lat="44.5937533" lon="7.8771548"><ele>281.66666666666663</ele><time>2026-04-11T13:17:23.753Z</time></trkpt><trkpt lat="44.5937805" lon="7.8770518"><ele>286.0</ele><time>2026-04-11T13:17:27.753Z</time></trkpt><trkpt lat="44.5938211" lon="7.8769484"><ele>285.99999999999994</ele><time>2026-04-11T13:17:30.753Z</time></trkpt><trkpt lat="44.5938587" lon="7.8768482"><ele>286.0</ele><time>2026-04-11T13:17:34.753Z</time></trkpt><trkpt lat="44.5938688" lon="7.8767554"><ele>286.0</ele><time>2026-04-11T13:17:37.753Z</time></trkpt><trkpt lat="44.5939194" lon="7.8766899"><ele>286.0</ele><time>2026-04-11T13:17:40.753Z</time></trkpt><trkpt lat="44.5939931" lon="7.8766705"><ele>286.0</ele><time>2026-04-11T13:17:43.753Z</time></trkpt><trkpt lat="44.5940394" lon="7.8767522"><ele>285.99999999999994</ele><time>2026-04-11T13:17:46.753Z</time></trkpt><trkpt lat="44.594056" lon="7.8768513"><ele>286.0</ele><time>2026-04-11T13:17:49.753Z</time></trkpt><trkpt lat="44.5940745" lon="7.8769369"><ele>285.99999999999994</ele><time>2026-04-11T13:17:52.753Z</time></trkpt><trkpt lat="44.5940887" lon="7.8770287"><ele>286.0</ele><time>2026-04-11T13:17:55.753Z</time></trkpt><trkpt lat="44.594095" lon="7.8771254"><ele>286.0</ele><time>2026-04-11T13:17:58.753Z</time></trkpt><trkpt lat="44.5941014" lon="7.8772134"><ele>286.0</ele><time>2026-04-11T13:18:01.753Z</time></trkpt><trkpt lat="44.5941033" lon="7.8773126"><ele>286.0</ele><time>2026-04-11T13:18:04.753Z</time></trkpt><trkpt lat="44.5940731" lon="7.8773999"><ele>285.99999999999994</ele><time>2026-04-11T13:18:07.753Z</time></trkpt><trkpt lat="44.5940956" lon="7.8774904"><ele>286.0</ele><time>2026-04-11T13:18:10.753Z</time></trkpt><trkpt lat="44.5941047" lon="7.8775926"><ele>285.99999999999994</ele><time>2026-04-11T13:18:13.753Z</time></trkpt><trkpt lat="44.5941049" lon="7.8776895"><ele>286.0</ele><time>2026-04-11T13:18:16.753Z</time></trkpt><trkpt lat="44.5941152" lon="7.8777918"><ele>286.0</ele><time>2026-04-11T13:18:19.753Z</time></trkpt><trkpt lat="44.5941216" lon="7.8778943"><ele>286.0</ele><time>2026-04-11T13:18:22.754Z</time></trkpt><trkpt lat="44.5941222" lon="7.8779966"><ele>286.0</ele><time>2026-04-11T13:18:25.753Z</time></trkpt><trkpt lat="44.5941265" lon="7.8780895"><ele>285.99999999999994</ele><time>2026-04-11T13:18:28.753Z</time></trkpt><trkpt lat="44.5941391" lon="7.8782011"><ele>286.0</ele><time>2026-04-11T13:18:31.753Z</time></trkpt><trkpt lat="44.5941553" lon="7.8783091"><ele>285.99999999999994</ele><time>2026-04-11T13:18:34.753Z</time></trkpt><trkpt lat="44.5941633" lon="7.8784229"><ele>286.0</ele><time>2026-04-11T13:18:37.753Z</time></trkpt><trkpt lat="44.5941769" lon="7.8785254"><ele>286.0</ele><time>2026-04-11T13:18:40.753Z</time></trkpt><trkpt lat="44.5942071" lon="7.8786304"><ele>286.0</ele><time>2026-04-11T13:18:43.753Z</time></trkpt><trkpt lat="44.5942376" lon="7.878724"><ele>286.0</ele><time>2026-04-11T13:18:46.76Z</time></trkpt><trkpt lat="44.5942833" lon="7.8787944"><ele>285.99999999999994</ele><time>2026-04-11T13:18:49.76Z</time></trkpt><trkpt lat="44.5943451" lon="7.8788172"><ele>286.0</ele><time>2026-04-11T13:18:52.76Z</time></trkpt><trkpt lat="44.5944161" lon="7.8788112"><ele>286.0</ele><time>2026-04-11T13:18:55.76Z</time></trkpt><trkpt lat="44.5944757" lon="7.8787605"><ele>286.0</ele><time>2026-04-11T13:18:58.76Z</time></trkpt><trkpt lat="44.5944679" lon="7.878648"><ele>286.0</ele><time>2026-04-11T13:19:01.76Z</time></trkpt><trkpt lat="44.5944597" lon="7.8785259"><ele>286.0</ele><time>2026-04-11T13:19:04.76Z</time></trkpt><trkpt lat="44.5944465" lon="7.8784136"><ele>286.0</ele><time>2026-04-11T13:19:07.76Z</time></trkpt><trkpt lat="44.5944581" lon="7.8783043"><ele>286.0</ele><time>2026-04-11T13:19:10.76Z</time></trkpt><trkpt lat="44.5944536" lon="7.8782011"><ele>285.99999999999994</ele><time>2026-04-11T13:19:13.76Z</time></trkpt><trkpt lat="44.5944542" lon="7.8781093"><ele>286.0</ele><time>2026-04-11T13:19:16.76Z</time></trkpt><trkpt lat="44.5944646" lon="7.878017"><ele>286.0</ele><time>2026-04-11T13:19:19.76Z</time></trkpt><trkpt lat="44.59448" lon="7.8779219"><ele>286.0</ele><time>2026-04-11T13:19:22.76Z</time></trkpt><trkpt lat="44.5944956" lon="7.8778271"><ele>286.0</ele><time>2026-04-11T13:19:25.76Z</time></trkpt><trkpt lat="44.5945126" lon="7.8777383"><ele>285.99999999999994</ele><time>2026-04-11T13:19:28.76Z</time></trkpt><trkpt lat="44.5945173" lon="7.8776228"><ele>286.0</ele><time>2026-04-11T13:19:32.76Z</time></trkpt><trkpt lat="44.5945375" lon="7.8775279"><ele>289.2857142857143</ele><time>2026-04-11T13:19:35.76Z</time></trkpt><trkpt lat="44.5945414" lon="7.877424"><ele>292.57142857142856</ele><time>2026-04-11T13:19:39.76Z</time></trkpt><trkpt lat="44.5945683" lon="7.8773273"><ele>295.8571428571429</ele><time>2026-04-11T13:19:42.76Z</time></trkpt><trkpt lat="44.5945729" lon="7.8772278"><ele>299.1428571428571</ele><time>2026-04-11T13:19:45.76Z</time></trkpt><trkpt lat="44.5945775" lon="7.8771179"><ele>302.42857142857144</ele><time>2026-04-11T13:19:49.76Z</time></trkpt><trkpt lat="44.5946109" lon="7.8770128"><ele>305.7142857142857</ele><time>2026-04-11T13:19:53.76Z</time></trkpt><trkpt lat="44.5946183" lon="7.8769196"><ele>309.0</ele><time>2026-04-11T13:19:56.76Z</time></trkpt><trkpt lat="44.5946138" lon="7.8768191"><ele>309.5</ele><time>2026-04-11T13:19:59.76Z</time></trkpt><trkpt lat="44.5946147" lon="7.8767169"><ele>310.0</ele><time>2026-04-11T13:20:02.76Z</time></trkpt><trkpt lat="44.594619" lon="7.8766232"><ele>310.5</ele><time>2026-04-11T13:20:05.76Z</time></trkpt><trkpt lat="44.5946053" lon="7.8765102"><ele>311.0</ele><time>2026-04-11T13:20:09.76Z</time></trkpt><trkpt lat="44.5945958" lon="7.8764033"><ele>311.5</ele><time>2026-04-11T13:20:13.76Z</time></trkpt><trkpt lat="44.5945684" lon="7.8762846"><ele>312.0</ele><time>2026-04-11T13:20:16.76Z</time></trkpt><trkpt lat="44.5945223" lon="7.8761925"><ele>310.2857142857143</ele><time>2026-04-11T13:20:19.76Z</time></trkpt><trkpt lat="44.5944952" lon="7.8761096"><ele>308.57142857142856</ele><time>2026-04-11T13:20:22.76Z</time></trkpt><trkpt lat="44.5944619" lon="7.8760289"><ele>306.85714285714283</ele><time>2026-04-11T13:20:25.76Z</time></trkpt><trkpt lat="44.5944404" lon="7.875945"><ele>305.1428571428571</ele><time>2026-04-11T13:20:28.76Z</time></trkpt><trkpt lat="44.5944109" lon="7.8758503"><ele>303.42857142857144</ele><time>2026-04-11T13:20:32.76Z</time></trkpt><trkpt lat="44.5943972" lon="7.8757406"><ele>301.71428571428567</ele><time>2026-04-11T13:20:36.761Z</time></trkpt><trkpt lat="44.5943803" lon="7.875642"><ele>300.0</ele><time>2026-04-11T13:20:40.76Z</time></trkpt><trkpt lat="44.5943806" lon="7.8755505"><ele>300.0</ele><time>2026-04-11T13:20:43.76Z</time></trkpt><trkpt lat="44.5943704" lon="7.8754505"><ele>300.0</ele><time>2026-04-11T13:20:47.76Z</time></trkpt><trkpt lat="44.5943552" lon="7.8753497"><ele>300.0</ele><time>2026-04-11T13:20:51.76Z</time></trkpt><trkpt lat="44.5943597" lon="7.8752598"><ele>300.0</ele><time>2026-04-11T13:20:54.76Z</time></trkpt><trkpt lat="44.5943481" lon="7.8751413"><ele>300.0</ele><time>2026-04-11T13:20:58.76Z</time></trkpt><trkpt lat="44.5943277" lon="7.8750329"><ele>300.0</ele><time>2026-04-11T13:21:02.76Z</time></trkpt><trkpt lat="44.5943192" lon="7.8749185"><ele>301.5</ele><time>2026-04-11T13:21:06.76Z</time></trkpt><trkpt lat="44.5943171" lon="7.8748049"><ele>303.0</ele><time>2026-04-11T13:21:10.76Z</time></trkpt><trkpt lat="44.5943022" lon="7.8746957"><ele>304.5</ele><time>2026-04-11T13:21:13.76Z</time></trkpt><trkpt lat="44.5942845" lon="7.8745846"><ele>306.0</ele><time>2026-04-11T13:21:17.76Z</time></trkpt><trkpt lat="44.5942758" lon="7.8744771"><ele>307.5</ele><time>2026-04-11T13:21:21.76Z</time></trkpt><trkpt lat="44.5942654" lon="7.8743734"><ele>309.0</ele><time>2026-04-11T13:21:25.76Z</time></trkpt><trkpt lat="44.5942557" lon="7.8742716"><ele>310.1666666666667</ele><time>2026-04-11T13:21:29.76Z</time></trkpt><trkpt lat="44.5942509" lon="7.874155"><ele>311.3333333333333</ele><time>2026-04-11T13:21:33.76Z</time></trkpt><trkpt lat="44.5942537" lon="7.8740501"><ele>312.5</ele><time>2026-04-11T13:21:36.76Z</time></trkpt><trkpt lat="44.5942349" lon="7.8739416"><ele>313.66666666666663</ele><time>2026-04-11T13:21:39.76Z</time></trkpt><trkpt lat="44.5942185" lon="7.8738319"><ele>314.8333333333333</ele><time>2026-04-11T13:21:44.76Z</time></trkpt><trkpt lat="44.5941982" lon="7.8737433"><ele>316.0</ele><time>2026-04-11T13:21:46.76Z</time></trkpt><trkpt lat="44.5942135" lon="7.8736381"><ele>316.00000000000006</ele><time>2026-04-11T13:21:49.76Z</time></trkpt><trkpt lat="44.5942199" lon="7.8735347"><ele>316.0</ele><time>2026-04-11T13:21:52.76Z</time></trkpt><trkpt lat="44.594227" lon="7.8734439"><ele>316.0</ele><time>2026-04-11T13:21:55.76Z</time></trkpt><trkpt lat="44.5942405" lon="7.8733421"><ele>316.0</ele><time>2026-04-11T13:21:59.76Z</time></trkpt><trkpt lat="44.5941906" lon="7.8733972"><ele>316.0</ele><time>2026-04-11T13:23:44.761Z</time></trkpt><trkpt lat="44.5941264" lon="7.8733849"><ele>316.00000000000006</ele><time>2026-04-11T13:23:47.76Z</time></trkpt><trkpt lat="44.5941895" lon="7.8734172"><ele>316.0</ele><time>2026-04-11T13:25:30.767Z</time></trkpt><trkpt lat="44.5942446" lon="7.8733516"><ele>317.16666666666663</ele><time>2026-04-11T13:27:20.767Z</time></trkpt><trkpt lat="44.5942604" lon="7.8732559"><ele>318.3333333333333</ele><time>2026-04-11T13:27:23.767Z</time></trkpt><trkpt lat="44.5942663" lon="7.8731438"><ele>319.5</ele><time>2026-04-11T13:27:26.768Z</time></trkpt><trkpt lat="44.5943184" lon="7.873087"><ele>320.6666666666667</ele><time>2026-04-11T13:27:27.767Z</time></trkpt><trkpt lat="44.5942483" lon="7.8729695"><ele>321.83333333333337</ele><time>2026-04-11T13:27:28.767Z</time></trkpt><trkpt lat="44.5942359" lon="7.8728618"><ele>323.0</ele><time>2026-04-11T13:27:30.767Z</time></trkpt><trkpt lat="44.5942536" lon="7.8727185"><ele>323.0</ele><time>2026-04-11T13:27:33.767Z</time></trkpt><trkpt lat="44.5942802" lon="7.8726205"><ele>323.0</ele><time>2026-04-11T13:27:35.767Z</time></trkpt><trkpt lat="44.5943078" lon="7.8724824"><ele>323.0</ele><time>2026-04-11T13:27:38.767Z</time></trkpt><trkpt lat="44.594346" lon="7.8723569"><ele>323.0</ele><time>2026-04-11T13:27:40.767Z</time></trkpt><trkpt lat="44.5943723" lon="7.872232"><ele>323.0</ele><time>2026-04-11T13:27:42.767Z</time></trkpt><trkpt lat="44.5943832" lon="7.8721063"><ele>323.59999999999997</ele><time>2026-04-11T13:27:44.767Z</time></trkpt><trkpt lat="44.5943662" lon="7.8719851"><ele>324.2</ele><time>2026-04-11T13:27:46.767Z</time></trkpt><trkpt lat="44.5943536" lon="7.8718541"><ele>324.8</ele><time>2026-04-11T13:27:48.767Z</time></trkpt><trkpt lat="44.5943408" lon="7.871714"><ele>325.4</ele><time>2026-04-11T13:27:50.767Z</time></trkpt><trkpt lat="44.5943161" lon="7.8715911"><ele>326.0</ele><time>2026-04-11T13:27:52.767Z</time></trkpt><trkpt lat="44.5942984" lon="7.8714661"><ele>325.83333333333337</ele><time>2026-04-11T13:27:54.767Z</time></trkpt><trkpt lat="44.5943109" lon="7.8713409"><ele>325.6666666666667</ele><time>2026-04-11T13:27:56.767Z</time></trkpt><trkpt lat="44.5943306" lon="7.8712109"><ele>325.5</ele><time>2026-04-11T13:27:58.767Z</time></trkpt><trkpt lat="44.5943462" lon="7.8711091"><ele>325.3333333333333</ele><time>2026-04-11T13:28:00.767Z</time></trkpt><trkpt lat="44.5944421" lon="7.8710869"><ele>325.16666666666663</ele><time>2026-04-11T13:28:02.767Z</time></trkpt><trkpt lat="44.5945236" lon="7.8710951"><ele>325.0</ele><time>2026-04-11T13:28:04.767Z</time></trkpt><trkpt lat="44.594629" lon="7.8710681"><ele>325.0</ele><time>2026-04-11T13:28:06.767Z</time></trkpt><trkpt lat="44.5947199" lon="7.8710512"><ele>325.0</ele><time>2026-04-11T13:28:08.767Z</time></trkpt><trkpt lat="44.5948324" lon="7.8710521"><ele>325.0</ele><time>2026-04-11T13:28:10.767Z</time></trkpt><trkpt lat="44.5949043" lon="7.8710583"><ele>325.0</ele><time>2026-04-11T13:28:11.767Z</time></trkpt><trkpt lat="44.5949718" lon="7.871052"><ele>325.0</ele><time>2026-04-11T13:28:12.767Z</time></trkpt><trkpt lat="44.5950729" lon="7.8710473"><ele>325.0</ele><time>2026-04-11T13:28:14.767Z</time></trkpt><trkpt lat="44.5951409" lon="7.871047"><ele>325.0</ele><time>2026-04-11T13:28:17.767Z</time></trkpt><trkpt lat="44.5952061" lon="7.8710252"><ele>325.0</ele><time>2026-04-11T13:28:19.767Z</time></trkpt><trkpt lat="44.595298" lon="7.8709773"><ele>325.0</ele><time>2026-04-11T13:28:22.767Z</time></trkpt><trkpt lat="44.5955498" lon="7.8707544"><ele>325.5</ele><time>2026-04-11T13:28:28.767Z</time></trkpt><trkpt lat="44.5956295" lon="7.8707086"><ele>326.0</ele><time>2026-04-11T13:28:30.767Z</time></trkpt><trkpt lat="44.5957314" lon="7.8707462"><ele>326.5</ele><time>2026-04-11T13:28:32.767Z</time></trkpt><trkpt lat="44.5958024" lon="7.8707529"><ele>327.0</ele><time>2026-04-11T13:28:33.767Z</time></trkpt><trkpt lat="44.5958851" lon="7.8707464"><ele>327.5</ele><time>2026-04-11T13:28:36.767Z</time></trkpt><trkpt lat="44.5959717" lon="7.8707071"><ele>328.0</ele><time>2026-04-11T13:28:38.768Z</time></trkpt><trkpt lat="44.5960603" lon="7.870673"><ele>328.0</ele><time>2026-04-11T13:28:40.767Z</time></trkpt><trkpt lat="44.5961543" lon="7.8706502"><ele>328.0</ele><time>2026-04-11T13:28:42.767Z</time></trkpt><trkpt lat="44.5962566" lon="7.8706165"><ele>328.0</ele><time>2026-04-11T13:28:44.767Z</time></trkpt><trkpt lat="44.5963352" lon="7.8705917"><ele>328.0</ele><time>2026-04-11T13:28:46.767Z</time></trkpt><trkpt lat="44.5964326" lon="7.8705505"><ele>328.0</ele><time>2026-04-11T13:28:48.767Z</time></trkpt><trkpt lat="44.5965189" lon="7.8705338"><ele>327.79999999999995</ele><time>2026-04-11T13:28:50.767Z</time></trkpt><trkpt lat="44.5965815" lon="7.8705466"><ele>327.6</ele><time>2026-04-11T13:28:51.767Z</time></trkpt><trkpt lat="44.5966725" lon="7.8705339"><ele>327.4</ele><time>2026-04-11T13:28:53.767Z</time></trkpt><trkpt lat="44.5967713" lon="7.8705223"><ele>327.20000000000005</ele><time>2026-04-11T13:28:55.767Z</time></trkpt><trkpt lat="44.5968694" lon="7.8705045"><ele>327.0</ele><time>2026-04-11T13:28:57.767Z</time></trkpt><trkpt lat="44.5969715" lon="7.8705082"><ele>327.0</ele><time>2026-04-11T13:28:59.767Z</time></trkpt><trkpt lat="44.5970921" lon="7.8705331"><ele>327.0</ele><time>2026-04-11T13:29:01.767Z</time></trkpt><trkpt lat="44.5972091" lon="7.8705274"><ele>327.0</ele><time>2026-04-11T13:29:03.768Z</time></trkpt><trkpt lat="44.597329" lon="7.8704847"><ele>327.0</ele><time>2026-04-11T13:29:05.767Z</time></trkpt><trkpt lat="44.5973921" lon="7.8704485"><ele>327.0</ele><time>2026-04-11T13:29:06.767Z</time></trkpt><trkpt lat="44.5974967" lon="7.8704071"><ele>327.0</ele><time>2026-04-11T13:29:08.767Z</time></trkpt><trkpt lat="44.5976156" lon="7.8704155"><ele>327.0</ele><time>2026-04-11T13:29:10.767Z</time></trkpt><trkpt lat="44.5977309" lon="7.8704009"><ele>327.0</ele><time>2026-04-11T13:29:12.767Z</time></trkpt><trkpt lat="44.5978306" lon="7.8703729"><ele>327.0</ele><time>2026-04-11T13:29:14.767Z</time></trkpt><trkpt lat="44.5979532" lon="7.8703369"><ele>327.0</ele><time>2026-04-11T13:29:16.768Z</time></trkpt><trkpt lat="44.5980246" lon="7.8703369"><ele>327.0</ele><time>2026-04-11T13:29:17.767Z</time></trkpt><trkpt lat="44.5981113" lon="7.8703581"><ele>327.0</ele><time>2026-04-11T13:29:18.767Z</time></trkpt><trkpt lat="44.5981799" lon="7.8703409"><ele>327.0</ele><time>2026-04-11T13:29:19.767Z</time></trkpt><trkpt lat="44.5982469" lon="7.8703262"><ele>327.0</ele><time>2026-04-11T13:29:20.767Z</time></trkpt><trkpt lat="44.5983118" lon="7.8703116"><ele>327.0</ele><time>2026-04-11T13:29:21.767Z</time></trkpt><trkpt lat="44.598441" lon="7.8702941"><ele>327.0</ele><time>2026-04-11T13:29:23.767Z</time></trkpt><trkpt lat="44.5985056" lon="7.8702803"><ele>327.0</ele><time>2026-04-11T13:29:24.767Z</time></trkpt><trkpt lat="44.5985689" lon="7.8702667"><ele>327.0</ele><time>2026-04-11T13:29:25.767Z</time></trkpt><trkpt lat="44.5986339" lon="7.870252"><ele>327.0</ele><time>2026-04-11T13:29:26.767Z</time></trkpt><trkpt lat="44.5987569" lon="7.8702192"><ele>327.0</ele><time>2026-04-11T13:29:28.767Z</time></trkpt><trkpt lat="44.5988292" lon="7.8702073"><ele>327.0</ele><time>2026-04-11T13:29:29.767Z</time></trkpt><trkpt lat="44.5989036" lon="7.8702006"><ele>326.8333333333333</ele><time>2026-04-11T13:29:30.767Z</time></trkpt><trkpt lat="44.5989726" lon="7.8702003"><ele>326.6666666666667</ele><time>2026-04-11T13:29:31.767Z</time></trkpt><trkpt lat="44.59904" lon="7.8702125"><ele>326.5</ele><time>2026-04-11T13:29:32.767Z</time></trkpt><trkpt lat="44.5991077" lon="7.8702058"><ele>326.33333333333337</ele><time>2026-04-11T13:29:33.767Z</time></trkpt><trkpt lat="44.5991709" lon="7.8701851"><ele>326.1666666666667</ele><time>2026-04-11T13:29:34.767Z</time></trkpt><trkpt lat="44.5993059" lon="7.8701606"><ele>326.0</ele><time>2026-04-11T13:29:36.767Z</time></trkpt><trkpt lat="44.5993747" lon="7.8701576"><ele>326.0</ele><time>2026-04-11T13:29:37.767Z</time></trkpt><trkpt lat="44.5994444" lon="7.8701498"><ele>326.0</ele><time>2026-04-11T13:29:38.767Z</time></trkpt><trkpt lat="44.5995604" lon="7.8701165"><ele>326.0</ele><time>2026-04-11T13:29:40.767Z</time></trkpt><trkpt lat="44.5996269" lon="7.870103"><ele>326.0</ele><time>2026-04-11T13:29:41.767Z</time></trkpt><trkpt lat="44.5996987" lon="7.8700918"><ele>326.0</ele><time>2026-04-11T13:29:42.767Z</time></trkpt><trkpt lat="44.5997647" lon="7.8700857"><ele>326.0</ele><time>2026-04-11T13:29:43.767Z</time></trkpt><trkpt lat="44.5998298" lon="7.870079"><ele>326.1666666666667</ele><time>2026-04-11T13:29:44.767Z</time></trkpt><trkpt lat="44.5998924" lon="7.8700681"><ele>326.33333333333337</ele><time>2026-04-11T13:29:45.767Z</time></trkpt><trkpt lat="44.5999575" lon="7.8700397"><ele>326.5</ele><time>2026-04-11T13:29:46.767Z</time></trkpt><trkpt lat="44.6000244" lon="7.8700356"><ele>326.6666666666667</ele><time>2026-04-11T13:29:47.767Z</time></trkpt><trkpt lat="44.6000916" lon="7.8700257"><ele>326.8333333333333</ele><time>2026-04-11T13:29:48.767Z</time></trkpt><trkpt lat="44.6002183" lon="7.8700231"><ele>327.0</ele><time>2026-04-11T13:29:50.767Z</time></trkpt><trkpt lat="44.6002808" lon="7.8700111"><ele>327.0</ele><time>2026-04-11T13:29:51.767Z</time></trkpt><trkpt lat="44.6003457" lon="7.8699986"><ele>327.0</ele><time>2026-04-11T13:29:52.767Z</time></trkpt><trkpt lat="44.6004085" lon="7.8699875"><ele>327.0</ele><time>2026-04-11T13:29:53.767Z</time></trkpt><trkpt lat="44.6005367" lon="7.869964"><ele>327.0</ele><time>2026-04-11T13:29:55.767Z</time></trkpt><trkpt lat="44.6006024" lon="7.8699574"><ele>327.0</ele><time>2026-04-11T13:29:56.767Z</time></trkpt><trkpt lat="44.6006676" lon="7.8699442"><ele>327.0</ele><time>2026-04-11T13:29:57.767Z</time></trkpt><trkpt lat="44.6007328" lon="7.8699335"><ele>327.0</ele><time>2026-04-11T13:29:58.768Z</time></trkpt><trkpt lat="44.6007977" lon="7.8699212"><ele>327.0</ele><time>2026-04-11T13:29:59.767Z</time></trkpt><trkpt lat="44.600866" lon="7.8699139"><ele>327.0</ele><time>2026-04-11T13:30:00.767Z</time></trkpt><trkpt lat="44.6009321" lon="7.8699035"><ele>327.0</ele><time>2026-04-11T13:30:01.767Z</time></trkpt><trkpt lat="44.6009968" lon="7.8698911"><ele>327.0</ele><time>2026-04-11T13:30:02.767Z</time></trkpt><trkpt lat="44.6010611" lon="7.869881"><ele>327.0</ele><time>2026-04-11T13:30:03.767Z</time></trkpt><trkpt lat="44.601131" lon="7.8698785"><ele>327.0</ele><time>2026-04-11T13:30:04.767Z</time></trkpt><trkpt lat="44.6011976" lon="7.869871"><ele>327.0</ele><time>2026-04-11T13:30:05.767Z</time></trkpt><trkpt lat="44.6012622" lon="7.869862"><ele>327.0</ele><time>2026-04-11T13:30:06.767Z</time></trkpt><trkpt lat="44.6013892" lon="7.8698368"><ele>327.0</ele><time>2026-04-11T13:30:08.767Z</time></trkpt><trkpt lat="44.6014524" lon="7.8698141"><ele>327.0</ele><time>2026-04-11T13:30:09.767Z</time></trkpt><trkpt lat="44.6015681" lon="7.8697887"><ele>327.0</ele><time>2026-04-11T13:30:11.767Z</time></trkpt><trkpt lat="44.6016819" lon="7.8697629"><ele>327.0</ele><time>2026-04-11T13:30:13.767Z</time></trkpt><trkpt lat="44.601788" lon="7.8698025"><ele>327.0</ele><time>2026-04-11T13:30:15.767Z</time></trkpt><trkpt lat="44.6018359" lon="7.8699009"><ele>327.0</ele><time>2026-04-11T13:30:17.767Z</time></trkpt><trkpt lat="44.6018466" lon="7.8700227"><ele>327.0</ele><time>2026-04-11T13:30:19.767Z</time></trkpt><trkpt lat="44.6018671" lon="7.8701582"><ele>327.0</ele><time>2026-04-11T13:30:21.767Z</time></trkpt><trkpt lat="44.6018925" lon="7.8703014"><ele>326.20000000000005</ele><time>2026-04-11T13:30:23.767Z</time></trkpt><trkpt lat="44.6019198" lon="7.8704497"><ele>325.4</ele><time>2026-04-11T13:30:25.767Z</time></trkpt><trkpt lat="44.601935" lon="7.8706016"><ele>324.6</ele><time>2026-04-11T13:30:27.767Z</time></trkpt><trkpt lat="44.6019535" lon="7.8707391"><ele>323.79999999999995</ele><time>2026-04-11T13:30:29.767Z</time></trkpt><trkpt lat="44.6019964" lon="7.8708276"><ele>323.0</ele><time>2026-04-11T13:30:31.767Z</time></trkpt><trkpt lat="44.6020694" lon="7.8708165"><ele>322.5</ele><time>2026-04-11T13:30:33.767Z</time></trkpt><trkpt lat="44.6021711" lon="7.8707811"><ele>322.0</ele><time>2026-04-11T13:30:35.767Z</time></trkpt><trkpt lat="44.6022441" lon="7.8707483"><ele>321.5</ele><time>2026-04-11T13:30:36.767Z</time></trkpt><trkpt lat="44.6023096" lon="7.8707336"><ele>321.0</ele><time>2026-04-11T13:30:37.767Z</time></trkpt><trkpt lat="44.6024331" lon="7.8707158"><ele>320.5</ele><time>2026-04-11T13:30:39.767Z</time></trkpt><trkpt lat="44.6024995" lon="7.8706932"><ele>320.0</ele><time>2026-04-11T13:30:40.767Z</time></trkpt><trkpt lat="44.6026377" lon="7.8706826"><ele>320.0</ele><time>2026-04-11T13:30:42.767Z</time></trkpt><trkpt lat="44.6027228" lon="7.8706861"><ele>320.0</ele><time>2026-04-11T13:30:43.767Z</time></trkpt><trkpt lat="44.6027969" lon="7.8706878"><ele>320.0</ele><time>2026-04-11T13:30:44.767Z</time></trkpt><trkpt lat="44.6028682" lon="7.870691"><ele>320.0</ele><time>2026-04-11T13:30:45.767Z</time></trkpt><trkpt lat="44.6029312" lon="7.8706888"><ele>320.0</ele><time>2026-04-11T13:30:46.767Z</time></trkpt><trkpt lat="44.603062" lon="7.8706668"><ele>320.0</ele><time>2026-04-11T13:30:48.767Z</time></trkpt><trkpt lat="44.6031249" lon="7.8706528"><ele>320.4</ele><time>2026-04-11T13:30:49.767Z</time></trkpt><trkpt lat="44.6032329" lon="7.8706052"><ele>320.8</ele><time>2026-04-11T13:30:51.767Z</time></trkpt><trkpt lat="44.6033271" lon="7.8705433"><ele>321.20000000000005</ele><time>2026-04-11T13:30:53.767Z</time></trkpt><trkpt lat="44.6034274" lon="7.8705538"><ele>321.6</ele><time>2026-04-11T13:30:55.767Z</time></trkpt><trkpt lat="44.6035348" lon="7.8705732"><ele>322.0</ele><time>2026-04-11T13:30:57.767Z</time></trkpt><trkpt lat="44.6036222" lon="7.8705791"><ele>322.0</ele><time>2026-04-11T13:30:59.767Z</time></trkpt><trkpt lat="44.603551" lon="7.8706398"><ele>322.0</ele><time>2026-04-11T13:31:03.767Z</time></trkpt><trkpt lat="44.6034743" lon="7.870611"><ele>322.0</ele><time>2026-04-11T13:31:06.767Z</time></trkpt><trkpt lat="44.6034348" lon="7.8705355"><ele>322.0</ele><time>2026-04-11T13:31:17.767Z</time></trkpt><trkpt lat="44.6034965" lon="7.870577"><ele>322.0</ele><time>2026-04-11T13:32:29.774Z</time></trkpt><trkpt lat="44.6036935" lon="7.8706057"><ele>322.0</ele><time>2026-04-11T13:32:33.774Z</time></trkpt><trkpt lat="44.6038166" lon="7.8705622"><ele>322.0</ele><time>2026-04-11T13:32:35.774Z</time></trkpt><trkpt lat="44.6039047" lon="7.8705751"><ele>322.0</ele><time>2026-04-11T13:32:37.775Z</time></trkpt><trkpt lat="44.6040453" lon="7.8706158"><ele>322.0</ele><time>2026-04-11T13:32:39.774Z</time></trkpt><trkpt lat="44.6041269" lon="7.8705923"><ele>322.0</ele><time>2026-04-11T13:32:41.774Z</time></trkpt><trkpt lat="44.6042323" lon="7.8705982"><ele>322.0</ele><time>2026-04-11T13:32:43.774Z</time></trkpt><trkpt lat="44.6043445" lon="7.8705925"><ele>322.0</ele><time>2026-04-11T13:32:45.774Z</time></trkpt><trkpt lat="44.6044111" lon="7.8705867"><ele>322.0</ele><time>2026-04-11T13:32:46.774Z</time></trkpt><trkpt lat="44.6044833" lon="7.8706058"><ele>322.0</ele><time>2026-04-11T13:32:47.774Z</time></trkpt><trkpt lat="44.6045539" lon="7.8706157"><ele>322.0</ele><time>2026-04-11T13:32:48.774Z</time></trkpt><trkpt lat="44.6046242" lon="7.8706223"><ele>322.0</ele><time>2026-04-11T13:32:49.774Z</time></trkpt><trkpt lat="44.6046933" lon="7.8706329"><ele>321.66666666666663</ele><time>2026-04-11T13:32:50.774Z</time></trkpt><trkpt lat="44.60482" lon="7.8706433"><ele>321.3333333333333</ele><time>2026-04-11T13:32:52.774Z</time></trkpt><trkpt lat="44.6048862" lon="7.8706409"><ele>321.0</ele><time>2026-04-11T13:32:53.774Z</time></trkpt><trkpt lat="44.6049608" lon="7.8706336"><ele>320.6666666666667</ele><time>2026-04-11T13:32:54.774Z</time></trkpt><trkpt lat="44.6050374" lon="7.8706464"><ele>320.33333333333337</ele><time>2026-04-11T13:32:55.774Z</time></trkpt><trkpt lat="44.6051347" lon="7.8706744"><ele>320.0</ele><time>2026-04-11T13:32:56.774Z</time></trkpt><trkpt lat="44.6052181" lon="7.8707334"><ele>320.0</ele><time>2026-04-11T13:32:57.774Z</time></trkpt><trkpt lat="44.6052936" lon="7.8708261"><ele>320.0</ele><time>2026-04-11T13:32:58.774Z</time></trkpt><trkpt lat="44.6053766" lon="7.8709342"><ele>320.0</ele><time>2026-04-11T13:32:59.774Z</time></trkpt><trkpt lat="44.6054463" lon="7.8710629"><ele>320.0</ele><time>2026-04-11T13:33:00.774Z</time></trkpt><trkpt lat="44.6055263" lon="7.8711742"><ele>320.0</ele><time>2026-04-11T13:33:01.774Z</time></trkpt><trkpt lat="44.6056001" lon="7.8712947"><ele>316.25</ele><time>2026-04-11T13:33:02.774Z</time></trkpt><trkpt lat="44.6056958" lon="7.8714101"><ele>312.5</ele><time>2026-04-11T13:33:03.775Z</time></trkpt><trkpt lat="44.6058002" lon="7.871528"><ele>308.75</ele><time>2026-04-11T13:33:04.775Z</time></trkpt><trkpt lat="44.605907" lon="7.8716494"><ele>305.0</ele><time>2026-04-11T13:33:05.774Z</time></trkpt><trkpt lat="44.6060182" lon="7.8717749"><ele>302.0</ele><time>2026-04-11T13:33:06.774Z</time></trkpt><trkpt lat="44.6061164" lon="7.8719157"><ele>299.0</ele><time>2026-04-11T13:33:07.774Z</time></trkpt><trkpt lat="44.606211" lon="7.8720324"><ele>296.0</ele><time>2026-04-11T13:33:08.774Z</time></trkpt><trkpt lat="44.606306" lon="7.8721271"><ele>293.0</ele><time>2026-04-11T13:33:09.774Z</time></trkpt><trkpt lat="44.6063832" lon="7.8722009"><ele>293.0</ele><time>2026-04-11T13:33:10.775Z</time></trkpt><trkpt lat="44.6064572" lon="7.8722396"><ele>293.0</ele><time>2026-04-11T13:33:11.774Z</time></trkpt><trkpt lat="44.6065558" lon="7.872225"><ele>293.0</ele><time>2026-04-11T13:33:12.774Z</time></trkpt><trkpt lat="44.6066472" lon="7.8721875"><ele>293.0</ele><time>2026-04-11T13:33:13.774Z</time></trkpt><trkpt lat="44.6067227" lon="7.8721397"><ele>293.0</ele><time>2026-04-11T13:33:14.775Z</time></trkpt><trkpt lat="44.6067872" lon="7.8720972"><ele>293.0</ele><time>2026-04-11T13:33:15.774Z</time></trkpt><trkpt lat="44.606869" lon="7.872061"><ele>293.0</ele><time>2026-04-11T13:33:16.774Z</time></trkpt><trkpt lat="44.6069428" lon="7.8720316"><ele>293.0</ele><time>2026-04-11T13:33:17.774Z</time></trkpt><trkpt lat="44.6070285" lon="7.8720261"><ele>293.0</ele><time>2026-04-11T13:33:18.774Z</time></trkpt><trkpt lat="44.6071081" lon="7.8720291"><ele>293.0</ele><time>2026-04-11T13:33:19.774Z</time></trkpt><trkpt lat="44.6071875" lon="7.8720423"><ele>293.0</ele><time>2026-04-11T13:33:20.774Z</time></trkpt><trkpt lat="44.6072562" lon="7.8720733"><ele>293.0</ele><time>2026-04-11T13:33:21.774Z</time></trkpt><trkpt lat="44.607331" lon="7.872106"><ele>292.0</ele><time>2026-04-11T13:33:22.774Z</time></trkpt><trkpt lat="44.6074093" lon="7.8721372"><ele>291.0</ele><time>2026-04-11T13:33:23.774Z</time></trkpt><trkpt lat="44.6074799" lon="7.872174"><ele>290.0</ele><time>2026-04-11T13:33:24.774Z</time></trkpt><trkpt lat="44.6075575" lon="7.8722027"><ele>289.0</ele><time>2026-04-11T13:33:25.774Z</time></trkpt><trkpt lat="44.6076254" lon="7.8722155"><ele>288.0</ele><time>2026-04-11T13:33:26.774Z</time></trkpt><trkpt lat="44.6076977" lon="7.8722312"><ele>287.0</ele><time>2026-04-11T13:33:27.774Z</time></trkpt><trkpt lat="44.6077685" lon="7.8722502"><ele>287.85714285714283</ele><time>2026-04-11T13:33:28.774Z</time></trkpt><trkpt lat="44.6078403" lon="7.8722764"><ele>288.7142857142857</ele><time>2026-04-11T13:33:29.774Z</time></trkpt><trkpt lat="44.607905" lon="7.8722956"><ele>289.57142857142856</ele><time>2026-04-11T13:33:30.774Z</time></trkpt><trkpt lat="44.6079768" lon="7.8723146"><ele>290.42857142857144</ele><time>2026-04-11T13:33:31.774Z</time></trkpt><trkpt lat="44.6080477" lon="7.8723372"><ele>291.2857142857143</ele><time>2026-04-11T13:33:32.774Z</time></trkpt><trkpt lat="44.6081244" lon="7.8723518"><ele>292.1428571428571</ele><time>2026-04-11T13:33:33.774Z</time></trkpt><trkpt lat="44.6082011" lon="7.8723714"><ele>293.0</ele><time>2026-04-11T13:33:34.774Z</time></trkpt><trkpt lat="44.6082768" lon="7.8724051"><ele>293.0</ele><time>2026-04-11T13:33:35.774Z</time></trkpt><trkpt lat="44.6083482" lon="7.872425"><ele>293.0</ele><time>2026-04-11T13:33:36.775Z</time></trkpt><trkpt lat="44.6084174" lon="7.8724301"><ele>293.0</ele><time>2026-04-11T13:33:37.775Z</time></trkpt><trkpt lat="44.6084976" lon="7.8724319"><ele>293.0</ele><time>2026-04-11T13:33:38.774Z</time></trkpt><trkpt lat="44.6085785" lon="7.8724339"><ele>293.0</ele><time>2026-04-11T13:33:39.774Z</time></trkpt><trkpt lat="44.608668" lon="7.8724427"><ele>293.0</ele><time>2026-04-11T13:33:40.775Z</time></trkpt><trkpt lat="44.6087363" lon="7.8724415"><ele>294.0</ele><time>2026-04-11T13:33:41.775Z</time></trkpt><trkpt lat="44.6088526" lon="7.872419"><ele>295.0</ele><time>2026-04-11T13:33:43.774Z</time></trkpt><trkpt lat="44.6089144" lon="7.8723551"><ele>296.0</ele><time>2026-04-11T13:33:44.774Z</time></trkpt><trkpt lat="44.6089512" lon="7.872267"><ele>297.0</ele><time>2026-04-11T13:33:45.774Z</time></trkpt><trkpt lat="44.6089866" lon="7.8721901"><ele>298.0</ele><time>2026-04-11T13:33:46.774Z</time></trkpt><trkpt lat="44.6090155" lon="7.8721076"><ele>299.0</ele><time>2026-04-11T13:33:47.774Z</time></trkpt><trkpt lat="44.6090693" lon="7.8719677"><ele>299.0</ele><time>2026-04-11T13:33:49.774Z</time></trkpt><trkpt lat="44.6091132" lon="7.8718918"><ele>299.0</ele><time>2026-04-11T13:33:50.774Z</time></trkpt><trkpt lat="44.6091503" lon="7.8718147"><ele>299.0</ele><time>2026-04-11T13:33:51.774Z</time></trkpt><trkpt lat="44.6091784" lon="7.8717339"><ele>299.0</ele><time>2026-04-11T13:33:52.774Z</time></trkpt><trkpt lat="44.6092441" lon="7.8715755"><ele>299.0</ele><time>2026-04-11T13:33:54.774Z</time></trkpt><trkpt lat="44.6092866" lon="7.8714998"><ele>299.0</ele><time>2026-04-11T13:33:55.774Z</time></trkpt><trkpt lat="44.6093762" lon="7.8713739"><ele>299.1666666666667</ele><time>2026-04-11T13:33:57.774Z</time></trkpt><trkpt lat="44.609442" lon="7.8713503"><ele>299.33333333333337</ele><time>2026-04-11T13:33:58.774Z</time></trkpt><trkpt lat="44.609569" lon="7.8713446"><ele>299.5</ele><time>2026-04-11T13:34:00.774Z</time></trkpt><trkpt lat="44.6096338" lon="7.871349"><ele>299.6666666666667</ele><time>2026-04-11T13:34:01.774Z</time></trkpt><trkpt lat="44.6097119" lon="7.8713369"><ele>299.8333333333333</ele><time>2026-04-11T13:34:02.774Z</time></trkpt><trkpt lat="44.6097818" lon="7.8713309"><ele>300.0</ele><time>2026-04-11T13:34:03.774Z</time></trkpt><trkpt lat="44.609851" lon="7.8713252"><ele>299.8333333333333</ele><time>2026-04-11T13:34:04.774Z</time></trkpt><trkpt lat="44.6099194" lon="7.8713247"><ele>299.6666666666667</ele><time>2026-04-11T13:34:05.774Z</time></trkpt><trkpt lat="44.6100565" lon="7.8713046"><ele>299.5</ele><time>2026-04-11T13:34:07.774Z</time></trkpt><trkpt lat="44.6101199" lon="7.8713031"><ele>299.33333333333337</ele><time>2026-04-11T13:34:08.774Z</time></trkpt><trkpt lat="44.610186" lon="7.8713168"><ele>299.1666666666667</ele><time>2026-04-11T13:34:09.774Z</time></trkpt><trkpt lat="44.6102604" lon="7.871313"><ele>299.0</ele><time>2026-04-11T13:34:10.774Z</time></trkpt><trkpt lat="44.6103888" lon="7.8713044"><ele>299.0</ele><time>2026-04-11T13:34:12.774Z</time></trkpt><trkpt lat="44.6104725" lon="7.8712858"><ele>299.0</ele><time>2026-04-11T13:34:13.774Z</time></trkpt><trkpt lat="44.6106088" lon="7.8712755"><ele>299.0</ele><time>2026-04-11T13:34:15.774Z</time></trkpt><trkpt lat="44.6106876" lon="7.8712594"><ele>299.0</ele><time>2026-04-11T13:34:16.774Z</time></trkpt><trkpt lat="44.6107548" lon="7.8712506"><ele>299.0</ele><time>2026-04-11T13:34:17.774Z</time></trkpt><trkpt lat="44.6108118" lon="7.8712117"><ele>299.0</ele><time>2026-04-11T13:34:18.774Z</time></trkpt><trkpt lat="44.6108772" lon="7.8712025"><ele>299.0</ele><time>2026-04-11T13:34:19.774Z</time></trkpt><trkpt lat="44.6110006" lon="7.8711758"><ele>299.0</ele><time>2026-04-11T13:34:21.774Z</time></trkpt><trkpt lat="44.6110674" lon="7.8711662"><ele>299.0</ele><time>2026-04-11T13:34:22.774Z</time></trkpt><trkpt lat="44.6111469" lon="7.8711356"><ele>299.0</ele><time>2026-04-11T13:34:23.774Z</time></trkpt><trkpt lat="44.6112241" lon="7.8711093"><ele>299.0</ele><time>2026-04-11T13:34:24.774Z</time></trkpt><trkpt lat="44.6112892" lon="7.8711133"><ele>299.0</ele><time>2026-04-11T13:34:25.774Z</time></trkpt><trkpt lat="44.611361" lon="7.8711118"><ele>298.83333333333337</ele><time>2026-04-11T13:34:26.774Z</time></trkpt><trkpt lat="44.6114245" lon="7.871105"><ele>298.6666666666667</ele><time>2026-04-11T13:34:27.774Z</time></trkpt><trkpt lat="44.611556" lon="7.8710958"><ele>298.5</ele><time>2026-04-11T13:34:29.774Z</time></trkpt><trkpt lat="44.611621" lon="7.8710949"><ele>298.3333333333333</ele><time>2026-04-11T13:34:30.774Z</time></trkpt><trkpt lat="44.6116959" lon="7.8711033"><ele>298.16666666666663</ele><time>2026-04-11T13:34:31.774Z</time></trkpt><trkpt lat="44.6117695" lon="7.8710927"><ele>298.0</ele><time>2026-04-11T13:34:32.774Z</time></trkpt><trkpt lat="44.6118383" lon="7.8710772"><ele>298.0</ele><time>2026-04-11T13:34:33.774Z</time></trkpt><trkpt lat="44.611908" lon="7.8710635"><ele>298.0</ele><time>2026-04-11T13:34:34.774Z</time></trkpt><trkpt lat="44.61204" lon="7.8710403"><ele>298.0</ele><time>2026-04-11T13:34:36.774Z</time></trkpt><trkpt lat="44.6121089" lon="7.8710289"><ele>298.0</ele><time>2026-04-11T13:34:37.774Z</time></trkpt><trkpt lat="44.6122147" lon="7.871003"><ele>298.0</ele><time>2026-04-11T13:34:39.774Z</time></trkpt><trkpt lat="44.612278" lon="7.8710028"><ele>298.0</ele><time>2026-04-11T13:34:40.774Z</time></trkpt><trkpt lat="44.6124051" lon="7.8709964"><ele>297.7142857142857</ele><time>2026-04-11T13:34:42.774Z</time></trkpt><trkpt lat="44.6124701" lon="7.8709908"><ele>297.4285714285714</ele><time>2026-04-11T13:34:43.774Z</time></trkpt><trkpt lat="44.6125339" lon="7.8709772"><ele>297.1428571428571</ele><time>2026-04-11T13:34:44.774Z</time></trkpt><trkpt lat="44.6125975" lon="7.8709761"><ele>296.85714285714283</ele><time>2026-04-11T13:34:45.774Z</time></trkpt><trkpt lat="44.6126671" lon="7.8709759"><ele>296.57142857142856</ele><time>2026-04-11T13:34:46.774Z</time></trkpt><trkpt lat="44.6127368" lon="7.870967"><ele>296.2857142857143</ele><time>2026-04-11T13:34:47.774Z</time></trkpt><trkpt lat="44.6128023" lon="7.8709551"><ele>296.0</ele><time>2026-04-11T13:34:48.774Z</time></trkpt><trkpt lat="44.6128665" lon="7.8709444"><ele>296.33333333333337</ele><time>2026-04-11T13:34:49.775Z</time></trkpt><trkpt lat="44.6129351" lon="7.8709233"><ele>296.6666666666667</ele><time>2026-04-11T13:34:50.774Z</time></trkpt><trkpt lat="44.6130121" lon="7.8708974"><ele>297.0</ele><time>2026-04-11T13:34:51.774Z</time></trkpt><trkpt lat="44.6130896" lon="7.8708896"><ele>297.3333333333333</ele><time>2026-04-11T13:34:52.774Z</time></trkpt><trkpt lat="44.6131534" lon="7.8708827"><ele>297.66666666666663</ele><time>2026-04-11T13:34:53.774Z</time></trkpt><trkpt lat="44.6132157" lon="7.8708684"><ele>298.0</ele><time>2026-04-11T13:34:54.774Z</time></trkpt><trkpt lat="44.6133321" lon="7.8708429"><ele>298.0</ele><time>2026-04-11T13:34:56.774Z</time></trkpt><trkpt lat="44.6133975" lon="7.8708294"><ele>298.0</ele><time>2026-04-11T13:34:57.774Z</time></trkpt><trkpt lat="44.6134684" lon="7.8707992"><ele>298.0</ele><time>2026-04-11T13:34:58.774Z</time></trkpt><trkpt lat="44.6135442" lon="7.8707847"><ele>298.0</ele><time>2026-04-11T13:34:59.774Z</time></trkpt><trkpt lat="44.6136231" lon="7.8707749"><ele>298.0</ele><time>2026-04-11T13:35:00.774Z</time></trkpt><trkpt lat="44.6136936" lon="7.8707585"><ele>298.0</ele><time>2026-04-11T13:35:01.774Z</time></trkpt><trkpt lat="44.6138173" lon="7.8707318"><ele>298.3333333333333</ele><time>2026-04-11T13:35:03.774Z</time></trkpt><trkpt lat="44.6139378" lon="7.870693"><ele>298.66666666666663</ele><time>2026-04-11T13:35:05.774Z</time></trkpt><trkpt lat="44.6140145" lon="7.870678"><ele>299.0</ele><time>2026-04-11T13:35:06.774Z</time></trkpt><trkpt lat="44.6140828" lon="7.8706523"><ele>299.3333333333333</ele><time>2026-04-11T13:35:07.774Z</time></trkpt><trkpt lat="44.6141466" lon="7.8706307"><ele>299.6666666666667</ele><time>2026-04-11T13:35:08.774Z</time></trkpt><trkpt lat="44.61421" lon="7.8706121"><ele>300.0</ele><time>2026-04-11T13:35:09.774Z</time></trkpt><trkpt lat="44.6143409" lon="7.8705696"><ele>300.0</ele><time>2026-04-11T13:35:11.774Z</time></trkpt><trkpt lat="44.6144601" lon="7.8705198"><ele>300.0</ele><time>2026-04-11T13:35:13.774Z</time></trkpt><trkpt lat="44.6145243" lon="7.8705158"><ele>300.0</ele><time>2026-04-11T13:35:14.774Z</time></trkpt><trkpt lat="44.6145969" lon="7.8705083"><ele>300.0</ele><time>2026-04-11T13:35:15.774Z</time></trkpt><trkpt lat="44.6146762" lon="7.8704914"><ele>300.0</ele><time>2026-04-11T13:35:16.774Z</time></trkpt><trkpt lat="44.6147463" lon="7.8704622"><ele>300.0</ele><time>2026-04-11T13:35:17.774Z</time></trkpt><trkpt lat="44.6148145" lon="7.8704323"><ele>299.8333333333333</ele><time>2026-04-11T13:35:18.774Z</time></trkpt><trkpt lat="44.6148795" lon="7.8704184"><ele>299.6666666666667</ele><time>2026-04-11T13:35:19.774Z</time></trkpt><trkpt lat="44.6149514" lon="7.8704072"><ele>299.5</ele><time>2026-04-11T13:35:20.774Z</time></trkpt><trkpt lat="44.6150265" lon="7.8703919"><ele>299.33333333333337</ele><time>2026-04-11T13:35:21.774Z</time></trkpt><trkpt lat="44.6151054" lon="7.8703715"><ele>299.1666666666667</ele><time>2026-04-11T13:35:22.774Z</time></trkpt><trkpt lat="44.6151829" lon="7.8703548"><ele>299.0</ele><time>2026-04-11T13:35:23.774Z</time></trkpt><trkpt lat="44.6152708" lon="7.8703604"><ele>299.1428571428571</ele><time>2026-04-11T13:35:24.774Z</time></trkpt><trkpt lat="44.6153483" lon="7.8703479"><ele>299.2857142857143</ele><time>2026-04-11T13:35:25.775Z</time></trkpt><trkpt lat="44.6154117" lon="7.8703384"><ele>299.42857142857144</ele><time>2026-04-11T13:35:26.774Z</time></trkpt><trkpt lat="44.6154857" lon="7.8703058"><ele>299.57142857142856</ele><time>2026-04-11T13:35:27.774Z</time></trkpt><trkpt lat="44.6155512" lon="7.8702961"><ele>299.7142857142857</ele><time>2026-04-11T13:35:28.775Z</time></trkpt><trkpt lat="44.6156271" lon="7.8702848"><ele>299.85714285714283</ele><time>2026-04-11T13:35:29.774Z</time></trkpt><trkpt lat="44.6157058" lon="7.8702781"><ele>300.0</ele><time>2026-04-11T13:35:30.774Z</time></trkpt><trkpt lat="44.6157832" lon="7.8702539"><ele>300.0</ele><time>2026-04-11T13:35:31.774Z</time></trkpt><trkpt lat="44.6158591" lon="7.8702336"><ele>300.0</ele><time>2026-04-11T13:35:32.774Z</time></trkpt><trkpt lat="44.6159391" lon="7.8702141"><ele>300.0</ele><time>2026-04-11T13:35:33.774Z</time></trkpt><trkpt lat="44.6160153" lon="7.8701948"><ele>300.0</ele><time>2026-04-11T13:35:34.774Z</time></trkpt><trkpt lat="44.616095" lon="7.8701733"><ele>300.0</ele><time>2026-04-11T13:35:35.774Z</time></trkpt><trkpt lat="44.6161727" lon="7.8701595"><ele>300.0</ele><time>2026-04-11T13:35:36.774Z</time></trkpt><trkpt lat="44.6162509" lon="7.8701579"><ele>299.6666666666667</ele><time>2026-04-11T13:35:37.774Z</time></trkpt><trkpt lat="44.6163243" lon="7.8701503"><ele>299.3333333333333</ele><time>2026-04-11T13:35:38.775Z</time></trkpt><trkpt lat="44.6163985" lon="7.8701313"><ele>299.0</ele><time>2026-04-11T13:35:39.774Z</time></trkpt><trkpt lat="44.6164728" lon="7.8701138"><ele>298.66666666666663</ele><time>2026-04-11T13:35:40.774Z</time></trkpt><trkpt lat="44.616558" lon="7.8700744"><ele>298.3333333333333</ele><time>2026-04-11T13:35:41.774Z</time></trkpt><trkpt lat="44.6166547" lon="7.8700511"><ele>298.0</ele><time>2026-04-11T13:35:42.774Z</time></trkpt><trkpt lat="44.6167364" lon="7.8700545"><ele>298.0</ele><time>2026-04-11T13:35:43.774Z</time></trkpt><trkpt lat="44.6168075" lon="7.8700478"><ele>298.0</ele><time>2026-04-11T13:35:44.774Z</time></trkpt><trkpt lat="44.6168763" lon="7.8700412"><ele>298.0</ele><time>2026-04-11T13:35:45.774Z</time></trkpt><trkpt lat="44.616944" lon="7.8700317"><ele>298.0</ele><time>2026-04-11T13:35:46.774Z</time></trkpt><trkpt lat="44.6170145" lon="7.8700285"><ele>298.0</ele><time>2026-04-11T13:35:47.774Z</time></trkpt><trkpt lat="44.6170825" lon="7.8700379"><ele>298.0</ele><time>2026-04-11T13:35:48.774Z</time></trkpt><trkpt lat="44.617152" lon="7.8700384"><ele>298.0</ele><time>2026-04-11T13:35:49.774Z</time></trkpt><trkpt lat="44.6172199" lon="7.8700295"><ele>297.8333333333333</ele><time>2026-04-11T13:35:50.774Z</time></trkpt><trkpt lat="44.6172849" lon="7.8700215"><ele>297.66666666666663</ele><time>2026-04-11T13:35:51.774Z</time></trkpt><trkpt lat="44.6173518" lon="7.8700144"><ele>297.5</ele><time>2026-04-11T13:35:52.774Z</time></trkpt><trkpt lat="44.6174354" lon="7.8700027"><ele>297.3333333333333</ele><time>2026-04-11T13:35:53.774Z</time></trkpt><trkpt lat="44.6175181" lon="7.8699592"><ele>297.1666666666667</ele><time>2026-04-11T13:35:54.774Z</time></trkpt><trkpt lat="44.6175895" lon="7.8699209"><ele>297.0</ele><time>2026-04-11T13:35:55.774Z</time></trkpt><trkpt lat="44.6177066" lon="7.869861"><ele>297.0</ele><time>2026-04-11T13:35:57.774Z</time></trkpt><trkpt lat="44.6177688" lon="7.8698359"><ele>297.0</ele><time>2026-04-11T13:35:58.774Z</time></trkpt><trkpt lat="44.6178357" lon="7.869835"><ele>297.0</ele><time>2026-04-11T13:35:59.774Z</time></trkpt><trkpt lat="44.6179129" lon="7.8698514"><ele>297.0</ele><time>2026-04-11T13:36:00.774Z</time></trkpt><trkpt lat="44.6179846" lon="7.869881"><ele>297.0</ele><time>2026-04-11T13:36:01.774Z</time></trkpt><trkpt lat="44.6180562" lon="7.8699277"><ele>297.0</ele><time>2026-04-11T13:36:02.774Z</time></trkpt><trkpt lat="44.618135" lon="7.8699742"><ele>297.0</ele><time>2026-04-11T13:36:03.774Z</time></trkpt><trkpt lat="44.6182078" lon="7.8700012"><ele>296.5</ele><time>2026-04-11T13:36:04.774Z</time></trkpt><trkpt lat="44.6182703" lon="7.8700224"><ele>296.0</ele><time>2026-04-11T13:36:05.774Z</time></trkpt><trkpt lat="44.6183354" lon="7.8700467"><ele>295.5</ele><time>2026-04-11T13:36:06.774Z</time></trkpt><trkpt lat="44.6184025" lon="7.8700678"><ele>295.0</ele><time>2026-04-11T13:36:07.774Z</time></trkpt><trkpt lat="44.6184715" lon="7.8700813"><ele>294.5</ele><time>2026-04-11T13:36:08.774Z</time></trkpt><trkpt lat="44.6185354" lon="7.8700878"><ele>294.0</ele><time>2026-04-11T13:36:09.774Z</time></trkpt><trkpt lat="44.6186661" lon="7.8700861"><ele>294.0</ele><time>2026-04-11T13:36:11.774Z</time></trkpt><trkpt lat="44.6187309" lon="7.8700846"><ele>294.0</ele><time>2026-04-11T13:36:12.774Z</time></trkpt><trkpt lat="44.6187952" lon="7.8700719"><ele>294.0</ele><time>2026-04-11T13:36:13.774Z</time></trkpt><trkpt lat="44.6188697" lon="7.8700589"><ele>294.0</ele><time>2026-04-11T13:36:14.774Z</time></trkpt><trkpt lat="44.6189411" lon="7.8700458"><ele>294.0</ele><time>2026-04-11T13:36:15.774Z</time></trkpt><trkpt lat="44.6190737" lon="7.8700317"><ele>294.0</ele><time>2026-04-11T13:36:17.774Z</time></trkpt><trkpt lat="44.6191444" lon="7.8700327"><ele>294.0</ele><time>2026-04-11T13:36:18.775Z</time></trkpt><trkpt lat="44.6192189" lon="7.8700287"><ele>294.0</ele><time>2026-04-11T13:36:19.774Z</time></trkpt><trkpt lat="44.6192829" lon="7.8700245"><ele>294.0</ele><time>2026-04-11T13:36:20.774Z</time></trkpt><trkpt lat="44.6193478" lon="7.8700255"><ele>294.0</ele><time>2026-04-11T13:36:21.774Z</time></trkpt><trkpt lat="44.6194173" lon="7.8700046"><ele>294.0</ele><time>2026-04-11T13:36:22.774Z</time></trkpt><trkpt lat="44.6194821" lon="7.8699967"><ele>294.0</ele><time>2026-04-11T13:36:23.774Z</time></trkpt><trkpt lat="44.6196094" lon="7.8699778"><ele>294.0</ele><time>2026-04-11T13:36:25.774Z</time></trkpt><trkpt lat="44.6196776" lon="7.86996"><ele>294.0</ele><time>2026-04-11T13:36:26.774Z</time></trkpt><trkpt lat="44.6197771" lon="7.8698339"><ele>294.0</ele><time>2026-04-11T13:36:28.774Z</time></trkpt><trkpt lat="44.619833" lon="7.8697794"><ele>294.0</ele><time>2026-04-11T13:36:29.774Z</time></trkpt><trkpt lat="44.6199331" lon="7.8696497"><ele>294.0</ele><time>2026-04-11T13:36:31.774Z</time></trkpt><trkpt lat="44.6199879" lon="7.8695796"><ele>294.0</ele><time>2026-04-11T13:36:32.774Z</time></trkpt><trkpt lat="44.6200403" lon="7.869519"><ele>294.0</ele><time>2026-04-11T13:36:33.774Z</time></trkpt><trkpt lat="44.6201052" lon="7.8694642"><ele>294.0</ele><time>2026-04-11T13:36:34.774Z</time></trkpt><trkpt lat="44.6201659" lon="7.869408"><ele>294.0</ele><time>2026-04-11T13:36:35.774Z</time></trkpt><trkpt lat="44.6202314" lon="7.8693568"><ele>294.0</ele><time>2026-04-11T13:36:36.774Z</time></trkpt><trkpt lat="44.6202902" lon="7.869306"><ele>294.0</ele><time>2026-04-11T13:36:37.774Z</time></trkpt><trkpt lat="44.6203476" lon="7.8692527"><ele>294.0</ele><time>2026-04-11T13:36:38.774Z</time></trkpt><trkpt lat="44.6204052" lon="7.8692068"><ele>293.85714285714283</ele><time>2026-04-11T13:36:39.774Z</time></trkpt><trkpt lat="44.6204704" lon="7.8691591"><ele>293.7142857142857</ele><time>2026-04-11T13:36:40.774Z</time></trkpt><trkpt lat="44.620538" lon="7.8691148"><ele>293.57142857142856</ele><time>2026-04-11T13:36:41.774Z</time></trkpt><trkpt lat="44.6206051" lon="7.8690679"><ele>293.42857142857144</ele><time>2026-04-11T13:36:42.774Z</time></trkpt><trkpt lat="44.6206689" lon="7.8690263"><ele>293.2857142857143</ele><time>2026-04-11T13:36:43.774Z</time></trkpt><trkpt lat="44.6207339" lon="7.8689827"><ele>293.1428571428571</ele><time>2026-04-11T13:36:44.774Z</time></trkpt><trkpt lat="44.6208008" lon="7.868936"><ele>293.0</ele><time>2026-04-11T13:36:45.774Z</time></trkpt><trkpt lat="44.6208657" lon="7.868893"><ele>292.99999999999994</ele><time>2026-04-11T13:36:46.774Z</time></trkpt><trkpt lat="44.6209291" lon="7.8688453"><ele>293.0</ele><time>2026-04-11T13:36:47.774Z</time></trkpt><trkpt lat="44.6209906" lon="7.8687989"><ele>293.0</ele><time>2026-04-11T13:36:48.774Z</time></trkpt><trkpt lat="44.6210602" lon="7.8687564"><ele>293.0</ele><time>2026-04-11T13:36:49.774Z</time></trkpt><trkpt lat="44.6211259" lon="7.8687128"><ele>293.0</ele><time>2026-04-11T13:36:50.775Z</time></trkpt><trkpt lat="44.6211879" lon="7.8686683"><ele>292.99999999999994</ele><time>2026-04-11T13:36:51.774Z</time></trkpt><trkpt lat="44.6212536" lon="7.8686333"><ele>293.0</ele><time>2026-04-11T13:36:52.774Z</time></trkpt><trkpt lat="44.6213231" lon="7.868599"><ele>292.99999999999994</ele><time>2026-04-11T13:36:53.774Z</time></trkpt><trkpt lat="44.621392" lon="7.8685601"><ele>293.0</ele><time>2026-04-11T13:36:54.774Z</time></trkpt><trkpt lat="44.6214608" lon="7.8685181"><ele>293.0</ele><time>2026-04-11T13:36:55.774Z</time></trkpt><trkpt lat="44.6215269" lon="7.8684818"><ele>293.0</ele><time>2026-04-11T13:36:56.775Z</time></trkpt><trkpt lat="44.6215959" lon="7.8684385"><ele>293.0</ele><time>2026-04-11T13:36:57.774Z</time></trkpt><trkpt lat="44.6216639" lon="7.8683902"><ele>292.99999999999994</ele><time>2026-04-11T13:36:58.774Z</time></trkpt><trkpt lat="44.621725" lon="7.8683388"><ele>293.0</ele><time>2026-04-11T13:36:59.774Z</time></trkpt><trkpt lat="44.6217898" lon="7.8682916"><ele>293.0</ele><time>2026-04-11T13:37:00.774Z</time></trkpt><trkpt lat="44.6218552" lon="7.8682367"><ele>293.0</ele><time>2026-04-11T13:37:01.774Z</time></trkpt><trkpt lat="44.6219226" lon="7.8681813"><ele>293.0</ele><time>2026-04-11T13:37:02.774Z</time></trkpt><trkpt lat="44.6219853" lon="7.8681337"><ele>293.0</ele><time>2026-04-11T13:37:03.774Z</time></trkpt><trkpt lat="44.6220513" lon="7.8680776"><ele>293.0</ele><time>2026-04-11T13:37:04.774Z</time></trkpt><trkpt lat="44.6221171" lon="7.8680138"><ele>293.0</ele><time>2026-04-11T13:37:05.774Z</time></trkpt><trkpt lat="44.6221828" lon="7.867958"><ele>293.0</ele><time>2026-04-11T13:37:06.774Z</time></trkpt><trkpt lat="44.6222411" lon="7.8679169"><ele>293.0</ele><time>2026-04-11T13:37:07.774Z</time></trkpt><trkpt lat="44.6223586" lon="7.8678239"><ele>293.0</ele><time>2026-04-11T13:37:09.774Z</time></trkpt><trkpt lat="44.6224212" lon="7.8677772"><ele>293.0</ele><time>2026-04-11T13:37:10.774Z</time></trkpt><trkpt lat="44.6224764" lon="7.8677313"><ele>293.0</ele><time>2026-04-11T13:37:11.774Z</time></trkpt><trkpt lat="44.6225387" lon="7.8676841"><ele>293.0</ele><time>2026-04-11T13:37:12.774Z</time></trkpt><trkpt lat="44.6226043" lon="7.867634"><ele>292.99999999999994</ele><time>2026-04-11T13:37:13.774Z</time></trkpt><trkpt lat="44.6226654" lon="7.8675876"><ele>293.0</ele><time>2026-04-11T13:37:14.774Z</time></trkpt><trkpt lat="44.6227299" lon="7.8675383"><ele>293.0</ele><time>2026-04-11T13:37:15.774Z</time></trkpt><trkpt lat="44.6227929" lon="7.8674922"><ele>293.0</ele><time>2026-04-11T13:37:16.774Z</time></trkpt><trkpt lat="44.6228537" lon="7.867441"><ele>293.0</ele><time>2026-04-11T13:37:17.774Z</time></trkpt><trkpt lat="44.6229216" lon="7.867384"><ele>292.99999999999994</ele><time>2026-04-11T13:37:18.774Z</time></trkpt><trkpt lat="44.6229806" lon="7.8673379"><ele>293.0</ele><time>2026-04-11T13:37:19.774Z</time></trkpt><trkpt lat="44.6230378" lon="7.8672902"><ele>293.0</ele><time>2026-04-11T13:37:20.774Z</time></trkpt><trkpt lat="44.6230985" lon="7.8672534"><ele>293.0</ele><time>2026-04-11T13:37:21.774Z</time></trkpt><trkpt lat="44.6231574" lon="7.8671981"><ele>293.0</ele><time>2026-04-11T13:37:22.774Z</time></trkpt><trkpt lat="44.6232119" lon="7.8671532"><ele>293.0</ele><time>2026-04-11T13:37:23.774Z</time></trkpt><trkpt lat="44.6232717" lon="7.8671084"><ele>293.0</ele><time>2026-04-11T13:37:24.774Z</time></trkpt><trkpt lat="44.6233861" lon="7.8670216"><ele>293.0</ele><time>2026-04-11T13:37:26.774Z</time></trkpt><trkpt lat="44.6234932" lon="7.866934"><ele>292.99999999999994</ele><time>2026-04-11T13:37:28.774Z</time></trkpt><trkpt lat="44.6235594" lon="7.8668926"><ele>293.0</ele><time>2026-04-11T13:37:29.774Z</time></trkpt><trkpt lat="44.6236249" lon="7.8668503"><ele>293.0</ele><time>2026-04-11T13:37:30.774Z</time></trkpt><trkpt lat="44.6236857" lon="7.8668059"><ele>293.0</ele><time>2026-04-11T13:37:31.774Z</time></trkpt><trkpt lat="44.6237459" lon="7.8667592"><ele>293.0</ele><time>2026-04-11T13:37:32.774Z</time></trkpt><trkpt lat="44.6238054" lon="7.8667106"><ele>292.99999999999994</ele><time>2026-04-11T13:37:33.774Z</time></trkpt><trkpt lat="44.6238649" lon="7.8666609"><ele>293.0</ele><time>2026-04-11T13:37:34.774Z</time></trkpt><trkpt lat="44.6239221" lon="7.8666122"><ele>292.8</ele><time>2026-04-11T13:37:35.774Z</time></trkpt><trkpt lat="44.6239759" lon="7.8665636"><ele>292.6</ele><time>2026-04-11T13:37:36.774Z</time></trkpt><trkpt lat="44.6240546" lon="7.8664398"><ele>292.4</ele><time>2026-04-11T13:37:38.774Z</time></trkpt><trkpt lat="44.6241323" lon="7.8663068"><ele>292.2</ele><time>2026-04-11T13:37:40.774Z</time></trkpt><trkpt lat="44.6241035" lon="7.8661555"><ele>292.0</ele><time>2026-04-11T13:37:42.774Z</time></trkpt><trkpt lat="44.6240439" lon="7.8659842"><ele>292.16666666666663</ele><time>2026-04-11T13:37:44.774Z</time></trkpt><trkpt lat="44.6240225" lon="7.865898"><ele>292.3333333333333</ele><time>2026-04-11T13:37:45.774Z</time></trkpt><trkpt lat="44.6239856" lon="7.8657436"><ele>292.5</ele><time>2026-04-11T13:37:47.774Z</time></trkpt><trkpt lat="44.6239398" lon="7.8655923"><ele>292.6666666666667</ele><time>2026-04-11T13:37:49.774Z</time></trkpt><trkpt lat="44.6239074" lon="7.8655019"><ele>292.83333333333337</ele><time>2026-04-11T13:37:50.774Z</time></trkpt><trkpt lat="44.6238819" lon="7.8654198"><ele>293.0</ele><time>2026-04-11T13:37:51.774Z</time></trkpt><trkpt lat="44.6238496" lon="7.8652741"><ele>293.0</ele><time>2026-04-11T13:37:53.774Z</time></trkpt><trkpt lat="44.6238406" lon="7.8651862"><ele>293.0</ele><time>2026-04-11T13:37:54.774Z</time></trkpt><trkpt lat="44.6238587" lon="7.8650973"><ele>293.0</ele><time>2026-04-11T13:37:55.774Z</time></trkpt><trkpt lat="44.6239055" lon="7.8650342"><ele>293.0</ele><time>2026-04-11T13:37:56.774Z</time></trkpt><trkpt lat="44.6239659" lon="7.8649896"><ele>293.0</ele><time>2026-04-11T13:37:57.774Z</time></trkpt><trkpt lat="44.6240728" lon="7.8649215"><ele>293.0</ele><time>2026-04-11T13:37:59.774Z</time></trkpt><trkpt lat="44.6241741" lon="7.8648407"><ele>293.1666666666667</ele><time>2026-04-11T13:38:01.774Z</time></trkpt><trkpt lat="44.6242258" lon="7.8647798"><ele>293.33333333333337</ele><time>2026-04-11T13:38:02.774Z</time></trkpt><trkpt lat="44.6242942" lon="7.8647242"><ele>293.5</ele><time>2026-04-11T13:38:03.774Z</time></trkpt><trkpt lat="44.62435" lon="7.8646713"><ele>293.6666666666667</ele><time>2026-04-11T13:38:04.774Z</time></trkpt><trkpt lat="44.6244469" lon="7.8645631"><ele>293.8333333333333</ele><time>2026-04-11T13:38:06.774Z</time></trkpt><trkpt lat="44.6245008" lon="7.8644916"><ele>294.0</ele><time>2026-04-11T13:38:07.774Z</time></trkpt><trkpt lat="44.624557" lon="7.8644338"><ele>293.59999999999997</ele><time>2026-04-11T13:38:08.774Z</time></trkpt><trkpt lat="44.6246309" lon="7.8643611"><ele>293.2</ele><time>2026-04-11T13:38:09.774Z</time></trkpt><trkpt lat="44.6247037" lon="7.8642813"><ele>292.79999999999995</ele><time>2026-04-11T13:38:10.774Z</time></trkpt><trkpt lat="44.6247817" lon="7.8641917"><ele>292.4</ele><time>2026-04-11T13:38:12.774Z</time></trkpt><trkpt lat="44.6248652" lon="7.8640909"><ele>292.0</ele><time>2026-04-11T13:38:14.774Z</time></trkpt><trkpt lat="44.6249592" lon="7.864003"><ele>292.0</ele><time>2026-04-11T13:38:16.774Z</time></trkpt><trkpt lat="44.6250183" lon="7.8639689"><ele>292.0</ele><time>2026-04-11T13:38:17.774Z</time></trkpt><trkpt lat="44.6251257" lon="7.8638987"><ele>292.0</ele><time>2026-04-11T13:38:19.774Z</time></trkpt><trkpt lat="44.6252243" lon="7.863841"><ele>292.0</ele><time>2026-04-11T13:38:21.774Z</time></trkpt><trkpt lat="44.6252876" lon="7.8637949"><ele>292.0</ele><time>2026-04-11T13:38:23.774Z</time></trkpt><trkpt lat="44.6253256" lon="7.8637217"><ele>292.0</ele><time>2026-04-11T13:38:25.774Z</time></trkpt><trkpt lat="44.6253848" lon="7.8635942"><ele>291.8333333333333</ele><time>2026-04-11T13:38:27.774Z</time></trkpt><trkpt lat="44.6254606" lon="7.863519"><ele>291.66666666666663</ele><time>2026-04-11T13:38:29.774Z</time></trkpt><trkpt lat="44.625566" lon="7.863466"><ele>291.5</ele><time>2026-04-11T13:38:31.774Z</time></trkpt><trkpt lat="44.6256347" lon="7.8634644"><ele>291.3333333333333</ele><time>2026-04-11T13:38:32.774Z</time></trkpt><trkpt lat="44.6257096" lon="7.8634719"><ele>291.1666666666667</ele><time>2026-04-11T13:38:33.774Z</time></trkpt><trkpt lat="44.6257761" lon="7.8634924"><ele>291.0</ele><time>2026-04-11T13:38:34.774Z</time></trkpt><trkpt lat="44.6258452" lon="7.8635199"><ele>291.0</ele><time>2026-04-11T13:38:35.774Z</time></trkpt><trkpt lat="44.6259103" lon="7.8635466"><ele>291.0</ele><time>2026-04-11T13:38:36.774Z</time></trkpt><trkpt lat="44.6259783" lon="7.8635797"><ele>291.0</ele><time>2026-04-11T13:38:37.774Z</time></trkpt><trkpt lat="44.6260378" lon="7.8636108"><ele>291.0</ele><time>2026-04-11T13:38:38.774Z</time></trkpt><trkpt lat="44.6261085" lon="7.863637"><ele>291.0</ele><time>2026-04-11T13:38:39.774Z</time></trkpt><trkpt lat="44.6261803" lon="7.8636659"><ele>291.0</ele><time>2026-04-11T13:38:40.774Z</time></trkpt><trkpt lat="44.6262583" lon="7.8637077"><ele>291.0</ele><time>2026-04-11T13:38:41.775Z</time></trkpt><trkpt lat="44.6263338" lon="7.8637397"><ele>290.5</ele><time>2026-04-11T13:38:42.774Z</time></trkpt><trkpt lat="44.6264158" lon="7.8637536"><ele>290.0</ele><time>2026-04-11T13:38:43.774Z</time></trkpt><trkpt lat="44.6264961" lon="7.8637529"><ele>289.5</ele><time>2026-04-11T13:38:44.775Z</time></trkpt><trkpt lat="44.6265783" lon="7.8637443"><ele>289.0</ele><time>2026-04-11T13:38:45.774Z</time></trkpt><trkpt lat="44.6266575" lon="7.8637355"><ele>288.5</ele><time>2026-04-11T13:38:46.779Z</time></trkpt><trkpt lat="44.6267429" lon="7.8636853"><ele>288.0</ele><time>2026-04-11T13:38:48.779Z</time></trkpt><trkpt lat="44.6268311" lon="7.8636119"><ele>288.0</ele><time>2026-04-11T13:38:50.779Z</time></trkpt><trkpt lat="44.6269352" lon="7.86356"><ele>288.0</ele><time>2026-04-11T13:38:52.779Z</time></trkpt><trkpt lat="44.6270414" lon="7.8635083"><ele>288.0</ele><time>2026-04-11T13:38:54.779Z</time></trkpt><trkpt lat="44.627139" lon="7.8634193"><ele>288.0</ele><time>2026-04-11T13:38:56.779Z</time></trkpt><trkpt lat="44.6272268" lon="7.8633457"><ele>288.0</ele><time>2026-04-11T13:38:58.779Z</time></trkpt><trkpt lat="44.6273097" lon="7.8632608"><ele>288.8</ele><time>2026-04-11T13:39:00.779Z</time></trkpt><trkpt lat="44.6273994" lon="7.8632295"><ele>289.6</ele><time>2026-04-11T13:39:02.779Z</time></trkpt><trkpt lat="44.6274907" lon="7.8632217"><ele>290.4</ele><time>2026-04-11T13:39:04.779Z</time></trkpt><trkpt lat="44.6275927" lon="7.8631607"><ele>291.2</ele><time>2026-04-11T13:39:06.779Z</time></trkpt><trkpt lat="44.6276878" lon="7.8630798"><ele>292.0</ele><time>2026-04-11T13:39:08.779Z</time></trkpt><trkpt lat="44.62778" lon="7.8630156"><ele>289.75</ele><time>2026-04-11T13:39:10.779Z</time></trkpt><trkpt lat="44.6278842" lon="7.8629305"><ele>287.5</ele><time>2026-04-11T13:39:12.779Z</time></trkpt><trkpt lat="44.6279864" lon="7.8628462"><ele>285.25</ele><time>2026-04-11T13:39:14.779Z</time></trkpt><trkpt lat="44.6280968" lon="7.8627592"><ele>283.0</ele><time>2026-04-11T13:39:16.779Z</time></trkpt><trkpt lat="44.6282161" lon="7.8626918"><ele>283.0</ele><time>2026-04-11T13:39:18.779Z</time></trkpt><trkpt lat="44.6282854" lon="7.8626678"><ele>283.0</ele><time>2026-04-11T13:39:19.779Z</time></trkpt><trkpt lat="44.6283473" lon="7.8626327"><ele>283.0</ele><time>2026-04-11T13:39:20.779Z</time></trkpt><trkpt lat="44.6284079" lon="7.8625823"><ele>283.0</ele><time>2026-04-11T13:39:21.779Z</time></trkpt><trkpt lat="44.6284638" lon="7.8625297"><ele>283.0</ele><time>2026-04-11T13:39:22.779Z</time></trkpt><trkpt lat="44.6285652" lon="7.8624451"><ele>283.0</ele><time>2026-04-11T13:39:24.779Z</time></trkpt><trkpt lat="44.6286745" lon="7.862356"><ele>283.8571428571429</ele><time>2026-04-11T13:39:26.779Z</time></trkpt><trkpt lat="44.6287272" lon="7.8622991"><ele>284.7142857142857</ele><time>2026-04-11T13:39:27.779Z</time></trkpt><trkpt lat="44.6287789" lon="7.8622367"><ele>285.57142857142856</ele><time>2026-04-11T13:39:28.779Z</time></trkpt><trkpt lat="44.6288337" lon="7.8621844"><ele>286.42857142857144</ele><time>2026-04-11T13:39:29.779Z</time></trkpt><trkpt lat="44.6288893" lon="7.8621337"><ele>287.2857142857143</ele><time>2026-04-11T13:39:30.779Z</time></trkpt><trkpt lat="44.628947" lon="7.8620914"><ele>288.14285714285717</ele><time>2026-04-11T13:39:31.779Z</time></trkpt><trkpt lat="44.6290073" lon="7.8620573"><ele>289.0</ele><time>2026-04-11T13:39:32.779Z</time></trkpt><trkpt lat="44.6290758" lon="7.8620357"><ele>289.0</ele><time>2026-04-11T13:39:33.779Z</time></trkpt><trkpt lat="44.6291442" lon="7.8620201"><ele>289.0</ele><time>2026-04-11T13:39:34.779Z</time></trkpt><trkpt lat="44.6292206" lon="7.8620044"><ele>289.0</ele><time>2026-04-11T13:39:35.779Z</time></trkpt><trkpt lat="44.6292919" lon="7.8619927"><ele>289.0</ele><time>2026-04-11T13:39:36.779Z</time></trkpt><trkpt lat="44.629365" lon="7.8619837"><ele>289.0</ele><time>2026-04-11T13:39:37.779Z</time></trkpt><trkpt lat="44.6294381" lon="7.8619798"><ele>289.0</ele><time>2026-04-11T13:39:38.779Z</time></trkpt><trkpt lat="44.6295088" lon="7.8619755"><ele>289.0</ele><time>2026-04-11T13:39:39.779Z</time></trkpt><trkpt lat="44.6296186" lon="7.8619642"><ele>288.8333333333333</ele><time>2026-04-11T13:39:41.779Z</time></trkpt><trkpt lat="44.6297052" lon="7.8619928"><ele>288.66666666666663</ele><time>2026-04-11T13:39:42.779Z</time></trkpt><trkpt lat="44.629785" lon="7.86202"><ele>288.5</ele><time>2026-04-11T13:39:43.779Z</time></trkpt><trkpt lat="44.6298681" lon="7.8620349"><ele>288.3333333333333</ele><time>2026-04-11T13:39:44.779Z</time></trkpt><trkpt lat="44.629942" lon="7.8620461"><ele>288.1666666666667</ele><time>2026-04-11T13:39:45.779Z</time></trkpt><trkpt lat="44.6300165" lon="7.8620696"><ele>288.0</ele><time>2026-04-11T13:39:46.779Z</time></trkpt><trkpt lat="44.6300807" lon="7.8621006"><ele>288.0</ele><time>2026-04-11T13:39:47.779Z</time></trkpt><trkpt lat="44.6301452" lon="7.862113"><ele>288.0</ele><time>2026-04-11T13:39:48.779Z</time></trkpt><trkpt lat="44.6302197" lon="7.8621174"><ele>288.0</ele><time>2026-04-11T13:39:49.779Z</time></trkpt><trkpt lat="44.6302937" lon="7.8621207"><ele>288.0</ele><time>2026-04-11T13:39:50.779Z</time></trkpt><trkpt lat="44.6303633" lon="7.8621194"><ele>288.0</ele><time>2026-04-11T13:39:51.779Z</time></trkpt><trkpt lat="44.63043" lon="7.8621031"><ele>288.0</ele><time>2026-04-11T13:39:52.779Z</time></trkpt><trkpt lat="44.630552" lon="7.8620853"><ele>287.7142857142857</ele><time>2026-04-11T13:39:54.779Z</time></trkpt><trkpt lat="44.6306217" lon="7.8620717"><ele>287.42857142857144</ele><time>2026-04-11T13:39:55.779Z</time></trkpt><trkpt lat="44.6306911" lon="7.8620636"><ele>287.1428571428571</ele><time>2026-04-11T13:39:56.779Z</time></trkpt><trkpt lat="44.6307589" lon="7.8620433"><ele>286.8571428571429</ele><time>2026-04-11T13:39:57.779Z</time></trkpt><trkpt lat="44.630839" lon="7.862023"><ele>286.57142857142856</ele><time>2026-04-11T13:39:58.779Z</time></trkpt><trkpt lat="44.6309195" lon="7.8620101"><ele>286.2857142857143</ele><time>2026-04-11T13:39:59.779Z</time></trkpt><trkpt lat="44.6309881" lon="7.8619875"><ele>286.0</ele><time>2026-04-11T13:40:00.779Z</time></trkpt><trkpt lat="44.6310558" lon="7.8619679"><ele>285.99999999999994</ele><time>2026-04-11T13:40:01.779Z</time></trkpt><trkpt lat="44.6311205" lon="7.861943"><ele>286.0</ele><time>2026-04-11T13:40:02.779Z</time></trkpt><trkpt lat="44.6311865" lon="7.8619182"><ele>286.0</ele><time>2026-04-11T13:40:03.779Z</time></trkpt><trkpt lat="44.6312545" lon="7.8618985"><ele>286.0</ele><time>2026-04-11T13:40:04.779Z</time></trkpt><trkpt lat="44.6313226" lon="7.861871"><ele>286.0</ele><time>2026-04-11T13:40:05.779Z</time></trkpt><trkpt lat="44.6313882" lon="7.8618513"><ele>285.99999999999994</ele><time>2026-04-11T13:40:06.779Z</time></trkpt><trkpt lat="44.6314579" lon="7.8618334"><ele>286.0</ele><time>2026-04-11T13:40:07.779Z</time></trkpt><trkpt lat="44.631528" lon="7.8618139"><ele>285.85714285714283</ele><time>2026-04-11T13:40:08.779Z</time></trkpt><trkpt lat="44.6315986" lon="7.8618042"><ele>285.7142857142857</ele><time>2026-04-11T13:40:09.779Z</time></trkpt><trkpt lat="44.6316732" lon="7.8617921"><ele>285.57142857142856</ele><time>2026-04-11T13:40:10.779Z</time></trkpt><trkpt lat="44.631747" lon="7.8617834"><ele>285.42857142857144</ele><time>2026-04-11T13:40:11.779Z</time></trkpt><trkpt lat="44.6318223" lon="7.8617783"><ele>285.2857142857143</ele><time>2026-04-11T13:40:12.779Z</time></trkpt><trkpt lat="44.6318916" lon="7.8617732"><ele>285.1428571428571</ele><time>2026-04-11T13:40:13.779Z</time></trkpt><trkpt lat="44.6319613" lon="7.8617685"><ele>285.0</ele><time>2026-04-11T13:40:14.779Z</time></trkpt><trkpt lat="44.6320357" lon="7.8617736"><ele>284.57142857142856</ele><time>2026-04-11T13:40:15.779Z</time></trkpt><trkpt lat="44.6321089" lon="7.8617753"><ele>284.14285714285717</ele><time>2026-04-11T13:40:16.779Z</time></trkpt><trkpt lat="44.6321819" lon="7.8617757"><ele>283.7142857142857</ele><time>2026-04-11T13:40:17.78Z</time></trkpt><trkpt lat="44.6322566" lon="7.8617782"><ele>283.2857142857143</ele><time>2026-04-11T13:40:18.779Z</time></trkpt><trkpt lat="44.6323298" lon="7.861779"><ele>282.85714285714283</ele><time>2026-04-11T13:40:19.779Z</time></trkpt><trkpt lat="44.6324033" lon="7.8617811"><ele>282.42857142857144</ele><time>2026-04-11T13:40:20.779Z</time></trkpt><trkpt lat="44.6324792" lon="7.8617862"><ele>282.0</ele><time>2026-04-11T13:40:21.779Z</time></trkpt><trkpt lat="44.6325539" lon="7.8617943"><ele>282.0</ele><time>2026-04-11T13:40:22.78Z</time></trkpt><trkpt lat="44.6326289" lon="7.8618055"><ele>282.0</ele><time>2026-04-11T13:40:23.779Z</time></trkpt><trkpt lat="44.6326991" lon="7.8618056"><ele>282.0</ele><time>2026-04-11T13:40:24.779Z</time></trkpt><trkpt lat="44.6327736" lon="7.8618068"><ele>282.0</ele><time>2026-04-11T13:40:25.779Z</time></trkpt><trkpt lat="44.6328392" lon="7.8618079"><ele>282.0</ele><time>2026-04-11T13:40:26.779Z</time></trkpt><trkpt lat="44.6329031" lon="7.8617968"><ele>282.0</ele><time>2026-04-11T13:40:27.779Z</time></trkpt><trkpt lat="44.632978" lon="7.8617831"><ele>282.0</ele><time>2026-04-11T13:40:28.779Z</time></trkpt><trkpt lat="44.6330486" lon="7.8617635"><ele>283.1666666666667</ele><time>2026-04-11T13:40:29.779Z</time></trkpt><trkpt lat="44.6331249" lon="7.8617446"><ele>284.3333333333333</ele><time>2026-04-11T13:40:30.779Z</time></trkpt><trkpt lat="44.6332006" lon="7.8617184"><ele>285.5</ele><time>2026-04-11T13:40:31.779Z</time></trkpt><trkpt lat="44.6332734" lon="7.8616904"><ele>286.66666666666663</ele><time>2026-04-11T13:40:32.779Z</time></trkpt><trkpt lat="44.6333443" lon="7.8616607"><ele>287.8333333333333</ele><time>2026-04-11T13:40:33.779Z</time></trkpt><trkpt lat="44.6334161" lon="7.8616266"><ele>289.0</ele><time>2026-04-11T13:40:34.779Z</time></trkpt><trkpt lat="44.6334893" lon="7.8615887"><ele>289.0</ele><time>2026-04-11T13:40:35.779Z</time></trkpt><trkpt lat="44.6335619" lon="7.8615435"><ele>289.0</ele><time>2026-04-11T13:40:36.779Z</time></trkpt><trkpt lat="44.6336319" lon="7.8615117"><ele>289.0</ele><time>2026-04-11T13:40:37.779Z</time></trkpt><trkpt lat="44.6337599" lon="7.8614689"><ele>289.0</ele><time>2026-04-11T13:40:39.779Z</time></trkpt><trkpt lat="44.6338324" lon="7.8614338"><ele>289.0</ele><time>2026-04-11T13:40:40.779Z</time></trkpt><trkpt lat="44.6338975" lon="7.8614015"><ele>289.0</ele><time>2026-04-11T13:40:41.779Z</time></trkpt><trkpt lat="44.63396" lon="7.8613701"><ele>288.3333333333333</ele><time>2026-04-11T13:40:42.779Z</time></trkpt><trkpt lat="44.634036" lon="7.8613271"><ele>287.66666666666663</ele><time>2026-04-11T13:40:43.779Z</time></trkpt><trkpt lat="44.6341055" lon="7.8613"><ele>287.0</ele><time>2026-04-11T13:40:44.779Z</time></trkpt><trkpt lat="44.6342401" lon="7.8612509"><ele>286.3333333333333</ele><time>2026-04-11T13:40:46.779Z</time></trkpt><trkpt lat="44.6343162" lon="7.8612568"><ele>285.6666666666667</ele><time>2026-04-11T13:40:47.779Z</time></trkpt><trkpt lat="44.6343799" lon="7.8612424"><ele>285.0</ele><time>2026-04-11T13:40:48.779Z</time></trkpt><trkpt lat="44.6344996" lon="7.8611629"><ele>285.5</ele><time>2026-04-11T13:40:50.779Z</time></trkpt><trkpt lat="44.6345649" lon="7.8611129"><ele>286.0</ele><time>2026-04-11T13:40:51.779Z</time></trkpt><trkpt lat="44.6346263" lon="7.8610545"><ele>286.5</ele><time>2026-04-11T13:40:52.779Z</time></trkpt><trkpt lat="44.6346927" lon="7.8609953"><ele>287.0</ele><time>2026-04-11T13:40:53.779Z</time></trkpt><trkpt lat="44.6347552" lon="7.8609316"><ele>287.5</ele><time>2026-04-11T13:40:54.779Z</time></trkpt><trkpt lat="44.6348242" lon="7.8608612"><ele>288.0</ele><time>2026-04-11T13:40:55.779Z</time></trkpt><trkpt lat="44.6349114" lon="7.8607375"><ele>288.0</ele><time>2026-04-11T13:40:57.779Z</time></trkpt><trkpt lat="44.634959" lon="7.8606673"><ele>288.0</ele><time>2026-04-11T13:40:58.779Z</time></trkpt><trkpt lat="44.6350125" lon="7.8606024"><ele>288.0</ele><time>2026-04-11T13:40:59.779Z</time></trkpt><trkpt lat="44.6351187" lon="7.8604797"><ele>288.0</ele><time>2026-04-11T13:41:01.779Z</time></trkpt><trkpt lat="44.6351811" lon="7.860404"><ele>288.0</ele><time>2026-04-11T13:41:02.779Z</time></trkpt><trkpt lat="44.6352354" lon="7.8603491"><ele>288.0</ele><time>2026-04-11T13:41:03.779Z</time></trkpt><trkpt lat="44.6352949" lon="7.8602976"><ele>287.8333333333333</ele><time>2026-04-11T13:41:04.779Z</time></trkpt><trkpt lat="44.6353658" lon="7.8601522"><ele>287.6666666666667</ele><time>2026-04-11T13:41:06.779Z</time></trkpt><trkpt lat="44.6354046" lon="7.8600745"><ele>287.5</ele><time>2026-04-11T13:41:07.779Z</time></trkpt><trkpt lat="44.6354492" lon="7.8599977"><ele>287.33333333333337</ele><time>2026-04-11T13:41:08.779Z</time></trkpt><trkpt lat="44.6354874" lon="7.8599232"><ele>287.1666666666667</ele><time>2026-04-11T13:41:09.78Z</time></trkpt><trkpt lat="44.6355313" lon="7.8598458"><ele>287.0</ele><time>2026-04-11T13:41:10.779Z</time></trkpt><trkpt lat="44.6355769" lon="7.8597736"><ele>287.0</ele><time>2026-04-11T13:41:11.779Z</time></trkpt><trkpt lat="44.6356283" lon="7.8597088"><ele>287.0</ele><time>2026-04-11T13:41:12.779Z</time></trkpt><trkpt lat="44.6356875" lon="7.8596517"><ele>287.0</ele><time>2026-04-11T13:41:13.779Z</time></trkpt><trkpt lat="44.635752" lon="7.8596161"><ele>287.0</ele><time>2026-04-11T13:41:14.779Z</time></trkpt><trkpt lat="44.635823" lon="7.8595909"><ele>287.0</ele><time>2026-04-11T13:41:15.779Z</time></trkpt><trkpt lat="44.635892" lon="7.859577"><ele>287.0</ele><time>2026-04-11T13:41:16.779Z</time></trkpt><trkpt lat="44.6359573" lon="7.8595728"><ele>287.0</ele><time>2026-04-11T13:41:17.779Z</time></trkpt><trkpt lat="44.6360213" lon="7.859575"><ele>287.0</ele><time>2026-04-11T13:41:18.779Z</time></trkpt><trkpt lat="44.6360879" lon="7.8595883"><ele>287.0</ele><time>2026-04-11T13:41:19.779Z</time></trkpt><trkpt lat="44.6361528" lon="7.8596015"><ele>287.0</ele><time>2026-04-11T13:41:20.779Z</time></trkpt><trkpt lat="44.6362234" lon="7.8596233"><ele>287.0</ele><time>2026-04-11T13:41:21.779Z</time></trkpt><trkpt lat="44.6362909" lon="7.8596551"><ele>287.0</ele><time>2026-04-11T13:41:22.779Z</time></trkpt><trkpt lat="44.6363593" lon="7.8596838"><ele>287.0</ele><time>2026-04-11T13:41:23.779Z</time></trkpt><trkpt lat="44.6364202" lon="7.859716"><ele>287.0</ele><time>2026-04-11T13:41:24.779Z</time></trkpt><trkpt lat="44.6364819" lon="7.8597476"><ele>286.85714285714283</ele><time>2026-04-11T13:41:25.779Z</time></trkpt><trkpt lat="44.6365475" lon="7.8597834"><ele>286.7142857142857</ele><time>2026-04-11T13:41:26.779Z</time></trkpt><trkpt lat="44.6366172" lon="7.8598157"><ele>286.57142857142856</ele><time>2026-04-11T13:41:27.779Z</time></trkpt><trkpt lat="44.6366889" lon="7.8598359"><ele>286.42857142857144</ele><time>2026-04-11T13:41:28.779Z</time></trkpt><trkpt lat="44.6367528" lon="7.8598461"><ele>286.2857142857143</ele><time>2026-04-11T13:41:29.779Z</time></trkpt><trkpt lat="44.6368165" lon="7.8598498"><ele>286.1428571428571</ele><time>2026-04-11T13:41:30.779Z</time></trkpt><trkpt lat="44.6368826" lon="7.8598583"><ele>286.0</ele><time>2026-04-11T13:41:31.779Z</time></trkpt><trkpt lat="44.6370014" lon="7.8598725"><ele>286.3333333333333</ele><time>2026-04-11T13:41:33.779Z</time></trkpt><trkpt lat="44.6371218" lon="7.8599025"><ele>286.66666666666663</ele><time>2026-04-11T13:41:35.779Z</time></trkpt><trkpt lat="44.6371889" lon="7.8599202"><ele>287.0</ele><time>2026-04-11T13:41:36.779Z</time></trkpt><trkpt lat="44.637257" lon="7.8599393"><ele>287.3333333333333</ele><time>2026-04-11T13:41:37.779Z</time></trkpt><trkpt lat="44.6373264" lon="7.8599592"><ele>287.6666666666667</ele><time>2026-04-11T13:41:38.779Z</time></trkpt><trkpt lat="44.63739" lon="7.8599713"><ele>288.0</ele><time>2026-04-11T13:41:39.779Z</time></trkpt><trkpt lat="44.6374572" lon="7.8599769"><ele>288.00000000000006</ele><time>2026-04-11T13:41:40.779Z</time></trkpt><trkpt lat="44.6375247" lon="7.8599854"><ele>288.0</ele><time>2026-04-11T13:41:41.779Z</time></trkpt><trkpt lat="44.637592" lon="7.8599845"><ele>288.0</ele><time>2026-04-11T13:41:42.779Z</time></trkpt><trkpt lat="44.6376585" lon="7.8599904"><ele>288.0</ele><time>2026-04-11T13:41:43.779Z</time></trkpt><trkpt lat="44.6377281" lon="7.8599961"><ele>288.0</ele><time>2026-04-11T13:41:44.779Z</time></trkpt><trkpt lat="44.6377972" lon="7.8599975"><ele>288.00000000000006</ele><time>2026-04-11T13:41:45.779Z</time></trkpt><trkpt lat="44.6378706" lon="7.8599927"><ele>288.0</ele><time>2026-04-11T13:41:46.779Z</time></trkpt><trkpt lat="44.6379408" lon="7.8600014"><ele>287.8571428571429</ele><time>2026-04-11T13:41:47.779Z</time></trkpt><trkpt lat="44.6380138" lon="7.8600038"><ele>287.7142857142857</ele><time>2026-04-11T13:41:48.779Z</time></trkpt><trkpt lat="44.6380821" lon="7.8599989"><ele>287.57142857142856</ele><time>2026-04-11T13:41:49.779Z</time></trkpt><trkpt lat="44.6381509" lon="7.859992"><ele>287.42857142857144</ele><time>2026-04-11T13:41:50.779Z</time></trkpt><trkpt lat="44.6382165" lon="7.8599927"><ele>287.2857142857143</ele><time>2026-04-11T13:41:51.779Z</time></trkpt><trkpt lat="44.6382858" lon="7.8599945"><ele>287.14285714285717</ele><time>2026-04-11T13:41:52.779Z</time></trkpt><trkpt lat="44.6383497" lon="7.8599983"><ele>287.0</ele><time>2026-04-11T13:41:53.779Z</time></trkpt><trkpt lat="44.6384163" lon="7.8599971"><ele>287.0</ele><time>2026-04-11T13:41:54.779Z</time></trkpt><trkpt lat="44.6384863" lon="7.8599971"><ele>287.0</ele><time>2026-04-11T13:41:55.779Z</time></trkpt><trkpt lat="44.6385583" lon="7.8599905"><ele>287.0</ele><time>2026-04-11T13:41:56.779Z</time></trkpt><trkpt lat="44.6386337" lon="7.8599833"><ele>287.0</ele><time>2026-04-11T13:41:57.779Z</time></trkpt><trkpt lat="44.6387055" lon="7.8599761"><ele>287.0</ele><time>2026-04-11T13:41:58.779Z</time></trkpt><trkpt lat="44.63878" lon="7.8599701"><ele>287.0</ele><time>2026-04-11T13:41:59.779Z</time></trkpt><trkpt lat="44.6388537" lon="7.8599625"><ele>287.0</ele><time>2026-04-11T13:42:00.779Z</time></trkpt><trkpt lat="44.6389284" lon="7.8599562"><ele>286.83333333333337</ele><time>2026-04-11T13:42:01.779Z</time></trkpt><trkpt lat="44.6390026" lon="7.8599398"><ele>286.6666666666667</ele><time>2026-04-11T13:42:02.779Z</time></trkpt><trkpt lat="44.6390815" lon="7.8599263"><ele>286.5</ele><time>2026-04-11T13:42:03.779Z</time></trkpt><trkpt lat="44.6391602" lon="7.8599183"><ele>286.3333333333333</ele><time>2026-04-11T13:42:04.779Z</time></trkpt><trkpt lat="44.6392393" lon="7.8599115"><ele>286.16666666666663</ele><time>2026-04-11T13:42:05.779Z</time></trkpt><trkpt lat="44.6393144" lon="7.8599024"><ele>286.0</ele><time>2026-04-11T13:42:06.779Z</time></trkpt><trkpt lat="44.6394055" lon="7.8598973"><ele>285.99999999999994</ele><time>2026-04-11T13:42:07.779Z</time></trkpt><trkpt lat="44.6394819" lon="7.8598898"><ele>286.0</ele><time>2026-04-11T13:42:08.779Z</time></trkpt><trkpt lat="44.6395551" lon="7.8598835"><ele>286.0</ele><time>2026-04-11T13:42:09.779Z</time></trkpt><trkpt lat="44.639626" lon="7.8598573"><ele>286.0</ele><time>2026-04-11T13:42:10.78Z</time></trkpt><trkpt lat="44.6396959" lon="7.8598483"><ele>286.0</ele><time>2026-04-11T13:42:11.78Z</time></trkpt><trkpt lat="44.63977" lon="7.8598316"><ele>285.99999999999994</ele><time>2026-04-11T13:42:12.78Z</time></trkpt><trkpt lat="44.6398403" lon="7.8598221"><ele>286.0</ele><time>2026-04-11T13:42:13.78Z</time></trkpt><trkpt lat="44.6399205" lon="7.8598099"><ele>286.0</ele><time>2026-04-11T13:42:14.78Z</time></trkpt><trkpt lat="44.6399908" lon="7.8598045"><ele>286.0</ele><time>2026-04-11T13:42:15.78Z</time></trkpt><trkpt lat="44.6400724" lon="7.859801"><ele>286.0</ele><time>2026-04-11T13:42:16.78Z</time></trkpt><trkpt lat="44.6401531" lon="7.859801"><ele>286.0</ele><time>2026-04-11T13:42:17.78Z</time></trkpt><trkpt lat="44.6402301" lon="7.8598004"><ele>286.0</ele><time>2026-04-11T13:42:18.78Z</time></trkpt><trkpt lat="44.6403066" lon="7.8598186"><ele>286.0</ele><time>2026-04-11T13:42:19.78Z</time></trkpt><trkpt lat="44.6403843" lon="7.8598314"><ele>285.8333333333333</ele><time>2026-04-11T13:42:20.781Z</time></trkpt><trkpt lat="44.640455" lon="7.8598553"><ele>285.66666666666663</ele><time>2026-04-11T13:42:21.78Z</time></trkpt><trkpt lat="44.6405244" lon="7.8598723"><ele>285.5</ele><time>2026-04-11T13:42:22.78Z</time></trkpt><trkpt lat="44.6406064" lon="7.8598726"><ele>285.3333333333333</ele><time>2026-04-11T13:42:23.78Z</time></trkpt><trkpt lat="44.6406818" lon="7.8598786"><ele>285.1666666666667</ele><time>2026-04-11T13:42:24.78Z</time></trkpt><trkpt lat="44.6407613" lon="7.8598862"><ele>285.0</ele><time>2026-04-11T13:42:25.78Z</time></trkpt><trkpt lat="44.6408381" lon="7.8599028"><ele>285.0</ele><time>2026-04-11T13:42:26.78Z</time></trkpt><trkpt lat="44.6409108" lon="7.8599274"><ele>285.0</ele><time>2026-04-11T13:42:27.78Z</time></trkpt><trkpt lat="44.6409841" lon="7.8599515"><ele>285.0</ele><time>2026-04-11T13:42:28.78Z</time></trkpt><trkpt lat="44.6410561" lon="7.8599823"><ele>285.0</ele><time>2026-04-11T13:42:29.78Z</time></trkpt><trkpt lat="44.641126" lon="7.860023"><ele>285.0</ele><time>2026-04-11T13:42:30.78Z</time></trkpt><trkpt lat="44.641197" lon="7.8600696"><ele>285.0</ele><time>2026-04-11T13:42:31.78Z</time></trkpt><trkpt lat="44.6412696" lon="7.8601186"><ele>284.1666666666667</ele><time>2026-04-11T13:42:32.78Z</time></trkpt><trkpt lat="44.6413333" lon="7.8601668"><ele>283.3333333333333</ele><time>2026-04-11T13:42:33.78Z</time></trkpt><trkpt lat="44.6413944" lon="7.8602201"><ele>282.5</ele><time>2026-04-11T13:42:34.78Z</time></trkpt><trkpt lat="44.6414536" lon="7.8602771"><ele>281.66666666666663</ele><time>2026-04-11T13:42:35.78Z</time></trkpt><trkpt lat="44.6415179" lon="7.8603172"><ele>280.8333333333333</ele><time>2026-04-11T13:42:36.78Z</time></trkpt><trkpt lat="44.6415983" lon="7.8603438"><ele>280.0</ele><time>2026-04-11T13:42:37.78Z</time></trkpt><trkpt lat="44.6416795" lon="7.8603541"><ele>280.0</ele><time>2026-04-11T13:42:38.78Z</time></trkpt><trkpt lat="44.6417559" lon="7.8603636"><ele>280.0</ele><time>2026-04-11T13:42:39.781Z</time></trkpt><trkpt lat="44.6418349" lon="7.8603763"><ele>280.0</ele><time>2026-04-11T13:42:40.78Z</time></trkpt><trkpt lat="44.6419039" lon="7.8603937"><ele>280.0</ele><time>2026-04-11T13:42:41.78Z</time></trkpt><trkpt lat="44.6419726" lon="7.8604073"><ele>280.0</ele><time>2026-04-11T13:42:42.78Z</time></trkpt><trkpt lat="44.6420427" lon="7.8604159"><ele>280.0</ele><time>2026-04-11T13:42:43.78Z</time></trkpt><trkpt lat="44.6421191" lon="7.8604252"><ele>280.0</ele><time>2026-04-11T13:42:44.78Z</time></trkpt><trkpt lat="44.6421949" lon="7.8604397"><ele>280.5</ele><time>2026-04-11T13:42:45.78Z</time></trkpt><trkpt lat="44.6422742" lon="7.8604486"><ele>281.0</ele><time>2026-04-11T13:42:46.78Z</time></trkpt><trkpt lat="44.6423545" lon="7.8604585"><ele>281.5</ele><time>2026-04-11T13:42:47.78Z</time></trkpt><trkpt lat="44.6424308" lon="7.8604672"><ele>282.0</ele><time>2026-04-11T13:42:48.78Z</time></trkpt><trkpt lat="44.6425046" lon="7.8604755"><ele>282.5</ele><time>2026-04-11T13:42:49.78Z</time></trkpt><trkpt lat="44.6425758" lon="7.8604976"><ele>283.0</ele><time>2026-04-11T13:42:50.78Z</time></trkpt><trkpt lat="44.6426395" lon="7.8605427"><ele>283.0</ele><time>2026-04-11T13:42:51.78Z</time></trkpt><trkpt lat="44.6427513" lon="7.8606443"><ele>283.0</ele><time>2026-04-11T13:42:53.78Z</time></trkpt><trkpt lat="44.6428174" lon="7.8606987"><ele>283.0</ele><time>2026-04-11T13:42:54.78Z</time></trkpt><trkpt lat="44.6428813" lon="7.8607497"><ele>283.0</ele><time>2026-04-11T13:42:55.78Z</time></trkpt><trkpt lat="44.6429445" lon="7.8608029"><ele>283.0</ele><time>2026-04-11T13:42:56.78Z</time></trkpt><trkpt lat="44.6430077" lon="7.860854"><ele>283.0</ele><time>2026-04-11T13:42:57.78Z</time></trkpt><trkpt lat="44.6430683" lon="7.8609085"><ele>282.7142857142857</ele><time>2026-04-11T13:42:58.78Z</time></trkpt><trkpt lat="44.64313" lon="7.8609507"><ele>282.42857142857144</ele><time>2026-04-11T13:42:59.78Z</time></trkpt><trkpt lat="44.6431907" lon="7.8609953"><ele>282.14285714285717</ele><time>2026-04-11T13:43:00.78Z</time></trkpt><trkpt lat="44.6432569" lon="7.8610462"><ele>281.8571428571429</ele><time>2026-04-11T13:43:01.78Z</time></trkpt><trkpt lat="44.6433244" lon="7.8610843"><ele>281.57142857142856</ele><time>2026-04-11T13:43:02.78Z</time></trkpt><trkpt lat="44.6433926" lon="7.8611137"><ele>281.28571428571433</ele><time>2026-04-11T13:43:03.78Z</time></trkpt><trkpt lat="44.6434652" lon="7.8611359"><ele>281.0</ele><time>2026-04-11T13:43:04.78Z</time></trkpt><trkpt lat="44.6435366" lon="7.8611536"><ele>281.00000000000006</ele><time>2026-04-11T13:43:05.78Z</time></trkpt><trkpt lat="44.6436029" lon="7.861177"><ele>281.0</ele><time>2026-04-11T13:43:06.78Z</time></trkpt><trkpt lat="44.6436748" lon="7.8612025"><ele>281.0</ele><time>2026-04-11T13:43:07.78Z</time></trkpt><trkpt lat="44.6437469" lon="7.8612312"><ele>281.0</ele><time>2026-04-11T13:43:08.78Z</time></trkpt><trkpt lat="44.6438192" lon="7.8612622"><ele>281.0</ele><time>2026-04-11T13:43:09.78Z</time></trkpt><trkpt lat="44.6438868" lon="7.8613054"><ele>281.00000000000006</ele><time>2026-04-11T13:43:10.78Z</time></trkpt><trkpt lat="44.6439517" lon="7.8613602"><ele>281.0</ele><time>2026-04-11T13:43:11.78Z</time></trkpt><trkpt lat="44.6440086" lon="7.8614158"><ele>281.6666666666667</ele><time>2026-04-11T13:43:12.78Z</time></trkpt><trkpt lat="44.6440669" lon="7.8614669"><ele>282.33333333333337</ele><time>2026-04-11T13:43:13.78Z</time></trkpt><trkpt lat="44.6441269" lon="7.8615195"><ele>283.0</ele><time>2026-04-11T13:43:14.78Z</time></trkpt><trkpt lat="44.6441871" lon="7.8615659"><ele>283.6666666666667</ele><time>2026-04-11T13:43:15.78Z</time></trkpt><trkpt lat="44.6442504" lon="7.8616114"><ele>284.3333333333333</ele><time>2026-04-11T13:43:16.78Z</time></trkpt><trkpt lat="44.6443125" lon="7.8616519"><ele>285.0</ele><time>2026-04-11T13:43:17.78Z</time></trkpt><trkpt lat="44.644431" lon="7.8617051"><ele>285.57142857142856</ele><time>2026-04-11T13:43:19.78Z</time></trkpt><trkpt lat="44.6444957" lon="7.8617454"><ele>286.14285714285717</ele><time>2026-04-11T13:43:20.78Z</time></trkpt><trkpt lat="44.644564" lon="7.8617793"><ele>286.7142857142857</ele><time>2026-04-11T13:43:21.78Z</time></trkpt><trkpt lat="44.6446312" lon="7.861806"><ele>287.2857142857143</ele><time>2026-04-11T13:43:22.781Z</time></trkpt><trkpt lat="44.6446975" lon="7.8618352"><ele>287.85714285714283</ele><time>2026-04-11T13:43:23.78Z</time></trkpt><trkpt lat="44.644763" lon="7.861861"><ele>288.42857142857144</ele><time>2026-04-11T13:43:24.78Z</time></trkpt><trkpt lat="44.6448304" lon="7.8618777"><ele>289.0</ele><time>2026-04-11T13:43:25.78Z</time></trkpt><trkpt lat="44.6448972" lon="7.8618911"><ele>287.2857142857143</ele><time>2026-04-11T13:43:26.78Z</time></trkpt><trkpt lat="44.6449627" lon="7.8619143"><ele>285.57142857142856</ele><time>2026-04-11T13:43:27.78Z</time></trkpt><trkpt lat="44.6450293" lon="7.8619319"><ele>283.85714285714283</ele><time>2026-04-11T13:43:28.78Z</time></trkpt><trkpt lat="44.6450969" lon="7.8619487"><ele>282.1428571428571</ele><time>2026-04-11T13:43:29.78Z</time></trkpt><trkpt lat="44.6451645" lon="7.8619606"><ele>280.4285714285714</ele><time>2026-04-11T13:43:30.78Z</time></trkpt><trkpt lat="44.6452284" lon="7.8619713"><ele>278.7142857142857</ele><time>2026-04-11T13:43:31.78Z</time></trkpt><trkpt lat="44.6452947" lon="7.8619739"><ele>277.0</ele><time>2026-04-11T13:43:32.78Z</time></trkpt><trkpt lat="44.6453679" lon="7.8619727"><ele>277.0</ele><time>2026-04-11T13:43:33.78Z</time></trkpt><trkpt lat="44.6454398" lon="7.8619727"><ele>277.0</ele><time>2026-04-11T13:43:34.78Z</time></trkpt><trkpt lat="44.6455101" lon="7.8619691"><ele>277.0</ele><time>2026-04-11T13:43:35.78Z</time></trkpt><trkpt lat="44.6455818" lon="7.8619686"><ele>277.0</ele><time>2026-04-11T13:43:36.78Z</time></trkpt><trkpt lat="44.6456576" lon="7.8619455"><ele>277.0</ele><time>2026-04-11T13:43:37.78Z</time></trkpt><trkpt lat="44.6457353" lon="7.8619228"><ele>277.0</ele><time>2026-04-11T13:43:38.78Z</time></trkpt><trkpt lat="44.6458003" lon="7.8619267"><ele>277.0</ele><time>2026-04-11T13:43:39.78Z</time></trkpt><trkpt lat="44.6458775" lon="7.8619435"><ele>277.0</ele><time>2026-04-11T13:43:40.78Z</time></trkpt><trkpt lat="44.6459428" lon="7.8619559"><ele>277.0</ele><time>2026-04-11T13:43:41.78Z</time></trkpt><trkpt lat="44.6460092" lon="7.8619644"><ele>277.0</ele><time>2026-04-11T13:43:42.78Z</time></trkpt><trkpt lat="44.6460747" lon="7.861972"><ele>277.0</ele><time>2026-04-11T13:43:43.78Z</time></trkpt><trkpt lat="44.6462044" lon="7.8619757"><ele>277.0</ele><time>2026-04-11T13:43:45.78Z</time></trkpt><trkpt lat="44.6462737" lon="7.8619712"><ele>277.0</ele><time>2026-04-11T13:43:46.78Z</time></trkpt><trkpt lat="44.6463462" lon="7.8619606"><ele>276.2857142857143</ele><time>2026-04-11T13:43:47.78Z</time></trkpt><trkpt lat="44.646419" lon="7.8619491"><ele>275.57142857142856</ele><time>2026-04-11T13:43:48.78Z</time></trkpt><trkpt lat="44.6464889" lon="7.8619383"><ele>274.85714285714283</ele><time>2026-04-11T13:43:49.78Z</time></trkpt><trkpt lat="44.6465537" lon="7.8619079"><ele>274.1428571428571</ele><time>2026-04-11T13:43:50.78Z</time></trkpt><trkpt lat="44.6466251" lon="7.8618859"><ele>273.42857142857144</ele><time>2026-04-11T13:43:51.78Z</time></trkpt><trkpt lat="44.6466966" lon="7.8618675"><ele>272.71428571428567</ele><time>2026-04-11T13:43:52.78Z</time></trkpt><trkpt lat="44.6467675" lon="7.8618481"><ele>272.0</ele><time>2026-04-11T13:43:53.78Z</time></trkpt><trkpt lat="44.6468376" lon="7.8618357"><ele>271.99999999999994</ele><time>2026-04-11T13:43:54.78Z</time></trkpt><trkpt lat="44.6469046" lon="7.8618223"><ele>272.0</ele><time>2026-04-11T13:43:55.78Z</time></trkpt><trkpt lat="44.6469713" lon="7.8618005"><ele>272.0</ele><time>2026-04-11T13:43:56.78Z</time></trkpt><trkpt lat="44.6470383" lon="7.8617803"><ele>272.0</ele><time>2026-04-11T13:43:57.78Z</time></trkpt><trkpt lat="44.6471037" lon="7.8617682"><ele>272.0</ele><time>2026-04-11T13:43:58.78Z</time></trkpt><trkpt lat="44.6471716" lon="7.8617503"><ele>271.99999999999994</ele><time>2026-04-11T13:43:59.78Z</time></trkpt><trkpt lat="44.6472391" lon="7.8617369"><ele>272.0</ele><time>2026-04-11T13:44:00.78Z</time></trkpt><trkpt lat="44.647307" lon="7.8617334"><ele>274.2857142857143</ele><time>2026-04-11T13:44:01.78Z</time></trkpt><trkpt lat="44.6473722" lon="7.8617291"><ele>276.57142857142856</ele><time>2026-04-11T13:44:02.78Z</time></trkpt><trkpt lat="44.6474378" lon="7.8617226"><ele>278.8571428571429</ele><time>2026-04-11T13:44:03.78Z</time></trkpt><trkpt lat="44.6475011" lon="7.861712"><ele>281.1428571428571</ele><time>2026-04-11T13:44:04.78Z</time></trkpt><trkpt lat="44.6475645" lon="7.8616933"><ele>283.42857142857144</ele><time>2026-04-11T13:44:05.78Z</time></trkpt><trkpt lat="44.6476697" lon="7.8615997"><ele>285.7142857142857</ele><time>2026-04-11T13:44:07.78Z</time></trkpt><trkpt lat="44.647711" lon="7.8615323"><ele>288.0</ele><time>2026-04-11T13:44:08.78Z</time></trkpt><trkpt lat="44.6477529" lon="7.8614586"><ele>288.00000000000006</ele><time>2026-04-11T13:44:09.78Z</time></trkpt><trkpt lat="44.6477853" lon="7.8613823"><ele>288.0</ele><time>2026-04-11T13:44:10.78Z</time></trkpt><trkpt lat="44.647821" lon="7.8612973"><ele>288.0</ele><time>2026-04-11T13:44:11.78Z</time></trkpt><trkpt lat="44.6478719" lon="7.861214"><ele>288.0</ele><time>2026-04-11T13:44:12.78Z</time></trkpt><trkpt lat="44.647943" lon="7.8611765"><ele>288.0</ele><time>2026-04-11T13:44:13.78Z</time></trkpt><trkpt lat="44.6480135" lon="7.8611758"><ele>288.00000000000006</ele><time>2026-04-11T13:44:14.78Z</time></trkpt><trkpt lat="44.6480765" lon="7.8611905"><ele>288.0</ele><time>2026-04-11T13:44:15.78Z</time></trkpt><trkpt lat="44.6481391" lon="7.8612058"><ele>287.75</ele><time>2026-04-11T13:44:16.78Z</time></trkpt><trkpt lat="44.6482526" lon="7.8612056"><ele>287.5</ele><time>2026-04-11T13:44:18.78Z</time></trkpt><trkpt lat="44.6483661" lon="7.8612022"><ele>287.25</ele><time>2026-04-11T13:44:20.78Z</time></trkpt><trkpt lat="44.6484892" lon="7.8611917"><ele>287.0</ele><time>2026-04-11T13:44:22.781Z</time></trkpt><trkpt lat="44.6486126" lon="7.8611817"><ele>287.6666666666667</ele><time>2026-04-11T13:44:24.78Z</time></trkpt><trkpt lat="44.6487293" lon="7.8611736"><ele>288.33333333333337</ele><time>2026-04-11T13:44:26.78Z</time></trkpt><trkpt lat="44.6488403" lon="7.8611682"><ele>289.0</ele><time>2026-04-11T13:44:28.78Z</time></trkpt><trkpt lat="44.6489041" lon="7.8611696"><ele>289.6666666666667</ele><time>2026-04-11T13:44:29.78Z</time></trkpt><trkpt lat="44.648974" lon="7.8611666"><ele>290.3333333333333</ele><time>2026-04-11T13:44:30.781Z</time></trkpt><trkpt lat="44.6490372" lon="7.8611578"><ele>291.0</ele><time>2026-04-11T13:44:31.78Z</time></trkpt><trkpt lat="44.6491479" lon="7.8611518"><ele>291.0</ele><time>2026-04-11T13:44:33.78Z</time></trkpt><trkpt lat="44.6492725" lon="7.861146"><ele>291.0</ele><time>2026-04-11T13:44:35.78Z</time></trkpt><trkpt lat="44.649391" lon="7.8611426"><ele>291.0</ele><time>2026-04-11T13:44:37.78Z</time></trkpt><trkpt lat="44.6495052" lon="7.8611484"><ele>291.0</ele><time>2026-04-11T13:44:39.78Z</time></trkpt><trkpt lat="44.6495875" lon="7.8610893"><ele>291.0</ele><time>2026-04-11T13:44:41.78Z</time></trkpt><trkpt lat="44.6496339" lon="7.860967"><ele>291.0</ele><time>2026-04-11T13:44:43.78Z</time></trkpt><trkpt lat="44.6496319" lon="7.8607973"><ele>291.0</ele><time>2026-04-11T13:44:45.781Z</time></trkpt><trkpt lat="44.6496297" lon="7.8606414"><ele>291.0</ele><time>2026-04-11T13:44:47.78Z</time></trkpt><trkpt lat="44.649616" lon="7.8605004"><ele>291.0</ele><time>2026-04-11T13:44:49.78Z</time></trkpt><trkpt lat="44.6496157" lon="7.8603555"><ele>291.0</ele><time>2026-04-11T13:44:51.78Z</time></trkpt><trkpt lat="44.6496213" lon="7.860202"><ele>291.0</ele><time>2026-04-11T13:44:53.78Z</time></trkpt><trkpt lat="44.649613" lon="7.8600577"><ele>291.0</ele><time>2026-04-11T13:44:55.78Z</time></trkpt><trkpt lat="44.6496012" lon="7.8599142"><ele>291.0</ele><time>2026-04-11T13:44:57.78Z</time></trkpt><trkpt lat="44.6495947" lon="7.8597724"><ele>291.0</ele><time>2026-04-11T13:44:59.78Z</time></trkpt><trkpt lat="44.6495914" lon="7.859625"><ele>290.8</ele><time>2026-04-11T13:45:01.78Z</time></trkpt><trkpt lat="44.6495886" lon="7.8594831"><ele>290.6</ele><time>2026-04-11T13:45:03.78Z</time></trkpt><trkpt lat="44.6495883" lon="7.859336"><ele>290.4</ele><time>2026-04-11T13:45:05.78Z</time></trkpt><trkpt lat="44.6495944" lon="7.859197"><ele>290.2</ele><time>2026-04-11T13:45:07.78Z</time></trkpt><trkpt lat="44.649589" lon="7.8590554"><ele>290.0</ele><time>2026-04-11T13:45:09.78Z</time></trkpt><trkpt lat="44.6495866" lon="7.8589218"><ele>290.0</ele><time>2026-04-11T13:45:11.78Z</time></trkpt><trkpt lat="44.649596" lon="7.8587726"><ele>290.0</ele><time>2026-04-11T13:45:13.78Z</time></trkpt><trkpt lat="44.6495996" lon="7.8586429"><ele>290.0</ele><time>2026-04-11T13:45:15.78Z</time></trkpt><trkpt lat="44.6495896" lon="7.8585259"><ele>290.0</ele><time>2026-04-11T13:45:17.78Z</time></trkpt><trkpt lat="44.6495937" lon="7.8584224"><ele>290.0</ele><time>2026-04-11T13:45:19.78Z</time></trkpt><trkpt lat="44.6496015" lon="7.8583239"><ele>290.0</ele><time>2026-04-11T13:45:22.78Z</time></trkpt><trkpt lat="44.649593" lon="7.8582083"><ele>292.0</ele><time>2026-04-11T13:45:26.788Z</time></trkpt><trkpt lat="44.6495399" lon="7.858154"><ele>292.0</ele><time>2026-04-11T13:45:30.788Z</time></trkpt><trkpt lat="44.6494815" lon="7.8581008"><ele>292.0</ele><time>2026-04-11T13:45:35.788Z</time></trkpt></trkseg></trk></gpx>